<?xml version='1.0' encoding='UTF-8'?><gpx version="1.1" creator="JPX - https://github.com/jenetics/jpx" xmlns="http://www.topografix.com/GPX/1/1"><trk><trkseg><trkpt lat="44.57324948320715" lon="10.07400690010916"><ele>716.0</ele><time>2026-05-02T13:22:43.999Z</time></trkpt><trkpt lat="44.57317327383561" lon="10.074005746349895"><ele>716.0</ele><time>2026-05-02T13:22:44.999Z</time></trkpt><trkpt lat="44.573099046205996" lon="10.07398640984253"><ele>716.0</ele><time>2026-05-02T13:22:45.999Z</time></trkpt><trkpt lat="44.573022866642795" lon="10.073959951647762"><ele>716.0</ele><time>2026-05-02T13:22:46.999Z</time></trkpt><trkpt lat="44.57291191622094" lon="10.073957510493603"><ele>716.0</ele><time>2026-05-02T13:22:47.999Z</time></trkpt><trkpt lat="44.572793213134474" lon="10.073964366587983"><ele>714.4</ele><time>2026-05-02T13:22:48.999Z</time></trkpt><trkpt lat="44.57267317616944" lon="10.073975003613628"><ele>712.8</ele><time>2026-05-02T13:22:49.999Z</time></trkpt><trkpt lat="44.572563043027394" lon="10.073980627789815"><ele>711.1999999999999</ele><time>2026-05-02T13:22:50.999Z</time></trkpt><trkpt lat="44.57246031672329" lon="10.074016302510481"><ele>709.5999999999999</ele><time>2026-05-02T13:22:51.999Z</time></trkpt><trkpt lat="44.572362865186676" lon="10.074064124624885"><ele>708.0</ele><time>2026-05-02T13:22:52.999Z</time></trkpt><trkpt lat="44.57227869129567" lon="10.07411880474998"><ele>708.0</ele><time>2026-05-02T13:22:53.999Z</time></trkpt><trkpt lat="44.57219547108888" lon="10.074156586319347"><ele>708.0</ele><time>2026-05-02T13:22:54.999Z</time></trkpt><trkpt lat="44.57211185669222" lon="10.074156701468363"><ele>708.0</ele><time>2026-05-02T13:22:55.999Z</time></trkpt><trkpt lat="44.57202839019855" lon="10.074149015724498"><ele>708.0</ele><time>2026-05-02T13:22:56.999Z</time></trkpt><trkpt lat="44.571946464286675" lon="10.074126158770179"><ele>708.0</ele><time>2026-05-02T13:22:57.999Z</time></trkpt><trkpt lat="44.57185448346421" lon="10.074082850166137"><ele>708.0</ele><time>2026-05-02T13:22:58.999Z</time></trkpt><trkpt lat="44.57174819595797" lon="10.074021841015318"><ele>715.3333333333334</ele><time>2026-05-02T13:22:59.999Z</time></trkpt><trkpt lat="44.571642333523776" lon="10.073986844507893"><ele>722.6666666666666</ele><time>2026-05-02T13:23:00.999Z</time></trkpt><trkpt lat="44.571557240198935" lon="10.073968860104083"><ele>730.0</ele><time>2026-05-02T13:23:01.999Z</time></trkpt><trkpt lat="44.5714702616392" lon="10.073963558143054"><ele>737.3333333333333</ele><time>2026-05-02T13:23:02.999Z</time></trkpt><trkpt lat="44.57138546534091" lon="10.07397163393992"><ele>744.6666666666666</ele><time>2026-05-02T13:23:03.999Z</time></trkpt><trkpt lat="44.5713168354231" lon="10.073985911238731"><ele>752.0</ele><time>2026-05-02T13:23:04.999Z</time></trkpt><trkpt lat="44.571254158247875" lon="10.074017692543377"><ele>754.8</ele><time>2026-05-02T13:23:05.999Z</time></trkpt><trkpt lat="44.57118999267648" lon="10.07404249177653"><ele>757.6</ele><time>2026-05-02T13:23:06.999Z</time></trkpt><trkpt lat="44.57111449365801" lon="10.074106453101319"><ele>760.4</ele><time>2026-05-02T13:23:07.999Z</time></trkpt><trkpt lat="44.571048656864605" lon="10.074144852419188"><ele>763.1999999999999</ele><time>2026-05-02T13:23:08.999Z</time></trkpt><trkpt lat="44.57094249037378" lon="10.074193716693841"><ele>766.0</ele><time>2026-05-02T13:23:09.999Z</time></trkpt><trkpt lat="44.57081874123027" lon="10.074236114023815"><ele>766.0</ele><time>2026-05-02T13:23:10.999Z</time></trkpt><trkpt lat="44.570733573109216" lon="10.074285797919282"><ele>766.0</ele><time>2026-05-02T13:23:11.999Z</time></trkpt><trkpt lat="44.57064749331568" lon="10.074290693311136"><ele>766.0</ele><time>2026-05-02T13:23:12.999Z</time></trkpt><trkpt lat="44.5705784707027" lon="10.074248826406812"><ele>766.0</ele><time>2026-05-02T13:23:13.999Z</time></trkpt><trkpt lat="44.57050610378194" lon="10.074208158608501"><ele>766.0</ele><time>2026-05-02T13:23:14.999Z</time></trkpt><trkpt lat="44.570429633588724" lon="10.07414773499386"><ele>766.0</ele><time>2026-05-02T13:23:15.999Z</time></trkpt><trkpt lat="44.57036811060616" lon="10.074077555228705"><ele>765.8333333333334</ele><time>2026-05-02T13:23:16.999Z</time></trkpt><trkpt lat="44.57032186052384" lon="10.073982208283498"><ele>765.6666666666667</ele><time>2026-05-02T13:23:18Z</time></trkpt><trkpt lat="44.57026438087586" lon="10.073862977488941"><ele>765.5</ele><time>2026-05-02T13:23:19Z</time></trkpt><trkpt lat="44.57021677758069" lon="10.07377043796402"><ele>765.3333333333334</ele><time>2026-05-02T13:23:20Z</time></trkpt><trkpt lat="44.570146803691344" lon="10.073676465539387"><ele>765.1666666666666</ele><time>2026-05-02T13:23:22Z</time></trkpt><trkpt lat="44.570082036838635" lon="10.073610412799061"><ele>765.0</ele><time>2026-05-02T13:23:23Z</time></trkpt><trkpt lat="44.570007179866934" lon="10.073583780538712"><ele>765.0</ele><time>2026-05-02T13:23:24Z</time></trkpt><trkpt lat="44.56992552270076" lon="10.073580212950693"><ele>765.0</ele><time>2026-05-02T13:23:25Z</time></trkpt><trkpt lat="44.569797726803074" lon="10.073604661643872"><ele>765.0</ele><time>2026-05-02T13:23:27Z</time></trkpt><trkpt lat="44.569731330662925" lon="10.073625604842357"><ele>765.0</ele><time>2026-05-02T13:23:28Z</time></trkpt><trkpt lat="44.56966098217265" lon="10.073646486030427"><ele>765.0</ele><time>2026-05-02T13:23:29Z</time></trkpt><trkpt lat="44.569605988585934" lon="10.073704669948972"><ele>765.0</ele><time>2026-05-02T13:23:30Z</time></trkpt><trkpt lat="44.56949611983649" lon="10.073742843689995"><ele>766.6666666666666</ele><time>2026-05-02T13:23:32Z</time></trkpt><trkpt lat="44.56942690767192" lon="10.073744578111693"><ele>768.3333333333333</ele><time>2026-05-02T13:23:33Z</time></trkpt><trkpt lat="44.569342240110245" lon="10.07376908632691"><ele>770.0</ele><time>2026-05-02T13:23:34Z</time></trkpt><trkpt lat="44.56926149950483" lon="10.073765259878707"><ele>771.6666666666666</ele><time>2026-05-02T13:23:35Z</time></trkpt><trkpt lat="44.569178979787836" lon="10.07378625574188"><ele>773.3333333333333</ele><time>2026-05-02T13:23:36Z</time></trkpt><trkpt lat="44.56911241587738" lon="10.073829279656884"><ele>775.0</ele><time>2026-05-02T13:23:37Z</time></trkpt><trkpt lat="44.569044475133005" lon="10.0738312445365"><ele>774.9999999999999</ele><time>2026-05-02T13:23:38Z</time></trkpt><trkpt lat="44.568970233165764" lon="10.073858390355593"><ele>775.0</ele><time>2026-05-02T13:23:39Z</time></trkpt><trkpt lat="44.56890169028706" lon="10.073928001024543"><ele>775.0</ele><time>2026-05-02T13:23:40Z</time></trkpt><trkpt lat="44.56884243183159" lon="10.074014850687632"><ele>775.0</ele><time>2026-05-02T13:23:41Z</time></trkpt><trkpt lat="44.56878144027945" lon="10.074108670524245"><ele>774.9999999999999</ele><time>2026-05-02T13:23:42Z</time></trkpt><trkpt lat="44.56870826822828" lon="10.074155829865587"><ele>775.0</ele><time>2026-05-02T13:23:43Z</time></trkpt><trkpt lat="44.56863680165579" lon="10.074194957890638"><ele>772.5714285714286</ele><time>2026-05-02T13:23:44Z</time></trkpt><trkpt lat="44.5685736340481" lon="10.074224859274384"><ele>770.1428571428571</ele><time>2026-05-02T13:23:45Z</time></trkpt><trkpt lat="44.568461117565064" lon="10.074256568791707"><ele>767.7142857142858</ele><time>2026-05-02T13:23:47Z</time></trkpt><trkpt lat="44.568395261411354" lon="10.074276031095483"><ele>765.2857142857142</ele><time>2026-05-02T13:23:48Z</time></trkpt><trkpt lat="44.56832775238942" lon="10.0742646664112"><ele>762.8571428571429</ele><time>2026-05-02T13:23:49Z</time></trkpt><trkpt lat="44.56826450882886" lon="10.074257322613756"><ele>760.4285714285714</ele><time>2026-05-02T13:23:50Z</time></trkpt><trkpt lat="44.56820888549495" lon="10.074207296339837"><ele>758.0</ele><time>2026-05-02T13:23:51Z</time></trkpt><trkpt lat="44.568150136602206" lon="10.074165543824238"><ele>763.4</ele><time>2026-05-02T13:23:53Z</time></trkpt><trkpt lat="44.56811698331603" lon="10.074027322892842"><ele>768.8</ele><time>2026-05-02T13:23:55Z</time></trkpt><trkpt lat="44.56808492264743" lon="10.073883846309833"><ele>774.2</ele><time>2026-05-02T13:23:57Z</time></trkpt><trkpt lat="44.56800372979012" lon="10.073806140873089"><ele>779.6</ele><time>2026-05-02T13:23:59Z</time></trkpt><trkpt lat="44.567920059995906" lon="10.073839607630562"><ele>785.0</ele><time>2026-05-02T13:24:00Z</time></trkpt><trkpt lat="44.56782849362714" lon="10.073886777344105"><ele>787.3333333333334</ele><time>2026-05-02T13:24:02Z</time></trkpt><trkpt lat="44.56771038094822" lon="10.073888652801664"><ele>789.6666666666667</ele><time>2026-05-02T13:24:05Z</time></trkpt><trkpt lat="44.567652189172684" lon="10.073834836810349"><ele>792.0</ele><time>2026-05-02T13:24:06Z</time></trkpt><trkpt lat="44.56758555906192" lon="10.0738015432296"><ele>794.3333333333333</ele><time>2026-05-02T13:24:07Z</time></trkpt><trkpt lat="44.56751738892566" lon="10.073792624587945"><ele>796.6666666666666</ele><time>2026-05-02T13:24:08Z</time></trkpt><trkpt lat="44.56739595289215" lon="10.073794583946134"><ele>799.0</ele><time>2026-05-02T13:24:10Z</time></trkpt><trkpt lat="44.56734464294418" lon="10.073898608345422"><ele>799.0</ele><time>2026-05-02T13:24:11Z</time></trkpt><trkpt lat="44.56723432778002" lon="10.073975752020024"><ele>799.0</ele><time>2026-05-02T13:24:13Z</time></trkpt><trkpt lat="44.567140839504695" lon="10.074038367256223"><ele>799.0</ele><time>2026-05-02T13:24:15Z</time></trkpt><trkpt lat="44.56707784762512" lon="10.074075234210571"><ele>799.0</ele><time>2026-05-02T13:24:16Z</time></trkpt><trkpt lat="44.567010624909756" lon="10.074102042618636"><ele>799.0</ele><time>2026-05-02T13:24:17Z</time></trkpt><trkpt lat="44.566925315342075" lon="10.074108867114335"><ele>803.8000000000001</ele><time>2026-05-02T13:24:18Z</time></trkpt><trkpt lat="44.56678235841047" lon="10.07408346616985"><ele>808.6</ele><time>2026-05-02T13:24:20Z</time></trkpt><trkpt lat="44.566707612035565" lon="10.074072535391641"><ele>813.4</ele><time>2026-05-02T13:24:21Z</time></trkpt><trkpt lat="44.56662399167907" lon="10.074039508869683"><ele>818.2</ele><time>2026-05-02T13:24:22Z</time></trkpt><trkpt lat="44.56655689775494" lon="10.074019015334612"><ele>823.0</ele><time>2026-05-02T13:24:23Z</time></trkpt><trkpt lat="44.56648008540936" lon="10.074011879512135"><ele>822.9999999999999</ele><time>2026-05-02T13:24:24Z</time></trkpt><trkpt lat="44.566408201068114" lon="10.074022116942754"><ele>823.0</ele><time>2026-05-02T13:24:25Z</time></trkpt><trkpt lat="44.56634743379042" lon="10.074055500208173"><ele>823.0</ele><time>2026-05-02T13:24:26Z</time></trkpt><trkpt lat="44.56628797837818" lon="10.074099343697208"><ele>823.0</ele><time>2026-05-02T13:24:27Z</time></trkpt><trkpt lat="44.56621284780209" lon="10.074094909441962"><ele>822.9999999999999</ele><time>2026-05-02T13:24:28Z</time></trkpt><trkpt lat="44.56614489730665" lon="10.07410662950534"><ele>823.0</ele><time>2026-05-02T13:24:29Z</time></trkpt><trkpt lat="44.5660244552022" lon="10.074127604890174"><ele>823.0</ele><time>2026-05-02T13:24:30.999Z</time></trkpt><trkpt lat="44.565899344631795" lon="10.074105789733997"><ele>823.0</ele><time>2026-05-02T13:24:32.999Z</time></trkpt><trkpt lat="44.565812493634986" lon="10.074056763943064"><ele>823.0</ele><time>2026-05-02T13:24:34.999Z</time></trkpt><trkpt lat="44.56573601384809" lon="10.073909599615227"><ele>823.0</ele><time>2026-05-02T13:24:36.999Z</time></trkpt><trkpt lat="44.56571701186942" lon="10.07382209402518"><ele>823.0</ele><time>2026-05-02T13:24:37.999Z</time></trkpt><trkpt lat="44.56569631537216" lon="10.073731887376919"><ele>822.9999999999999</ele><time>2026-05-02T13:24:38.999Z</time></trkpt><trkpt lat="44.56564217849011" lon="10.073682849049423"><ele>823.0</ele><time>2026-05-02T13:24:39.999Z</time></trkpt><trkpt lat="44.56556638071568" lon="10.07368305368465"><ele>823.0</ele><time>2026-05-02T13:24:40.999Z</time></trkpt><trkpt lat="44.56549018710756" lon="10.073707700423512"><ele>823.0</ele><time>2026-05-02T13:24:41.999Z</time></trkpt><trkpt lat="44.565414956867905" lon="10.073753221211527"><ele>822.9999999999999</ele><time>2026-05-02T13:24:42.999Z</time></trkpt><trkpt lat="44.56534668662925" lon="10.07378343314276"><ele>823.0</ele><time>2026-05-02T13:24:43.999Z</time></trkpt><trkpt lat="44.56523271325216" lon="10.073827283039858"><ele>821.1666666666666</ele><time>2026-05-02T13:24:45.999Z</time></trkpt><trkpt lat="44.56511084487896" lon="10.07386497732346"><ele>819.3333333333333</ele><time>2026-05-02T13:24:47.999Z</time></trkpt><trkpt lat="44.56505081316508" lon="10.073828684053007"><ele>817.5</ele><time>2026-05-02T13:24:48.999Z</time></trkpt><trkpt lat="44.565013836958165" lon="10.073753194156769"><ele>815.6666666666667</ele><time>2026-05-02T13:24:49.999Z</time></trkpt><trkpt lat="44.56498104460892" lon="10.073668180698158"><ele>813.8333333333334</ele><time>2026-05-02T13:24:50.999Z</time></trkpt><trkpt lat="44.564967467125264" lon="10.073562752798576"><ele>812.0</ele><time>2026-05-02T13:24:51.999Z</time></trkpt><trkpt lat="44.56494949475385" lon="10.073456201546492"><ele>812.0000000000001</ele><time>2026-05-02T13:24:52.999Z</time></trkpt><trkpt lat="44.56493863263831" lon="10.073335263246852"><ele>812.0</ele><time>2026-05-02T13:24:53.999Z</time></trkpt><trkpt lat="44.56489784566073" lon="10.073257177723255"><ele>812.0</ele><time>2026-05-02T13:24:54.999Z</time></trkpt><trkpt lat="44.56486637487945" lon="10.073165460169575"><ele>812.0</ele><time>2026-05-02T13:24:55.999Z</time></trkpt><trkpt lat="44.56483330246136" lon="10.073070863227501"><ele>812.0000000000001</ele><time>2026-05-02T13:24:56.999Z</time></trkpt><trkpt lat="44.564773441876774" lon="10.073006080106472"><ele>812.0</ele><time>2026-05-02T13:24:57.999Z</time></trkpt><trkpt lat="44.564676037782526" lon="10.073009584936752"><ele>812.3333333333334</ele><time>2026-05-02T13:24:58.999Z</time></trkpt><trkpt lat="44.564593745661114" lon="10.07302810760831"><ele>812.6666666666667</ele><time>2026-05-02T13:24:59.999Z</time></trkpt><trkpt lat="44.5645169220079" lon="10.073103387821234"><ele>813.0</ele><time>2026-05-02T13:25:00.999Z</time></trkpt><trkpt lat="44.56444354371955" lon="10.073165639270645"><ele>813.3333333333333</ele><time>2026-05-02T13:25:01.999Z</time></trkpt><trkpt lat="44.5643748534594" lon="10.07321477959502"><ele>813.6666666666666</ele><time>2026-05-02T13:25:02.999Z</time></trkpt><trkpt lat="44.56431035777367" lon="10.073251992205895"><ele>814.0</ele><time>2026-05-02T13:25:03.999Z</time></trkpt><trkpt lat="44.564253707161924" lon="10.073310652138224"><ele>813.9999999999999</ele><time>2026-05-02T13:25:04.999Z</time></trkpt><trkpt lat="44.56417906149497" lon="10.073353836616493"><ele>814.0</ele><time>2026-05-02T13:25:05.999Z</time></trkpt><trkpt lat="44.5641113862091" lon="10.073410221098731"><ele>814.0</ele><time>2026-05-02T13:25:06.999Z</time></trkpt><trkpt lat="44.56403976185912" lon="10.07345107943312"><ele>814.0</ele><time>2026-05-02T13:25:07.999Z</time></trkpt><trkpt lat="44.56398459437435" lon="10.073514538398479"><ele>813.9999999999999</ele><time>2026-05-02T13:25:08.999Z</time></trkpt><trkpt lat="44.563939604685004" lon="10.07359084639886"><ele>814.0</ele><time>2026-05-02T13:25:09.999Z</time></trkpt><trkpt lat="44.563941963314555" lon="10.07372081432553"><ele>814.0</ele><time>2026-05-02T13:25:10.999Z</time></trkpt><trkpt lat="44.56393137440078" lon="10.07382350248062"><ele>814.0</ele><time>2026-05-02T13:25:11.999Z</time></trkpt><trkpt lat="44.56390060255483" lon="10.073981644744293"><ele>814.0</ele><time>2026-05-02T13:25:13.999Z</time></trkpt><trkpt lat="44.56388831602766" lon="10.074105344668608"><ele>814.0</ele><time>2026-05-02T13:25:15.999Z</time></trkpt><trkpt lat="44.56386077157671" lon="10.074204471327606"><ele>814.0</ele><time>2026-05-02T13:25:32Z</time></trkpt><trkpt lat="44.56377148822722" lon="10.074298080875762"><ele>814.6666666666666</ele><time>2026-05-02T13:25:34Z</time></trkpt><trkpt lat="44.56370306039739" lon="10.07433187144956"><ele>815.3333333333333</ele><time>2026-05-02T13:25:35Z</time></trkpt><trkpt lat="44.56363839665317" lon="10.074387835413877"><ele>816.0</ele><time>2026-05-02T13:25:36Z</time></trkpt><trkpt lat="44.563576000437834" lon="10.074441871698768"><ele>816.6666666666667</ele><time>2026-05-02T13:25:37Z</time></trkpt><trkpt lat="44.56350774310013" lon="10.074499200560744"><ele>817.3333333333334</ele><time>2026-05-02T13:25:38Z</time></trkpt><trkpt lat="44.56342751725575" lon="10.074565073721226"><ele>818.0</ele><time>2026-05-02T13:25:39Z</time></trkpt><trkpt lat="44.56336624086857" lon="10.074613941932549"><ele>818.0000000000001</ele><time>2026-05-02T13:25:40Z</time></trkpt><trkpt lat="44.563297653761644" lon="10.074667336207842"><ele>818.0</ele><time>2026-05-02T13:25:41Z</time></trkpt><trkpt lat="44.56322560969857" lon="10.07472381653229"><ele>818.0</ele><time>2026-05-02T13:25:42Z</time></trkpt><trkpt lat="44.56315138118668" lon="10.074761849060394"><ele>818.0</ele><time>2026-05-02T13:25:43Z</time></trkpt><trkpt lat="44.56307838877667" lon="10.074790673757985"><ele>818.0000000000001</ele><time>2026-05-02T13:25:44Z</time></trkpt><trkpt lat="44.56295390016164" lon="10.074755093072138"><ele>818.0</ele><time>2026-05-02T13:25:46Z</time></trkpt><trkpt lat="44.56283307224553" lon="10.074716947920354"><ele>819.7142857142857</ele><time>2026-05-02T13:25:48Z</time></trkpt><trkpt lat="44.56277011678496" lon="10.074734801522064"><ele>821.4285714285714</ele><time>2026-05-02T13:25:49Z</time></trkpt><trkpt lat="44.56269904919863" lon="10.07474157803068"><ele>823.1428571428571</ele><time>2026-05-02T13:25:50Z</time></trkpt><trkpt lat="44.56262659430533" lon="10.074778429610289"><ele>824.8571428571429</ele><time>2026-05-02T13:25:51Z</time></trkpt><trkpt lat="44.562555994083525" lon="10.074826596603337"><ele>826.5714285714287</ele><time>2026-05-02T13:25:52Z</time></trkpt><trkpt lat="44.56248091644039" lon="10.074831683169942"><ele>828.2857142857143</ele><time>2026-05-02T13:25:53Z</time></trkpt><trkpt lat="44.56241710471324" lon="10.074839409177603"><ele>830.0</ele><time>2026-05-02T13:25:54Z</time></trkpt><trkpt lat="44.56229372572596" lon="10.07484734193617"><ele>830.0</ele><time>2026-05-02T13:25:56Z</time></trkpt><trkpt lat="44.56219519065413" lon="10.074852622634353"><ele>830.0</ele><time>2026-05-02T13:25:58Z</time></trkpt><trkpt lat="44.56208038747059" lon="10.074835037689144"><ele>830.0</ele><time>2026-05-02T13:26:00Z</time></trkpt><trkpt lat="44.5619653795969" lon="10.074789523289517"><ele>830.0</ele><time>2026-05-02T13:26:02Z</time></trkpt><trkpt lat="44.56188225532787" lon="10.074788315895173"><ele>830.0</ele><time>2026-05-02T13:26:03Z</time></trkpt><trkpt lat="44.56180431389015" lon="10.074812329054438"><ele>831.75</ele><time>2026-05-02T13:26:04Z</time></trkpt><trkpt lat="44.56173737063967" lon="10.07483553946129"><ele>833.5</ele><time>2026-05-02T13:26:05Z</time></trkpt><trkpt lat="44.56164053240403" lon="10.074870235599764"><ele>835.25</ele><time>2026-05-02T13:26:07Z</time></trkpt><trkpt lat="44.56158667389994" lon="10.074931899916391"><ele>837.0</ele><time>2026-05-02T13:26:09Z</time></trkpt><trkpt lat="44.5616285753947" lon="10.075295175465333"><ele>837.0</ele><time>2026-05-02T13:26:10Z</time></trkpt><trkpt lat="44.56157640547415" lon="10.075431685886125"><ele>837.0</ele><time>2026-05-02T13:26:12Z</time></trkpt><trkpt lat="44.5614807572125" lon="10.07551091012642"><ele>837.0</ele><time>2026-05-02T13:26:14Z</time></trkpt><trkpt lat="44.56141667070016" lon="10.075531583229516"><ele>837.0</ele><time>2026-05-02T13:26:15Z</time></trkpt><trkpt lat="44.56134722031355" lon="10.075582605159596"><ele>837.0</ele><time>2026-05-02T13:26:16Z</time></trkpt><trkpt lat="44.56129769916461" lon="10.07565880455527"><ele>837.0</ele><time>2026-05-02T13:26:17Z</time></trkpt><trkpt lat="44.56124682799337" lon="10.075746368574736"><ele>837.0</ele><time>2026-05-02T13:26:18Z</time></trkpt><trkpt lat="44.5611584131684" lon="10.075864589799226"><ele>837.0</ele><time>2026-05-02T13:26:20Z</time></trkpt><trkpt lat="44.56104873103181" lon="10.075957277524564"><ele>837.0</ele><time>2026-05-02T13:26:22Z</time></trkpt><trkpt lat="44.560985603267035" lon="10.076003062612164"><ele>837.0</ele><time>2026-05-02T13:26:23Z</time></trkpt><trkpt lat="44.560917084645524" lon="10.076039685715719"><ele>837.0</ele><time>2026-05-02T13:26:24Z</time></trkpt><trkpt lat="44.560850258466814" lon="10.07607212729431"><ele>837.0</ele><time>2026-05-02T13:26:25Z</time></trkpt><trkpt lat="44.56078888383415" lon="10.076103142239733"><ele>837.0</ele><time>2026-05-02T13:26:26Z</time></trkpt><trkpt lat="44.56072241994486" lon="10.0761127849274"><ele>837.0</ele><time>2026-05-02T13:26:27Z</time></trkpt><trkpt lat="44.56065326681243" lon="10.076094048917811"><ele>837.0</ele><time>2026-05-02T13:26:28Z</time></trkpt><trkpt lat="44.560580844859565" lon="10.076068158264242"><ele>837.0</ele><time>2026-05-02T13:26:29Z</time></trkpt><trkpt lat="44.56050279465273" lon="10.076050075706107"><ele>837.0</ele><time>2026-05-02T13:26:30Z</time></trkpt><trkpt lat="44.560430232569125" lon="10.076033802922828"><ele>837.0</ele><time>2026-05-02T13:26:31Z</time></trkpt><trkpt lat="44.56035563172289" lon="10.076024382843988"><ele>838.5</ele><time>2026-05-02T13:26:32Z</time></trkpt><trkpt lat="44.56028119620135" lon="10.076011691159493"><ele>840.0</ele><time>2026-05-02T13:26:33Z</time></trkpt><trkpt lat="44.560206329719335" lon="10.075995964699622"><ele>841.5</ele><time>2026-05-02T13:26:34Z</time></trkpt><trkpt lat="44.560089437067475" lon="10.075978595804408"><ele>843.0</ele><time>2026-05-02T13:26:36Z</time></trkpt><trkpt lat="44.5599883250853" lon="10.075991426584771"><ele>844.5</ele><time>2026-05-02T13:26:38Z</time></trkpt><trkpt lat="44.55992169357041" lon="10.076009559960944"><ele>846.0</ele><time>2026-05-02T13:26:39Z</time></trkpt><trkpt lat="44.55979179905597" lon="10.076047038062612"><ele>846.0</ele><time>2026-05-02T13:26:41Z</time></trkpt><trkpt lat="44.55965535156856" lon="10.076109670570924"><ele>846.0</ele><time>2026-05-02T13:26:43Z</time></trkpt><trkpt lat="44.559580065155295" lon="10.076123286959035"><ele>846.0</ele><time>2026-05-02T13:26:44Z</time></trkpt><trkpt lat="44.55945788253256" lon="10.076142492776178"><ele>846.0</ele><time>2026-05-02T13:26:46Z</time></trkpt><trkpt lat="44.55938718895793" lon="10.07624377967264"><ele>846.0</ele><time>2026-05-02T13:26:48Z</time></trkpt><trkpt lat="44.55936764662416" lon="10.076355523851307"><ele>847.3333333333334</ele><time>2026-05-02T13:26:49Z</time></trkpt><trkpt lat="44.559371122447594" lon="10.076454688848765"><ele>848.6666666666667</ele><time>2026-05-02T13:26:50Z</time></trkpt><trkpt lat="44.55936434417904" lon="10.076581315382407"><ele>850.0</ele><time>2026-05-02T13:26:52Z</time></trkpt><trkpt lat="44.5592940770729" lon="10.076614615738064"><ele>851.3333333333334</ele><time>2026-05-02T13:26:53.999Z</time></trkpt><trkpt lat="44.559263129836275" lon="10.076531650987077"><ele>852.6666666666667</ele><time>2026-05-02T13:26:55.999Z</time></trkpt><trkpt lat="44.55922300027649" lon="10.07634282165328"><ele>854.0</ele><time>2026-05-02T13:26:57.999Z</time></trkpt><trkpt lat="44.559212180673015" lon="10.076253654408811"><ele>855.6666666666667</ele><time>2026-05-02T13:26:58.999Z</time></trkpt><trkpt lat="44.559135443735975" lon="10.076138377205883"><ele>857.3333333333334</ele><time>2026-05-02T13:27:00.999Z</time></trkpt><trkpt lat="44.55900351671523" lon="10.076135878860544"><ele>859.0</ele><time>2026-05-02T13:27:02.999Z</time></trkpt><trkpt lat="44.558929553535854" lon="10.076136583197547"><ele>860.6666666666667</ele><time>2026-05-02T13:27:03.999Z</time></trkpt><trkpt lat="44.55886582902362" lon="10.076143694710229"><ele>862.3333333333334</ele><time>2026-05-02T13:27:04.999Z</time></trkpt><trkpt lat="44.55879984415915" lon="10.076151037500452"><ele>864.0</ele><time>2026-05-02T13:27:05.999Z</time></trkpt><trkpt lat="44.55873285175471" lon="10.07615695861562"><ele>863.5</ele><time>2026-05-02T13:27:06.999Z</time></trkpt><trkpt lat="44.5586163879048" lon="10.076123046802048"><ele>863.0</ele><time>2026-05-02T13:27:08.999Z</time></trkpt><trkpt lat="44.55851108021223" lon="10.076029222612974"><ele>862.5</ele><time>2026-05-02T13:27:10.999Z</time></trkpt><trkpt lat="44.55846805166807" lon="10.075869514635302"><ele>862.0</ele><time>2026-05-02T13:27:12.999Z</time></trkpt><trkpt lat="44.55849390294337" lon="10.075709291199537"><ele>865.9999999999999</ele><time>2026-05-02T13:27:14.999Z</time></trkpt><trkpt lat="44.5585230554725" lon="10.075612163753128"><ele>870.0</ele><time>2026-05-02T13:27:15.999Z</time></trkpt><trkpt lat="44.558553281656096" lon="10.075529262188443"><ele>874.0</ele><time>2026-05-02T13:27:16.999Z</time></trkpt><trkpt lat="44.55856694729718" lon="10.075428961152042"><ele>878.0</ele><time>2026-05-02T13:27:17.999Z</time></trkpt><trkpt lat="44.55854669481111" lon="10.075253956760353"><ele>881.9999999999999</ele><time>2026-05-02T13:27:19.999Z</time></trkpt><trkpt lat="44.55850271969767" lon="10.075189355598232"><ele>886.0</ele><time>2026-05-02T13:27:20.999Z</time></trkpt><trkpt lat="44.5584085537629" lon="10.075121380829213"><ele>886.0</ele><time>2026-05-02T13:27:22.999Z</time></trkpt><trkpt lat="44.558317619297824" lon="10.075060926764385"><ele>885.9999999999999</ele><time>2026-05-02T13:27:24.999Z</time></trkpt><trkpt lat="44.5582290734366" lon="10.074962002022088"><ele>885.9999999999999</ele><time>2026-05-02T13:27:26.999Z</time></trkpt><trkpt lat="44.55815914455006" lon="10.074843386874962"><ele>886.0</ele><time>2026-05-02T13:27:28.999Z</time></trkpt><trkpt lat="44.55812001604581" lon="10.074770030610818"><ele>886.0</ele><time>2026-05-02T13:27:30Z</time></trkpt><trkpt lat="44.55807608967467" lon="10.074704845321293"><ele>886.4999999999999</ele><time>2026-05-02T13:27:31Z</time></trkpt><trkpt lat="44.55799092624051" lon="10.07459266171626"><ele>887.0</ele><time>2026-05-02T13:27:33Z</time></trkpt><trkpt lat="44.55793719031931" lon="10.074543631670432"><ele>887.5</ele><time>2026-05-02T13:27:34Z</time></trkpt><trkpt lat="44.55790037440089" lon="10.074469090135048"><ele>888.0</ele><time>2026-05-02T13:27:35Z</time></trkpt><trkpt lat="44.557860948682205" lon="10.074392994970943"><ele>888.4999999999999</ele><time>2026-05-02T13:27:36Z</time></trkpt><trkpt lat="44.557779655813164" lon="10.074270271386519"><ele>889.0</ele><time>2026-05-02T13:27:38Z</time></trkpt><trkpt lat="44.55772935752508" lon="10.07421207713009"><ele>889.0</ele><time>2026-05-02T13:27:39Z</time></trkpt><trkpt lat="44.557687228164106" lon="10.074136514426012"><ele>889.0</ele><time>2026-05-02T13:27:40Z</time></trkpt><trkpt lat="44.557646026675656" lon="10.074056560630611"><ele>889.0</ele><time>2026-05-02T13:27:41Z</time></trkpt><trkpt lat="44.55760082238309" lon="10.073988146721888"><ele>889.0</ele><time>2026-05-02T13:27:42Z</time></trkpt><trkpt lat="44.5575457500955" lon="10.073935684534575"><ele>889.0</ele><time>2026-05-02T13:27:43Z</time></trkpt><trkpt lat="44.55749671302445" lon="10.073870785028433"><ele>889.0</ele><time>2026-05-02T13:27:44Z</time></trkpt><trkpt lat="44.557463055831064" lon="10.073792263356301"><ele>889.0</ele><time>2026-05-02T13:27:45Z</time></trkpt><trkpt lat="44.55742443025582" lon="10.07370968690567"><ele>893.7142857142858</ele><time>2026-05-02T13:27:46Z</time></trkpt><trkpt lat="44.55739163128099" lon="10.07361645757805"><ele>898.4285714285714</ele><time>2026-05-02T13:27:47Z</time></trkpt><trkpt lat="44.55735356415983" lon="10.073532310968247"><ele>903.1428571428571</ele><time>2026-05-02T13:27:48Z</time></trkpt><trkpt lat="44.557303174665385" lon="10.073451060674183"><ele>907.8571428571429</ele><time>2026-05-02T13:27:49Z</time></trkpt><trkpt lat="44.55726269525287" lon="10.073367481284972"><ele>912.5714285714287</ele><time>2026-05-02T13:27:50Z</time></trkpt><trkpt lat="44.557216095861335" lon="10.073287000559848"><ele>917.2857142857143</ele><time>2026-05-02T13:27:51Z</time></trkpt><trkpt lat="44.55717964101841" lon="10.073206114149036"><ele>922.0</ele><time>2026-05-02T13:27:52Z</time></trkpt><trkpt lat="44.55715432399635" lon="10.073113417602444"><ele>920.4999999999999</ele><time>2026-05-02T13:27:53Z</time></trkpt><trkpt lat="44.55713216068127" lon="10.073015750809237"><ele>919.0</ele><time>2026-05-02T13:27:54Z</time></trkpt><trkpt lat="44.55712207143112" lon="10.072922172510733"><ele>917.5</ele><time>2026-05-02T13:27:55Z</time></trkpt><trkpt lat="44.55706942173932" lon="10.07280996470374"><ele>916.0</ele><time>2026-05-02T13:27:57Z</time></trkpt><trkpt lat="44.55702042942257" lon="10.072697293696988"><ele>914.4999999999999</ele><time>2026-05-02T13:27:59Z</time></trkpt><trkpt lat="44.55699043998774" lon="10.072608506490086"><ele>913.0</ele><time>2026-05-02T13:28:00Z</time></trkpt><trkpt lat="44.55697605137252" lon="10.07251485239551"><ele>917.5</ele><time>2026-05-02T13:28:01Z</time></trkpt><trkpt lat="44.55698957171165" lon="10.072335951781092"><ele>922.0</ele><time>2026-05-02T13:28:03Z</time></trkpt><trkpt lat="44.55699338062303" lon="10.07217388711153"><ele>926.5</ele><time>2026-05-02T13:28:05Z</time></trkpt><trkpt lat="44.55697607001938" lon="10.072013195569303"><ele>931.0</ele><time>2026-05-02T13:28:07Z</time></trkpt><trkpt lat="44.55697081785581" lon="10.071869931575854"><ele>931.0</ele><time>2026-05-02T13:28:09Z</time></trkpt><trkpt lat="44.55694459647238" lon="10.071741649711983"><ele>930.9999999999999</ele><time>2026-05-02T13:28:11Z</time></trkpt><trkpt lat="44.55690315528192" lon="10.071631236437995"><ele>930.9999999999999</ele><time>2026-05-02T13:28:13Z</time></trkpt><trkpt lat="44.556834476161946" lon="10.07158361919234"><ele>931.0</ele><time>2026-05-02T13:28:15Z</time></trkpt><trkpt lat="44.55675600201963" lon="10.071499562902023"><ele>931.0</ele><time>2026-05-02T13:28:17Z</time></trkpt><trkpt lat="44.5566522474511" lon="10.071465247071256"><ele>931.0</ele><time>2026-05-02T13:28:19Z</time></trkpt><trkpt lat="44.55658963463769" lon="10.071559430364065"><ele>930.9999999999999</ele><time>2026-05-02T13:28:21Z</time></trkpt><trkpt lat="44.556593847318545" lon="10.071648768753958"><ele>930.9999999999999</ele><time>2026-05-02T13:28:22Z</time></trkpt><trkpt lat="44.5566064674662" lon="10.071796931728393"><ele>931.0</ele><time>2026-05-02T13:28:24Z</time></trkpt><trkpt lat="44.55658432956474" lon="10.071943225583947"><ele>931.0</ele><time>2026-05-02T13:28:26Z</time></trkpt><trkpt lat="44.55656745737347" lon="10.072072637740414"><ele>930.9999999999999</ele><time>2026-05-02T13:28:28Z</time></trkpt><trkpt lat="44.556498651187006" lon="10.072157955734262"><ele>931.0</ele><time>2026-05-02T13:28:30Z</time></trkpt><trkpt lat="44.556429018751416" lon="10.072216716190786"><ele>931.0</ele><time>2026-05-02T13:28:32Z</time></trkpt><trkpt lat="44.55635159763692" lon="10.07220160054192"><ele>931.0</ele><time>2026-05-02T13:28:34Z</time></trkpt><trkpt lat="44.55629545926828" lon="10.072139502293993"><ele>930.9999999999999</ele><time>2026-05-02T13:28:36Z</time></trkpt><trkpt lat="44.556234467041854" lon="10.072036042927854"><ele>931.0</ele><time>2026-05-02T13:28:39Z</time></trkpt><trkpt lat="44.55619364728334" lon="10.071901301163997"><ele>931.0</ele><time>2026-05-02T13:28:41Z</time></trkpt><trkpt lat="44.556159501914706" lon="10.071779060944195"><ele>930.9999999999999</ele><time>2026-05-02T13:28:43Z</time></trkpt><trkpt lat="44.55610555614919" lon="10.071664387668761"><ele>930.9999999999999</ele><time>2026-05-02T13:28:45Z</time></trkpt><trkpt lat="44.55605069715207" lon="10.07160815436885"><ele>931.0</ele><time>2026-05-02T13:28:46Z</time></trkpt><trkpt lat="44.55596738510546" lon="10.071564361537469"><ele>931.0</ele><time>2026-05-02T13:28:48Z</time></trkpt><trkpt lat="44.555864806837484" lon="10.071462550713072"><ele>934.4</ele><time>2026-05-02T13:28:57Z</time></trkpt><trkpt lat="44.555812428482405" lon="10.071385541012548"><ele>937.8</ele><time>2026-05-02T13:28:58Z</time></trkpt><trkpt lat="44.55577040559637" lon="10.071302575576379"><ele>941.1999999999999</ele><time>2026-05-02T13:28:59Z</time></trkpt><trkpt lat="44.55566596324647" lon="10.071189688152339"><ele>944.5999999999999</ele><time>2026-05-02T13:29:01Z</time></trkpt><trkpt lat="44.555560200335925" lon="10.071150177007103"><ele>948.0</ele><time>2026-05-02T13:29:03Z</time></trkpt><trkpt lat="44.5554569759994" lon="10.07110125772046"><ele>948.0</ele><time>2026-05-02T13:29:04.999Z</time></trkpt><trkpt lat="44.55538018615954" lon="10.071039210528573"><ele>948.0</ele><time>2026-05-02T13:29:06.999Z</time></trkpt><trkpt lat="44.55529441128479" lon="10.07099591952297"><ele>948.0</ele><time>2026-05-02T13:29:08.999Z</time></trkpt><trkpt lat="44.55518833829296" lon="10.0709980952764"><ele>948.0</ele><time>2026-05-02T13:29:10.999Z</time></trkpt><trkpt lat="44.555070564800616" lon="10.071018057554992"><ele>948.0</ele><time>2026-05-02T13:29:12.999Z</time></trkpt><trkpt lat="44.554980471736876" lon="10.071029533544237"><ele>949.5999999999999</ele><time>2026-05-02T13:29:14.999Z</time></trkpt><trkpt lat="44.554881529594134" lon="10.07104610487026"><ele>951.1999999999999</ele><time>2026-05-02T13:29:16.999Z</time></trkpt><trkpt lat="44.55478860580965" lon="10.071037938204293"><ele>952.8</ele><time>2026-05-02T13:29:18.999Z</time></trkpt><trkpt lat="44.554680985060145" lon="10.07103474535664"><ele>954.4</ele><time>2026-05-02T13:29:20.999Z</time></trkpt><trkpt lat="44.554601886178126" lon="10.071033488513619"><ele>956.0</ele><time>2026-05-02T13:29:22.999Z</time></trkpt><trkpt lat="44.55449862657949" lon="10.071003663250965"><ele>956.5999999999999</ele><time>2026-05-02T13:29:24.999Z</time></trkpt><trkpt lat="44.554394474945305" lon="10.070965564506427"><ele>957.1999999999999</ele><time>2026-05-02T13:29:26.999Z</time></trkpt><trkpt lat="44.55431246932854" lon="10.070927760690074"><ele>957.8000000000001</ele><time>2026-05-02T13:29:28.999Z</time></trkpt><trkpt lat="44.554177358642185" lon="10.070822729791072"><ele>958.4000000000001</ele><time>2026-05-02T13:29:30.999Z</time></trkpt><trkpt lat="44.55412016545853" lon="10.070769765365036"><ele>959.0</ele><time>2026-05-02T13:29:31.999Z</time></trkpt><trkpt lat="44.55402949982431" lon="10.0706738708717"><ele>961.8000000000001</ele><time>2026-05-02T13:29:33.999Z</time></trkpt><trkpt lat="44.55395838968386" lon="10.070616487929334"><ele>964.6000000000001</ele><time>2026-05-02T13:29:34.999Z</time></trkpt><trkpt lat="44.55385145463537" lon="10.070512956724693"><ele>967.4</ele><time>2026-05-02T13:29:37Z</time></trkpt><trkpt lat="44.55377038608113" lon="10.070417665581692"><ele>970.2</ele><time>2026-05-02T13:29:39Z</time></trkpt><trkpt lat="44.553678331110824" lon="10.070337136602072"><ele>973.0</ele><time>2026-05-02T13:29:41Z</time></trkpt><trkpt lat="44.55357972627875" lon="10.07028233927342"><ele>973.0</ele><time>2026-05-02T13:29:43Z</time></trkpt><trkpt lat="44.553514543572625" lon="10.070230599840752"><ele>973.0</ele><time>2026-05-02T13:29:45Z</time></trkpt><trkpt lat="44.55343940314853" lon="10.070122495552777"><ele>973.0</ele><time>2026-05-02T13:29:47Z</time></trkpt><trkpt lat="44.553355912088755" lon="10.070031780611469"><ele>973.0</ele><time>2026-05-02T13:29:49Z</time></trkpt><trkpt lat="44.553281720505055" lon="10.069978108917033"><ele>973.0</ele><time>2026-05-02T13:29:51Z</time></trkpt><trkpt lat="44.55317980459776" lon="10.069944518422332"><ele>975.5714285714286</ele><time>2026-05-02T13:29:53Z</time></trkpt><trkpt lat="44.55309579760028" lon="10.069892857082428"><ele>978.1428571428571</ele><time>2026-05-02T13:29:55Z</time></trkpt><trkpt lat="44.55301812209473" lon="10.069835296179336"><ele>980.7142857142858</ele><time>2026-05-02T13:29:57Z</time></trkpt><trkpt lat="44.552963494012324" lon="10.06978425256584"><ele>983.2857142857143</ele><time>2026-05-02T13:29:59Z</time></trkpt><trkpt lat="44.55290507765178" lon="10.069735411219606"><ele>985.8571428571429</ele><time>2026-05-02T13:30:01Z</time></trkpt><trkpt lat="44.55283635069025" lon="10.069735053086207"><ele>988.4285714285716</ele><time>2026-05-02T13:30:04Z</time></trkpt><trkpt lat="44.552797163791965" lon="10.069804365464966"><ele>991.0000000000001</ele><time>2026-05-02T13:30:06Z</time></trkpt><trkpt lat="44.55282121245054" lon="10.069900040422526"><ele>987.9999999999999</ele><time>2026-05-02T13:30:08Z</time></trkpt><trkpt lat="44.552885614001035" lon="10.070010809518676"><ele>985.0</ele><time>2026-05-02T13:30:10Z</time></trkpt><trkpt lat="44.55293168215931" lon="10.070076964358558"><ele>982.0</ele><time>2026-05-02T13:30:11Z</time></trkpt><trkpt lat="44.55298316111923" lon="10.070141682151924"><ele>979.0</ele><time>2026-05-02T13:30:13Z</time></trkpt><trkpt lat="44.55304174993922" lon="10.070219594062172"><ele>975.9999999999999</ele><time>2026-05-02T13:30:15Z</time></trkpt><trkpt lat="44.553044100640285" lon="10.0703279590804"><ele>973.0</ele><time>2026-05-02T13:30:17Z</time></trkpt><trkpt lat="44.55298053351221" lon="10.070355663947625"><ele>972.9999999999999</ele><time>2026-05-02T13:30:19Z</time></trkpt><trkpt lat="44.55289393573418" lon="10.070347501817116"><ele>973.0</ele><time>2026-05-02T13:30:21Z</time></trkpt><trkpt lat="44.55281128157896" lon="10.07039020653976"><ele>973.0</ele><time>2026-05-02T13:30:24Z</time></trkpt><trkpt lat="44.55272966355351" lon="10.070442557717845"><ele>973.0</ele><time>2026-05-02T13:30:27Z</time></trkpt><trkpt lat="44.55266585550209" lon="10.070520086597469"><ele>972.9999999999999</ele><time>2026-05-02T13:30:29Z</time></trkpt><trkpt lat="44.55263432462422" lon="10.070602968221134"><ele>973.0</ele><time>2026-05-02T13:30:31Z</time></trkpt><trkpt lat="44.552594303640845" lon="10.07068235628195"><ele>973.6666666666666</ele><time>2026-05-02T13:30:33Z</time></trkpt><trkpt lat="44.55254931550182" lon="10.070774271080838"><ele>974.3333333333333</ele><time>2026-05-02T13:30:36Z</time></trkpt><trkpt lat="44.55249449430491" lon="10.070856510215577"><ele>975.0</ele><time>2026-05-02T13:30:38Z</time></trkpt><trkpt lat="44.55242051271809" lon="10.070906968687233"><ele>975.6666666666667</ele><time>2026-05-02T13:30:40Z</time></trkpt><trkpt lat="44.552337655206124" lon="10.07093566040462"><ele>976.3333333333334</ele><time>2026-05-02T13:30:42Z</time></trkpt><trkpt lat="44.55227030643349" lon="10.071000387566817"><ele>977.0</ele><time>2026-05-02T13:30:45Z</time></trkpt><trkpt lat="44.55221279680893" lon="10.071080369887024"><ele>977.0</ele><time>2026-05-02T13:30:47Z</time></trkpt><trkpt lat="44.5521563375704" lon="10.071189190986567"><ele>977.0</ele><time>2026-05-02T13:30:49Z</time></trkpt><trkpt lat="44.55211572559332" lon="10.071342823777307"><ele>977.0</ele><time>2026-05-02T13:30:52Z</time></trkpt><trkpt lat="44.55208267286148" lon="10.07144849674107"><ele>977.0</ele><time>2026-05-02T13:30:54Z</time></trkpt><trkpt lat="44.5519780545628" lon="10.071451811666936"><ele>977.0</ele><time>2026-05-02T13:30:57Z</time></trkpt><trkpt lat="44.551889267715" lon="10.071432384199984"><ele>980.3333333333334</ele><time>2026-05-02T13:30:59Z</time></trkpt><trkpt lat="44.55183654318102" lon="10.071363953573881"><ele>983.6666666666667</ele><time>2026-05-02T13:31:00.999Z</time></trkpt><trkpt lat="44.551800024319746" lon="10.071274403806461"><ele>987.0</ele><time>2026-05-02T13:31:02.999Z</time></trkpt><trkpt lat="44.55177102615646" lon="10.07115948459456"><ele>990.3333333333333</ele><time>2026-05-02T13:31:04.999Z</time></trkpt><trkpt lat="44.55175028560728" lon="10.071063407158096"><ele>993.6666666666666</ele><time>2026-05-02T13:31:06.999Z</time></trkpt><trkpt lat="44.55171316546202" lon="10.070909715487414"><ele>997.0</ele><time>2026-05-02T13:31:08.999Z</time></trkpt><trkpt lat="44.55166169833386" lon="10.070790325255025"><ele>997.4000000000001</ele><time>2026-05-02T13:31:10.999Z</time></trkpt><trkpt lat="44.55161044037865" lon="10.07069536305381"><ele>997.8000000000001</ele><time>2026-05-02T13:31:12.999Z</time></trkpt><trkpt lat="44.55149978141255" lon="10.070680858781285"><ele>998.2</ele><time>2026-05-02T13:31:14.999Z</time></trkpt><trkpt lat="44.551398632248414" lon="10.0706935847344"><ele>998.6</ele><time>2026-05-02T13:31:16.999Z</time></trkpt><trkpt lat="44.55132534026903" lon="10.070698261197554"><ele>999.0</ele><time>2026-05-02T13:31:18.999Z</time></trkpt><trkpt lat="44.551247272900135" lon="10.070716475016544"><ele>1002.8000000000001</ele><time>2026-05-02T13:31:20.999Z</time></trkpt><trkpt lat="44.55113375647319" lon="10.07067817949493"><ele>1006.6000000000001</ele><time>2026-05-02T13:31:22.999Z</time></trkpt><trkpt lat="44.551022039058985" lon="10.070683286441055"><ele>1010.4</ele><time>2026-05-02T13:31:24.999Z</time></trkpt><trkpt lat="44.55093525100957" lon="10.070686169449996"><ele>1014.2</ele><time>2026-05-02T13:31:26.999Z</time></trkpt><trkpt lat="44.550851984158506" lon="10.070597094861942"><ele>1018.0</ele><time>2026-05-02T13:31:28.999Z</time></trkpt><trkpt lat="44.55078877743637" lon="10.070586026693498"><ele>1017.9999999999999</ele><time>2026-05-02T13:31:30.999Z</time></trkpt><trkpt lat="44.55072329674047" lon="10.07059549515868"><ele>1018.0</ele><time>2026-05-02T13:31:32.999Z</time></trkpt><trkpt lat="44.55064145361088" lon="10.070581669964165"><ele>1018.0</ele><time>2026-05-02T13:31:34.999Z</time></trkpt><trkpt lat="44.55056945333589" lon="10.070592428126535"><ele>1018.0</ele><time>2026-05-02T13:31:36.999Z</time></trkpt><trkpt lat="44.5504721318422" lon="10.070564632710644"><ele>1017.9999999999999</ele><time>2026-05-02T13:31:38.999Z</time></trkpt><trkpt lat="44.550390964738185" lon="10.070550066081362"><ele>1018.0</ele><time>2026-05-02T13:31:40.999Z</time></trkpt><trkpt lat="44.55032667597776" lon="10.070620242109625"><ele>1020.9999999999999</ele><time>2026-05-02T13:31:43Z</time></trkpt><trkpt lat="44.55026161423365" lon="10.070677240518448"><ele>1024.0</ele><time>2026-05-02T13:31:45Z</time></trkpt><trkpt lat="44.5501739194596" lon="10.070739373575833"><ele>1027.0</ele><time>2026-05-02T13:31:47Z</time></trkpt><trkpt lat="44.55010506404149" lon="10.070770665309738"><ele>1030.0</ele><time>2026-05-02T13:31:48Z</time></trkpt><trkpt lat="44.550009559431174" lon="10.070776757960068"><ele>1033.0</ele><time>2026-05-02T13:31:50Z</time></trkpt><trkpt lat="44.54993298159195" lon="10.070771727538256"><ele>1036.0</ele><time>2026-05-02T13:31:52Z</time></trkpt><trkpt lat="44.54988741018185" lon="10.070834532897534"><ele>1036.0</ele><time>2026-05-02T13:32:13Z</time></trkpt><trkpt lat="44.54978939000198" lon="10.070868132970038"><ele>1036.0</ele><time>2026-05-02T13:32:17Z</time></trkpt><trkpt lat="44.54972996532449" lon="10.07095300781482"><ele>1036.0</ele><time>2026-05-02T13:32:21Z</time></trkpt><trkpt lat="44.54964743479005" lon="10.070956544510805"><ele>1036.0</ele><time>2026-05-02T13:32:22Z</time></trkpt><trkpt lat="44.549555446818694" lon="10.071000775633488"><ele>1036.0</ele><time>2026-05-02T13:32:24Z</time></trkpt><trkpt lat="44.54948722231358" lon="10.07101060711073"><ele>1036.0</ele><time>2026-05-02T13:32:26Z</time></trkpt><trkpt lat="44.549385577331456" lon="10.071074577023632"><ele>1039.8</ele><time>2026-05-02T13:32:28Z</time></trkpt><trkpt lat="44.54934090409574" lon="10.07114067294145"><ele>1043.6</ele><time>2026-05-02T13:32:30Z</time></trkpt><trkpt lat="44.54923261581189" lon="10.071212257775196"><ele>1047.4</ele><time>2026-05-02T13:32:32Z</time></trkpt><trkpt lat="44.54913983659536" lon="10.071307389823424"><ele>1051.2</ele><time>2026-05-02T13:32:34Z</time></trkpt><trkpt lat="44.54906559832096" lon="10.07139027505589"><ele>1055.0</ele><time>2026-05-02T13:32:36Z</time></trkpt><trkpt lat="44.54898465103018" lon="10.071391958704401"><ele>1055.0</ele><time>2026-05-02T13:32:38Z</time></trkpt><trkpt lat="44.54888728718163" lon="10.071486030179507"><ele>1055.0</ele><time>2026-05-02T13:32:40Z</time></trkpt><trkpt lat="44.548789151567036" lon="10.071491478837986"><ele>1055.0</ele><time>2026-05-02T13:32:42Z</time></trkpt><trkpt lat="44.54872047082479" lon="10.071449902318598"><ele>1055.0</ele><time>2026-05-02T13:32:43Z</time></trkpt><trkpt lat="44.548662951938226" lon="10.071383528196575"><ele>1055.0</ele><time>2026-05-02T13:32:44Z</time></trkpt><trkpt lat="44.5486024178325" lon="10.071329138441417"><ele>1055.0</ele><time>2026-05-02T13:32:45Z</time></trkpt><trkpt lat="44.548509379444894" lon="10.07129500722542"><ele>1058.6</ele><time>2026-05-02T13:32:47Z</time></trkpt><trkpt lat="44.548403309823" lon="10.071253128557135"><ele>1062.2</ele><time>2026-05-02T13:32:49Z</time></trkpt><trkpt lat="44.54833545505192" lon="10.071280590294213"><ele>1065.8</ele><time>2026-05-02T13:32:50Z</time></trkpt><trkpt lat="44.54829660548759" lon="10.071374773642189"><ele>1069.4</ele><time>2026-05-02T13:32:52Z</time></trkpt><trkpt lat="44.548223747910534" lon="10.071523834862992"><ele>1073.0</ele><time>2026-05-02T13:32:55Z</time></trkpt><trkpt lat="44.548196279740836" lon="10.071608008307186"><ele>1073.0</ele><time>2026-05-02T13:32:56Z</time></trkpt><trkpt lat="44.548153744942475" lon="10.071714749942878"><ele>1073.0</ele><time>2026-05-02T13:32:58Z</time></trkpt><trkpt lat="44.54810939488967" lon="10.071821250786897"><ele>1073.0</ele><time>2026-05-02T13:32:59.999Z</time></trkpt><trkpt lat="44.54805133347327" lon="10.071886853625957"><ele>1073.0</ele><time>2026-05-02T13:33:04.999Z</time></trkpt><trkpt lat="44.54796738349726" lon="10.071863033077172"><ele>1073.0</ele><time>2026-05-02T13:33:17.999Z</time></trkpt><trkpt lat="44.54793982473271" lon="10.07173533747011"><ele>1073.0</ele><time>2026-05-02T13:33:19.999Z</time></trkpt><trkpt lat="44.5478800438764" lon="10.071613177828587"><ele>1073.6</ele><time>2026-05-02T13:33:22.999Z</time></trkpt><trkpt lat="44.54787767006275" lon="10.071470344784466"><ele>1074.1999999999998</ele><time>2026-05-02T13:33:24.999Z</time></trkpt><trkpt lat="44.547925128028176" lon="10.071324764960204"><ele>1074.8</ele><time>2026-05-02T13:33:26.999Z</time></trkpt><trkpt lat="44.54783412737314" lon="10.071261811377179"><ele>1075.3999999999999</ele><time>2026-05-02T13:33:28.999Z</time></trkpt><trkpt lat="44.5477711638307" lon="10.071267266690745"><ele>1076.0</ele><time>2026-05-02T13:33:29.999Z</time></trkpt><trkpt lat="44.54767502594587" lon="10.071308745270215"><ele>1080.6666666666667</ele><time>2026-05-02T13:33:31.999Z</time></trkpt><trkpt lat="44.54766180707974" lon="10.07142149027383"><ele>1085.3333333333335</ele><time>2026-05-02T13:33:33.999Z</time></trkpt><trkpt lat="44.5476290868115" lon="10.07152356756469"><ele>1090.0</ele><time>2026-05-02T13:33:36.999Z</time></trkpt><trkpt lat="44.54763686848072" lon="10.071611693336099"><ele>1094.6666666666667</ele><time>2026-05-02T13:33:51Z</time></trkpt><trkpt lat="44.54763123885511" lon="10.07174226501025"><ele>1099.3333333333333</ele><time>2026-05-02T13:33:53Z</time></trkpt><trkpt lat="44.547579785447546" lon="10.071885488214107"><ele>1104.0</ele><time>2026-05-02T13:33:55Z</time></trkpt><trkpt lat="44.54755868726894" lon="10.071991134522705"><ele>1104.0</ele><time>2026-05-02T13:33:56Z</time></trkpt><trkpt lat="44.54753261198703" lon="10.072105093722278"><ele>1104.0</ele><time>2026-05-02T13:33:58Z</time></trkpt><trkpt lat="44.54749048870409" lon="10.072215323017424"><ele>1104.0</ele><time>2026-05-02T13:34:00Z</time></trkpt><trkpt lat="44.54750440260879" lon="10.072331259045036"><ele>1104.0</ele><time>2026-05-02T13:34:02Z</time></trkpt><trkpt lat="44.54753987488266" lon="10.072446179169841"><ele>1104.0</ele><time>2026-05-02T13:34:04Z</time></trkpt><trkpt lat="44.547568408683375" lon="10.072540010811545"><ele>1104.0</ele><time>2026-05-02T13:34:07Z</time></trkpt><trkpt lat="44.54761792029633" lon="10.072621344033038"><ele>1105.0</ele><time>2026-05-02T13:34:09Z</time></trkpt><trkpt lat="44.54770170835795" lon="10.072710960949864"><ele>1106.0</ele><time>2026-05-02T13:34:11Z</time></trkpt><trkpt lat="44.547787764868175" lon="10.072749558163528"><ele>1107.0</ele><time>2026-05-02T13:34:13Z</time></trkpt><trkpt lat="44.547839229571935" lon="10.072815067517976"><ele>1108.0</ele><time>2026-05-02T13:34:15Z</time></trkpt><trkpt lat="44.54793340413163" lon="10.072903883310726"><ele>1109.0</ele><time>2026-05-02T13:34:17Z</time></trkpt><trkpt lat="44.54802711127227" lon="10.0729820743785"><ele>1107.2</ele><time>2026-05-02T13:34:19Z</time></trkpt><trkpt lat="44.54810922203263" lon="10.073104430241017"><ele>1105.4</ele><time>2026-05-02T13:34:22Z</time></trkpt><trkpt lat="44.54814189747001" lon="10.073218536442766"><ele>1103.6</ele><time>2026-05-02T13:34:24Z</time></trkpt><trkpt lat="44.54816116969809" lon="10.073326394905692"><ele>1101.8</ele><time>2026-05-02T13:34:26Z</time></trkpt><trkpt lat="44.54820433768765" lon="10.073437759388675"><ele>1100.0</ele><time>2026-05-02T13:34:28Z</time></trkpt><trkpt lat="44.548268679209606" lon="10.07352721919374"><ele>1100.0</ele><time>2026-05-02T13:34:30Z</time></trkpt><trkpt lat="44.54832067911619" lon="10.073626540564133"><ele>1100.0</ele><time>2026-05-02T13:34:32Z</time></trkpt><trkpt lat="44.548411313901326" lon="10.073661863545732"><ele>1100.0</ele><time>2026-05-02T13:34:34Z</time></trkpt><trkpt lat="44.54848928066923" lon="10.073685712981117"><ele>1100.0</ele><time>2026-05-02T13:34:36Z</time></trkpt><trkpt lat="44.54855648870679" lon="10.073731646350113"><ele>1100.0</ele><time>2026-05-02T13:34:37Z</time></trkpt><trkpt lat="44.54861578838392" lon="10.0738248708271"><ele>1100.0</ele><time>2026-05-02T13:34:39Z</time></trkpt><trkpt lat="44.548673328163645" lon="10.073929933898539"><ele>1100.8</ele><time>2026-05-02T13:34:41Z</time></trkpt><trkpt lat="44.548736338710164" lon="10.074015340138963"><ele>1101.6</ele><time>2026-05-02T13:34:43Z</time></trkpt><trkpt lat="44.54880108910388" lon="10.074130659922032"><ele>1102.4</ele><time>2026-05-02T13:34:45Z</time></trkpt><trkpt lat="44.54885876370216" lon="10.074248005035773"><ele>1103.2</ele><time>2026-05-02T13:34:47Z</time></trkpt><trkpt lat="44.54890351390054" lon="10.074365414587206"><ele>1104.0</ele><time>2026-05-02T13:34:49Z</time></trkpt><trkpt lat="44.54896526576751" lon="10.074400942251021"><ele>1104.0</ele><time>2026-05-02T13:34:51Z</time></trkpt><trkpt lat="44.549052614860116" lon="10.074520274595999"><ele>1104.0</ele><time>2026-05-02T13:34:54Z</time></trkpt><trkpt lat="44.54904028487448" lon="10.074641954694737"><ele>1104.0</ele><time>2026-05-02T13:34:56Z</time></trkpt><trkpt lat="44.549058060633804" lon="10.07473031265043"><ele>1104.0</ele><time>2026-05-02T13:34:57.999Z</time></trkpt><trkpt lat="44.54908439737562" lon="10.074855393983956"><ele>1104.0</ele><time>2026-05-02T13:35:12.999Z</time></trkpt><trkpt lat="44.54907800608901" lon="10.074976857216901"><ele>1105.5</ele><time>2026-05-02T13:35:15.999Z</time></trkpt><trkpt lat="44.5490711788657" lon="10.075124838667948"><ele>1107.0</ele><time>2026-05-02T13:35:17.999Z</time></trkpt><trkpt lat="44.549073507030506" lon="10.075232802466441"><ele>1108.5</ele><time>2026-05-02T13:35:18.999Z</time></trkpt><trkpt lat="44.54906048181584" lon="10.075322150268143"><ele>1110.0</ele><time>2026-05-02T13:35:21.999Z</time></trkpt><trkpt lat="44.54900740131215" lon="10.075394207542825"><ele>1111.5</ele><time>2026-05-02T13:35:23.999Z</time></trkpt><trkpt lat="44.548946131943254" lon="10.075460790463321"><ele>1113.0</ele><time>2026-05-02T13:35:26.999Z</time></trkpt><trkpt lat="44.548902701614125" lon="10.07554236174454"><ele>1113.0</ele><time>2026-05-02T13:35:28.999Z</time></trkpt><trkpt lat="44.54889098315813" lon="10.075667915022791"><ele>1113.0</ele><time>2026-05-02T13:35:30.999Z</time></trkpt><trkpt lat="44.548888874334054" lon="10.075782496286733"><ele>1113.0</ele><time>2026-05-02T13:35:33.999Z</time></trkpt><trkpt lat="44.548857020891084" lon="10.075915020950283"><ele>1113.0</ele><time>2026-05-02T13:35:36.999Z</time></trkpt><trkpt lat="44.54882806783836" lon="10.076000090978347"><ele>1113.0</ele><time>2026-05-02T13:35:38.999Z</time></trkpt><trkpt lat="44.54879503365702" lon="10.07609144664067"><ele>1113.0</ele><time>2026-05-02T13:35:40.999Z</time></trkpt><trkpt lat="44.54876341800931" lon="10.076235549535483"><ele>1113.142857142857</ele><time>2026-05-02T13:35:42.999Z</time></trkpt><trkpt lat="44.54875582301558" lon="10.076358927119838"><ele>1113.2857142857142</ele><time>2026-05-02T13:35:44.999Z</time></trkpt><trkpt lat="44.54876124119657" lon="10.076470391325484"><ele>1113.4285714285716</ele><time>2026-05-02T13:35:47.999Z</time></trkpt><trkpt lat="44.54875642262553" lon="10.076571348867649"><ele>1113.5714285714284</ele><time>2026-05-02T13:35:51.999Z</time></trkpt><trkpt lat="44.548771968204555" lon="10.07665776114478"><ele>1113.7142857142858</ele><time>2026-05-02T13:35:59Z</time></trkpt><trkpt lat="44.54874966490225" lon="10.076754189528705"><ele>1113.857142857143</ele><time>2026-05-02T13:37:47.999Z</time></trkpt><trkpt lat="44.54878282171168" lon="10.076669484463272"><ele>1114.0</ele><time>2026-05-02T13:37:57.999Z</time></trkpt><trkpt lat="44.548747058778915" lon="10.07659161690638"><ele>1114.0</ele><time>2026-05-02T13:39:25.999Z</time></trkpt><trkpt lat="44.54875154966125" lon="10.076498373300348"><ele>1114.0</ele><time>2026-05-02T13:39:28.999Z</time></trkpt><trkpt lat="44.548708782012625" lon="10.076387073578307"><ele>1114.0</ele><time>2026-05-02T13:39:32.999Z</time></trkpt><trkpt lat="44.548729830680365" lon="10.076275133499497"><ele>1114.0</ele><time>2026-05-02T13:39:33.999Z</time></trkpt><trkpt lat="44.54879288070799" lon="10.076134293669751"><ele>1114.0</ele><time>2026-05-02T13:39:35.999Z</time></trkpt><trkpt lat="44.54881359385739" lon="10.076005918071333"><ele>1114.0</ele><time>2026-05-02T13:39:37.999Z</time></trkpt><trkpt lat="44.548849946012304" lon="10.07587883034223"><ele>1114.0</ele><time>2026-05-02T13:39:39.999Z</time></trkpt><trkpt lat="44.54884146924746" lon="10.075778271977168"><ele>1114.0</ele><time>2026-05-02T13:39:41.999Z</time></trkpt><trkpt lat="44.54884373789059" lon="10.075685586476718"><ele>1114.0</ele><time>2026-05-02T13:39:43.999Z</time></trkpt><trkpt lat="44.54887363231676" lon="10.075594155923733"><ele>1114.0</ele><time>2026-05-02T13:39:45.999Z</time></trkpt><trkpt lat="44.54892990182516" lon="10.075504030321337"><ele>1114.0</ele><time>2026-05-02T13:39:47.999Z</time></trkpt><trkpt lat="44.54899012786358" lon="10.07544301994358"><ele>1113.8333333333333</ele><time>2026-05-02T13:39:49.999Z</time></trkpt><trkpt lat="44.549023795575415" lon="10.075363211855217"><ele>1113.6666666666665</ele><time>2026-05-02T13:39:51.999Z</time></trkpt><trkpt lat="44.54906403060897" lon="10.075253652904333"><ele>1113.5</ele><time>2026-05-02T13:39:54.999Z</time></trkpt><trkpt lat="44.54906478173021" lon="10.07514513114088"><ele>1113.3333333333333</ele><time>2026-05-02T13:39:57.999Z</time></trkpt><trkpt lat="44.549059460228456" lon="10.075026270437816"><ele>1113.1666666666667</ele><time>2026-05-02T13:40:00.999Z</time></trkpt><trkpt lat="44.54904967351028" lon="10.074937782643568"><ele>1113.0</ele><time>2026-05-02T13:40:02.999Z</time></trkpt><trkpt lat="44.54904293451412" lon="10.074783671319445"><ele>1111.5</ele><time>2026-05-02T13:40:06Z</time></trkpt><trkpt lat="44.549035239267965" lon="10.074683676302392"><ele>1110.0</ele><time>2026-05-02T13:40:08Z</time></trkpt><trkpt lat="44.54905128080751" lon="10.074562276396781"><ele>1108.5</ele><time>2026-05-02T13:40:10Z</time></trkpt><trkpt lat="44.54897863181626" lon="10.07446394492036"><ele>1107.0</ele><time>2026-05-02T13:40:12Z</time></trkpt><trkpt lat="44.5489216455762" lon="10.074410376730798"><ele>1105.5</ele><time>2026-05-02T13:40:14Z</time></trkpt><trkpt lat="44.54886734274641" lon="10.074314988921317"><ele>1104.0</ele><time>2026-05-02T13:40:17Z</time></trkpt><trkpt lat="44.54882201744801" lon="10.074211540693202"><ele>1103.3333333333333</ele><time>2026-05-02T13:40:19Z</time></trkpt><trkpt lat="44.548766973243964" lon="10.074094358683507"><ele>1102.6666666666667</ele><time>2026-05-02T13:40:22Z</time></trkpt><trkpt lat="44.548720895202706" lon="10.074002750202743"><ele>1102.0</ele><time>2026-05-02T13:40:24Z</time></trkpt><trkpt lat="44.548657698357886" lon="10.073947592199355"><ele>1101.3333333333335</ele><time>2026-05-02T13:40:26Z</time></trkpt><trkpt lat="44.548617617171104" lon="10.073854334521755"><ele>1100.6666666666667</ele><time>2026-05-02T13:40:28Z</time></trkpt><trkpt lat="44.548568241431454" lon="10.073785580878122"><ele>1100.0</ele><time>2026-05-02T13:40:30Z</time></trkpt><trkpt lat="44.54850786703507" lon="10.073751673626385"><ele>1100.0</ele><time>2026-05-02T13:40:32Z</time></trkpt><trkpt lat="44.548414551375316" lon="10.073721538143351"><ele>1100.0</ele><time>2026-05-02T13:40:34Z</time></trkpt><trkpt lat="44.54834525051106" lon="10.073665903837744"><ele>1100.0</ele><time>2026-05-02T13:40:36Z</time></trkpt><trkpt lat="44.54830665670962" lon="10.073571370658454"><ele>1100.0</ele><time>2026-05-02T13:40:38Z</time></trkpt><trkpt lat="44.54828268720757" lon="10.073471049958888"><ele>1100.0</ele><time>2026-05-02T13:40:40Z</time></trkpt><trkpt lat="44.54821888474938" lon="10.073348063471906"><ele>1100.0</ele><time>2026-05-02T13:40:42Z</time></trkpt><trkpt lat="44.54816821656616" lon="10.07327416558952"><ele>1101.8</ele><time>2026-05-02T13:40:44Z</time></trkpt><trkpt lat="44.548124758212715" lon="10.073157176151255"><ele>1103.6</ele><time>2026-05-02T13:40:46Z</time></trkpt><trkpt lat="44.54808222783375" lon="10.073059977106546"><ele>1105.4</ele><time>2026-05-02T13:40:48Z</time></trkpt><trkpt lat="44.54799381293943" lon="10.073022126928809"><ele>1107.2</ele><time>2026-05-02T13:40:51Z</time></trkpt><trkpt lat="44.547892351222075" lon="10.07289545918332"><ele>1109.0</ele><time>2026-05-02T13:40:53Z</time></trkpt><trkpt lat="44.54780279354966" lon="10.072846703350358"><ele>1109.0</ele><time>2026-05-02T13:40:55Z</time></trkpt><trkpt lat="44.547716408749594" lon="10.072789715577942"><ele>1109.0</ele><time>2026-05-02T13:40:58Z</time></trkpt><trkpt lat="44.547666592999725" lon="10.072698705265939"><ele>1109.0</ele><time>2026-05-02T13:41:00Z</time></trkpt><trkpt lat="44.547621571827555" lon="10.072603084835386"><ele>1109.0</ele><time>2026-05-02T13:41:02Z</time></trkpt><trkpt lat="44.54756684638285" lon="10.072498625791422"><ele>1109.0</ele><time>2026-05-02T13:41:04Z</time></trkpt><trkpt lat="44.547527226653614" lon="10.072376428572005"><ele>1109.0</ele><time>2026-05-02T13:41:06Z</time></trkpt><trkpt lat="44.5475118180963" lon="10.072230863953843"><ele>1108.0</ele><time>2026-05-02T13:41:08Z</time></trkpt><trkpt lat="44.54754534422844" lon="10.072100329566108"><ele>1107.0</ele><time>2026-05-02T13:41:10Z</time></trkpt><trkpt lat="44.54756630314741" lon="10.071976058011222"><ele>1106.0</ele><time>2026-05-02T13:41:12Z</time></trkpt><trkpt lat="44.547596296241295" lon="10.071852274542175"><ele>1105.0</ele><time>2026-05-02T13:41:14Z</time></trkpt><trkpt lat="44.547589739935994" lon="10.071724574045028"><ele>1104.0</ele><time>2026-05-02T13:41:16Z</time></trkpt><trkpt lat="44.54759162956196" lon="10.07161108687629"><ele>1104.2</ele><time>2026-05-02T13:41:19Z</time></trkpt><trkpt lat="44.547573866681574" lon="10.071475144013544"><ele>1104.4</ele><time>2026-05-02T13:41:21.999Z</time></trkpt><trkpt lat="44.54755163631507" lon="10.071390844639337"><ele>1104.6</ele><time>2026-05-02T13:41:22.999Z</time></trkpt><trkpt lat="44.547555697058634" lon="10.071241587131507"><ele>1104.8</ele><time>2026-05-02T13:41:24.999Z</time></trkpt><trkpt lat="44.54758363524453" lon="10.071097856299875"><ele>1105.0</ele><time>2026-05-02T13:41:26.999Z</time></trkpt><trkpt lat="44.54756485481136" lon="10.070988689006281"><ele>1105.0</ele><time>2026-05-02T13:41:28.999Z</time></trkpt><trkpt lat="44.54754975550155" lon="10.070889283963414"><ele>1105.0</ele><time>2026-05-02T13:41:29.999Z</time></trkpt><trkpt lat="44.54755251765617" lon="10.070788936005822"><ele>1105.0</ele><time>2026-05-02T13:41:30.999Z</time></trkpt><trkpt lat="44.54757633792663" lon="10.070640849266088"><ele>1105.0</ele><time>2026-05-02T13:41:32.999Z</time></trkpt><trkpt lat="44.547570239153174" lon="10.070501311913263"><ele>1105.0</ele><time>2026-05-02T13:41:34.999Z</time></trkpt><trkpt lat="44.54756976461532" lon="10.07038520845505"><ele>1105.0</ele><time>2026-05-02T13:41:36.999Z</time></trkpt><trkpt lat="44.54761009054922" lon="10.070303827553"><ele>1105.6666666666665</ele><time>2026-05-02T13:41:38.999Z</time></trkpt><trkpt lat="44.547640779831994" lon="10.070208124198803"><ele>1106.3333333333333</ele><time>2026-05-02T13:41:40.999Z</time></trkpt><trkpt lat="44.5477041829617" lon="10.070134802025262"><ele>1107.0</ele><time>2026-05-02T13:41:42.999Z</time></trkpt><trkpt lat="44.54775847652136" lon="10.070088952389575"><ele>1107.6666666666667</ele><time>2026-05-02T13:41:45.999Z</time></trkpt><trkpt lat="44.54778111814536" lon="10.06996053331887"><ele>1108.3333333333335</ele><time>2026-05-02T13:41:49.999Z</time></trkpt><trkpt lat="44.54780588249885" lon="10.069856314310112"><ele>1109.0</ele><time>2026-05-02T13:41:52.999Z</time></trkpt><trkpt lat="44.54780569999843" lon="10.069741250200973"><ele>1109.5</ele><time>2026-05-02T13:41:55.999Z</time></trkpt><trkpt lat="44.54779603248337" lon="10.069596907712839"><ele>1110.0</ele><time>2026-05-02T13:41:58.999Z</time></trkpt><trkpt lat="44.54783036996325" lon="10.069506340655494"><ele>1110.5</ele><time>2026-05-02T13:42:00.999Z</time></trkpt><trkpt lat="44.54788181724804" lon="10.069411690739646"><ele>1111.0</ele><time>2026-05-02T13:42:20Z</time></trkpt><trkpt lat="44.54794906964721" lon="10.069318387602046"><ele>1111.5</ele><time>2026-05-02T13:42:23Z</time></trkpt><trkpt lat="44.547970365764456" lon="10.069220178111594"><ele>1112.0</ele><time>2026-05-02T13:42:26Z</time></trkpt><trkpt lat="44.54796332139732" lon="10.069132122766433"><ele>1109.5</ele><time>2026-05-02T13:42:28Z</time></trkpt><trkpt lat="44.547953350485194" lon="10.069006863799375"><ele>1107.0</ele><time>2026-05-02T13:42:31Z</time></trkpt><trkpt lat="44.54799338333269" lon="10.068920800399313"><ele>1104.5</ele><time>2026-05-02T13:42:33Z</time></trkpt><trkpt lat="44.5480194221447" lon="10.068810868985038"><ele>1102.0</ele><time>2026-05-02T13:42:35Z</time></trkpt><trkpt lat="44.54802660642369" lon="10.06871252408138"><ele>1099.5</ele><time>2026-05-02T13:42:37Z</time></trkpt><trkpt lat="44.548053212189316" lon="10.068609449658204"><ele>1097.0</ele><time>2026-05-02T13:42:39Z</time></trkpt><trkpt lat="44.54808499779204" lon="10.068486473347969"><ele>1097.0</ele><time>2026-05-02T13:42:41Z</time></trkpt><trkpt lat="44.548123512700904" lon="10.06838268032136"><ele>1097.0</ele><time>2026-05-02T13:42:43Z</time></trkpt><trkpt lat="44.548162153865846" lon="10.068281890390331"><ele>1097.0</ele><time>2026-05-02T13:42:45Z</time></trkpt><trkpt lat="44.54821593694507" lon="10.068193026476221"><ele>1097.0</ele><time>2026-05-02T13:42:47Z</time></trkpt><trkpt lat="44.548274420420974" lon="10.068138868271292"><ele>1097.0</ele><time>2026-05-02T13:42:49Z</time></trkpt><trkpt lat="44.5483384620716" lon="10.068046479608755"><ele>1097.0</ele><time>2026-05-02T13:42:51Z</time></trkpt><trkpt lat="44.54835977104725" lon="10.06792272201531"><ele>1097.1666666666667</ele><time>2026-05-02T13:42:53Z</time></trkpt><trkpt lat="44.548322565217326" lon="10.067833944192097"><ele>1097.3333333333335</ele><time>2026-05-02T13:42:55Z</time></trkpt><trkpt lat="44.548239446214446" lon="10.067820185341487"><ele>1097.5</ele><time>2026-05-02T13:42:57Z</time></trkpt><trkpt lat="44.54815688286937" lon="10.067820103132"><ele>1097.6666666666667</ele><time>2026-05-02T13:43:00Z</time></trkpt><trkpt lat="44.54808945578565" lon="10.067786175747994"><ele>1097.8333333333333</ele><time>2026-05-02T13:43:03Z</time></trkpt><trkpt lat="44.5479891985641" lon="10.067767101493049"><ele>1098.0</ele><time>2026-05-02T13:43:05Z</time></trkpt><trkpt lat="44.54791615401389" lon="10.06777496053584"><ele>1101.0</ele><time>2026-05-02T13:43:07Z</time></trkpt><trkpt lat="44.54784733469339" lon="10.067813321492698"><ele>1104.0</ele><time>2026-05-02T13:43:09Z</time></trkpt><trkpt lat="44.54777519214795" lon="10.067853664748972"><ele>1107.0</ele><time>2026-05-02T13:43:11Z</time></trkpt><trkpt lat="44.54768891046571" lon="10.067855581458602"><ele>1110.0</ele><time>2026-05-02T13:43:14Z</time></trkpt><trkpt lat="44.547611736996565" lon="10.067823125648841"><ele>1113.0</ele><time>2026-05-02T13:43:16Z</time></trkpt><trkpt lat="44.54754186973975" lon="10.06785109427033"><ele>1116.0</ele><time>2026-05-02T13:43:18Z</time></trkpt><trkpt lat="44.547478317639616" lon="10.067908410184524"><ele>1116.0</ele><time>2026-05-02T13:43:20Z</time></trkpt><trkpt lat="44.547407788692425" lon="10.067912743506525"><ele>1116.0</ele><time>2026-05-02T13:43:36.999Z</time></trkpt><trkpt lat="44.547334067425226" lon="10.067888914262781"><ele>1116.0</ele><time>2026-05-02T13:43:39.999Z</time></trkpt><trkpt lat="44.5472625818729" lon="10.067887457671835"><ele>1116.0</ele><time>2026-05-02T13:43:42.999Z</time></trkpt><trkpt lat="44.54718303611114" lon="10.067935254629127"><ele>1116.0</ele><time>2026-05-02T13:43:44.999Z</time></trkpt><trkpt lat="44.54710434351789" lon="10.067947023780059"><ele>1116.0</ele><time>2026-05-02T13:43:51.999Z</time></trkpt><trkpt lat="44.547186456800546" lon="10.067921283620644"><ele>1116.0</ele><time>2026-05-02T13:44:48Z</time></trkpt><trkpt lat="44.547248528227385" lon="10.067872361046298"><ele>1116.0</ele><time>2026-05-02T13:44:51Z</time></trkpt><trkpt lat="44.54732979169584" lon="10.067869294681696"><ele>1116.0</ele><time>2026-05-02T13:44:55Z</time></trkpt><trkpt lat="44.54740105765302" lon="10.067897383836682"><ele>1116.0</ele><time>2026-05-02T13:44:59Z</time></trkpt><trkpt lat="44.54747154795737" lon="10.067871673119564"><ele>1116.0</ele><time>2026-05-02T13:45:02Z</time></trkpt><trkpt lat="44.54753966533772" lon="10.067802850668635"><ele>1116.0</ele><time>2026-05-02T13:45:05Z</time></trkpt><trkpt lat="44.547610025884914" lon="10.067796187586096"><ele>1116.0</ele><time>2026-05-02T13:45:08Z</time></trkpt><trkpt lat="44.54767165317046" lon="10.067835912474216"><ele>1116.0</ele><time>2026-05-02T13:45:12Z</time></trkpt><trkpt lat="44.547753521716" lon="10.067807747023203"><ele>1116.0</ele><time>2026-05-02T13:45:17Z</time></trkpt><trkpt lat="44.54784438679566" lon="10.067754754851915"><ele>1116.0</ele><time>2026-05-02T13:45:20Z</time></trkpt><trkpt lat="44.54793128499277" lon="10.067731589207321"><ele>1116.0</ele><time>2026-05-02T13:45:22Z</time></trkpt><trkpt lat="44.5480080572861" lon="10.067750036132407"><ele>1116.0</ele><time>2026-05-02T13:45:24Z</time></trkpt><trkpt lat="44.54809408099704" lon="10.067770798270393"><ele>1113.0</ele><time>2026-05-02T13:45:26Z</time></trkpt><trkpt lat="44.54816252447672" lon="10.06776850190987"><ele>1110.0</ele><time>2026-05-02T13:45:28Z</time></trkpt><trkpt lat="44.54822669254479" lon="10.06775649755396"><ele>1107.0</ele><time>2026-05-02T13:45:30Z</time></trkpt><trkpt lat="44.54830687356578" lon="10.06778547837987"><ele>1104.0</ele><time>2026-05-02T13:45:33Z</time></trkpt><trkpt lat="44.54832336788008" lon="10.067902587516585"><ele>1101.0</ele><time>2026-05-02T13:45:36.999Z</time></trkpt><trkpt lat="44.54829626353458" lon="10.068016015135203"><ele>1098.0</ele><time>2026-05-02T13:45:39.999Z</time></trkpt><trkpt lat="44.548242909800734" lon="10.06809516288686"><ele>1098.0</ele><time>2026-05-02T13:45:42.999Z</time></trkpt><trkpt lat="44.54818760661459" lon="10.068174409212993"><ele>1098.0</ele><time>2026-05-02T13:45:45.999Z</time></trkpt><trkpt lat="44.5481502383043" lon="10.068253835189854"><ele>1098.0</ele><time>2026-05-02T13:45:47.999Z</time></trkpt><trkpt lat="44.548126689510994" lon="10.068364062765118"><ele>1098.0</ele><time>2026-05-02T13:45:49.999Z</time></trkpt><trkpt lat="44.548092586246234" lon="10.068470205076725"><ele>1098.0</ele><time>2026-05-02T13:45:51.999Z</time></trkpt><trkpt lat="44.54807805203788" lon="10.068585679273365"><ele>1098.0</ele><time>2026-05-02T13:45:53.999Z</time></trkpt><trkpt lat="44.54806346392554" lon="10.068689863461536"><ele>1097.8</ele><time>2026-05-02T13:45:55.999Z</time></trkpt><trkpt lat="44.54803450527658" lon="10.068821308178423"><ele>1097.6</ele><time>2026-05-02T13:45:57.999Z</time></trkpt><trkpt lat="44.54796964090494" lon="10.06892757109113"><ele>1097.4</ele><time>2026-05-02T13:45:59.999Z</time></trkpt><trkpt lat="44.54797531799118" lon="10.069067591617216"><ele>1097.2</ele><time>2026-05-02T13:46:01.999Z</time></trkpt><trkpt lat="44.54796474022663" lon="10.069192717530699"><ele>1097.0</ele><time>2026-05-02T13:46:03.999Z</time></trkpt><trkpt lat="44.54793636856494" lon="10.069274034042976"><ele>1099.5</ele><time>2026-05-02T13:46:05.999Z</time></trkpt><trkpt lat="44.54786530876592" lon="10.06939082310641"><ele>1102.0</ele><time>2026-05-02T13:46:07.999Z</time></trkpt><trkpt lat="44.54781679118015" lon="10.069471213358504"><ele>1104.5</ele><time>2026-05-02T13:46:09.999Z</time></trkpt><trkpt lat="44.54778740962489" lon="10.069563947717636"><ele>1107.0</ele><time>2026-05-02T13:46:11.999Z</time></trkpt><trkpt lat="44.54781663965393" lon="10.069677852484453"><ele>1109.5</ele><time>2026-05-02T13:46:13.999Z</time></trkpt><trkpt lat="44.54781901489625" lon="10.069781197041696"><ele>1112.0</ele><time>2026-05-02T13:46:15.999Z</time></trkpt><trkpt lat="44.547791712476645" lon="10.069896043916014"><ele>1111.5</ele><time>2026-05-02T13:46:17.999Z</time></trkpt><trkpt lat="44.54776291862182" lon="10.069989242481904"><ele>1111.0</ele><time>2026-05-02T13:46:19.999Z</time></trkpt><trkpt lat="44.547704355509495" lon="10.070069187915248"><ele>1110.5</ele><time>2026-05-02T13:46:21.999Z</time></trkpt><trkpt lat="44.547636643655714" lon="10.070173918072431"><ele>1110.0</ele><time>2026-05-02T13:46:25Z</time></trkpt><trkpt lat="44.54761289158532" lon="10.070290627612547"><ele>1109.5</ele><time>2026-05-02T13:46:27Z</time></trkpt><trkpt lat="44.54758609194598" lon="10.070410794797901"><ele>1109.0</ele><time>2026-05-02T13:46:29Z</time></trkpt><trkpt lat="44.54757840171663" lon="10.070522638983247"><ele>1109.0</ele><time>2026-05-02T13:46:31Z</time></trkpt><trkpt lat="44.54757017067093" lon="10.070650685595773"><ele>1109.0</ele><time>2026-05-02T13:46:33Z</time></trkpt><trkpt lat="44.54757040093494" lon="10.070764456094349"><ele>1109.0</ele><time>2026-05-02T13:46:35Z</time></trkpt><trkpt lat="44.547563431927315" lon="10.070901517454441"><ele>1109.0</ele><time>2026-05-02T13:46:37Z</time></trkpt><trkpt lat="44.547561373809536" lon="10.071024961514652"><ele>1109.0</ele><time>2026-05-02T13:46:39Z</time></trkpt><trkpt lat="44.54755889924029" lon="10.071145751248022"><ele>1109.0</ele><time>2026-05-02T13:46:41Z</time></trkpt><trkpt lat="44.54754333914004" lon="10.071241737328727"><ele>1108.4285714285713</ele><time>2026-05-02T13:46:43Z</time></trkpt><trkpt lat="44.547560073714585" lon="10.071351183291705"><ele>1107.857142857143</ele><time>2026-05-02T13:46:45Z</time></trkpt><trkpt lat="44.54757454194586" lon="10.071442192834835"><ele>1107.2857142857142</ele><time>2026-05-02T13:46:48Z</time></trkpt><trkpt lat="44.54765594004639" lon="10.071434146407137"><ele>1106.7142857142858</ele><time>2026-05-02T13:46:52Z</time></trkpt><trkpt lat="44.547671397858124" lon="10.071335942040275"><ele>1106.142857142857</ele><time>2026-05-02T13:46:55Z</time></trkpt><trkpt lat="44.54772203944535" lon="10.071268803177828"><ele>1105.5714285714284</ele><time>2026-05-02T13:46:57Z</time></trkpt><trkpt lat="44.54778766663772" lon="10.07122540391564"><ele>1105.0</ele><time>2026-05-02T13:46:59Z</time></trkpt><trkpt lat="44.54784152519765" lon="10.071318944382769"><ele>1105.0</ele><time>2026-05-02T13:47:01Z</time></trkpt><trkpt lat="44.54784645178119" lon="10.071428408609878"><ele>1105.0</ele><time>2026-05-02T13:47:03Z</time></trkpt><trkpt lat="44.54786059695559" lon="10.071521343046678"><ele>1105.0</ele><time>2026-05-02T13:47:05Z</time></trkpt><trkpt lat="44.54788502062778" lon="10.07161739957054"><ele>1105.0</ele><time>2026-05-02T13:47:07Z</time></trkpt><trkpt lat="44.547910077518615" lon="10.07170609120162"><ele>1105.0</ele><time>2026-05-02T13:47:09Z</time></trkpt><trkpt lat="44.5479423800667" lon="10.07179927798969"><ele>1105.0</ele><time>2026-05-02T13:47:11Z</time></trkpt><trkpt lat="44.548007672020354" lon="10.071864278772313"><ele>1105.0</ele><time>2026-05-02T13:47:14Z</time></trkpt><trkpt lat="44.54807635825008" lon="10.071823936703312"><ele>1100.1666666666665</ele><time>2026-05-02T13:47:16Z</time></trkpt><trkpt lat="44.54812160416417" lon="10.071719918854646"><ele>1095.3333333333333</ele><time>2026-05-02T13:47:18Z</time></trkpt><trkpt lat="44.54815615603476" lon="10.071623316082253"><ele>1090.5</ele><time>2026-05-02T13:47:21Z</time></trkpt><trkpt lat="44.548204721101136" lon="10.071523938643246"><ele>1085.6666666666667</ele><time>2026-05-02T13:47:24Z</time></trkpt><trkpt lat="44.548238917661116" lon="10.071429577872308"><ele>1080.8333333333335</ele><time>2026-05-02T13:47:26Z</time></trkpt><trkpt lat="44.54826132623918" lon="10.071345397065748"><ele>1076.0</ele><time>2026-05-02T13:47:28Z</time></trkpt><trkpt lat="44.5483310104441" lon="10.071289687461407"><ele>1076.0</ele><time>2026-05-02T13:47:31Z</time></trkpt><trkpt lat="44.54843051833653" lon="10.071295746400184"><ele>1076.0</ele><time>2026-05-02T13:47:34Z</time></trkpt><trkpt lat="44.54851112172184" lon="10.07133386458716"><ele>1076.0</ele><time>2026-05-02T13:47:36Z</time></trkpt><trkpt lat="44.54858405634068" lon="10.071387987684174"><ele>1076.0</ele><time>2026-05-02T13:47:37.999Z</time></trkpt><trkpt lat="44.54865553873846" lon="10.071441256464883"><ele>1076.0</ele><time>2026-05-02T13:47:40.999Z</time></trkpt><trkpt lat="44.54875835008299" lon="10.071478498604426"><ele>1072.5</ele><time>2026-05-02T13:47:42.999Z</time></trkpt><trkpt lat="44.54884567873221" lon="10.071473118475174"><ele>1069.0</ele><time>2026-05-02T13:47:44.999Z</time></trkpt><trkpt lat="44.54890602318132" lon="10.071431741532994"><ele>1065.5</ele><time>2026-05-02T13:47:46.999Z</time></trkpt><trkpt lat="44.54898596871194" lon="10.071413718265966"><ele>1062.0</ele><time>2026-05-02T13:47:49.999Z</time></trkpt><trkpt lat="44.549047765654784" lon="10.071357538972203"><ele>1058.5</ele><time>2026-05-02T13:47:51.999Z</time></trkpt><trkpt lat="44.54911132851102" lon="10.071286571511678"><ele>1055.0</ele><time>2026-05-02T13:47:53.999Z</time></trkpt><trkpt lat="44.54920324210635" lon="10.07122189427889"><ele>1055.0</ele><time>2026-05-02T13:47:55.999Z</time></trkpt><trkpt lat="44.54927415788172" lon="10.071162771971773"><ele>1055.0</ele><time>2026-05-02T13:47:57.999Z</time></trkpt><trkpt lat="44.54934785531367" lon="10.071112709942179"><ele>1055.0</ele><time>2026-05-02T13:47:59.999Z</time></trkpt><trkpt lat="44.54940277835795" lon="10.071042557354394"><ele>1055.0</ele><time>2026-05-02T13:48:01.999Z</time></trkpt><trkpt lat="44.549501609906315" lon="10.070989256873817"><ele>1055.0</ele><time>2026-05-02T13:48:03.999Z</time></trkpt><trkpt lat="44.549582567766194" lon="10.070929355472895"><ele>1055.0</ele><time>2026-05-02T13:48:05.999Z</time></trkpt><trkpt lat="44.549664374740445" lon="10.070902755098233"><ele>1052.3333333333335</ele><time>2026-05-02T13:48:07.999Z</time></trkpt><trkpt lat="44.549749357539454" lon="10.070886977197102"><ele>1049.6666666666667</ele><time>2026-05-02T13:48:09.999Z</time></trkpt><trkpt lat="44.549823971915814" lon="10.070811887128361"><ele>1047.0</ele><time>2026-05-02T13:48:12.999Z</time></trkpt><trkpt lat="44.549883914743056" lon="10.0707668164637"><ele>1044.3333333333333</ele><time>2026-05-02T13:48:14.999Z</time></trkpt><trkpt lat="44.54995524998538" lon="10.070755396673093"><ele>1041.6666666666665</ele><time>2026-05-02T13:48:16.999Z</time></trkpt><trkpt lat="44.55002250434025" lon="10.070759468426"><ele>1039.0</ele><time>2026-05-02T13:48:18.999Z</time></trkpt><trkpt lat="44.550099601681026" lon="10.07075492684094"><ele>1039.0</ele><time>2026-05-02T13:48:20.999Z</time></trkpt><trkpt lat="44.5501905799396" lon="10.070699553290968"><ele>1039.0</ele><time>2026-05-02T13:48:22.999Z</time></trkpt><trkpt lat="44.5502545895781" lon="10.070649052081167"><ele>1039.0</ele><time>2026-05-02T13:48:24.999Z</time></trkpt><trkpt lat="44.550306926109435" lon="10.070570798617512"><ele>1039.0</ele><time>2026-05-02T13:48:26.999Z</time></trkpt><trkpt lat="44.55036821700509" lon="10.070544613489252"><ele>1039.0</ele><time>2026-05-02T13:48:28.999Z</time></trkpt><trkpt lat="44.55045306581669" lon="10.07056138091717"><ele>1039.0</ele><time>2026-05-02T13:48:31Z</time></trkpt><trkpt lat="44.5505142616005" lon="10.07058697548385"><ele>1035.5</ele><time>2026-05-02T13:48:33Z</time></trkpt><trkpt lat="44.55060025044639" lon="10.070573937073226"><ele>1032.0</ele><time>2026-05-02T13:48:36Z</time></trkpt><trkpt lat="44.55067312909183" lon="10.070569131564612"><ele>1028.5</ele><time>2026-05-02T13:48:38Z</time></trkpt><trkpt lat="44.55074512660121" lon="10.07056055966634"><ele>1025.0</ele><time>2026-05-02T13:48:40Z</time></trkpt><trkpt lat="44.5508329349533" lon="10.070592518479334"><ele>1021.4999999999999</ele><time>2026-05-02T13:48:43Z</time></trkpt><trkpt lat="44.55090494914116" lon="10.070656404631379"><ele>1018.0</ele><time>2026-05-02T13:48:45Z</time></trkpt><trkpt lat="44.55097038128568" lon="10.070671980848726"><ele>1017.9999999999999</ele><time>2026-05-02T13:48:47Z</time></trkpt><trkpt lat="44.55107152198629" lon="10.070662635793374"><ele>1018.0</ele><time>2026-05-02T13:48:49Z</time></trkpt><trkpt lat="44.551172007006926" lon="10.070686923350292"><ele>1018.0</ele><time>2026-05-02T13:48:52Z</time></trkpt><trkpt lat="44.55123589494911" lon="10.07069854401851"><ele>1018.0</ele><time>2026-05-02T13:48:54Z</time></trkpt><trkpt lat="44.551318260302246" lon="10.070674185537442"><ele>1017.9999999999999</ele><time>2026-05-02T13:48:56Z</time></trkpt><trkpt lat="44.55141340913212" lon="10.070658591267224"><ele>1018.0</ele><time>2026-05-02T13:48:58Z</time></trkpt><trkpt lat="44.55149136946549" lon="10.07065120959803"><ele>1014.8333333333333</ele><time>2026-05-02T13:49:00Z</time></trkpt><trkpt lat="44.55157159591191" lon="10.07068026945896"><ele>1011.6666666666666</ele><time>2026-05-02T13:49:02Z</time></trkpt><trkpt lat="44.55162893388561" lon="10.070769209617582"><ele>1008.5</ele><time>2026-05-02T13:49:04Z</time></trkpt><trkpt lat="44.55166974852809" lon="10.07086574708413"><ele>1005.3333333333333</ele><time>2026-05-02T13:49:06Z</time></trkpt><trkpt lat="44.55169610370342" lon="10.07095401443499"><ele>1002.1666666666666</ele><time>2026-05-02T13:49:08Z</time></trkpt><trkpt lat="44.5517123580126" lon="10.071052242281807"><ele>999.0</ele><time>2026-05-02T13:49:10Z</time></trkpt><trkpt lat="44.55171700760492" lon="10.071143515152498"><ele>998.6666666666666</ele><time>2026-05-02T13:49:12Z</time></trkpt><trkpt lat="44.55172994570081" lon="10.071240198527256"><ele>998.3333333333333</ele><time>2026-05-02T13:49:14Z</time></trkpt><trkpt lat="44.55177595401716" lon="10.071341104531182"><ele>998.0</ele><time>2026-05-02T13:49:16Z</time></trkpt><trkpt lat="44.55182844582431" lon="10.071424395744062"><ele>997.6666666666666</ele><time>2026-05-02T13:49:18Z</time></trkpt><trkpt lat="44.55190046787572" lon="10.07143917289256"><ele>997.3333333333333</ele><time>2026-05-02T13:49:20Z</time></trkpt><trkpt lat="44.55198061245787" lon="10.071440965564015"><ele>997.0</ele><time>2026-05-02T13:49:22Z</time></trkpt><trkpt lat="44.55203932664537" lon="10.07140085275343"><ele>993.6666666666666</ele><time>2026-05-02T13:49:25Z</time></trkpt><trkpt lat="44.55208756209518" lon="10.071306123066336"><ele>990.3333333333333</ele><time>2026-05-02T13:49:27Z</time></trkpt><trkpt lat="44.552134615055216" lon="10.071187813215838"><ele>987.0</ele><time>2026-05-02T13:49:29Z</time></trkpt><trkpt lat="44.55218674262895" lon="10.071076966190935"><ele>983.6666666666667</ele><time>2026-05-02T13:49:31Z</time></trkpt><trkpt lat="44.552248371930624" lon="10.071004508099376"><ele>980.3333333333334</ele><time>2026-05-02T13:49:33Z</time></trkpt><trkpt lat="44.55231669299001" lon="10.070948059296471"><ele>977.0</ele><time>2026-05-02T13:49:35Z</time></trkpt><trkpt lat="44.55241460951228" lon="10.070910169015612"><ele>977.0000000000001</ele><time>2026-05-02T13:49:38Z</time></trkpt><trkpt lat="44.55247770494717" lon="10.070883734946582"><ele>977.0</ele><time>2026-05-02T13:49:39.999Z</time></trkpt><trkpt lat="44.55253368488113" lon="10.070784486179004"><ele>977.0000000000001</ele><time>2026-05-02T13:49:42.999Z</time></trkpt><trkpt lat="44.55257659002172" lon="10.070702569158563"><ele>977.0000000000001</ele><time>2026-05-02T13:49:44.999Z</time></trkpt><trkpt lat="44.5526136204661" lon="10.070631052969945"><ele>977.0</ele><time>2026-05-02T13:49:46.999Z</time></trkpt><trkpt lat="44.55264697890489" lon="10.070553575107487"><ele>977.0000000000001</ele><time>2026-05-02T13:49:48.999Z</time></trkpt><trkpt lat="44.55271423613186" lon="10.070485538408153"><ele>977.0000000000001</ele><time>2026-05-02T13:49:50.999Z</time></trkpt><trkpt lat="44.552780974284865" lon="10.070467525825102"><ele>977.3333333333334</ele><time>2026-05-02T13:49:52.999Z</time></trkpt><trkpt lat="44.5528467512046" lon="10.070418581710406"><ele>977.6666666666667</ele><time>2026-05-02T13:49:54.999Z</time></trkpt><trkpt lat="44.55290821657292" lon="10.070388430736292"><ele>978.0</ele><time>2026-05-02T13:49:56.999Z</time></trkpt><trkpt lat="44.55298060912634" lon="10.070378932085593"><ele>978.3333333333333</ele><time>2026-05-02T13:49:58.999Z</time></trkpt><trkpt lat="44.5530491629111" lon="10.070299337840295"><ele>978.6666666666666</ele><time>2026-05-02T13:50:01.999Z</time></trkpt><trkpt lat="44.553008821692174" lon="10.070163279778289"><ele>979.0</ele><time>2026-05-02T13:50:04.999Z</time></trkpt><trkpt lat="44.55293045321372" lon="10.070075884055253"><ele>977.9999999999999</ele><time>2026-05-02T13:50:07.999Z</time></trkpt><trkpt lat="44.55288367461027" lon="10.0700074064452"><ele>977.0</ele><time>2026-05-02T13:50:09.999Z</time></trkpt><trkpt lat="44.552844928273345" lon="10.069934542614936"><ele>976.0</ele><time>2026-05-02T13:50:11.999Z</time></trkpt><trkpt lat="44.552804174072335" lon="10.069823640644625"><ele>975.0</ele><time>2026-05-02T13:50:14.999Z</time></trkpt><trkpt lat="44.55284680114398" lon="10.06975810142089"><ele>973.9999999999999</ele><time>2026-05-02T13:50:16.999Z</time></trkpt><trkpt lat="44.55292534814022" lon="10.06976263321495"><ele>973.0</ele><time>2026-05-02T13:50:19.999Z</time></trkpt><trkpt lat="44.55301289653246" lon="10.06985402910725"><ele>973.0</ele><time>2026-05-02T13:50:21.999Z</time></trkpt><trkpt lat="44.55309601769244" lon="10.069926581709465"><ele>973.0</ele><time>2026-05-02T13:50:24.999Z</time></trkpt><trkpt lat="44.55316914931935" lon="10.069950119542186"><ele>973.0</ele><time>2026-05-02T13:50:26.999Z</time></trkpt><trkpt lat="44.553236109546546" lon="10.069978518823259"><ele>973.0</ele><time>2026-05-02T13:50:28.999Z</time></trkpt><trkpt lat="44.55330349212577" lon="10.070021284513375"><ele>973.0</ele><time>2026-05-02T13:50:30.999Z</time></trkpt><trkpt lat="44.55336187228011" lon="10.070058034984303"><ele>973.0</ele><time>2026-05-02T13:50:32.999Z</time></trkpt><trkpt lat="44.553416178189416" lon="10.070103825205273"><ele>973.0</ele><time>2026-05-02T13:50:34.999Z</time></trkpt><trkpt lat="44.55346804784111" lon="10.070180237323424"><ele>972.9999999999999</ele><time>2026-05-02T13:50:37Z</time></trkpt><trkpt lat="44.553530479578114" lon="10.070244463758367"><ele>973.0</ele><time>2026-05-02T13:50:39Z</time></trkpt><trkpt lat="44.553602145352414" lon="10.07030793008129"><ele>973.0</ele><time>2026-05-02T13:50:41Z</time></trkpt><trkpt lat="44.55367667081911" lon="10.070347149689498"><ele>973.0</ele><time>2026-05-02T13:50:43Z</time></trkpt><trkpt lat="44.55374942041593" lon="10.070417458622138"><ele>972.9999999999999</ele><time>2026-05-02T13:50:45Z</time></trkpt><trkpt lat="44.55381422174106" lon="10.070495274180637"><ele>973.0</ele><time>2026-05-02T13:50:47Z</time></trkpt><trkpt lat="44.553886891978664" lon="10.070570560203386"><ele>975.2</ele><time>2026-05-02T13:50:49Z</time></trkpt><trkpt lat="44.553964346229236" lon="10.070656050210614"><ele>977.4</ele><time>2026-05-02T13:50:51Z</time></trkpt><trkpt lat="44.554039541328116" lon="10.07071212177794"><ele>979.6000000000001</ele><time>2026-05-02T13:50:53Z</time></trkpt><trkpt lat="44.55411676788457" lon="10.070787997485617"><ele>981.8000000000001</ele><time>2026-05-02T13:50:55Z</time></trkpt><trkpt lat="44.55420020710896" lon="10.07088629778956"><ele>984.0</ele><time>2026-05-02T13:50:58Z</time></trkpt><trkpt lat="44.55425951268436" lon="10.07092266066736"><ele>979.8333333333334</ele><time>2026-05-02T13:50:59Z</time></trkpt><trkpt lat="44.55432332132412" lon="10.070946113036165"><ele>975.6666666666667</ele><time>2026-05-02T13:51:00Z</time></trkpt><trkpt lat="44.554419199043245" lon="10.070977236329954"><ele>971.5</ele><time>2026-05-02T13:51:02Z</time></trkpt><trkpt lat="44.55450300945859" lon="10.070999453595157"><ele>967.3333333333334</ele><time>2026-05-02T13:51:05Z</time></trkpt><trkpt lat="44.55459741916011" lon="10.0710073431307"><ele>963.1666666666667</ele><time>2026-05-02T13:51:08Z</time></trkpt><trkpt lat="44.55467499397438" lon="10.071027538273263"><ele>959.0</ele><time>2026-05-02T13:51:11Z</time></trkpt><trkpt lat="44.55478568943773" lon="10.071043593595062"><ele>958.5000000000001</ele><time>2026-05-02T13:51:14Z</time></trkpt><trkpt lat="44.554890618840425" lon="10.071044742472603"><ele>958.0</ele><time>2026-05-02T13:51:16Z</time></trkpt><trkpt lat="44.55498588272726" lon="10.071035673408307"><ele>957.5</ele><time>2026-05-02T13:51:18Z</time></trkpt><trkpt lat="44.55506885557902" lon="10.071019573259901"><ele>957.0</ele><time>2026-05-02T13:51:20Z</time></trkpt><trkpt lat="44.55513964195608" lon="10.071010747590517"><ele>956.5000000000001</ele><time>2026-05-02T13:51:22Z</time></trkpt><trkpt lat="44.555227567502364" lon="10.07100140859326"><ele>956.0</ele><time>2026-05-02T13:51:25Z</time></trkpt><trkpt lat="44.555308804832066" lon="10.071029042586474"><ele>954.6666666666667</ele><time>2026-05-02T13:51:27Z</time></trkpt><trkpt lat="44.55537669113142" lon="10.07106839784098"><ele>953.3333333333334</ele><time>2026-05-02T13:51:29Z</time></trkpt><trkpt lat="44.55544328868244" lon="10.071119367310343"><ele>952.0</ele><time>2026-05-02T13:51:31Z</time></trkpt><trkpt lat="44.55553578202645" lon="10.07115557663005"><ele>950.6666666666667</ele><time>2026-05-02T13:51:33Z</time></trkpt><trkpt lat="44.55562279139749" lon="10.071169051735424"><ele>949.3333333333334</ele><time>2026-05-02T13:51:35Z</time></trkpt><trkpt lat="44.55569457253704" lon="10.071228481250015"><ele>948.0</ele><time>2026-05-02T13:51:37Z</time></trkpt><trkpt lat="44.555753943455436" lon="10.071318631341462"><ele>948.0</ele><time>2026-05-02T13:51:39Z</time></trkpt><trkpt lat="44.555817817348704" lon="10.071389398452615"><ele>948.0</ele><time>2026-05-02T13:51:41Z</time></trkpt><trkpt lat="44.55589574127141" lon="10.071481152021304"><ele>948.0</ele><time>2026-05-02T13:51:42.999Z</time></trkpt><trkpt lat="44.55594714351313" lon="10.071540873375493"><ele>948.0</ele><time>2026-05-02T13:51:44.999Z</time></trkpt><trkpt lat="44.55599903337097" lon="10.071591530181344"><ele>948.0</ele><time>2026-05-02T13:51:45.999Z</time></trkpt><trkpt lat="44.556087382680964" lon="10.071673777554505"><ele>948.0</ele><time>2026-05-02T13:51:47.999Z</time></trkpt><trkpt lat="44.556145801144105" lon="10.071792960847453"><ele>944.5999999999999</ele><time>2026-05-02T13:51:49.999Z</time></trkpt><trkpt lat="44.55617810115336" lon="10.071903518137328"><ele>941.1999999999999</ele><time>2026-05-02T13:51:51.999Z</time></trkpt><trkpt lat="44.55621496644006" lon="10.072015877343366"><ele>937.8</ele><time>2026-05-02T13:51:53.999Z</time></trkpt><trkpt lat="44.55625508208635" lon="10.072115722347363"><ele>934.4</ele><time>2026-05-02T13:51:55.999Z</time></trkpt><trkpt lat="44.55633476818271" lon="10.072195206184116"><ele>931.0</ele><time>2026-05-02T13:51:57.999Z</time></trkpt><trkpt lat="44.556437930925206" lon="10.072219538153803"><ele>930.9999999999999</ele><time>2026-05-02T13:51:59.999Z</time></trkpt><trkpt lat="44.55650366928863" lon="10.072155026286087"><ele>931.0</ele><time>2026-05-02T13:52:01.999Z</time></trkpt><trkpt lat="44.55656121817346" lon="10.07209994602792"><ele>931.0</ele><time>2026-05-02T13:52:03.999Z</time></trkpt><trkpt lat="44.55658727381863" lon="10.072014207235043"><ele>931.0</ele><time>2026-05-02T13:52:05.999Z</time></trkpt><trkpt lat="44.55660318781914" lon="10.071906238050529"><ele>930.9999999999999</ele><time>2026-05-02T13:52:07.999Z</time></trkpt><trkpt lat="44.55661182872358" lon="10.071792067974057"><ele>931.0</ele><time>2026-05-02T13:52:09.999Z</time></trkpt><trkpt lat="44.55661489509794" lon="10.07164998131186"><ele>930.9999999999999</ele><time>2026-05-02T13:52:11.999Z</time></trkpt><trkpt lat="44.55661468909124" lon="10.071525969383915"><ele>931.0</ele><time>2026-05-02T13:52:13.999Z</time></trkpt><trkpt lat="44.556681107792514" lon="10.071471702941325"><ele>931.0</ele><time>2026-05-02T13:52:15.999Z</time></trkpt><trkpt lat="44.55675519999058" lon="10.071510950411227"><ele>931.0</ele><time>2026-05-02T13:52:17.999Z</time></trkpt><trkpt lat="44.556827780641385" lon="10.07155551384883"><ele>930.9999999999999</ele><time>2026-05-02T13:52:19.999Z</time></trkpt><trkpt lat="44.55688899073804" lon="10.07161955278543"><ele>931.0</ele><time>2026-05-02T13:52:21.999Z</time></trkpt><trkpt lat="44.55694403933569" lon="10.071715243664528"><ele>930.9999999999999</ele><time>2026-05-02T13:52:23.999Z</time></trkpt><trkpt lat="44.55696771672866" lon="10.07183184034343"><ele>931.0</ele><time>2026-05-02T13:52:25.999Z</time></trkpt><trkpt lat="44.55697714313745" lon="10.071921732305997"><ele>931.0</ele><time>2026-05-02T13:52:27.999Z</time></trkpt><trkpt lat="44.55697509647199" lon="10.072025096247696"><ele>931.0</ele><time>2026-05-02T13:52:29.999Z</time></trkpt><trkpt lat="44.55697820740111" lon="10.072146520688673"><ele>930.9999999999999</ele><time>2026-05-02T13:52:31.999Z</time></trkpt><trkpt lat="44.55699077944387" lon="10.07228454445772"><ele>931.0</ele><time>2026-05-02T13:52:33.999Z</time></trkpt><trkpt lat="44.556979154748014" lon="10.072411950958127"><ele>932.6666666666666</ele><time>2026-05-02T13:52:35.999Z</time></trkpt><trkpt lat="44.55697923110597" lon="10.07253290985748"><ele>934.3333333333333</ele><time>2026-05-02T13:52:37.999Z</time></trkpt><trkpt lat="44.55700702496449" lon="10.07266280071412"><ele>936.0</ele><time>2026-05-02T13:52:39.999Z</time></trkpt><trkpt lat="44.55704216395372" lon="10.07276778975272"><ele>937.6666666666667</ele><time>2026-05-02T13:52:42Z</time></trkpt><trkpt lat="44.5570904479966" lon="10.072872351568112"><ele>939.3333333333334</ele><time>2026-05-02T13:52:44Z</time></trkpt><trkpt lat="44.55712734017185" lon="10.072968512000822"><ele>941.0</ele><time>2026-05-02T13:52:46Z</time></trkpt><trkpt lat="44.55715523190277" lon="10.073084186439212"><ele>941.0</ele><time>2026-05-02T13:52:48Z</time></trkpt><trkpt lat="44.557185248884736" lon="10.07320774594061"><ele>940.9999999999999</ele><time>2026-05-02T13:52:50Z</time></trkpt><trkpt lat="44.55724283939415" lon="10.073343315795562"><ele>940.9999999999999</ele><time>2026-05-02T13:52:52Z</time></trkpt><trkpt lat="44.55731047220163" lon="10.073462051353488"><ele>941.0</ele><time>2026-05-02T13:52:54Z</time></trkpt><trkpt lat="44.557377457337616" lon="10.073590907887347"><ele>941.0</ele><time>2026-05-02T13:52:56Z</time></trkpt><trkpt lat="44.55744204021582" lon="10.07371224053505"><ele>937.1999999999999</ele><time>2026-05-02T13:52:58Z</time></trkpt><trkpt lat="44.55749609799562" lon="10.073846912729477"><ele>933.3999999999999</ele><time>2026-05-02T13:53:00Z</time></trkpt><trkpt lat="44.55756774547355" lon="10.07396274571794"><ele>929.6</ele><time>2026-05-02T13:53:02Z</time></trkpt><trkpt lat="44.557656555389435" lon="10.074053935426178"><ele>925.8</ele><time>2026-05-02T13:53:04Z</time></trkpt><trkpt lat="44.557713446712995" lon="10.074175380470669"><ele>922.0</ele><time>2026-05-02T13:53:06Z</time></trkpt><trkpt lat="44.55778292181416" lon="10.07429331882432"><ele>922.0</ele><time>2026-05-02T13:53:08Z</time></trkpt><trkpt lat="44.55786424758347" lon="10.07438643811485"><ele>922.0</ele><time>2026-05-02T13:53:10Z</time></trkpt><trkpt lat="44.55794062785226" lon="10.074503113087047"><ele>922.0</ele><time>2026-05-02T13:53:12Z</time></trkpt><trkpt lat="44.55802660202064" lon="10.074627916464124"><ele>922.0</ele><time>2026-05-02T13:53:14Z</time></trkpt><trkpt lat="44.55810612022842" lon="10.074746915175968"><ele>922.0</ele><time>2026-05-02T13:53:16Z</time></trkpt><trkpt lat="44.55815024029135" lon="10.074872386103994"><ele>922.0</ele><time>2026-05-02T13:53:18Z</time></trkpt><trkpt lat="44.55822431668296" lon="10.074966835565748"><ele>922.0</ele><time>2026-05-02T13:53:20Z</time></trkpt><trkpt lat="44.55830182789487" lon="10.07507151989406"><ele>922.0</ele><time>2026-05-02T13:53:22Z</time></trkpt><trkpt lat="44.558402184292575" lon="10.075121590571515"><ele>922.0</ele><time>2026-05-02T13:53:24Z</time></trkpt><trkpt lat="44.558499369689336" lon="10.075221073826484"><ele>914.8</ele><time>2026-05-02T13:53:26Z</time></trkpt><trkpt lat="44.55855180051764" lon="10.075347152883015"><ele>907.6</ele><time>2026-05-02T13:53:28Z</time></trkpt><trkpt lat="44.5585325293545" lon="10.075516376777838"><ele>900.3999999999999</ele><time>2026-05-02T13:53:30Z</time></trkpt><trkpt lat="44.558498890569545" lon="10.075651810629914"><ele>893.1999999999999</ele><time>2026-05-02T13:53:32Z</time></trkpt><trkpt lat="44.558474491696266" lon="10.075770206537113"><ele>886.0</ele><time>2026-05-02T13:53:34Z</time></trkpt><trkpt lat="44.55845395662459" lon="10.07589078929876"><ele>881.5999999999999</ele><time>2026-05-02T13:53:36Z</time></trkpt><trkpt lat="44.558504809735155" lon="10.076043731772778"><ele>877.1999999999999</ele><time>2026-05-02T13:53:38Z</time></trkpt><trkpt lat="44.558555443292974" lon="10.076097018612662"><ele>872.8000000000001</ele><time>2026-05-02T13:53:39Z</time></trkpt><trkpt lat="44.558659798973366" lon="10.076161693306858"><ele>868.4000000000001</ele><time>2026-05-02T13:53:41Z</time></trkpt><trkpt lat="44.55875565651058" lon="10.076164206486986"><ele>864.0</ele><time>2026-05-02T13:53:43Z</time></trkpt><trkpt lat="44.55886090378025" lon="10.076160370275307"><ele>864.0</ele><time>2026-05-02T13:53:45Z</time></trkpt><trkpt lat="44.55897120180636" lon="10.076140423208942"><ele>864.0000000000001</ele><time>2026-05-02T13:53:47Z</time></trkpt><trkpt lat="44.5590766009315" lon="10.076153163868026"><ele>864.0000000000001</ele><time>2026-05-02T13:53:49Z</time></trkpt><trkpt lat="44.559168481199784" lon="10.076193681726146"><ele>864.0</ele><time>2026-05-02T13:53:50.999Z</time></trkpt><trkpt lat="44.55921388777493" lon="10.076319450540796"><ele>864.0</ele><time>2026-05-02T13:53:52.999Z</time></trkpt><trkpt lat="44.55922185586999" lon="10.076458748267699"><ele>864.0</ele><time>2026-05-02T13:53:54.999Z</time></trkpt><trkpt lat="44.559248068610465" lon="10.076579001155451"><ele>864.0</ele><time>2026-05-02T13:53:56.999Z</time></trkpt><trkpt lat="44.55932165247206" lon="10.076594877077705"><ele>864.0</ele><time>2026-05-02T13:53:58.999Z</time></trkpt><trkpt lat="44.559380284932395" lon="10.076522442142036"><ele>864.0</ele><time>2026-05-02T13:54:00.999Z</time></trkpt><trkpt lat="44.55937998867438" lon="10.076381934624315"><ele>864.0</ele><time>2026-05-02T13:54:02.999Z</time></trkpt><trkpt lat="44.559384440333915" lon="10.076283430854877"><ele>864.0</ele><time>2026-05-02T13:54:03.999Z</time></trkpt><trkpt lat="44.55939400347234" lon="10.076188565929833"><ele>864.0</ele><time>2026-05-02T13:54:04.999Z</time></trkpt><trkpt lat="44.55951541272804" lon="10.076129221958805"><ele>864.0000000000001</ele><time>2026-05-02T13:54:06.999Z</time></trkpt><trkpt lat="44.5595836364717" lon="10.0761260937966"><ele>864.0000000000001</ele><time>2026-05-02T13:54:07.999Z</time></trkpt><trkpt lat="44.559704909405795" lon="10.076106340343477"><ele>864.0</ele><time>2026-05-02T13:54:09.999Z</time></trkpt><trkpt lat="44.55981999879189" lon="10.076054686336125"><ele>864.0</ele><time>2026-05-02T13:54:11.999Z</time></trkpt><trkpt lat="44.55988227744395" lon="10.076026607800891"><ele>860.4000000000001</ele><time>2026-05-02T13:54:12.999Z</time></trkpt><trkpt lat="44.55999210650589" lon="10.075993097332832"><ele>856.8000000000001</ele><time>2026-05-02T13:54:14.999Z</time></trkpt><trkpt lat="44.56012404055077" lon="10.075985907273807"><ele>853.2</ele><time>2026-05-02T13:54:16.999Z</time></trkpt><trkpt lat="44.560195898408296" lon="10.075991923628623"><ele>849.5999999999999</ele><time>2026-05-02T13:54:17.999Z</time></trkpt><trkpt lat="44.56026622303604" lon="10.076005685754723"><ele>846.0</ele><time>2026-05-02T13:54:18.999Z</time></trkpt><trkpt lat="44.56033505840221" lon="10.076017115955926"><ele>844.7142857142857</ele><time>2026-05-02T13:54:19.999Z</time></trkpt><trkpt lat="44.560403047307844" lon="10.076031976935953"><ele>843.4285714285714</ele><time>2026-05-02T13:54:20.999Z</time></trkpt><trkpt lat="44.560470729365456" lon="10.07604318074825"><ele>842.1428571428571</ele><time>2026-05-02T13:54:21.999Z</time></trkpt><trkpt lat="44.56053362997811" lon="10.076052079486278"><ele>840.8571428571429</ele><time>2026-05-02T13:54:22.999Z</time></trkpt><trkpt lat="44.56061161427342" lon="10.076063265724763"><ele>839.5714285714287</ele><time>2026-05-02T13:54:23.999Z</time></trkpt><trkpt lat="44.56068174837042" lon="10.076080681540711"><ele>838.2857142857143</ele><time>2026-05-02T13:54:24.999Z</time></trkpt><trkpt lat="44.560750257212646" lon="10.076089782460746"><ele>837.0</ele><time>2026-05-02T13:54:25.999Z</time></trkpt><trkpt lat="44.56085277538759" lon="10.076073097724862"><ele>837.0</ele><time>2026-05-02T13:54:27.999Z</time></trkpt><trkpt lat="44.560945454085235" lon="10.07602913995902"><ele>837.0</ele><time>2026-05-02T13:54:29.999Z</time></trkpt><trkpt lat="44.56101239461338" lon="10.075979668104086"><ele>837.0</ele><time>2026-05-02T13:54:30.999Z</time></trkpt><trkpt lat="44.56107814117231" lon="10.075932097104577"><ele>837.0</ele><time>2026-05-02T13:54:31.999Z</time></trkpt><trkpt lat="44.561145166878845" lon="10.075882694817688"><ele>837.0</ele><time>2026-05-02T13:54:32.999Z</time></trkpt><trkpt lat="44.56122443812593" lon="10.075782419972516"><ele>837.0</ele><time>2026-05-02T13:54:34.999Z</time></trkpt><trkpt lat="44.56129390095623" lon="10.075677539071975"><ele>837.0</ele><time>2026-05-02T13:54:36.999Z</time></trkpt><trkpt lat="44.56137666110821" lon="10.075558370281271"><ele>837.0</ele><time>2026-05-02T13:54:38.999Z</time></trkpt><trkpt lat="44.56143257649788" lon="10.075514105527825"><ele>837.0</ele><time>2026-05-02T13:54:39.999Z</time></trkpt><trkpt lat="44.56152573453414" lon="10.075472697277856"><ele>837.0</ele><time>2026-05-02T13:54:41.999Z</time></trkpt><trkpt lat="44.56159708308157" lon="10.075394320534782"><ele>837.0</ele><time>2026-05-02T13:54:43.999Z</time></trkpt><trkpt lat="44.561638247436505" lon="10.075259906742213"><ele>837.0</ele><time>2026-05-02T13:54:45.999Z</time></trkpt><trkpt lat="44.56165489474923" lon="10.075112647058022"><ele>837.0</ele><time>2026-05-02T13:54:48Z</time></trkpt><trkpt lat="44.561681765117775" lon="10.07498838715092"><ele>837.0</ele><time>2026-05-02T13:54:50Z</time></trkpt><trkpt lat="44.56173610627225" lon="10.074899946050792"><ele>837.0</ele><time>2026-05-02T13:54:52Z</time></trkpt><trkpt lat="44.561808237511094" lon="10.074864443281808"><ele>837.0</ele><time>2026-05-02T13:54:54Z</time></trkpt><trkpt lat="44.561887500745904" lon="10.074825459000923"><ele>837.0</ele><time>2026-05-02T13:54:56Z</time></trkpt><trkpt lat="44.56198518840678" lon="10.074841960211254"><ele>835.6</ele><time>2026-05-02T13:54:58Z</time></trkpt><trkpt lat="44.56207884038294" lon="10.074883012745802"><ele>834.2</ele><time>2026-05-02T13:55:00Z</time></trkpt><trkpt lat="44.562170216833714" lon="10.074876258449862"><ele>832.8</ele><time>2026-05-02T13:55:02Z</time></trkpt><trkpt lat="44.56227238386834" lon="10.074888028139867"><ele>831.4</ele><time>2026-05-02T13:55:04Z</time></trkpt><trkpt lat="44.56239092657532" lon="10.074884754016535"><ele>830.0</ele><time>2026-05-02T13:55:06Z</time></trkpt><trkpt lat="44.56250129643712" lon="10.074869160667802"><ele>830.0</ele><time>2026-05-02T13:55:08Z</time></trkpt><trkpt lat="44.562596761855374" lon="10.074815756225002"><ele>830.0</ele><time>2026-05-02T13:55:10Z</time></trkpt><trkpt lat="44.56269263282186" lon="10.074791600231725"><ele>830.0</ele><time>2026-05-02T13:55:12Z</time></trkpt><trkpt lat="44.56279592509972" lon="10.074758485904171"><ele>830.0</ele><time>2026-05-02T13:55:14Z</time></trkpt><trkpt lat="44.56290531820255" lon="10.074776049645642"><ele>830.0</ele><time>2026-05-02T13:55:16Z</time></trkpt><trkpt lat="44.56300940403278" lon="10.074817450744835"><ele>827.6</ele><time>2026-05-02T13:55:18Z</time></trkpt><trkpt lat="44.56313677538365" lon="10.074793800102508"><ele>825.2</ele><time>2026-05-02T13:55:20Z</time></trkpt><trkpt lat="44.563211083132835" lon="10.074769872171686"><ele>822.8</ele><time>2026-05-02T13:55:21Z</time></trkpt><trkpt lat="44.563283361736914" lon="10.074736711739662"><ele>820.4</ele><time>2026-05-02T13:55:22Z</time></trkpt><trkpt lat="44.56338200800447" lon="10.074640295023633"><ele>818.0</ele><time>2026-05-02T13:55:24Z</time></trkpt><trkpt lat="44.56343768153186" lon="10.074595684813573"><ele>818.0</ele><time>2026-05-02T13:55:25Z</time></trkpt><trkpt lat="44.56350012926802" lon="10.074551823551095"><ele>818.0</ele><time>2026-05-02T13:55:26Z</time></trkpt><trkpt lat="44.56355215688803" lon="10.074500258287943"><ele>818.0</ele><time>2026-05-02T13:55:27Z</time></trkpt><trkpt lat="44.56365677220423" lon="10.074409665811425"><ele>818.0</ele><time>2026-05-02T13:55:29Z</time></trkpt><trkpt lat="44.563753117068735" lon="10.074329471786687"><ele>818.0</ele><time>2026-05-02T13:55:31Z</time></trkpt><trkpt lat="44.563858581657406" lon="10.074274865030713"><ele>817.2</ele><time>2026-05-02T13:55:33Z</time></trkpt><trkpt lat="44.563893743604524" lon="10.074200726668353"><ele>816.4</ele><time>2026-05-02T13:55:34Z</time></trkpt><trkpt lat="44.56396329119324" lon="10.074082379801988"><ele>815.6</ele><time>2026-05-02T13:55:36Z</time></trkpt><trkpt lat="44.56394215960762" lon="10.073942668271764"><ele>814.8000000000001</ele><time>2026-05-02T13:55:37Z</time></trkpt><trkpt lat="44.5639609347807" lon="10.073774255786049"><ele>814.0</ele><time>2026-05-02T13:55:39Z</time></trkpt><trkpt lat="44.563975547703784" lon="10.073632149923707"><ele>813.9999999999999</ele><time>2026-05-02T13:55:41Z</time></trkpt><trkpt lat="44.56402955185929" lon="10.07350149838418"><ele>814.0</ele><time>2026-05-02T13:55:43Z</time></trkpt><trkpt lat="44.5641222422066" lon="10.073436008538932"><ele>814.0</ele><time>2026-05-02T13:55:45Z</time></trkpt><trkpt lat="44.564179072134785" lon="10.073390748123952"><ele>814.0</ele><time>2026-05-02T13:55:46Z</time></trkpt><trkpt lat="44.56423547260737" lon="10.073351286292157"><ele>813.9999999999999</ele><time>2026-05-02T13:55:47Z</time></trkpt><trkpt lat="44.564307277212215" lon="10.073280124439103"><ele>814.0</ele><time>2026-05-02T13:55:49Z</time></trkpt><trkpt lat="44.564398532327935" lon="10.073232256017416"><ele>816.9999999999999</ele><time>2026-05-02T13:55:51Z</time></trkpt><trkpt lat="44.56448931094457" lon="10.073166203845243"><ele>820.0</ele><time>2026-05-02T13:55:53Z</time></trkpt><trkpt lat="44.56455598969181" lon="10.073107537250435"><ele>823.0</ele><time>2026-05-02T13:55:55Z</time></trkpt><trkpt lat="44.56463048497921" lon="10.073068327156989"><ele>826.0</ele><time>2026-05-02T13:55:56.999Z</time></trkpt><trkpt lat="44.564708968665066" lon="10.0730422527103"><ele>828.9999999999999</ele><time>2026-05-02T13:55:58.999Z</time></trkpt><trkpt lat="44.56480361790272" lon="10.07307619966473"><ele>832.0</ele><time>2026-05-02T13:56:00.999Z</time></trkpt><trkpt lat="44.56486999776806" lon="10.073219000061357"><ele>828.0</ele><time>2026-05-02T13:56:02.999Z</time></trkpt><trkpt lat="44.56491312402912" lon="10.073380257662492"><ele>824.0</ele><time>2026-05-02T13:56:04.999Z</time></trkpt><trkpt lat="44.5649395489847" lon="10.073518915671961"><ele>820.0</ele><time>2026-05-02T13:56:06.999Z</time></trkpt><trkpt lat="44.564966028702415" lon="10.07363264522631"><ele>816.0</ele><time>2026-05-02T13:56:08.999Z</time></trkpt><trkpt lat="44.56499722933247" lon="10.073741080201959"><ele>812.0</ele><time>2026-05-02T13:56:10.999Z</time></trkpt><trkpt lat="44.565061054900355" lon="10.073848951433988"><ele>812.0</ele><time>2026-05-02T13:56:12.999Z</time></trkpt><trkpt lat="44.56516795066493" lon="10.073882226494456"><ele>812.0</ele><time>2026-05-02T13:56:14.999Z</time></trkpt><trkpt lat="44.565291279993275" lon="10.073856199308795"><ele>812.0</ele><time>2026-05-02T13:56:16.999Z</time></trkpt><trkpt lat="44.56535016750658" lon="10.073813368469441"><ele>812.0</ele><time>2026-05-02T13:56:17.999Z</time></trkpt><trkpt lat="44.56542048749186" lon="10.073795785872651"><ele>812.0</ele><time>2026-05-02T13:56:18.999Z</time></trkpt><trkpt lat="44.565528187788615" lon="10.073744416668035"><ele>813.8333333333334</ele><time>2026-05-02T13:56:20.999Z</time></trkpt><trkpt lat="44.56563236572538" lon="10.073741784124055"><ele>815.6666666666667</ele><time>2026-05-02T13:56:22.999Z</time></trkpt><trkpt lat="44.56569764411115" lon="10.073829242205804"><ele>817.5</ele><time>2026-05-02T13:56:24.999Z</time></trkpt><trkpt lat="44.56570432014279" lon="10.07392746656467"><ele>819.3333333333333</ele><time>2026-05-02T13:56:25.999Z</time></trkpt><trkpt lat="44.56576584105627" lon="10.07405050894574"><ele>821.1666666666666</ele><time>2026-05-02T13:56:27.999Z</time></trkpt><trkpt lat="44.565824089649496" lon="10.074107022465968"><ele>823.0</ele><time>2026-05-02T13:56:28.999Z</time></trkpt><trkpt lat="44.565883778789534" lon="10.074147303215657"><ele>822.9999999999999</ele><time>2026-05-02T13:56:29.999Z</time></trkpt><trkpt lat="44.56595516865102" lon="10.074170362139684"><ele>823.0</ele><time>2026-05-02T13:56:30.999Z</time></trkpt><trkpt lat="44.56602115238211" lon="10.074173965844084"><ele>823.0</ele><time>2026-05-02T13:56:31.999Z</time></trkpt><trkpt lat="44.566134241654765" lon="10.074155952859918"><ele>823.0</ele><time>2026-05-02T13:56:33.999Z</time></trkpt><trkpt lat="44.566243190166595" lon="10.074121555001671"><ele>822.9999999999999</ele><time>2026-05-02T13:56:35.999Z</time></trkpt><trkpt lat="44.566310925884174" lon="10.074120931142856"><ele>823.0</ele><time>2026-05-02T13:56:36.999Z</time></trkpt><trkpt lat="44.56642760989953" lon="10.074073591302808"><ele>823.0</ele><time>2026-05-02T13:56:38.999Z</time></trkpt><trkpt lat="44.566552090840105" lon="10.074058284170428"><ele>823.0</ele><time>2026-05-02T13:56:40.999Z</time></trkpt><trkpt lat="44.56666616216447" lon="10.074099678717072"><ele>823.0</ele><time>2026-05-02T13:56:42.999Z</time></trkpt><trkpt lat="44.5667318288849" lon="10.074119316096835"><ele>823.0</ele><time>2026-05-02T13:56:43.999Z</time></trkpt><trkpt lat="44.56679981768508" lon="10.074130415200099"><ele>823.0</ele><time>2026-05-02T13:56:44.999Z</time></trkpt><trkpt lat="44.566934448309304" lon="10.074133384187368"><ele>818.9999999999999</ele><time>2026-05-02T13:56:46.999Z</time></trkpt><trkpt lat="44.56700075328676" lon="10.07410817741522"><ele>815.0</ele><time>2026-05-02T13:56:47.999Z</time></trkpt><trkpt lat="44.56707283241627" lon="10.074110623463719"><ele>811.0</ele><time>2026-05-02T13:56:48.999Z</time></trkpt><trkpt lat="44.56714162360129" lon="10.074083839184322"><ele>807.0</ele><time>2026-05-02T13:56:49.999Z</time></trkpt><trkpt lat="44.56720977434166" lon="10.074042534152703"><ele>802.9999999999999</ele><time>2026-05-02T13:56:50.999Z</time></trkpt><trkpt lat="44.56727119799314" lon="10.073997255860688"><ele>799.0</ele><time>2026-05-02T13:56:51.999Z</time></trkpt><trkpt lat="44.567374955532095" lon="10.073903130639447"><ele>798.9999999999999</ele><time>2026-05-02T13:56:54Z</time></trkpt><trkpt lat="44.567411369459386" lon="10.073828061563251"><ele>799.0</ele><time>2026-05-02T13:56:55Z</time></trkpt><trkpt lat="44.567482377169746" lon="10.073811213352073"><ele>799.0</ele><time>2026-05-02T13:56:56Z</time></trkpt><trkpt lat="44.567547871216235" lon="10.07380803899115"><ele>799.0</ele><time>2026-05-02T13:56:57Z</time></trkpt><trkpt lat="44.56760806356608" lon="10.073875546623551"><ele>798.9999999999999</ele><time>2026-05-02T13:56:58Z</time></trkpt><trkpt lat="44.56767117789957" lon="10.073899208079332"><ele>799.0</ele><time>2026-05-02T13:56:59Z</time></trkpt><trkpt lat="44.56777494985811" lon="10.07396183365991"><ele>798.9999999999999</ele><time>2026-05-02T13:57:01Z</time></trkpt><trkpt lat="44.56783748637251" lon="10.073948879651988"><ele>799.0</ele><time>2026-05-02T13:57:03Z</time></trkpt><trkpt lat="44.5679164092151" lon="10.073892980536872"><ele>799.0</ele><time>2026-05-02T13:57:05Z</time></trkpt><trkpt lat="44.56800448012757" lon="10.073857754839713"><ele>799.0</ele><time>2026-05-02T13:57:07Z</time></trkpt><trkpt lat="44.56807823514601" lon="10.073953149137179"><ele>798.9999999999999</ele><time>2026-05-02T13:57:09Z</time></trkpt><trkpt lat="44.568094952491656" lon="10.074094569313363"><ele>799.0</ele><time>2026-05-02T13:57:11Z</time></trkpt><trkpt lat="44.56812752603144" lon="10.074220923366697"><ele>790.8000000000001</ele><time>2026-05-02T13:57:13Z</time></trkpt><trkpt lat="44.56820450351502" lon="10.074274300485378"><ele>782.6</ele><time>2026-05-02T13:57:15Z</time></trkpt><trkpt lat="44.568314066025906" lon="10.074287495298545"><ele>774.4</ele><time>2026-05-02T13:57:17Z</time></trkpt><trkpt lat="44.56841827287786" lon="10.074295353090577"><ele>766.2</ele><time>2026-05-02T13:57:19Z</time></trkpt><trkpt lat="44.5685326789268" lon="10.074286369338788"><ele>758.0</ele><time>2026-05-02T13:57:21Z</time></trkpt><trkpt lat="44.56863528160819" lon="10.074243375476598"><ele>755.6666666666666</ele><time>2026-05-02T13:57:23Z</time></trkpt><trkpt lat="44.56872116537907" lon="10.074195908901316"><ele>753.3333333333333</ele><time>2026-05-02T13:57:25Z</time></trkpt><trkpt lat="44.568782586014834" lon="10.074152053631547"><ele>751.0</ele><time>2026-05-02T13:57:26Z</time></trkpt><trkpt lat="44.568842795694685" lon="10.074096174598731"><ele>748.6666666666666</ele><time>2026-05-02T13:57:27Z</time></trkpt><trkpt lat="44.56888606988634" lon="10.074000955948687"><ele>746.3333333333334</ele><time>2026-05-02T13:57:28Z</time></trkpt><trkpt lat="44.56893723872045" lon="10.073934512821012"><ele>744.0</ele><time>2026-05-02T13:57:29Z</time></trkpt><trkpt lat="44.56904850869563" lon="10.073879199724388"><ele>748.4285714285714</ele><time>2026-05-02T13:57:31Z</time></trkpt><trkpt lat="44.5691100083531" lon="10.073843062337934"><ele>752.8571428571429</ele><time>2026-05-02T13:57:32Z</time></trkpt><trkpt lat="44.56918799800793" lon="10.07383384465757"><ele>757.2857142857142</ele><time>2026-05-02T13:57:33Z</time></trkpt><trkpt lat="44.569246528672934" lon="10.073794376767976"><ele>761.7142857142858</ele><time>2026-05-02T13:57:34Z</time></trkpt><trkpt lat="44.569310956814846" lon="10.073801186153572"><ele>766.1428571428571</ele><time>2026-05-02T13:57:35Z</time></trkpt><trkpt lat="44.56937864063853" lon="10.073795178920253"><ele>770.5714285714286</ele><time>2026-05-02T13:57:36Z</time></trkpt><trkpt lat="44.569445722792054" lon="10.07379309885481"><ele>775.0</ele><time>2026-05-02T13:57:37Z</time></trkpt><trkpt lat="44.569518650037026" lon="10.073784306196258"><ele>773.3333333333333</ele><time>2026-05-02T13:57:38Z</time></trkpt><trkpt lat="44.569588359351656" lon="10.073755544661466"><ele>771.6666666666666</ele><time>2026-05-02T13:57:39Z</time></trkpt><trkpt lat="44.569703597886836" lon="10.073701776574998"><ele>770.0</ele><time>2026-05-02T13:57:41Z</time></trkpt><trkpt lat="44.569782899628876" lon="10.073655272423169"><ele>768.3333333333333</ele><time>2026-05-02T13:57:42Z</time></trkpt><trkpt lat="44.56985103879773" lon="10.073637553760745"><ele>766.6666666666666</ele><time>2026-05-02T13:57:43Z</time></trkpt><trkpt lat="44.56991737106745" lon="10.073620267109956"><ele>765.0</ele><time>2026-05-02T13:57:44Z</time></trkpt><trkpt lat="44.570012260696984" lon="10.073621047430695"><ele>765.0</ele><time>2026-05-02T13:57:46Z</time></trkpt><trkpt lat="44.57013332570275" lon="10.07367736150133"><ele>765.0</ele><time>2026-05-02T13:57:48Z</time></trkpt><trkpt lat="44.570171097190105" lon="10.073766565794726"><ele>765.0</ele><time>2026-05-02T13:57:49Z</time></trkpt><trkpt lat="44.570206947312705" lon="10.073845568787982"><ele>765.0</ele><time>2026-05-02T13:57:50Z</time></trkpt><trkpt lat="44.57025030345849" lon="10.073946425501262"><ele>765.0</ele><time>2026-05-02T13:57:51Z</time></trkpt><trkpt lat="44.57030714950729" lon="10.07403493714365"><ele>765.0</ele><time>2026-05-02T13:57:52Z</time></trkpt><trkpt lat="44.57034914304902" lon="10.074112514259232"><ele>759.1666666666666</ele><time>2026-05-02T13:57:53Z</time></trkpt><trkpt lat="44.570403097357094" lon="10.074183398345022"><ele>753.3333333333334</ele><time>2026-05-02T13:57:54Z</time></trkpt><trkpt lat="44.57053270288044" lon="10.074272038383086"><ele>747.5</ele><time>2026-05-02T13:57:56Z</time></trkpt><trkpt lat="44.570597214186" lon="10.074318821147568"><ele>741.6666666666667</ele><time>2026-05-02T13:57:57Z</time></trkpt><trkpt lat="44.570667069485495" lon="10.074323132213797"><ele>735.8333333333334</ele><time>2026-05-02T13:57:58Z</time></trkpt><trkpt lat="44.57073634469807" lon="10.074317089231076"><ele>730.0</ele><time>2026-05-02T13:57:59Z</time></trkpt><trkpt lat="44.570817319183206" lon="10.074292460716865"><ele>730.0000000000001</ele><time>2026-05-02T13:58:00Z</time></trkpt><trkpt lat="44.57088515414388" lon="10.074262043918067"><ele>730.0</ele><time>2026-05-02T13:58:01Z</time></trkpt><trkpt lat="44.57095388881917" lon="10.074230112065456"><ele>730.0</ele><time>2026-05-02T13:58:02Z</time></trkpt><trkpt lat="44.57102305963883" lon="10.074198801732654"><ele>730.0</ele><time>2026-05-02T13:58:03Z</time></trkpt><trkpt lat="44.571080322486765" lon="10.074142542647316"><ele>730.0</ele><time>2026-05-02T13:58:04Z</time></trkpt><trkpt lat="44.57114452197425" lon="10.074120153565005"><ele>730.0000000000001</ele><time>2026-05-02T13:58:04.999Z</time></trkpt><trkpt lat="44.57121753908928" lon="10.074086782800414"><ele>730.0</ele><time>2026-05-02T13:58:05.999Z</time></trkpt><trkpt lat="44.571299865196885" lon="10.07405039414417"><ele>733.6666666666667</ele><time>2026-05-02T13:58:06.999Z</time></trkpt><trkpt lat="44.571360611210935" lon="10.074015359511"><ele>737.3333333333334</ele><time>2026-05-02T13:58:07.999Z</time></trkpt><trkpt lat="44.57143883456314" lon="10.074021654610483"><ele>741.0</ele><time>2026-05-02T13:58:08.999Z</time></trkpt><trkpt lat="44.57152219972749" lon="10.074029272580676"><ele>744.6666666666666</ele><time>2026-05-02T13:58:09.999Z</time></trkpt><trkpt lat="44.57160108873818" lon="10.074028240971046"><ele>748.3333333333333</ele><time>2026-05-02T13:58:10.999Z</time></trkpt><trkpt lat="44.571682044650544" lon="10.074049966760994"><ele>752.0</ele><time>2026-05-02T13:58:11.999Z</time></trkpt><trkpt lat="44.57176131756684" lon="10.074083573914933"><ele>752.0</ele><time>2026-05-02T13:58:12.999Z</time></trkpt><trkpt lat="44.571829295370314" lon="10.074103656127088"><ele>752.0</ele><time>2026-05-02T13:58:13.999Z</time></trkpt><trkpt lat="44.57189775298586" lon="10.0741371616497"><ele>752.0</ele><time>2026-05-02T13:58:14.999Z</time></trkpt><trkpt lat="44.57196898504929" lon="10.074166114353021"><ele>752.0</ele><time>2026-05-02T13:58:15.999Z</time></trkpt><trkpt lat="44.57204018949407" lon="10.074178393374252"><ele>752.0</ele><time>2026-05-02T13:58:16.999Z</time></trkpt><trkpt lat="44.57210997912052" lon="10.074202412511193"><ele>752.0</ele><time>2026-05-02T13:58:17.999Z</time></trkpt><trkpt lat="44.57218437284049" lon="10.074173917453312"><ele>752.0</ele><time>2026-05-02T13:58:18.999Z</time></trkpt><trkpt lat="44.572269327120104" lon="10.074173080363169"><ele>749.6666666666666</ele><time>2026-05-02T13:58:19.999Z</time></trkpt><trkpt lat="44.57234970207734" lon="10.07413635644609"><ele>747.3333333333333</ele><time>2026-05-02T13:58:20.999Z</time></trkpt><trkpt lat="44.572426658689274" lon="10.074096850207455"><ele>745.0</ele><time>2026-05-02T13:58:21.999Z</time></trkpt><trkpt lat="44.57249166318498" lon="10.07406606839938"><ele>742.6666666666666</ele><time>2026-05-02T13:58:22.999Z</time></trkpt><trkpt lat="44.572568906870835" lon="10.074039272792149"><ele>740.3333333333334</ele><time>2026-05-02T13:58:23.999Z</time></trkpt><trkpt lat="44.57264293010879" lon="10.074020979058922"><ele>738.0</ele><time>2026-05-02T13:58:24.999Z</time></trkpt><trkpt lat="44.57271946950569" lon="10.074006012525793"><ele>738.0</ele><time>2026-05-02T13:58:25.999Z</time></trkpt><trkpt lat="44.57279327185717" lon="10.073986633496421"><ele>738.0</ele><time>2026-05-02T13:58:26.999Z</time></trkpt><trkpt lat="44.572865996003884" lon="10.073986150666359"><ele>738.0</ele><time>2026-05-02T13:58:27.999Z</time></trkpt><trkpt lat="44.57294513588768" lon="10.073973399781694"><ele>738.0</ele><time>2026-05-02T13:58:28.999Z</time></trkpt><trkpt lat="44.57302162131798" lon="10.07397113863562"><ele>738.0</ele><time>2026-05-02T13:58:29.999Z</time></trkpt><trkpt lat="44.573096580336134" lon="10.073985958241073"><ele>738.0</ele><time>2026-05-02T13:58:30.999Z</time></trkpt><trkpt lat="44.57317290345868" lon="10.074000551321559"><ele>734.3333333333334</ele><time>2026-05-02T13:58:31.999Z</time></trkpt><trkpt lat="44.573242162968846" lon="10.074017082658461"><ele>730.6666666666666</ele><time>2026-05-02T13:58:32.999Z</time></trkpt><trkpt lat="44.57330595176408" lon="10.074016198057922"><ele>727.0</ele><time>2026-05-02T13:58:33.999Z</time></trkpt><trkpt lat="44.573393248379766" lon="10.074071358954571"><ele>723.3333333333333</ele><time>2026-05-02T13:58:35.999Z</time></trkpt><trkpt lat="44.57346747592032" lon="10.074115202556193"><ele>719.6666666666666</ele><time>2026-05-02T13:59:12Z</time></trkpt><trkpt lat="44.57352303852723" lon="10.074025436015868"><ele>716.0</ele><time>2026-05-02T13:59:13Z</time></trkpt><trkpt lat="44.57356364103836" lon="10.073954399479383"><ele>716.0</ele><time>2026-05-02T13:59:14Z</time></trkpt><trkpt lat="44.573622888262754" lon="10.07387249010722"><ele>716.0</ele><time>2026-05-02T13:59:15Z</time></trkpt><trkpt lat="44.57369307616755" lon="10.073790268544656"><ele>716.0</ele><time>2026-05-02T13:59:16Z</time></trkpt><trkpt lat="44.57376985283237" lon="10.073699047355504"><ele>716.0</ele><time>2026-05-02T13:59:17Z</time></trkpt><trkpt lat="44.573872792065394" lon="10.073586401608026"><ele>716.0</ele><time>2026-05-02T13:59:18Z</time></trkpt><trkpt lat="44.57397848956477" lon="10.073485293529282"><ele>714.75</ele><time>2026-05-02T13:59:19Z</time></trkpt><trkpt lat="44.57407619134139" lon="10.073382614147533"><ele>713.5</ele><time>2026-05-02T13:59:20Z</time></trkpt><trkpt lat="44.57415688938913" lon="10.073284622140806"><ele>712.25</ele><time>2026-05-02T13:59:21Z</time></trkpt><trkpt lat="44.574219821458165" lon="10.073168434341794"><ele>711.0</ele><time>2026-05-02T13:59:22Z</time></trkpt><trkpt lat="44.57427703668677" lon="10.073022691315904"><ele>711.0</ele><time>2026-05-02T13:59:23Z</time></trkpt><trkpt lat="44.57431547200671" lon="10.072837696558354"><ele>711.0</ele><time>2026-05-02T13:59:24Z</time></trkpt><trkpt lat="44.57435936637376" lon="10.072627393055814"><ele>711.0</ele><time>2026-05-02T13:59:25Z</time></trkpt><trkpt lat="44.57442251680919" lon="10.072407343911891"><ele>713.0</ele><time>2026-05-02T13:59:26Z</time></trkpt><trkpt lat="44.57448203641472" lon="10.072214670624184"><ele>715.0</ele><time>2026-05-02T13:59:27Z</time></trkpt><trkpt lat="44.57453216093236" lon="10.07204147563651"><ele>717.0</ele><time>2026-05-02T13:59:28Z</time></trkpt><trkpt lat="44.57458762366927" lon="10.07187049443761"><ele>719.0</ele><time>2026-05-02T13:59:29Z</time></trkpt><trkpt lat="44.574667212734454" lon="10.071688225783403"><ele>714.6666666666666</ele><time>2026-05-02T13:59:30Z</time></trkpt><trkpt lat="44.574761669132215" lon="10.071512815162146"><ele>710.3333333333334</ele><time>2026-05-02T13:59:31Z</time></trkpt><trkpt lat="44.5748659031033" lon="10.071347659975554"><ele>706.0</ele><time>2026-05-02T13:59:32Z</time></trkpt><trkpt lat="44.57496308822537" lon="10.071197239738245"><ele>706.0</ele><time>2026-05-02T13:59:33Z</time></trkpt><trkpt lat="44.575041523660595" lon="10.071064446481145"><ele>706.0</ele><time>2026-05-02T13:59:34Z</time></trkpt><trkpt lat="44.5751225092413" lon="10.07093471440858"><ele>706.0</ele><time>2026-05-02T13:59:35Z</time></trkpt><trkpt lat="44.57520890846814" lon="10.070797076968185"><ele>706.0</ele><time>2026-05-02T13:59:36Z</time></trkpt><trkpt lat="44.57530077493542" lon="10.07065074146259"><ele>708.3333333333334</ele><time>2026-05-02T13:59:37Z</time></trkpt><trkpt lat="44.575406814005134" lon="10.07051062777839"><ele>710.6666666666666</ele><time>2026-05-02T13:59:38Z</time></trkpt><trkpt lat="44.57554847562397" lon="10.070426718065583"><ele>713.0</ele><time>2026-05-02T13:59:39Z</time></trkpt><trkpt lat="44.57568411249488" lon="10.070309984714054"><ele>713.0</ele><time>2026-05-02T13:59:40Z</time></trkpt><trkpt lat="44.575821224364965" lon="10.070203527957865"><ele>713.0</ele><time>2026-05-02T13:59:41Z</time></trkpt><trkpt lat="44.57595893196328" lon="10.070100819554307"><ele>713.0</ele><time>2026-05-02T13:59:42Z</time></trkpt><trkpt lat="44.5761003369579" lon="10.070070860269828"><ele>710.75</ele><time>2026-05-02T13:59:43Z</time></trkpt><trkpt lat="44.57622809770127" lon="10.070104977823894"><ele>708.5</ele><time>2026-05-02T13:59:44Z</time></trkpt><trkpt lat="44.57636599089026" lon="10.070128832583515"><ele>706.25</ele><time>2026-05-02T13:59:45Z</time></trkpt><trkpt lat="44.57648679010037" lon="10.070159963783412"><ele>704.0</ele><time>2026-05-02T13:59:46Z</time></trkpt><trkpt lat="44.576592160398754" lon="10.070117625010298"><ele>704.0</ele><time>2026-05-02T13:59:47Z</time></trkpt><trkpt lat="44.57670222544177" lon="10.070005279315536"><ele>704.0</ele><time>2026-05-02T13:59:48Z</time></trkpt><trkpt lat="44.576828809783635" lon="10.069832070780963"><ele>704.0</ele><time>2026-05-02T13:59:49Z</time></trkpt><trkpt lat="44.5769333461722" lon="10.06961495050182"><ele>704.0</ele><time>2026-05-02T13:59:50Z</time></trkpt><trkpt lat="44.57702095147925" lon="10.069377628039884"><ele>704.0</ele><time>2026-05-02T13:59:51Z</time></trkpt><trkpt lat="44.57711940734053" lon="10.069137255639308"><ele>704.0</ele><time>2026-05-02T13:59:52Z</time></trkpt><trkpt lat="44.57721116092854" lon="10.068922224286316"><ele>704.0</ele><time>2026-05-02T13:59:53Z</time></trkpt><trkpt lat="44.577287729501506" lon="10.068738402601241"><ele>704.0</ele><time>2026-05-02T13:59:54Z</time></trkpt><trkpt lat="44.5773383665877" lon="10.068572562198195"><ele>704.0</ele><time>2026-05-02T13:59:55Z</time></trkpt><trkpt lat="44.577362692584416" lon="10.068372864493703"><ele>704.0</ele><time>2026-05-02T13:59:56Z</time></trkpt><trkpt lat="44.57736881398943" lon="10.068157690630002"><ele>707.0</ele><time>2026-05-02T13:59:57Z</time></trkpt><trkpt lat="44.577419402881326" lon="10.067924723269943"><ele>710.0</ele><time>2026-05-02T13:59:58Z</time></trkpt><trkpt lat="44.57749448149097" lon="10.067698836476119"><ele>713.0</ele><time>2026-05-02T13:59:59Z</time></trkpt><trkpt lat="44.5775540205036" lon="10.067475478057382"><ele>715.5</ele><time>2026-05-02T14:00:00Z</time></trkpt><trkpt lat="44.577601247118885" lon="10.067274864316094"><ele>718.0</ele><time>2026-05-02T14:00:01Z</time></trkpt><trkpt lat="44.577653002266494" lon="10.067131248659026"><ele>720.5</ele><time>2026-05-02T14:00:02Z</time></trkpt><trkpt lat="44.57773470252404" lon="10.067021621454256"><ele>723.0</ele><time>2026-05-02T14:00:03Z</time></trkpt><trkpt lat="44.57786292433537" lon="10.066974432121537"><ele>723.0</ele><time>2026-05-02T14:00:04Z</time></trkpt><trkpt lat="44.57802028228241" lon="10.066937763776068"><ele>723.0</ele><time>2026-05-02T14:00:05Z</time></trkpt><trkpt lat="44.57819954188088" lon="10.066908390540192"><ele>723.0</ele><time>2026-05-02T14:00:06Z</time></trkpt><trkpt lat="44.57835283696646" lon="10.066915083807329"><ele>723.0</ele><time>2026-05-02T14:00:07Z</time></trkpt><trkpt lat="44.57849644576488" lon="10.066970563553772"><ele>723.0</ele><time>2026-05-02T14:00:08Z</time></trkpt><trkpt lat="44.57859952102077" lon="10.06699293138814"><ele>723.0</ele><time>2026-05-02T14:00:09Z</time></trkpt><trkpt lat="44.578679882201364" lon="10.067006335571017"><ele>723.0</ele><time>2026-05-02T14:00:10Z</time></trkpt><trkpt lat="44.57876257428321" lon="10.066963768650837"><ele>723.0</ele><time>2026-05-02T14:00:11Z</time></trkpt><trkpt lat="44.57883691869411" lon="10.066840155490805"><ele>723.0</ele><time>2026-05-02T14:00:12Z</time></trkpt><trkpt lat="44.57889261257952" lon="10.06665857357553"><ele>723.0</ele><time>2026-05-02T14:00:12.999Z</time></trkpt><trkpt lat="44.578945224263" lon="10.066450931678233"><ele>723.0</ele><time>2026-05-02T14:00:13.999Z</time></trkpt><trkpt lat="44.57903281615832" lon="10.066236962764888"><ele>723.0</ele><time>2026-05-02T14:00:14.999Z</time></trkpt><trkpt lat="44.57914292161469" lon="10.066034681849978"><ele>723.0</ele><time>2026-05-02T14:00:15.999Z</time></trkpt><trkpt lat="44.579248328894295" lon="10.065840674288662"><ele>723.0</ele><time>2026-05-02T14:00:16.999Z</time></trkpt><trkpt lat="44.57934092191199" lon="10.065635914411855"><ele>727.5</ele><time>2026-05-02T14:00:17.999Z</time></trkpt><trkpt lat="44.579418994064696" lon="10.065439839987697"><ele>732.0</ele><time>2026-05-02T14:00:18.999Z</time></trkpt><trkpt lat="44.57947720651762" lon="10.065276200829224"><ele>736.5</ele><time>2026-05-02T14:00:19.999Z</time></trkpt><trkpt lat="44.579546778367515" lon="10.065123946487033"><ele>741.0</ele><time>2026-05-02T14:00:20.999Z</time></trkpt><trkpt lat="44.57961273713595" lon="10.064969349945457"><ele>740.75</ele><time>2026-05-02T14:00:21.999Z</time></trkpt><trkpt lat="44.579647993271635" lon="10.064849405210126"><ele>740.5</ele><time>2026-05-02T14:00:22.999Z</time></trkpt><trkpt lat="44.57963000818728" lon="10.06471497134139"><ele>740.25</ele><time>2026-05-02T14:00:23.999Z</time></trkpt><trkpt lat="44.57955998220635" lon="10.064557001743385"><ele>740.0</ele><time>2026-05-02T14:00:24.999Z</time></trkpt><trkpt lat="44.57946548870251" lon="10.064379621646408"><ele>740.0</ele><time>2026-05-02T14:00:25.999Z</time></trkpt><trkpt lat="44.57938534555322" lon="10.06418990755392"><ele>740.0</ele><time>2026-05-02T14:00:26.999Z</time></trkpt><trkpt lat="44.57937932990067" lon="10.063998398812615"><ele>740.0</ele><time>2026-05-02T14:00:27.999Z</time></trkpt><trkpt lat="44.57937461643448" lon="10.063817285258617"><ele>740.0</ele><time>2026-05-02T14:00:28.999Z</time></trkpt><trkpt lat="44.57937764850973" lon="10.063663053993174"><ele>735.0</ele><time>2026-05-02T14:00:29.999Z</time></trkpt><trkpt lat="44.5793268747495" lon="10.06354063202307"><ele>730.0</ele><time>2026-05-02T14:00:30.999Z</time></trkpt><trkpt lat="44.579230079239984" lon="10.063393404270977"><ele>725.0</ele><time>2026-05-02T14:00:31.999Z</time></trkpt><trkpt lat="44.57907950193387" lon="10.063273401209573"><ele>720.0</ele><time>2026-05-02T14:00:32.999Z</time></trkpt><trkpt lat="44.5789434402058" lon="10.063122245093835"><ele>716.0</ele><time>2026-05-02T14:00:33.999Z</time></trkpt><trkpt lat="44.57883905189495" lon="10.062956067807777"><ele>712.0</ele><time>2026-05-02T14:00:34.999Z</time></trkpt><trkpt lat="44.5787533158529" lon="10.062806798080874"><ele>708.0</ele><time>2026-05-02T14:00:35.999Z</time></trkpt><trkpt lat="44.57870178263387" lon="10.06262423368352"><ele>704.0</ele><time>2026-05-02T14:00:36.999Z</time></trkpt><trkpt lat="44.57867429497411" lon="10.062417419296946"><ele>701.6666666666666</ele><time>2026-05-02T14:00:37.999Z</time></trkpt><trkpt lat="44.578683142253254" lon="10.062176417492639"><ele>699.3333333333334</ele><time>2026-05-02T14:00:38.999Z</time></trkpt><trkpt lat="44.57869129484821" lon="10.06194399117687"><ele>697.0</ele><time>2026-05-02T14:00:39.999Z</time></trkpt><trkpt lat="44.57866743321814" lon="10.061708555026614"><ele>706.6666666666667</ele><time>2026-05-02T14:00:40.999Z</time></trkpt><trkpt lat="44.57861216016109" lon="10.061478655531516"><ele>716.3333333333334</ele><time>2026-05-02T14:00:41.999Z</time></trkpt><trkpt lat="44.57853300312617" lon="10.061253833847964"><ele>726.0</ele><time>2026-05-02T14:00:42.999Z</time></trkpt><trkpt lat="44.57843173490747" lon="10.06102636049386"><ele>726.0</ele><time>2026-05-02T14:00:43.999Z</time></trkpt><trkpt lat="44.57833325608623" lon="10.06081225392036"><ele>726.0</ele><time>2026-05-02T14:00:44.999Z</time></trkpt><trkpt lat="44.578240478973925" lon="10.06061176160611"><ele>726.0</ele><time>2026-05-02T14:00:45.999Z</time></trkpt><trkpt lat="44.57815267788333" lon="10.060421029923205"><ele>724.0</ele><time>2026-05-02T14:00:46.999Z</time></trkpt><trkpt lat="44.57806777461266" lon="10.060239503872113"><ele>722.0</ele><time>2026-05-02T14:00:47.999Z</time></trkpt><trkpt lat="44.57800925730377" lon="10.060107888141587"><ele>720.0</ele><time>2026-05-02T14:00:48.999Z</time></trkpt><trkpt lat="44.577926971096" lon="10.060016116967956"><ele>718.0</ele><time>2026-05-02T14:00:49.999Z</time></trkpt><trkpt lat="44.57782337688099" lon="10.059997831397228"><ele>718.0</ele><time>2026-05-02T14:00:50.999Z</time></trkpt><trkpt lat="44.57768383120443" lon="10.05998891461715"><ele>718.0</ele><time>2026-05-02T14:00:51.999Z</time></trkpt><trkpt lat="44.577480625832806" lon="10.060086228388311"><ele>718.0</ele><time>2026-05-02T14:00:52.999Z</time></trkpt><trkpt lat="44.57735395013279" lon="10.060182674906594"><ele>718.0</ele><time>2026-05-02T14:00:53.999Z</time></trkpt><trkpt lat="44.57723946888336" lon="10.06025221678363"><ele>718.0</ele><time>2026-05-02T14:00:54.999Z</time></trkpt><trkpt lat="44.57710853298015" lon="10.060295629517858"><ele>718.0</ele><time>2026-05-02T14:00:55.999Z</time></trkpt><trkpt lat="44.57698488160078" lon="10.060375871793832"><ele>718.0</ele><time>2026-05-02T14:00:56.999Z</time></trkpt><trkpt lat="44.576847192257944" lon="10.060389764594705"><ele>718.75</ele><time>2026-05-02T14:00:57.999Z</time></trkpt><trkpt lat="44.57671985513004" lon="10.060428341821824"><ele>719.5</ele><time>2026-05-02T14:00:58.999Z</time></trkpt><trkpt lat="44.57659196161985" lon="10.060421145235138"><ele>720.25</ele><time>2026-05-02T14:00:59.999Z</time></trkpt><trkpt lat="44.57644340576623" lon="10.060375305634237"><ele>721.0</ele><time>2026-05-02T14:01:00.999Z</time></trkpt><trkpt lat="44.5763390415351" lon="10.06025475731438"><ele>721.0</ele><time>2026-05-02T14:01:01.999Z</time></trkpt><trkpt lat="44.57627586394717" lon="10.060179717483319"><ele>721.0</ele><time>2026-05-02T14:01:02.999Z</time></trkpt><trkpt lat="44.57619445109046" lon="10.060024421998449"><ele>721.0</ele><time>2026-05-02T14:01:03.999Z</time></trkpt><trkpt lat="44.576129504893835" lon="10.059884710643026"><ele>721.0</ele><time>2026-05-02T14:01:04.999Z</time></trkpt><trkpt lat="44.57605643254141" lon="10.059771917027588"><ele>721.0</ele><time>2026-05-02T14:01:06Z</time></trkpt><trkpt lat="44.57594876524039" lon="10.059662811409746"><ele>717.5</ele><time>2026-05-02T14:01:07Z</time></trkpt><trkpt lat="44.5758261441028" lon="10.059625489935263"><ele>714.0</ele><time>2026-05-02T14:01:08Z</time></trkpt><trkpt lat="44.57567611657794" lon="10.0596206876989"><ele>710.5</ele><time>2026-05-02T14:01:09Z</time></trkpt><trkpt lat="44.57551960170352" lon="10.05963485413214"><ele>707.0</ele><time>2026-05-02T14:01:10Z</time></trkpt><trkpt lat="44.575387390273846" lon="10.059656033771914"><ele>714.0</ele><time>2026-05-02T14:01:11Z</time></trkpt><trkpt lat="44.57525289030819" lon="10.059651967992316"><ele>721.0</ele><time>2026-05-02T14:01:12Z</time></trkpt><trkpt lat="44.5750779175771" lon="10.059571644134737"><ele>728.0</ele><time>2026-05-02T14:01:13Z</time></trkpt><trkpt lat="44.57496059914433" lon="10.059466757288565"><ele>728.0</ele><time>2026-05-02T14:01:14Z</time></trkpt><trkpt lat="44.57486110091398" lon="10.05938607178635"><ele>728.0</ele><time>2026-05-02T14:01:15Z</time></trkpt><trkpt lat="44.57474983814615" lon="10.05931657387309"><ele>728.0</ele><time>2026-05-02T14:01:16Z</time></trkpt><trkpt lat="44.574644642016935" lon="10.059219005701582"><ele>728.0</ele><time>2026-05-02T14:01:17Z</time></trkpt><trkpt lat="44.57453382284951" lon="10.059116375296549"><ele>729.6666666666666</ele><time>2026-05-02T14:01:18Z</time></trkpt><trkpt lat="44.574375825522814" lon="10.058967671307691"><ele>731.3333333333334</ele><time>2026-05-02T14:01:19Z</time></trkpt><trkpt lat="44.574273100919136" lon="10.058807965623805"><ele>733.0</ele><time>2026-05-02T14:01:20Z</time></trkpt><trkpt lat="44.57420703206673" lon="10.058678301932172"><ele>733.0</ele><time>2026-05-02T14:01:22Z</time></trkpt><trkpt lat="44.574151519232615" lon="10.05858509813149"><ele>733.0</ele><time>2026-05-02T14:01:23Z</time></trkpt><trkpt lat="44.57411344805225" lon="10.058490653109889"><ele>733.0</ele><time>2026-05-02T14:01:24Z</time></trkpt><trkpt lat="44.57407237561069" lon="10.058398218412973"><ele>733.0</ele><time>2026-05-02T14:01:25Z</time></trkpt><trkpt lat="44.574023316862316" lon="10.058280452246622"><ele>733.0</ele><time>2026-05-02T14:01:26Z</time></trkpt><trkpt lat="44.573966088241875" lon="10.058154948480189"><ele>733.0</ele><time>2026-05-02T14:01:27Z</time></trkpt><trkpt lat="44.57393184185949" lon="10.058003274252481"><ele>733.25</ele><time>2026-05-02T14:01:28Z</time></trkpt><trkpt lat="44.573932479655625" lon="10.05785042404328"><ele>733.5</ele><time>2026-05-02T14:01:29Z</time></trkpt><trkpt lat="44.573972401465" lon="10.057692715592179"><ele>733.75</ele><time>2026-05-02T14:01:30Z</time></trkpt><trkpt lat="44.574038195442434" lon="10.057511539971513"><ele>734.0</ele><time>2026-05-02T14:01:31Z</time></trkpt><trkpt lat="44.57409422003095" lon="10.057313675588894"><ele>734.25</ele><time>2026-05-02T14:01:32Z</time></trkpt><trkpt lat="44.574157933698814" lon="10.057143597431502"><ele>734.5</ele><time>2026-05-02T14:01:33Z</time></trkpt><trkpt lat="44.57420048638465" lon="10.05699052438493"><ele>734.75</ele><time>2026-05-02T14:01:34Z</time></trkpt><trkpt lat="44.574213548543405" lon="10.056823238857415"><ele>735.0</ele><time>2026-05-02T14:01:35Z</time></trkpt><trkpt lat="44.574166066574435" lon="10.056636248464986"><ele>732.0</ele><time>2026-05-02T14:01:36Z</time></trkpt><trkpt lat="44.574075078182304" lon="10.05645271993026"><ele>729.0</ele><time>2026-05-02T14:01:37Z</time></trkpt><trkpt lat="44.57399851933725" lon="10.056237269154726"><ele>726.0</ele><time>2026-05-02T14:01:38Z</time></trkpt><trkpt lat="44.57395786221231" lon="10.056003312311415"><ele>726.0</ele><time>2026-05-02T14:01:39Z</time></trkpt><trkpt lat="44.573909024514265" lon="10.055801676075808"><ele>726.0</ele><time>2026-05-02T14:01:40Z</time></trkpt><trkpt lat="44.573823716364224" lon="10.055617647017266"><ele>726.0</ele><time>2026-05-02T14:01:41Z</time></trkpt><trkpt lat="44.573737724034906" lon="10.055476007345305"><ele>726.0</ele><time>2026-05-02T14:01:42Z</time></trkpt><trkpt lat="44.57363576905077" lon="10.055375528939189"><ele>724.0</ele><time>2026-05-02T14:01:43Z</time></trkpt><trkpt lat="44.573481349488034" lon="10.05535704863101"><ele>722.0</ele><time>2026-05-02T14:01:44Z</time></trkpt><trkpt lat="44.57330861206878" lon="10.055365562622056"><ele>720.0</ele><time>2026-05-02T14:01:45Z</time></trkpt><trkpt lat="44.57311028371547" lon="10.055367717128945"><ele>720.0</ele><time>2026-05-02T14:01:46Z</time></trkpt><trkpt lat="44.57293282648885" lon="10.055356718651298"><ele>720.0</ele><time>2026-05-02T14:01:47Z</time></trkpt><trkpt lat="44.57277383422046" lon="10.055356427222897"><ele>720.0</ele><time>2026-05-02T14:01:48Z</time></trkpt><trkpt lat="44.572634244746105" lon="10.055376209233932"><ele>718.5</ele><time>2026-05-02T14:01:49Z</time></trkpt><trkpt lat="44.5724961177467" lon="10.055417242508542"><ele>717.0</ele><time>2026-05-02T14:01:50Z</time></trkpt><trkpt lat="44.572364547934775" lon="10.055469975763724"><ele>715.5</ele><time>2026-05-02T14:01:51Z</time></trkpt><trkpt lat="44.572222764371865" lon="10.055518974385917"><ele>714.0</ele><time>2026-05-02T14:01:52Z</time></trkpt><trkpt lat="44.572071487353476" lon="10.055568366595862"><ele>712.3333333333334</ele><time>2026-05-02T14:01:53Z</time></trkpt><trkpt lat="44.57191540595894" lon="10.055608423570304"><ele>710.6666666666667</ele><time>2026-05-02T14:01:54Z</time></trkpt><trkpt lat="44.5717529136151" lon="10.055626977086506"><ele>709.0</ele><time>2026-05-02T14:01:55Z</time></trkpt><trkpt lat="44.57157944826102" lon="10.055635627334043"><ele>709.0</ele><time>2026-05-02T14:01:56Z</time></trkpt><trkpt lat="44.57140790900039" lon="10.05565356837026"><ele>709.0</ele><time>2026-05-02T14:01:57Z</time></trkpt><trkpt lat="44.57123770984052" lon="10.055693529724001"><ele>709.0</ele><time>2026-05-02T14:01:58Z</time></trkpt><trkpt lat="44.571064025218696" lon="10.055742495880832"><ele>709.3333333333334</ele><time>2026-05-02T14:01:59Z</time></trkpt><trkpt lat="44.57089278112757" lon="10.055740818378725"><ele>709.6666666666666</ele><time>2026-05-02T14:02:00Z</time></trkpt><trkpt lat="44.57072254334672" lon="10.0557318515088"><ele>710.0</ele><time>2026-05-02T14:02:01Z</time></trkpt><trkpt lat="44.57055642613082" lon="10.055733407319334"><ele>710.0</ele><time>2026-05-02T14:02:02Z</time></trkpt><trkpt lat="44.57039136018266" lon="10.055669435853597"><ele>710.0</ele><time>2026-05-02T14:02:03Z</time></trkpt><trkpt lat="44.57022889453783" lon="10.055591950403269"><ele>710.0</ele><time>2026-05-02T14:02:04Z</time></trkpt><trkpt lat="44.57007247827913" lon="10.055512594038596"><ele>714.25</ele><time>2026-05-02T14:02:05Z</time></trkpt><trkpt lat="44.569955688483184" lon="10.055384544003097"><ele>718.5</ele><time>2026-05-02T14:02:06Z</time></trkpt><trkpt lat="44.569844254840355" lon="10.055247964600383"><ele>722.75</ele><time>2026-05-02T14:02:07Z</time></trkpt><trkpt lat="44.569731761292964" lon="10.05516096152643"><ele>727.0</ele><time>2026-05-02T14:02:08Z</time></trkpt><trkpt lat="44.56960269431961" lon="10.055122256944117"><ele>731.0</ele><time>2026-05-02T14:02:09Z</time></trkpt><trkpt lat="44.56944345357262" lon="10.055144381943938"><ele>735.0</ele><time>2026-05-02T14:02:10Z</time></trkpt><trkpt lat="44.56926623615413" lon="10.055202650683437"><ele>739.0</ele><time>2026-05-02T14:02:11Z</time></trkpt><trkpt lat="44.569072455601884" lon="10.055255894294556"><ele>739.0</ele><time>2026-05-02T14:02:12Z</time></trkpt><trkpt lat="44.56888372236278" lon="10.055270755415993"><ele>739.0</ele><time>2026-05-02T14:02:13Z</time></trkpt><trkpt lat="44.568700352240526" lon="10.05526449383335"><ele>739.0</ele><time>2026-05-02T14:02:14Z</time></trkpt><trkpt lat="44.568526820686834" lon="10.05525515123653"><ele>739.5</ele><time>2026-05-02T14:02:14.999Z</time></trkpt><trkpt lat="44.56836837642448" lon="10.055238531401262"><ele>740.0</ele><time>2026-05-02T14:02:15.999Z</time></trkpt><trkpt lat="44.568246561796066" lon="10.055210775830522"><ele>740.5</ele><time>2026-05-02T14:02:16.999Z</time></trkpt><trkpt lat="44.56815841470696" lon="10.05515429168645"><ele>741.0</ele><time>2026-05-02T14:02:17.999Z</time></trkpt><trkpt lat="44.56807311474446" lon="10.055058510636496"><ele>740.25</ele><time>2026-05-02T14:02:18.999Z</time></trkpt><trkpt lat="44.56798808178962" lon="10.054926010882582"><ele>739.5</ele><time>2026-05-02T14:02:19.999Z</time></trkpt><trkpt lat="44.56790181541245" lon="10.054784759007163"><ele>738.75</ele><time>2026-05-02T14:02:20.999Z</time></trkpt><trkpt lat="44.56782861408119" lon="10.054625726494166"><ele>738.0</ele><time>2026-05-02T14:02:21.999Z</time></trkpt><trkpt lat="44.56775160716082" lon="10.054467791126182"><ele>738.0</ele><time>2026-05-02T14:02:22.999Z</time></trkpt><trkpt lat="44.567649754528645" lon="10.054335901845802"><ele>738.0</ele><time>2026-05-02T14:02:23.999Z</time></trkpt><trkpt lat="44.56751530327365" lon="10.05423561401628"><ele>738.0</ele><time>2026-05-02T14:02:24.999Z</time></trkpt><trkpt lat="44.56736893965323" lon="10.054152830826467"><ele>738.0</ele><time>2026-05-02T14:02:25.999Z</time></trkpt><trkpt lat="44.56720659831972" lon="10.05405935084555"><ele>736.6666666666666</ele><time>2026-05-02T14:02:26.999Z</time></trkpt><trkpt lat="44.56704971097506" lon="10.053957337286306"><ele>735.3333333333333</ele><time>2026-05-02T14:02:27.999Z</time></trkpt><trkpt lat="44.56688293028562" lon="10.053813609401823"><ele>734.0</ele><time>2026-05-02T14:02:28.999Z</time></trkpt><trkpt lat="44.56678298529208" lon="10.053620589559202"><ele>737.25</ele><time>2026-05-02T14:02:29.999Z</time></trkpt><trkpt lat="44.566746947515526" lon="10.05350171234422"><ele>740.5</ele><time>2026-05-02T14:02:30.999Z</time></trkpt><trkpt lat="44.56672457989474" lon="10.053269920487717"><ele>743.75</ele><time>2026-05-02T14:02:31.999Z</time></trkpt><trkpt lat="44.56673166884644" lon="10.053043312040552"><ele>747.0</ele><time>2026-05-02T14:02:32.999Z</time></trkpt><trkpt lat="44.566813130063395" lon="10.052841877195"><ele>748.3333333333334</ele><time>2026-05-02T14:02:33.999Z</time></trkpt><trkpt lat="44.56691413203799" lon="10.052639906869699"><ele>749.6666666666667</ele><time>2026-05-02T14:02:34.999Z</time></trkpt><trkpt lat="44.56702840421416" lon="10.052431567265876"><ele>751.0</ele><time>2026-05-02T14:02:35.999Z</time></trkpt><trkpt lat="44.5671479982358" lon="10.052221183982212"><ele>751.0</ele><time>2026-05-02T14:02:36.999Z</time></trkpt><trkpt lat="44.567250924324966" lon="10.052021264849076"><ele>751.0</ele><time>2026-05-02T14:02:37.999Z</time></trkpt><trkpt lat="44.56735239733988" lon="10.051851523787526"><ele>751.0</ele><time>2026-05-02T14:02:38.999Z</time></trkpt><trkpt lat="44.56743781239541" lon="10.051675642076722"><ele>751.5</ele><time>2026-05-02T14:02:39.999Z</time></trkpt><trkpt lat="44.56747834658248" lon="10.051511091279108"><ele>752.0</ele><time>2026-05-02T14:02:40.999Z</time></trkpt><trkpt lat="44.56747804646079" lon="10.051322306694747"><ele>752.5</ele><time>2026-05-02T14:02:41.999Z</time></trkpt><trkpt lat="44.56743232941249" lon="10.051119001000345"><ele>753.0</ele><time>2026-05-02T14:02:42.999Z</time></trkpt><trkpt lat="44.567332646213025" lon="10.050938702571464"><ele>753.0</ele><time>2026-05-02T14:02:43.999Z</time></trkpt><trkpt lat="44.56722103848701" lon="10.05082427541901"><ele>753.0</ele><time>2026-05-02T14:02:44.999Z</time></trkpt><trkpt lat="44.56708020550736" lon="10.05077618705531"><ele>753.0</ele><time>2026-05-02T14:02:45.999Z</time></trkpt><trkpt lat="44.566841950682466" lon="10.050784202880665"><ele>755.0</ele><time>2026-05-02T14:02:46.999Z</time></trkpt><trkpt lat="44.56664696543017" lon="10.05086293064043"><ele>757.0</ele><time>2026-05-02T14:02:47.999Z</time></trkpt><trkpt lat="44.566470035361775" lon="10.050969235052994"><ele>759.0</ele><time>2026-05-02T14:02:48.999Z</time></trkpt><trkpt lat="44.566299085005305" lon="10.051108251664498"><ele>759.0</ele><time>2026-05-02T14:02:49.999Z</time></trkpt><trkpt lat="44.56613901319265" lon="10.051275570881618"><ele>759.0</ele><time>2026-05-02T14:02:50.999Z</time></trkpt><trkpt lat="44.56599243406555" lon="10.051379830469774"><ele>759.0</ele><time>2026-05-02T14:02:51.999Z</time></trkpt><trkpt lat="44.56585388627852" lon="10.051460943454742"><ele>759.0</ele><time>2026-05-02T14:02:52.999Z</time></trkpt><trkpt lat="44.56572538984905" lon="10.051453659326246"><ele>759.0</ele><time>2026-05-02T14:02:53.999Z</time></trkpt><trkpt lat="44.565616638568365" lon="10.05139546463423"><ele>759.0</ele><time>2026-05-02T14:02:54.999Z</time></trkpt><trkpt lat="44.56550334561117" lon="10.051298275336434"><ele>759.0</ele><time>2026-05-02T14:02:55.999Z</time></trkpt><trkpt lat="44.56545041058174" lon="10.051095175063194"><ele>759.0</ele><time>2026-05-02T14:02:56.999Z</time></trkpt><trkpt lat="44.56543660712145" lon="10.050877559542062"><ele>759.0</ele><time>2026-05-02T14:02:57.999Z</time></trkpt><trkpt lat="44.565454392585" lon="10.05065143597939"><ele>759.0</ele><time>2026-05-02T14:02:58.999Z</time></trkpt><trkpt lat="44.565484003551035" lon="10.050450930463077"><ele>758.0</ele><time>2026-05-02T14:02:59.999Z</time></trkpt><trkpt lat="44.565468146532844" lon="10.050260258984968"><ele>757.0</ele><time>2026-05-02T14:03:00.999Z</time></trkpt><trkpt lat="44.56541808344379" lon="10.05010068083727"><ele>756.0</ele><time>2026-05-02T14:03:01.999Z</time></trkpt><trkpt lat="44.56532286873188" lon="10.049969717863906"><ele>755.0</ele><time>2026-05-02T14:03:02.999Z</time></trkpt><trkpt lat="44.565194283402924" lon="10.049872909442943"><ele>758.3333333333333</ele><time>2026-05-02T14:03:03.999Z</time></trkpt><trkpt lat="44.565050641655574" lon="10.049832283882152"><ele>761.6666666666666</ele><time>2026-05-02T14:03:04.999Z</time></trkpt><trkpt lat="44.56490290133494" lon="10.049869156315369"><ele>765.0</ele><time>2026-05-02T14:03:05.999Z</time></trkpt><trkpt lat="44.56476321041219" lon="10.049979940444599"><ele>766.6666666666667</ele><time>2026-05-02T14:03:06.999Z</time></trkpt><trkpt lat="44.56462083789113" lon="10.050160195373897"><ele>768.3333333333334</ele><time>2026-05-02T14:03:07.999Z</time></trkpt><trkpt lat="44.564464359861816" lon="10.050295713002587"><ele>770.0</ele><time>2026-05-02T14:03:08.999Z</time></trkpt><trkpt lat="44.56431705322449" lon="10.050396741503727"><ele>770.3333333333334</ele><time>2026-05-02T14:03:09.999Z</time></trkpt><trkpt lat="44.56415301240926" lon="10.050455282762275"><ele>770.6666666666667</ele><time>2026-05-02T14:03:10.999Z</time></trkpt><trkpt lat="44.56398691758235" lon="10.050438800646603"><ele>771.0</ele><time>2026-05-02T14:03:12Z</time></trkpt><trkpt lat="44.56381642137733" lon="10.050352587611899"><ele>772.0</ele><time>2026-05-02T14:03:13Z</time></trkpt><trkpt lat="44.56364121579489" lon="10.050208210337958"><ele>773.0</ele><time>2026-05-02T14:03:14Z</time></trkpt><trkpt lat="44.56346017375033" lon="10.050072985624427"><ele>774.0</ele><time>2026-05-02T14:03:15Z</time></trkpt><trkpt lat="44.56329863441329" lon="10.049928780720279"><ele>774.0</ele><time>2026-05-02T14:03:16Z</time></trkpt><trkpt lat="44.56314187935634" lon="10.049800296437517"><ele>774.0</ele><time>2026-05-02T14:03:17Z</time></trkpt><trkpt lat="44.56299824811927" lon="10.049690347357032"><ele>774.0</ele><time>2026-05-02T14:03:18Z</time></trkpt><trkpt lat="44.562874525250635" lon="10.049595417098544"><ele>776.0</ele><time>2026-05-02T14:03:19Z</time></trkpt><trkpt lat="44.562749341405535" lon="10.049497124133588"><ele>778.0</ele><time>2026-05-02T14:03:20Z</time></trkpt><trkpt lat="44.56263345057764" lon="10.04940986339637"><ele>780.0</ele><time>2026-05-02T14:03:21Z</time></trkpt><trkpt lat="44.56251789101386" lon="10.049312210027995"><ele>782.0</ele><time>2026-05-02T14:03:22Z</time></trkpt><trkpt lat="44.562398270710986" lon="10.049197619487629"><ele>781.3333333333334</ele><time>2026-05-02T14:03:23Z</time></trkpt><trkpt lat="44.5623058758787" lon="10.049033410835955"><ele>780.6666666666667</ele><time>2026-05-02T14:03:24Z</time></trkpt><trkpt lat="44.5622762527913" lon="10.048793987324597"><ele>780.0</ele><time>2026-05-02T14:03:25Z</time></trkpt><trkpt lat="44.5622132721987" lon="10.048561463071763"><ele>780.0</ele><time>2026-05-02T14:03:26Z</time></trkpt><trkpt lat="44.56216618378139" lon="10.048308944828712"><ele>780.0</ele><time>2026-05-02T14:03:27Z</time></trkpt><trkpt lat="44.56211227877479" lon="10.04806219306391"><ele>780.0</ele><time>2026-05-02T14:03:28Z</time></trkpt><trkpt lat="44.56205475629147" lon="10.047810238518155"><ele>785.0</ele><time>2026-05-02T14:03:29Z</time></trkpt><trkpt lat="44.56199926009501" lon="10.047563756616091"><ele>790.0</ele><time>2026-05-02T14:03:30Z</time></trkpt><trkpt lat="44.561946436419305" lon="10.047344390058493"><ele>795.0</ele><time>2026-05-02T14:03:31Z</time></trkpt><trkpt lat="44.56185693746765" lon="10.047136863934217"><ele>795.0</ele><time>2026-05-02T14:03:32Z</time></trkpt><trkpt lat="44.56173199516119" lon="10.046939290343358"><ele>795.0</ele><time>2026-05-02T14:03:33Z</time></trkpt><trkpt lat="44.561590989154006" lon="10.046740481718704"><ele>795.0</ele><time>2026-05-02T14:03:34Z</time></trkpt><trkpt lat="44.5615079823356" lon="10.04650554725895"><ele>794.6666666666667</ele><time>2026-05-02T14:03:35Z</time></trkpt><trkpt lat="44.56142801744574" lon="10.046231671667554"><ele>794.3333333333334</ele><time>2026-05-02T14:03:36Z</time></trkpt><trkpt lat="44.561352627683476" lon="10.04592372204475"><ele>794.0</ele><time>2026-05-02T14:03:37Z</time></trkpt><trkpt lat="44.561300103626635" lon="10.045651637190836"><ele>794.0</ele><time>2026-05-02T14:03:38Z</time></trkpt><trkpt lat="44.56127698150229" lon="10.04542241476119"><ele>794.0</ele><time>2026-05-02T14:03:39Z</time></trkpt><trkpt lat="44.561284027015795" lon="10.045170025259951"><ele>794.0</ele><time>2026-05-02T14:03:40Z</time></trkpt><trkpt lat="44.56131753886618" lon="10.044889704245671"><ele>795.6666666666667</ele><time>2026-05-02T14:03:41Z</time></trkpt><trkpt lat="44.56138331906889" lon="10.044607523454996"><ele>797.3333333333333</ele><time>2026-05-02T14:03:42Z</time></trkpt><trkpt lat="44.56145909236973" lon="10.044317829338135"><ele>799.0</ele><time>2026-05-02T14:03:43Z</time></trkpt><trkpt lat="44.561523029427065" lon="10.04402330638071"><ele>800.6666666666666</ele><time>2026-05-02T14:03:44Z</time></trkpt><trkpt lat="44.56158041969053" lon="10.043743813508886"><ele>802.3333333333333</ele><time>2026-05-02T14:03:45Z</time></trkpt><trkpt lat="44.56163946147008" lon="10.043461994013288"><ele>804.0</ele><time>2026-05-02T14:03:46Z</time></trkpt><trkpt lat="44.561700523436485" lon="10.043191566836375"><ele>806.6666666666667</ele><time>2026-05-02T14:03:47Z</time></trkpt><trkpt lat="44.561756316108365" lon="10.042929330890097"><ele>809.3333333333334</ele><time>2026-05-02T14:03:48Z</time></trkpt><trkpt lat="44.56180580190485" lon="10.042693223439764"><ele>812.0</ele><time>2026-05-02T14:03:49Z</time></trkpt><trkpt lat="44.56185073665955" lon="10.042495665220464"><ele>812.75</ele><time>2026-05-02T14:03:50Z</time></trkpt><trkpt lat="44.56189093275594" lon="10.042299186973478"><ele>813.5</ele><time>2026-05-02T14:03:51Z</time></trkpt><trkpt lat="44.56192675601633" lon="10.042120197483447"><ele>814.25</ele><time>2026-05-02T14:03:52Z</time></trkpt><trkpt lat="44.56195176953921" lon="10.041949102054216"><ele>815.0</ele><time>2026-05-02T14:03:53Z</time></trkpt><trkpt lat="44.561942629693924" lon="10.041799596363209"><ele>815.0</ele><time>2026-05-02T14:03:54Z</time></trkpt><trkpt lat="44.561874703967604" lon="10.041668284471866"><ele>815.0</ele><time>2026-05-02T14:03:55Z</time></trkpt><trkpt lat="44.56175632190714" lon="10.041563292291546"><ele>815.0</ele><time>2026-05-02T14:03:56Z</time></trkpt><trkpt lat="44.561589265557174" lon="10.041495057373979"><ele>815.0</ele><time>2026-05-02T14:03:57Z</time></trkpt><trkpt lat="44.56145905521964" lon="10.041352326081743"><ele>812.3333333333334</ele><time>2026-05-02T14:03:58Z</time></trkpt><trkpt lat="44.5613407871472" lon="10.04117071098946"><ele>809.6666666666667</ele><time>2026-05-02T14:03:59Z</time></trkpt><trkpt lat="44.56124385695356" lon="10.040961301164067"><ele>807.0</ele><time>2026-05-02T14:04:00Z</time></trkpt><trkpt lat="44.561178403634806" lon="10.040787384309198"><ele>807.0</ele><time>2026-05-02T14:04:01Z</time></trkpt><trkpt lat="44.56114181868685" lon="10.04061862769761"><ele>807.0</ele><time>2026-05-02T14:04:02Z</time></trkpt><trkpt lat="44.56115664991249" lon="10.040434534740298"><ele>807.0</ele><time>2026-05-02T14:04:03Z</time></trkpt><trkpt lat="44.56120858114619" lon="10.040215735942626"><ele>807.0</ele><time>2026-05-02T14:04:04Z</time></trkpt><trkpt lat="44.56128742168986" lon="10.040002481959942"><ele>807.25</ele><time>2026-05-02T14:04:05Z</time></trkpt><trkpt lat="44.56133005016161" lon="10.039814973615638"><ele>807.5</ele><time>2026-05-02T14:04:06Z</time></trkpt><trkpt lat="44.561344037774056" lon="10.039646442521766"><ele>807.75</ele><time>2026-05-02T14:04:07Z</time></trkpt><trkpt lat="44.56129263510863" lon="10.039477353103823"><ele>808.0</ele><time>2026-05-02T14:04:08Z</time></trkpt><trkpt lat="44.561171887041354" lon="10.039274821707721"><ele>812.3333333333333</ele><time>2026-05-02T14:04:09Z</time></trkpt><trkpt lat="44.561037943882816" lon="10.039053822997486"><ele>816.6666666666667</ele><time>2026-05-02T14:04:10Z</time></trkpt><trkpt lat="44.56092649515808" lon="10.038820137681736"><ele>821.0</ele><time>2026-05-02T14:04:11Z</time></trkpt><trkpt lat="44.560830830057824" lon="10.038592732994221"><ele>821.0</ele><time>2026-05-02T14:04:12Z</time></trkpt><trkpt lat="44.56073997818915" lon="10.03840111723762"><ele>821.0</ele><time>2026-05-02T14:04:13Z</time></trkpt><trkpt lat="44.560643423130934" lon="10.038241639166428"><ele>821.0</ele><time>2026-05-02T14:04:14Z</time></trkpt><trkpt lat="44.56051689018442" lon="10.038094972701693"><ele>821.3333333333334</ele><time>2026-05-02T14:04:15Z</time></trkpt><trkpt lat="44.56034423257034" lon="10.037991920812368"><ele>821.6666666666667</ele><time>2026-05-02T14:04:16Z</time></trkpt><trkpt lat="44.56018332111362" lon="10.037888761205496"><ele>822.0</ele><time>2026-05-02T14:04:17Z</time></trkpt><trkpt lat="44.56007152588441" lon="10.037705200123874"><ele>822.0</ele><time>2026-05-02T14:04:18Z</time></trkpt><trkpt lat="44.559957944160864" lon="10.037474689847587"><ele>822.0</ele><time>2026-05-02T14:04:19Z</time></trkpt><trkpt lat="44.55984219514821" lon="10.037247287689617"><ele>822.0</ele><time>2026-05-02T14:04:20Z</time></trkpt><trkpt lat="44.559744398119264" lon="10.037062519025596"><ele>821.5</ele><time>2026-05-02T14:04:21Z</time></trkpt><trkpt lat="44.55963331012768" lon="10.036922412694839"><ele>821.0</ele><time>2026-05-02T14:04:21.999Z</time></trkpt><trkpt lat="44.559528984944336" lon="10.036853437988979"><ele>820.5</ele><time>2026-05-02T14:04:22.999Z</time></trkpt><trkpt lat="44.559395648877846" lon="10.036859544975204"><ele>820.0</ele><time>2026-05-02T14:04:23.999Z</time></trkpt><trkpt lat="44.55922168746772" lon="10.036919560561968"><ele>820.0</ele><time>2026-05-02T14:04:24.999Z</time></trkpt><trkpt lat="44.55904525806025" lon="10.036927048405214"><ele>820.0</ele><time>2026-05-02T14:04:25.999Z</time></trkpt><trkpt lat="44.55893027920605" lon="10.036772508553538"><ele>820.0</ele><time>2026-05-02T14:04:26.999Z</time></trkpt><trkpt lat="44.5587947887893" lon="10.036580682243812"><ele>820.3333333333333</ele><time>2026-05-02T14:04:27.999Z</time></trkpt><trkpt lat="44.558646486323035" lon="10.036371548037511"><ele>820.6666666666667</ele><time>2026-05-02T14:04:28.999Z</time></trkpt><trkpt lat="44.55851420671555" lon="10.036191344702178"><ele>821.0</ele><time>2026-05-02T14:04:29.999Z</time></trkpt><trkpt lat="44.558337091013996" lon="10.036077261723145"><ele>821.0</ele><time>2026-05-02T14:04:30.999Z</time></trkpt><trkpt lat="44.55813870286413" lon="10.035975804474582"><ele>821.0</ele><time>2026-05-02T14:04:31.999Z</time></trkpt><trkpt lat="44.55798518283149" lon="10.03581625658191"><ele>821.0</ele><time>2026-05-02T14:04:32.999Z</time></trkpt><trkpt lat="44.55786015748669" lon="10.03559713782361"><ele>820.0</ele><time>2026-05-02T14:04:33.999Z</time></trkpt><trkpt lat="44.55776784618584" lon="10.03538102411448"><ele>819.0</ele><time>2026-05-02T14:04:34.999Z</time></trkpt><trkpt lat="44.55766171985798" lon="10.035204056042211"><ele>818.0</ele><time>2026-05-02T14:04:35.999Z</time></trkpt><trkpt lat="44.557537979325375" lon="10.03508744125968"><ele>818.0</ele><time>2026-05-02T14:04:36.999Z</time></trkpt><trkpt lat="44.55741757363442" lon="10.035045805542952"><ele>818.0</ele><time>2026-05-02T14:04:37.999Z</time></trkpt><trkpt lat="44.55729993779145" lon="10.035078424492982"><ele>818.0</ele><time>2026-05-02T14:04:38.999Z</time></trkpt><trkpt lat="44.55718755823009" lon="10.035179724546218"><ele>818.0</ele><time>2026-05-02T14:04:39.999Z</time></trkpt><trkpt lat="44.55710721981838" lon="10.035336094925917"><ele>818.0</ele><time>2026-05-02T14:04:40.999Z</time></trkpt><trkpt lat="44.55706794657635" lon="10.035523204762663"><ele>818.0</ele><time>2026-05-02T14:04:41.999Z</time></trkpt><trkpt lat="44.5570365958946" lon="10.035800249347975"><ele>818.0</ele><time>2026-05-02T14:04:42.999Z</time></trkpt><trkpt lat="44.55695378491629" lon="10.036001113101515"><ele>817.0</ele><time>2026-05-02T14:04:43.999Z</time></trkpt><trkpt lat="44.55688034710103" lon="10.036158577742839"><ele>816.0</ele><time>2026-05-02T14:04:44.999Z</time></trkpt><trkpt lat="44.556799492109626" lon="10.036288451885635"><ele>815.0</ele><time>2026-05-02T14:04:45.999Z</time></trkpt><trkpt lat="44.55667385164956" lon="10.036428371057255"><ele>814.0</ele><time>2026-05-02T14:04:46.999Z</time></trkpt><trkpt lat="44.556542839161665" lon="10.036534632383074"><ele>814.0</ele><time>2026-05-02T14:04:47.999Z</time></trkpt><trkpt lat="44.55639821555366" lon="10.036579632617084"><ele>814.0</ele><time>2026-05-02T14:04:48.999Z</time></trkpt><trkpt lat="44.556240996458385" lon="10.036630314721696"><ele>814.0</ele><time>2026-05-02T14:04:49.999Z</time></trkpt><trkpt lat="44.55608974164191" lon="10.03669799076082"><ele>815.5</ele><time>2026-05-02T14:04:50.999Z</time></trkpt><trkpt lat="44.555930095014034" lon="10.036730499022458"><ele>817.0</ele><time>2026-05-02T14:04:51.999Z</time></trkpt><trkpt lat="44.55579126785151" lon="10.036762097144278"><ele>818.5</ele><time>2026-05-02T14:04:52.999Z</time></trkpt><trkpt lat="44.55565245250493" lon="10.036723599331197"><ele>820.0</ele><time>2026-05-02T14:04:53.999Z</time></trkpt><trkpt lat="44.55549955579141" lon="10.036650356043891"><ele>819.3333333333333</ele><time>2026-05-02T14:04:54.999Z</time></trkpt><trkpt lat="44.55533544691325" lon="10.036539631254204"><ele>818.6666666666667</ele><time>2026-05-02T14:04:55.999Z</time></trkpt><trkpt lat="44.55519811455546" lon="10.036385405654988"><ele>818.0</ele><time>2026-05-02T14:04:56.999Z</time></trkpt><trkpt lat="44.555090297991995" lon="10.036183483879372"><ele>818.0</ele><time>2026-05-02T14:04:57.999Z</time></trkpt><trkpt lat="44.55500155799618" lon="10.035967610611564"><ele>818.0</ele><time>2026-05-02T14:04:58.999Z</time></trkpt><trkpt lat="44.554898676458556" lon="10.035805368505873"><ele>818.0</ele><time>2026-05-02T14:04:59.999Z</time></trkpt><trkpt lat="44.554713777153324" lon="10.035652303620786"><ele>815.3333333333334</ele><time>2026-05-02T14:05:00.999Z</time></trkpt><trkpt lat="44.55451082793438" lon="10.035546968707818"><ele>812.6666666666667</ele><time>2026-05-02T14:05:01.999Z</time></trkpt><trkpt lat="44.554401684033635" lon="10.035557800331585"><ele>810.0</ele><time>2026-05-02T14:05:02.999Z</time></trkpt><trkpt lat="44.55424316726926" lon="10.035505943532153"><ele>810.0</ele><time>2026-05-02T14:05:03.999Z</time></trkpt><trkpt lat="44.554117328910415" lon="10.035463201339251"><ele>810.0</ele><time>2026-05-02T14:05:04.999Z</time></trkpt><trkpt lat="44.554015277950725" lon="10.035455850224588"><ele>810.0</ele><time>2026-05-02T14:05:05.999Z</time></trkpt><trkpt lat="44.553922407335264" lon="10.035500959105992"><ele>810.0</ele><time>2026-05-02T14:05:06.999Z</time></trkpt><trkpt lat="44.553829204429235" lon="10.035611865376499"><ele>810.0</ele><time>2026-05-02T14:05:07.999Z</time></trkpt><trkpt lat="44.553727838277474" lon="10.035791395841827"><ele>810.0</ele><time>2026-05-02T14:05:08.999Z</time></trkpt><trkpt lat="44.55360997898238" lon="10.035984700535673"><ele>810.0</ele><time>2026-05-02T14:05:09.999Z</time></trkpt><trkpt lat="44.55348002115959" lon="10.036182295164922"><ele>814.6666666666667</ele><time>2026-05-02T14:05:10.999Z</time></trkpt><trkpt lat="44.553369257082785" lon="10.036371997861883"><ele>819.3333333333334</ele><time>2026-05-02T14:05:11.999Z</time></trkpt><trkpt lat="44.5532948264826" lon="10.036576089796814"><ele>824.0</ele><time>2026-05-02T14:05:12.999Z</time></trkpt><trkpt lat="44.55326709499232" lon="10.036798483604196"><ele>824.4000000000001</ele><time>2026-05-02T14:05:13.999Z</time></trkpt><trkpt lat="44.55320856137573" lon="10.03693739550216"><ele>824.8</ele><time>2026-05-02T14:05:14.999Z</time></trkpt><trkpt lat="44.55312628639464" lon="10.037015653470439"><ele>825.2</ele><time>2026-05-02T14:05:15.999Z</time></trkpt><trkpt lat="44.55303269343217" lon="10.037002961483239"><ele>825.5999999999999</ele><time>2026-05-02T14:05:16.999Z</time></trkpt><trkpt lat="44.55292197601246" lon="10.036932060531328"><ele>826.0</ele><time>2026-05-02T14:05:18Z</time></trkpt><trkpt lat="44.55276185311214" lon="10.036882700508992"><ele>826.0</ele><time>2026-05-02T14:05:19Z</time></trkpt><trkpt lat="44.552606841617994" lon="10.036874005316042"><ele>826.0</ele><time>2026-05-02T14:05:20Z</time></trkpt><trkpt lat="44.55246697325312" lon="10.036909584368741"><ele>826.0</ele><time>2026-05-02T14:05:21Z</time></trkpt><trkpt lat="44.55232194821156" lon="10.037003026954398"><ele>826.0</ele><time>2026-05-02T14:05:22Z</time></trkpt><trkpt lat="44.55220400946574" lon="10.037195042449893"><ele>826.0</ele><time>2026-05-02T14:05:23Z</time></trkpt><trkpt lat="44.55210830087187" lon="10.037436618505726"><ele>826.0</ele><time>2026-05-02T14:05:24Z</time></trkpt><trkpt lat="44.552019481317174" lon="10.037664772260607"><ele>827.3333333333333</ele><time>2026-05-02T14:05:25Z</time></trkpt><trkpt lat="44.5519149391086" lon="10.03788820612362"><ele>828.6666666666667</ele><time>2026-05-02T14:05:26Z</time></trkpt><trkpt lat="44.55178987814879" lon="10.038057036831274"><ele>830.0</ele><time>2026-05-02T14:05:27Z</time></trkpt><trkpt lat="44.5516512155102" lon="10.038210485330088"><ele>833.25</ele><time>2026-05-02T14:05:28Z</time></trkpt><trkpt lat="44.551522175069536" lon="10.038328368095222"><ele>836.5</ele><time>2026-05-02T14:05:29Z</time></trkpt><trkpt lat="44.551406170513715" lon="10.038401922339869"><ele>839.75</ele><time>2026-05-02T14:05:30Z</time></trkpt><trkpt lat="44.55130071366742" lon="10.038437021442103"><ele>843.0</ele><time>2026-05-02T14:05:31Z</time></trkpt><trkpt lat="44.551201491089756" lon="10.038399141175214"><ele>839.3333333333333</ele><time>2026-05-02T14:05:32Z</time></trkpt><trkpt lat="44.5510811292448" lon="10.03828707348875"><ele>835.6666666666666</ele><time>2026-05-02T14:05:33Z</time></trkpt><trkpt lat="44.55094837594548" lon="10.038120635417858"><ele>832.0</ele><time>2026-05-02T14:05:34Z</time></trkpt><trkpt lat="44.55080324651935" lon="10.037994560245439"><ele>832.0</ele><time>2026-05-02T14:05:35Z</time></trkpt><trkpt lat="44.55065578447741" lon="10.03790001223269"><ele>832.0</ele><time>2026-05-02T14:05:36Z</time></trkpt><trkpt lat="44.55046250373588" lon="10.037830185165214"><ele>832.0</ele><time>2026-05-02T14:05:37Z</time></trkpt><trkpt lat="44.55027197984408" lon="10.037746433380494"><ele>833.6666666666666</ele><time>2026-05-02T14:05:38Z</time></trkpt><trkpt lat="44.55007160155535" lon="10.037654348281706"><ele>835.3333333333333</ele><time>2026-05-02T14:05:39Z</time></trkpt><trkpt lat="44.54988400368449" lon="10.037590469384385"><ele>837.0</ele><time>2026-05-02T14:05:40Z</time></trkpt><trkpt lat="44.54970993985543" lon="10.03754272100257"><ele>837.0</ele><time>2026-05-02T14:05:41Z</time></trkpt><trkpt lat="44.54955450283064" lon="10.037510703299208"><ele>837.0</ele><time>2026-05-02T14:05:42Z</time></trkpt><trkpt lat="44.54941307955035" lon="10.037483920389267"><ele>837.0</ele><time>2026-05-02T14:05:43Z</time></trkpt><trkpt lat="44.54926839339299" lon="10.037491379254279"><ele>837.0</ele><time>2026-05-02T14:05:44Z</time></trkpt><trkpt lat="44.54908818249259" lon="10.037511679744403"><ele>837.25</ele><time>2026-05-02T14:05:45Z</time></trkpt><trkpt lat="44.54893026095918" lon="10.037510567360325"><ele>837.5</ele><time>2026-05-02T14:05:46Z</time></trkpt><trkpt lat="44.54878098393984" lon="10.037514039041838"><ele>837.75</ele><time>2026-05-02T14:05:47Z</time></trkpt><trkpt lat="44.54865131952079" lon="10.037527278499056"><ele>838.0</ele><time>2026-05-02T14:05:48Z</time></trkpt><trkpt lat="44.54852824310003" lon="10.037515913526182"><ele>838.4</ele><time>2026-05-02T14:05:49Z</time></trkpt><trkpt lat="44.54841504516817" lon="10.037512598249192"><ele>838.8</ele><time>2026-05-02T14:05:50Z</time></trkpt><trkpt lat="44.54830542312445" lon="10.037490622912447"><ele>839.2</ele><time>2026-05-02T14:05:51Z</time></trkpt><trkpt lat="44.54819399269028" lon="10.037446137110173"><ele>839.6</ele><time>2026-05-02T14:05:52Z</time></trkpt><trkpt lat="44.54809661739181" lon="10.037383662392797"><ele>840.0</ele><time>2026-05-02T14:05:53Z</time></trkpt><trkpt lat="44.54801894823166" lon="10.037325891783473"><ele>840.4</ele><time>2026-05-02T14:05:54Z</time></trkpt><trkpt lat="44.54794934413104" lon="10.037279200100386"><ele>840.8</ele><time>2026-05-02T14:05:55Z</time></trkpt><trkpt lat="44.547887920086026" lon="10.03717565397787"><ele>841.2</ele><time>2026-05-02T14:05:57Z</time></trkpt><trkpt lat="44.547855836768896" lon="10.037094094511417"><ele>841.6</ele><time>2026-05-02T14:06:00Z</time></trkpt><trkpt lat="44.54797628426786" lon="10.03728568636636"><ele>842.0</ele><time>2026-05-02T14:06:12Z</time></trkpt><trkpt lat="44.54798587228192" lon="10.03738552619336"><ele>841.6666666666667</ele><time>2026-05-02T14:06:14Z</time></trkpt><trkpt lat="44.54797081789806" lon="10.037472014476732"><ele>841.3333333333334</ele><time>2026-05-02T14:06:15Z</time></trkpt><trkpt lat="44.54795497737277" lon="10.037559348926662"><ele>841.0</ele><time>2026-05-02T14:06:16Z</time></trkpt><trkpt lat="44.547937557247614" lon="10.037660414535894"><ele>840.6666666666667</ele><time>2026-05-02T14:06:17Z</time></trkpt><trkpt lat="44.54791791397338" lon="10.03777703493845"><ele>840.3333333333334</ele><time>2026-05-02T14:06:18Z</time></trkpt><trkpt lat="44.54790002545356" lon="10.037897672054214"><ele>840.0</ele><time>2026-05-02T14:06:19Z</time></trkpt><trkpt lat="44.54788563703769" lon="10.03802081769302"><ele>841.3333333333334</ele><time>2026-05-02T14:06:20Z</time></trkpt><trkpt lat="44.547874956506014" lon="10.038136229307149"><ele>842.6666666666667</ele><time>2026-05-02T14:06:21Z</time></trkpt><trkpt lat="44.5478754168834" lon="10.038263220509535"><ele>844.0</ele><time>2026-05-02T14:06:22Z</time></trkpt><trkpt lat="44.54786081000773" lon="10.038389208934321"><ele>845.3333333333334</ele><time>2026-05-02T14:06:23Z</time></trkpt><trkpt lat="44.547857643063814" lon="10.038521371207043"><ele>846.6666666666667</ele><time>2026-05-02T14:06:24Z</time></trkpt><trkpt lat="44.54785089904464" lon="10.038647777778785"><ele>848.0</ele><time>2026-05-02T14:06:24.999Z</time></trkpt><trkpt lat="44.547840431932805" lon="10.038761949043698"><ele>848.4</ele><time>2026-05-02T14:06:25.999Z</time></trkpt><trkpt lat="44.547850204800646" lon="10.038866692886653"><ele>848.8</ele><time>2026-05-02T14:06:26.999Z</time></trkpt><trkpt lat="44.54789510287847" lon="10.038949652498188"><ele>849.2</ele><time>2026-05-02T14:06:27.999Z</time></trkpt><trkpt lat="44.54796427796235" lon="10.03904262602611"><ele>849.6</ele><time>2026-05-02T14:06:28.999Z</time></trkpt><trkpt lat="44.548073465636314" lon="10.039084166590419"><ele>850.0</ele><time>2026-05-02T14:06:29.999Z</time></trkpt><trkpt lat="44.548176477141574" lon="10.039127312707192"><ele>850.0</ele><time>2026-05-02T14:06:30.999Z</time></trkpt><trkpt lat="44.548289153743596" lon="10.03913944463037"><ele>850.0</ele><time>2026-05-02T14:06:31.999Z</time></trkpt><trkpt lat="44.548408879705775" lon="10.039129155387403"><ele>850.0</ele><time>2026-05-02T14:06:32.999Z</time></trkpt><trkpt lat="44.54852269166157" lon="10.039124393601806"><ele>850.0</ele><time>2026-05-02T14:06:33.999Z</time></trkpt><trkpt lat="44.54864182337229" lon="10.039130077496305"><ele>852.6</ele><time>2026-05-02T14:06:34.999Z</time></trkpt><trkpt lat="44.548760138965655" lon="10.039136958920578"><ele>855.2</ele><time>2026-05-02T14:06:35.999Z</time></trkpt><trkpt lat="44.54887056890683" lon="10.039148662332662"><ele>857.8</ele><time>2026-05-02T14:06:36.999Z</time></trkpt><trkpt lat="44.54897393094698" lon="10.039169680724573"><ele>860.4</ele><time>2026-05-02T14:06:37.999Z</time></trkpt><trkpt lat="44.549072159594665" lon="10.039241629725653"><ele>863.0</ele><time>2026-05-02T14:06:38.999Z</time></trkpt><trkpt lat="44.54917471769386" lon="10.039320451261489"><ele>863.0</ele><time>2026-05-02T14:06:39.999Z</time></trkpt><trkpt lat="44.549294814945384" lon="10.03939623243045"><ele>863.0</ele><time>2026-05-02T14:06:40.999Z</time></trkpt><trkpt lat="44.54939959840446" lon="10.039484548310671"><ele>863.0</ele><time>2026-05-02T14:06:41.999Z</time></trkpt><trkpt lat="44.54950569755392" lon="10.039537823753442"><ele>863.0</ele><time>2026-05-02T14:06:42.999Z</time></trkpt><trkpt lat="44.54961710057238" lon="10.039552254497517"><ele>864.0</ele><time>2026-05-02T14:06:43.999Z</time></trkpt><trkpt lat="44.54973243762891" lon="10.039534874385001"><ele>865.0</ele><time>2026-05-02T14:06:44.999Z</time></trkpt><trkpt lat="44.54982185065034" lon="10.039502851199991"><ele>866.0</ele><time>2026-05-02T14:06:45.999Z</time></trkpt><trkpt lat="44.54989006756584" lon="10.039493851175738"><ele>867.0</ele><time>2026-05-02T14:06:46.999Z</time></trkpt><trkpt lat="44.549981584596445" lon="10.039493760024875"><ele>868.0</ele><time>2026-05-02T14:06:48.999Z</time></trkpt><trkpt lat="44.550045173886645" lon="10.039582361896278"><ele>867.9999999999999</ele><time>2026-05-02T14:06:50.999Z</time></trkpt><trkpt lat="44.55003493678318" lon="10.039674216044064"><ele>868.0</ele><time>2026-05-02T14:06:51.999Z</time></trkpt><trkpt lat="44.55006173422875" lon="10.039774645538603"><ele>868.0</ele><time>2026-05-02T14:06:53.999Z</time></trkpt><trkpt lat="44.5500205564835" lon="10.039851586048718"><ele>868.0</ele><time>2026-05-02T14:06:57.999Z</time></trkpt><trkpt lat="44.5500213348434" lon="10.039955334233458"><ele>867.9999999999999</ele><time>2026-05-02T14:07:00.999Z</time></trkpt><trkpt lat="44.54991416956406" lon="10.039977668162056"><ele>868.0</ele><time>2026-05-02T14:07:01.999Z</time></trkpt><trkpt lat="44.54997335089616" lon="10.03990025020137"><ele>867.9999999999999</ele><time>2026-05-02T14:07:28Z</time></trkpt><trkpt lat="44.550054004475854" lon="10.039825926676912"><ele>868.0</ele><time>2026-05-02T14:07:31Z</time></trkpt><trkpt lat="44.55005940441321" lon="10.039694325665774"><ele>868.0</ele><time>2026-05-02T14:07:35Z</time></trkpt><trkpt lat="44.550045982159446" lon="10.03959993781486"><ele>868.0</ele><time>2026-05-02T14:07:37Z</time></trkpt><trkpt lat="44.55000346425898" lon="10.039491302171287"><ele>867.9999999999999</ele><time>2026-05-02T14:07:40Z</time></trkpt><trkpt lat="44.54992904065753" lon="10.039491150925496"><ele>868.0</ele><time>2026-05-02T14:07:42Z</time></trkpt><trkpt lat="44.549854833536024" lon="10.039494025631608"><ele>867.9999999999999</ele><time>2026-05-02T14:07:44Z</time></trkpt><trkpt lat="44.54977962429828" lon="10.039506623960207"><ele>868.0</ele><time>2026-05-02T14:07:46Z</time></trkpt><trkpt lat="44.549692404947486" lon="10.039520869369237"><ele>868.0</ele><time>2026-05-02T14:07:48Z</time></trkpt><trkpt lat="44.549612025174696" lon="10.039524103421225"><ele>868.0</ele><time>2026-05-02T14:07:50Z</time></trkpt><trkpt lat="44.5494953339411" lon="10.03951715956573"><ele>867.9999999999999</ele><time>2026-05-02T14:07:52Z</time></trkpt><trkpt lat="44.549425588426146" lon="10.039487031610747"><ele>868.0</ele><time>2026-05-02T14:07:53Z</time></trkpt><trkpt lat="44.54934064761891" lon="10.039430259722293"><ele>867.0</ele><time>2026-05-02T14:07:54Z</time></trkpt><trkpt lat="44.54925412335125" lon="10.039356911161747"><ele>866.0</ele><time>2026-05-02T14:07:55Z</time></trkpt><trkpt lat="44.549168825077636" lon="10.039282429612879"><ele>865.0</ele><time>2026-05-02T14:07:56Z</time></trkpt><trkpt lat="44.54908385207937" lon="10.0392183086805"><ele>864.0</ele><time>2026-05-02T14:07:57Z</time></trkpt><trkpt lat="44.54900065398825" lon="10.039169393121169"><ele>863.0</ele><time>2026-05-02T14:07:58Z</time></trkpt><trkpt lat="44.54892102206468" lon="10.039137133329753"><ele>860.4</ele><time>2026-05-02T14:07:59Z</time></trkpt><trkpt lat="44.54883070376319" lon="10.039126525584836"><ele>857.8</ele><time>2026-05-02T14:08:00Z</time></trkpt><trkpt lat="44.54873539282501" lon="10.039126553451423"><ele>855.2</ele><time>2026-05-02T14:08:01Z</time></trkpt><trkpt lat="44.5486377750068" lon="10.03913095232067"><ele>852.6</ele><time>2026-05-02T14:08:02Z</time></trkpt><trkpt lat="44.54854809970336" lon="10.039127523023481"><ele>850.0</ele><time>2026-05-02T14:08:03Z</time></trkpt><trkpt lat="44.54844179690082" lon="10.039115416398127"><ele>850.0</ele><time>2026-05-02T14:08:04Z</time></trkpt><trkpt lat="44.54832889900669" lon="10.039115736648666"><ele>850.0</ele><time>2026-05-02T14:08:05Z</time></trkpt><trkpt lat="44.548226310808104" lon="10.039115452391371"><ele>850.0</ele><time>2026-05-02T14:08:06Z</time></trkpt><trkpt lat="44.548133931744395" lon="10.039103255206033"><ele>850.0</ele><time>2026-05-02T14:08:07Z</time></trkpt><trkpt lat="44.548052001311504" lon="10.039066381104622"><ele>850.0</ele><time>2026-05-02T14:08:08Z</time></trkpt><trkpt lat="44.547961846262616" lon="10.039001227843915"><ele>850.0</ele><time>2026-05-02T14:08:09Z</time></trkpt><trkpt lat="44.5479038917244" lon="10.03891053069901"><ele>850.0</ele><time>2026-05-02T14:08:10Z</time></trkpt><trkpt lat="44.54785023011382" lon="10.038828215736602"><ele>850.0</ele><time>2026-05-02T14:08:11Z</time></trkpt><trkpt lat="44.5478537471838" lon="10.038700573056726"><ele>850.0</ele><time>2026-05-02T14:08:12Z</time></trkpt><trkpt lat="44.54787690033784" lon="10.038552110021707"><ele>850.0</ele><time>2026-05-02T14:08:13Z</time></trkpt><trkpt lat="44.54789639145594" lon="10.038394528527558"><ele>848.0</ele><time>2026-05-02T14:08:14Z</time></trkpt><trkpt lat="44.5478988323952" lon="10.038254893149327"><ele>846.0</ele><time>2026-05-02T14:08:15Z</time></trkpt><trkpt lat="44.547907095047776" lon="10.038116874557137"><ele>844.0</ele><time>2026-05-02T14:08:16Z</time></trkpt><trkpt lat="44.547916280181354" lon="10.037970785328568"><ele>842.0</ele><time>2026-05-02T14:08:17Z</time></trkpt><trkpt lat="44.547942351271026" lon="10.03783462905678"><ele>840.0</ele><time>2026-05-02T14:08:18Z</time></trkpt><trkpt lat="44.547972401214224" lon="10.037667195962719"><ele>840.0</ele><time>2026-05-02T14:08:20Z</time></trkpt><trkpt lat="44.54798751989711" lon="10.037571957811313"><ele>840.0</ele><time>2026-05-02T14:08:21Z</time></trkpt><trkpt lat="44.548010671408115" lon="10.03745096209236"><ele>840.0</ele><time>2026-05-02T14:08:23Z</time></trkpt><trkpt lat="44.5480353054796" lon="10.037317402185973"><ele>840.0</ele><time>2026-05-02T14:08:28Z</time></trkpt><trkpt lat="44.54795450738879" lon="10.037240163653781"><ele>840.0</ele><time>2026-05-02T14:08:29Z</time></trkpt><trkpt lat="44.54787675167495" lon="10.037166610699426"><ele>840.0</ele><time>2026-05-02T14:08:29.999Z</time></trkpt><trkpt lat="44.54781744401541" lon="10.03709190149913"><ele>840.3333333333334</ele><time>2026-05-02T14:08:30.999Z</time></trkpt><trkpt lat="44.54777235190387" lon="10.037029966359936"><ele>840.6666666666667</ele><time>2026-05-02T14:08:31.999Z</time></trkpt><trkpt lat="44.54772865305896" lon="10.036960365947849"><ele>841.0</ele><time>2026-05-02T14:08:32.999Z</time></trkpt><trkpt lat="44.547659478331916" lon="10.036840690189655"><ele>841.3333333333334</ele><time>2026-05-02T14:08:34.999Z</time></trkpt><trkpt lat="44.547617666282015" lon="10.036764229887837"><ele>841.6666666666667</ele><time>2026-05-02T14:08:35.999Z</time></trkpt><trkpt lat="44.547577646106326" lon="10.036681271225174"><ele>842.0</ele><time>2026-05-02T14:08:36.999Z</time></trkpt><trkpt lat="44.547532497248646" lon="10.036586167483172"><ele>840.6</ele><time>2026-05-02T14:08:37.999Z</time></trkpt><trkpt lat="44.54748352442439" lon="10.036491641613814"><ele>839.2</ele><time>2026-05-02T14:08:38.999Z</time></trkpt><trkpt lat="44.54742688408147" lon="10.03637189067364"><ele>837.8</ele><time>2026-05-02T14:08:39.999Z</time></trkpt><trkpt lat="44.54737197330128" lon="10.036237907115972"><ele>836.4</ele><time>2026-05-02T14:08:40.999Z</time></trkpt><trkpt lat="44.54732016763925" lon="10.036109277872391"><ele>835.0</ele><time>2026-05-02T14:08:41.999Z</time></trkpt><trkpt lat="44.54726737845166" lon="10.035973564252277"><ele>835.0</ele><time>2026-05-02T14:08:42.999Z</time></trkpt><trkpt lat="44.54721524666933" lon="10.035851755234207"><ele>835.0</ele><time>2026-05-02T14:08:43.999Z</time></trkpt><trkpt lat="44.54715269639214" lon="10.035729869375736"><ele>835.0</ele><time>2026-05-02T14:08:44.999Z</time></trkpt><trkpt lat="44.54707605358124" lon="10.035612673673054"><ele>835.0</ele><time>2026-05-02T14:08:45.999Z</time></trkpt><trkpt lat="44.547000835740576" lon="10.035494699909558"><ele>835.0</ele><time>2026-05-02T14:08:46.999Z</time></trkpt><trkpt lat="44.54692377747313" lon="10.035386479968109"><ele>835.75</ele><time>2026-05-02T14:08:47.999Z</time></trkpt><trkpt lat="44.546843933417996" lon="10.035275642114586"><ele>836.5</ele><time>2026-05-02T14:08:48.999Z</time></trkpt><trkpt lat="44.54676352867777" lon="10.035154143515564"><ele>837.25</ele><time>2026-05-02T14:08:49.999Z</time></trkpt><trkpt lat="44.546691090312194" lon="10.03502659371023"><ele>838.0</ele><time>2026-05-02T14:08:50.999Z</time></trkpt><trkpt lat="44.54662115325726" lon="10.034890681874623"><ele>838.0</ele><time>2026-05-02T14:08:51.999Z</time></trkpt><trkpt lat="44.54655783038113" lon="10.034743379928793"><ele>838.0</ele><time>2026-05-02T14:08:52.999Z</time></trkpt><trkpt lat="44.54650630854698" lon="10.034583128351628"><ele>838.0</ele><time>2026-05-02T14:08:53.999Z</time></trkpt><trkpt lat="44.54645838852986" lon="10.034428490592665"><ele>838.0</ele><time>2026-05-02T14:08:54.999Z</time></trkpt><trkpt lat="44.54641869758992" lon="10.034286456070467"><ele>838.0</ele><time>2026-05-02T14:08:55.999Z</time></trkpt><trkpt lat="44.54637484338392" lon="10.034150269442188"><ele>838.0</ele><time>2026-05-02T14:08:56.999Z</time></trkpt><trkpt lat="44.546334044785326" lon="10.034020440066868"><ele>838.0</ele><time>2026-05-02T14:08:57.999Z</time></trkpt><trkpt lat="44.54628749476842" lon="10.033889546817507"><ele>838.0</ele><time>2026-05-02T14:08:58.999Z</time></trkpt><trkpt lat="44.54622752141623" lon="10.033768482308918"><ele>838.0</ele><time>2026-05-02T14:08:59.999Z</time></trkpt><trkpt lat="44.54613793410311" lon="10.03368078069263"><ele>836.75</ele><time>2026-05-02T14:09:00.999Z</time></trkpt><trkpt lat="44.546018270756285" lon="10.033650202964404"><ele>835.5</ele><time>2026-05-02T14:09:01.999Z</time></trkpt><trkpt lat="44.54587807660724" lon="10.03365521782337"><ele>834.25</ele><time>2026-05-02T14:09:02.999Z</time></trkpt><trkpt lat="44.54572897885961" lon="10.033641606803878"><ele>833.0</ele><time>2026-05-02T14:09:03.999Z</time></trkpt><trkpt lat="44.54559832584957" lon="10.033621089908625"><ele>833.0</ele><time>2026-05-02T14:09:04.999Z</time></trkpt><trkpt lat="44.545492763316496" lon="10.033601962463372"><ele>833.0</ele><time>2026-05-02T14:09:05.999Z</time></trkpt><trkpt lat="44.54538413944546" lon="10.03360318372188"><ele>833.0</ele><time>2026-05-02T14:09:06.999Z</time></trkpt><trkpt lat="44.54524349199251" lon="10.033663515189975"><ele>833.0</ele><time>2026-05-02T14:09:07.999Z</time></trkpt><trkpt lat="44.54513642294534" lon="10.033804246333139"><ele>833.6666666666667</ele><time>2026-05-02T14:09:08.999Z</time></trkpt><trkpt lat="44.54506765335775" lon="10.033990228457968"><ele>834.3333333333333</ele><time>2026-05-02T14:09:09.999Z</time></trkpt><trkpt lat="44.5449687750971" lon="10.034158045575923"><ele>835.0</ele><time>2026-05-02T14:09:10.999Z</time></trkpt><trkpt lat="44.544884021517774" lon="10.034323854829552"><ele>835.0</ele><time>2026-05-02T14:09:11.999Z</time></trkpt><trkpt lat="44.54478703124205" lon="10.034482853842594"><ele>835.0</ele><time>2026-05-02T14:09:12.999Z</time></trkpt><trkpt lat="44.54467386766026" lon="10.034624667369844"><ele>835.0</ele><time>2026-05-02T14:09:13.999Z</time></trkpt><trkpt lat="44.54453753642509" lon="10.034736174121894"><ele>834.3333333333333</ele><time>2026-05-02T14:09:14.999Z</time></trkpt><trkpt lat="44.544371112523145" lon="10.034830055764312"><ele>833.6666666666667</ele><time>2026-05-02T14:09:15.999Z</time></trkpt><trkpt lat="44.54420255901663" lon="10.034919265697223"><ele>833.0</ele><time>2026-05-02T14:09:16.999Z</time></trkpt><trkpt lat="44.544048516965894" lon="10.034990623370643"><ele>833.0</ele><time>2026-05-02T14:09:17.999Z</time></trkpt><trkpt lat="44.543906950841375" lon="10.035049789423242"><ele>833.0</ele><time>2026-05-02T14:09:18.999Z</time></trkpt><trkpt lat="44.54377685665501" lon="10.035063989420319"><ele>833.0</ele><time>2026-05-02T14:09:19.999Z</time></trkpt><trkpt lat="44.54363960509581" lon="10.035000382080868"><ele>833.0</ele><time>2026-05-02T14:09:20.999Z</time></trkpt><trkpt lat="44.54347950835795" lon="10.034907495140436"><ele>830.6666666666667</ele><time>2026-05-02T14:09:21.999Z</time></trkpt><trkpt lat="44.54334811872003" lon="10.034797923066138"><ele>828.3333333333333</ele><time>2026-05-02T14:09:22.999Z</time></trkpt><trkpt lat="44.54325738619692" lon="10.034562318271634"><ele>826.0</ele><time>2026-05-02T14:09:23.999Z</time></trkpt><trkpt lat="44.54317103069443" lon="10.034337762447892"><ele>826.3333333333333</ele><time>2026-05-02T14:09:24.999Z</time></trkpt><trkpt lat="44.54308668153161" lon="10.034112926329268"><ele>826.6666666666667</ele><time>2026-05-02T14:09:25.999Z</time></trkpt><trkpt lat="44.54297631765294" lon="10.033929751315883"><ele>827.0</ele><time>2026-05-02T14:09:26.999Z</time></trkpt><trkpt lat="44.54281121079946" lon="10.033778316570976"><ele>827.0</ele><time>2026-05-02T14:09:27.999Z</time></trkpt><trkpt lat="44.54261996764203" lon="10.03364677595909"><ele>827.0</ele><time>2026-05-02T14:09:28.999Z</time></trkpt><trkpt lat="44.54245796508539" lon="10.033520504551685"><ele>827.0</ele><time>2026-05-02T14:09:30Z</time></trkpt><trkpt lat="44.54232314509649" lon="10.033376732843712"><ele>827.6666666666667</ele><time>2026-05-02T14:09:31Z</time></trkpt><trkpt lat="44.542200148881086" lon="10.033155743101782"><ele>828.3333333333333</ele><time>2026-05-02T14:09:32Z</time></trkpt><trkpt lat="44.54207968479939" lon="10.032911207104108"><ele>829.0</ele><time>2026-05-02T14:09:33Z</time></trkpt><trkpt lat="44.5419781016581" lon="10.032645782529938"><ele>826.3333333333333</ele><time>2026-05-02T14:09:34Z</time></trkpt><trkpt lat="44.541878582879455" lon="10.032421861697019"><ele>823.6666666666667</ele><time>2026-05-02T14:09:35Z</time></trkpt><trkpt lat="44.54178651850418" lon="10.03222723267813"><ele>821.0</ele><time>2026-05-02T14:09:36Z</time></trkpt><trkpt lat="44.54168801086819" lon="10.032079023369718"><ele>821.0</ele><time>2026-05-02T14:09:37Z</time></trkpt><trkpt lat="44.54157646603212" lon="10.031991003931822"><ele>821.0</ele><time>2026-05-02T14:09:38Z</time></trkpt><trkpt lat="44.54144267018917" lon="10.031956981198064"><ele>821.0</ele><time>2026-05-02T14:09:39Z</time></trkpt><trkpt lat="44.54127713935813" lon="10.032014103912353"><ele>821.0</ele><time>2026-05-02T14:09:40Z</time></trkpt><trkpt lat="44.541120961199574" lon="10.032132663488616"><ele>820.0</ele><time>2026-05-02T14:09:41Z</time></trkpt><trkpt lat="44.54093834569393" lon="10.032288515269395"><ele>819.0</ele><time>2026-05-02T14:09:42Z</time></trkpt><trkpt lat="44.54074957094805" lon="10.032439097765309"><ele>818.0</ele><time>2026-05-02T14:09:43Z</time></trkpt><trkpt lat="44.540549580336375" lon="10.032566140626816"><ele>820.6666666666667</ele><time>2026-05-02T14:09:44Z</time></trkpt><trkpt lat="44.54040810476326" lon="10.032625769305733"><ele>823.3333333333333</ele><time>2026-05-02T14:09:45Z</time></trkpt><trkpt lat="44.540312268457924" lon="10.032593690995292"><ele>826.0</ele><time>2026-05-02T14:09:46Z</time></trkpt><trkpt lat="44.54007432179824" lon="10.032558506872272"><ele>826.0</ele><time>2026-05-02T14:09:47Z</time></trkpt><trkpt lat="44.53984543393687" lon="10.032516505472723"><ele>826.0</ele><time>2026-05-02T14:09:48Z</time></trkpt><trkpt lat="44.53960657363495" lon="10.032496206184"><ele>825.0</ele><time>2026-05-02T14:09:49Z</time></trkpt><trkpt lat="44.53938171249314" lon="10.032437697543195"><ele>824.0</ele><time>2026-05-02T14:09:50Z</time></trkpt><trkpt lat="44.53919005524406" lon="10.032399036301081"><ele>823.0</ele><time>2026-05-02T14:09:51Z</time></trkpt><trkpt lat="44.53903110155461" lon="10.03232369466813"><ele>823.0</ele><time>2026-05-02T14:09:52Z</time></trkpt><trkpt lat="44.538872628223814" lon="10.032193147514779"><ele>823.0</ele><time>2026-05-02T14:09:53Z</time></trkpt><trkpt lat="44.538684824561734" lon="10.032029293024314"><ele>823.0</ele><time>2026-05-02T14:09:54Z</time></trkpt><trkpt lat="44.53848779704383" lon="10.031885325576978"><ele>825.5</ele><time>2026-05-02T14:09:55Z</time></trkpt><trkpt lat="44.53828975746217" lon="10.031738796278663"><ele>828.0</ele><time>2026-05-02T14:09:56Z</time></trkpt><trkpt lat="44.53807221585491" lon="10.031621350503489"><ele>827.5</ele><time>2026-05-02T14:09:57Z</time></trkpt><trkpt lat="44.53784434104446" lon="10.031523055890716"><ele>827.0</ele><time>2026-05-02T14:09:58Z</time></trkpt><trkpt lat="44.53761981505248" lon="10.031421977312512"><ele>827.0</ele><time>2026-05-02T14:09:59Z</time></trkpt><trkpt lat="44.53741611335425" lon="10.031312590175466"><ele>827.0</ele><time>2026-05-02T14:10:00Z</time></trkpt><trkpt lat="44.53724808313605" lon="10.031217596688114"><ele>827.0</ele><time>2026-05-02T14:10:01Z</time></trkpt><trkpt lat="44.53712670817708" lon="10.031167851716532"><ele>825.75</ele><time>2026-05-02T14:10:02Z</time></trkpt><trkpt lat="44.53701883239036" lon="10.031171932611448"><ele>824.5</ele><time>2026-05-02T14:10:03Z</time></trkpt><trkpt lat="44.53689914586335" lon="10.031251508558539"><ele>823.25</ele><time>2026-05-02T14:10:04Z</time></trkpt><trkpt lat="44.53679403906" lon="10.0314263876551"><ele>822.0</ele><time>2026-05-02T14:10:05Z</time></trkpt><trkpt lat="44.536741476903515" lon="10.031662537407954"><ele>822.0</ele><time>2026-05-02T14:10:06Z</time></trkpt><trkpt lat="44.536736127352" lon="10.03189801099692"><ele>822.0</ele><time>2026-05-02T14:10:07Z</time></trkpt><trkpt lat="44.53674030300929" lon="10.03214932875628"><ele>822.0</ele><time>2026-05-02T14:10:08Z</time></trkpt><trkpt lat="44.536667430557706" lon="10.032328661112697"><ele>826.0</ele><time>2026-05-02T14:10:09Z</time></trkpt><trkpt lat="44.53655238903444" lon="10.032488825687235"><ele>830.0</ele><time>2026-05-02T14:10:10Z</time></trkpt><trkpt lat="44.53638700507238" lon="10.032653791586021"><ele>834.0</ele><time>2026-05-02T14:10:11Z</time></trkpt><trkpt lat="44.53624251937842" lon="10.032785101263544"><ele>827.0</ele><time>2026-05-02T14:10:12Z</time></trkpt><trkpt lat="44.53602457292087" lon="10.032980082174996"><ele>820.0</ele><time>2026-05-02T14:10:13Z</time></trkpt><trkpt lat="44.53585276674623" lon="10.033139666833911"><ele>824.6666666666666</ele><time>2026-05-02T14:10:14Z</time></trkpt><trkpt lat="44.53572486196615" lon="10.033308328841159"><ele>829.3333333333333</ele><time>2026-05-02T14:10:15Z</time></trkpt><trkpt lat="44.535637145212014" lon="10.033502390213435"><ele>834.0</ele><time>2026-05-02T14:10:16Z</time></trkpt><trkpt lat="44.535584797361714" lon="10.033736306731575"><ele>834.0</ele><time>2026-05-02T14:10:17Z</time></trkpt><trkpt lat="44.53547455803502" lon="10.033839987143322"><ele>834.0</ele><time>2026-05-02T14:10:18Z</time></trkpt><trkpt lat="44.53532175086109" lon="10.033938093068926"><ele>834.0</ele><time>2026-05-02T14:10:19Z</time></trkpt><trkpt lat="44.535176248734665" lon="10.034111456356216"><ele>833.0</ele><time>2026-05-02T14:10:20Z</time></trkpt><trkpt lat="44.535034275354526" lon="10.03429637686539"><ele>832.0</ele><time>2026-05-02T14:10:21Z</time></trkpt><trkpt lat="44.53493011685912" lon="10.034441089162982"><ele>831.0</ele><time>2026-05-02T14:10:22Z</time></trkpt><trkpt lat="44.53484881216822" lon="10.034517889263526"><ele>830.0</ele><time>2026-05-02T14:10:23Z</time></trkpt><trkpt lat="44.53476833243101" lon="10.034514218113545"><ele>830.0</ele><time>2026-05-02T14:10:24Z</time></trkpt><trkpt lat="44.534656731711166" lon="10.034492611793128"><ele>830.0</ele><time>2026-05-02T14:10:25Z</time></trkpt><trkpt lat="44.53455800494729" lon="10.03439483568828"><ele>830.0</ele><time>2026-05-02T14:10:26Z</time></trkpt><trkpt lat="44.534499177298535" lon="10.034231709333056"><ele>830.0</ele><time>2026-05-02T14:10:27Z</time></trkpt><trkpt lat="44.53446297380959" lon="10.034012534138755"><ele>831.0</ele><time>2026-05-02T14:10:28Z</time></trkpt><trkpt lat="44.534397235549775" lon="10.033721892839703"><ele>832.0</ele><time>2026-05-02T14:10:29Z</time></trkpt><trkpt lat="44.534349066458944" lon="10.03342500705438"><ele>833.0</ele><time>2026-05-02T14:10:30Z</time></trkpt><trkpt lat="44.534297593433934" lon="10.033116725340554"><ele>833.0</ele><time>2026-05-02T14:10:31Z</time></trkpt><trkpt lat="44.534256611648246" lon="10.032825383798246"><ele>833.0</ele><time>2026-05-02T14:10:32Z</time></trkpt><trkpt lat="44.53421669427993" lon="10.032583835227287"><ele>833.0</ele><time>2026-05-02T14:10:33Z</time></trkpt><trkpt lat="44.53416801478269" lon="10.032373864180672"><ele>831.0</ele><time>2026-05-02T14:10:34Z</time></trkpt><trkpt lat="44.53410755173744" lon="10.03220979542223"><ele>829.0</ele><time>2026-05-02T14:10:35Z</time></trkpt><trkpt lat="44.534018465496494" lon="10.032082453215665"><ele>827.0</ele><time>2026-05-02T14:10:36Z</time></trkpt><trkpt lat="44.53388784683655" lon="10.03201812610521"><ele>825.0</ele><time>2026-05-02T14:10:37Z</time></trkpt><trkpt lat="44.53373215702173" lon="10.032021407977888"><ele>825.6666666666667</ele><time>2026-05-02T14:10:37.999Z</time></trkpt><trkpt lat="44.53355066713953" lon="10.03208639977349"><ele>826.3333333333334</ele><time>2026-05-02T14:10:38.999Z</time></trkpt><trkpt lat="44.53334895055794" lon="10.032188880405918"><ele>827.0</ele><time>2026-05-02T14:10:39.999Z</time></trkpt><trkpt lat="44.53313762338417" lon="10.03225880751005"><ele>827.0</ele><time>2026-05-02T14:10:40.999Z</time></trkpt><trkpt lat="44.53291127210223" lon="10.032310434210851"><ele>827.0</ele><time>2026-05-02T14:10:41.999Z</time></trkpt><trkpt lat="44.53267696772235" lon="10.032340519038561"><ele>822.0</ele><time>2026-05-02T14:10:42.999Z</time></trkpt><trkpt lat="44.53244107148157" lon="10.03235683321177"><ele>817.0</ele><time>2026-05-02T14:10:43.999Z</time></trkpt><trkpt lat="44.5322094122634" lon="10.032370446511495"><ele>820.0</ele><time>2026-05-02T14:10:44.999Z</time></trkpt><trkpt lat="44.53197768647494" lon="10.032379763686741"><ele>823.0</ele><time>2026-05-02T14:10:45.999Z</time></trkpt><trkpt lat="44.53175575696416" lon="10.032383934620892"><ele>823.0</ele><time>2026-05-02T14:10:46.999Z</time></trkpt><trkpt lat="44.53156123401408" lon="10.032395581638239"><ele>823.0</ele><time>2026-05-02T14:10:47.999Z</time></trkpt><trkpt lat="44.531375869951255" lon="10.032430321407842"><ele>823.0</ele><time>2026-05-02T14:10:48.999Z</time></trkpt><trkpt lat="44.53118458747091" lon="10.032496761777727"><ele>828.3333333333333</ele><time>2026-05-02T14:10:49.999Z</time></trkpt><trkpt lat="44.53100115068646" lon="10.03257126686119"><ele>833.6666666666667</ele><time>2026-05-02T14:10:50.999Z</time></trkpt><trkpt lat="44.530841240004804" lon="10.032632377227813"><ele>839.0</ele><time>2026-05-02T14:10:51.999Z</time></trkpt><trkpt lat="44.530706461708974" lon="10.032604367823051"><ele>839.0</ele><time>2026-05-02T14:10:52.999Z</time></trkpt><trkpt lat="44.530603583870594" lon="10.032539110408507"><ele>839.0</ele><time>2026-05-02T14:10:53.999Z</time></trkpt><trkpt lat="44.53056573557197" lon="10.032394861170904"><ele>839.0</ele><time>2026-05-02T14:10:54.999Z</time></trkpt><trkpt lat="44.53048605398157" lon="10.032211505377582"><ele>839.0</ele><time>2026-05-02T14:10:55.999Z</time></trkpt><trkpt lat="44.530431585283615" lon="10.032028345859256"><ele>839.0</ele><time>2026-05-02T14:10:56.999Z</time></trkpt><trkpt lat="44.53037268165049" lon="10.031895857437785"><ele>839.0</ele><time>2026-05-02T14:10:57.999Z</time></trkpt><trkpt lat="44.53031453018666" lon="10.031785739336708"><ele>839.0</ele><time>2026-05-02T14:10:58.999Z</time></trkpt><trkpt lat="44.53026530210556" lon="10.031671839296413"><ele>839.0</ele><time>2026-05-02T14:10:59.999Z</time></trkpt><trkpt lat="44.530201004430026" lon="10.031529908072846"><ele>839.0</ele><time>2026-05-02T14:11:00.999Z</time></trkpt><trkpt lat="44.530123418033384" lon="10.03136048685786"><ele>839.0</ele><time>2026-05-02T14:11:01.999Z</time></trkpt><trkpt lat="44.53004157216502" lon="10.031197613927505"><ele>839.0</ele><time>2026-05-02T14:11:02.999Z</time></trkpt><trkpt lat="44.5299380942858" lon="10.031063069361302"><ele>839.0</ele><time>2026-05-02T14:11:03.999Z</time></trkpt><trkpt lat="44.529797185078515" lon="10.030946711235826"><ele>839.0</ele><time>2026-05-02T14:11:04.999Z</time></trkpt><trkpt lat="44.529619418109085" lon="10.030865716869716"><ele>838.3333333333334</ele><time>2026-05-02T14:11:05.999Z</time></trkpt><trkpt lat="44.529449645873754" lon="10.030818410544486"><ele>837.6666666666667</ele><time>2026-05-02T14:11:06.999Z</time></trkpt><trkpt lat="44.52929766365223" lon="10.030722151586952"><ele>837.0</ele><time>2026-05-02T14:11:07.999Z</time></trkpt><trkpt lat="44.52914887354408" lon="10.030559797160963"><ele>837.0</ele><time>2026-05-02T14:11:08.999Z</time></trkpt><trkpt lat="44.5290160021305" lon="10.030324038179488"><ele>837.0</ele><time>2026-05-02T14:11:09.999Z</time></trkpt><trkpt lat="44.52887876223364" lon="10.030078363847768"><ele>837.0</ele><time>2026-05-02T14:11:10.999Z</time></trkpt><trkpt lat="44.52875321724929" lon="10.029854495179888"><ele>838.0</ele><time>2026-05-02T14:11:11.999Z</time></trkpt><trkpt lat="44.52863539314088" lon="10.029626680357861"><ele>839.0</ele><time>2026-05-02T14:11:12.999Z</time></trkpt><trkpt lat="44.52850355139844" lon="10.0293911416253"><ele>840.0</ele><time>2026-05-02T14:11:13.999Z</time></trkpt><trkpt lat="44.528379088711034" lon="10.029161036550452"><ele>838.6666666666667</ele><time>2026-05-02T14:11:14.999Z</time></trkpt><trkpt lat="44.5282801096817" lon="10.028933116349991"><ele>837.3333333333334</ele><time>2026-05-02T14:11:15.999Z</time></trkpt><trkpt lat="44.52821628839793" lon="10.028717760989434"><ele>836.0</ele><time>2026-05-02T14:11:16.999Z</time></trkpt><trkpt lat="44.528183785540016" lon="10.028480657494898"><ele>839.6666666666667</ele><time>2026-05-02T14:11:17.999Z</time></trkpt><trkpt lat="44.52819115307969" lon="10.028232102944433"><ele>843.3333333333333</ele><time>2026-05-02T14:11:18.999Z</time></trkpt><trkpt lat="44.52827211584657" lon="10.027998893111905"><ele>847.0</ele><time>2026-05-02T14:11:19.999Z</time></trkpt><trkpt lat="44.52840476898947" lon="10.027812836903031"><ele>847.0</ele><time>2026-05-02T14:11:20.999Z</time></trkpt><trkpt lat="44.528549285250676" lon="10.02762233839902"><ele>847.0</ele><time>2026-05-02T14:11:21.999Z</time></trkpt><trkpt lat="44.52869782638381" lon="10.027454650023225"><ele>847.0</ele><time>2026-05-02T14:11:22.999Z</time></trkpt><trkpt lat="44.5288050386119" lon="10.02723854990456"><ele>843.6666666666666</ele><time>2026-05-02T14:11:23.999Z</time></trkpt><trkpt lat="44.52887552990013" lon="10.026972463691854"><ele>840.3333333333333</ele><time>2026-05-02T14:11:24.999Z</time></trkpt><trkpt lat="44.52891253981779" lon="10.026682349678829"><ele>837.0</ele><time>2026-05-02T14:11:25.999Z</time></trkpt><trkpt lat="44.528941353121404" lon="10.026388231703347"><ele>837.0</ele><time>2026-05-02T14:11:26.999Z</time></trkpt><trkpt lat="44.528982908375184" lon="10.026131909487818"><ele>837.0</ele><time>2026-05-02T14:11:27.999Z</time></trkpt><trkpt lat="44.52903216094214" lon="10.025912384694672"><ele>837.0</ele><time>2026-05-02T14:11:28.999Z</time></trkpt><trkpt lat="44.52910827666732" lon="10.02567140813265"><ele>842.6666666666667</ele><time>2026-05-02T14:11:29.999Z</time></trkpt><trkpt lat="44.52923166583905" lon="10.025454860909786"><ele>848.3333333333334</ele><time>2026-05-02T14:11:30.999Z</time></trkpt><trkpt lat="44.52938267424081" lon="10.02526382052728"><ele>854.0</ele><time>2026-05-02T14:11:31.999Z</time></trkpt><trkpt lat="44.529546951927536" lon="10.025068255164294"><ele>851.3333333333334</ele><time>2026-05-02T14:11:32.999Z</time></trkpt><trkpt lat="44.529698115128625" lon="10.024886598614124"><ele>848.6666666666667</ele><time>2026-05-02T14:11:33.999Z</time></trkpt><trkpt lat="44.52987066919101" lon="10.024756349733993"><ele>846.0</ele><time>2026-05-02T14:11:34.999Z</time></trkpt><trkpt lat="44.53006486925695" lon="10.02467090370714"><ele>846.0</ele><time>2026-05-02T14:11:36Z</time></trkpt><trkpt lat="44.53027998824359" lon="10.024569614085141"><ele>846.0</ele><time>2026-05-02T14:11:37Z</time></trkpt><trkpt lat="44.530493328864765" lon="10.024507669845512"><ele>846.0</ele><time>2026-05-02T14:11:38Z</time></trkpt><trkpt lat="44.53067897864926" lon="10.024417494771969"><ele>842.3333333333333</ele><time>2026-05-02T14:11:39Z</time></trkpt><trkpt lat="44.530819118198124" lon="10.024310275846492"><ele>838.6666666666666</ele><time>2026-05-02T14:11:40Z</time></trkpt><trkpt lat="44.530948457095406" lon="10.0241528283924"><ele>835.0</ele><time>2026-05-02T14:11:41Z</time></trkpt><trkpt lat="44.53106886975894" lon="10.023946284738917"><ele>835.0</ele><time>2026-05-02T14:11:42Z</time></trkpt><trkpt lat="44.53120655315546" lon="10.02370270235222"><ele>835.0</ele><time>2026-05-02T14:11:43Z</time></trkpt><trkpt lat="44.53133997955282" lon="10.02348849616134"><ele>835.0</ele><time>2026-05-02T14:11:44Z</time></trkpt><trkpt lat="44.5314445619577" lon="10.02330856174699"><ele>825.6666666666666</ele><time>2026-05-02T14:11:45Z</time></trkpt><trkpt lat="44.531508804173825" lon="10.023098172094416"><ele>816.3333333333333</ele><time>2026-05-02T14:11:46Z</time></trkpt><trkpt lat="44.531518533642334" lon="10.022828369607284"><ele>807.0</ele><time>2026-05-02T14:11:47Z</time></trkpt><trkpt lat="44.531504466498895" lon="10.02253197137178"><ele>806.0</ele><time>2026-05-02T14:11:48Z</time></trkpt><trkpt lat="44.531510549462695" lon="10.022286867139584"><ele>805.0</ele><time>2026-05-02T14:11:49Z</time></trkpt><trkpt lat="44.53150361655975" lon="10.022100396406577"><ele>804.0</ele><time>2026-05-02T14:11:50Z</time></trkpt><trkpt lat="44.53145349106399" lon="10.02193199389457"><ele>803.0</ele><time>2026-05-02T14:11:51Z</time></trkpt><trkpt lat="44.53133068238009" lon="10.021771811956247"><ele>803.3333333333334</ele><time>2026-05-02T14:11:52Z</time></trkpt><trkpt lat="44.53114751053442" lon="10.021662903678635"><ele>803.6666666666667</ele><time>2026-05-02T14:11:53Z</time></trkpt><trkpt lat="44.53094081197154" lon="10.021558504497325"><ele>804.0</ele><time>2026-05-02T14:11:54Z</time></trkpt><trkpt lat="44.53074060381486" lon="10.021382392654427"><ele>804.0</ele><time>2026-05-02T14:11:55Z</time></trkpt><trkpt lat="44.530539924871434" lon="10.021210288417114"><ele>804.0</ele><time>2026-05-02T14:11:56Z</time></trkpt><trkpt lat="44.5303269136408" lon="10.020999396279727"><ele>805.0</ele><time>2026-05-02T14:11:57Z</time></trkpt><trkpt lat="44.530112658514895" lon="10.02079578530633"><ele>806.0</ele><time>2026-05-02T14:11:58Z</time></trkpt><trkpt lat="44.529911818632385" lon="10.02061878022139"><ele>806.0</ele><time>2026-05-02T14:11:59Z</time></trkpt><trkpt lat="44.52972261211196" lon="10.020454554805394"><ele>806.0</ele><time>2026-05-02T14:12:00Z</time></trkpt><trkpt lat="44.52955311392353" lon="10.02028897353739"><ele>806.0</ele><time>2026-05-02T14:12:01Z</time></trkpt><trkpt lat="44.529402614663326" lon="10.020100855228137"><ele>806.6666666666667</ele><time>2026-05-02T14:12:02Z</time></trkpt><trkpt lat="44.5293268482141" lon="10.019857947875456"><ele>807.3333333333333</ele><time>2026-05-02T14:12:03Z</time></trkpt><trkpt lat="44.52924562671785" lon="10.01958054297617"><ele>808.0</ele><time>2026-05-02T14:12:04Z</time></trkpt><trkpt lat="44.529198968335116" lon="10.01926905420528"><ele>805.0</ele><time>2026-05-02T14:12:05Z</time></trkpt><trkpt lat="44.529150373562715" lon="10.019011411744906"><ele>802.0</ele><time>2026-05-02T14:12:06Z</time></trkpt><trkpt lat="44.529082491882704" lon="10.018825223298112"><ele>799.0</ele><time>2026-05-02T14:12:07Z</time></trkpt><trkpt lat="44.528976944238856" lon="10.018676398775442"><ele>799.0</ele><time>2026-05-02T14:12:08Z</time></trkpt><trkpt lat="44.52882235894262" lon="10.018588485249364"><ele>799.0</ele><time>2026-05-02T14:12:09Z</time></trkpt><trkpt lat="44.528646386707386" lon="10.018593699446233"><ele>799.0</ele><time>2026-05-02T14:12:10Z</time></trkpt><trkpt lat="44.52846876929286" lon="10.01866640611218"><ele>800.6666666666666</ele><time>2026-05-02T14:12:11Z</time></trkpt><trkpt lat="44.52825952933584" lon="10.01880501879405"><ele>802.3333333333333</ele><time>2026-05-02T14:12:12Z</time></trkpt><trkpt lat="44.52804667464941" lon="10.018868352056174"><ele>804.0</ele><time>2026-05-02T14:12:13Z</time></trkpt><trkpt lat="44.52786559912671" lon="10.018890635309347"><ele>804.3333333333333</ele><time>2026-05-02T14:12:14Z</time></trkpt><trkpt lat="44.52769410106333" lon="10.018835786603427"><ele>804.6666666666666</ele><time>2026-05-02T14:12:15Z</time></trkpt><trkpt lat="44.527483968734856" lon="10.01875167587181"><ele>805.0</ele><time>2026-05-02T14:12:16Z</time></trkpt><trkpt lat="44.52730144222869" lon="10.018645404471416"><ele>805.0</ele><time>2026-05-02T14:12:17Z</time></trkpt><trkpt lat="44.527155492219855" lon="10.018511606291415"><ele>805.0</ele><time>2026-05-02T14:12:18Z</time></trkpt><trkpt lat="44.52705126008235" lon="10.018325200010757"><ele>805.0</ele><time>2026-05-02T14:12:19Z</time></trkpt><trkpt lat="44.526978439886776" lon="10.018064781674719"><ele>806.3333333333333</ele><time>2026-05-02T14:12:20Z</time></trkpt><trkpt lat="44.52692347295658" lon="10.017755628579714"><ele>807.6666666666667</ele><time>2026-05-02T14:12:21Z</time></trkpt><trkpt lat="44.526879307848894" lon="10.017453446303435"><ele>809.0</ele><time>2026-05-02T14:12:22Z</time></trkpt><trkpt lat="44.526833407321256" lon="10.017176410725533"><ele>809.0</ele><time>2026-05-02T14:12:23Z</time></trkpt><trkpt lat="44.52678803469687" lon="10.016924861356177"><ele>809.0</ele><time>2026-05-02T14:12:24Z</time></trkpt><trkpt lat="44.5267218550628" lon="10.016639680105362"><ele>809.0</ele><time>2026-05-02T14:12:25Z</time></trkpt><trkpt lat="44.52661967582174" lon="10.016349531507144"><ele>807.3333333333334</ele><time>2026-05-02T14:12:26Z</time></trkpt><trkpt lat="44.5265137203986" lon="10.016087340254405"><ele>805.6666666666667</ele><time>2026-05-02T14:12:27Z</time></trkpt><trkpt lat="44.52642553366443" lon="10.015864093012121"><ele>804.0</ele><time>2026-05-02T14:12:28Z</time></trkpt><trkpt lat="44.52634928079776" lon="10.015655251346663"><ele>802.6666666666667</ele><time>2026-05-02T14:12:29Z</time></trkpt><trkpt lat="44.52625740680666" lon="10.015465624934041"><ele>801.3333333333334</ele><time>2026-05-02T14:12:30Z</time></trkpt><trkpt lat="44.526102989634374" lon="10.015292766743935"><ele>800.0</ele><time>2026-05-02T14:12:31Z</time></trkpt><trkpt lat="44.52595822165065" lon="10.015264501166559"><ele>800.0</ele><time>2026-05-02T14:12:32Z</time></trkpt><trkpt lat="44.525784849179324" lon="10.015262093944944"><ele>800.0</ele><time>2026-05-02T14:12:33Z</time></trkpt><trkpt lat="44.52562081088079" lon="10.015322525205471"><ele>800.0</ele><time>2026-05-02T14:12:34Z</time></trkpt><trkpt lat="44.52548534637709" lon="10.015279684856925"><ele>799.6666666666667</ele><time>2026-05-02T14:12:35Z</time></trkpt><trkpt lat="44.525348970981916" lon="10.015159100070397"><ele>799.3333333333333</ele><time>2026-05-02T14:12:36Z</time></trkpt><trkpt lat="44.52522449373794" lon="10.01495811042299"><ele>799.0</ele><time>2026-05-02T14:12:37Z</time></trkpt><trkpt lat="44.525104867946915" lon="10.014720830006812"><ele>799.0</ele><time>2026-05-02T14:12:38Z</time></trkpt><trkpt lat="44.52499774439103" lon="10.01446157282101"><ele>799.0</ele><time>2026-05-02T14:12:39Z</time></trkpt><trkpt lat="44.524887139785925" lon="10.01424682551898"><ele>799.0</ele><time>2026-05-02T14:12:40Z</time></trkpt><trkpt lat="44.524768976499324" lon="10.014083276021493"><ele>797.3333333333333</ele><time>2026-05-02T14:12:41Z</time></trkpt><trkpt lat="44.524609966725045" lon="10.013989673440728"><ele>795.6666666666667</ele><time>2026-05-02T14:12:42Z</time></trkpt><trkpt lat="44.52440224181977" lon="10.013901682784452"><ele>794.0</ele><time>2026-05-02T14:12:43Z</time></trkpt><trkpt lat="44.52417295600385" lon="10.013792105369014"><ele>794.0</ele><time>2026-05-02T14:12:43.999Z</time></trkpt><trkpt lat="44.523955125281006" lon="10.01369081854836"><ele>794.0</ele><time>2026-05-02T14:12:44.999Z</time></trkpt><trkpt lat="44.52376829694208" lon="10.01359733738068"><ele>794.0</ele><time>2026-05-02T14:12:45.999Z</time></trkpt><trkpt lat="44.5235935344788" lon="10.013533086550417"><ele>792.0</ele><time>2026-05-02T14:12:46.999Z</time></trkpt><trkpt lat="44.52343282827506" lon="10.013552841686169"><ele>790.0</ele><time>2026-05-02T14:12:47.999Z</time></trkpt><trkpt lat="44.52328170040863" lon="10.013650710057858"><ele>788.0</ele><time>2026-05-02T14:12:48.999Z</time></trkpt><trkpt lat="44.52311416710273" lon="10.013846430426286"><ele>788.0</ele><time>2026-05-02T14:12:49.999Z</time></trkpt><trkpt lat="44.52293277761245" lon="10.014023136024205"><ele>788.0</ele><time>2026-05-02T14:12:50.999Z</time></trkpt><trkpt lat="44.52276786231951" lon="10.01418810619109"><ele>788.0</ele><time>2026-05-02T14:12:51.999Z</time></trkpt><trkpt lat="44.52262753178964" lon="10.0143227839029"><ele>787.75</ele><time>2026-05-02T14:12:52.999Z</time></trkpt><trkpt lat="44.52251646417315" lon="10.014427203894002"><ele>787.5</ele><time>2026-05-02T14:12:53.999Z</time></trkpt><trkpt lat="44.52238541966893" lon="10.014440101303151"><ele>787.25</ele><time>2026-05-02T14:12:54.999Z</time></trkpt><trkpt lat="44.52226312395492" lon="10.014373584122165"><ele>787.0</ele><time>2026-05-02T14:12:55.999Z</time></trkpt><trkpt lat="44.522160633135236" lon="10.0142244654792"><ele>793.6666666666666</ele><time>2026-05-02T14:12:56.999Z</time></trkpt><trkpt lat="44.52204239800737" lon="10.014049023216419"><ele>800.3333333333333</ele><time>2026-05-02T14:12:57.999Z</time></trkpt><trkpt lat="44.52195320950068" lon="10.01383632212933"><ele>807.0</ele><time>2026-05-02T14:12:58.999Z</time></trkpt><trkpt lat="44.521895169496034" lon="10.01362915942798"><ele>807.0</ele><time>2026-05-02T14:12:59.999Z</time></trkpt><trkpt lat="44.52187322235079" lon="10.013370496402251"><ele>807.0</ele><time>2026-05-02T14:13:00.999Z</time></trkpt><trkpt lat="44.52189172480299" lon="10.01314754051318"><ele>807.0</ele><time>2026-05-02T14:13:01.999Z</time></trkpt><trkpt lat="44.52190510267554" lon="10.012956182467882"><ele>804.5</ele><time>2026-05-02T14:13:02.999Z</time></trkpt><trkpt lat="44.52191492284058" lon="10.01280375928885"><ele>802.0</ele><time>2026-05-02T14:13:03.999Z</time></trkpt><trkpt lat="44.521819223042826" lon="10.012286066257964"><ele>798.0</ele><time>2026-05-02T14:13:04.999Z</time></trkpt><trkpt lat="44.5217571824423" lon="10.012016240306048"><ele>794.0</ele><time>2026-05-02T14:13:05.999Z</time></trkpt><trkpt lat="44.521645167577184" lon="10.011723720437658"><ele>790.0</ele><time>2026-05-02T14:13:06.999Z</time></trkpt><trkpt lat="44.52155350282176" lon="10.011453258662245"><ele>789.0</ele><time>2026-05-02T14:13:07.999Z</time></trkpt><trkpt lat="44.52153140882431" lon="10.011160527644012"><ele>788.0</ele><time>2026-05-02T14:13:08.999Z</time></trkpt><trkpt lat="44.521529478818856" lon="10.010847730869317"><ele>787.0</ele><time>2026-05-02T14:13:09.999Z</time></trkpt><trkpt lat="44.521522478924396" lon="10.010569083645114"><ele>787.0</ele><time>2026-05-02T14:13:10.999Z</time></trkpt><trkpt lat="44.52152881493696" lon="10.010322759027828"><ele>787.0</ele><time>2026-05-02T14:13:11.999Z</time></trkpt><trkpt lat="44.52151357215775" lon="10.01009726641249"><ele>787.0</ele><time>2026-05-02T14:13:12.999Z</time></trkpt><trkpt lat="44.521467721522946" lon="10.009900579184007"><ele>788.6666666666666</ele><time>2026-05-02T14:13:13.999Z</time></trkpt><trkpt lat="44.52138361811512" lon="10.009751777378519"><ele>790.3333333333333</ele><time>2026-05-02T14:13:14.999Z</time></trkpt><trkpt lat="44.5212515938098" lon="10.00962769593741"><ele>792.0</ele><time>2026-05-02T14:13:15.999Z</time></trkpt><trkpt lat="44.521069475703214" lon="10.009533275107435"><ele>792.0</ele><time>2026-05-02T14:13:16.999Z</time></trkpt><trkpt lat="44.52088584081589" lon="10.009474150869188"><ele>792.0</ele><time>2026-05-02T14:13:17.999Z</time></trkpt><trkpt lat="44.520723142555696" lon="10.009383709543679"><ele>792.0</ele><time>2026-05-02T14:13:18.999Z</time></trkpt><trkpt lat="44.520580822421756" lon="10.009176925348964"><ele>789.6666666666667</ele><time>2026-05-02T14:13:19.999Z</time></trkpt><trkpt lat="44.52045130538415" lon="10.008908392705575"><ele>787.3333333333334</ele><time>2026-05-02T14:13:20.999Z</time></trkpt><trkpt lat="44.52031849825787" lon="10.008673364698758"><ele>785.0</ele><time>2026-05-02T14:13:21.999Z</time></trkpt><trkpt lat="44.52023162242175" lon="10.008447642227173"><ele>792.0</ele><time>2026-05-02T14:13:22.999Z</time></trkpt><trkpt lat="44.52018541454635" lon="10.008200386521146"><ele>799.0</ele><time>2026-05-02T14:13:23.999Z</time></trkpt><trkpt lat="44.520153234062526" lon="10.007936576836654"><ele>806.0</ele><time>2026-05-02T14:13:24.999Z</time></trkpt><trkpt lat="44.52012513046126" lon="10.007694321367591"><ele>801.75</ele><time>2026-05-02T14:13:25.999Z</time></trkpt><trkpt lat="44.52010925143447" lon="10.007472372163384"><ele>797.5</ele><time>2026-05-02T14:13:26.999Z</time></trkpt><trkpt lat="44.52008339424245" lon="10.007289320357593"><ele>793.25</ele><time>2026-05-02T14:13:27.999Z</time></trkpt><trkpt lat="44.52004742766557" lon="10.007142451471234"><ele>789.0</ele><time>2026-05-02T14:13:28.999Z</time></trkpt><trkpt lat="44.519979768667426" lon="10.007022653062213"><ele>789.0</ele><time>2026-05-02T14:13:29.999Z</time></trkpt><trkpt lat="44.51984957659462" lon="10.006948046282055"><ele>789.0</ele><time>2026-05-02T14:13:30.999Z</time></trkpt><trkpt lat="44.519694013037004" lon="10.006953322143373"><ele>789.0</ele><time>2026-05-02T14:13:31.999Z</time></trkpt><trkpt lat="44.51953888456654" lon="10.007017681365758"><ele>787.0</ele><time>2026-05-02T14:13:32.999Z</time></trkpt><trkpt lat="44.519381768277086" lon="10.007159222470808"><ele>785.0</ele><time>2026-05-02T14:13:33.999Z</time></trkpt><trkpt lat="44.51923128697947" lon="10.007340930236175"><ele>783.0</ele><time>2026-05-02T14:13:34.999Z</time></trkpt><trkpt lat="44.519078587594294" lon="10.007482500119245"><ele>791.3333333333333</ele><time>2026-05-02T14:13:35.999Z</time></trkpt><trkpt lat="44.51891872602215" lon="10.007513196251718"><ele>799.6666666666666</ele><time>2026-05-02T14:13:36.999Z</time></trkpt><trkpt lat="44.51870072325271" lon="10.00751022153217"><ele>808.0</ele><time>2026-05-02T14:13:37.999Z</time></trkpt><trkpt lat="44.51848381927623" lon="10.007494076845052"><ele>801.6666666666666</ele><time>2026-05-02T14:13:38.999Z</time></trkpt><trkpt lat="44.51829113070326" lon="10.007479472095785"><ele>795.3333333333333</ele><time>2026-05-02T14:13:39.999Z</time></trkpt><trkpt lat="44.51811834049863" lon="10.007466078771081"><ele>789.0</ele><time>2026-05-02T14:13:40.999Z</time></trkpt><trkpt lat="44.51791063598839" lon="10.007394634799873"><ele>793.6666666666667</ele><time>2026-05-02T14:13:42Z</time></trkpt><trkpt lat="44.51770780183267" lon="10.007293252835112"><ele>798.3333333333334</ele><time>2026-05-02T14:13:43Z</time></trkpt><trkpt lat="44.517546818515875" lon="10.007084322984444"><ele>803.0</ele><time>2026-05-02T14:13:44Z</time></trkpt><trkpt lat="44.517370089087905" lon="10.006903965013555"><ele>803.0</ele><time>2026-05-02T14:13:45Z</time></trkpt><trkpt lat="44.51719746408664" lon="10.00671214067804"><ele>803.0</ele><time>2026-05-02T14:13:46Z</time></trkpt><trkpt lat="44.51699030738216" lon="10.00653318848312"><ele>801.0</ele><time>2026-05-02T14:13:47Z</time></trkpt><trkpt lat="44.516784113770484" lon="10.006357136649711"><ele>799.0</ele><time>2026-05-02T14:13:48Z</time></trkpt><trkpt lat="44.51659289600695" lon="10.006185618453536"><ele>799.0</ele><time>2026-05-02T14:13:49Z</time></trkpt><trkpt lat="44.51643074047353" lon="10.006033385361444"><ele>799.0</ele><time>2026-05-02T14:13:50Z</time></trkpt><trkpt lat="44.51631539678768" lon="10.005920667433633"><ele>799.0</ele><time>2026-05-02T14:13:51Z</time></trkpt><trkpt lat="44.51621403135332" lon="10.005842476030717"><ele>798.3333333333333</ele><time>2026-05-02T14:13:52Z</time></trkpt><trkpt lat="44.516085669545504" lon="10.005821314768651"><ele>797.6666666666667</ele><time>2026-05-02T14:13:53Z</time></trkpt><trkpt lat="44.51593016560114" lon="10.005892121749213"><ele>797.0</ele><time>2026-05-02T14:13:54Z</time></trkpt><trkpt lat="44.51576479726836" lon="10.006027121505577"><ele>800.0</ele><time>2026-05-02T14:13:55Z</time></trkpt><trkpt lat="44.51559961370993" lon="10.006160258251674"><ele>803.0</ele><time>2026-05-02T14:13:56Z</time></trkpt><trkpt lat="44.51543760286004" lon="10.006213820573546"><ele>806.0</ele><time>2026-05-02T14:13:57Z</time></trkpt><trkpt lat="44.51527035326208" lon="10.006184695891335"><ele>806.0</ele><time>2026-05-02T14:13:58Z</time></trkpt><trkpt lat="44.515122073804775" lon="10.006097716486378"><ele>806.0</ele><time>2026-05-02T14:13:59Z</time></trkpt><trkpt lat="44.51483626019574" lon="10.005953521016515"><ele>806.0</ele><time>2026-05-02T14:14:00Z</time></trkpt><trkpt lat="44.514586261337314" lon="10.00583201904876"><ele>806.0</ele><time>2026-05-02T14:14:01Z</time></trkpt><trkpt lat="44.51432287277148" lon="10.005677949861802"><ele>802.5</ele><time>2026-05-02T14:14:02Z</time></trkpt><trkpt lat="44.51409317778963" lon="10.00554752035846"><ele>799.0</ele><time>2026-05-02T14:14:03Z</time></trkpt><trkpt lat="44.51389663114283" lon="10.005437283339882"><ele>799.0</ele><time>2026-05-02T14:14:04Z</time></trkpt><trkpt lat="44.51373942202434" lon="10.00536173345377"><ele>799.0</ele><time>2026-05-02T14:14:05Z</time></trkpt><trkpt lat="44.513591685498724" lon="10.005327642997202"><ele>799.0</ele><time>2026-05-02T14:14:06Z</time></trkpt><trkpt lat="44.51340996779876" lon="10.005365928926278"><ele>799.6666666666666</ele><time>2026-05-02T14:14:07Z</time></trkpt><trkpt lat="44.51324381986568" lon="10.005444444753815"><ele>800.3333333333333</ele><time>2026-05-02T14:14:08Z</time></trkpt><trkpt lat="44.51309289416774" lon="10.005462974973911"><ele>801.0</ele><time>2026-05-02T14:14:09Z</time></trkpt><trkpt lat="44.51296666059488" lon="10.005322865654348"><ele>801.3333333333333</ele><time>2026-05-02T14:14:10Z</time></trkpt><trkpt lat="44.51280610690399" lon="10.005166350173006"><ele>801.6666666666666</ele><time>2026-05-02T14:14:11Z</time></trkpt><trkpt lat="44.51266572366102" lon="10.005001621716714"><ele>802.0</ele><time>2026-05-02T14:14:12Z</time></trkpt><trkpt lat="44.51252504679265" lon="10.004776683662154"><ele>802.0</ele><time>2026-05-02T14:14:13Z</time></trkpt><trkpt lat="44.51237786847217" lon="10.004508260978117"><ele>802.0</ele><time>2026-05-02T14:14:14Z</time></trkpt><trkpt lat="44.51223617061198" lon="10.004274734463689"><ele>796.0</ele><time>2026-05-02T14:14:15Z</time></trkpt><trkpt lat="44.512138593934225" lon="10.00408978521508"><ele>790.0</ele><time>2026-05-02T14:14:16Z</time></trkpt><trkpt lat="44.5120258223582" lon="10.003948219437543"><ele>784.0</ele><time>2026-05-02T14:14:17Z</time></trkpt><trkpt lat="44.51184757828405" lon="10.00383869988666"><ele>784.0</ele><time>2026-05-02T14:14:18Z</time></trkpt><trkpt lat="44.51165513874625" lon="10.003767650571474"><ele>784.0</ele><time>2026-05-02T14:14:19Z</time></trkpt><trkpt lat="44.51150931835586" lon="10.003724872018749"><ele>784.0</ele><time>2026-05-02T14:14:20Z</time></trkpt><trkpt lat="44.51138013859961" lon="10.00374341269686"><ele>784.0</ele><time>2026-05-02T14:14:21Z</time></trkpt><trkpt lat="44.51126042619917" lon="10.003842847194237"><ele>784.0</ele><time>2026-05-02T14:14:22Z</time></trkpt><trkpt lat="44.51114988206197" lon="10.00404603111183"><ele>784.0</ele><time>2026-05-02T14:14:23Z</time></trkpt><trkpt lat="44.511024608265586" lon="10.004294237754385"><ele>789.3333333333333</ele><time>2026-05-02T14:14:24Z</time></trkpt><trkpt lat="44.510888860238964" lon="10.004493729884327"><ele>794.6666666666667</ele><time>2026-05-02T14:14:25Z</time></trkpt><trkpt lat="44.51074058392315" lon="10.004556280076267"><ele>800.0</ele><time>2026-05-02T14:14:26Z</time></trkpt><trkpt lat="44.51060877856694" lon="10.004525989825382"><ele>800.0</ele><time>2026-05-02T14:14:27Z</time></trkpt><trkpt lat="44.510480533152204" lon="10.00442820249599"><ele>800.0</ele><time>2026-05-02T14:14:28Z</time></trkpt><trkpt lat="44.51031389283044" lon="10.004263048655261"><ele>800.0</ele><time>2026-05-02T14:14:29Z</time></trkpt><trkpt lat="44.51013046235733" lon="10.004103941315515"><ele>794.0</ele><time>2026-05-02T14:14:30Z</time></trkpt><trkpt lat="44.50998636109289" lon="10.003975204371358"><ele>788.0</ele><time>2026-05-02T14:14:31Z</time></trkpt><trkpt lat="44.509861687672455" lon="10.003920221594184"><ele>782.0</ele><time>2026-05-02T14:14:32Z</time></trkpt><trkpt lat="44.50972390545622" lon="10.004028188888327"><ele>785.0</ele><time>2026-05-02T14:14:33Z</time></trkpt><trkpt lat="44.50956170998361" lon="10.004195366221799"><ele>788.0</ele><time>2026-05-02T14:14:34Z</time></trkpt><trkpt lat="44.50940785071098" lon="10.004305783796456"><ele>791.0</ele><time>2026-05-02T14:14:35Z</time></trkpt><trkpt lat="44.50928634369527" lon="10.00435995358558"><ele>791.0</ele><time>2026-05-02T14:14:36Z</time></trkpt><trkpt lat="44.50916692579498" lon="10.00433769034673"><ele>791.0</ele><time>2026-05-02T14:14:37Z</time></trkpt><trkpt lat="44.509010201441384" lon="10.004216499952681"><ele>791.0</ele><time>2026-05-02T14:14:38Z</time></trkpt><trkpt lat="44.50888531772556" lon="10.004138542390637"><ele>791.0</ele><time>2026-05-02T14:14:39Z</time></trkpt><trkpt lat="44.508819924202655" lon="10.004046869755504"><ele>792.3333333333334</ele><time>2026-05-02T14:14:40Z</time></trkpt><trkpt lat="44.50880762270092" lon="10.003886649918817"><ele>793.6666666666667</ele><time>2026-05-02T14:14:41Z</time></trkpt><trkpt lat="44.508883396480854" lon="10.003705451313774"><ele>795.0</ele><time>2026-05-02T14:14:42Z</time></trkpt><trkpt lat="44.50895802267479" lon="10.003459695152168"><ele>797.5</ele><time>2026-05-02T14:14:43Z</time></trkpt><trkpt lat="44.509084300587645" lon="10.003172363063525"><ele>800.0</ele><time>2026-05-02T14:14:44Z</time></trkpt><trkpt lat="44.50922324745474" lon="10.002892249857776"><ele>800.0</ele><time>2026-05-02T14:14:45Z</time></trkpt><trkpt lat="44.50929044918207" lon="10.002736689760305"><ele>800.0</ele><time>2026-05-02T14:14:46Z</time></trkpt><trkpt lat="44.509316974182795" lon="10.002637051407746"><ele>800.0</ele><time>2026-05-02T14:14:47Z</time></trkpt><trkpt lat="44.50930954856344" lon="10.002524863073688"><ele>800.0</ele><time>2026-05-02T14:14:48Z</time></trkpt><trkpt lat="44.50924026120972" lon="10.002311888792137"><ele>801.3333333333334</ele><time>2026-05-02T14:14:48.999Z</time></trkpt><trkpt lat="44.50910374539114" lon="10.002214309050816"><ele>802.6666666666667</ele><time>2026-05-02T14:14:49.999Z</time></trkpt><trkpt lat="44.50891267382269" lon="10.00215623484547"><ele>804.0</ele><time>2026-05-02T14:14:50.999Z</time></trkpt><trkpt lat="44.50870850065376" lon="10.002009820679753"><ele>804.0</ele><time>2026-05-02T14:14:51.999Z</time></trkpt><trkpt lat="44.508459467385386" lon="10.00186211103282"><ele>804.0</ele><time>2026-05-02T14:14:52.999Z</time></trkpt><trkpt lat="44.50825581756883" lon="10.001769471701897"><ele>804.0</ele><time>2026-05-02T14:14:53.999Z</time></trkpt><trkpt lat="44.50810839971455" lon="10.001700776755452"><ele>804.0</ele><time>2026-05-02T14:14:54.999Z</time></trkpt><trkpt lat="44.50797178384135" lon="10.001660466615034"><ele>804.0</ele><time>2026-05-02T14:14:55.999Z</time></trkpt><trkpt lat="44.50785859590163" lon="10.001569757546868"><ele>804.0</ele><time>2026-05-02T14:14:56.999Z</time></trkpt><trkpt lat="44.50775543997847" lon="10.001431885751732"><ele>803.0</ele><time>2026-05-02T14:14:57.999Z</time></trkpt><trkpt lat="44.50765594886755" lon="10.001207486986187"><ele>802.0</ele><time>2026-05-02T14:14:58.999Z</time></trkpt><trkpt lat="44.50754078197282" lon="10.000939622175189"><ele>801.0</ele><time>2026-05-02T14:14:59.999Z</time></trkpt><trkpt lat="44.50742660045871" lon="10.00066383171949"><ele>801.0</ele><time>2026-05-02T14:15:00.999Z</time></trkpt><trkpt lat="44.50730372181596" lon="10.000434592492686"><ele>801.0</ele><time>2026-05-02T14:15:01.999Z</time></trkpt><trkpt lat="44.50716135587661" lon="10.000233833447757"><ele>801.0</ele><time>2026-05-02T14:15:02.999Z</time></trkpt><trkpt lat="44.50700297654115" lon="10.000046938674794"><ele>803.6666666666667</ele><time>2026-05-02T14:15:03.999Z</time></trkpt><trkpt lat="44.506840617103045" lon="9.99986551028983"><ele>806.3333333333334</ele><time>2026-05-02T14:15:04.999Z</time></trkpt><trkpt lat="44.50669219812212" lon="9.999682992363299"><ele>809.0</ele><time>2026-05-02T14:15:05.999Z</time></trkpt><trkpt lat="44.5065593791105" lon="9.999520133698748"><ele>809.0</ele><time>2026-05-02T14:15:06.999Z</time></trkpt><trkpt lat="44.506429499992485" lon="9.999362334476643"><ele>809.0</ele><time>2026-05-02T14:15:07.999Z</time></trkpt><trkpt lat="44.50630105937282" lon="9.999211100993563"><ele>809.0</ele><time>2026-05-02T14:15:08.999Z</time></trkpt><trkpt lat="44.50618039161006" lon="9.999036322731305"><ele>810.6666666666667</ele><time>2026-05-02T14:15:09.999Z</time></trkpt><trkpt lat="44.506044676811754" lon="9.998899229512435"><ele>812.3333333333333</ele><time>2026-05-02T14:15:10.999Z</time></trkpt><trkpt lat="44.50591973838767" lon="9.998722810825853"><ele>814.0</ele><time>2026-05-02T14:15:11.999Z</time></trkpt><trkpt lat="44.505795409978724" lon="9.998541110829851"><ele>814.0</ele><time>2026-05-02T14:15:12.999Z</time></trkpt><trkpt lat="44.50567525146915" lon="9.99834026843606"><ele>814.0</ele><time>2026-05-02T14:15:13.999Z</time></trkpt><trkpt lat="44.5055667001471" lon="9.998106329297428"><ele>814.0</ele><time>2026-05-02T14:15:14.999Z</time></trkpt><trkpt lat="44.505466625120434" lon="9.997858706443008"><ele>814.0</ele><time>2026-05-02T14:15:15.999Z</time></trkpt><trkpt lat="44.5053638387363" lon="9.99760750118415"><ele>814.0</ele><time>2026-05-02T14:15:16.999Z</time></trkpt><trkpt lat="44.505268204909456" lon="9.997374045038642"><ele>814.0</ele><time>2026-05-02T14:15:17.999Z</time></trkpt><trkpt lat="44.50517730687643" lon="9.997137186238731"><ele>814.0</ele><time>2026-05-02T14:15:18.999Z</time></trkpt><trkpt lat="44.50508083005752" lon="9.996892901414324"><ele>814.0</ele><time>2026-05-02T14:15:19.999Z</time></trkpt><trkpt lat="44.504985776897776" lon="9.996653367742272"><ele>814.0</ele><time>2026-05-02T14:15:20.999Z</time></trkpt><trkpt lat="44.50488647167401" lon="9.99641478559166"><ele>812.6666666666666</ele><time>2026-05-02T14:15:21.999Z</time></trkpt><trkpt lat="44.50476168464404" lon="9.996169888204646"><ele>811.3333333333333</ele><time>2026-05-02T14:15:22.999Z</time></trkpt><trkpt lat="44.504613475493784" lon="9.995949909507369"><ele>810.0</ele><time>2026-05-02T14:15:23.999Z</time></trkpt><trkpt lat="44.504464810293065" lon="9.995752421274162"><ele>810.0</ele><time>2026-05-02T14:15:24.999Z</time></trkpt><trkpt lat="44.50432554279728" lon="9.995560301101696"><ele>810.0</ele><time>2026-05-02T14:15:25.999Z</time></trkpt><trkpt lat="44.504187135721835" lon="9.99537237378808"><ele>810.0</ele><time>2026-05-02T14:15:26.999Z</time></trkpt><trkpt lat="44.50402597298516" lon="9.995136866093398"><ele>807.0</ele><time>2026-05-02T14:15:27.999Z</time></trkpt><trkpt lat="44.503965498565904" lon="9.99498872048664"><ele>804.0</ele><time>2026-05-02T14:15:28.999Z</time></trkpt><trkpt lat="44.503876629220564" lon="9.99474335278788"><ele>801.0</ele><time>2026-05-02T14:15:29.999Z</time></trkpt><trkpt lat="44.50379936791499" lon="9.994486697040967"><ele>804.6666666666667</ele><time>2026-05-02T14:15:30.999Z</time></trkpt><trkpt lat="44.50373476458532" lon="9.99427951326494"><ele>808.3333333333334</ele><time>2026-05-02T14:15:31.999Z</time></trkpt><trkpt lat="44.50365566432217" lon="9.994080716472256"><ele>812.0</ele><time>2026-05-02T14:15:32.999Z</time></trkpt><trkpt lat="44.50357910135176" lon="9.993891060341943"><ele>812.0</ele><time>2026-05-02T14:15:33.999Z</time></trkpt><trkpt lat="44.50352123095002" lon="9.993696292493372"><ele>812.0</ele><time>2026-05-02T14:15:34.999Z</time></trkpt><trkpt lat="44.50349220142919" lon="9.993495890193673"><ele>812.0</ele><time>2026-05-02T14:15:35.999Z</time></trkpt><trkpt lat="44.503525293658605" lon="9.993319548716869"><ele>812.0</ele><time>2026-05-02T14:15:36.999Z</time></trkpt><trkpt lat="44.50357406921381" lon="9.993141835308514"><ele>811.0</ele><time>2026-05-02T14:15:37.999Z</time></trkpt><trkpt lat="44.50365058602245" lon="9.992979860210475"><ele>810.0</ele><time>2026-05-02T14:15:38.999Z</time></trkpt><trkpt lat="44.50372278586028" lon="9.992808587837205"><ele>809.0</ele><time>2026-05-02T14:15:39.999Z</time></trkpt><trkpt lat="44.50379208808922" lon="9.99265726740326"><ele>808.0</ele><time>2026-05-02T14:15:40.999Z</time></trkpt><trkpt lat="44.503886297696845" lon="9.992560789180619"><ele>803.3333333333333</ele><time>2026-05-02T14:15:41.999Z</time></trkpt><trkpt lat="44.50401759355727" lon="9.99255817895439"><ele>798.6666666666667</ele><time>2026-05-02T14:15:42.999Z</time></trkpt><trkpt lat="44.50416464490555" lon="9.992632297729603"><ele>794.0</ele><time>2026-05-02T14:15:43.999Z</time></trkpt><trkpt lat="44.504340839530705" lon="9.992701368619313"><ele>794.0</ele><time>2026-05-02T14:15:44.999Z</time></trkpt><trkpt lat="44.50450659653934" lon="9.992746858150552"><ele>794.0</ele><time>2026-05-02T14:15:45.999Z</time></trkpt><trkpt lat="44.50466278778973" lon="9.992777387105855"><ele>794.0</ele><time>2026-05-02T14:15:46.999Z</time></trkpt><trkpt lat="44.50481740801201" lon="9.992731953895987"><ele>794.0</ele><time>2026-05-02T14:15:48Z</time></trkpt><trkpt lat="44.50496959031057" lon="9.992626962609963"><ele>794.0</ele><time>2026-05-02T14:15:49Z</time></trkpt><trkpt lat="44.50511565865569" lon="9.992477642961708"><ele>794.0</ele><time>2026-05-02T14:15:50Z</time></trkpt><trkpt lat="44.50525988118742" lon="9.992319248835956"><ele>800.0</ele><time>2026-05-02T14:15:51Z</time></trkpt><trkpt lat="44.50540846611109" lon="9.992173404029678"><ele>806.0</ele><time>2026-05-02T14:15:52Z</time></trkpt><trkpt lat="44.50554285682521" lon="9.992056586319716"><ele>812.0</ele><time>2026-05-02T14:15:53Z</time></trkpt><trkpt lat="44.505690520512715" lon="9.991989117271254"><ele>813.6666666666667</ele><time>2026-05-02T14:15:54Z</time></trkpt><trkpt lat="44.50584133727597" lon="9.992011342945942"><ele>815.3333333333333</ele><time>2026-05-02T14:15:55Z</time></trkpt><trkpt lat="44.50596565149395" lon="9.992149045550894"><ele>817.0</ele><time>2026-05-02T14:15:56Z</time></trkpt><trkpt lat="44.50612798014272" lon="9.992302112673503"><ele>819.0</ele><time>2026-05-02T14:15:57Z</time></trkpt><trkpt lat="44.50631220052798" lon="9.992460493394098"><ele>821.0</ele><time>2026-05-02T14:15:58Z</time></trkpt><trkpt lat="44.506463952015764" lon="9.992634412723397"><ele>823.0</ele><time>2026-05-02T14:15:59Z</time></trkpt><trkpt lat="44.50658787463872" lon="9.992798589544915"><ele>823.0</ele><time>2026-05-02T14:16:00Z</time></trkpt><trkpt lat="44.50669899739739" lon="9.992973479702222"><ele>823.0</ele><time>2026-05-02T14:16:01Z</time></trkpt><trkpt lat="44.50679018682886" lon="9.99312344068526"><ele>823.0</ele><time>2026-05-02T14:16:02Z</time></trkpt><trkpt lat="44.50687500292432" lon="9.993233668503926"><ele>823.0</ele><time>2026-05-02T14:16:03Z</time></trkpt><trkpt lat="44.5069382668018" lon="9.993317589511742"><ele>822.2</ele><time>2026-05-02T14:16:04Z</time></trkpt><trkpt lat="44.50700910195362" lon="9.993366554504522"><ele>821.4</ele><time>2026-05-02T14:16:05Z</time></trkpt><trkpt lat="44.50709998552687" lon="9.993371478366038"><ele>820.6</ele><time>2026-05-02T14:16:06Z</time></trkpt><trkpt lat="44.507194386610976" lon="9.99330705015098"><ele>819.8000000000001</ele><time>2026-05-02T14:16:07Z</time></trkpt><trkpt lat="44.507257017979214" lon="9.99317310214919"><ele>819.0</ele><time>2026-05-02T14:16:08Z</time></trkpt><trkpt lat="44.5072448380773" lon="9.992997016679839"><ele>820.3333333333333</ele><time>2026-05-02T14:16:09Z</time></trkpt><trkpt lat="44.50717514422729" lon="9.992829453941932"><ele>821.6666666666666</ele><time>2026-05-02T14:16:10Z</time></trkpt><trkpt lat="44.5070577639432" lon="9.992647026377815"><ele>823.0</ele><time>2026-05-02T14:16:11Z</time></trkpt><trkpt lat="44.506956929448236" lon="9.992454618577533"><ele>825.3333333333333</ele><time>2026-05-02T14:16:12Z</time></trkpt><trkpt lat="44.506864485067" lon="9.992277003512331"><ele>827.6666666666667</ele><time>2026-05-02T14:16:13Z</time></trkpt><trkpt lat="44.506765592739185" lon="9.992082903606935"><ele>830.0</ele><time>2026-05-02T14:16:14Z</time></trkpt><trkpt lat="44.50665898095265" lon="9.991873092776217"><ele>830.0</ele><time>2026-05-02T14:16:15Z</time></trkpt><trkpt lat="44.50654827180777" lon="9.991716891375754"><ele>830.0</ele><time>2026-05-02T14:16:16Z</time></trkpt><trkpt lat="44.506462398728544" lon="9.991610881374319"><ele>830.0</ele><time>2026-05-02T14:16:17Z</time></trkpt><trkpt lat="44.506403044503436" lon="9.991495034489743"><ele>830.0</ele><time>2026-05-02T14:16:18Z</time></trkpt><trkpt lat="44.50637923292186" lon="9.991366353227258"><ele>832.6</ele><time>2026-05-02T14:16:19Z</time></trkpt><trkpt lat="44.50639837025432" lon="9.991269019057194"><ele>835.2</ele><time>2026-05-02T14:16:20Z</time></trkpt><trkpt lat="44.50644414881228" lon="9.991193831010616"><ele>837.8</ele><time>2026-05-02T14:16:21Z</time></trkpt><trkpt lat="44.50650444654096" lon="9.991153420332308"><ele>840.4</ele><time>2026-05-02T14:16:22Z</time></trkpt><trkpt lat="44.506539798553014" lon="9.991078309924696"><ele>843.0</ele><time>2026-05-02T14:17:04.999Z</time></trkpt><trkpt lat="44.506451508921955" lon="9.990844733339548"><ele>842.5</ele><time>2026-05-02T14:17:06.999Z</time></trkpt><trkpt lat="44.5063977835049" lon="9.990717937030437"><ele>842.0</ele><time>2026-05-02T14:17:07.999Z</time></trkpt><trkpt lat="44.50633446960966" lon="9.990560126639387"><ele>841.5</ele><time>2026-05-02T14:17:08.999Z</time></trkpt><trkpt lat="44.506280571717326" lon="9.990389053354331"><ele>841.0</ele><time>2026-05-02T14:17:09.999Z</time></trkpt><trkpt lat="44.50622253244883" lon="9.990231046497971"><ele>842.25</ele><time>2026-05-02T14:17:10.999Z</time></trkpt><trkpt lat="44.5061490592485" lon="9.990071834562245"><ele>843.5</ele><time>2026-05-02T14:17:11.999Z</time></trkpt><trkpt lat="44.50604932794651" lon="9.989930735595674"><ele>844.75</ele><time>2026-05-02T14:17:12.999Z</time></trkpt><trkpt lat="44.5059220974871" lon="9.989798609730936"><ele>846.0</ele><time>2026-05-02T14:17:13.999Z</time></trkpt><trkpt lat="44.50578624262868" lon="9.989666704552059"><ele>846.0</ele><time>2026-05-02T14:17:14.999Z</time></trkpt><trkpt lat="44.50566633688205" lon="9.98953610037669"><ele>846.0</ele><time>2026-05-02T14:17:15.999Z</time></trkpt><trkpt lat="44.50553818733759" lon="9.989398225635236"><ele>846.0</ele><time>2026-05-02T14:17:16.999Z</time></trkpt><trkpt lat="44.505414645113476" lon="9.989269833431758"><ele>846.75</ele><time>2026-05-02T14:17:17.999Z</time></trkpt><trkpt lat="44.50530201864652" lon="9.989132573222923"><ele>847.5</ele><time>2026-05-02T14:17:18.999Z</time></trkpt><trkpt lat="44.505182194949626" lon="9.989033767102383"><ele>848.25</ele><time>2026-05-02T14:17:19.999Z</time></trkpt><trkpt lat="44.505066030283125" lon="9.988972379422972"><ele>849.0</ele><time>2026-05-02T14:17:20.999Z</time></trkpt><trkpt lat="44.50492900562215" lon="9.988959816641305"><ele>849.0</ele><time>2026-05-02T14:17:21.999Z</time></trkpt><trkpt lat="44.504779833330815" lon="9.988960912986737"><ele>849.0</ele><time>2026-05-02T14:17:22.999Z</time></trkpt><trkpt lat="44.5046222737885" lon="9.988950860629085"><ele>849.0</ele><time>2026-05-02T14:17:23.999Z</time></trkpt><trkpt lat="44.50446230740625" lon="9.98893046194151"><ele>850.3333333333333</ele><time>2026-05-02T14:17:24.999Z</time></trkpt><trkpt lat="44.504300291471175" lon="9.988913229633559"><ele>851.6666666666666</ele><time>2026-05-02T14:17:25.999Z</time></trkpt><trkpt lat="44.50413065614506" lon="9.98886747355883"><ele>853.0</ele><time>2026-05-02T14:17:26.999Z</time></trkpt><trkpt lat="44.50397799438436" lon="9.988780898810504"><ele>853.0</ele><time>2026-05-02T14:17:27.999Z</time></trkpt><trkpt lat="44.503845245626415" lon="9.988659981864759"><ele>853.0</ele><time>2026-05-02T14:17:28.999Z</time></trkpt><trkpt lat="44.5037056345665" lon="9.988512921751651"><ele>853.0</ele><time>2026-05-02T14:17:29.999Z</time></trkpt><trkpt lat="44.50357187705201" lon="9.988343382684198"><ele>853.3333333333333</ele><time>2026-05-02T14:17:30.999Z</time></trkpt><trkpt lat="44.50344845640159" lon="9.988158235120343"><ele>853.6666666666667</ele><time>2026-05-02T14:17:31.999Z</time></trkpt><trkpt lat="44.503340136074485" lon="9.98794628103506"><ele>854.0</ele><time>2026-05-02T14:17:32.999Z</time></trkpt><trkpt lat="44.503251738669384" lon="9.987731525959099"><ele>854.0</ele><time>2026-05-02T14:17:33.999Z</time></trkpt><trkpt lat="44.503160723294705" lon="9.987539742004218"><ele>854.0</ele><time>2026-05-02T14:17:34.999Z</time></trkpt><trkpt lat="44.50305842887405" lon="9.987417826105315"><ele>854.0</ele><time>2026-05-02T14:17:35.999Z</time></trkpt><trkpt lat="44.5029580429322" lon="9.98735211887149"><ele>854.0</ele><time>2026-05-02T14:17:36.999Z</time></trkpt><trkpt lat="44.50282137631938" lon="9.987377615141545"><ele>853.6666666666667</ele><time>2026-05-02T14:17:37.999Z</time></trkpt><trkpt lat="44.50265004334567" lon="9.987444956734985"><ele>853.3333333333333</ele><time>2026-05-02T14:17:38.999Z</time></trkpt><trkpt lat="44.502474482141814" lon="9.987500405091858"><ele>853.0</ele><time>2026-05-02T14:17:39.999Z</time></trkpt><trkpt lat="44.50233047989536" lon="9.987526248902055"><ele>853.0</ele><time>2026-05-02T14:17:40.999Z</time></trkpt><trkpt lat="44.502211444255174" lon="9.987496190572529"><ele>853.0</ele><time>2026-05-02T14:17:41.999Z</time></trkpt><trkpt lat="44.50209896803905" lon="9.987391072701028"><ele>853.0</ele><time>2026-05-02T14:17:42.999Z</time></trkpt><trkpt lat="44.50204886349849" lon="9.987205501226246"><ele>853.0</ele><time>2026-05-02T14:17:43.999Z</time></trkpt><trkpt lat="44.50209629113193" lon="9.987012431269683"><ele>853.0</ele><time>2026-05-02T14:17:44.999Z</time></trkpt><trkpt lat="44.50216181558018" lon="9.986817210929972"><ele>853.0</ele><time>2026-05-02T14:17:45.999Z</time></trkpt><trkpt lat="44.50224663580088" lon="9.986622810865894"><ele>853.0</ele><time>2026-05-02T14:17:46.999Z</time></trkpt><trkpt lat="44.502276014634255" lon="9.986425586674313"><ele>851.0</ele><time>2026-05-02T14:17:47.999Z</time></trkpt><trkpt lat="44.502241529732636" lon="9.986217523474192"><ele>849.0</ele><time>2026-05-02T14:17:48.999Z</time></trkpt><trkpt lat="44.50213014928404" lon="9.986022586560985"><ele>847.0</ele><time>2026-05-02T14:17:49.999Z</time></trkpt><trkpt lat="44.50201234184092" lon="9.985795581859392"><ele>850.25</ele><time>2026-05-02T14:17:50.999Z</time></trkpt><trkpt lat="44.50188056470869" lon="9.985605344560685"><ele>853.5</ele><time>2026-05-02T14:17:51.999Z</time></trkpt><trkpt lat="44.5017513233613" lon="9.985498207972142"><ele>856.75</ele><time>2026-05-02T14:17:52.999Z</time></trkpt><trkpt lat="44.501714398096944" lon="9.98539743676753"><ele>860.0</ele><time>2026-05-02T14:17:54Z</time></trkpt><trkpt lat="44.501651290519455" lon="9.985338729258608"><ele>859.3333333333334</ele><time>2026-05-02T14:17:55Z</time></trkpt><trkpt lat="44.501442536504236" lon="9.985002165059573"><ele>858.6666666666667</ele><time>2026-05-02T14:17:56Z</time></trkpt><trkpt lat="44.50146714124051" lon="9.98482142353948"><ele>858.0</ele><time>2026-05-02T14:17:57Z</time></trkpt><trkpt lat="44.501529041764364" lon="9.984674933142706"><ele>858.0</ele><time>2026-05-02T14:17:58Z</time></trkpt><trkpt lat="44.50162954344913" lon="9.984498456802779"><ele>858.0</ele><time>2026-05-02T14:17:59Z</time></trkpt><trkpt lat="44.501736277328334" lon="9.984269694939476"><ele>858.0</ele><time>2026-05-02T14:18:00Z</time></trkpt><trkpt lat="44.50182708216306" lon="9.984016781681113"><ele>860.3333333333333</ele><time>2026-05-02T14:18:01Z</time></trkpt><trkpt lat="44.5018836273252" lon="9.983744179731023"><ele>862.6666666666666</ele><time>2026-05-02T14:18:02Z</time></trkpt><trkpt lat="44.501926556686186" lon="9.983508586217459"><ele>865.0</ele><time>2026-05-02T14:18:03Z</time></trkpt><trkpt lat="44.50193362522873" lon="9.983271663257408"><ele>865.0</ele><time>2026-05-02T14:18:04Z</time></trkpt><trkpt lat="44.501867150430186" lon="9.982985103810282"><ele>865.0</ele><time>2026-05-02T14:18:05Z</time></trkpt><trkpt lat="44.501795434113085" lon="9.982700573135359"><ele>865.0</ele><time>2026-05-02T14:18:06Z</time></trkpt><trkpt lat="44.501732532260974" lon="9.982484099017944"><ele>862.3333333333333</ele><time>2026-05-02T14:18:07Z</time></trkpt><trkpt lat="44.5016432282914" lon="9.982320285613364"><ele>859.6666666666667</ele><time>2026-05-02T14:18:08Z</time></trkpt><trkpt lat="44.50148831034654" lon="9.982218724279553"><ele>857.0</ele><time>2026-05-02T14:18:09Z</time></trkpt><trkpt lat="44.50127368364709" lon="9.982168353074755"><ele>866.5</ele><time>2026-05-02T14:18:10Z</time></trkpt><trkpt lat="44.50105732628064" lon="9.982090020674363"><ele>876.0</ele><time>2026-05-02T14:18:11Z</time></trkpt><trkpt lat="44.500847012224234" lon="9.981938928757184"><ele>876.0</ele><time>2026-05-02T14:18:12Z</time></trkpt><trkpt lat="44.500660276382355" lon="9.981737047802005"><ele>876.0</ele><time>2026-05-02T14:18:13Z</time></trkpt><trkpt lat="44.50050130392679" lon="9.981532129610898"><ele>873.6666666666667</ele><time>2026-05-02T14:18:14Z</time></trkpt><trkpt lat="44.50037180332569" lon="9.98130406797293"><ele>871.3333333333334</ele><time>2026-05-02T14:18:15Z</time></trkpt><trkpt lat="44.50023430355927" lon="9.981066291739689"><ele>869.0</ele><time>2026-05-02T14:18:16Z</time></trkpt><trkpt lat="44.500096491740734" lon="9.98084390719788"><ele>869.0</ele><time>2026-05-02T14:18:17Z</time></trkpt><trkpt lat="44.50002779029892" lon="9.980610045761836"><ele>869.0</ele><time>2026-05-02T14:18:18Z</time></trkpt><trkpt lat="44.500021210654666" lon="9.980337741987054"><ele>869.0</ele><time>2026-05-02T14:18:19Z</time></trkpt><trkpt lat="44.50005806152165" lon="9.980017830497271"><ele>868.3333333333334</ele><time>2026-05-02T14:18:20Z</time></trkpt><trkpt lat="44.50009551538586" lon="9.979730555827796"><ele>867.6666666666667</ele><time>2026-05-02T14:18:21Z</time></trkpt><trkpt lat="44.500083873073905" lon="9.979482751757011"><ele>867.0</ele><time>2026-05-02T14:18:22Z</time></trkpt><trkpt lat="44.49999342492483" lon="9.979220012811584"><ele>865.5</ele><time>2026-05-02T14:18:23Z</time></trkpt><trkpt lat="44.4998771247261" lon="9.978926124408554"><ele>864.0</ele><time>2026-05-02T14:18:24Z</time></trkpt><trkpt lat="44.49978988527416" lon="9.978651568070877"><ele>864.0</ele><time>2026-05-02T14:18:25Z</time></trkpt><trkpt lat="44.499778230075705" lon="9.978395517968982"><ele>864.0</ele><time>2026-05-02T14:18:26Z</time></trkpt><trkpt lat="44.49979563484616" lon="9.978095143513235"><ele>864.0</ele><time>2026-05-02T14:18:27Z</time></trkpt><trkpt lat="44.499807268824" lon="9.977782136116355"><ele>862.6666666666667</ele><time>2026-05-02T14:18:28Z</time></trkpt><trkpt lat="44.49982049811372" lon="9.977511004987251"><ele>861.3333333333334</ele><time>2026-05-02T14:18:29Z</time></trkpt><trkpt lat="44.49979377215417" lon="9.977236788387687"><ele>860.0</ele><time>2026-05-02T14:18:30Z</time></trkpt><trkpt lat="44.49971090568275" lon="9.976980705296219"><ele>860.0</ele><time>2026-05-02T14:18:31Z</time></trkpt><trkpt lat="44.49959142146639" lon="9.976700473260735"><ele>860.0</ele><time>2026-05-02T14:18:32Z</time></trkpt><trkpt lat="44.49948715901836" lon="9.97640123253373"><ele>867.3333333333334</ele><time>2026-05-02T14:18:33Z</time></trkpt><trkpt lat="44.499407136458544" lon="9.976092856931903"><ele>874.6666666666667</ele><time>2026-05-02T14:18:34Z</time></trkpt><trkpt lat="44.49938369024879" lon="9.975804758882349"><ele>882.0</ele><time>2026-05-02T14:18:35Z</time></trkpt><trkpt lat="44.49935923854125" lon="9.975575714215022"><ele>882.0</ele><time>2026-05-02T14:18:36Z</time></trkpt><trkpt lat="44.49934707652761" lon="9.975454778597305"><ele>882.0</ele><time>2026-05-02T14:18:37Z</time></trkpt><trkpt lat="44.499297430011" lon="9.975338030945405"><ele>882.0</ele><time>2026-05-02T14:18:38Z</time></trkpt><trkpt lat="44.499188082795335" lon="9.97526163283572"><ele>882.0</ele><time>2026-05-02T14:18:39Z</time></trkpt><trkpt lat="44.499023259846226" lon="9.9752826402516"><ele>882.0</ele><time>2026-05-02T14:18:40Z</time></trkpt><trkpt lat="44.4988251098154" lon="9.975305041840661"><ele>882.0</ele><time>2026-05-02T14:18:41Z</time></trkpt><trkpt lat="44.498625534287406" lon="9.97522860540586"><ele>882.0</ele><time>2026-05-02T14:18:42Z</time></trkpt><trkpt lat="44.498404062568945" lon="9.975105570536885"><ele>876.5</ele><time>2026-05-02T14:18:43Z</time></trkpt><trkpt lat="44.498158182054844" lon="9.974993097627141"><ele>871.0</ele><time>2026-05-02T14:18:44Z</time></trkpt><trkpt lat="44.49796113893588" lon="9.974884850500608"><ele>880.3333333333333</ele><time>2026-05-02T14:18:45Z</time></trkpt><trkpt lat="44.49780094492041" lon="9.974722957943028"><ele>889.6666666666667</ele><time>2026-05-02T14:18:46Z</time></trkpt><trkpt lat="44.497673137615266" lon="9.974515944887827"><ele>899.0</ele><time>2026-05-02T14:18:47Z</time></trkpt><trkpt lat="44.49754019126393" lon="9.974296535819132"><ele>894.6666666666667</ele><time>2026-05-02T14:18:48Z</time></trkpt><trkpt lat="44.49741362397917" lon="9.974102074109831"><ele>890.3333333333333</ele><time>2026-05-02T14:18:49Z</time></trkpt><trkpt lat="44.49726447644077" lon="9.973993015235092"><ele>886.0</ele><time>2026-05-02T14:18:50Z</time></trkpt><trkpt lat="44.49706436461291" lon="9.973968660129609"><ele>886.0</ele><time>2026-05-02T14:18:51Z</time></trkpt><trkpt lat="44.496858354218936" lon="9.97397000100344"><ele>886.0</ele><time>2026-05-02T14:18:52Z</time></trkpt><trkpt lat="44.49665777750285" lon="9.973832451199488"><ele>886.0</ele><time>2026-05-02T14:18:53Z</time></trkpt><trkpt lat="44.496410214217285" lon="9.973694268502335"><ele>893.0</ele><time>2026-05-02T14:18:54Z</time></trkpt><trkpt lat="44.49614606232104" lon="9.973613551775717"><ele>900.0</ele><time>2026-05-02T14:18:55Z</time></trkpt><trkpt lat="44.49586702240644" lon="9.973561790259925"><ele>900.0</ele><time>2026-05-02T14:18:56Z</time></trkpt><trkpt lat="44.49562261236543" lon="9.973495625019524"><ele>900.0</ele><time>2026-05-02T14:18:57Z</time></trkpt><trkpt lat="44.49541870795215" lon="9.973406469825477"><ele>892.5</ele><time>2026-05-02T14:18:58Z</time></trkpt><trkpt lat="44.49518949170788" lon="9.973262540481288"><ele>885.0</ele><time>2026-05-02T14:18:59Z</time></trkpt><trkpt lat="44.49495215034243" lon="9.973090820714335"><ele>885.0</ele><time>2026-05-02T14:19:00Z</time></trkpt><trkpt lat="44.49471836719712" lon="9.9729451043754"><ele>885.0</ele><time>2026-05-02T14:19:00.999Z</time></trkpt><trkpt lat="44.494438058120174" lon="9.97274542207224"><ele>884.0</ele><time>2026-05-02T14:19:01.999Z</time></trkpt><trkpt lat="44.49437394674021" lon="9.97270753581381"><ele>883.0</ele><time>2026-05-02T14:19:02.999Z</time></trkpt><trkpt lat="44.494225384873346" lon="9.972615703505822"><ele>882.0</ele><time>2026-05-02T14:19:03.999Z</time></trkpt><trkpt lat="44.49412603098925" lon="9.972503263833884"><ele>881.0</ele><time>2026-05-02T14:19:04.999Z</time></trkpt><trkpt lat="44.49405632836957" lon="9.972378727803648"><ele>881.0</ele><time>2026-05-02T14:19:05.999Z</time></trkpt><trkpt lat="44.49401888515734" lon="9.972211823147576"><ele>881.0</ele><time>2026-05-02T14:19:06.999Z</time></trkpt><trkpt lat="44.493985864144975" lon="9.97199738046043"><ele>881.0</ele><time>2026-05-02T14:19:07.999Z</time></trkpt><trkpt lat="44.49400276137569" lon="9.971822170531597"><ele>881.0</ele><time>2026-05-02T14:19:08.999Z</time></trkpt><trkpt lat="44.49405458931721" lon="9.971658211165424"><ele>879.0</ele><time>2026-05-02T14:19:09.999Z</time></trkpt><trkpt lat="44.494143977494566" lon="9.97148549558022"><ele>877.0</ele><time>2026-05-02T14:19:10.999Z</time></trkpt><trkpt lat="44.49418519785636" lon="9.971305206903713"><ele>875.0</ele><time>2026-05-02T14:19:11.999Z</time></trkpt><trkpt lat="44.49418907485213" lon="9.971116158349181"><ele>873.0</ele><time>2026-05-02T14:19:12.999Z</time></trkpt><trkpt lat="44.49412834167491" lon="9.97093687776414"><ele>870.3333333333333</ele><time>2026-05-02T14:19:13.999Z</time></trkpt><trkpt lat="44.49399581209506" lon="9.970791835853076"><ele>867.6666666666666</ele><time>2026-05-02T14:19:14.999Z</time></trkpt><trkpt lat="44.4937955291445" lon="9.970658554420991"><ele>865.0</ele><time>2026-05-02T14:19:15.999Z</time></trkpt><trkpt lat="44.49359284296691" lon="9.970513967476096"><ele>866.3333333333333</ele><time>2026-05-02T14:19:16.999Z</time></trkpt><trkpt lat="44.493434925718965" lon="9.970347222384266"><ele>867.6666666666667</ele><time>2026-05-02T14:19:17.999Z</time></trkpt><trkpt lat="44.493324511569476" lon="9.970151523483766"><ele>869.0</ele><time>2026-05-02T14:19:18.999Z</time></trkpt><trkpt lat="44.49325689088462" lon="9.969897590089406"><ele>869.0</ele><time>2026-05-02T14:19:19.999Z</time></trkpt><trkpt lat="44.49319683503408" lon="9.969654084961856"><ele>869.0</ele><time>2026-05-02T14:19:20.999Z</time></trkpt><trkpt lat="44.493135053656474" lon="9.969439091616394"><ele>869.0</ele><time>2026-05-02T14:19:21.999Z</time></trkpt><trkpt lat="44.493079880052456" lon="9.969228870686196"><ele>869.6666666666667</ele><time>2026-05-02T14:19:22.999Z</time></trkpt><trkpt lat="44.49302015315186" lon="9.969028763982257"><ele>870.3333333333333</ele><time>2026-05-02T14:19:23.999Z</time></trkpt><trkpt lat="44.49296078582092" lon="9.968832016733334"><ele>871.0</ele><time>2026-05-02T14:19:24.999Z</time></trkpt><trkpt lat="44.49289389016366" lon="9.968630620519003"><ele>871.0</ele><time>2026-05-02T14:19:25.999Z</time></trkpt><trkpt lat="44.49283211787462" lon="9.96842342625407"><ele>871.0</ele><time>2026-05-02T14:19:26.999Z</time></trkpt><trkpt lat="44.492778061973986" lon="9.968196414201616"><ele>871.0</ele><time>2026-05-02T14:19:27.999Z</time></trkpt><trkpt lat="44.49272176404379" lon="9.967970182686514"><ele>870.6666666666666</ele><time>2026-05-02T14:19:28.999Z</time></trkpt><trkpt lat="44.492670233565875" lon="9.967740157500932"><ele>870.3333333333333</ele><time>2026-05-02T14:19:29.999Z</time></trkpt><trkpt lat="44.49263244568679" lon="9.967510093245366"><ele>870.0</ele><time>2026-05-02T14:19:30.999Z</time></trkpt><trkpt lat="44.49261611484882" lon="9.967250057721506"><ele>869.3333333333333</ele><time>2026-05-02T14:19:31.999Z</time></trkpt><trkpt lat="44.49262009500599" lon="9.966986751116691"><ele>868.6666666666666</ele><time>2026-05-02T14:19:32.999Z</time></trkpt><trkpt lat="44.492608071637186" lon="9.966785354518052"><ele>868.0</ele><time>2026-05-02T14:19:33.999Z</time></trkpt><trkpt lat="44.492576754029294" lon="9.966618531764096"><ele>867.0</ele><time>2026-05-02T14:19:34.999Z</time></trkpt><trkpt lat="44.49252687722058" lon="9.96640011656044"><ele>866.0</ele><time>2026-05-02T14:19:35.999Z</time></trkpt><trkpt lat="44.49245205351873" lon="9.966217286902143"><ele>865.0</ele><time>2026-05-02T14:19:36.999Z</time></trkpt><trkpt lat="44.49204948402024" lon="9.966313347245661"><ele>867.3333333333333</ele><time>2026-05-02T14:19:37.999Z</time></trkpt><trkpt lat="44.491847241462025" lon="9.966222718619067"><ele>869.6666666666667</ele><time>2026-05-02T14:19:38.999Z</time></trkpt><trkpt lat="44.491637581307394" lon="9.966119009759177"><ele>872.0</ele><time>2026-05-02T14:19:39.999Z</time></trkpt><trkpt lat="44.49143101790238" lon="9.96600821177498"><ele>871.0</ele><time>2026-05-02T14:19:40.999Z</time></trkpt><trkpt lat="44.491226298914114" lon="9.965910630563213"><ele>870.0</ele><time>2026-05-02T14:19:41.999Z</time></trkpt><trkpt lat="44.491012347406986" lon="9.965833533826673"><ele>869.0</ele><time>2026-05-02T14:19:42.999Z</time></trkpt><trkpt lat="44.49078920086633" lon="9.965798226752804"><ele>869.0</ele><time>2026-05-02T14:19:43.999Z</time></trkpt><trkpt lat="44.49057892494962" lon="9.965812475594076"><ele>869.0</ele><time>2026-05-02T14:19:44.999Z</time></trkpt><trkpt lat="44.490387935719696" lon="9.965833622551903"><ele>869.0</ele><time>2026-05-02T14:19:45.999Z</time></trkpt><trkpt lat="44.4902019937956" lon="9.96587923259589"><ele>871.6666666666667</ele><time>2026-05-02T14:19:46.999Z</time></trkpt><trkpt lat="44.49002703299554" lon="9.965978179929769"><ele>874.3333333333333</ele><time>2026-05-02T14:19:47.999Z</time></trkpt><trkpt lat="44.48987260349654" lon="9.966149572807359"><ele>877.0</ele><time>2026-05-02T14:19:48.999Z</time></trkpt><trkpt lat="44.48973036094114" lon="9.966364426503384"><ele>877.0</ele><time>2026-05-02T14:19:49.999Z</time></trkpt><trkpt lat="44.48959876722199" lon="9.966550084191343"><ele>877.0</ele><time>2026-05-02T14:19:50.999Z</time></trkpt><trkpt lat="44.48947103614616" lon="9.966710688831805"><ele>877.0</ele><time>2026-05-02T14:19:51.999Z</time></trkpt><trkpt lat="44.48935572393626" lon="9.96677799516371"><ele>877.0</ele><time>2026-05-02T14:19:52.999Z</time></trkpt><trkpt lat="44.48925620346908" lon="9.96679369050992"><ele>877.0</ele><time>2026-05-02T14:19:53.999Z</time></trkpt><trkpt lat="44.48916410054363" lon="9.966686975737986"><ele>877.0</ele><time>2026-05-02T14:19:54.999Z</time></trkpt><trkpt lat="44.48905910407228" lon="9.966518919447356"><ele>877.0</ele><time>2026-05-02T14:19:55.999Z</time></trkpt><trkpt lat="44.488922628191695" lon="9.96629926869188"><ele>877.0</ele><time>2026-05-02T14:19:56.999Z</time></trkpt><trkpt lat="44.48878579576487" lon="9.966109783394245"><ele>877.0</ele><time>2026-05-02T14:19:57.999Z</time></trkpt><trkpt lat="44.488645101403705" lon="9.965977309223538"><ele>877.0</ele><time>2026-05-02T14:19:58.999Z</time></trkpt><trkpt lat="44.48848181549394" lon="9.965941313809608"><ele>877.0</ele><time>2026-05-02T14:20:00Z</time></trkpt><trkpt lat="44.48830232481971" lon="9.966029144567623"><ele>877.0</ele><time>2026-05-02T14:20:01Z</time></trkpt><trkpt lat="44.48811708269094" lon="9.966182399224344"><ele>877.0</ele><time>2026-05-02T14:20:02Z</time></trkpt><trkpt lat="44.487980301034824" lon="9.966256806578105"><ele>877.0</ele><time>2026-05-02T14:20:03Z</time></trkpt><trkpt lat="44.487860458039904" lon="9.966155416458301"><ele>877.0</ele><time>2026-05-02T14:20:04Z</time></trkpt><trkpt lat="44.48777758406353" lon="9.965994363325352"><ele>877.0</ele><time>2026-05-02T14:20:05Z</time></trkpt><trkpt lat="44.487656480976995" lon="9.96579641151277"><ele>874.6666666666666</ele><time>2026-05-02T14:20:06Z</time></trkpt><trkpt lat="44.48757538413811" lon="9.965565777469608"><ele>872.3333333333333</ele><time>2026-05-02T14:20:07Z</time></trkpt><trkpt lat="44.48749028055002" lon="9.965393586096503"><ele>870.0</ele><time>2026-05-02T14:20:08Z</time></trkpt><trkpt lat="44.48739948514842" lon="9.965226972269013"><ele>870.0</ele><time>2026-05-02T14:20:09Z</time></trkpt><trkpt lat="44.48733735043627" lon="9.965064157720485"><ele>870.0</ele><time>2026-05-02T14:20:10Z</time></trkpt><trkpt lat="44.487275466255134" lon="9.964899496468306"><ele>870.0</ele><time>2026-05-02T14:20:11Z</time></trkpt><trkpt lat="44.48717578801468" lon="9.964739105934008"><ele>870.0</ele><time>2026-05-02T14:20:12Z</time></trkpt><trkpt lat="44.48703718966072" lon="9.964616441749946"><ele>872.6666666666667</ele><time>2026-05-02T14:20:13Z</time></trkpt><trkpt lat="44.48688341830849" lon="9.964545144580228"><ele>875.3333333333334</ele><time>2026-05-02T14:20:14Z</time></trkpt><trkpt lat="44.48672373905299" lon="9.964536517196033"><ele>878.0</ele><time>2026-05-02T14:20:15Z</time></trkpt><trkpt lat="44.486562396694445" lon="9.964593986632586"><ele>878.0</ele><time>2026-05-02T14:20:16Z</time></trkpt><trkpt lat="44.48640296493362" lon="9.964690885328862"><ele>878.0</ele><time>2026-05-02T14:20:17Z</time></trkpt><trkpt lat="44.4862588001788" lon="9.96478284616957"><ele>878.0</ele><time>2026-05-02T14:20:18Z</time></trkpt><trkpt lat="44.48612267091313" lon="9.96485794018337"><ele>881.25</ele><time>2026-05-02T14:20:19Z</time></trkpt><trkpt lat="44.485978782708386" lon="9.964908329574929"><ele>884.5</ele><time>2026-05-02T14:20:20Z</time></trkpt><trkpt lat="44.48585269711522" lon="9.96491522259469"><ele>887.75</ele><time>2026-05-02T14:20:21Z</time></trkpt><trkpt lat="44.485755766043695" lon="9.964841830862898"><ele>891.0</ele><time>2026-05-02T14:20:22Z</time></trkpt><trkpt lat="44.485662134529285" lon="9.964718920396095"><ele>891.0</ele><time>2026-05-02T14:20:23Z</time></trkpt><trkpt lat="44.485627650511226" lon="9.964514620387137"><ele>891.0</ele><time>2026-05-02T14:20:24Z</time></trkpt><trkpt lat="44.48560850408416" lon="9.96428041291891"><ele>891.0</ele><time>2026-05-02T14:20:25Z</time></trkpt><trkpt lat="44.48563438517639" lon="9.964039440909108"><ele>890.5</ele><time>2026-05-02T14:20:26Z</time></trkpt><trkpt lat="44.48569006367275" lon="9.963839141102962"><ele>890.0</ele><time>2026-05-02T14:20:27Z</time></trkpt><trkpt lat="44.48575399149484" lon="9.963681113042128"><ele>889.5</ele><time>2026-05-02T14:20:28Z</time></trkpt><trkpt lat="44.48580467822101" lon="9.963531990279487"><ele>889.0</ele><time>2026-05-02T14:20:29Z</time></trkpt><trkpt lat="44.48588694133053" lon="9.963403207885111"><ele>889.4000000000001</ele><time>2026-05-02T14:20:30Z</time></trkpt><trkpt lat="44.48595138650689" lon="9.963278222943929"><ele>889.8000000000001</ele><time>2026-05-02T14:20:31Z</time></trkpt><trkpt lat="44.48601512740002" lon="9.963144250638765"><ele>890.1999999999999</ele><time>2026-05-02T14:20:32Z</time></trkpt><trkpt lat="44.48606950079896" lon="9.963019034790413"><ele>890.5999999999999</ele><time>2026-05-02T14:20:33Z</time></trkpt><trkpt lat="44.486108727329075" lon="9.962875308618912"><ele>891.0</ele><time>2026-05-02T14:20:34Z</time></trkpt><trkpt lat="44.4861138572409" lon="9.962704376285593"><ele>891.6666666666667</ele><time>2026-05-02T14:20:35Z</time></trkpt><trkpt lat="44.48604884520911" lon="9.962438485234012"><ele>892.3333333333334</ele><time>2026-05-02T14:20:36Z</time></trkpt><trkpt lat="44.48597158969753" lon="9.96214260834553"><ele>893.0</ele><time>2026-05-02T14:20:37Z</time></trkpt><trkpt lat="44.48591341483333" lon="9.961868394042918"><ele>892.6666666666667</ele><time>2026-05-02T14:20:38Z</time></trkpt><trkpt lat="44.485880892730904" lon="9.961557571273099"><ele>892.3333333333333</ele><time>2026-05-02T14:20:39Z</time></trkpt><trkpt lat="44.48584794910371" lon="9.961251941948014"><ele>892.0</ele><time>2026-05-02T14:20:40Z</time></trkpt><trkpt lat="44.4858147350539" lon="9.960973575901217"><ele>892.3333333333333</ele><time>2026-05-02T14:20:41Z</time></trkpt><trkpt lat="44.4857690110049" lon="9.960718580029871"><ele>892.6666666666667</ele><time>2026-05-02T14:20:42Z</time></trkpt><trkpt lat="44.48571880548598" lon="9.960442974286076"><ele>893.0</ele><time>2026-05-02T14:20:43Z</time></trkpt><trkpt lat="44.48568298590423" lon="9.960186856560133"><ele>892.3333333333334</ele><time>2026-05-02T14:20:44Z</time></trkpt><trkpt lat="44.48566401634731" lon="9.959945895862447"><ele>891.6666666666667</ele><time>2026-05-02T14:20:45Z</time></trkpt><trkpt lat="44.485661272132816" lon="9.959724591542566"><ele>891.0</ele><time>2026-05-02T14:20:46Z</time></trkpt><trkpt lat="44.48566907738093" lon="9.95952598854197"><ele>891.0</ele><time>2026-05-02T14:20:47Z</time></trkpt><trkpt lat="44.48566585983424" lon="9.959338724338224"><ele>891.0</ele><time>2026-05-02T14:20:48Z</time></trkpt><trkpt lat="44.485646315031936" lon="9.95916774462745"><ele>891.0</ele><time>2026-05-02T14:20:49Z</time></trkpt><trkpt lat="44.48559994517209" lon="9.959001731398057"><ele>891.0</ele><time>2026-05-02T14:20:50Z</time></trkpt><trkpt lat="44.48548662509954" lon="9.958874526742509"><ele>898.0</ele><time>2026-05-02T14:20:51Z</time></trkpt><trkpt lat="44.485331115386174" lon="9.958786226576619"><ele>905.0</ele><time>2026-05-02T14:20:52Z</time></trkpt><trkpt lat="44.48513985918361" lon="9.958757772809223"><ele>912.0</ele><time>2026-05-02T14:20:53Z</time></trkpt><trkpt lat="44.484936990732734" lon="9.958750433031714"><ele>912.0</ele><time>2026-05-02T14:20:54Z</time></trkpt><trkpt lat="44.48475973707945" lon="9.958728609056287"><ele>912.0</ele><time>2026-05-02T14:20:55Z</time></trkpt><trkpt lat="44.48461151729304" lon="9.958664735578422"><ele>912.0</ele><time>2026-05-02T14:20:56Z</time></trkpt><trkpt lat="44.484493674916465" lon="9.958595267862421"><ele>915.25</ele><time>2026-05-02T14:20:57Z</time></trkpt><trkpt lat="44.484411029868184" lon="9.958500247819265"><ele>918.5</ele><time>2026-05-02T14:20:58Z</time></trkpt><trkpt lat="44.484378136775476" lon="9.958335072159157"><ele>921.75</ele><time>2026-05-02T14:20:59Z</time></trkpt><trkpt lat="44.484405785444565" lon="9.958108644240761"><ele>925.0</ele><time>2026-05-02T14:21:00Z</time></trkpt><trkpt lat="44.4844498709627" lon="9.957852690591363"><ele>925.0</ele><time>2026-05-02T14:21:01Z</time></trkpt><trkpt lat="44.48447449770217" lon="9.957580361922055"><ele>925.0</ele><time>2026-05-02T14:21:02Z</time></trkpt><trkpt lat="44.48448960064757" lon="9.957330132968865"><ele>925.0</ele><time>2026-05-02T14:21:03Z</time></trkpt><trkpt lat="44.484513181400935" lon="9.95708628896341"><ele>924.6666666666666</ele><time>2026-05-02T14:21:04Z</time></trkpt><trkpt lat="44.48453917625873" lon="9.956837203687241"><ele>924.3333333333333</ele><time>2026-05-02T14:21:05Z</time></trkpt><trkpt lat="44.48456138392122" lon="9.956574940633464"><ele>924.0</ele><time>2026-05-02T14:21:06Z</time></trkpt><trkpt lat="44.484586828303456" lon="9.956313710471385"><ele>920.6666666666667</ele><time>2026-05-02T14:21:07Z</time></trkpt><trkpt lat="44.48461927370691" lon="9.956056493925786"><ele>917.3333333333334</ele><time>2026-05-02T14:21:08Z</time></trkpt><trkpt lat="44.484679195823965" lon="9.955802809010818"><ele>914.0</ele><time>2026-05-02T14:21:09Z</time></trkpt><trkpt lat="44.48475057430886" lon="9.955555789587214"><ele>914.0</ele><time>2026-05-02T14:21:09.999Z</time></trkpt><trkpt lat="44.484815980305356" lon="9.955315670491549"><ele>914.0</ele><time>2026-05-02T14:21:10.999Z</time></trkpt><trkpt lat="44.48486730889197" lon="9.955065042869945"><ele>914.0</ele><time>2026-05-02T14:21:11.999Z</time></trkpt><trkpt lat="44.48491984466696" lon="9.95481069651177"><ele>918.6666666666667</ele><time>2026-05-02T14:21:12.999Z</time></trkpt><trkpt lat="44.4849756227968" lon="9.954563785738559"><ele>923.3333333333333</ele><time>2026-05-02T14:21:13.999Z</time></trkpt><trkpt lat="44.485027005426" lon="9.954317007105402"><ele>928.0</ele><time>2026-05-02T14:21:14.999Z</time></trkpt><trkpt lat="44.48506471496201" lon="9.954066096554243"><ele>930.3333333333333</ele><time>2026-05-02T14:21:15.999Z</time></trkpt><trkpt lat="44.48507255505174" lon="9.95381039342078"><ele>932.6666666666667</ele><time>2026-05-02T14:21:16.999Z</time></trkpt><trkpt lat="44.48505384120954" lon="9.953575841759314"><ele>935.0</ele><time>2026-05-02T14:21:17.999Z</time></trkpt><trkpt lat="44.48502025688799" lon="9.953351117444086"><ele>935.3333333333334</ele><time>2026-05-02T14:21:18.999Z</time></trkpt><trkpt lat="44.484960870445796" lon="9.953112921368495"><ele>935.6666666666667</ele><time>2026-05-02T14:21:19.999Z</time></trkpt><trkpt lat="44.48488223011878" lon="9.952885489702258"><ele>936.0</ele><time>2026-05-02T14:21:20.999Z</time></trkpt><trkpt lat="44.48479938346914" lon="9.95265229134828"><ele>934.6666666666667</ele><time>2026-05-02T14:21:21.999Z</time></trkpt><trkpt lat="44.48470773376812" lon="9.952403145460515"><ele>933.3333333333334</ele><time>2026-05-02T14:21:22.999Z</time></trkpt><trkpt lat="44.48458393292154" lon="9.952174555998537"><ele>932.0</ele><time>2026-05-02T14:21:23.999Z</time></trkpt><trkpt lat="44.484446067942216" lon="9.951965727073494"><ele>940.3333333333334</ele><time>2026-05-02T14:21:24.999Z</time></trkpt><trkpt lat="44.48433125989363" lon="9.951735138785612"><ele>948.6666666666667</ele><time>2026-05-02T14:21:25.999Z</time></trkpt><trkpt lat="44.48425582020194" lon="9.951462255729574"><ele>957.0</ele><time>2026-05-02T14:21:26.999Z</time></trkpt><trkpt lat="44.48421002578366" lon="9.951172123082353"><ele>957.0</ele><time>2026-05-02T14:21:27.999Z</time></trkpt><trkpt lat="44.48415192987114" lon="9.950901463408876"><ele>957.0</ele><time>2026-05-02T14:21:28.999Z</time></trkpt><trkpt lat="44.48409373233358" lon="9.950666587118336"><ele>957.0</ele><time>2026-05-02T14:21:29.999Z</time></trkpt><trkpt lat="44.484030531641444" lon="9.950462267055405"><ele>956.3333333333333</ele><time>2026-05-02T14:21:30.999Z</time></trkpt><trkpt lat="44.48393101638379" lon="9.950277766079324"><ele>955.6666666666666</ele><time>2026-05-02T14:21:31.999Z</time></trkpt><trkpt lat="44.48379637514229" lon="9.950110363319165"><ele>955.0</ele><time>2026-05-02T14:21:32.999Z</time></trkpt><trkpt lat="44.48363494707872" lon="9.9499839690001"><ele>955.0</ele><time>2026-05-02T14:21:33.999Z</time></trkpt><trkpt lat="44.4834641025627" lon="9.94991355320854"><ele>955.0</ele><time>2026-05-02T14:21:34.999Z</time></trkpt><trkpt lat="44.483275891658266" lon="9.949892705588491"><ele>955.0</ele><time>2026-05-02T14:21:35.999Z</time></trkpt><trkpt lat="44.483101702970394" lon="9.94992263878427"><ele>955.0</ele><time>2026-05-02T14:21:36.999Z</time></trkpt><trkpt lat="44.482959951419154" lon="9.949965727973185"><ele>955.0</ele><time>2026-05-02T14:21:37.999Z</time></trkpt><trkpt lat="44.48285079142743" lon="9.949946203540593"><ele>955.0</ele><time>2026-05-02T14:21:38.999Z</time></trkpt><trkpt lat="44.48268434531107" lon="9.949808667710219"><ele>955.0</ele><time>2026-05-02T14:21:39.999Z</time></trkpt><trkpt lat="44.482552501116054" lon="9.94968901756924"><ele>960.6666666666666</ele><time>2026-05-02T14:21:40.999Z</time></trkpt><trkpt lat="44.48244499360454" lon="9.94956227778525"><ele>966.3333333333333</ele><time>2026-05-02T14:21:41.999Z</time></trkpt><trkpt lat="44.482319189651605" lon="9.949444127185952"><ele>972.0</ele><time>2026-05-02T14:21:42.999Z</time></trkpt><trkpt lat="44.482178395552495" lon="9.949326853462624"><ele>972.6666666666667</ele><time>2026-05-02T14:21:43.999Z</time></trkpt><trkpt lat="44.48204204583976" lon="9.949201781071896"><ele>973.3333333333334</ele><time>2026-05-02T14:21:44.999Z</time></trkpt><trkpt lat="44.48192078178287" lon="9.94904315610531"><ele>974.0</ele><time>2026-05-02T14:21:45.999Z</time></trkpt><trkpt lat="44.48183488103761" lon="9.948838765313607"><ele>974.0</ele><time>2026-05-02T14:21:46.999Z</time></trkpt><trkpt lat="44.481790608862006" lon="9.948624921572604"><ele>974.0</ele><time>2026-05-02T14:21:47.999Z</time></trkpt><trkpt lat="44.481763678190866" lon="9.948468559228514"><ele>974.0</ele><time>2026-05-02T14:21:48.999Z</time></trkpt><trkpt lat="44.48171148085482" lon="9.948391277421768"><ele>974.0</ele><time>2026-05-02T14:21:49.999Z</time></trkpt><trkpt lat="44.48160751060022" lon="9.948360975103098"><ele>974.0</ele><time>2026-05-02T14:21:50.999Z</time></trkpt><trkpt lat="44.48148679786015" lon="9.948433183744553"><ele>974.0</ele><time>2026-05-02T14:21:51.999Z</time></trkpt><trkpt lat="44.481341963441196" lon="9.948610841871524"><ele>974.0</ele><time>2026-05-02T14:21:52.999Z</time></trkpt><trkpt lat="44.48120385334824" lon="9.948832411111649"><ele>972.6666666666667</ele><time>2026-05-02T14:21:53.999Z</time></trkpt><trkpt lat="44.48107317679715" lon="9.949029317301457"><ele>971.3333333333333</ele><time>2026-05-02T14:21:54.999Z</time></trkpt><trkpt lat="44.48093928636268" lon="9.949221407627457"><ele>970.0</ele><time>2026-05-02T14:21:55.999Z</time></trkpt><trkpt lat="44.480797948214985" lon="9.949401595442167"><ele>973.5</ele><time>2026-05-02T14:21:56.999Z</time></trkpt><trkpt lat="44.480694393898816" lon="9.949562166463625"><ele>977.0</ele><time>2026-05-02T14:21:57.999Z</time></trkpt><trkpt lat="44.48058846889313" lon="9.949675885063522"><ele>980.5</ele><time>2026-05-02T14:21:58.999Z</time></trkpt><trkpt lat="44.48048106280476" lon="9.949768169872765"><ele>984.0</ele><time>2026-05-02T14:21:59.999Z</time></trkpt><trkpt lat="44.48030798259856" lon="9.94976336431861"><ele>984.0</ele><time>2026-05-02T14:22:00.999Z</time></trkpt><trkpt lat="44.48013648766361" lon="9.949788401703904"><ele>984.0</ele><time>2026-05-02T14:22:01.999Z</time></trkpt><trkpt lat="44.479968429520135" lon="9.949809105568317"><ele>984.0</ele><time>2026-05-02T14:22:02.999Z</time></trkpt><trkpt lat="44.479800462195115" lon="9.949837008362833"><ele>984.0</ele><time>2026-05-02T14:22:03.999Z</time></trkpt><trkpt lat="44.47963245669518" lon="9.94986355872129"><ele>984.0</ele><time>2026-05-02T14:22:04.999Z</time></trkpt><trkpt lat="44.479468801291155" lon="9.949890439337196"><ele>984.0</ele><time>2026-05-02T14:22:06Z</time></trkpt><trkpt lat="44.47931387396601" lon="9.949920904444987"><ele>984.0</ele><time>2026-05-02T14:22:07Z</time></trkpt><trkpt lat="44.479154901280985" lon="9.949948324061662"><ele>984.0</ele><time>2026-05-02T14:22:08Z</time></trkpt><trkpt lat="44.478989596030566" lon="9.949972018232945"><ele>984.0</ele><time>2026-05-02T14:22:09Z</time></trkpt><trkpt lat="44.47882381430666" lon="9.949996347612059"><ele>984.0</ele><time>2026-05-02T14:22:10Z</time></trkpt><trkpt lat="44.478655897571905" lon="9.95002878574132"><ele>984.0</ele><time>2026-05-02T14:22:11Z</time></trkpt><trkpt lat="44.47848765090326" lon="9.950069852031795"><ele>984.0</ele><time>2026-05-02T14:22:12Z</time></trkpt><trkpt lat="44.47831948046778" lon="9.950097399930355"><ele>984.0</ele><time>2026-05-02T14:22:13Z</time></trkpt><trkpt lat="44.478162941896656" lon="9.950067286961122"><ele>984.0</ele><time>2026-05-02T14:22:14Z</time></trkpt><trkpt lat="44.47801257488654" lon="9.94998042250963"><ele>984.0</ele><time>2026-05-02T14:22:15Z</time></trkpt><trkpt lat="44.47787751841938" lon="9.949874274123724"><ele>989.3333333333333</ele><time>2026-05-02T14:22:16Z</time></trkpt><trkpt lat="44.477764052358324" lon="9.949752421780548"><ele>994.6666666666666</ele><time>2026-05-02T14:22:17Z</time></trkpt><trkpt lat="44.47770588185941" lon="9.949561435011015"><ele>1000.0</ele><time>2026-05-02T14:22:18Z</time></trkpt><trkpt lat="44.477728760079806" lon="9.949324591997037"><ele>998.3333333333333</ele><time>2026-05-02T14:22:19Z</time></trkpt><trkpt lat="44.477741839147505" lon="9.949053598498894"><ele>996.6666666666667</ele><time>2026-05-02T14:22:20Z</time></trkpt><trkpt lat="44.477743482364176" lon="9.948798450464796"><ele>995.0</ele><time>2026-05-02T14:22:21Z</time></trkpt><trkpt lat="44.47768629519662" lon="9.948559799563583"><ele>992.3333333333334</ele><time>2026-05-02T14:22:22Z</time></trkpt><trkpt lat="44.47760064755162" lon="9.948353083596022"><ele>989.6666666666667</ele><time>2026-05-02T14:22:23Z</time></trkpt><trkpt lat="44.47748005630278" lon="9.948203674637426"><ele>987.0</ele><time>2026-05-02T14:22:24Z</time></trkpt><trkpt lat="44.477312405019525" lon="9.94811889702323"><ele>987.0</ele><time>2026-05-02T14:22:25Z</time></trkpt><trkpt lat="44.477123821906055" lon="9.94807922341224"><ele>987.0</ele><time>2026-05-02T14:22:26Z</time></trkpt><trkpt lat="44.47698024575513" lon="9.94796803365957"><ele>987.0</ele><time>2026-05-02T14:22:27Z</time></trkpt><trkpt lat="44.476846000313536" lon="9.94781968550573"><ele>989.0</ele><time>2026-05-02T14:22:28Z</time></trkpt><trkpt lat="44.47673534757734" lon="9.947621699805445"><ele>991.0</ele><time>2026-05-02T14:22:29Z</time></trkpt><trkpt lat="44.47665000951052" lon="9.947402526354626"><ele>993.0</ele><time>2026-05-02T14:22:30Z</time></trkpt><trkpt lat="44.47656670768158" lon="9.94720448412278"><ele>993.0</ele><time>2026-05-02T14:22:31Z</time></trkpt><trkpt lat="44.47646812838" lon="9.947034173754473"><ele>993.0</ele><time>2026-05-02T14:22:32Z</time></trkpt><trkpt lat="44.47633328963143" lon="9.946916250941365"><ele>993.0</ele><time>2026-05-02T14:22:33Z</time></trkpt><trkpt lat="44.47616180875869" lon="9.94683095247755"><ele>993.0</ele><time>2026-05-02T14:22:34Z</time></trkpt><trkpt lat="44.47598052134714" lon="9.946756851326741"><ele>993.0</ele><time>2026-05-02T14:22:35Z</time></trkpt><trkpt lat="44.475817609334186" lon="9.946654412495036"><ele>993.0</ele><time>2026-05-02T14:22:36Z</time></trkpt><trkpt lat="44.47565618994627" lon="9.94656547583387"><ele>993.0</ele><time>2026-05-02T14:22:37Z</time></trkpt><trkpt lat="44.47548087230134" lon="9.946493526678882"><ele>993.0</ele><time>2026-05-02T14:22:38Z</time></trkpt><trkpt lat="44.47528963363067" lon="9.946463862891214"><ele>993.0</ele><time>2026-05-02T14:22:39Z</time></trkpt><trkpt lat="44.475099555855905" lon="9.946460561403505"><ele>996.6666666666667</ele><time>2026-05-02T14:22:40Z</time></trkpt><trkpt lat="44.47489115848434" lon="9.946393158307394"><ele>1000.3333333333334</ele><time>2026-05-02T14:22:41Z</time></trkpt><trkpt lat="44.47468431497267" lon="9.946308776399992"><ele>1004.0</ele><time>2026-05-02T14:22:42Z</time></trkpt><trkpt lat="44.47458924651533" lon="9.946276299673757"><ele>1005.25</ele><time>2026-05-02T14:22:43Z</time></trkpt><trkpt lat="44.474478668805496" lon="9.946199696529966"><ele>1006.5</ele><time>2026-05-02T14:22:44Z</time></trkpt><trkpt lat="44.4743979506775" lon="9.946113881965678"><ele>1007.75</ele><time>2026-05-02T14:22:45Z</time></trkpt><trkpt lat="44.47433325296772" lon="9.945975775341283"><ele>1009.0</ele><time>2026-05-02T14:22:46Z</time></trkpt><trkpt lat="44.474320239913254" lon="9.94575461743819"><ele>1009.0</ele><time>2026-05-02T14:22:47Z</time></trkpt><trkpt lat="44.47427583737612" lon="9.945496793593994"><ele>1009.0</ele><time>2026-05-02T14:22:48Z</time></trkpt><trkpt lat="44.47423345216952" lon="9.9452451937097"><ele>1009.0</ele><time>2026-05-02T14:22:49Z</time></trkpt><trkpt lat="44.47418979792356" lon="9.944993596339788"><ele>1008.0</ele><time>2026-05-02T14:22:50Z</time></trkpt><trkpt lat="44.474116263143024" lon="9.944746653852683"><ele>1007.0</ele><time>2026-05-02T14:22:51Z</time></trkpt><trkpt lat="44.47404534752629" lon="9.944490004764724"><ele>1006.0</ele><time>2026-05-02T14:22:52Z</time></trkpt><trkpt lat="44.47396051748831" lon="9.944234015456088"><ele>1004.0</ele><time>2026-05-02T14:22:53Z</time></trkpt><trkpt lat="44.473868669101414" lon="9.943982888317015"><ele>1002.0</ele><time>2026-05-02T14:22:54Z</time></trkpt><trkpt lat="44.47377225206981" lon="9.943744857029765"><ele>1000.0</ele><time>2026-05-02T14:22:55Z</time></trkpt><trkpt lat="44.47367698874499" lon="9.943523481912967"><ele>1005.0</ele><time>2026-05-02T14:22:56Z</time></trkpt><trkpt lat="44.4735931669408" lon="9.943323943262838"><ele>1010.0</ele><time>2026-05-02T14:22:57Z</time></trkpt><trkpt lat="44.47355627048856" lon="9.94313222033591"><ele>1015.0</ele><time>2026-05-02T14:22:58Z</time></trkpt><trkpt lat="44.47356674579769" lon="9.942939554879459"><ele>1020.0</ele><time>2026-05-02T14:22:59Z</time></trkpt><trkpt lat="44.473590202246314" lon="9.942749040137324"><ele>1020.0</ele><time>2026-05-02T14:23:00Z</time></trkpt><trkpt lat="44.47361860301745" lon="9.942550075167661"><ele>1020.0</ele><time>2026-05-02T14:23:01Z</time></trkpt><trkpt lat="44.473683394501464" lon="9.942372679397728"><ele>1020.0</ele><time>2026-05-02T14:23:02Z</time></trkpt><trkpt lat="44.47379611022266" lon="9.94223901716237"><ele>1020.0</ele><time>2026-05-02T14:23:03Z</time></trkpt><trkpt lat="44.473948213863174" lon="9.942068486248758"><ele>1017.0</ele><time>2026-05-02T14:23:04Z</time></trkpt><trkpt lat="44.474163666047005" lon="9.941876756782513"><ele>1014.0</ele><time>2026-05-02T14:23:05Z</time></trkpt><trkpt lat="44.47429052837297" lon="9.94177073789043"><ele>1011.0</ele><time>2026-05-02T14:23:06Z</time></trkpt><trkpt lat="44.474364985086545" lon="9.941676462353914"><ele>1011.0</ele><time>2026-05-02T14:23:07Z</time></trkpt><trkpt lat="44.474431804008276" lon="9.941549448114085"><ele>1011.0</ele><time>2026-05-02T14:23:08Z</time></trkpt><trkpt lat="44.47437308568073" lon="9.941430546068577"><ele>1011.0</ele><time>2026-05-02T14:23:09Z</time></trkpt><trkpt lat="44.474304484186085" lon="9.941301362448735"><ele>1011.0</ele><time>2026-05-02T14:23:10Z</time></trkpt><trkpt lat="44.474165867964295" lon="9.941207880448179"><ele>1011.0</ele><time>2026-05-02T14:23:11Z</time></trkpt><trkpt lat="44.47398570575082" lon="9.941127454032445"><ele>1011.0</ele><time>2026-05-02T14:23:12Z</time></trkpt><trkpt lat="44.47383741992767" lon="9.94097964175993"><ele>1011.0</ele><time>2026-05-02T14:23:13Z</time></trkpt><trkpt lat="44.47372528759691" lon="9.940741066159568"><ele>1017.3333333333333</ele><time>2026-05-02T14:23:14Z</time></trkpt><trkpt lat="44.47362924702578" lon="9.940529466614255"><ele>1023.6666666666666</ele><time>2026-05-02T14:23:14.999Z</time></trkpt><trkpt lat="44.473536211551405" lon="9.940362303499512"><ele>1030.0</ele><time>2026-05-02T14:23:15.999Z</time></trkpt><trkpt lat="44.47343342798919" lon="9.94022579535891"><ele>1030.0</ele><time>2026-05-02T14:23:16.999Z</time></trkpt><trkpt lat="44.47327760222175" lon="9.940126398760647"><ele>1030.0</ele><time>2026-05-02T14:23:17.999Z</time></trkpt><trkpt lat="44.47308537906232" lon="9.940111211642824"><ele>1030.0</ele><time>2026-05-02T14:23:18.999Z</time></trkpt><trkpt lat="44.47288437581561" lon="9.940153864941934"><ele>1027.3333333333333</ele><time>2026-05-02T14:23:19.999Z</time></trkpt><trkpt lat="44.47270912725545" lon="9.940154704221962"><ele>1024.6666666666667</ele><time>2026-05-02T14:23:20.999Z</time></trkpt><trkpt lat="44.47255450121756" lon="9.940115845106902"><ele>1022.0</ele><time>2026-05-02T14:23:21.999Z</time></trkpt><trkpt lat="44.4724272332396" lon="9.940041779894479"><ele>1022.0</ele><time>2026-05-02T14:23:22.999Z</time></trkpt><trkpt lat="44.47232450697862" lon="9.939952650140011"><ele>1022.0</ele><time>2026-05-02T14:23:23.999Z</time></trkpt><trkpt lat="44.47228744783635" lon="9.939786347894016"><ele>1022.0</ele><time>2026-05-02T14:23:24.999Z</time></trkpt><trkpt lat="44.4722406109504" lon="9.939554889310998"><ele>1022.0</ele><time>2026-05-02T14:23:25.999Z</time></trkpt><trkpt lat="44.472197360833846" lon="9.939314995199947"><ele>1021.0</ele><time>2026-05-02T14:23:26.999Z</time></trkpt><trkpt lat="44.47217566466908" lon="9.939114654395038"><ele>1020.0</ele><time>2026-05-02T14:23:27.999Z</time></trkpt><trkpt lat="44.472220705937886" lon="9.93897841729153"><ele>1019.0</ele><time>2026-05-02T14:23:28.999Z</time></trkpt><trkpt lat="44.47231780904065" lon="9.938913283112608"><ele>1018.0</ele><time>2026-05-02T14:23:29.999Z</time></trkpt><trkpt lat="44.47245435603914" lon="9.93876550613178"><ele>1018.0</ele><time>2026-05-02T14:23:30.999Z</time></trkpt><trkpt lat="44.472594493360326" lon="9.938602302567316"><ele>1018.0</ele><time>2026-05-02T14:23:31.999Z</time></trkpt><trkpt lat="44.47262584407633" lon="9.938389099942656"><ele>1018.0</ele><time>2026-05-02T14:23:32.999Z</time></trkpt><trkpt lat="44.472626864932735" lon="9.938113888647129"><ele>1019.6666666666666</ele><time>2026-05-02T14:23:33.999Z</time></trkpt><trkpt lat="44.472641989669725" lon="9.937851078580591"><ele>1021.3333333333333</ele><time>2026-05-02T14:23:34.999Z</time></trkpt><trkpt lat="44.47266587766679" lon="9.937598997752922"><ele>1023.0</ele><time>2026-05-02T14:23:35.999Z</time></trkpt><trkpt lat="44.47269232560682" lon="9.9373631187926"><ele>1024.3333333333333</ele><time>2026-05-02T14:23:36.999Z</time></trkpt><trkpt lat="44.4727294435252" lon="9.937124190808198"><ele>1025.6666666666665</ele><time>2026-05-02T14:23:37.999Z</time></trkpt><trkpt lat="44.4727834326324" lon="9.936893303537845"><ele>1027.0</ele><time>2026-05-02T14:23:38.999Z</time></trkpt><trkpt lat="44.47285178137064" lon="9.936682476996324"><ele>1027.6666666666665</ele><time>2026-05-02T14:23:39.999Z</time></trkpt><trkpt lat="44.47289294272127" lon="9.936499382677438"><ele>1028.3333333333333</ele><time>2026-05-02T14:23:40.999Z</time></trkpt><trkpt lat="44.47289001590149" lon="9.936285206770336"><ele>1029.0</ele><time>2026-05-02T14:23:41.999Z</time></trkpt><trkpt lat="44.4728018325219" lon="9.936072810204191"><ele>1026.3333333333333</ele><time>2026-05-02T14:23:42.999Z</time></trkpt><trkpt lat="44.47266897050302" lon="9.93587993712712"><ele>1023.6666666666666</ele><time>2026-05-02T14:23:43.999Z</time></trkpt><trkpt lat="44.472503767662836" lon="9.935731880707236"><ele>1021.0</ele><time>2026-05-02T14:23:44.999Z</time></trkpt><trkpt lat="44.47237539724409" lon="9.935615768810555"><ele>1021.0</ele><time>2026-05-02T14:23:45.999Z</time></trkpt><trkpt lat="44.47221925641292" lon="9.935411739430226"><ele>1021.0</ele><time>2026-05-02T14:23:46.999Z</time></trkpt><trkpt lat="44.47209685747682" lon="9.935255737957899"><ele>1021.0</ele><time>2026-05-02T14:23:47.999Z</time></trkpt><trkpt lat="44.4719674921806" lon="9.935136112866005"><ele>1023.25</ele><time>2026-05-02T14:23:48.999Z</time></trkpt><trkpt lat="44.47180344957753" lon="9.935116845006112"><ele>1025.5</ele><time>2026-05-02T14:23:49.999Z</time></trkpt><trkpt lat="44.47164239822501" lon="9.935156498000458"><ele>1027.75</ele><time>2026-05-02T14:23:50.999Z</time></trkpt><trkpt lat="44.47154475425988" lon="9.935139001038895"><ele>1030.0</ele><time>2026-05-02T14:23:51.999Z</time></trkpt><trkpt lat="44.47147480675963" lon="9.935067808336827"><ele>1027.25</ele><time>2026-05-02T14:23:52.999Z</time></trkpt><trkpt lat="44.47144300547413" lon="9.934917802872318"><ele>1024.5</ele><time>2026-05-02T14:23:53.999Z</time></trkpt><trkpt lat="44.4714652100607" lon="9.934718696142161"><ele>1021.75</ele><time>2026-05-02T14:23:54.999Z</time></trkpt><trkpt lat="44.47151174053691" lon="9.934504496016253"><ele>1019.0</ele><time>2026-05-02T14:23:55.999Z</time></trkpt><trkpt lat="44.47155810525828" lon="9.934367144415054"><ele>1019.0</ele><time>2026-05-02T14:23:56.999Z</time></trkpt><trkpt lat="44.471597082204504" lon="9.934250707631756"><ele>1019.0</ele><time>2026-05-02T14:23:57.999Z</time></trkpt><trkpt lat="44.471639493372706" lon="9.934165350143928"><ele>1019.0</ele><time>2026-05-02T14:23:58.999Z</time></trkpt><trkpt lat="44.47177453627134" lon="9.933739927032155"><ele>1021.0</ele><time>2026-05-02T14:23:59.999Z</time></trkpt><trkpt lat="44.471863600384815" lon="9.933545852229148"><ele>1023.0</ele><time>2026-05-02T14:24:00.999Z</time></trkpt><trkpt lat="44.47194854674685" lon="9.93335067312426"><ele>1025.0</ele><time>2026-05-02T14:24:01.999Z</time></trkpt><trkpt lat="44.47202395640788" lon="9.933154796415504"><ele>1020.0</ele><time>2026-05-02T14:24:02.999Z</time></trkpt><trkpt lat="44.47211009683932" lon="9.93297736123916"><ele>1015.0</ele><time>2026-05-02T14:24:03.999Z</time></trkpt><trkpt lat="44.4721858807049" lon="9.932793231204764"><ele>1010.0</ele><time>2026-05-02T14:24:04.999Z</time></trkpt><trkpt lat="44.47224536182591" lon="9.932597241938817"><ele>1012.0</ele><time>2026-05-02T14:24:05.999Z</time></trkpt><trkpt lat="44.472292916545975" lon="9.932388351013314"><ele>1014.0</ele><time>2026-05-02T14:24:06.999Z</time></trkpt><trkpt lat="44.47233957485373" lon="9.932177422747714"><ele>1016.0</ele><time>2026-05-02T14:24:07.999Z</time></trkpt><trkpt lat="44.472385998276174" lon="9.931973786071888"><ele>1016.0</ele><time>2026-05-02T14:24:08.999Z</time></trkpt><trkpt lat="44.47243387499485" lon="9.931774435782586"><ele>1016.0</ele><time>2026-05-02T14:24:09.999Z</time></trkpt><trkpt lat="44.47247600647682" lon="9.931579285436474"><ele>1016.0</ele><time>2026-05-02T14:24:10.999Z</time></trkpt><trkpt lat="44.47251031991362" lon="9.931384148009515"><ele>1016.0</ele><time>2026-05-02T14:24:12Z</time></trkpt><trkpt lat="44.4725330343592" lon="9.93118602504029"><ele>1018.5</ele><time>2026-05-02T14:24:13Z</time></trkpt><trkpt lat="44.47253249601089" lon="9.931016421258507"><ele>1021.0</ele><time>2026-05-02T14:24:14Z</time></trkpt><trkpt lat="44.47252042775404" lon="9.93086088826975"><ele>1023.5</ele><time>2026-05-02T14:24:15Z</time></trkpt><trkpt lat="44.4724970209544" lon="9.93070001043722"><ele>1026.0</ele><time>2026-05-02T14:24:16Z</time></trkpt><trkpt lat="44.472462590794336" lon="9.930557526043364"><ele>1026.8</ele><time>2026-05-02T14:24:17Z</time></trkpt><trkpt lat="44.472420965365004" lon="9.930422561528818"><ele>1027.6</ele><time>2026-05-02T14:24:18Z</time></trkpt><trkpt lat="44.472370552494134" lon="9.930300509250499"><ele>1028.4</ele><time>2026-05-02T14:24:19Z</time></trkpt><trkpt lat="44.47231727532333" lon="9.93018739598415"><ele>1029.2</ele><time>2026-05-02T14:24:20Z</time></trkpt><trkpt lat="44.47226836077184" lon="9.930077545519763"><ele>1030.0</ele><time>2026-05-02T14:24:21Z</time></trkpt><trkpt lat="44.47221741010978" lon="9.929992905399097"><ele>1030.0</ele><time>2026-05-02T14:24:22Z</time></trkpt><trkpt lat="44.47218134912318" lon="9.929896251443527"><ele>1030.0</ele><time>2026-05-02T14:24:23Z</time></trkpt><trkpt lat="44.472152911605654" lon="9.929807888865655"><ele>1030.0</ele><time>2026-05-02T14:24:24Z</time></trkpt><trkpt lat="44.47212916513857" lon="9.929722295027226"><ele>1030.0</ele><time>2026-05-02T14:24:25Z</time></trkpt><trkpt lat="44.472080949746335" lon="9.929606918719227"><ele>1030.0</ele><time>2026-05-02T14:24:27Z</time></trkpt><trkpt lat="44.47205792851476" lon="9.929522927237254"><ele>1030.0</ele><time>2026-05-02T14:24:30Z</time></trkpt><trkpt lat="44.472020938499206" lon="9.929441676106128"><ele>1030.0</ele><time>2026-05-02T14:24:34Z</time></trkpt><trkpt lat="44.47196628801093" lon="9.929361426569827"><ele>1032.0</ele><time>2026-05-02T14:24:37Z</time></trkpt><trkpt lat="44.47191188187601" lon="9.929258694980907"><ele>1034.0</ele><time>2026-05-02T14:24:40Z</time></trkpt><trkpt lat="44.471864401443945" lon="9.929149038947342"><ele>1036.0</ele><time>2026-05-02T14:24:43Z</time></trkpt><trkpt lat="44.471831493845656" lon="9.929061478755223"><ele>1038.0</ele><time>2026-05-02T14:24:46Z</time></trkpt><trkpt lat="44.47184049505231" lon="9.928972699989322"><ele>1040.0</ele><time>2026-05-02T14:24:51Z</time></trkpt><trkpt lat="44.47181384684791" lon="9.92889152352079"><ele>1042.0</ele><time>2026-05-02T14:50:05Z</time></trkpt><trkpt lat="44.471766682225905" lon="9.928822091603116"><ele>1042.0</ele><time>2026-05-02T14:50:14Z</time></trkpt><trkpt lat="44.47178174666294" lon="9.92890833681395"><ele>1042.0</ele><time>2026-05-02T14:51:11.999Z</time></trkpt><trkpt lat="44.47183198355075" lon="9.928985090585428"><ele>1042.0</ele><time>2026-05-02T14:51:19.999Z</time></trkpt><trkpt lat="44.47184071636804" lon="9.929081574023204"><ele>1042.0</ele><time>2026-05-02T14:53:31.999Z</time></trkpt><trkpt lat="44.47186180740686" lon="9.928996739603525"><ele>1042.0</ele><time>2026-05-02T14:55:25.999Z</time></trkpt><trkpt lat="44.47184187962976" lon="9.928897467684216"><ele>1042.0</ele><time>2026-05-02T14:57:44.999Z</time></trkpt><trkpt lat="44.47179610786731" lon="9.92897017786791"><ele>1042.0</ele><time>2026-05-02T14:58:55.999Z</time></trkpt><trkpt lat="44.471826185958335" lon="9.929111391244364"><ele>1042.0</ele><time>2026-05-02T14:58:58.999Z</time></trkpt><trkpt lat="44.47186584283513" lon="9.92920521950215"><ele>1042.0</ele><time>2026-05-02T14:58:59.999Z</time></trkpt><trkpt lat="44.47190499379819" lon="9.929304592788592"><ele>1042.0</ele><time>2026-05-02T14:59:00.999Z</time></trkpt><trkpt lat="44.47195128710558" lon="9.929421478663771"><ele>1042.0</ele><time>2026-05-02T14:59:01.999Z</time></trkpt><trkpt lat="44.472003577895464" lon="9.929550093315319"><ele>1042.0</ele><time>2026-05-02T14:59:02.999Z</time></trkpt><trkpt lat="44.47205701728559" lon="9.929682288172334"><ele>1039.75</ele><time>2026-05-02T14:59:03.999Z</time></trkpt><trkpt lat="44.472112229661626" lon="9.929826887650776"><ele>1037.5</ele><time>2026-05-02T14:59:04.999Z</time></trkpt><trkpt lat="44.472166676822646" lon="9.929971375000283"><ele>1035.25</ele><time>2026-05-02T14:59:05.999Z</time></trkpt><trkpt lat="44.47222116674944" lon="9.930107140544354"><ele>1033.0</ele><time>2026-05-02T14:59:06.999Z</time></trkpt><trkpt lat="44.472285861837605" lon="9.930245745437153"><ele>1033.0</ele><time>2026-05-02T14:59:07.999Z</time></trkpt><trkpt lat="44.47235111743107" lon="9.93039753513945"><ele>1033.0</ele><time>2026-05-02T14:59:08.999Z</time></trkpt><trkpt lat="44.47241219859606" lon="9.930568432030288"><ele>1033.0</ele><time>2026-05-02T14:59:09.999Z</time></trkpt><trkpt lat="44.472440968066124" lon="9.930761865164127"><ele>1033.0</ele><time>2026-05-02T14:59:10.999Z</time></trkpt><trkpt lat="44.47246735080731" lon="9.930965425056757"><ele>1030.6666666666665</ele><time>2026-05-02T14:59:11.999Z</time></trkpt><trkpt lat="44.47247314855543" lon="9.931176859516132"><ele>1028.3333333333333</ele><time>2026-05-02T14:59:12.999Z</time></trkpt><trkpt lat="44.47245532275826" lon="9.931392959610978"><ele>1026.0</ele><time>2026-05-02T14:59:13.999Z</time></trkpt><trkpt lat="44.47241796765641" lon="9.931607839160117"><ele>1022.6666666666667</ele><time>2026-05-02T14:59:14.999Z</time></trkpt><trkpt lat="44.472365816894595" lon="9.931829020817023"><ele>1019.3333333333334</ele><time>2026-05-02T14:59:15.999Z</time></trkpt><trkpt lat="44.472315886654634" lon="9.932048052438676"><ele>1016.0</ele><time>2026-05-02T14:59:16.999Z</time></trkpt><trkpt lat="44.47226918184778" lon="9.932253976733344"><ele>1016.0</ele><time>2026-05-02T14:59:17.999Z</time></trkpt><trkpt lat="44.472241162692804" lon="9.932450962839805"><ele>1016.0</ele><time>2026-05-02T14:59:18.999Z</time></trkpt><trkpt lat="44.47219161115283" lon="9.932642052158872"><ele>1016.0</ele><time>2026-05-02T14:59:19.999Z</time></trkpt><trkpt lat="44.472118169321774" lon="9.932846690506564"><ele>1019.0</ele><time>2026-05-02T14:59:20.999Z</time></trkpt><trkpt lat="44.472036004219085" lon="9.93306478691689"><ele>1022.0</ele><time>2026-05-02T14:59:21.999Z</time></trkpt><trkpt lat="44.47193799333991" lon="9.933291519450417"><ele>1025.0</ele><time>2026-05-02T14:59:22.999Z</time></trkpt><trkpt lat="44.47182819083008" lon="9.93353263795378"><ele>1025.0</ele><time>2026-05-02T14:59:23.999Z</time></trkpt><trkpt lat="44.47173083041868" lon="9.933748442818697"><ele>1025.0</ele><time>2026-05-02T14:59:24.999Z</time></trkpt><trkpt lat="44.471636191620775" lon="9.93394513595823"><ele>1025.0</ele><time>2026-05-02T14:59:25.999Z</time></trkpt><trkpt lat="44.47155651875094" lon="9.934137984462916"><ele>1023.0</ele><time>2026-05-02T14:59:26.999Z</time></trkpt><trkpt lat="44.47148604882745" lon="9.93433917998651"><ele>1021.0</ele><time>2026-05-02T14:59:27.999Z</time></trkpt><trkpt lat="44.4714392589241" lon="9.93457060308524"><ele>1019.0</ele><time>2026-05-02T14:59:28.999Z</time></trkpt><trkpt lat="44.471410409120935" lon="9.934790724489638"><ele>1019.0</ele><time>2026-05-02T14:59:29.999Z</time></trkpt><trkpt lat="44.471408026940814" lon="9.934934459053121"><ele>1019.0000000000001</ele><time>2026-05-02T14:59:30.999Z</time></trkpt><trkpt lat="44.471420895668466" lon="9.935049432735951"><ele>1019.0000000000001</ele><time>2026-05-02T14:59:31.999Z</time></trkpt><trkpt lat="44.47146833454085" lon="9.935135303521387"><ele>1019.0</ele><time>2026-05-02T14:59:32.999Z</time></trkpt><trkpt lat="44.47154309068981" lon="9.935200560189436"><ele>1019.0</ele><time>2026-05-02T14:59:33.999Z</time></trkpt><trkpt lat="44.471662078369164" lon="9.935202520658683"><ele>1019.5</ele><time>2026-05-02T14:59:34.999Z</time></trkpt><trkpt lat="44.471792208241766" lon="9.935188564439713"><ele>1020.0</ele><time>2026-05-02T14:59:35.999Z</time></trkpt><trkpt lat="44.47193828889484" lon="9.935194639179132"><ele>1020.5</ele><time>2026-05-02T14:59:36.999Z</time></trkpt><trkpt lat="44.47209191132605" lon="9.935284683664047"><ele>1021.0</ele><time>2026-05-02T14:59:37.999Z</time></trkpt><trkpt lat="44.47222346743076" lon="9.935481606105501"><ele>1021.0</ele><time>2026-05-02T14:59:38.999Z</time></trkpt><trkpt lat="44.472380137383595" lon="9.935660799396727"><ele>1021.0</ele><time>2026-05-02T14:59:39.999Z</time></trkpt><trkpt lat="44.47253854494887" lon="9.935831370815958"><ele>1021.0</ele><time>2026-05-02T14:59:40.999Z</time></trkpt><trkpt lat="44.47266847796015" lon="9.936005433286999"><ele>1023.6666666666666</ele><time>2026-05-02T14:59:41.999Z</time></trkpt><trkpt lat="44.472774789583994" lon="9.936177385861054"><ele>1026.3333333333333</ele><time>2026-05-02T14:59:42.999Z</time></trkpt><trkpt lat="44.47282611048479" lon="9.93636745232375"><ele>1029.0</ele><time>2026-05-02T14:59:43.999Z</time></trkpt><trkpt lat="44.47283464289568" lon="9.936604639503862"><ele>1028.3333333333333</ele><time>2026-05-02T14:59:44.999Z</time></trkpt><trkpt lat="44.47276324191034" lon="9.936834350617179"><ele>1027.6666666666665</ele><time>2026-05-02T14:59:45.999Z</time></trkpt><trkpt lat="44.47270284575986" lon="9.93709164615132"><ele>1027.0</ele><time>2026-05-02T14:59:46.999Z</time></trkpt><trkpt lat="44.47263867509665" lon="9.937353859162425"><ele>1025.6666666666665</ele><time>2026-05-02T14:59:47.999Z</time></trkpt><trkpt lat="44.47261560282032" lon="9.937654104645931"><ele>1024.3333333333333</ele><time>2026-05-02T14:59:48.999Z</time></trkpt><trkpt lat="44.47259629705035" lon="9.937958980156836"><ele>1023.0</ele><time>2026-05-02T14:59:49.999Z</time></trkpt><trkpt lat="44.472574643697634" lon="9.938249816116262"><ele>1021.3333333333333</ele><time>2026-05-02T14:59:50.999Z</time></trkpt><trkpt lat="44.4725417095924" lon="9.93850027517489"><ele>1019.6666666666666</ele><time>2026-05-02T14:59:51.999Z</time></trkpt><trkpt lat="44.472471010939906" lon="9.938693832973016"><ele>1018.0</ele><time>2026-05-02T14:59:53Z</time></trkpt><trkpt lat="44.47236418559389" lon="9.938823664501028"><ele>1018.0</ele><time>2026-05-02T14:59:54Z</time></trkpt><trkpt lat="44.47225309674493" lon="9.938934366037142"><ele>1018.0</ele><time>2026-05-02T14:59:55Z</time></trkpt><trkpt lat="44.47215386841201" lon="9.939038036805524"><ele>1018.0</ele><time>2026-05-02T14:59:56Z</time></trkpt><trkpt lat="44.47211414806978" lon="9.93917697414296"><ele>1018.0</ele><time>2026-05-02T14:59:57Z</time></trkpt><trkpt lat="44.47214911238159" lon="9.939364569169358"><ele>1019.3333333333333</ele><time>2026-05-02T14:59:58Z</time></trkpt><trkpt lat="44.47220971563923" lon="9.939582423726781"><ele>1020.6666666666667</ele><time>2026-05-02T14:59:59Z</time></trkpt><trkpt lat="44.47226264590365" lon="9.939809829784627"><ele>1022.0</ele><time>2026-05-02T15:00:00Z</time></trkpt><trkpt lat="44.47230824906684" lon="9.94000924622978"><ele>1027.6666666666667</ele><time>2026-05-02T15:00:01Z</time></trkpt><trkpt lat="44.472415144354336" lon="9.940137113431582"><ele>1033.3333333333333</ele><time>2026-05-02T15:00:02Z</time></trkpt><trkpt lat="44.472573158746755" lon="9.940181664600654"><ele>1039.0</ele><time>2026-05-02T15:00:03Z</time></trkpt><trkpt lat="44.472781579095226" lon="9.940208637154376"><ele>1036.0</ele><time>2026-05-02T15:00:04Z</time></trkpt><trkpt lat="44.4729833846876" lon="9.940223245592053"><ele>1033.0</ele><time>2026-05-02T15:00:05Z</time></trkpt><trkpt lat="44.4731779555923" lon="9.940235941243776"><ele>1030.0</ele><time>2026-05-02T15:00:06Z</time></trkpt><trkpt lat="44.47334426561764" lon="9.940286906272421"><ele>1030.0</ele><time>2026-05-02T15:00:07Z</time></trkpt><trkpt lat="44.473498624291466" lon="9.940381385794387"><ele>1030.0</ele><time>2026-05-02T15:00:08Z</time></trkpt><trkpt lat="44.473612562555616" lon="9.940609442858403"><ele>1030.0</ele><time>2026-05-02T15:00:09Z</time></trkpt><trkpt lat="44.473754443291945" lon="9.940886932236728"><ele>1023.6666666666666</ele><time>2026-05-02T15:00:10Z</time></trkpt><trkpt lat="44.47389369874649" lon="9.94112661980703"><ele>1017.3333333333333</ele><time>2026-05-02T15:00:11Z</time></trkpt><trkpt lat="44.47405183836621" lon="9.941300408071227"><ele>1011.0</ele><time>2026-05-02T15:00:12Z</time></trkpt><trkpt lat="44.47420043524747" lon="9.941383940069302"><ele>1011.0</ele><time>2026-05-02T15:00:13Z</time></trkpt><trkpt lat="44.47429513601799" lon="9.941432217424397"><ele>1011.0</ele><time>2026-05-02T15:00:14Z</time></trkpt><trkpt lat="44.47433140477713" lon="9.94155303876588"><ele>1011.0</ele><time>2026-05-02T15:00:15Z</time></trkpt><trkpt lat="44.474268339548175" lon="9.941703050896532"><ele>1011.0</ele><time>2026-05-02T15:00:16Z</time></trkpt><trkpt lat="44.47414131048908" lon="9.941792579405503"><ele>1007.0</ele><time>2026-05-02T15:00:17Z</time></trkpt><trkpt lat="44.47399235939427" lon="9.941983796743754"><ele>1003.0</ele><time>2026-05-02T15:00:18Z</time></trkpt><trkpt lat="44.473827801747284" lon="9.942143683463316"><ele>999.0</ele><time>2026-05-02T15:00:19Z</time></trkpt><trkpt lat="44.47368569889493" lon="9.942309622138872"><ele>1006.0</ele><time>2026-05-02T15:00:20Z</time></trkpt><trkpt lat="44.47359052288858" lon="9.942467101470145"><ele>1013.0</ele><time>2026-05-02T15:00:21Z</time></trkpt><trkpt lat="44.47352511404322" lon="9.942707178886089"><ele>1020.0</ele><time>2026-05-02T15:00:22Z</time></trkpt><trkpt lat="44.47351258714506" lon="9.942967964019536"><ele>1020.0</ele><time>2026-05-02T15:00:23Z</time></trkpt><trkpt lat="44.47352515644354" lon="9.943211224691337"><ele>1020.0</ele><time>2026-05-02T15:00:24Z</time></trkpt><trkpt lat="44.47357358561509" lon="9.943452573968628"><ele>1020.0</ele><time>2026-05-02T15:00:25Z</time></trkpt><trkpt lat="44.47369123562324" lon="9.943709477513913"><ele>1015.3333333333333</ele><time>2026-05-02T15:00:26Z</time></trkpt><trkpt lat="44.47380936654591" lon="9.943922546313097"><ele>1010.6666666666666</ele><time>2026-05-02T15:00:27Z</time></trkpt><trkpt lat="44.47389752447273" lon="9.944139451529239"><ele>1006.0</ele><time>2026-05-02T15:00:28Z</time></trkpt><trkpt lat="44.47401421480863" lon="9.944416289389475"><ele>1006.0</ele><time>2026-05-02T15:00:29Z</time></trkpt><trkpt lat="44.4740860522309" lon="9.94470191251162"><ele>1006.0</ele><time>2026-05-02T15:00:30Z</time></trkpt><trkpt lat="44.474156453955516" lon="9.944999683008447"><ele>1006.0</ele><time>2026-05-02T15:00:31Z</time></trkpt><trkpt lat="44.474207319072676" lon="9.945293083623183"><ele>1007.0</ele><time>2026-05-02T15:00:32Z</time></trkpt><trkpt lat="44.474267437123224" lon="9.945567941465082"><ele>1008.0</ele><time>2026-05-02T15:00:33Z</time></trkpt><trkpt lat="44.47430404592544" lon="9.945823607034036"><ele>1009.0</ele><time>2026-05-02T15:00:34Z</time></trkpt><trkpt lat="44.474339702949706" lon="9.946033694569383"><ele>1007.3333333333333</ele><time>2026-05-02T15:00:35Z</time></trkpt><trkpt lat="44.47439704650664" lon="9.946201309691155"><ele>1005.6666666666667</ele><time>2026-05-02T15:00:36Z</time></trkpt><trkpt lat="44.474526232058736" lon="9.946310562505909"><ele>1004.0</ele><time>2026-05-02T15:00:37Z</time></trkpt><trkpt lat="44.474708239151006" lon="9.946381779125632"><ele>1004.0</ele><time>2026-05-02T15:00:38Z</time></trkpt><trkpt lat="44.47492189999796" lon="9.946442497873262"><ele>1004.0</ele><time>2026-05-02T15:00:39Z</time></trkpt><trkpt lat="44.47510267365961" lon="9.946503412170866"><ele>1004.0</ele><time>2026-05-02T15:00:40Z</time></trkpt><trkpt lat="44.47533247946427" lon="9.946530821356554"><ele>1006.0</ele><time>2026-05-02T15:00:41Z</time></trkpt><trkpt lat="44.47554817512369" lon="9.946567401157775"><ele>1008.0</ele><time>2026-05-02T15:00:42Z</time></trkpt><trkpt lat="44.47574291246797" lon="9.946661961490975"><ele>1010.0</ele><time>2026-05-02T15:00:43Z</time></trkpt><trkpt lat="44.475973723734576" lon="9.94679637287195"><ele>1010.0</ele><time>2026-05-02T15:00:44Z</time></trkpt><trkpt lat="44.476196137088934" lon="9.946925470158051"><ele>1010.0</ele><time>2026-05-02T15:00:45Z</time></trkpt><trkpt lat="44.4763858300675" lon="9.947040060473988"><ele>1010.0</ele><time>2026-05-02T15:00:46Z</time></trkpt><trkpt lat="44.476507331685106" lon="9.947169567939648"><ele>1008.6666666666667</ele><time>2026-05-02T15:00:47Z</time></trkpt><trkpt lat="44.476586195196504" lon="9.947346942548469"><ele>1007.3333333333333</ele><time>2026-05-02T15:00:48Z</time></trkpt><trkpt lat="44.47669787063382" lon="9.947610291944768"><ele>1006.0</ele><time>2026-05-02T15:00:49Z</time></trkpt><trkpt lat="44.47681894470815" lon="9.94786265577484"><ele>1006.0</ele><time>2026-05-02T15:00:50Z</time></trkpt><trkpt lat="44.476983100021066" lon="9.948056513439221"><ele>1006.0</ele><time>2026-05-02T15:00:51Z</time></trkpt><trkpt lat="44.47719957072588" lon="9.948174093591659"><ele>1006.0</ele><time>2026-05-02T15:00:52Z</time></trkpt><trkpt lat="44.47740909162224" lon="9.948257863666814"><ele>1002.3333333333333</ele><time>2026-05-02T15:00:53Z</time></trkpt><trkpt lat="44.477540271388904" lon="9.948388426224263"><ele>998.6666666666667</ele><time>2026-05-02T15:00:54Z</time></trkpt><trkpt lat="44.47761644259147" lon="9.948570532958007"><ele>995.0</ele><time>2026-05-02T15:00:55Z</time></trkpt><trkpt lat="44.47767959863341" lon="9.948835355122148"><ele>995.0</ele><time>2026-05-02T15:00:56Z</time></trkpt><trkpt lat="44.47770182331967" lon="9.949148389672661"><ele>995.0</ele><time>2026-05-02T15:00:57Z</time></trkpt><trkpt lat="44.47769163039552" lon="9.949420391559824"><ele>995.0</ele><time>2026-05-02T15:00:58Z</time></trkpt><trkpt lat="44.4777035075262" lon="9.949628794927165"><ele>996.6666666666667</ele><time>2026-05-02T15:00:58.999Z</time></trkpt><trkpt lat="44.47774542091744" lon="9.949792383443242"><ele>998.3333333333333</ele><time>2026-05-02T15:00:59.999Z</time></trkpt><trkpt lat="44.477874611351105" lon="9.949942426080181"><ele>1000.0</ele><time>2026-05-02T15:01:00.999Z</time></trkpt><trkpt lat="44.478063985181535" lon="9.950070861411481"><ele>1001.0</ele><time>2026-05-02T15:01:01.999Z</time></trkpt><trkpt lat="44.478226956688566" lon="9.950126237194787"><ele>1002.0</ele><time>2026-05-02T15:01:02.999Z</time></trkpt><trkpt lat="44.47843389772307" lon="9.95010654076345"><ele>1003.0</ele><time>2026-05-02T15:01:03.999Z</time></trkpt><trkpt lat="44.47873920474624" lon="9.950056854606213"><ele>993.5</ele><time>2026-05-02T15:01:04.999Z</time></trkpt><trkpt lat="44.47897445665836" lon="9.950018795016355"><ele>984.0</ele><time>2026-05-02T15:01:05.999Z</time></trkpt><trkpt lat="44.47920366094736" lon="9.949981713844917"><ele>984.0</ele><time>2026-05-02T15:01:06.999Z</time></trkpt><trkpt lat="44.47943647878707" lon="9.949944048049774"><ele>984.0</ele><time>2026-05-02T15:01:07.999Z</time></trkpt><trkpt lat="44.47971704307107" lon="9.949915294512131"><ele>984.0</ele><time>2026-05-02T15:01:08.999Z</time></trkpt><trkpt lat="44.48002085485113" lon="9.949942780296855"><ele>984.0</ele><time>2026-05-02T15:01:09.999Z</time></trkpt><trkpt lat="44.480260531877995" lon="9.949900094303326"><ele>984.0</ele><time>2026-05-02T15:01:10.999Z</time></trkpt><trkpt lat="44.48042145350975" lon="9.949825748691405"><ele>984.0</ele><time>2026-05-02T15:01:11.999Z</time></trkpt><trkpt lat="44.480584874442236" lon="9.949783415567286"><ele>984.0</ele><time>2026-05-02T15:01:12.999Z</time></trkpt><trkpt lat="44.48073833063465" lon="9.949682083913011"><ele>984.5</ele><time>2026-05-02T15:01:13.999Z</time></trkpt><trkpt lat="44.48087199725707" lon="9.949413581659682"><ele>985.0</ele><time>2026-05-02T15:01:14.999Z</time></trkpt><trkpt lat="44.48103754795929" lon="9.94912338504281"><ele>979.5</ele><time>2026-05-02T15:01:15.999Z</time></trkpt><trkpt lat="44.4812260275914" lon="9.948859756552853"><ele>974.0</ele><time>2026-05-02T15:01:16.999Z</time></trkpt><trkpt lat="44.48137269282158" lon="9.948659973969049"><ele>974.0</ele><time>2026-05-02T15:01:17.999Z</time></trkpt><trkpt lat="44.481491375779726" lon="9.948588015949943"><ele>974.0</ele><time>2026-05-02T15:01:18.999Z</time></trkpt><trkpt lat="44.481594988043796" lon="9.948530104413054"><ele>974.0</ele><time>2026-05-02T15:01:19.999Z</time></trkpt><trkpt lat="44.481695707972456" lon="9.948461696920312"><ele>974.0</ele><time>2026-05-02T15:01:20.999Z</time></trkpt><trkpt lat="44.481803714840154" lon="9.948609081032666"><ele>974.0</ele><time>2026-05-02T15:01:21.999Z</time></trkpt><trkpt lat="44.4818114263371" lon="9.948845433053506"><ele>974.0</ele><time>2026-05-02T15:01:22.999Z</time></trkpt><trkpt lat="44.481904403976586" lon="9.94908513858633"><ele>974.0</ele><time>2026-05-02T15:01:23.999Z</time></trkpt><trkpt lat="44.48201542273031" lon="9.94929740624128"><ele>973.0</ele><time>2026-05-02T15:01:24.999Z</time></trkpt><trkpt lat="44.482224673842055" lon="9.949496103763636"><ele>972.0</ele><time>2026-05-02T15:01:25.999Z</time></trkpt><trkpt lat="44.48248777413537" lon="9.949696394814788"><ele>972.0</ele><time>2026-05-02T15:01:26.999Z</time></trkpt><trkpt lat="44.482706531948054" lon="9.94989178956917"><ele>972.0</ele><time>2026-05-02T15:01:27.999Z</time></trkpt><trkpt lat="44.48289287951498" lon="9.950029469616556"><ele>973.6666666666667</ele><time>2026-05-02T15:01:28.999Z</time></trkpt><trkpt lat="44.48308073921259" lon="9.950065061937952"><ele>975.3333333333334</ele><time>2026-05-02T15:01:29.999Z</time></trkpt><trkpt lat="44.48328210943714" lon="9.95000671464887"><ele>977.0</ele><time>2026-05-02T15:01:30.999Z</time></trkpt><trkpt lat="44.48350748876555" lon="9.94999916121477"><ele>977.0</ele><time>2026-05-02T15:01:31.999Z</time></trkpt><trkpt lat="44.48371470064218" lon="9.950132614991162"><ele>977.0</ele><time>2026-05-02T15:01:32.999Z</time></trkpt><trkpt lat="44.48385448270217" lon="9.95027361692045"><ele>977.0</ele><time>2026-05-02T15:01:33.999Z</time></trkpt><trkpt lat="44.48392806674163" lon="9.950392586742527"><ele>967.0</ele><time>2026-05-02T15:01:34.999Z</time></trkpt><trkpt lat="44.48408482749213" lon="9.950811054799047"><ele>957.0</ele><time>2026-05-02T15:01:35.999Z</time></trkpt><trkpt lat="44.48416365082429" lon="9.951156979626917"><ele>957.0</ele><time>2026-05-02T15:01:36.999Z</time></trkpt><trkpt lat="44.48424573170943" lon="9.951504075180749"><ele>957.0</ele><time>2026-05-02T15:01:37.999Z</time></trkpt><trkpt lat="44.484338113428656" lon="9.951836170967033"><ele>960.5</ele><time>2026-05-02T15:01:38.999Z</time></trkpt><trkpt lat="44.48449571658569" lon="9.952134843887805"><ele>964.0</ele><time>2026-05-02T15:01:39.999Z</time></trkpt><trkpt lat="44.48467022353703" lon="9.952418573077859"><ele>950.0</ele><time>2026-05-02T15:01:40.999Z</time></trkpt><trkpt lat="44.484780250347534" lon="9.952731925594797"><ele>936.0</ele><time>2026-05-02T15:01:41.999Z</time></trkpt><trkpt lat="44.48489283565906" lon="9.953061462029819"><ele>936.0</ele><time>2026-05-02T15:01:42.999Z</time></trkpt><trkpt lat="44.484980668416824" lon="9.953372073495336"><ele>936.0</ele><time>2026-05-02T15:01:43.999Z</time></trkpt><trkpt lat="44.485006076022366" lon="9.953667770351164"><ele>935.5</ele><time>2026-05-02T15:01:44.999Z</time></trkpt><trkpt lat="44.48501455401671" lon="9.954012744603318"><ele>935.0</ele><time>2026-05-02T15:01:45.999Z</time></trkpt><trkpt lat="44.48497573760377" lon="9.954319454516606"><ele>931.5</ele><time>2026-05-02T15:01:46.999Z</time></trkpt><trkpt lat="44.48490824868591" lon="9.954651976165607"><ele>928.0</ele><time>2026-05-02T15:01:47.999Z</time></trkpt><trkpt lat="44.48483053709176" lon="9.955029121387625"><ele>921.0</ele><time>2026-05-02T15:01:48.999Z</time></trkpt><trkpt lat="44.48474670165099" lon="9.955418051282535"><ele>914.0</ele><time>2026-05-02T15:01:49.999Z</time></trkpt><trkpt lat="44.48463532142464" lon="9.955783425450074"><ele>920.5</ele><time>2026-05-02T15:01:50.999Z</time></trkpt><trkpt lat="44.4845593170331" lon="9.956182287569977"><ele>927.0</ele><time>2026-05-02T15:01:51.999Z</time></trkpt><trkpt lat="44.48453414191261" lon="9.95658701756446"><ele>925.5</ele><time>2026-05-02T15:01:52.999Z</time></trkpt><trkpt lat="44.48449791628344" lon="9.95698784985735"><ele>924.0</ele><time>2026-05-02T15:01:53.999Z</time></trkpt><trkpt lat="44.48444933835616" lon="9.957368923650334"><ele>924.5</ele><time>2026-05-02T15:01:54.999Z</time></trkpt><trkpt lat="44.48441633151449" lon="9.957738111161644"><ele>925.0</ele><time>2026-05-02T15:01:55.999Z</time></trkpt><trkpt lat="44.48440302995227" lon="9.958064795569818"><ele>925.0</ele><time>2026-05-02T15:01:56.999Z</time></trkpt><trkpt lat="44.48437876432615" lon="9.958337027890341"><ele>925.0</ele><time>2026-05-02T15:01:57.999Z</time></trkpt><trkpt lat="44.48436628432154" lon="9.958532303312289"><ele>925.0</ele><time>2026-05-02T15:01:59Z</time></trkpt><trkpt lat="44.48440467594862" lon="9.958691298953308"><ele>928.3333333333333</ele><time>2026-05-02T15:02:00Z</time></trkpt><trkpt lat="44.484533520099895" lon="9.958785108761093"><ele>931.6666666666667</ele><time>2026-05-02T15:02:01Z</time></trkpt><trkpt lat="44.484698068650204" lon="9.958839533455436"><ele>935.0</ele><time>2026-05-02T15:02:02Z</time></trkpt><trkpt lat="44.48491936010819" lon="9.958875977384313"><ele>923.5</ele><time>2026-05-02T15:02:03Z</time></trkpt><trkpt lat="44.48516966508812" lon="9.95888021448574"><ele>912.0</ele><time>2026-05-02T15:02:04Z</time></trkpt><trkpt lat="44.48537667309226" lon="9.958914406197538"><ele>905.6666666666667</ele><time>2026-05-02T15:02:05Z</time></trkpt><trkpt lat="44.485533861955" lon="9.959016577747379"><ele>899.3333333333334</ele><time>2026-05-02T15:02:06Z</time></trkpt><trkpt lat="44.485601162633486" lon="9.95921566608661"><ele>893.0</ele><time>2026-05-02T15:02:07Z</time></trkpt><trkpt lat="44.48560947813331" lon="9.95943745375707"><ele>893.0</ele><time>2026-05-02T15:02:08Z</time></trkpt><trkpt lat="44.48561382287951" lon="9.959725798392821"><ele>893.0</ele><time>2026-05-02T15:02:09Z</time></trkpt><trkpt lat="44.48562262659085" lon="9.960080985645094"><ele>893.0</ele><time>2026-05-02T15:02:10Z</time></trkpt><trkpt lat="44.48567423068441" lon="9.960477512523624"><ele>893.0</ele><time>2026-05-02T15:02:11Z</time></trkpt><trkpt lat="44.48573660386079" lon="9.96088276377611"><ele>893.0</ele><time>2026-05-02T15:02:12Z</time></trkpt><trkpt lat="44.48580257378848" lon="9.961299208982561"><ele>893.0</ele><time>2026-05-02T15:02:13Z</time></trkpt><trkpt lat="44.485870127082904" lon="9.961718169054205"><ele>893.0</ele><time>2026-05-02T15:02:14Z</time></trkpt><trkpt lat="44.4859339346206" lon="9.96211389823382"><ele>893.0</ele><time>2026-05-02T15:02:15Z</time></trkpt><trkpt lat="44.48599466544233" lon="9.962476617070026"><ele>892.3333333333334</ele><time>2026-05-02T15:02:16Z</time></trkpt><trkpt lat="44.48603757934059" lon="9.962797295474976"><ele>891.6666666666667</ele><time>2026-05-02T15:02:17Z</time></trkpt><trkpt lat="44.48600422560233" lon="9.963031672138342"><ele>891.0</ele><time>2026-05-02T15:02:18Z</time></trkpt><trkpt lat="44.48593300067196" lon="9.963219277922828"><ele>890.0</ele><time>2026-05-02T15:02:19Z</time></trkpt><trkpt lat="44.48581657092767" lon="9.963461678896998"><ele>889.0</ele><time>2026-05-02T15:02:20Z</time></trkpt><trkpt lat="44.485685969428296" lon="9.963748264854653"><ele>889.0</ele><time>2026-05-02T15:02:21Z</time></trkpt><trkpt lat="44.48560826549363" lon="9.964000396414926"><ele>889.0</ele><time>2026-05-02T15:02:22Z</time></trkpt><trkpt lat="44.48558157069067" lon="9.964233849451759"><ele>889.0</ele><time>2026-05-02T15:02:23Z</time></trkpt><trkpt lat="44.48556840658383" lon="9.964462575517096"><ele>889.6666666666666</ele><time>2026-05-02T15:02:24Z</time></trkpt><trkpt lat="44.48560652332689" lon="9.96470318948852"><ele>890.3333333333333</ele><time>2026-05-02T15:02:25Z</time></trkpt><trkpt lat="44.485688656152945" lon="9.964914267657655"><ele>891.0</ele><time>2026-05-02T15:02:26Z</time></trkpt><trkpt lat="44.48581890582455" lon="9.965037751088838"><ele>891.0</ele><time>2026-05-02T15:02:27Z</time></trkpt><trkpt lat="44.485990322206526" lon="9.965060483743093"><ele>891.0</ele><time>2026-05-02T15:02:28Z</time></trkpt><trkpt lat="44.48619038594776" lon="9.96497773322008"><ele>891.0</ele><time>2026-05-02T15:02:29Z</time></trkpt><trkpt lat="44.4864303450691" lon="9.964814592104862"><ele>886.6666666666667</ele><time>2026-05-02T15:02:30Z</time></trkpt><trkpt lat="44.486669915062514" lon="9.96469004920805"><ele>882.3333333333334</ele><time>2026-05-02T15:02:31Z</time></trkpt><trkpt lat="44.48685602065554" lon="9.964663033913364"><ele>878.0</ele><time>2026-05-02T15:02:32Z</time></trkpt><trkpt lat="44.48702114707849" lon="9.96473794818457"><ele>875.3333333333334</ele><time>2026-05-02T15:02:33Z</time></trkpt><trkpt lat="44.48717186079322" lon="9.964886427026016"><ele>872.6666666666667</ele><time>2026-05-02T15:02:34Z</time></trkpt><trkpt lat="44.48730585854726" lon="9.965107983929157"><ele>870.0</ele><time>2026-05-02T15:02:35Z</time></trkpt><trkpt lat="44.48742651096431" lon="9.965359029758206"><ele>870.0</ele><time>2026-05-02T15:02:36Z</time></trkpt><trkpt lat="44.48754998128032" lon="9.965596464408087"><ele>870.0</ele><time>2026-05-02T15:02:37Z</time></trkpt><trkpt lat="44.48764777931326" lon="9.965788811081755"><ele>870.0</ele><time>2026-05-02T15:02:38Z</time></trkpt><trkpt lat="44.4877190531698" lon="9.965943077368456"><ele>871.4</ele><time>2026-05-02T15:02:39Z</time></trkpt><trkpt lat="44.48778346249736" lon="9.966084363111737"><ele>872.8</ele><time>2026-05-02T15:02:40Z</time></trkpt><trkpt lat="44.48783673372938" lon="9.966162243382236"><ele>874.2</ele><time>2026-05-02T15:02:41Z</time></trkpt><trkpt lat="44.487925313019076" lon="9.966257366293199"><ele>875.6</ele><time>2026-05-02T15:02:44Z</time></trkpt><trkpt lat="44.48799651327156" lon="9.966294034467856"><ele>877.0</ele><time>2026-05-02T15:02:45Z</time></trkpt><trkpt lat="44.48808141785605" lon="9.966306823046738"><ele>876.9999999999999</ele><time>2026-05-02T15:02:46Z</time></trkpt><trkpt lat="44.488161690336355" lon="9.966288807314381"><ele>877.0</ele><time>2026-05-02T15:02:47Z</time></trkpt><trkpt lat="44.48823766242526" lon="9.966248456284582"><ele>877.0</ele><time>2026-05-02T15:02:48Z</time></trkpt><trkpt lat="44.48832047566932" lon="9.966197844809665"><ele>877.0</ele><time>2026-05-02T15:02:49Z</time></trkpt><trkpt lat="44.48839955382463" lon="9.966135373004136"><ele>876.9999999999999</ele><time>2026-05-02T15:02:50Z</time></trkpt><trkpt lat="44.48848379641799" lon="9.966082715515485"><ele>877.0</ele><time>2026-05-02T15:02:51Z</time></trkpt><trkpt lat="44.488581578448965" lon="9.966050227305155"><ele>877.0</ele><time>2026-05-02T15:02:52Z</time></trkpt><trkpt lat="44.4886916231023" lon="9.96606623721114"><ele>877.0</ele><time>2026-05-02T15:02:53Z</time></trkpt><trkpt lat="44.48878043515197" lon="9.966154824732422"><ele>877.0</ele><time>2026-05-02T15:02:54Z</time></trkpt><trkpt lat="44.488868421898474" lon="9.966271978584476"><ele>877.0</ele><time>2026-05-02T15:02:55Z</time></trkpt><trkpt lat="44.48898165924491" lon="9.966465838500085"><ele>877.0</ele><time>2026-05-02T15:02:56Z</time></trkpt><trkpt lat="44.489121929717086" lon="9.96668091362856"><ele>877.0</ele><time>2026-05-02T15:02:57Z</time></trkpt><trkpt lat="44.48923660540134" lon="9.966829444563697"><ele>877.0</ele><time>2026-05-02T15:02:58Z</time></trkpt><trkpt lat="44.489367204765486" lon="9.966895433604593"><ele>877.0</ele><time>2026-05-02T15:02:59Z</time></trkpt><trkpt lat="44.48950636875055" lon="9.966857235444095"><ele>877.0</ele><time>2026-05-02T15:03:00Z</time></trkpt><trkpt lat="44.48964933290913" lon="9.966706632109895"><ele>877.0</ele><time>2026-05-02T15:03:01Z</time></trkpt><trkpt lat="44.48981552317968" lon="9.966474872302266"><ele>877.0</ele><time>2026-05-02T15:03:02Z</time></trkpt><trkpt lat="44.48997705577182" lon="9.966251246613572"><ele>877.0</ele><time>2026-05-02T15:03:03Z</time></trkpt><trkpt lat="44.49013024083342" lon="9.966057732787517"><ele>877.0</ele><time>2026-05-02T15:03:04Z</time></trkpt><trkpt lat="44.49030475341965" lon="9.965921209705256"><ele>878.5</ele><time>2026-05-02T15:03:05Z</time></trkpt><trkpt lat="44.49051107281823" lon="9.96591042640098"><ele>880.0</ele><time>2026-05-02T15:03:05.999Z</time></trkpt><trkpt lat="44.49076705202056" lon="9.965895904688018"><ele>880.0</ele><time>2026-05-02T15:03:06.999Z</time></trkpt><trkpt lat="44.4910306960698" lon="9.965925242175585"><ele>880.0</ele><time>2026-05-02T15:03:07.999Z</time></trkpt><trkpt lat="44.49130156636836" lon="9.966029426778965"><ele>876.0</ele><time>2026-05-02T15:03:08.999Z</time></trkpt><trkpt lat="44.49160025260036" lon="9.9661259708263"><ele>872.0</ele><time>2026-05-02T15:03:09.999Z</time></trkpt><trkpt lat="44.491891922215835" lon="9.966313482163523"><ele>868.5</ele><time>2026-05-02T15:03:10.999Z</time></trkpt><trkpt lat="44.49214216283442" lon="9.96645263816818"><ele>865.0</ele><time>2026-05-02T15:03:11.999Z</time></trkpt><trkpt lat="44.49236107544761" lon="9.966569575862758"><ele>865.0</ele><time>2026-05-02T15:03:12.999Z</time></trkpt><trkpt lat="44.492523821648774" lon="9.966682748209342"><ele>865.0</ele><time>2026-05-02T15:03:13.999Z</time></trkpt><trkpt lat="44.49259124788612" lon="9.966891512999542"><ele>865.0</ele><time>2026-05-02T15:03:14.999Z</time></trkpt><trkpt lat="44.492618208823046" lon="9.967094506651714"><ele>866.5</ele><time>2026-05-02T15:03:15.999Z</time></trkpt><trkpt lat="44.49259825737832" lon="9.967365388920204"><ele>868.0</ele><time>2026-05-02T15:03:16.999Z</time></trkpt><trkpt lat="44.492629554072536" lon="9.96773572111815"><ele>869.0</ele><time>2026-05-02T15:03:17.999Z</time></trkpt><trkpt lat="44.49271605064269" lon="9.968083806982424"><ele>870.0</ele><time>2026-05-02T15:03:18.999Z</time></trkpt><trkpt lat="44.49283035035901" lon="9.96844536238975"><ele>867.5</ele><time>2026-05-02T15:03:19.999Z</time></trkpt><trkpt lat="44.49293406186656" lon="9.96879402948327"><ele>865.0</ele><time>2026-05-02T15:03:20.999Z</time></trkpt><trkpt lat="44.49302286868375" lon="9.96910747240503"><ele>867.0</ele><time>2026-05-02T15:03:21.999Z</time></trkpt><trkpt lat="44.4931141165587" lon="9.96940671729454"><ele>869.0</ele><time>2026-05-02T15:03:22.999Z</time></trkpt><trkpt lat="44.49320134236423" lon="9.969709490168054"><ele>869.0</ele><time>2026-05-02T15:03:23.999Z</time></trkpt><trkpt lat="44.49328306560729" lon="9.970004897768419"><ele>869.0</ele><time>2026-05-02T15:03:24.999Z</time></trkpt><trkpt lat="44.49336305594912" lon="9.970277723496954"><ele>869.0</ele><time>2026-05-02T15:03:25.999Z</time></trkpt><trkpt lat="44.49345106359956" lon="9.970501132183879"><ele>870.3333333333334</ele><time>2026-05-02T15:03:26.999Z</time></trkpt><trkpt lat="44.493578367722996" lon="9.970710538446683"><ele>871.6666666666667</ele><time>2026-05-02T15:03:27.999Z</time></trkpt><trkpt lat="44.49378746302609" lon="9.970860149417685"><ele>873.0</ele><time>2026-05-02T15:03:28.999Z</time></trkpt><trkpt lat="44.49400289684729" lon="9.971005772421533"><ele>873.0</ele><time>2026-05-02T15:03:29.999Z</time></trkpt><trkpt lat="44.49415737973611" lon="9.971129519163439"><ele>873.0</ele><time>2026-05-02T15:03:30.999Z</time></trkpt><trkpt lat="44.49422785985752" lon="9.971291567452992"><ele>873.0</ele><time>2026-05-02T15:03:31.999Z</time></trkpt><trkpt lat="44.49421670193818" lon="9.971489805883289"><ele>875.6666666666667</ele><time>2026-05-02T15:03:32.999Z</time></trkpt><trkpt lat="44.49413477228166" lon="9.97170012849122"><ele>878.3333333333334</ele><time>2026-05-02T15:03:33.999Z</time></trkpt><trkpt lat="44.49396334680118" lon="9.97186195603781"><ele>881.0</ele><time>2026-05-02T15:03:34.999Z</time></trkpt><trkpt lat="44.49395715389665" lon="9.972088081381925"><ele>881.0</ele><time>2026-05-02T15:03:35.999Z</time></trkpt><trkpt lat="44.494004956781055" lon="9.972325423746035"><ele>881.0</ele><time>2026-05-02T15:03:36.999Z</time></trkpt><trkpt lat="44.49408066023338" lon="9.972560530358727"><ele>881.0</ele><time>2026-05-02T15:03:37.999Z</time></trkpt><trkpt lat="44.494239978086256" lon="9.97274427392952"><ele>883.0</ele><time>2026-05-02T15:03:38.999Z</time></trkpt><trkpt lat="44.494463485070995" lon="9.972888650558332"><ele>885.0</ele><time>2026-05-02T15:03:39.999Z</time></trkpt><trkpt lat="44.49472356692317" lon="9.973022534552307"><ele>885.0</ele><time>2026-05-02T15:03:40.999Z</time></trkpt><trkpt lat="44.49497200601882" lon="9.973193022012877"><ele>885.0</ele><time>2026-05-02T15:03:41.999Z</time></trkpt><trkpt lat="44.49525322448578" lon="9.973376749322709"><ele>892.5</ele><time>2026-05-02T15:03:42.999Z</time></trkpt><trkpt lat="44.49551925122738" lon="9.973529453051729"><ele>900.0</ele><time>2026-05-02T15:03:43.999Z</time></trkpt><trkpt lat="44.495802767291806" lon="9.973645463148491"><ele>900.0</ele><time>2026-05-02T15:03:44.999Z</time></trkpt><trkpt lat="44.49609361492443" lon="9.973708114929106"><ele>900.0</ele><time>2026-05-02T15:03:45.999Z</time></trkpt><trkpt lat="44.49635411474391" lon="9.973745120453826"><ele>893.0</ele><time>2026-05-02T15:03:46.999Z</time></trkpt><trkpt lat="44.49661051245261" lon="9.973828839325313"><ele>886.0</ele><time>2026-05-02T15:03:47.999Z</time></trkpt><trkpt lat="44.49686007672889" lon="9.974015674249983"><ele>890.3333333333333</ele><time>2026-05-02T15:03:48.999Z</time></trkpt><trkpt lat="44.497099491631666" lon="9.97411002514332"><ele>894.6666666666667</ele><time>2026-05-02T15:03:49.999Z</time></trkpt><trkpt lat="44.497295328283464" lon="9.97414056370849"><ele>899.0</ele><time>2026-05-02T15:03:50.999Z</time></trkpt><trkpt lat="44.497442035544815" lon="9.974226654393163"><ele>899.0</ele><time>2026-05-02T15:03:51.999Z</time></trkpt><trkpt lat="44.49756294463365" lon="9.974404965585968"><ele>899.0</ele><time>2026-05-02T15:03:52.999Z</time></trkpt><trkpt lat="44.49771388140906" lon="9.974651159325147"><ele>899.0</ele><time>2026-05-02T15:03:53.999Z</time></trkpt><trkpt lat="44.497906338411035" lon="9.974897437413958"><ele>904.0</ele><time>2026-05-02T15:03:54.999Z</time></trkpt><trkpt lat="44.49809383229826" lon="9.975049868015056"><ele>909.0</ele><time>2026-05-02T15:03:55.999Z</time></trkpt><trkpt lat="44.49834510208407" lon="9.975165115909554"><ele>909.0</ele><time>2026-05-02T15:03:56.999Z</time></trkpt><trkpt lat="44.49862397372831" lon="9.975289646949696"><ele>909.0</ele><time>2026-05-02T15:03:57.999Z</time></trkpt><trkpt lat="44.49888750879887" lon="9.97539365176593"><ele>900.0</ele><time>2026-05-02T15:03:58.999Z</time></trkpt><trkpt lat="44.49910755053406" lon="9.975411819569361"><ele>891.0</ele><time>2026-05-02T15:03:59.999Z</time></trkpt><trkpt lat="44.49927089999162" lon="9.975387424314988"><ele>882.0</ele><time>2026-05-02T15:04:00.999Z</time></trkpt><trkpt lat="44.499350891948176" lon="9.975455917493504"><ele>882.0</ele><time>2026-05-02T15:04:01.999Z</time></trkpt><trkpt lat="44.49937994121942" lon="9.975576796705365"><ele>882.0</ele><time>2026-05-02T15:04:02.999Z</time></trkpt><trkpt lat="44.49934663180208" lon="9.97576250378628"><ele>882.0</ele><time>2026-05-02T15:04:03.999Z</time></trkpt><trkpt lat="44.4993749057573" lon="9.976078110051446"><ele>891.5</ele><time>2026-05-02T15:04:05Z</time></trkpt><trkpt lat="44.49944867292872" lon="9.976417634555586"><ele>901.0</ele><time>2026-05-02T15:04:06Z</time></trkpt><trkpt lat="44.499554363936255" lon="9.976765537006479"><ele>880.5</ele><time>2026-05-02T15:04:07Z</time></trkpt><trkpt lat="44.499674580030984" lon="9.977155014588153"><ele>860.0</ele><time>2026-05-02T15:04:08Z</time></trkpt><trkpt lat="44.499760282950575" lon="9.977488321701255"><ele>861.0</ele><time>2026-05-02T15:04:09Z</time></trkpt><trkpt lat="44.49977965390772" lon="9.9777623277612"><ele>862.0</ele><time>2026-05-02T15:04:10Z</time></trkpt><trkpt lat="44.49976367315011" lon="9.978070067844344"><ele>863.0</ele><time>2026-05-02T15:04:11Z</time></trkpt><trkpt lat="44.49974375634068" lon="9.978435435597326"><ele>863.3333333333334</ele><time>2026-05-02T15:04:12Z</time></trkpt><trkpt lat="44.49975944839391" lon="9.978746327023956"><ele>863.6666666666667</ele><time>2026-05-02T15:04:13Z</time></trkpt><trkpt lat="44.49982209024832" lon="9.9789843536619"><ele>864.0</ele><time>2026-05-02T15:04:14Z</time></trkpt><trkpt lat="44.49992753565312" lon="9.979251129747245"><ele>865.0</ele><time>2026-05-02T15:04:15Z</time></trkpt><trkpt lat="44.500022285958664" lon="9.97955114498456"><ele>866.0</ele><time>2026-05-02T15:04:16Z</time></trkpt><trkpt lat="44.50007013953891" lon="9.979784540846039"><ele>867.0</ele><time>2026-05-02T15:04:17Z</time></trkpt><trkpt lat="44.50007184061614" lon="9.980002890077035"><ele>867.6666666666667</ele><time>2026-05-02T15:04:18Z</time></trkpt><trkpt lat="44.50005251477211" lon="9.980292015307747"><ele>868.3333333333334</ele><time>2026-05-02T15:04:19Z</time></trkpt><trkpt lat="44.50005045543418" lon="9.980620369123223"><ele>869.0</ele><time>2026-05-02T15:04:20Z</time></trkpt><trkpt lat="44.5000987917204" lon="9.980882824670745"><ele>877.5</ele><time>2026-05-02T15:04:21Z</time></trkpt><trkpt lat="44.5001865848047" lon="9.98116838603277"><ele>886.0</ele><time>2026-05-02T15:04:22Z</time></trkpt><trkpt lat="44.50036464167577" lon="9.981446045953565"><ele>881.0</ele><time>2026-05-02T15:04:23Z</time></trkpt><trkpt lat="44.50056405887007" lon="9.981720586255268"><ele>876.0</ele><time>2026-05-02T15:04:24Z</time></trkpt><trkpt lat="44.5007871805286" lon="9.981988636428145"><ele>876.0</ele><time>2026-05-02T15:04:25Z</time></trkpt><trkpt lat="44.50103276252858" lon="9.982227475725132"><ele>876.0</ele><time>2026-05-02T15:04:26Z</time></trkpt><trkpt lat="44.50127932258796" lon="9.982384876571318"><ele>872.3333333333333</ele><time>2026-05-02T15:04:27Z</time></trkpt><trkpt lat="44.50148077640635" lon="9.982458022159392"><ele>868.6666666666666</ele><time>2026-05-02T15:04:28Z</time></trkpt><trkpt lat="44.501620704655316" lon="9.982490252145173"><ele>865.0</ele><time>2026-05-02T15:04:29Z</time></trkpt><trkpt lat="44.50170452372896" lon="9.98260935296108"><ele>865.0</ele><time>2026-05-02T15:04:30Z</time></trkpt><trkpt lat="44.50173950137223" lon="9.982795089164883"><ele>865.0</ele><time>2026-05-02T15:04:31Z</time></trkpt><trkpt lat="44.501801970746094" lon="9.983086097570736"><ele>865.0</ele><time>2026-05-02T15:04:32Z</time></trkpt><trkpt lat="44.50185842251173" lon="9.983422892052412"><ele>865.0</ele><time>2026-05-02T15:04:33Z</time></trkpt><trkpt lat="44.50185033181765" lon="9.983667130846634"><ele>865.0</ele><time>2026-05-02T15:04:34Z</time></trkpt><trkpt lat="44.50179705465254" lon="9.983939758927287"><ele>865.0</ele><time>2026-05-02T15:04:35Z</time></trkpt><trkpt lat="44.50170861488099" lon="9.984240042329978"><ele>862.6666666666666</ele><time>2026-05-02T15:04:36Z</time></trkpt><trkpt lat="44.50159466780017" lon="9.984486258251497"><ele>860.3333333333333</ele><time>2026-05-02T15:04:37Z</time></trkpt><trkpt lat="44.50147700616517" lon="9.984711517779942"><ele>858.0</ele><time>2026-05-02T15:04:38Z</time></trkpt><trkpt lat="44.5014096708358" lon="9.984930632906426"><ele>858.6666666666667</ele><time>2026-05-02T15:04:39Z</time></trkpt><trkpt lat="44.501393904893234" lon="9.98511667658898"><ele>859.3333333333334</ele><time>2026-05-02T15:04:40Z</time></trkpt><trkpt lat="44.50144403554404" lon="9.985313516559785"><ele>860.0</ele><time>2026-05-02T15:04:41Z</time></trkpt><trkpt lat="44.50155953144953" lon="9.98549083041395"><ele>860.0</ele><time>2026-05-02T15:04:42Z</time></trkpt><trkpt lat="44.501693407265094" lon="9.98560309345961"><ele>860.0</ele><time>2026-05-02T15:04:43Z</time></trkpt><trkpt lat="44.501843441444045" lon="9.985707729546561"><ele>860.0</ele><time>2026-05-02T15:04:44Z</time></trkpt><trkpt lat="44.50197136170841" lon="9.985816829798857"><ele>860.2</ele><time>2026-05-02T15:04:45Z</time></trkpt><trkpt lat="44.50203424943656" lon="9.98596713658879"><ele>860.4</ele><time>2026-05-02T15:04:46Z</time></trkpt><trkpt lat="44.5021070148737" lon="9.986080398085742"><ele>860.5999999999999</ele><time>2026-05-02T15:04:47Z</time></trkpt><trkpt lat="44.50215822179514" lon="9.986204238157516"><ele>860.8</ele><time>2026-05-02T15:04:48Z</time></trkpt><trkpt lat="44.50218878874001" lon="9.986330880873426"><ele>861.0</ele><time>2026-05-02T15:04:49Z</time></trkpt><trkpt lat="44.50221975489483" lon="9.986457607685157"><ele>861.75</ele><time>2026-05-02T15:04:50Z</time></trkpt><trkpt lat="44.50221675595269" lon="9.986606707099915"><ele>862.5</ele><time>2026-05-02T15:04:51Z</time></trkpt><trkpt lat="44.502149452192555" lon="9.986744986953024"><ele>863.25</ele><time>2026-05-02T15:04:52Z</time></trkpt><trkpt lat="44.50208302462196" lon="9.986962350011586"><ele>864.0</ele><time>2026-05-02T15:04:53Z</time></trkpt><trkpt lat="44.50203883697128" lon="9.987157025630362"><ele>864.0</ele><time>2026-05-02T15:04:54Z</time></trkpt><trkpt lat="44.502039160632194" lon="9.98730642299059"><ele>864.0000000000001</ele><time>2026-05-02T15:04:55Z</time></trkpt><trkpt lat="44.50206846494596" lon="9.987432306148284"><ele>864.0000000000001</ele><time>2026-05-02T15:04:56Z</time></trkpt><trkpt lat="44.50213844886206" lon="9.987533513018297"><ele>864.0</ele><time>2026-05-02T15:04:57Z</time></trkpt><trkpt lat="44.502229241657574" lon="9.987597425617526"><ele>864.0</ele><time>2026-05-02T15:04:58Z</time></trkpt><trkpt lat="44.50233526199576" lon="9.987634994612007"><ele>864.4000000000001</ele><time>2026-05-02T15:04:59Z</time></trkpt><trkpt lat="44.502449735988655" lon="9.987613658942578"><ele>864.8000000000001</ele><time>2026-05-02T15:05:00Z</time></trkpt><trkpt lat="44.502549791085336" lon="9.987573557192542"><ele>865.1999999999999</ele><time>2026-05-02T15:05:01Z</time></trkpt><trkpt lat="44.502645692359884" lon="9.987539137350032"><ele>865.5999999999999</ele><time>2026-05-02T15:05:02Z</time></trkpt><trkpt lat="44.50274946060421" lon="9.987506513936669"><ele>866.0</ele><time>2026-05-02T15:05:03Z</time></trkpt><trkpt lat="44.50285548608864" lon="9.987474580917358"><ele>863.5999999999999</ele><time>2026-05-02T15:05:04Z</time></trkpt><trkpt lat="44.50296050035319" lon="9.987444032141346"><ele>861.1999999999999</ele><time>2026-05-02T15:05:05Z</time></trkpt><trkpt lat="44.50306001608723" lon="9.987469808945672"><ele>858.8000000000001</ele><time>2026-05-02T15:05:06Z</time></trkpt><trkpt lat="44.503144336551784" lon="9.987555437589949"><ele>856.4000000000001</ele><time>2026-05-02T15:05:07Z</time></trkpt><trkpt lat="44.50318297176887" lon="9.987698520577638"><ele>854.0</ele><time>2026-05-02T15:05:08Z</time></trkpt><trkpt lat="44.503253820267034" lon="9.987835679405533"><ele>854.0</ele><time>2026-05-02T15:05:09Z</time></trkpt><trkpt lat="44.50331888294098" lon="9.987973312078955"><ele>854.0000000000001</ele><time>2026-05-02T15:05:10Z</time></trkpt><trkpt lat="44.50337465728936" lon="9.988091576708431"><ele>854.0000000000001</ele><time>2026-05-02T15:05:10.999Z</time></trkpt><trkpt lat="44.50342359797285" lon="9.988184381446573"><ele>854.0</ele><time>2026-05-02T15:05:11.999Z</time></trkpt><trkpt lat="44.503467737857996" lon="9.988278473428844"><ele>854.0</ele><time>2026-05-02T15:05:12.999Z</time></trkpt><trkpt lat="44.503524712253515" lon="9.988374816188077"><ele>853.75</ele><time>2026-05-02T15:05:13.999Z</time></trkpt><trkpt lat="44.50359296139521" lon="9.988475454840101"><ele>853.5</ele><time>2026-05-02T15:05:14.999Z</time></trkpt><trkpt lat="44.5036816810229" lon="9.988567517920806"><ele>853.25</ele><time>2026-05-02T15:05:15.999Z</time></trkpt><trkpt lat="44.50378578306983" lon="9.98866628885539"><ele>853.0</ele><time>2026-05-02T15:05:16.999Z</time></trkpt><trkpt lat="44.50389998558625" lon="9.988761085817359"><ele>853.0</ele><time>2026-05-02T15:05:17.999Z</time></trkpt><trkpt lat="44.50400777011692" lon="9.988846169505663"><ele>853.0</ele><time>2026-05-02T15:05:18.999Z</time></trkpt><trkpt lat="44.504114728860934" lon="9.988920733809879"><ele>853.0</ele><time>2026-05-02T15:05:19.999Z</time></trkpt><trkpt lat="44.50423630170414" lon="9.988964825257883"><ele>853.0</ele><time>2026-05-02T15:05:20.999Z</time></trkpt><trkpt lat="44.50436919444765" lon="9.988991047345884"><ele>853.0</ele><time>2026-05-02T15:05:21.999Z</time></trkpt><trkpt lat="44.50450311698764" lon="9.98899767814423"><ele>853.0</ele><time>2026-05-02T15:05:22.999Z</time></trkpt><trkpt lat="44.504636345895634" lon="9.989000222796363"><ele>853.0</ele><time>2026-05-02T15:05:23.999Z</time></trkpt><trkpt lat="44.50476557608444" lon="9.989009451455331"><ele>853.0</ele><time>2026-05-02T15:05:24.999Z</time></trkpt><trkpt lat="44.50489984476492" lon="9.989016053948488"><ele>852.0</ele><time>2026-05-02T15:05:25.999Z</time></trkpt><trkpt lat="44.50504330047043" lon="9.989024956420057"><ele>851.0</ele><time>2026-05-02T15:05:26.999Z</time></trkpt><trkpt lat="44.50513051246304" lon="9.989058410850534"><ele>850.0</ele><time>2026-05-02T15:05:27.999Z</time></trkpt><trkpt lat="44.5052435429912" lon="9.989125966005197"><ele>849.0</ele><time>2026-05-02T15:05:28.999Z</time></trkpt><trkpt lat="44.50535157401042" lon="9.989240030388148"><ele>848.25</ele><time>2026-05-02T15:05:29.999Z</time></trkpt><trkpt lat="44.50545830743988" lon="9.98937848318085"><ele>847.5</ele><time>2026-05-02T15:05:30.999Z</time></trkpt><trkpt lat="44.50559202939121" lon="9.989527680021144"><ele>846.75</ele><time>2026-05-02T15:05:31.999Z</time></trkpt><trkpt lat="44.50566006680763" lon="9.989589093162309"><ele>846.0</ele><time>2026-05-02T15:05:32.999Z</time></trkpt><trkpt lat="44.50575811476682" lon="9.989701375555672"><ele>846.0</ele><time>2026-05-02T15:05:33.999Z</time></trkpt><trkpt lat="44.50585074454723" lon="9.98980805307688"><ele>846.0</ele><time>2026-05-02T15:05:34.999Z</time></trkpt><trkpt lat="44.50594307499808" lon="9.989911513486275"><ele>846.0</ele><time>2026-05-02T15:05:35.999Z</time></trkpt><trkpt lat="44.50603614497295" lon="9.990018164583987"><ele>846.0</ele><time>2026-05-02T15:05:36.999Z</time></trkpt><trkpt lat="44.506133685244244" lon="9.990124197240263"><ele>846.0</ele><time>2026-05-02T15:05:37.999Z</time></trkpt><trkpt lat="44.50619311372474" lon="9.990277293195058"><ele>846.0</ele><time>2026-05-02T15:05:38.999Z</time></trkpt><trkpt lat="44.506255826006644" lon="9.990408616167661"><ele>846.0</ele><time>2026-05-02T15:05:39.999Z</time></trkpt><trkpt lat="44.50630051109452" lon="9.990550966130455"><ele>846.0</ele><time>2026-05-02T15:05:40.999Z</time></trkpt><trkpt lat="44.50634963865333" lon="9.990687591848388"><ele>845.5</ele><time>2026-05-02T15:05:41.999Z</time></trkpt><trkpt lat="44.50639624532193" lon="9.990822881132297"><ele>845.0</ele><time>2026-05-02T15:05:42.999Z</time></trkpt><trkpt lat="44.50644332547539" lon="9.99093155177476"><ele>844.5</ele><time>2026-05-02T15:05:43.999Z</time></trkpt><trkpt lat="44.50650007599996" lon="9.99101968135754"><ele>844.0</ele><time>2026-05-02T15:05:44.999Z</time></trkpt><trkpt lat="44.50656005846057" lon="9.991089711836887"><ele>843.5</ele><time>2026-05-02T15:05:45.999Z</time></trkpt><trkpt lat="44.50662296995238" lon="9.991156027526854"><ele>843.0</ele><time>2026-05-02T15:05:46.999Z</time></trkpt><trkpt lat="44.506694301259486" lon="9.991238873072579"><ele>843.0</ele><time>2026-05-02T15:05:47.999Z</time></trkpt><trkpt lat="44.50676698325445" lon="9.991322248121296"><ele>843.0</ele><time>2026-05-02T15:05:48.999Z</time></trkpt><trkpt lat="44.50684650686195" lon="9.991401910308667"><ele>843.0</ele><time>2026-05-02T15:05:49.999Z</time></trkpt><trkpt lat="44.5069093876845" lon="9.991491869644108"><ele>843.0</ele><time>2026-05-02T15:05:50.999Z</time></trkpt><trkpt lat="44.5069737118859" lon="9.991576860859917"><ele>843.0</ele><time>2026-05-02T15:05:51.999Z</time></trkpt><trkpt lat="44.50703994437046" lon="9.991669043535083"><ele>843.0</ele><time>2026-05-02T15:05:52.999Z</time></trkpt><trkpt lat="44.5071368010162" lon="9.991780674821603"><ele>843.0</ele><time>2026-05-02T15:05:53.999Z</time></trkpt><trkpt lat="44.50727527616975" lon="9.991902177144238"><ele>843.0</ele><time>2026-05-02T15:05:54.999Z</time></trkpt><trkpt lat="44.50742791254267" lon="9.99202959297794"><ele>843.0</ele><time>2026-05-02T15:05:55.999Z</time></trkpt><trkpt lat="44.50745794679753" lon="9.99215789483062"><ele>843.0</ele><time>2026-05-02T15:05:56.999Z</time></trkpt><trkpt lat="44.50756963238967" lon="9.992266356077725"><ele>843.0</ele><time>2026-05-02T15:05:57.999Z</time></trkpt><trkpt lat="44.50768064750678" lon="9.992378453255904"><ele>843.0</ele><time>2026-05-02T15:05:58.999Z</time></trkpt><trkpt lat="44.50779231252043" lon="9.992484759890464"><ele>843.5</ele><time>2026-05-02T15:05:59.999Z</time></trkpt><trkpt lat="44.50790196489774" lon="9.992585104422625"><ele>844.0</ele><time>2026-05-02T15:06:00.999Z</time></trkpt><trkpt lat="44.50799849989382" lon="9.992704553122117"><ele>844.5</ele><time>2026-05-02T15:06:01.999Z</time></trkpt><trkpt lat="44.50808680854087" lon="9.992854632411984"><ele>845.0</ele><time>2026-05-02T15:06:02.999Z</time></trkpt><trkpt lat="44.508152866810995" lon="9.993026306220418"><ele>845.0</ele><time>2026-05-02T15:06:03.999Z</time></trkpt><trkpt lat="44.508204609051774" lon="9.993209097444653"><ele>845.0</ele><time>2026-05-02T15:06:04.999Z</time></trkpt><trkpt lat="44.50826214556204" lon="9.993408725690173"><ele>845.0</ele><time>2026-05-02T15:06:05.999Z</time></trkpt><trkpt lat="44.50832732515541" lon="9.993630336682001"><ele>841.3333333333334</ele><time>2026-05-02T15:06:06.999Z</time></trkpt><trkpt lat="44.508402859407525" lon="9.99388486827176"><ele>837.6666666666667</ele><time>2026-05-02T15:06:07.999Z</time></trkpt><trkpt lat="44.508492083200295" lon="9.994113423827875"><ele>834.0</ele><time>2026-05-02T15:06:08.999Z</time></trkpt><trkpt lat="44.50858515216165" lon="9.994347194736285"><ele>835.6666666666667</ele><time>2026-05-02T15:06:09.999Z</time></trkpt><trkpt lat="44.50871236026974" lon="9.994559547515316"><ele>837.3333333333334</ele><time>2026-05-02T15:06:11Z</time></trkpt><trkpt lat="44.50885395644415" lon="9.994710308633245"><ele>839.0</ele><time>2026-05-02T15:06:12Z</time></trkpt><trkpt lat="44.509036286469915" lon="9.994800699398452"><ele>839.0</ele><time>2026-05-02T15:06:13Z</time></trkpt><trkpt lat="44.509261811122194" lon="9.994815299209755"><ele>839.0</ele><time>2026-05-02T15:06:14Z</time></trkpt><trkpt lat="44.5094845909908" lon="9.994803539335782"><ele>839.0</ele><time>2026-05-02T15:06:15Z</time></trkpt><trkpt lat="44.50963947309047" lon="9.994876839951356"><ele>843.0</ele><time>2026-05-02T15:06:16Z</time></trkpt><trkpt lat="44.50971733641237" lon="9.995049519191463"><ele>847.0</ele><time>2026-05-02T15:06:17Z</time></trkpt><trkpt lat="44.50977540646835" lon="9.99527508231867"><ele>851.0</ele><time>2026-05-02T15:06:18Z</time></trkpt><trkpt lat="44.50986132717157" lon="9.995565748639406"><ele>851.0</ele><time>2026-05-02T15:06:19Z</time></trkpt><trkpt lat="44.50995816353611" lon="9.995793523831814"><ele>851.0</ele><time>2026-05-02T15:06:20Z</time></trkpt><trkpt lat="44.51005852397427" lon="9.995950748135703"><ele>851.0</ele><time>2026-05-02T15:06:21Z</time></trkpt><trkpt lat="44.51024382568722" lon="9.996049465156705"><ele>846.6666666666667</ele><time>2026-05-02T15:06:22Z</time></trkpt><trkpt lat="44.510392726723055" lon="9.996174989886716"><ele>842.3333333333333</ele><time>2026-05-02T15:06:23Z</time></trkpt><trkpt lat="44.510513473378964" lon="9.996387037281318"><ele>838.0</ele><time>2026-05-02T15:06:24Z</time></trkpt><trkpt lat="44.51064468060874" lon="9.996614241891328"><ele>845.0</ele><time>2026-05-02T15:06:25Z</time></trkpt><trkpt lat="44.510757851629016" lon="9.996792489704475"><ele>852.0</ele><time>2026-05-02T15:06:26Z</time></trkpt><trkpt lat="44.51080609993472" lon="9.997017165109591"><ele>859.0</ele><time>2026-05-02T15:06:27Z</time></trkpt><trkpt lat="44.51085517132507" lon="9.997263593738676"><ele>859.0</ele><time>2026-05-02T15:06:28Z</time></trkpt><trkpt lat="44.51092510252515" lon="9.997468561549935"><ele>859.0</ele><time>2026-05-02T15:06:29Z</time></trkpt><trkpt lat="44.510998668867416" lon="9.997668567407212"><ele>859.0</ele><time>2026-05-02T15:06:30Z</time></trkpt><trkpt lat="44.51111463834268" lon="9.997837350277837"><ele>859.6666666666666</ele><time>2026-05-02T15:06:31Z</time></trkpt><trkpt lat="44.51124442652681" lon="9.997974839060701"><ele>860.3333333333333</ele><time>2026-05-02T15:06:32Z</time></trkpt><trkpt lat="44.51137238419791" lon="9.99810046333059"><ele>861.0</ele><time>2026-05-02T15:06:33Z</time></trkpt><trkpt lat="44.511518392717676" lon="9.99818752633562"><ele>861.0</ele><time>2026-05-02T15:06:34Z</time></trkpt><trkpt lat="44.5116938148365" lon="9.998203492139496"><ele>861.0</ele><time>2026-05-02T15:06:35Z</time></trkpt><trkpt lat="44.51186643540061" lon="9.998172325758329"><ele>861.0</ele><time>2026-05-02T15:06:36Z</time></trkpt><trkpt lat="44.512044666429745" lon="9.998077226253445"><ele>860.6666666666667</ele><time>2026-05-02T15:06:37Z</time></trkpt><trkpt lat="44.512210023713045" lon="9.997939918445338"><ele>860.3333333333334</ele><time>2026-05-02T15:06:38Z</time></trkpt><trkpt lat="44.51234692657171" lon="9.997776130020386"><ele>860.0</ele><time>2026-05-02T15:06:39Z</time></trkpt><trkpt lat="44.51245802085615" lon="9.99757483279425"><ele>864.0</ele><time>2026-05-02T15:06:40Z</time></trkpt><trkpt lat="44.51254381667104" lon="9.99730819604938"><ele>868.0</ele><time>2026-05-02T15:06:41Z</time></trkpt><trkpt lat="44.5126210621376" lon="9.997060692481375"><ele>872.0</ele><time>2026-05-02T15:06:42Z</time></trkpt><trkpt lat="44.51267276864822" lon="9.99679571621816"><ele>870.3333333333334</ele><time>2026-05-02T15:06:43Z</time></trkpt><trkpt lat="44.512756143736325" lon="9.996589982928194"><ele>868.6666666666667</ele><time>2026-05-02T15:06:44Z</time></trkpt><trkpt lat="44.512849735840646" lon="9.99640643324407"><ele>867.0</ele><time>2026-05-02T15:06:45Z</time></trkpt><trkpt lat="44.51299676898893" lon="9.996289040338832"><ele>867.0</ele><time>2026-05-02T15:06:46Z</time></trkpt><trkpt lat="44.51315935487429" lon="9.996211417985869"><ele>867.0</ele><time>2026-05-02T15:06:47Z</time></trkpt><trkpt lat="44.51336354835081" lon="9.996103304386047"><ele>867.0</ele><time>2026-05-02T15:06:48Z</time></trkpt><trkpt lat="44.51357178345687" lon="9.996036753461096"><ele>866.0</ele><time>2026-05-02T15:06:49Z</time></trkpt><trkpt lat="44.51378623268978" lon="9.995951932801589"><ele>865.0</ele><time>2026-05-02T15:06:50Z</time></trkpt><trkpt lat="44.51399659101535" lon="9.995872547815887"><ele>864.0</ele><time>2026-05-02T15:06:51Z</time></trkpt><trkpt lat="44.514193307394386" lon="9.995826498362394"><ele>864.0</ele><time>2026-05-02T15:06:52Z</time></trkpt><trkpt lat="44.514410476387624" lon="9.995880199866535"><ele>864.0</ele><time>2026-05-02T15:06:53Z</time></trkpt><trkpt lat="44.514640581718325" lon="9.995892122029964"><ele>865.0</ele><time>2026-05-02T15:06:54Z</time></trkpt><trkpt lat="44.51490186545143" lon="9.995950859452622"><ele>866.0</ele><time>2026-05-02T15:06:55Z</time></trkpt><trkpt lat="44.51520013747498" lon="9.995971536839956"><ele>869.0</ele><time>2026-05-02T15:06:56Z</time></trkpt><trkpt lat="44.51547137049453" lon="9.996023453843835"><ele>872.0</ele><time>2026-05-02T15:06:57Z</time></trkpt><trkpt lat="44.515796515048166" lon="9.996057506178703"><ele>872.0</ele><time>2026-05-02T15:06:58Z</time></trkpt><trkpt lat="44.51613521584949" lon="9.996089998060457"><ele>872.0</ele><time>2026-05-02T15:06:59Z</time></trkpt><trkpt lat="44.51644381138088" lon="9.996114518864557"><ele>873.3333333333334</ele><time>2026-05-02T15:07:00Z</time></trkpt><trkpt lat="44.516682893883825" lon="9.9961416055621"><ele>874.6666666666667</ele><time>2026-05-02T15:07:01Z</time></trkpt><trkpt lat="44.51686194936028" lon="9.996147160187148"><ele>876.0</ele><time>2026-05-02T15:07:02Z</time></trkpt><trkpt lat="44.51699336168244" lon="9.99612204373998"><ele>876.3333333333333</ele><time>2026-05-02T15:07:03Z</time></trkpt><trkpt lat="44.517102492016924" lon="9.996026482279808"><ele>876.6666666666666</ele><time>2026-05-02T15:07:04Z</time></trkpt><trkpt lat="44.51719779144423" lon="9.995819637064102"><ele>877.0</ele><time>2026-05-02T15:07:05Z</time></trkpt><trkpt lat="44.51727034931488" lon="9.99553542908091"><ele>877.0</ele><time>2026-05-02T15:07:06Z</time></trkpt><trkpt lat="44.51739619965396" lon="9.995259801476976"><ele>877.0</ele><time>2026-05-02T15:07:07Z</time></trkpt><trkpt lat="44.51760292117693" lon="9.994986804470667"><ele>878.5</ele><time>2026-05-02T15:07:08Z</time></trkpt><trkpt lat="44.517854369676634" lon="9.994701432158918"><ele>880.0</ele><time>2026-05-02T15:07:09Z</time></trkpt><trkpt lat="44.518028880897454" lon="9.994483947104094"><ele>880.0</ele><time>2026-05-02T15:07:10Z</time></trkpt><trkpt lat="44.518199297860626" lon="9.994291715390984"><ele>880.0</ele><time>2026-05-02T15:07:11Z</time></trkpt><trkpt lat="44.51838172345334" lon="9.994096611588969"><ele>880.0</ele><time>2026-05-02T15:07:12Z</time></trkpt><trkpt lat="44.51861045104832" lon="9.993932303768629"><ele>883.0</ele><time>2026-05-02T15:07:13Z</time></trkpt><trkpt lat="44.51880143218107" lon="9.993910270745781"><ele>886.0</ele><time>2026-05-02T15:07:14Z</time></trkpt><trkpt lat="44.51899013019319" lon="9.993914986208283"><ele>889.0</ele><time>2026-05-02T15:07:15Z</time></trkpt><trkpt lat="44.51932276468785" lon="9.993963187124754"><ele>889.5</ele><time>2026-05-02T15:07:16Z</time></trkpt><trkpt lat="44.51962078989767" lon="9.994044855290985"><ele>890.0</ele><time>2026-05-02T15:07:17Z</time></trkpt><trkpt lat="44.51993555294544" lon="9.994075062033577"><ele>890.0</ele><time>2026-05-02T15:07:18Z</time></trkpt><trkpt lat="44.52026166223667" lon="9.994095388493896"><ele>890.0</ele><time>2026-05-02T15:07:18.999Z</time></trkpt><trkpt lat="44.52055373277381" lon="9.994088888754959"><ele>890.3333333333334</ele><time>2026-05-02T15:07:19.999Z</time></trkpt><trkpt lat="44.52079301264193" lon="9.994132050211498"><ele>890.6666666666667</ele><time>2026-05-02T15:07:20.999Z</time></trkpt><trkpt lat="44.520970511553706" lon="9.994235886534392"><ele>891.0</ele><time>2026-05-02T15:07:21.999Z</time></trkpt><trkpt lat="44.52113850585821" lon="9.994414805793458"><ele>897.5</ele><time>2026-05-02T15:07:22.999Z</time></trkpt><trkpt lat="44.52136514931013" lon="9.994625286872534"><ele>904.0</ele><time>2026-05-02T15:07:23.999Z</time></trkpt><trkpt lat="44.521606343368056" lon="9.994848775533228"><ele>903.0</ele><time>2026-05-02T15:07:24.999Z</time></trkpt><trkpt lat="44.521843347488925" lon="9.995076624662211"><ele>902.0</ele><time>2026-05-02T15:07:25.999Z</time></trkpt><trkpt lat="44.52202188583996" lon="9.995353334568351"><ele>908.0</ele><time>2026-05-02T15:07:26.999Z</time></trkpt><trkpt lat="44.52220789242254" lon="9.995607334449403"><ele>914.0</ele><time>2026-05-02T15:07:27.999Z</time></trkpt><trkpt lat="44.52236875999446" lon="9.995777601175321"><ele>906.5</ele><time>2026-05-02T15:07:28.999Z</time></trkpt><trkpt lat="44.52257202905822" lon="9.995851233990553"><ele>899.0</ele><time>2026-05-02T15:07:29.999Z</time></trkpt><trkpt lat="44.52281882677371" lon="9.995867449071056"><ele>909.0</ele><time>2026-05-02T15:07:30.999Z</time></trkpt><trkpt lat="44.52309413680096" lon="9.99580423515387"><ele>919.0</ele><time>2026-05-02T15:07:31.999Z</time></trkpt><trkpt lat="44.52338843510816" lon="9.995787401058102"><ele>919.0</ele><time>2026-05-02T15:07:32.999Z</time></trkpt><trkpt lat="44.52368454497993" lon="9.995778909922652"><ele>919.0</ele><time>2026-05-02T15:07:33.999Z</time></trkpt><trkpt lat="44.52394849566088" lon="9.995765847461172"><ele>918.3333333333333</ele><time>2026-05-02T15:07:34.999Z</time></trkpt><trkpt lat="44.52415896006263" lon="9.99574909509269"><ele>917.6666666666667</ele><time>2026-05-02T15:07:35.999Z</time></trkpt><trkpt lat="44.52432570576928" lon="9.995731529299071"><ele>917.0</ele><time>2026-05-02T15:07:36.999Z</time></trkpt><trkpt lat="44.524469104383414" lon="9.995654167008661"><ele>919.3333333333334</ele><time>2026-05-02T15:07:37.999Z</time></trkpt><trkpt lat="44.52458505017652" lon="9.995440925254453"><ele>921.6666666666667</ele><time>2026-05-02T15:07:38.999Z</time></trkpt><trkpt lat="44.52470977401923" lon="9.995172001836295"><ele>924.0</ele><time>2026-05-02T15:07:39.999Z</time></trkpt><trkpt lat="44.52480951648061" lon="9.994935892141424"><ele>924.0</ele><time>2026-05-02T15:07:40.999Z</time></trkpt><trkpt lat="44.52499625314517" lon="9.994883361618928"><ele>924.0</ele><time>2026-05-02T15:07:41.999Z</time></trkpt><trkpt lat="44.525217317687336" lon="9.994869188570787"><ele>924.0</ele><time>2026-05-02T15:07:42.999Z</time></trkpt><trkpt lat="44.52546922346981" lon="9.994859673622958"><ele>922.6666666666667</ele><time>2026-05-02T15:07:43.999Z</time></trkpt><trkpt lat="44.52567659163123" lon="9.994824200734506"><ele>921.3333333333334</ele><time>2026-05-02T15:07:44.999Z</time></trkpt><trkpt lat="44.525862530048" lon="9.994791934682688"><ele>920.0</ele><time>2026-05-02T15:07:45.999Z</time></trkpt><trkpt lat="44.526092104881876" lon="9.994685274458167"><ele>919.0</ele><time>2026-05-02T15:07:46.999Z</time></trkpt><trkpt lat="44.52632759075193" lon="9.99450033395765"><ele>918.0</ele><time>2026-05-02T15:07:47.999Z</time></trkpt><trkpt lat="44.52654196561648" lon="9.994315798815245"><ele>918.0</ele><time>2026-05-02T15:07:48.999Z</time></trkpt><trkpt lat="44.52672763333713" lon="9.994307409943296"><ele>918.0</ele><time>2026-05-02T15:07:49.999Z</time></trkpt><trkpt lat="44.52686654559483" lon="9.994393157690848"><ele>918.0</ele><time>2026-05-02T15:07:50.999Z</time></trkpt><trkpt lat="44.52696081866706" lon="9.994523729759866"><ele>918.0</ele><time>2026-05-02T15:07:51.999Z</time></trkpt><trkpt lat="44.527055084884935" lon="9.994730049525057"><ele>918.0</ele><time>2026-05-02T15:07:52.999Z</time></trkpt><trkpt lat="44.527213106232466" lon="9.994985271214976"><ele>918.0</ele><time>2026-05-02T15:07:53.999Z</time></trkpt><trkpt lat="44.52740409206076" lon="9.995138528610278"><ele>915.5</ele><time>2026-05-02T15:07:54.999Z</time></trkpt><trkpt lat="44.52762602849645" lon="9.995233093459996"><ele>913.0</ele><time>2026-05-02T15:07:55.999Z</time></trkpt><trkpt lat="44.5279046194943" lon="9.995281859003846"><ele>920.0</ele><time>2026-05-02T15:07:56.999Z</time></trkpt><trkpt lat="44.528143663494454" lon="9.995403440396545"><ele>927.0</ele><time>2026-05-02T15:07:57.999Z</time></trkpt><trkpt lat="44.52833713824384" lon="9.995595680484582"><ele>921.5</ele><time>2026-05-02T15:07:58.999Z</time></trkpt><trkpt lat="44.52853343788312" lon="9.995859617461848"><ele>916.0</ele><time>2026-05-02T15:07:59.999Z</time></trkpt><trkpt lat="44.52869433533874" lon="9.995998481580267"><ele>918.3333333333333</ele><time>2026-05-02T15:08:00.999Z</time></trkpt><trkpt lat="44.528815973268685" lon="9.996097346460905"><ele>920.6666666666667</ele><time>2026-05-02T15:08:01.999Z</time></trkpt><trkpt lat="44.528989889051346" lon="9.996050092089083"><ele>923.0</ele><time>2026-05-02T15:08:02.999Z</time></trkpt><trkpt lat="44.52915746047606" lon="9.99578348401909"><ele>925.6666666666667</ele><time>2026-05-02T15:08:03.999Z</time></trkpt><trkpt lat="44.529354658909405" lon="9.995694101459378"><ele>928.3333333333333</ele><time>2026-05-02T15:08:04.999Z</time></trkpt><trkpt lat="44.52953170276791" lon="9.995764424175514"><ele>931.0</ele><time>2026-05-02T15:08:05.999Z</time></trkpt><trkpt lat="44.5297319805539" lon="9.995958508492173"><ele>931.0</ele><time>2026-05-02T15:08:06.999Z</time></trkpt><trkpt lat="44.52996503289607" lon="9.996213507269267"><ele>931.0</ele><time>2026-05-02T15:08:07.999Z</time></trkpt><trkpt lat="44.53020111063931" lon="9.996380598611996"><ele>928.0</ele><time>2026-05-02T15:08:08.999Z</time></trkpt><trkpt lat="44.53047224519729" lon="9.996587126194434"><ele>925.0</ele><time>2026-05-02T15:08:09.999Z</time></trkpt><trkpt lat="44.530693763985745" lon="9.996782021692077"><ele>925.0</ele><time>2026-05-02T15:08:10.999Z</time></trkpt><trkpt lat="44.53083284412258" lon="9.996879498692742"><ele>925.0</ele><time>2026-05-02T15:08:11.999Z</time></trkpt><trkpt lat="44.53103242150373" lon="9.99694255119184"><ele>925.0</ele><time>2026-05-02T15:08:12.999Z</time></trkpt><trkpt lat="44.531238383050756" lon="9.996849653696842"><ele>929.0</ele><time>2026-05-02T15:08:13.999Z</time></trkpt><trkpt lat="44.53140221100996" lon="9.996854985041114"><ele>933.0</ele><time>2026-05-02T15:08:14.999Z</time></trkpt><trkpt lat="44.53148454217883" lon="9.996932317032863"><ele>937.0</ele><time>2026-05-02T15:08:15.999Z</time></trkpt><trkpt lat="44.53157289784977" lon="9.997137715967034"><ele>941.0</ele><time>2026-05-02T15:08:17Z</time></trkpt><trkpt lat="44.5315713694164" lon="9.997443568489608"><ele>938.3333333333334</ele><time>2026-05-02T15:08:18Z</time></trkpt><trkpt lat="44.531637943023114" lon="9.997762447360198"><ele>935.6666666666667</ele><time>2026-05-02T15:08:19Z</time></trkpt><trkpt lat="44.53169167310307" lon="9.997990950103555"><ele>933.0</ele><time>2026-05-02T15:08:20Z</time></trkpt><trkpt lat="44.53181107501205" lon="9.998148289661241"><ele>933.0</ele><time>2026-05-02T15:08:21Z</time></trkpt><trkpt lat="44.53195467236739" lon="9.998248182353926"><ele>933.0</ele><time>2026-05-02T15:08:22Z</time></trkpt><trkpt lat="44.53208544577867" lon="9.998320667791411"><ele>933.0</ele><time>2026-05-02T15:08:23Z</time></trkpt><trkpt lat="44.53219842677842" lon="9.998377728011725"><ele>933.0</ele><time>2026-05-02T15:08:24Z</time></trkpt><trkpt lat="44.532314472781934" lon="9.998368912618604"><ele>935.3333333333333</ele><time>2026-05-02T15:08:25Z</time></trkpt><trkpt lat="44.53247826154109" lon="9.998268491107744"><ele>937.6666666666666</ele><time>2026-05-02T15:08:26Z</time></trkpt><trkpt lat="44.532680039243296" lon="9.998118783674908"><ele>940.0</ele><time>2026-05-02T15:08:27Z</time></trkpt><trkpt lat="44.53293161825815" lon="9.998066071282738"><ele>940.0</ele><time>2026-05-02T15:08:28Z</time></trkpt><trkpt lat="44.53321238699362" lon="9.998082244113224"><ele>940.0</ele><time>2026-05-02T15:08:29Z</time></trkpt><trkpt lat="44.53350836251825" lon="9.998092309800365"><ele>940.0</ele><time>2026-05-02T15:08:30Z</time></trkpt><trkpt lat="44.533825037233015" lon="9.998120128251333"><ele>940.0</ele><time>2026-05-02T15:08:31Z</time></trkpt><trkpt lat="44.5341419990321" lon="9.998129365614599"><ele>940.0</ele><time>2026-05-02T15:08:32Z</time></trkpt><trkpt lat="44.53442362923921" lon="9.998136279505667"><ele>940.0</ele><time>2026-05-02T15:08:33Z</time></trkpt><trkpt lat="44.534659986171114" lon="9.998169112133906"><ele>939.0</ele><time>2026-05-02T15:08:34Z</time></trkpt><trkpt lat="44.5348601592773" lon="9.998269839620837"><ele>938.0</ele><time>2026-05-02T15:08:35Z</time></trkpt><trkpt lat="44.53503434380783" lon="9.998527851195359"><ele>938.0</ele><time>2026-05-02T15:08:36Z</time></trkpt><trkpt lat="44.535199996765975" lon="9.998719748905598"><ele>938.0</ele><time>2026-05-02T15:08:37Z</time></trkpt><trkpt lat="44.5353446470185" lon="9.998859119641676"><ele>938.0</ele><time>2026-05-02T15:08:38Z</time></trkpt><trkpt lat="44.53552343831207" lon="9.998931162470697"><ele>940.0</ele><time>2026-05-02T15:08:39Z</time></trkpt><trkpt lat="44.53568335444784" lon="9.998989501996725"><ele>942.0</ele><time>2026-05-02T15:08:40Z</time></trkpt><trkpt lat="44.535810391177115" lon="9.998830359634407"><ele>944.0</ele><time>2026-05-02T15:08:41Z</time></trkpt><trkpt lat="44.535928148613465" lon="9.998519287724225"><ele>946.0</ele><time>2026-05-02T15:08:42Z</time></trkpt><trkpt lat="44.53612086036402" lon="9.998282680070746"><ele>948.0</ele><time>2026-05-02T15:08:43Z</time></trkpt><trkpt lat="44.53634367964941" lon="9.99807212835342"><ele>948.0</ele><time>2026-05-02T15:08:44Z</time></trkpt><trkpt lat="44.53652173911354" lon="9.998052825733938"><ele>948.0</ele><time>2026-05-02T15:08:45Z</time></trkpt><trkpt lat="44.53675282749664" lon="9.998070592310002"><ele>948.0</ele><time>2026-05-02T15:08:46Z</time></trkpt><trkpt lat="44.53696538431684" lon="9.998202594475666"><ele>948.5</ele><time>2026-05-02T15:08:47Z</time></trkpt><trkpt lat="44.537211276232945" lon="9.998402435971498"><ele>949.0</ele><time>2026-05-02T15:08:48Z</time></trkpt><trkpt lat="44.5374531089229" lon="9.99858768282579"><ele>949.0</ele><time>2026-05-02T15:08:49Z</time></trkpt><trkpt lat="44.5376368155838" lon="9.998799763552691"><ele>949.0</ele><time>2026-05-02T15:08:50Z</time></trkpt><trkpt lat="44.53775406092781" lon="9.999098411510968"><ele>951.0</ele><time>2026-05-02T15:08:51Z</time></trkpt><trkpt lat="44.53787500891735" lon="9.999437335911066"><ele>953.0</ele><time>2026-05-02T15:08:52Z</time></trkpt><trkpt lat="44.537984692456206" lon="9.99982788478299"><ele>953.0</ele><time>2026-05-02T15:08:53Z</time></trkpt><trkpt lat="44.53812950273424" lon="10.00023933080653"><ele>953.0</ele><time>2026-05-02T15:08:54Z</time></trkpt><trkpt lat="44.53826981316224" lon="10.000686196364658"><ele>954.5</ele><time>2026-05-02T15:08:55Z</time></trkpt><trkpt lat="44.538397688256076" lon="10.00107731222931"><ele>956.0</ele><time>2026-05-02T15:08:56Z</time></trkpt><trkpt lat="44.53851133617128" lon="10.00142070868003"><ele>955.0</ele><time>2026-05-02T15:08:57Z</time></trkpt><trkpt lat="44.53857269679591" lon="10.001719676379109"><ele>954.0</ele><time>2026-05-02T15:08:58Z</time></trkpt><trkpt lat="44.53855715856021" lon="10.001977809599287"><ele>953.0</ele><time>2026-05-02T15:08:59Z</time></trkpt><trkpt lat="44.53851166201679" lon="10.002218472243992"><ele>954.5</ele><time>2026-05-02T15:09:00Z</time></trkpt><trkpt lat="44.53838129044808" lon="10.002573172775527"><ele>956.0</ele><time>2026-05-02T15:09:01Z</time></trkpt><trkpt lat="44.53833863722128" lon="10.002904947144911"><ele>956.0</ele><time>2026-05-02T15:09:02Z</time></trkpt><trkpt lat="44.53831649507197" lon="10.003239790570555"><ele>956.0</ele><time>2026-05-02T15:09:03Z</time></trkpt><trkpt lat="44.53832391123909" lon="10.003549526855581"><ele>957.5</ele><time>2026-05-02T15:09:04Z</time></trkpt><trkpt lat="44.538403424184835" lon="10.003893923388008"><ele>959.0</ele><time>2026-05-02T15:09:05Z</time></trkpt><trkpt lat="44.53853724708474" lon="10.004186249441602"><ele>959.0</ele><time>2026-05-02T15:09:06Z</time></trkpt><trkpt lat="44.53870095101871" lon="10.004400600814028"><ele>959.0</ele><time>2026-05-02T15:09:07Z</time></trkpt><trkpt lat="44.538894903209254" lon="10.004489076574668"><ele>959.0</ele><time>2026-05-02T15:09:08Z</time></trkpt><trkpt lat="44.53910342550771" lon="10.00453763057716"><ele>961.5</ele><time>2026-05-02T15:09:09Z</time></trkpt><trkpt lat="44.53929732876931" lon="10.004576720060594"><ele>964.0</ele><time>2026-05-02T15:09:10Z</time></trkpt><trkpt lat="44.53973540123502" lon="10.004551438912179"><ele>964.0</ele><time>2026-05-02T15:09:11Z</time></trkpt><trkpt lat="44.540005306651295" lon="10.004668228985155"><ele>964.0</ele><time>2026-05-02T15:09:12Z</time></trkpt><trkpt lat="44.5402485998852" lon="10.004816050625795"><ele>959.6666666666666</ele><time>2026-05-02T15:09:13Z</time></trkpt><trkpt lat="44.54043755900355" lon="10.0048995323622"><ele>955.3333333333333</ele><time>2026-05-02T15:09:14Z</time></trkpt><trkpt lat="44.540593058161704" lon="10.00484892241176"><ele>951.0</ele><time>2026-05-02T15:09:15Z</time></trkpt><trkpt lat="44.54084287379763" lon="10.004706479003016"><ele>951.0</ele><time>2026-05-02T15:09:16Z</time></trkpt><trkpt lat="44.54106905957352" lon="10.004647889162518"><ele>951.0</ele><time>2026-05-02T15:09:17Z</time></trkpt><trkpt lat="44.54129563548753" lon="10.004483190159753"><ele>946.6666666666667</ele><time>2026-05-02T15:09:18Z</time></trkpt><trkpt lat="44.54152519623088" lon="10.004507366906921"><ele>942.3333333333334</ele><time>2026-05-02T15:09:19Z</time></trkpt><trkpt lat="44.54171579956932" lon="10.004613170939239"><ele>938.0</ele><time>2026-05-02T15:09:20Z</time></trkpt><trkpt lat="44.54188691242541" lon="10.004664392314119"><ele>938.0</ele><time>2026-05-02T15:09:21Z</time></trkpt><trkpt lat="44.541995471886956" lon="10.004557376225629"><ele>938.0</ele><time>2026-05-02T15:09:22Z</time></trkpt><trkpt lat="44.54210331779968" lon="10.004405225228236"><ele>938.0</ele><time>2026-05-02T15:09:22.999Z</time></trkpt><trkpt lat="44.54215413035418" lon="10.004179057563604"><ele>936.3333333333334</ele><time>2026-05-02T15:09:23.999Z</time></trkpt><trkpt lat="44.542144442250304" lon="10.00396829105909"><ele>934.6666666666667</ele><time>2026-05-02T15:09:24.999Z</time></trkpt><trkpt lat="44.54206607448465" lon="10.003790450454929"><ele>933.0</ele><time>2026-05-02T15:09:25.999Z</time></trkpt><trkpt lat="44.541940986446754" lon="10.003644844983329"><ele>933.0</ele><time>2026-05-02T15:09:26.999Z</time></trkpt><trkpt lat="44.54174210728262" lon="10.003485228273961"><ele>933.0</ele><time>2026-05-02T15:09:27.999Z</time></trkpt><trkpt lat="44.54154315561053" lon="10.00324600162637"><ele>931.0</ele><time>2026-05-02T15:09:28.999Z</time></trkpt><trkpt lat="44.54133275958671" lon="10.003042468609946"><ele>929.0</ele><time>2026-05-02T15:09:29.999Z</time></trkpt><trkpt lat="44.54117356500256" lon="10.002911570353355"><ele>927.0</ele><time>2026-05-02T15:09:30.999Z</time></trkpt><trkpt lat="44.54106704342004" lon="10.002810256135714"><ele>925.6</ele><time>2026-05-02T15:09:31.999Z</time></trkpt><trkpt lat="44.54098796274898" lon="10.002735702977835"><ele>924.2</ele><time>2026-05-02T15:09:32.999Z</time></trkpt><trkpt lat="44.54096665399651" lon="10.002603353245213"><ele>922.8</ele><time>2026-05-02T15:09:33.999Z</time></trkpt><trkpt lat="44.541017799819784" lon="10.002469244278734"><ele>921.4</ele><time>2026-05-02T15:09:34.999Z</time></trkpt><trkpt lat="44.54112891787997" lon="10.0023870181132"><ele>920.0</ele><time>2026-05-02T15:09:35.999Z</time></trkpt><trkpt lat="44.54129565904031" lon="10.00247522317875"><ele>923.5</ele><time>2026-05-02T15:09:36.999Z</time></trkpt><trkpt lat="44.5415023700575" lon="10.00253399518921"><ele>927.0</ele><time>2026-05-02T15:09:37.999Z</time></trkpt><trkpt lat="44.54174742724763" lon="10.00257559266459"><ele>927.0</ele><time>2026-05-02T15:09:38.999Z</time></trkpt><trkpt lat="44.54198202816066" lon="10.002651073484696"><ele>927.0</ele><time>2026-05-02T15:09:39.999Z</time></trkpt><trkpt lat="44.54219379463189" lon="10.00272691726285"><ele>923.3333333333333</ele><time>2026-05-02T15:09:40.999Z</time></trkpt><trkpt lat="44.54230213112696" lon="10.002837841345915"><ele>919.6666666666666</ele><time>2026-05-02T15:09:41.999Z</time></trkpt><trkpt lat="44.54233609353928" lon="10.003044208210392"><ele>916.0</ele><time>2026-05-02T15:09:42.999Z</time></trkpt><trkpt lat="44.54238359558524" lon="10.003298662005726"><ele>918.0</ele><time>2026-05-02T15:09:43.999Z</time></trkpt><trkpt lat="44.54248358180884" lon="10.003603074466708"><ele>920.0</ele><time>2026-05-02T15:09:44.999Z</time></trkpt><trkpt lat="44.54262545083816" lon="10.00387762595652"><ele>920.0</ele><time>2026-05-02T15:09:45.999Z</time></trkpt><trkpt lat="44.54281970974866" lon="10.004108628259868"><ele>920.0</ele><time>2026-05-02T15:09:46.999Z</time></trkpt><trkpt lat="44.543032944255465" lon="10.004253195066418"><ele>916.0</ele><time>2026-05-02T15:09:47.999Z</time></trkpt><trkpt lat="44.5432771802315" lon="10.004302435186695"><ele>912.0</ele><time>2026-05-02T15:09:48.999Z</time></trkpt><trkpt lat="44.54355517709607" lon="10.004281853580489"><ele>908.5</ele><time>2026-05-02T15:09:49.999Z</time></trkpt><trkpt lat="44.54383110152844" lon="10.004241534273218"><ele>905.0</ele><time>2026-05-02T15:09:50.999Z</time></trkpt><trkpt lat="44.54409137854276" lon="10.004171058291194"><ele>901.5</ele><time>2026-05-02T15:09:51.999Z</time></trkpt><trkpt lat="44.544318219125124" lon="10.004151378057319"><ele>898.0</ele><time>2026-05-02T15:09:52.999Z</time></trkpt><trkpt lat="44.544566278786306" lon="10.004267766442632"><ele>898.0</ele><time>2026-05-02T15:09:53.999Z</time></trkpt><trkpt lat="44.544860882130344" lon="10.004373206447056"><ele>898.0</ele><time>2026-05-02T15:09:54.999Z</time></trkpt><trkpt lat="44.54511849501618" lon="10.004497367128481"><ele>898.0</ele><time>2026-05-02T15:09:55.999Z</time></trkpt><trkpt lat="44.545321266330305" lon="10.004577183074597"><ele>898.0</ele><time>2026-05-02T15:09:56.999Z</time></trkpt><trkpt lat="44.54550718497276" lon="10.004630927748586"><ele>898.0</ele><time>2026-05-02T15:09:57.999Z</time></trkpt><trkpt lat="44.545693690502496" lon="10.004617749967627"><ele>897.0</ele><time>2026-05-02T15:09:58.999Z</time></trkpt><trkpt lat="44.54588014236769" lon="10.004197370136282"><ele>896.0</ele><time>2026-05-02T15:09:59.999Z</time></trkpt><trkpt lat="44.54607760916357" lon="10.003976840805542"><ele>889.6666666666667</ele><time>2026-05-02T15:10:00.999Z</time></trkpt><trkpt lat="44.54625378772807" lon="10.003835524396385"><ele>883.3333333333333</ele><time>2026-05-02T15:10:01.999Z</time></trkpt><trkpt lat="44.54648678156033" lon="10.003800809702005"><ele>877.0</ele><time>2026-05-02T15:10:02.999Z</time></trkpt><trkpt lat="44.546753479350166" lon="10.003827847434277"><ele>875.0</ele><time>2026-05-02T15:10:03.999Z</time></trkpt><trkpt lat="44.54704924117745" lon="10.00390899288901"><ele>873.0</ele><time>2026-05-02T15:10:04.999Z</time></trkpt><trkpt lat="44.54733837436077" lon="10.003974587973076"><ele>873.0</ele><time>2026-05-02T15:10:05.999Z</time></trkpt><trkpt lat="44.54756491831111" lon="10.004009369562057"><ele>873.0</ele><time>2026-05-02T15:10:06.999Z</time></trkpt><trkpt lat="44.54779740699339" lon="10.003925452064157"><ele>871.3333333333333</ele><time>2026-05-02T15:10:07.999Z</time></trkpt><trkpt lat="44.54802432015745" lon="10.003875896450754"><ele>869.6666666666666</ele><time>2026-05-02T15:10:08.999Z</time></trkpt><trkpt lat="44.548205998748166" lon="10.003983692520771"><ele>868.0</ele><time>2026-05-02T15:10:09.999Z</time></trkpt><trkpt lat="44.54842041660083" lon="10.004094080924064"><ele>868.0</ele><time>2026-05-02T15:10:10.999Z</time></trkpt><trkpt lat="44.54858794784176" lon="10.004148999471873"><ele>868.0</ele><time>2026-05-02T15:10:11.999Z</time></trkpt><trkpt lat="44.54874418301829" lon="10.004091373908253"><ele>868.0</ele><time>2026-05-02T15:10:12.999Z</time></trkpt><trkpt lat="44.5489641374142" lon="10.003959123396253"><ele>866.3333333333333</ele><time>2026-05-02T15:10:13.999Z</time></trkpt><trkpt lat="44.549165392058015" lon="10.00376671703114"><ele>864.6666666666667</ele><time>2026-05-02T15:10:14.999Z</time></trkpt><trkpt lat="44.549331671144074" lon="10.003642336491636"><ele>863.0</ele><time>2026-05-02T15:10:15.999Z</time></trkpt><trkpt lat="44.54953116615193" lon="10.003575421750318"><ele>862.6666666666667</ele><time>2026-05-02T15:10:16.999Z</time></trkpt><trkpt lat="44.54971711151736" lon="10.003653007919176"><ele>862.3333333333333</ele><time>2026-05-02T15:10:17.999Z</time></trkpt><trkpt lat="44.54992249175419" lon="10.003676577420059"><ele>862.0</ele><time>2026-05-02T15:10:18.999Z</time></trkpt><trkpt lat="44.55009955076348" lon="10.003686464478683"><ele>862.0</ele><time>2026-05-02T15:10:19.999Z</time></trkpt><trkpt lat="44.55031624238472" lon="10.003579344012223"><ele>862.0</ele><time>2026-05-02T15:10:20.999Z</time></trkpt><trkpt lat="44.55047823485464" lon="10.003338742850955"><ele>858.0</ele><time>2026-05-02T15:10:21.999Z</time></trkpt><trkpt lat="44.55066040557418" lon="10.003039403491629"><ele>854.0</ele><time>2026-05-02T15:10:23Z</time></trkpt><trkpt lat="44.55081163378688" lon="10.00270107772355"><ele>848.5</ele><time>2026-05-02T15:10:24Z</time></trkpt><trkpt lat="44.55096357299906" lon="10.002425113393933"><ele>843.0</ele><time>2026-05-02T15:10:25Z</time></trkpt><trkpt lat="44.551100489568135" lon="10.002195339655287"><ele>843.0</ele><time>2026-05-02T15:10:26Z</time></trkpt><trkpt lat="44.55121020842977" lon="10.00202378964041"><ele>843.0</ele><time>2026-05-02T15:10:27Z</time></trkpt><trkpt lat="44.55134315667384" lon="10.001993742429018"><ele>843.0</ele><time>2026-05-02T15:10:28Z</time></trkpt><trkpt lat="44.55146228560772" lon="10.002081450524724"><ele>843.0</ele><time>2026-05-02T15:10:29Z</time></trkpt><trkpt lat="44.55168378852083" lon="10.002171140020991"><ele>843.0</ele><time>2026-05-02T15:10:30Z</time></trkpt><trkpt lat="44.55192604547482" lon="10.002234816070487"><ele>843.0</ele><time>2026-05-02T15:10:31Z</time></trkpt><trkpt lat="44.55219328786158" lon="10.002238504800426"><ele>842.3333333333333</ele><time>2026-05-02T15:10:32Z</time></trkpt><trkpt lat="44.55243700137614" lon="10.002206919232139"><ele>841.6666666666666</ele><time>2026-05-02T15:10:33Z</time></trkpt><trkpt lat="44.55262692234422" lon="10.002166627785224"><ele>841.0</ele><time>2026-05-02T15:10:34Z</time></trkpt><trkpt lat="44.552791400399485" lon="10.002073096912653"><ele>839.5</ele><time>2026-05-02T15:10:35Z</time></trkpt><trkpt lat="44.55295096150331" lon="10.001830396387447"><ele>838.0</ele><time>2026-05-02T15:10:36Z</time></trkpt><trkpt lat="44.553118334386035" lon="10.00155176320866"><ele>833.6666666666666</ele><time>2026-05-02T15:10:37Z</time></trkpt><trkpt lat="44.55324671853625" lon="10.001360723711432"><ele>829.3333333333333</ele><time>2026-05-02T15:10:38Z</time></trkpt><trkpt lat="44.55338292844825" lon="10.001324558308003"><ele>825.0</ele><time>2026-05-02T15:10:39Z</time></trkpt><trkpt lat="44.55350768793089" lon="10.001347153986728"><ele>825.0</ele><time>2026-05-02T15:10:40Z</time></trkpt><trkpt lat="44.55361735512204" lon="10.001450268468211"><ele>825.0</ele><time>2026-05-02T15:10:41Z</time></trkpt><trkpt lat="44.5537192758486" lon="10.001619596877765"><ele>825.0</ele><time>2026-05-02T15:10:42Z</time></trkpt><trkpt lat="44.55378044949866" lon="10.001813434618775"><ele>825.0</ele><time>2026-05-02T15:10:43Z</time></trkpt><trkpt lat="44.553849502557455" lon="10.002125822855419"><ele>825.0</ele><time>2026-05-02T15:10:44Z</time></trkpt><trkpt lat="44.553932363432786" lon="10.002506101087077"><ele>825.0</ele><time>2026-05-02T15:10:45Z</time></trkpt><trkpt lat="44.55403378424739" lon="10.002888884427913"><ele>825.0</ele><time>2026-05-02T15:10:46Z</time></trkpt><trkpt lat="44.5541563772423" lon="10.003177945717395"><ele>825.0</ele><time>2026-05-02T15:10:47Z</time></trkpt><trkpt lat="44.554278143717305" lon="10.003396827438959"><ele>825.0</ele><time>2026-05-02T15:10:48Z</time></trkpt><trkpt lat="44.55447207599913" lon="10.003557446953538"><ele>820.0</ele><time>2026-05-02T15:10:49Z</time></trkpt><trkpt lat="44.554713604149406" lon="10.003733698273036"><ele>815.0</ele><time>2026-05-02T15:10:50Z</time></trkpt><trkpt lat="44.55491676923024" lon="10.00391759620655"><ele>815.0</ele><time>2026-05-02T15:10:51Z</time></trkpt><trkpt lat="44.55514281668606" lon="10.004042114881543"><ele>815.0</ele><time>2026-05-02T15:10:52Z</time></trkpt><trkpt lat="44.5553686034433" lon="10.004064943558955"><ele>812.5</ele><time>2026-05-02T15:10:53Z</time></trkpt><trkpt lat="44.55550897639699" lon="10.004073152349534"><ele>810.0</ele><time>2026-05-02T15:10:54Z</time></trkpt><trkpt lat="44.555596809426554" lon="10.004154341945908"><ele>807.5</ele><time>2026-05-02T15:10:55Z</time></trkpt><trkpt lat="44.555598336547554" lon="10.004305591675001"><ele>805.0</ele><time>2026-05-02T15:10:56Z</time></trkpt><trkpt lat="44.55560787183319" lon="10.004506485520254"><ele>805.0</ele><time>2026-05-02T15:10:57Z</time></trkpt><trkpt lat="44.55557980977113" lon="10.004756906987293"><ele>805.0</ele><time>2026-05-02T15:10:58Z</time></trkpt><trkpt lat="44.55548828768703" lon="10.00504484739874"><ele>805.0</ele><time>2026-05-02T15:10:59Z</time></trkpt><trkpt lat="44.555432349207685" lon="10.005332232195714"><ele>804.3333333333333</ele><time>2026-05-02T15:11:00Z</time></trkpt><trkpt lat="44.55545519067328" lon="10.0055503426776"><ele>803.6666666666667</ele><time>2026-05-02T15:11:01Z</time></trkpt><trkpt lat="44.55550725037937" lon="10.00580874550187"><ele>803.0</ele><time>2026-05-02T15:11:02Z</time></trkpt><trkpt lat="44.55559628348258" lon="10.006084758266"><ele>803.0</ele><time>2026-05-02T15:11:03Z</time></trkpt><trkpt lat="44.55571303492049" lon="10.006358311432342"><ele>803.0</ele><time>2026-05-02T15:11:04Z</time></trkpt><trkpt lat="44.5558932347104" lon="10.006586376892297"><ele>808.0</ele><time>2026-05-02T15:11:05Z</time></trkpt><trkpt lat="44.556131724245425" lon="10.00679417491698"><ele>813.0</ele><time>2026-05-02T15:11:06Z</time></trkpt><trkpt lat="44.55632651469114" lon="10.00697670107328"><ele>808.0</ele><time>2026-05-02T15:11:07Z</time></trkpt><trkpt lat="44.55646414657695" lon="10.007131460438458"><ele>803.0</ele><time>2026-05-02T15:11:08Z</time></trkpt><trkpt lat="44.55649957646722" lon="10.007314801388036"><ele>798.0</ele><time>2026-05-02T15:11:09Z</time></trkpt><trkpt lat="44.556506047399836" lon="10.00751547159908"><ele>798.0</ele><time>2026-05-02T15:11:10Z</time></trkpt><trkpt lat="44.55657962761106" lon="10.007695601883045"><ele>798.0</ele><time>2026-05-02T15:11:11Z</time></trkpt><trkpt lat="44.55664139066026" lon="10.007805950368674"><ele>798.0</ele><time>2026-05-02T15:11:12Z</time></trkpt><trkpt lat="44.55675803691373" lon="10.007861314379712"><ele>798.0</ele><time>2026-05-02T15:11:13Z</time></trkpt><trkpt lat="44.55691237726767" lon="10.007820214325738"><ele>793.3333333333333</ele><time>2026-05-02T15:11:14Z</time></trkpt><trkpt lat="44.557126715059546" lon="10.007715253483594"><ele>788.6666666666666</ele><time>2026-05-02T15:11:15Z</time></trkpt><trkpt lat="44.557318888137026" lon="10.007659129394494"><ele>784.0</ele><time>2026-05-02T15:11:16Z</time></trkpt><trkpt lat="44.557471222361315" lon="10.007691408575"><ele>784.0</ele><time>2026-05-02T15:11:17Z</time></trkpt><trkpt lat="44.55753797834954" lon="10.007872959788939"><ele>784.0</ele><time>2026-05-02T15:11:18Z</time></trkpt><trkpt lat="44.55753442266233" lon="10.00805154013916"><ele>784.0</ele><time>2026-05-02T15:11:19Z</time></trkpt><trkpt lat="44.557592260902865" lon="10.008325939086896"><ele>787.0</ele><time>2026-05-02T15:11:20Z</time></trkpt><trkpt lat="44.55771527796588" lon="10.008580908098423"><ele>790.0</ele><time>2026-05-02T15:11:21Z</time></trkpt><trkpt lat="44.55787282023799" lon="10.008814012211317"><ele>793.0</ele><time>2026-05-02T15:11:22Z</time></trkpt><trkpt lat="44.55801502909313" lon="10.00900894549136"><ele>789.0</ele><time>2026-05-02T15:11:23Z</time></trkpt><trkpt lat="44.5580771777756" lon="10.009237557070326"><ele>785.0</ele><time>2026-05-02T15:11:24Z</time></trkpt><trkpt lat="44.55814130460966" lon="10.009511585376348"><ele>781.0</ele><time>2026-05-02T15:11:24.999Z</time></trkpt><trkpt lat="44.558241406304774" lon="10.009738749954943"><ele>781.0</ele><time>2026-05-02T15:11:25.999Z</time></trkpt><trkpt lat="44.55835851136102" lon="10.00996939990193"><ele>781.0</ele><time>2026-05-02T15:11:26.999Z</time></trkpt><trkpt lat="44.558534108342" lon="10.010159315826353"><ele>781.0</ele><time>2026-05-02T15:11:27.999Z</time></trkpt><trkpt lat="44.558773918328576" lon="10.010363165354882"><ele>772.0</ele><time>2026-05-02T15:11:28.999Z</time></trkpt><trkpt lat="44.558994123830495" lon="10.010555108423443"><ele>763.0</ele><time>2026-05-02T15:11:29.999Z</time></trkpt><trkpt lat="44.559191322256474" lon="10.01067843899853"><ele>763.0</ele><time>2026-05-02T15:11:30.999Z</time></trkpt><trkpt lat="44.559350140102765" lon="10.010761365093845"><ele>763.0</ele><time>2026-05-02T15:11:31.999Z</time></trkpt><trkpt lat="44.559414936800664" lon="10.010951707744908"><ele>763.0</ele><time>2026-05-02T15:11:32.999Z</time></trkpt><trkpt lat="44.55948554844585" lon="10.011205536968603"><ele>758.0</ele><time>2026-05-02T15:11:33.999Z</time></trkpt><trkpt lat="44.55955915933349" lon="10.011531838485231"><ele>753.0</ele><time>2026-05-02T15:11:34.999Z</time></trkpt><trkpt lat="44.559564615560866" lon="10.011824509417442"><ele>753.0</ele><time>2026-05-02T15:11:35.999Z</time></trkpt><trkpt lat="44.55956651331991" lon="10.012208527269012"><ele>753.0</ele><time>2026-05-02T15:11:36.999Z</time></trkpt><trkpt lat="44.55965317930951" lon="10.012569933831067"><ele>751.5</ele><time>2026-05-02T15:11:37.999Z</time></trkpt><trkpt lat="44.559746785419804" lon="10.012982381017919"><ele>750.0</ele><time>2026-05-02T15:11:38.999Z</time></trkpt><trkpt lat="44.55985180477675" lon="10.01339120330565"><ele>750.0</ele><time>2026-05-02T15:11:39.999Z</time></trkpt><trkpt lat="44.55994195674244" lon="10.013727878755235"><ele>750.0</ele><time>2026-05-02T15:11:40.999Z</time></trkpt><trkpt lat="44.560040860780596" lon="10.013970398035003"><ele>750.0</ele><time>2026-05-02T15:11:41.999Z</time></trkpt><trkpt lat="44.560167405812784" lon="10.014142881574788"><ele>750.0</ele><time>2026-05-02T15:11:42.999Z</time></trkpt><trkpt lat="44.56036404572616" lon="10.014249947669404"><ele>750.0</ele><time>2026-05-02T15:11:43.999Z</time></trkpt><trkpt lat="44.560616410862956" lon="10.014267401320103"><ele>744.5</ele><time>2026-05-02T15:11:44.999Z</time></trkpt><trkpt lat="44.560894975362416" lon="10.01427421694938"><ele>739.0</ele><time>2026-05-02T15:11:45.999Z</time></trkpt><trkpt lat="44.56112596856958" lon="10.014384997871272"><ele>733.5</ele><time>2026-05-02T15:11:46.999Z</time></trkpt><trkpt lat="44.56137055674555" lon="10.014561181358747"><ele>728.0</ele><time>2026-05-02T15:11:47.999Z</time></trkpt><trkpt lat="44.5616538779907" lon="10.01474539677129"><ele>728.0</ele><time>2026-05-02T15:11:48.999Z</time></trkpt><trkpt lat="44.56187751923073" lon="10.014940911202906"><ele>728.0</ele><time>2026-05-02T15:11:49.999Z</time></trkpt><trkpt lat="44.56207105166338" lon="10.015062060152239"><ele>729.3333333333333</ele><time>2026-05-02T15:11:50.999Z</time></trkpt><trkpt lat="44.562264937284944" lon="10.015068381284038"><ele>730.6666666666666</ele><time>2026-05-02T15:11:51.999Z</time></trkpt><trkpt lat="44.56248709767362" lon="10.01497889993758"><ele>732.0</ele><time>2026-05-02T15:11:52.999Z</time></trkpt><trkpt lat="44.56268220094846" lon="10.014866071098204"><ele>729.0</ele><time>2026-05-02T15:11:53.999Z</time></trkpt><trkpt lat="44.56280154071924" lon="10.014875579691786"><ele>726.0</ele><time>2026-05-02T15:11:54.999Z</time></trkpt><trkpt lat="44.562906192909374" lon="10.014903443184702"><ele>723.0</ele><time>2026-05-02T15:11:55.999Z</time></trkpt><trkpt lat="44.56295437087275" lon="10.015095553546116"><ele>720.0</ele><time>2026-05-02T15:11:56.999Z</time></trkpt><trkpt lat="44.56302164142905" lon="10.015379899645492"><ele>718.0</ele><time>2026-05-02T15:11:57.999Z</time></trkpt><trkpt lat="44.56310792209521" lon="10.015706290010383"><ele>716.0</ele><time>2026-05-02T15:11:58.999Z</time></trkpt><trkpt lat="44.56319114063014" lon="10.016057449490892"><ele>716.0</ele><time>2026-05-02T15:11:59.999Z</time></trkpt><trkpt lat="44.563294970782934" lon="10.016350956826896"><ele>716.0</ele><time>2026-05-02T15:12:00.999Z</time></trkpt><trkpt lat="44.56344654189162" lon="10.016585109173722"><ele>714.0</ele><time>2026-05-02T15:12:01.999Z</time></trkpt><trkpt lat="44.5636757393608" lon="10.016787859266328"><ele>712.0</ele><time>2026-05-02T15:12:02.999Z</time></trkpt><trkpt lat="44.56392417917102" lon="10.016969573515196"><ele>712.0</ele><time>2026-05-02T15:12:03.999Z</time></trkpt><trkpt lat="44.564124063065236" lon="10.017110041697382"><ele>712.0</ele><time>2026-05-02T15:12:04.999Z</time></trkpt><trkpt lat="44.56431881293123" lon="10.017165670024598"><ele>712.0</ele><time>2026-05-02T15:12:05.999Z</time></trkpt><trkpt lat="44.56454849567291" lon="10.017142491290508"><ele>709.5</ele><time>2026-05-02T15:12:06.999Z</time></trkpt><trkpt lat="44.564762879490495" lon="10.01717021538024"><ele>707.0</ele><time>2026-05-02T15:12:07.999Z</time></trkpt><trkpt lat="44.5649570673984" lon="10.017369106738888"><ele>708.5</ele><time>2026-05-02T15:12:08.999Z</time></trkpt><trkpt lat="44.56519797196131" lon="10.017552347000423"><ele>710.0</ele><time>2026-05-02T15:12:09.999Z</time></trkpt><trkpt lat="44.565457052974864" lon="10.01768040923748"><ele>710.0</ele><time>2026-05-02T15:12:10.999Z</time></trkpt><trkpt lat="44.5657529062276" lon="10.017725988899985"><ele>710.0</ele><time>2026-05-02T15:12:11.999Z</time></trkpt><trkpt lat="44.5660546306095" lon="10.01776620447578"><ele>709.5</ele><time>2026-05-02T15:12:12.999Z</time></trkpt><trkpt lat="44.5663034163146" lon="10.017852932221786"><ele>709.0</ele><time>2026-05-02T15:12:13.999Z</time></trkpt><trkpt lat="44.56653564348239" lon="10.018054780285247"><ele>709.0</ele><time>2026-05-02T15:12:14.999Z</time></trkpt><trkpt lat="44.56680607971082" lon="10.018297250860444"><ele>709.0</ele><time>2026-05-02T15:12:15.999Z</time></trkpt><trkpt lat="44.56710425158477" lon="10.018546936111774"><ele>711.0</ele><time>2026-05-02T15:12:16.999Z</time></trkpt><trkpt lat="44.56741471403779" lon="10.01882149338464"><ele>713.0</ele><time>2026-05-02T15:12:17.999Z</time></trkpt><trkpt lat="44.567735142857984" lon="10.019091287860606"><ele>709.5</ele><time>2026-05-02T15:12:18.999Z</time></trkpt><trkpt lat="44.5680306578749" lon="10.0193455534885"><ele>706.0</ele><time>2026-05-02T15:12:19.999Z</time></trkpt><trkpt lat="44.56829047047344" lon="10.019573524455753"><ele>706.0</ele><time>2026-05-02T15:12:20.999Z</time></trkpt><trkpt lat="44.568539358076585" lon="10.019788701243344"><ele>706.0</ele><time>2026-05-02T15:12:21.999Z</time></trkpt><trkpt lat="44.56879352502775" lon="10.020040135683473"><ele>708.5</ele><time>2026-05-02T15:12:22.999Z</time></trkpt><trkpt lat="44.56905406629394" lon="10.020259036594247"><ele>711.0</ele><time>2026-05-02T15:12:23.999Z</time></trkpt><trkpt lat="44.56925180191932" lon="10.02045507842684"><ele>711.0</ele><time>2026-05-02T15:12:24.999Z</time></trkpt><trkpt lat="44.569459900109344" lon="10.020580341724031"><ele>711.0</ele><time>2026-05-02T15:12:25.999Z</time></trkpt><trkpt lat="44.56975320718803" lon="10.02059234187654"><ele>713.3333333333334</ele><time>2026-05-02T15:12:26.999Z</time></trkpt><trkpt lat="44.569950824930615" lon="10.020579331180688"><ele>715.6666666666667</ele><time>2026-05-02T15:12:27.999Z</time></trkpt><trkpt lat="44.57016020231243" lon="10.020516683845285"><ele>718.0</ele><time>2026-05-02T15:12:29Z</time></trkpt><trkpt lat="44.5703158589648" lon="10.020506319743673"><ele>718.3333333333334</ele><time>2026-05-02T15:12:30Z</time></trkpt><trkpt lat="44.57043267051801" lon="10.02061355373816"><ele>718.6666666666666</ele><time>2026-05-02T15:12:31Z</time></trkpt><trkpt lat="44.57053340940958" lon="10.020778052242118"><ele>719.0</ele><time>2026-05-02T15:12:32Z</time></trkpt><trkpt lat="44.570695000306294" lon="10.021003624943"><ele>724.0</ele><time>2026-05-02T15:12:33Z</time></trkpt><trkpt lat="44.57088417409904" lon="10.021267663158476"><ele>729.0</ele><time>2026-05-02T15:12:34Z</time></trkpt><trkpt lat="44.571064556191324" lon="10.02149008495569"><ele>735.0</ele><time>2026-05-02T15:12:35Z</time></trkpt><trkpt lat="44.57123844546921" lon="10.02166140779882"><ele>741.0</ele><time>2026-05-02T15:12:36Z</time></trkpt><trkpt lat="44.57148379551436" lon="10.021810461676413"><ele>741.0</ele><time>2026-05-02T15:12:37Z</time></trkpt><trkpt lat="44.57177332814428" lon="10.021935041134025"><ele>741.0</ele><time>2026-05-02T15:12:38Z</time></trkpt><trkpt lat="44.57207409467045" lon="10.022073060234018"><ele>742.5</ele><time>2026-05-02T15:12:39Z</time></trkpt><trkpt lat="44.572360194374994" lon="10.022211680780586"><ele>744.0</ele><time>2026-05-02T15:12:40Z</time></trkpt><trkpt lat="44.57255050659406" lon="10.022401671707996"><ele>742.5</ele><time>2026-05-02T15:12:41Z</time></trkpt><trkpt lat="44.57271102291403" lon="10.022636346149017"><ele>741.0</ele><time>2026-05-02T15:12:42Z</time></trkpt><trkpt lat="44.572865314364215" lon="10.022953120446482"><ele>739.0</ele><time>2026-05-02T15:12:43Z</time></trkpt><trkpt lat="44.57302543714574" lon="10.023311947359268"><ele>737.0</ele><time>2026-05-02T15:12:44Z</time></trkpt><trkpt lat="44.57318437397797" lon="10.023668895035144"><ele>737.0</ele><time>2026-05-02T15:12:45Z</time></trkpt><trkpt lat="44.57333875144038" lon="10.023911428642943"><ele>737.0</ele><time>2026-05-02T15:12:46Z</time></trkpt><trkpt lat="44.57347802876624" lon="10.024108868117718"><ele>737.0</ele><time>2026-05-02T15:12:47Z</time></trkpt><trkpt lat="44.573692883143444" lon="10.024236202601207"><ele>737.0</ele><time>2026-05-02T15:12:48Z</time></trkpt><trkpt lat="44.573978102557625" lon="10.024313480718288"><ele>737.0</ele><time>2026-05-02T15:12:49Z</time></trkpt><trkpt lat="44.57429198053849" lon="10.024399661136586"><ele>734.0</ele><time>2026-05-02T15:12:50Z</time></trkpt><trkpt lat="44.574616878751456" lon="10.024516400282076"><ele>731.0</ele><time>2026-05-02T15:12:51Z</time></trkpt><trkpt lat="44.57495032394168" lon="10.024632829277444"><ele>731.0</ele><time>2026-05-02T15:12:52Z</time></trkpt><trkpt lat="44.575235742746074" lon="10.02473986698576"><ele>731.0</ele><time>2026-05-02T15:12:53Z</time></trkpt><trkpt lat="44.575485092494894" lon="10.024880489670407"><ele>732.5</ele><time>2026-05-02T15:12:54Z</time></trkpt><trkpt lat="44.57571359542875" lon="10.025104435631988"><ele>734.0</ele><time>2026-05-02T15:12:55Z</time></trkpt><trkpt lat="44.575969859128726" lon="10.025373810490011"><ele>731.0</ele><time>2026-05-02T15:12:56Z</time></trkpt><trkpt lat="44.576246262451384" lon="10.025665230871171"><ele>728.0</ele><time>2026-05-02T15:12:57Z</time></trkpt><trkpt lat="44.57651224656995" lon="10.025944314704077"><ele>734.0</ele><time>2026-05-02T15:12:58Z</time></trkpt><trkpt lat="44.57672954719207" lon="10.02618384292821"><ele>740.0</ele><time>2026-05-02T15:12:59Z</time></trkpt><trkpt lat="44.576853484543214" lon="10.026415928658281"><ele>740.0</ele><time>2026-05-02T15:13:00Z</time></trkpt><trkpt lat="44.576908007721464" lon="10.026625457188068"><ele>740.0</ele><time>2026-05-02T15:13:01Z</time></trkpt><trkpt lat="44.576969839146976" lon="10.026875158291999"><ele>740.0</ele><time>2026-05-02T15:13:02Z</time></trkpt><trkpt lat="44.57707810583654" lon="10.027209444185907"><ele>742.0</ele><time>2026-05-02T15:13:03Z</time></trkpt><trkpt lat="44.57723264620296" lon="10.027533378138115"><ele>744.0</ele><time>2026-05-02T15:13:04Z</time></trkpt><trkpt lat="44.57732481018534" lon="10.027896430437515"><ele>744.0</ele><time>2026-05-02T15:13:05Z</time></trkpt><trkpt lat="44.57740099526715" lon="10.028236957139315"><ele>744.0</ele><time>2026-05-02T15:13:06Z</time></trkpt><trkpt lat="44.577494585676156" lon="10.02849141737282"><ele>747.5</ele><time>2026-05-02T15:13:07Z</time></trkpt><trkpt lat="44.577616705795194" lon="10.028701789752864"><ele>751.0</ele><time>2026-05-02T15:13:08Z</time></trkpt><trkpt lat="44.57783180511431" lon="10.028899508416536"><ele>753.6666666666667</ele><time>2026-05-02T15:13:09Z</time></trkpt><trkpt lat="44.57797116368367" lon="10.029100469108121"><ele>756.3333333333334</ele><time>2026-05-02T15:13:10Z</time></trkpt><trkpt lat="44.578021064818195" lon="10.029356495184253"><ele>759.0</ele><time>2026-05-02T15:13:11Z</time></trkpt><trkpt lat="44.57802813903269" lon="10.029660931948548"><ele>759.6666666666666</ele><time>2026-05-02T15:13:12Z</time></trkpt><trkpt lat="44.57810669412264" lon="10.029933991673978"><ele>760.3333333333333</ele><time>2026-05-02T15:13:13Z</time></trkpt><trkpt lat="44.578175873058285" lon="10.03018438414071"><ele>761.0</ele><time>2026-05-02T15:13:14Z</time></trkpt><trkpt lat="44.57831198350158" lon="10.030384576953212"><ele>761.0</ele><time>2026-05-02T15:13:15Z</time></trkpt><trkpt lat="44.57845616014079" lon="10.030538512339282"><ele>761.0</ele><time>2026-05-02T15:13:16Z</time></trkpt><trkpt lat="44.57865358347491" lon="10.030676815323803"><ele>761.0</ele><time>2026-05-02T15:13:17Z</time></trkpt><trkpt lat="44.578855274187376" lon="10.030764450759099"><ele>764.0</ele><time>2026-05-02T15:13:18Z</time></trkpt><trkpt lat="44.579066203838906" lon="10.030725964319982"><ele>767.0</ele><time>2026-05-02T15:13:19Z</time></trkpt><trkpt lat="44.57928045136567" lon="10.03059372707116"><ele>770.0</ele><time>2026-05-02T15:13:20Z</time></trkpt><trkpt lat="44.57951656928051" lon="10.03043444675356"><ele>770.0</ele><time>2026-05-02T15:13:21Z</time></trkpt><trkpt lat="44.579750354829336" lon="10.03027282049087"><ele>770.0</ele><time>2026-05-02T15:13:22Z</time></trkpt><trkpt lat="44.58002161096802" lon="10.030196087104406"><ele>770.0</ele><time>2026-05-02T15:13:23Z</time></trkpt><trkpt lat="44.58030576557192" lon="10.030207805931923"><ele>770.0</ele><time>2026-05-02T15:13:24Z</time></trkpt><trkpt lat="44.580586015012294" lon="10.030291587202738"><ele>769.5</ele><time>2026-05-02T15:13:25Z</time></trkpt><trkpt lat="44.58088929789722" lon="10.030398900450779"><ele>769.0</ele><time>2026-05-02T15:13:26Z</time></trkpt><trkpt lat="44.58121225694772" lon="10.030444804899266"><ele>769.0</ele><time>2026-05-02T15:13:27Z</time></trkpt><trkpt lat="44.58148666819906" lon="10.03053349488265"><ele>769.0</ele><time>2026-05-02T15:13:28Z</time></trkpt><trkpt lat="44.58169073119054" lon="10.030665917335652"><ele>768.5</ele><time>2026-05-02T15:13:29Z</time></trkpt><trkpt lat="44.58186159980078" lon="10.03086169605724"><ele>768.0</ele><time>2026-05-02T15:13:30Z</time></trkpt><trkpt lat="44.5820797879837" lon="10.031119606163948"><ele>766.5</ele><time>2026-05-02T15:13:31Z</time></trkpt><trkpt lat="44.582319912974775" lon="10.031407004749816"><ele>765.0</ele><time>2026-05-02T15:13:32Z</time></trkpt><trkpt lat="44.58257435531638" lon="10.031705544332807"><ele>770.0</ele><time>2026-05-02T15:13:33Z</time></trkpt><trkpt lat="44.58285781396506" lon="10.03198227894957"><ele>775.0</ele><time>2026-05-02T15:13:34Z</time></trkpt><trkpt lat="44.583161059998126" lon="10.032214012676091"><ele>775.0</ele><time>2026-05-02T15:13:35Z</time></trkpt><trkpt lat="44.583463927394334" lon="10.032315035037689"><ele>775.0</ele><time>2026-05-02T15:13:35.999Z</time></trkpt><trkpt lat="44.583733281797876" lon="10.03236923419485"><ele>782.5</ele><time>2026-05-02T15:13:36.999Z</time></trkpt><trkpt lat="44.58393823957254" lon="10.032479684781766"><ele>790.0</ele><time>2026-05-02T15:13:37.999Z</time></trkpt><trkpt lat="44.58414003017488" lon="10.032672093527736"><ele>790.0</ele><time>2026-05-02T15:13:38.999Z</time></trkpt><trkpt lat="44.5843744719954" lon="10.032922151891883"><ele>790.0</ele><time>2026-05-02T15:13:39.999Z</time></trkpt><trkpt lat="44.58460525714148" lon="10.033216078844795"><ele>793.5</ele><time>2026-05-02T15:13:40.999Z</time></trkpt><trkpt lat="44.58483329383729" lon="10.03353133191272"><ele>797.0</ele><time>2026-05-02T15:13:41.999Z</time></trkpt><trkpt lat="44.58502554427339" lon="10.033807486139045"><ele>797.0</ele><time>2026-05-02T15:13:42.999Z</time></trkpt><trkpt lat="44.58521162716252" lon="10.034014519666963"><ele>797.0</ele><time>2026-05-02T15:13:43.999Z</time></trkpt><trkpt lat="44.585365550056274" lon="10.03420111555952"><ele>797.0</ele><time>2026-05-02T15:13:44.999Z</time></trkpt><trkpt lat="44.58553840701988" lon="10.03431914134029"><ele>798.3333333333334</ele><time>2026-05-02T15:13:45.999Z</time></trkpt><trkpt lat="44.585719656615396" lon="10.034375979889482"><ele>799.6666666666667</ele><time>2026-05-02T15:13:46.999Z</time></trkpt><trkpt lat="44.585903876930814" lon="10.03440971996628"><ele>801.0</ele><time>2026-05-02T15:13:47.999Z</time></trkpt><trkpt lat="44.58608634849847" lon="10.034457658721934"><ele>802.0</ele><time>2026-05-02T15:13:48.999Z</time></trkpt><trkpt lat="44.58626356863079" lon="10.034514578816031"><ele>803.0</ele><time>2026-05-02T15:13:49.999Z</time></trkpt><trkpt lat="44.58642407144046" lon="10.034560747784575"><ele>804.0</ele><time>2026-05-02T15:13:50.999Z</time></trkpt><trkpt lat="44.58658181120985" lon="10.03461096117735"><ele>804.0</ele><time>2026-05-02T15:13:51.999Z</time></trkpt><trkpt lat="44.58673815313556" lon="10.03466347368266"><ele>804.0</ele><time>2026-05-02T15:13:52.999Z</time></trkpt><trkpt lat="44.58690256571724" lon="10.034717166764821"><ele>804.0</ele><time>2026-05-02T15:13:53.999Z</time></trkpt><trkpt lat="44.5870638102997" lon="10.034768853733512"><ele>806.6666666666667</ele><time>2026-05-02T15:13:54.999Z</time></trkpt><trkpt lat="44.587229594256605" lon="10.034814790023013"><ele>809.3333333333334</ele><time>2026-05-02T15:13:55.999Z</time></trkpt><trkpt lat="44.587396625446964" lon="10.034874626365957"><ele>812.0</ele><time>2026-05-02T15:13:56.999Z</time></trkpt><trkpt lat="44.58753388409561" lon="10.035011456137862"><ele>814.0</ele><time>2026-05-02T15:13:57.999Z</time></trkpt><trkpt lat="44.58762314371514" lon="10.035176724762241"><ele>816.0</ele><time>2026-05-02T15:13:58.999Z</time></trkpt><trkpt lat="44.587586854029084" lon="10.035416369040398"><ele>818.0</ele><time>2026-05-02T15:13:59.999Z</time></trkpt><trkpt lat="44.58753373339212" lon="10.035640666139116"><ele>819.6666666666667</ele><time>2026-05-02T15:14:00.999Z</time></trkpt><trkpt lat="44.58752767413299" lon="10.035918074079444"><ele>821.3333333333333</ele><time>2026-05-02T15:14:01.999Z</time></trkpt><trkpt lat="44.58756006353114" lon="10.03618107742391"><ele>823.0</ele><time>2026-05-02T15:14:02.999Z</time></trkpt><trkpt lat="44.587682437863286" lon="10.036463029857991"><ele>824.0</ele><time>2026-05-02T15:14:03.999Z</time></trkpt><trkpt lat="44.58776599082094" lon="10.036743318057935"><ele>825.0</ele><time>2026-05-02T15:14:04.999Z</time></trkpt><trkpt lat="44.58776829680106" lon="10.037036261373482"><ele>826.0</ele><time>2026-05-02T15:14:05.999Z</time></trkpt><trkpt lat="44.58770433456988" lon="10.037391913848964"><ele>827.5</ele><time>2026-05-02T15:14:06.999Z</time></trkpt><trkpt lat="44.58763720762028" lon="10.037814160664025"><ele>829.0</ele><time>2026-05-02T15:14:07.999Z</time></trkpt><trkpt lat="44.587580365799425" lon="10.038171712550401"><ele>833.5</ele><time>2026-05-02T15:14:08.999Z</time></trkpt><trkpt lat="44.58751108075332" lon="10.038597454773655"><ele>838.0</ele><time>2026-05-02T15:14:09.999Z</time></trkpt><trkpt lat="44.587446360516" lon="10.038979922681493"><ele>843.3333333333333</ele><time>2026-05-02T15:14:10.999Z</time></trkpt><trkpt lat="44.58735370044192" lon="10.039244167369455"><ele>848.6666666666667</ele><time>2026-05-02T15:14:11.999Z</time></trkpt><trkpt lat="44.58723324016973" lon="10.039434830550988"><ele>854.0</ele><time>2026-05-02T15:14:12.999Z</time></trkpt><trkpt lat="44.587103374775175" lon="10.039623916265718"><ele>848.5</ele><time>2026-05-02T15:14:13.999Z</time></trkpt><trkpt lat="44.58684408186806" lon="10.039995188509652"><ele>843.0</ele><time>2026-05-02T15:14:14.999Z</time></trkpt><trkpt lat="44.58673948848158" lon="10.040238826639257"><ele>843.0</ele><time>2026-05-02T15:14:15.999Z</time></trkpt><trkpt lat="44.58666108623025" lon="10.040441727807178"><ele>843.0</ele><time>2026-05-02T15:14:16.999Z</time></trkpt><trkpt lat="44.5866400470158" lon="10.040762532447655"><ele>843.0</ele><time>2026-05-02T15:14:17.999Z</time></trkpt><trkpt lat="44.586604213674875" lon="10.041109575434259"><ele>850.5</ele><time>2026-05-02T15:14:18.999Z</time></trkpt><trkpt lat="44.58656566507676" lon="10.041438258653594"><ele>858.0</ele><time>2026-05-02T15:14:19.999Z</time></trkpt><trkpt lat="44.586583208949556" lon="10.041755866726023"><ele>860.0</ele><time>2026-05-02T15:14:20.999Z</time></trkpt><trkpt lat="44.586677232683506" lon="10.042076145755194"><ele>862.0</ele><time>2026-05-02T15:14:21.999Z</time></trkpt><trkpt lat="44.58683165153371" lon="10.042433860456823"><ele>858.0</ele><time>2026-05-02T15:14:22.999Z</time></trkpt><trkpt lat="44.58696996868696" lon="10.042749995402492"><ele>854.0</ele><time>2026-05-02T15:14:23.999Z</time></trkpt><trkpt lat="44.587001151048334" lon="10.043025549991457"><ele>854.0</ele><time>2026-05-02T15:14:24.999Z</time></trkpt><trkpt lat="44.58692136192883" lon="10.043275834937955"><ele>854.0</ele><time>2026-05-02T15:14:25.999Z</time></trkpt><trkpt lat="44.58690675416587" lon="10.04356791800591"><ele>854.0</ele><time>2026-05-02T15:14:26.999Z</time></trkpt><trkpt lat="44.58691493000422" lon="10.043908676115684"><ele>855.0</ele><time>2026-05-02T15:14:27.999Z</time></trkpt><trkpt lat="44.586879185854" lon="10.044283441163065"><ele>856.0</ele><time>2026-05-02T15:14:28.999Z</time></trkpt><trkpt lat="44.58681713058786" lon="10.044686748462649"><ele>863.0</ele><time>2026-05-02T15:14:29.999Z</time></trkpt><trkpt lat="44.58674424340529" lon="10.04507357842341"><ele>870.0</ele><time>2026-05-02T15:14:30.999Z</time></trkpt><trkpt lat="44.58664202709996" lon="10.045338851424676"><ele>870.0</ele><time>2026-05-02T15:14:31.999Z</time></trkpt><trkpt lat="44.58648913164066" lon="10.045600306537775"><ele>870.0</ele><time>2026-05-02T15:14:32.999Z</time></trkpt><trkpt lat="44.58636022294488" lon="10.045932039319982"><ele>878.0</ele><time>2026-05-02T15:14:33.999Z</time></trkpt><trkpt lat="44.58625269732778" lon="10.046291126517856"><ele>886.0</ele><time>2026-05-02T15:14:35Z</time></trkpt><trkpt lat="44.58617920026779" lon="10.046656774761587"><ele>873.6666666666666</ele><time>2026-05-02T15:14:36Z</time></trkpt><trkpt lat="44.58614292519737" lon="10.04693254853664"><ele>861.3333333333333</ele><time>2026-05-02T15:14:37Z</time></trkpt><trkpt lat="44.58614071847598" lon="10.047149953661345"><ele>849.0</ele><time>2026-05-02T15:14:38Z</time></trkpt><trkpt lat="44.586169845031925" lon="10.047316608010481"><ele>863.3333333333333</ele><time>2026-05-02T15:14:39Z</time></trkpt><trkpt lat="44.58626084389229" lon="10.047413176589574"><ele>877.6666666666666</ele><time>2026-05-02T15:14:40Z</time></trkpt><trkpt lat="44.58643061912056" lon="10.047409886347333"><ele>892.0</ele><time>2026-05-02T15:14:41Z</time></trkpt><trkpt lat="44.58675084971701" lon="10.047357123447897"><ele>892.0</ele><time>2026-05-02T15:14:42Z</time></trkpt><trkpt lat="44.58699184612001" lon="10.047383249931677"><ele>892.0</ele><time>2026-05-02T15:14:43Z</time></trkpt><trkpt lat="44.58723737450207" lon="10.047412224964226"><ele>893.3333333333333</ele><time>2026-05-02T15:14:44Z</time></trkpt><trkpt lat="44.5875135702014" lon="10.047453742145743"><ele>894.6666666666667</ele><time>2026-05-02T15:14:45Z</time></trkpt><trkpt lat="44.58762485533205" lon="10.047500111808326"><ele>896.0</ele><time>2026-05-02T15:14:46Z</time></trkpt><trkpt lat="44.58776045368249" lon="10.047620563915423"><ele>896.0</ele><time>2026-05-02T15:14:47Z</time></trkpt><trkpt lat="44.58779359762885" lon="10.047766405835793"><ele>896.0</ele><time>2026-05-02T15:14:48Z</time></trkpt><trkpt lat="44.58775562938396" lon="10.047962546440793"><ele>896.0</ele><time>2026-05-02T15:14:49Z</time></trkpt><trkpt lat="44.58766850091376" lon="10.048148607076602"><ele>896.0</ele><time>2026-05-02T15:14:50Z</time></trkpt><trkpt lat="44.58751425290229" lon="10.048490830421612"><ele>894.5</ele><time>2026-05-02T15:14:51Z</time></trkpt><trkpt lat="44.58743893746284" lon="10.048750700175999"><ele>893.0</ele><time>2026-05-02T15:14:52Z</time></trkpt><trkpt lat="44.58741585412074" lon="10.048944944487232"><ele>891.5</ele><time>2026-05-02T15:14:53Z</time></trkpt><trkpt lat="44.58750466041245" lon="10.049006047250069"><ele>890.0</ele><time>2026-05-02T15:14:54Z</time></trkpt><trkpt lat="44.58762035429863" lon="10.049103584417033"><ele>890.0</ele><time>2026-05-02T15:14:55Z</time></trkpt><trkpt lat="44.58783185014078" lon="10.04909802786857"><ele>890.0</ele><time>2026-05-02T15:14:56Z</time></trkpt><trkpt lat="44.588051253923574" lon="10.049119806668559"><ele>890.0</ele><time>2026-05-02T15:14:57Z</time></trkpt><trkpt lat="44.58826737481674" lon="10.049161678086111"><ele>899.5</ele><time>2026-05-02T15:14:58Z</time></trkpt><trkpt lat="44.588530013668304" lon="10.049295884979006"><ele>909.0</ele><time>2026-05-02T15:14:59Z</time></trkpt><trkpt lat="44.58876959377644" lon="10.049528391773407"><ele>911.5</ele><time>2026-05-02T15:15:00Z</time></trkpt><trkpt lat="44.58901006165213" lon="10.049821916626085"><ele>914.0</ele><time>2026-05-02T15:15:01Z</time></trkpt><trkpt lat="44.58920595899528" lon="10.050114550667967"><ele>914.0</ele><time>2026-05-02T15:15:02Z</time></trkpt><trkpt lat="44.58935365332287" lon="10.050416620641611"><ele>914.0</ele><time>2026-05-02T15:15:03Z</time></trkpt><trkpt lat="44.58943639588038" lon="10.050731719307464"><ele>906.5</ele><time>2026-05-02T15:15:04Z</time></trkpt><trkpt lat="44.589503437664874" lon="10.05106915259802"><ele>899.0</ele><time>2026-05-02T15:15:05Z</time></trkpt><trkpt lat="44.58951545424517" lon="10.051497561259568"><ele>897.0</ele><time>2026-05-02T15:15:06Z</time></trkpt><trkpt lat="44.58950284184264" lon="10.051898952319613"><ele>895.0</ele><time>2026-05-02T15:15:07Z</time></trkpt><trkpt lat="44.58946308581367" lon="10.052368331245845"><ele>896.0</ele><time>2026-05-02T15:15:08Z</time></trkpt><trkpt lat="44.58945944451366" lon="10.0528102684118"><ele>897.0</ele><time>2026-05-02T15:15:09Z</time></trkpt><trkpt lat="44.589465401138874" lon="10.05316753821521"><ele>897.0</ele><time>2026-05-02T15:15:10Z</time></trkpt><trkpt lat="44.58949504249486" lon="10.053256419841777"><ele>897.0</ele><time>2026-05-02T15:15:11Z</time></trkpt><trkpt lat="44.589596781572745" lon="10.053481281478216"><ele>897.0</ele><time>2026-05-02T15:15:12Z</time></trkpt><trkpt lat="44.58977326447701" lon="10.053642581494463"><ele>910.0</ele><time>2026-05-02T15:15:13Z</time></trkpt><trkpt lat="44.589985979464224" lon="10.053852710837466"><ele>923.0</ele><time>2026-05-02T15:15:14Z</time></trkpt><trkpt lat="44.59019657790442" lon="10.05411388713645"><ele>921.0</ele><time>2026-05-02T15:15:15Z</time></trkpt><trkpt lat="44.59033226665267" lon="10.054329330972024"><ele>919.0</ele><time>2026-05-02T15:15:16Z</time></trkpt><trkpt lat="44.59048609124003" lon="10.054434311707936"><ele>917.0</ele><time>2026-05-02T15:15:17Z</time></trkpt><trkpt lat="44.59071130328829" lon="10.05444585886715"><ele>917.0</ele><time>2026-05-02T15:15:18Z</time></trkpt><trkpt lat="44.5908922184002" lon="10.054492060944092"><ele>917.0</ele><time>2026-05-02T15:15:19Z</time></trkpt><trkpt lat="44.590982746201874" lon="10.054657865324192"><ele>917.0</ele><time>2026-05-02T15:15:20Z</time></trkpt><trkpt lat="44.59102724433493" lon="10.054899880357029"><ele>915.6666666666667</ele><time>2026-05-02T15:15:21Z</time></trkpt><trkpt lat="44.591131023723285" lon="10.055195595524474"><ele>914.3333333333333</ele><time>2026-05-02T15:15:22Z</time></trkpt><trkpt lat="44.59125058209045" lon="10.055397562296935"><ele>913.0</ele><time>2026-05-02T15:15:23Z</time></trkpt><trkpt lat="44.59140432176517" lon="10.055526699477017"><ele>913.0</ele><time>2026-05-02T15:15:24Z</time></trkpt><trkpt lat="44.591602377099214" lon="10.055511439661393"><ele>913.0</ele><time>2026-05-02T15:15:25Z</time></trkpt><trkpt lat="44.591840266554094" lon="10.05543322507869"><ele>913.0</ele><time>2026-05-02T15:15:26Z</time></trkpt><trkpt lat="44.592104328987524" lon="10.055317504206643"><ele>911.6666666666666</ele><time>2026-05-02T15:15:27Z</time></trkpt><trkpt lat="44.592309619700245" lon="10.055267438888604"><ele>910.3333333333333</ele><time>2026-05-02T15:15:28Z</time></trkpt><trkpt lat="44.59242772623133" lon="10.05539971424346"><ele>909.0</ele><time>2026-05-02T15:15:29Z</time></trkpt><trkpt lat="44.592550737020716" lon="10.05558686660626"><ele>903.0</ele><time>2026-05-02T15:15:30Z</time></trkpt><trkpt lat="44.592738096964936" lon="10.055821722954741"><ele>897.0</ele><time>2026-05-02T15:15:31Z</time></trkpt><trkpt lat="44.592901417202526" lon="10.056049620752965"><ele>896.0</ele><time>2026-05-02T15:15:32Z</time></trkpt><trkpt lat="44.59299529478687" lon="10.056274256573268"><ele>895.0</ele><time>2026-05-02T15:15:33Z</time></trkpt><trkpt lat="44.59305296412198" lon="10.056535762792091"><ele>894.0</ele><time>2026-05-02T15:15:34Z</time></trkpt><trkpt lat="44.5931156293508" lon="10.056853386191404"><ele>892.0</ele><time>2026-05-02T15:15:35Z</time></trkpt><trkpt lat="44.59317952054672" lon="10.057174270277816"><ele>890.0</ele><time>2026-05-02T15:15:36Z</time></trkpt><trkpt lat="44.593256650565394" lon="10.057474894205425"><ele>887.0</ele><time>2026-05-02T15:15:37Z</time></trkpt><trkpt lat="44.59334715578175" lon="10.057719665985122"><ele>884.0</ele><time>2026-05-02T15:15:38Z</time></trkpt><trkpt lat="44.59343498479443" lon="10.05793459471347"><ele>881.0</ele><time>2026-05-02T15:15:39Z</time></trkpt><trkpt lat="44.59354434665068" lon="10.058130436227678"><ele>880.0</ele><time>2026-05-02T15:15:40Z</time></trkpt><trkpt lat="44.593685932666105" lon="10.058349989888235"><ele>879.0</ele><time>2026-05-02T15:15:41Z</time></trkpt><trkpt lat="44.59384345610869" lon="10.058541618287522"><ele>878.0</ele><time>2026-05-02T15:15:42Z</time></trkpt><trkpt lat="44.594018292959404" lon="10.05866593719538"><ele>878.0</ele><time>2026-05-02T15:15:43Z</time></trkpt><trkpt lat="44.59417386144644" lon="10.058816352874532"><ele>878.0</ele><time>2026-05-02T15:15:44Z</time></trkpt><trkpt lat="44.59427335103714" lon="10.059013435989927"><ele>878.0</ele><time>2026-05-02T15:15:45Z</time></trkpt><trkpt lat="44.59431664863342" lon="10.059249142119024"><ele>877.5</ele><time>2026-05-02T15:15:46Z</time></trkpt><trkpt lat="44.59437511429528" lon="10.059577824953807"><ele>877.0</ele><time>2026-05-02T15:15:47Z</time></trkpt><trkpt lat="44.59444133168319" lon="10.05995607276431"><ele>881.0</ele><time>2026-05-02T15:15:48Z</time></trkpt><trkpt lat="44.59450931046941" lon="10.060349528863176"><ele>885.0</ele><time>2026-05-02T15:15:48.999Z</time></trkpt><trkpt lat="44.594578350369616" lon="10.060715022626685"><ele>887.0</ele><time>2026-05-02T15:15:49.999Z</time></trkpt><trkpt lat="44.594661784812445" lon="10.061018889478564"><ele>889.0</ele><time>2026-05-02T15:15:50.999Z</time></trkpt><trkpt lat="44.594738394808886" lon="10.061287368739087"><ele>891.0</ele><time>2026-05-02T15:15:51.999Z</time></trkpt><trkpt lat="44.59487123943217" lon="10.061548308318315"><ele>891.0</ele><time>2026-05-02T15:15:52.999Z</time></trkpt><trkpt lat="44.595042902019095" lon="10.061847428083745"><ele>891.0</ele><time>2026-05-02T15:15:53.999Z</time></trkpt><trkpt lat="44.59523708282778" lon="10.06212304969969"><ele>894.0</ele><time>2026-05-02T15:15:54.999Z</time></trkpt><trkpt lat="44.59546144594363" lon="10.062393887048051"><ele>897.0</ele><time>2026-05-02T15:15:55.999Z</time></trkpt><trkpt lat="44.59564446798156" lon="10.062630759409007"><ele>897.0</ele><time>2026-05-02T15:15:56.999Z</time></trkpt><trkpt lat="44.595737226649746" lon="10.062878227364745"><ele>897.0</ele><time>2026-05-02T15:15:57.999Z</time></trkpt><trkpt lat="44.59578220627874" lon="10.063110852207782"><ele>897.0</ele><time>2026-05-02T15:15:58.999Z</time></trkpt><trkpt lat="44.5957803177808" lon="10.063359746873912"><ele>891.5</ele><time>2026-05-02T15:15:59.999Z</time></trkpt><trkpt lat="44.595717332565194" lon="10.063646351095572"><ele>886.0</ele><time>2026-05-02T15:16:00.999Z</time></trkpt><trkpt lat="44.595652920248305" lon="10.064071337591864"><ele>884.5</ele><time>2026-05-02T15:16:01.999Z</time></trkpt><trkpt lat="44.59564098950387" lon="10.064493510135804"><ele>883.0</ele><time>2026-05-02T15:16:02.999Z</time></trkpt><trkpt lat="44.59566116088529" lon="10.064946326102058"><ele>880.5</ele><time>2026-05-02T15:16:03.999Z</time></trkpt><trkpt lat="44.59570518931445" lon="10.065362286347051"><ele>878.0</ele><time>2026-05-02T15:16:04.999Z</time></trkpt><trkpt lat="44.59570833215189" lon="10.065711496136137"><ele>873.0</ele><time>2026-05-02T15:16:05.999Z</time></trkpt><trkpt lat="44.59568967511535" lon="10.066021060106769"><ele>868.0</ele><time>2026-05-02T15:16:06.999Z</time></trkpt><trkpt lat="44.59568737226639" lon="10.066401516004492"><ele>864.5</ele><time>2026-05-02T15:16:07.999Z</time></trkpt><trkpt lat="44.59570900796322" lon="10.066755303436963"><ele>861.0</ele><time>2026-05-02T15:16:08.999Z</time></trkpt><trkpt lat="44.59574736754423" lon="10.067060462232632"><ele>855.0</ele><time>2026-05-02T15:16:09.999Z</time></trkpt><trkpt lat="44.59580566983665" lon="10.067456483453466"><ele>849.0</ele><time>2026-05-02T15:16:10.999Z</time></trkpt><trkpt lat="44.59589272477405" lon="10.067852455060903"><ele>849.0</ele><time>2026-05-02T15:16:11.999Z</time></trkpt><trkpt lat="44.596031910404996" lon="10.068222551529333"><ele>849.0</ele><time>2026-05-02T15:16:12.999Z</time></trkpt><trkpt lat="44.59622268914076" lon="10.068558186769101"><ele>854.5</ele><time>2026-05-02T15:16:13.999Z</time></trkpt><trkpt lat="44.596306912390034" lon="10.068853810877071"><ele>860.0</ele><time>2026-05-02T15:16:14.999Z</time></trkpt><trkpt lat="44.59637063630057" lon="10.069209930944513"><ele>860.0</ele><time>2026-05-02T15:16:15.999Z</time></trkpt><trkpt lat="44.59642028629474" lon="10.06952690926702"><ele>860.0</ele><time>2026-05-02T15:16:16.999Z</time></trkpt><trkpt lat="44.596487058765334" lon="10.06974746932209"><ele>860.0</ele><time>2026-05-02T15:16:17.999Z</time></trkpt><trkpt lat="44.59659528884904" lon="10.06992279497491"><ele>851.5</ele><time>2026-05-02T15:16:18.999Z</time></trkpt><trkpt lat="44.596792593414996" lon="10.070050173499547"><ele>843.0</ele><time>2026-05-02T15:16:19.999Z</time></trkpt><trkpt lat="44.59704107604224" lon="10.070107344038778"><ele>842.0</ele><time>2026-05-02T15:16:20.999Z</time></trkpt><trkpt lat="44.59733824658467" lon="10.070073960953367"><ele>841.0</ele><time>2026-05-02T15:16:21.999Z</time></trkpt><trkpt lat="44.597661118394306" lon="10.070032257153107"><ele>834.0</ele><time>2026-05-02T15:16:22.999Z</time></trkpt><trkpt lat="44.597964809925145" lon="10.070016962526623"><ele>827.0</ele><time>2026-05-02T15:16:23.999Z</time></trkpt><trkpt lat="44.59823414613787" lon="10.070050933332157"><ele>827.0</ele><time>2026-05-02T15:16:24.999Z</time></trkpt><trkpt lat="44.59845072102433" lon="10.070138893672956"><ele>827.0</ele><time>2026-05-02T15:16:25.999Z</time></trkpt><trkpt lat="44.598662016428705" lon="10.070292953363221"><ele>822.3333333333334</ele><time>2026-05-02T15:16:26.999Z</time></trkpt><trkpt lat="44.59885429673289" lon="10.070397095046962"><ele>817.6666666666667</ele><time>2026-05-02T15:16:27.999Z</time></trkpt><trkpt lat="44.59902642597551" lon="10.07044311830977"><ele>813.0</ele><time>2026-05-02T15:16:28.999Z</time></trkpt><trkpt lat="44.599238717625056" lon="10.07035117454572"><ele>813.0</ele><time>2026-05-02T15:16:29.999Z</time></trkpt><trkpt lat="44.59944845531275" lon="10.07023045754034"><ele>813.0</ele><time>2026-05-02T15:16:30.999Z</time></trkpt><trkpt lat="44.59958980658717" lon="10.07022948218872"><ele>813.0</ele><time>2026-05-02T15:16:31.999Z</time></trkpt><trkpt lat="44.59973214774848" lon="10.070377479981081"><ele>807.0</ele><time>2026-05-02T15:16:32.999Z</time></trkpt><trkpt lat="44.59994162975931" lon="10.070544803535094"><ele>801.0</ele><time>2026-05-02T15:16:33.999Z</time></trkpt><trkpt lat="44.60016271845033" lon="10.0707140029009"><ele>798.6666666666667</ele><time>2026-05-02T15:16:34.999Z</time></trkpt><trkpt lat="44.600345839785675" lon="10.070863658839901"><ele>796.3333333333334</ele><time>2026-05-02T15:16:35.999Z</time></trkpt><trkpt lat="44.600432174486855" lon="10.071050369861107"><ele>794.0</ele><time>2026-05-02T15:16:36.999Z</time></trkpt><trkpt lat="44.60050528593877" lon="10.071301662740222"><ele>794.0</ele><time>2026-05-02T15:16:37.999Z</time></trkpt><trkpt lat="44.600565845617815" lon="10.07154539933558"><ele>794.0</ele><time>2026-05-02T15:16:38.999Z</time></trkpt><trkpt lat="44.60060016227208" lon="10.071694070957653"><ele>794.0</ele><time>2026-05-02T15:16:39.999Z</time></trkpt><trkpt lat="44.60068370737849" lon="10.071885073290623"><ele>795.0</ele><time>2026-05-02T15:16:41Z</time></trkpt><trkpt lat="44.60075961962792" lon="10.072018586600304"><ele>796.0</ele><time>2026-05-02T15:16:42Z</time></trkpt><trkpt lat="44.60082672062848" lon="10.072045259552585"><ele>797.0</ele><time>2026-05-02T15:16:43Z</time></trkpt><trkpt lat="44.60089855408654" lon="10.072067784766823"><ele>798.0</ele><time>2026-05-02T15:16:45Z</time></trkpt><trkpt lat="44.60101642900036" lon="10.071966079703161"><ele>799.0</ele><time>2026-05-02T15:17:04Z</time></trkpt><trkpt lat="44.60111216156291" lon="10.071880391980411"><ele>796.0</ele><time>2026-05-02T15:17:05Z</time></trkpt><trkpt lat="44.601259046898704" lon="10.071738359806078"><ele>793.0</ele><time>2026-05-02T15:17:06Z</time></trkpt><trkpt lat="44.60142206345867" lon="10.071601249281867"><ele>790.0</ele><time>2026-05-02T15:17:07Z</time></trkpt><trkpt lat="44.601602879422444" lon="10.07144682809278"><ele>789.0</ele><time>2026-05-02T15:17:08Z</time></trkpt><trkpt lat="44.60181847167221" lon="10.07126033702492"><ele>788.0</ele><time>2026-05-02T15:17:09Z</time></trkpt><trkpt lat="44.602019883406456" lon="10.071098196563007"><ele>787.6666666666667</ele><time>2026-05-02T15:17:10Z</time></trkpt><trkpt lat="44.60219875094974" lon="10.070943022801957"><ele>787.3333333333333</ele><time>2026-05-02T15:17:11Z</time></trkpt><trkpt lat="44.60235158275914" lon="10.07079738337148"><ele>787.0</ele><time>2026-05-02T15:17:12Z</time></trkpt><trkpt lat="44.60248306814254" lon="10.070720055770181"><ele>787.0</ele><time>2026-05-02T15:17:13Z</time></trkpt><trkpt lat="44.60261417548768" lon="10.070759723785963"><ele>787.0</ele><time>2026-05-02T15:17:14Z</time></trkpt><trkpt lat="44.602693429577336" lon="10.070895269454917"><ele>787.0</ele><time>2026-05-02T15:17:15Z</time></trkpt><trkpt lat="44.602741629153805" lon="10.071090864271907"><ele>787.0</ele><time>2026-05-02T15:17:16Z</time></trkpt><trkpt lat="44.60284075488905" lon="10.071365080834909"><ele>781.0</ele><time>2026-05-02T15:17:17Z</time></trkpt><trkpt lat="44.60294486868894" lon="10.071670642611938"><ele>775.0</ele><time>2026-05-02T15:17:18Z</time></trkpt><trkpt lat="44.603037707483274" lon="10.071944174509573"><ele>775.0</ele><time>2026-05-02T15:17:19Z</time></trkpt><trkpt lat="44.603142352443456" lon="10.072134720901369"><ele>775.0</ele><time>2026-05-02T15:17:20Z</time></trkpt><trkpt lat="44.60323711761414" lon="10.072296127323472"><ele>775.0</ele><time>2026-05-02T15:17:21Z</time></trkpt><trkpt lat="44.60339229339965" lon="10.072355579053532"><ele>775.0</ele><time>2026-05-02T15:17:22Z</time></trkpt><trkpt lat="44.603585075881945" lon="10.072325696740712"><ele>775.0</ele><time>2026-05-02T15:17:23Z</time></trkpt><trkpt lat="44.60382018914728" lon="10.07226028464454"><ele>775.0</ele><time>2026-05-02T15:17:24Z</time></trkpt><trkpt lat="44.60406136780153" lon="10.072295051507627"><ele>775.3333333333333</ele><time>2026-05-02T15:17:25Z</time></trkpt><trkpt lat="44.604276199562875" lon="10.072398983647101"><ele>775.6666666666667</ele><time>2026-05-02T15:17:26Z</time></trkpt><trkpt lat="44.6044790967406" lon="10.072470405690108"><ele>776.0</ele><time>2026-05-02T15:17:27Z</time></trkpt><trkpt lat="44.604661632526735" lon="10.072481234052137"><ele>772.6666666666667</ele><time>2026-05-02T15:17:28Z</time></trkpt><trkpt lat="44.60486652371439" lon="10.07239601003374"><ele>769.3333333333334</ele><time>2026-05-02T15:17:29Z</time></trkpt><trkpt lat="44.60507878448495" lon="10.072279341834978"><ele>766.0</ele><time>2026-05-02T15:17:30Z</time></trkpt><trkpt lat="44.605323947979514" lon="10.072172620787724"><ele>767.5</ele><time>2026-05-02T15:17:31Z</time></trkpt><trkpt lat="44.60558274488939" lon="10.072080641815308"><ele>769.0</ele><time>2026-05-02T15:17:32Z</time></trkpt><trkpt lat="44.6058348561707" lon="10.071988059673663"><ele>769.0</ele><time>2026-05-02T15:17:33Z</time></trkpt><trkpt lat="44.60605699283564" lon="10.071880053316443"><ele>769.0</ele><time>2026-05-02T15:17:34Z</time></trkpt><trkpt lat="44.60621917390706" lon="10.071792154876272"><ele>769.0</ele><time>2026-05-02T15:17:35Z</time></trkpt><trkpt lat="44.60635088837401" lon="10.071871290765095"><ele>768.6666666666666</ele><time>2026-05-02T15:17:36Z</time></trkpt><trkpt lat="44.60655007646436" lon="10.07194771078642"><ele>768.3333333333333</ele><time>2026-05-02T15:17:37Z</time></trkpt><trkpt lat="44.60675489050442" lon="10.071995377781423"><ele>768.0</ele><time>2026-05-02T15:17:38Z</time></trkpt><trkpt lat="44.60698618070971" lon="10.071986429473531"><ele>773.5</ele><time>2026-05-02T15:17:39Z</time></trkpt><trkpt lat="44.6072321021699" lon="10.071967658376767"><ele>779.0</ele><time>2026-05-02T15:17:40Z</time></trkpt><trkpt lat="44.60744932537654" lon="10.071970456186746"><ele>779.0</ele><time>2026-05-02T15:17:41Z</time></trkpt><trkpt lat="44.60764144181686" lon="10.071954975626962"><ele>779.0</ele><time>2026-05-02T15:17:42Z</time></trkpt><trkpt lat="44.60777608114252" lon="10.071827646712194"><ele>779.0</ele><time>2026-05-02T15:17:43Z</time></trkpt><trkpt lat="44.607918907506146" lon="10.071626456871465"><ele>777.0</ele><time>2026-05-02T15:17:44Z</time></trkpt><trkpt lat="44.60806380957908" lon="10.071403966479076"><ele>775.0</ele><time>2026-05-02T15:17:45Z</time></trkpt><trkpt lat="44.608218501730526" lon="10.071253124710234"><ele>773.0</ele><time>2026-05-02T15:17:46Z</time></trkpt><trkpt lat="44.60843074762092" lon="10.071272082302617"><ele>773.0</ele><time>2026-05-02T15:17:47Z</time></trkpt><trkpt lat="44.60865109267906" lon="10.071343143200371"><ele>773.0</ele><time>2026-05-02T15:17:48Z</time></trkpt><trkpt lat="44.60890641029752" lon="10.071421349196179"><ele>773.0</ele><time>2026-05-02T15:17:49Z</time></trkpt><trkpt lat="44.60916340633109" lon="10.071502495393498"><ele>773.0</ele><time>2026-05-02T15:17:50Z</time></trkpt><trkpt lat="44.60942872835874" lon="10.071585341562667"><ele>780.0</ele><time>2026-05-02T15:17:51Z</time></trkpt><trkpt lat="44.60970528675763" lon="10.071649787208596"><ele>787.0</ele><time>2026-05-02T15:17:52Z</time></trkpt><trkpt lat="44.60997101722579" lon="10.07174601016457"><ele>787.0</ele><time>2026-05-02T15:17:53Z</time></trkpt><trkpt lat="44.61020225209591" lon="10.071824539791812"><ele>787.0</ele><time>2026-05-02T15:17:54Z</time></trkpt><trkpt lat="44.61038181297202" lon="10.07186860565833"><ele>787.0</ele><time>2026-05-02T15:17:55Z</time></trkpt><trkpt lat="44.61055705242025" lon="10.071857660353153"><ele>786.6666666666666</ele><time>2026-05-02T15:17:55.999Z</time></trkpt><trkpt lat="44.610742142309945" lon="10.071776184147561"><ele>786.3333333333333</ele><time>2026-05-02T15:17:56.999Z</time></trkpt><trkpt lat="44.61091151092151" lon="10.071624133693604"><ele>786.0</ele><time>2026-05-02T15:17:57.999Z</time></trkpt><trkpt lat="44.61097988987302" lon="10.07139041865051"><ele>786.0</ele><time>2026-05-02T15:17:58.999Z</time></trkpt><trkpt lat="44.61105474827192" lon="10.071107585786141"><ele>786.0</ele><time>2026-05-02T15:17:59.999Z</time></trkpt><trkpt lat="44.61111943017797" lon="10.07077421334304"><ele>787.0</ele><time>2026-05-02T15:18:00.999Z</time></trkpt><trkpt lat="44.61114335209657" lon="10.07049182674876"><ele>788.0</ele><time>2026-05-02T15:18:01.999Z</time></trkpt><trkpt lat="44.61117080886313" lon="10.070242096278966"><ele>789.0</ele><time>2026-05-02T15:18:02.999Z</time></trkpt><trkpt lat="44.611234238965984" lon="10.070006578153755"><ele>789.0</ele><time>2026-05-02T15:18:03.999Z</time></trkpt><trkpt lat="44.61135075061751" lon="10.069930266721828"><ele>789.0</ele><time>2026-05-02T15:18:04.999Z</time></trkpt><trkpt lat="44.611487839148154" lon="10.069930370912902"><ele>789.0</ele><time>2026-05-02T15:18:05.999Z</time></trkpt><trkpt lat="44.611659258033505" lon="10.069998925321189"><ele>789.0</ele><time>2026-05-02T15:18:06.999Z</time></trkpt><trkpt lat="44.61190044379142" lon="10.07006205147143"><ele>786.0</ele><time>2026-05-02T15:18:07.999Z</time></trkpt><trkpt lat="44.61215282067166" lon="10.070115624483511"><ele>783.0</ele><time>2026-05-02T15:18:08.999Z</time></trkpt><trkpt lat="44.61238428080263" lon="10.070187111188057"><ele>783.0</ele><time>2026-05-02T15:18:09.999Z</time></trkpt><trkpt lat="44.61261115419008" lon="10.070226548184907"><ele>783.0</ele><time>2026-05-02T15:18:10.999Z</time></trkpt><trkpt lat="44.61281900320309" lon="10.07019807979721"><ele>783.0</ele><time>2026-05-02T15:18:11.999Z</time></trkpt><trkpt lat="44.61301118118088" lon="10.070097788110614"><ele>782.6666666666667</ele><time>2026-05-02T15:18:12.999Z</time></trkpt><trkpt lat="44.613177652185556" lon="10.069956939468307"><ele>782.3333333333334</ele><time>2026-05-02T15:18:13.999Z</time></trkpt><trkpt lat="44.613347584204035" lon="10.069769788439265"><ele>782.0</ele><time>2026-05-02T15:18:14.999Z</time></trkpt><trkpt lat="44.61353199036208" lon="10.069516616238802"><ele>777.0</ele><time>2026-05-02T15:18:15.999Z</time></trkpt><trkpt lat="44.61375021781228" lon="10.069274084941531"><ele>772.0</ele><time>2026-05-02T15:18:16.999Z</time></trkpt><trkpt lat="44.61396700933655" lon="10.069040924687256"><ele>765.5</ele><time>2026-05-02T15:18:17.999Z</time></trkpt><trkpt lat="44.61416101980651" lon="10.068812820119371"><ele>759.0</ele><time>2026-05-02T15:18:18.999Z</time></trkpt><trkpt lat="44.61434153735453" lon="10.068588283755394"><ele>759.0</ele><time>2026-05-02T15:18:19.999Z</time></trkpt><trkpt lat="44.61451096869062" lon="10.068371418870843"><ele>759.0</ele><time>2026-05-02T15:18:20.999Z</time></trkpt><trkpt lat="44.61464345039117" lon="10.06818009608738"><ele>759.0</ele><time>2026-05-02T15:18:21.999Z</time></trkpt><trkpt lat="44.614688358495364" lon="10.06796366184846"><ele>759.0</ele><time>2026-05-02T15:18:22.999Z</time></trkpt><trkpt lat="44.614673047095195" lon="10.06771900544361"><ele>759.0</ele><time>2026-05-02T15:18:23.999Z</time></trkpt><trkpt lat="44.61462584926881" lon="10.0674520202652"><ele>759.0</ele><time>2026-05-02T15:18:24.999Z</time></trkpt><trkpt lat="44.61458967236645" lon="10.067234918369243"><ele>755.6666666666666</ele><time>2026-05-02T15:18:25.999Z</time></trkpt><trkpt lat="44.61464301044876" lon="10.067042343634606"><ele>752.3333333333333</ele><time>2026-05-02T15:18:26.999Z</time></trkpt><trkpt lat="44.614811075275426" lon="10.066851880372003"><ele>749.0</ele><time>2026-05-02T15:18:27.999Z</time></trkpt><trkpt lat="44.61502122188602" lon="10.066590416233527"><ele>746.0</ele><time>2026-05-02T15:18:28.999Z</time></trkpt><trkpt lat="44.61518314065463" lon="10.066361176604822"><ele>743.0</ele><time>2026-05-02T15:18:29.999Z</time></trkpt><trkpt lat="44.615310185897236" lon="10.066170355792893"><ele>740.0</ele><time>2026-05-02T15:18:30.999Z</time></trkpt><trkpt lat="44.615426373798314" lon="10.06602993614349"><ele>740.0</ele><time>2026-05-02T15:18:31.999Z</time></trkpt><trkpt lat="44.61557997359388" lon="10.06597277231194"><ele>740.0</ele><time>2026-05-02T15:18:32.999Z</time></trkpt><trkpt lat="44.615780183482805" lon="10.066073432560898"><ele>740.0</ele><time>2026-05-02T15:18:33.999Z</time></trkpt><trkpt lat="44.61603104789807" lon="10.066146304223398"><ele>734.0</ele><time>2026-05-02T15:18:34.999Z</time></trkpt><trkpt lat="44.616261131874325" lon="10.066235655390582"><ele>728.0</ele><time>2026-05-02T15:18:35.999Z</time></trkpt><trkpt lat="44.61647174830852" lon="10.066293623550845"><ele>728.0</ele><time>2026-05-02T15:18:36.999Z</time></trkpt><trkpt lat="44.616657121607574" lon="10.066347987568031"><ele>728.0</ele><time>2026-05-02T15:18:37.999Z</time></trkpt><trkpt lat="44.61681384846104" lon="10.06641417546799"><ele>728.0</ele><time>2026-05-02T15:18:38.999Z</time></trkpt><trkpt lat="44.61692008616209" lon="10.066587161806059"><ele>726.0</ele><time>2026-05-02T15:18:39.999Z</time></trkpt><trkpt lat="44.61705403223959" lon="10.066820539526567"><ele>724.0</ele><time>2026-05-02T15:18:40.999Z</time></trkpt><trkpt lat="44.61722867155694" lon="10.067040626488538"><ele>722.0</ele><time>2026-05-02T15:18:41.999Z</time></trkpt><trkpt lat="44.61740845969762" lon="10.067204434141923"><ele>722.0</ele><time>2026-05-02T15:18:42.999Z</time></trkpt><trkpt lat="44.61755721876797" lon="10.067336605145064"><ele>722.0</ele><time>2026-05-02T15:18:43.999Z</time></trkpt><trkpt lat="44.61762281983105" lon="10.067519221816328"><ele>722.0</ele><time>2026-05-02T15:18:44.999Z</time></trkpt><trkpt lat="44.617663279180704" lon="10.067834551330215"><ele>724.0</ele><time>2026-05-02T15:18:45.999Z</time></trkpt><trkpt lat="44.61770861222391" lon="10.06800563685697"><ele>726.0</ele><time>2026-05-02T15:18:47Z</time></trkpt><trkpt lat="44.61782480864332" lon="10.068277215937083"><ele>728.0</ele><time>2026-05-02T15:18:48Z</time></trkpt><trkpt lat="44.617992565202826" lon="10.068565406236976"><ele>723.0</ele><time>2026-05-02T15:18:49Z</time></trkpt><trkpt lat="44.61816228570604" lon="10.068833165360351"><ele>718.0</ele><time>2026-05-02T15:18:50Z</time></trkpt><trkpt lat="44.61826862144835" lon="10.069048106620041"><ele>713.0</ele><time>2026-05-02T15:18:51Z</time></trkpt><trkpt lat="44.618329876014016" lon="10.069229648901036"><ele>713.0</ele><time>2026-05-02T15:18:52Z</time></trkpt><trkpt lat="44.61831678250952" lon="10.069412580120874"><ele>713.0</ele><time>2026-05-02T15:18:53Z</time></trkpt><trkpt lat="44.61826664201234" lon="10.069663146598574"><ele>713.0</ele><time>2026-05-02T15:18:54Z</time></trkpt><trkpt lat="44.61820794286127" lon="10.069993837023377"><ele>711.3333333333333</ele><time>2026-05-02T15:18:55Z</time></trkpt><trkpt lat="44.618166567210864" lon="10.070286211565453"><ele>709.6666666666666</ele><time>2026-05-02T15:18:56Z</time></trkpt><trkpt lat="44.61816180228279" lon="10.070558068213854"><ele>708.0</ele><time>2026-05-02T15:18:57Z</time></trkpt><trkpt lat="44.61818683559294" lon="10.07083967218133"><ele>706.6666666666666</ele><time>2026-05-02T15:18:58Z</time></trkpt><trkpt lat="44.61820675062409" lon="10.071104896063856"><ele>705.3333333333333</ele><time>2026-05-02T15:18:59Z</time></trkpt><trkpt lat="44.61815841647068" lon="10.071345020031476"><ele>704.0</ele><time>2026-05-02T15:19:00Z</time></trkpt><trkpt lat="44.618099574660036" lon="10.071612877899064"><ele>703.0</ele><time>2026-05-02T15:19:01Z</time></trkpt><trkpt lat="44.61808050622521" lon="10.0718099001271"><ele>702.0</ele><time>2026-05-02T15:19:02Z</time></trkpt><trkpt lat="44.61807370689887" lon="10.071988513616287"><ele>701.0</ele><time>2026-05-02T15:19:03Z</time></trkpt><trkpt lat="44.618141388639344" lon="10.072154561983018"><ele>700.0</ele><time>2026-05-02T15:19:04Z</time></trkpt><trkpt lat="44.61828866090688" lon="10.072273817120692"><ele>700.0</ele><time>2026-05-02T15:19:05Z</time></trkpt><trkpt lat="44.61849985650413" lon="10.07234899297383"><ele>700.0</ele><time>2026-05-02T15:19:06Z</time></trkpt><trkpt lat="44.61874003676106" lon="10.072348073209923"><ele>694.3333333333334</ele><time>2026-05-02T15:19:07Z</time></trkpt><trkpt lat="44.618957840948255" lon="10.072343709736499"><ele>688.6666666666666</ele><time>2026-05-02T15:19:08Z</time></trkpt><trkpt lat="44.61915047689642" lon="10.072349299821541"><ele>683.0</ele><time>2026-05-02T15:19:09Z</time></trkpt><trkpt lat="44.61930712247998" lon="10.072359288263605"><ele>683.0</ele><time>2026-05-02T15:19:10Z</time></trkpt><trkpt lat="44.61944687488427" lon="10.072357703789363"><ele>683.0</ele><time>2026-05-02T15:19:11Z</time></trkpt><trkpt lat="44.61957187891502" lon="10.072368025906746"><ele>683.0</ele><time>2026-05-02T15:19:12Z</time></trkpt><trkpt lat="44.61968596839914" lon="10.072384109940566"><ele>683.0</ele><time>2026-05-02T15:19:13Z</time></trkpt><trkpt lat="44.619777521730285" lon="10.072401260065943"><ele>681.5999999999999</ele><time>2026-05-02T15:19:14Z</time></trkpt><trkpt lat="44.619845232212846" lon="10.072425244187885"><ele>680.1999999999999</ele><time>2026-05-02T15:19:15Z</time></trkpt><trkpt lat="44.619859834026094" lon="10.07255537977186"><ele>678.8</ele><time>2026-05-02T15:19:16Z</time></trkpt><trkpt lat="44.61985073964361" lon="10.072688807517562"><ele>677.4</ele><time>2026-05-02T15:19:17Z</time></trkpt><trkpt lat="44.61981060327422" lon="10.07286762789969"><ele>676.0</ele><time>2026-05-02T15:19:18Z</time></trkpt><trkpt lat="44.61978610288907" lon="10.073162424907524"><ele>676.3333333333334</ele><time>2026-05-02T15:19:19Z</time></trkpt><trkpt lat="44.6197778774465" lon="10.073406309193336"><ele>676.6666666666666</ele><time>2026-05-02T15:19:20Z</time></trkpt><trkpt lat="44.61980536910427" lon="10.073650023891108"><ele>677.0</ele><time>2026-05-02T15:19:21Z</time></trkpt><trkpt lat="44.61988387196315" lon="10.073896747248531"><ele>678.3333333333333</ele><time>2026-05-02T15:19:22Z</time></trkpt><trkpt lat="44.62003234372439" lon="10.074108578420944"><ele>679.6666666666666</ele><time>2026-05-02T15:19:23Z</time></trkpt><trkpt lat="44.62024880511801" lon="10.07424146927783"><ele>681.0</ele><time>2026-05-02T15:19:24Z</time></trkpt><trkpt lat="44.620490841086145" lon="10.074308269360788"><ele>675.0</ele><time>2026-05-02T15:19:25Z</time></trkpt><trkpt lat="44.620682183204885" lon="10.074394566740294"><ele>669.0</ele><time>2026-05-02T15:19:26Z</time></trkpt><trkpt lat="44.62079109362265" lon="10.074572763804904"><ele>663.0</ele><time>2026-05-02T15:19:27Z</time></trkpt><trkpt lat="44.6208816850534" lon="10.07480348291306"><ele>664.6666666666666</ele><time>2026-05-02T15:19:28Z</time></trkpt><trkpt lat="44.62099662151001" lon="10.075068288325722"><ele>666.3333333333333</ele><time>2026-05-02T15:19:29Z</time></trkpt><trkpt lat="44.621129603926114" lon="10.075286486608055"><ele>668.0</ele><time>2026-05-02T15:19:30Z</time></trkpt><trkpt lat="44.62127094093629" lon="10.075482221964691"><ele>665.0</ele><time>2026-05-02T15:19:31Z</time></trkpt><trkpt lat="44.62141311220083" lon="10.075664511527574"><ele>662.0</ele><time>2026-05-02T15:19:32Z</time></trkpt><trkpt lat="44.62154982228591" lon="10.07584517361927"><ele>659.0</ele><time>2026-05-02T15:19:33Z</time></trkpt><trkpt lat="44.621681968619576" lon="10.076009561292231"><ele>659.0</ele><time>2026-05-02T15:19:34Z</time></trkpt><trkpt lat="44.621803453995376" lon="10.076177144657716"><ele>659.0</ele><time>2026-05-02T15:19:35Z</time></trkpt><trkpt lat="44.6219199926108" lon="10.076351350419475"><ele>659.0</ele><time>2026-05-02T15:19:36Z</time></trkpt><trkpt lat="44.62203433949128" lon="10.076509550543816"><ele>658.5</ele><time>2026-05-02T15:19:37Z</time></trkpt><trkpt lat="44.622130844429385" lon="10.076609208587081"><ele>658.0</ele><time>2026-05-02T15:19:38Z</time></trkpt><trkpt lat="44.62223598738611" lon="10.07663497980706"><ele>657.5</ele><time>2026-05-02T15:19:39Z</time></trkpt><trkpt lat="44.62235636364761" lon="10.076549181168154"><ele>657.0</ele><time>2026-05-02T15:19:40Z</time></trkpt><trkpt lat="44.62244202347267" lon="10.076365883276617"><ele>657.0</ele><time>2026-05-02T15:19:41Z</time></trkpt><trkpt lat="44.62253183620261" lon="10.076158736554449"><ele>657.0</ele><time>2026-05-02T15:19:42Z</time></trkpt><trkpt lat="44.62267907102743" lon="10.076048215942995"><ele>657.0</ele><time>2026-05-02T15:19:43Z</time></trkpt><trkpt lat="44.62285812886988" lon="10.076042602108346"><ele>655.6666666666666</ele><time>2026-05-02T15:19:44Z</time></trkpt><trkpt lat="44.62305580654568" lon="10.076100570773221"><ele>654.3333333333333</ele><time>2026-05-02T15:19:45Z</time></trkpt><trkpt lat="44.62325342009275" lon="10.076204842641147"><ele>653.0</ele><time>2026-05-02T15:19:46Z</time></trkpt><trkpt lat="44.62343370578436" lon="10.076369191116482"><ele>653.0</ele><time>2026-05-02T15:19:47Z</time></trkpt><trkpt lat="44.62356950578891" lon="10.076545923876983"><ele>653.0</ele><time>2026-05-02T15:19:48Z</time></trkpt><trkpt lat="44.62363018031383" lon="10.076719341243614"><ele>653.0</ele><time>2026-05-02T15:19:49Z</time></trkpt><trkpt lat="44.62362309477438" lon="10.076910136791746"><ele>652.0</ele><time>2026-05-02T15:19:50Z</time></trkpt><trkpt lat="44.6236085408332" lon="10.077165705158633"><ele>651.0</ele><time>2026-05-02T15:19:51Z</time></trkpt><trkpt lat="44.623617056690776" lon="10.077427384051193"><ele>650.0</ele><time>2026-05-02T15:19:52Z</time></trkpt><trkpt lat="44.62366811161359" lon="10.077624356725693"><ele>650.0</ele><time>2026-05-02T15:19:53Z</time></trkpt><trkpt lat="44.62377342000865" lon="10.077783858809317"><ele>650.0</ele><time>2026-05-02T15:19:54Z</time></trkpt><trkpt lat="44.62394274173443" lon="10.077920957241572"><ele>650.0</ele><time>2026-05-02T15:19:55Z</time></trkpt><trkpt lat="44.62404398644466" lon="10.078112961809607"><ele>649.3333333333333</ele><time>2026-05-02T15:19:56Z</time></trkpt><trkpt lat="44.6240456490499" lon="10.078357509265055"><ele>648.6666666666666</ele><time>2026-05-02T15:19:57Z</time></trkpt><trkpt lat="44.6240709247743" lon="10.078626832017754"><ele>648.0</ele><time>2026-05-02T15:19:58Z</time></trkpt><trkpt lat="44.624123915553305" lon="10.07883349219731"><ele>648.0</ele><time>2026-05-02T15:19:59Z</time></trkpt><trkpt lat="44.62422409658254" lon="10.078979243314558"><ele>648.0</ele><time>2026-05-02T15:20:00Z</time></trkpt><trkpt lat="44.62441038457549" lon="10.079106990678055"><ele>648.0</ele><time>2026-05-02T15:20:00.999Z</time></trkpt><trkpt lat="44.62457932820525" lon="10.079208573807646"><ele>646.3333333333334</ele><time>2026-05-02T15:20:01.999Z</time></trkpt><trkpt lat="44.62472629710313" lon="10.079213364761218"><ele>644.6666666666667</ele><time>2026-05-02T15:20:02.999Z</time></trkpt><trkpt lat="44.62488309439146" lon="10.079098100415774"><ele>643.0</ele><time>2026-05-02T15:20:03.999Z</time></trkpt><trkpt lat="44.62508295547031" lon="10.078914182959538"><ele>643.0</ele><time>2026-05-02T15:20:04.999Z</time></trkpt><trkpt lat="44.62530910682477" lon="10.078740022260902"><ele>643.0</ele><time>2026-05-02T15:20:05.999Z</time></trkpt><trkpt lat="44.62552714439766" lon="10.078582890682275"><ele>639.6666666666667</ele><time>2026-05-02T15:20:06.999Z</time></trkpt><trkpt lat="44.625720842918916" lon="10.078442750855517"><ele>636.3333333333334</ele><time>2026-05-02T15:20:07.999Z</time></trkpt><trkpt lat="44.62592229386168" lon="10.078396114772987"><ele>633.0</ele><time>2026-05-02T15:20:08.999Z</time></trkpt><trkpt lat="44.626130564204296" lon="10.07825148767612"><ele>634.5</ele><time>2026-05-02T15:20:09.999Z</time></trkpt><trkpt lat="44.626367494211785" lon="10.07850641465793"><ele>636.0</ele><time>2026-05-02T15:20:10.999Z</time></trkpt><trkpt lat="44.62657218680837" lon="10.078714509119209"><ele>636.0</ele><time>2026-05-02T15:20:11.999Z</time></trkpt><trkpt lat="44.626761332640335" lon="10.078969825889827"><ele>636.0</ele><time>2026-05-02T15:20:12.999Z</time></trkpt><trkpt lat="44.626941128758396" lon="10.079182446324117"><ele>635.0</ele><time>2026-05-02T15:20:13.999Z</time></trkpt><trkpt lat="44.62711444818551" lon="10.079366627111646"><ele>634.0</ele><time>2026-05-02T15:20:14.999Z</time></trkpt><trkpt lat="44.62727437652266" lon="10.07952960767604"><ele>633.0</ele><time>2026-05-02T15:20:15.999Z</time></trkpt><trkpt lat="44.62742540888327" lon="10.079641874690703"><ele>633.0</ele><time>2026-05-02T15:20:16.999Z</time></trkpt><trkpt lat="44.62761535023082" lon="10.07966895936232"><ele>633.0</ele><time>2026-05-02T15:20:17.999Z</time></trkpt><trkpt lat="44.62784060069814" lon="10.079651040641194"><ele>633.0</ele><time>2026-05-02T15:20:18.999Z</time></trkpt><trkpt lat="44.62804150639351" lon="10.079672349408911"><ele>631.3333333333334</ele><time>2026-05-02T15:20:19.999Z</time></trkpt><trkpt lat="44.62819390515425" lon="10.07975918727031"><ele>629.6666666666667</ele><time>2026-05-02T15:20:20.999Z</time></trkpt><trkpt lat="44.62830769047878" lon="10.079933466907864"><ele>628.0</ele><time>2026-05-02T15:20:21.999Z</time></trkpt><trkpt lat="44.62838735275585" lon="10.080114477067978"><ele>625.75</ele><time>2026-05-02T15:20:22.999Z</time></trkpt><trkpt lat="44.62848130380243" lon="10.080204053527178"><ele>623.5</ele><time>2026-05-02T15:20:23.999Z</time></trkpt><trkpt lat="44.62861206375989" lon="10.08018380410097"><ele>621.25</ele><time>2026-05-02T15:20:24.999Z</time></trkpt><trkpt lat="44.62874463345298" lon="10.080049070124248"><ele>619.0</ele><time>2026-05-02T15:20:25.999Z</time></trkpt><trkpt lat="44.62881615314072" lon="10.079833593815376"><ele>617.0</ele><time>2026-05-02T15:20:26.999Z</time></trkpt><trkpt lat="44.62881523008765" lon="10.079562950461348"><ele>615.0</ele><time>2026-05-02T15:20:27.999Z</time></trkpt><trkpt lat="44.62879990737935" lon="10.07931891388359"><ele>613.0</ele><time>2026-05-02T15:20:28.999Z</time></trkpt><trkpt lat="44.62888485440779" lon="10.079167261455096"><ele>613.0</ele><time>2026-05-02T15:20:29.999Z</time></trkpt><trkpt lat="44.629031467392025" lon="10.079123436339705"><ele>613.0</ele><time>2026-05-02T15:20:30.999Z</time></trkpt><trkpt lat="44.629204809160726" lon="10.079122496090669"><ele>613.0</ele><time>2026-05-02T15:20:31.999Z</time></trkpt><trkpt lat="44.629420309900006" lon="10.079140964160285"><ele>614.3333333333334</ele><time>2026-05-02T15:20:32.999Z</time></trkpt><trkpt lat="44.629648704181214" lon="10.079142779607393"><ele>615.6666666666666</ele><time>2026-05-02T15:20:33.999Z</time></trkpt><trkpt lat="44.629845457172586" lon="10.079139206360518"><ele>617.0</ele><time>2026-05-02T15:20:34.999Z</time></trkpt><trkpt lat="44.630025060387" lon="10.079083313101837"><ele>617.0</ele><time>2026-05-02T15:20:35.999Z</time></trkpt><trkpt lat="44.63016476716616" lon="10.07890795252566"><ele>617.0</ele><time>2026-05-02T15:20:36.999Z</time></trkpt><trkpt lat="44.63028873939471" lon="10.078658163182029"><ele>617.0</ele><time>2026-05-02T15:20:37.999Z</time></trkpt><trkpt lat="44.63040260093534" lon="10.078408368885652"><ele>615.6666666666666</ele><time>2026-05-02T15:20:38.999Z</time></trkpt><trkpt lat="44.63056716031983" lon="10.078292421268017"><ele>614.3333333333334</ele><time>2026-05-02T15:20:39.999Z</time></trkpt><trkpt lat="44.63072649985083" lon="10.078229255245253"><ele>613.0</ele><time>2026-05-02T15:20:40.999Z</time></trkpt><trkpt lat="44.63085563624675" lon="10.078250594083926"><ele>611.0</ele><time>2026-05-02T15:20:41.999Z</time></trkpt><trkpt lat="44.63096702966533" lon="10.078313985120042"><ele>609.0</ele><time>2026-05-02T15:20:42.999Z</time></trkpt><trkpt lat="44.631068876818986" lon="10.07843800688902"><ele>607.0</ele><time>2026-05-02T15:20:43.999Z</time></trkpt><trkpt lat="44.631175668195716" lon="10.078591952587077"><ele>605.0</ele><time>2026-05-02T15:20:44.999Z</time></trkpt><trkpt lat="44.63126861716974" lon="10.078720689532142"><ele>604.0</ele><time>2026-05-02T15:20:45.999Z</time></trkpt><trkpt lat="44.631351494999414" lon="10.078832566567359"><ele>603.0</ele><time>2026-05-02T15:20:46.999Z</time></trkpt><trkpt lat="44.63143312058562" lon="10.078936569883023"><ele>602.0</ele><time>2026-05-02T15:20:47.999Z</time></trkpt><trkpt lat="44.631529928141745" lon="10.079022171243475"><ele>601.0</ele><time>2026-05-02T15:20:48.999Z</time></trkpt><trkpt lat="44.63163869617413" lon="10.079125271967415"><ele>599.5</ele><time>2026-05-02T15:20:49.999Z</time></trkpt><trkpt lat="44.63176201753254" lon="10.079191811055894"><ele>598.0</ele><time>2026-05-02T15:20:50.999Z</time></trkpt><trkpt lat="44.631903602083405" lon="10.079198107221014"><ele>596.5</ele><time>2026-05-02T15:20:51.999Z</time></trkpt><trkpt lat="44.63205499101967" lon="10.07914900550673"><ele>595.0</ele><time>2026-05-02T15:20:53Z</time></trkpt><trkpt lat="44.63221293492428" lon="10.079095037655636"><ele>594.6666666666667</ele><time>2026-05-02T15:20:54Z</time></trkpt><trkpt lat="44.632391891578365" lon="10.079058161719772"><ele>594.3333333333334</ele><time>2026-05-02T15:20:55Z</time></trkpt><trkpt lat="44.632579039261316" lon="10.079039866244926"><ele>594.0</ele><time>2026-05-02T15:20:56Z</time></trkpt><trkpt lat="44.63277472661584" lon="10.079018227760136"><ele>592.0</ele><time>2026-05-02T15:20:57Z</time></trkpt><trkpt lat="44.63297327616734" lon="10.078989593596832"><ele>590.0</ele><time>2026-05-02T15:20:58Z</time></trkpt><trkpt lat="44.63317465933471" lon="10.078959057049323"><ele>588.0</ele><time>2026-05-02T15:20:59Z</time></trkpt><trkpt lat="44.63338069811307" lon="10.078930178780455"><ele>588.0</ele><time>2026-05-02T15:21:00Z</time></trkpt><trkpt lat="44.63359162076717" lon="10.078899991728793"><ele>588.0</ele><time>2026-05-02T15:21:01Z</time></trkpt><trkpt lat="44.633803409294195" lon="10.078865766604947"><ele>588.0</ele><time>2026-05-02T15:21:02Z</time></trkpt><trkpt lat="44.63403156491868" lon="10.078835621404105"><ele>587.0</ele><time>2026-05-02T15:21:03Z</time></trkpt><trkpt lat="44.63427404076431" lon="10.078812870287964"><ele>586.0</ele><time>2026-05-02T15:21:04Z</time></trkpt><trkpt lat="44.634514631895556" lon="10.078781936456389"><ele>585.0</ele><time>2026-05-02T15:21:05Z</time></trkpt><trkpt lat="44.634733706573584" lon="10.07874051817704"><ele>584.0</ele><time>2026-05-02T15:21:06Z</time></trkpt><trkpt lat="44.63494309408629" lon="10.078747731953696"><ele>583.0</ele><time>2026-05-02T15:21:07Z</time></trkpt><trkpt lat="44.6351491274611" lon="10.078820921295453"><ele>584.5</ele><time>2026-05-02T15:21:08Z</time></trkpt><trkpt lat="44.6353410132379" lon="10.078966486626111"><ele>586.0</ele><time>2026-05-02T15:21:09Z</time></trkpt><trkpt lat="44.635558465944555" lon="10.079147926619946"><ele>586.0</ele><time>2026-05-02T15:21:10Z</time></trkpt><trkpt lat="44.63576970023027" lon="10.079290662249875"><ele>586.0</ele><time>2026-05-02T15:21:11Z</time></trkpt><trkpt lat="44.63598740362304" lon="10.079409244810646"><ele>583.0</ele><time>2026-05-02T15:21:12Z</time></trkpt><trkpt lat="44.636217530044725" lon="10.079488940838022"><ele>580.0</ele><time>2026-05-02T15:21:13Z</time></trkpt><trkpt lat="44.63645129308426" lon="10.079538772113542"><ele>580.0</ele><time>2026-05-02T15:21:14Z</time></trkpt><trkpt lat="44.63667961482776" lon="10.079580221069234"><ele>580.0</ele><time>2026-05-02T15:21:15Z</time></trkpt><trkpt lat="44.63689094254904" lon="10.079619527133053"><ele>580.0</ele><time>2026-05-02T15:21:16Z</time></trkpt><trkpt lat="44.63709402778575" lon="10.079647233796969"><ele>581.0</ele><time>2026-05-02T15:21:17Z</time></trkpt><trkpt lat="44.63730925475707" lon="10.07963174618679"><ele>582.0</ele><time>2026-05-02T15:21:18Z</time></trkpt><trkpt lat="44.63753842417776" lon="10.0795602278855"><ele>582.0</ele><time>2026-05-02T15:21:19Z</time></trkpt><trkpt lat="44.63777218297999" lon="10.079492628020084"><ele>582.0</ele><time>2026-05-02T15:21:20Z</time></trkpt><trkpt lat="44.63800174971978" lon="10.079428991194144"><ele>581.6666666666666</ele><time>2026-05-02T15:21:21Z</time></trkpt><trkpt lat="44.638219952009095" lon="10.079365892378007"><ele>581.3333333333333</ele><time>2026-05-02T15:21:22Z</time></trkpt><trkpt lat="44.63843610887862" lon="10.079309508739081"><ele>581.0</ele><time>2026-05-02T15:21:23Z</time></trkpt><trkpt lat="44.63865351597352" lon="10.079261611750448"><ele>581.0</ele><time>2026-05-02T15:21:24Z</time></trkpt><trkpt lat="44.63887784692649" lon="10.079222821234518"><ele>581.0</ele><time>2026-05-02T15:21:25Z</time></trkpt><trkpt lat="44.639107449632945" lon="10.079202721570198"><ele>581.0</ele><time>2026-05-02T15:21:26Z</time></trkpt><trkpt lat="44.63934067997133" lon="10.079208421891286"><ele>581.0</ele><time>2026-05-02T15:21:27Z</time></trkpt><trkpt lat="44.63956138819852" lon="10.079231141812572"><ele>580.0</ele><time>2026-05-02T15:21:28Z</time></trkpt><trkpt lat="44.639763512297975" lon="10.0792471103606"><ele>579.0</ele><time>2026-05-02T15:21:29Z</time></trkpt><trkpt lat="44.63993406335648" lon="10.079245419237226"><ele>578.0</ele><time>2026-05-02T15:21:30Z</time></trkpt><trkpt lat="44.64010907659473" lon="10.079246163960487"><ele>578.0</ele><time>2026-05-02T15:21:31Z</time></trkpt><trkpt lat="44.64027647970249" lon="10.079221477480745"><ele>578.0</ele><time>2026-05-02T15:21:32Z</time></trkpt><trkpt lat="44.640424590968365" lon="10.079146427501312"><ele>578.0</ele><time>2026-05-02T15:21:33Z</time></trkpt><trkpt lat="44.64056767262099" lon="10.079001751574529"><ele>574.6666666666666</ele><time>2026-05-02T15:21:34Z</time></trkpt><trkpt lat="44.640707987997835" lon="10.078832826425288"><ele>571.3333333333334</ele><time>2026-05-02T15:21:35Z</time></trkpt><trkpt lat="44.64085947842591" lon="10.07868319490172"><ele>568.0</ele><time>2026-05-02T15:21:36Z</time></trkpt><trkpt lat="44.64102091599019" lon="10.07854106540306"><ele>567.5</ele><time>2026-05-02T15:21:37Z</time></trkpt><trkpt lat="44.64116874410738" lon="10.078415692109214"><ele>567.0</ele><time>2026-05-02T15:21:38Z</time></trkpt><trkpt lat="44.641292945442345" lon="10.07831183195058"><ele>566.5</ele><time>2026-05-02T15:21:39Z</time></trkpt><trkpt lat="44.641400448901656" lon="10.07820435806628"><ele>566.0</ele><time>2026-05-02T15:21:40Z</time></trkpt><trkpt lat="44.64150589413198" lon="10.078119207538114"><ele>562.6666666666666</ele><time>2026-05-02T15:21:41Z</time></trkpt><trkpt lat="44.64161606372474" lon="10.078076295144005"><ele>559.3333333333334</ele><time>2026-05-02T15:21:42Z</time></trkpt><trkpt lat="44.64175664212192" lon="10.078161958789423"><ele>556.0</ele><time>2026-05-02T15:21:43Z</time></trkpt><trkpt lat="44.641935596523666" lon="10.078235505990367"><ele>557.3333333333334</ele><time>2026-05-02T15:21:44Z</time></trkpt><trkpt lat="44.64210005819659" lon="10.078332985285371"><ele>558.6666666666666</ele><time>2026-05-02T15:21:45Z</time></trkpt><trkpt lat="44.64227295325853" lon="10.078391036734207"><ele>560.0</ele><time>2026-05-02T15:21:46Z</time></trkpt><trkpt lat="44.64244567871535" lon="10.078412492275012"><ele>560.0</ele><time>2026-05-02T15:21:47Z</time></trkpt><trkpt lat="44.642606567195045" lon="10.078386776425353"><ele>560.0</ele><time>2026-05-02T15:21:48Z</time></trkpt><trkpt lat="44.64275249010147" lon="10.078321700448084"><ele>560.0</ele><time>2026-05-02T15:21:49Z</time></trkpt><trkpt lat="44.64289170360702" lon="10.078187246221265"><ele>555.6666666666666</ele><time>2026-05-02T15:21:50Z</time></trkpt><trkpt lat="44.643006417627255" lon="10.078035519633152"><ele>551.3333333333334</ele><time>2026-05-02T15:21:51Z</time></trkpt><trkpt lat="44.64310505404189" lon="10.077856268483895"><ele>547.0</ele><time>2026-05-02T15:21:52Z</time></trkpt><trkpt lat="44.643187971067434" lon="10.077667888112538"><ele>547.0</ele><time>2026-05-02T15:21:53Z</time></trkpt><trkpt lat="44.64325747040849" lon="10.077499643450343"><ele>547.0</ele><time>2026-05-02T15:21:54Z</time></trkpt><trkpt lat="44.643318556585676" lon="10.077378256552713"><ele>547.0</ele><time>2026-05-02T15:21:55Z</time></trkpt><trkpt lat="44.64339130685091" lon="10.077274980725553"><ele>547.0</ele><time>2026-05-02T15:21:56Z</time></trkpt><trkpt lat="44.64349244106866" lon="10.077241384709941"><ele>544.3333333333334</ele><time>2026-05-02T15:21:57Z</time></trkpt><trkpt lat="44.64362991221454" lon="10.077286375910509"><ele>541.6666666666666</ele><time>2026-05-02T15:21:58Z</time></trkpt><trkpt lat="44.64378245498368" lon="10.077407559342431"><ele>539.0</ele><time>2026-05-02T15:21:59Z</time></trkpt><trkpt lat="44.64393617465797" lon="10.077469538730186"><ele>539.0</ele><time>2026-05-02T15:22:00Z</time></trkpt><trkpt lat="44.64406331257788" lon="10.077531443220645"><ele>539.0</ele><time>2026-05-02T15:22:01Z</time></trkpt><trkpt lat="44.64415489349142" lon="10.07762306529186"><ele>539.0</ele><time>2026-05-02T15:22:02Z</time></trkpt><trkpt lat="44.64423383484386" lon="10.077778453319572"><ele>539.0</ele><time>2026-05-02T15:22:03Z</time></trkpt><trkpt lat="44.64425259598115" lon="10.077965995917893"><ele>539.0</ele><time>2026-05-02T15:22:04Z</time></trkpt><trkpt lat="44.644244611214134" lon="10.078176555307374"><ele>539.0</ele><time>2026-05-02T15:22:05Z</time></trkpt><trkpt lat="44.644257835393866" lon="10.078415182727543"><ele>539.0</ele><time>2026-05-02T15:22:06Z</time></trkpt><trkpt lat="44.6442506375633" lon="10.078644460988285"><ele>539.25</ele><time>2026-05-02T15:22:07Z</time></trkpt><trkpt lat="44.644261410932444" lon="10.078847637337308"><ele>539.5</ele><time>2026-05-02T15:22:07.999Z</time></trkpt><trkpt lat="44.64429646049168" lon="10.079023906132667"><ele>539.75</ele><time>2026-05-02T15:22:08.999Z</time></trkpt><trkpt lat="44.644376032159975" lon="10.079181714087646"><ele>540.0</ele><time>2026-05-02T15:22:09.999Z</time></trkpt><trkpt lat="44.644497197103476" lon="10.079330365840068"><ele>533.0</ele><time>2026-05-02T15:22:10.999Z</time></trkpt><trkpt lat="44.64466501523088" lon="10.079430389541466"><ele>526.0</ele><time>2026-05-02T15:22:11.999Z</time></trkpt><trkpt lat="44.644897257413206" lon="10.079506644246605"><ele>519.0</ele><time>2026-05-02T15:22:12.999Z</time></trkpt><trkpt lat="44.6451686199932" lon="10.079657921215126"><ele>509.0</ele><time>2026-05-02T15:22:13.999Z</time></trkpt><trkpt lat="44.64543551406802" lon="10.079767706169955"><ele>499.0</ele><time>2026-05-02T15:22:14.999Z</time></trkpt><trkpt lat="44.645693626610765" lon="10.079920510171839"><ele>496.5</ele><time>2026-05-02T15:22:15.999Z</time></trkpt><trkpt lat="44.64594149305006" lon="10.080063607001813"><ele>494.0</ele><time>2026-05-02T15:22:16.999Z</time></trkpt><trkpt lat="44.64619632109653" lon="10.08024107759019"><ele>494.0</ele><time>2026-05-02T15:22:17.999Z</time></trkpt><trkpt lat="44.64645194103489" lon="10.080427643241656"><ele>494.0</ele><time>2026-05-02T15:22:18.999Z</time></trkpt><trkpt lat="44.64668039641031" lon="10.080577297636717"><ele>490.0</ele><time>2026-05-02T15:22:19.999Z</time></trkpt><trkpt lat="44.6468529426007" lon="10.080785676032331"><ele>486.0</ele><time>2026-05-02T15:22:20.999Z</time></trkpt><trkpt lat="44.64701186697608" lon="10.081043798859705"><ele>486.0</ele><time>2026-05-02T15:22:21.999Z</time></trkpt><trkpt lat="44.64719525232238" lon="10.08135484422037"><ele>486.0</ele><time>2026-05-02T15:22:22.999Z</time></trkpt><trkpt lat="44.647323307973" lon="10.081643520011735"><ele>492.33333333333337</ele><time>2026-05-02T15:22:23.999Z</time></trkpt><trkpt lat="44.64742963512287" lon="10.08189165426857"><ele>498.6666666666667</ele><time>2026-05-02T15:22:24.999Z</time></trkpt><trkpt lat="44.64754414247994" lon="10.082088600212977"><ele>505.0</ele><time>2026-05-02T15:22:25.999Z</time></trkpt><trkpt lat="44.64772672804775" lon="10.08227252319482"><ele>502.25</ele><time>2026-05-02T15:22:26.999Z</time></trkpt><trkpt lat="44.64791897915808" lon="10.082309244061586"><ele>499.5</ele><time>2026-05-02T15:22:27.999Z</time></trkpt><trkpt lat="44.64797294038893" lon="10.082250541707513"><ele>496.75</ele><time>2026-05-02T15:22:28.999Z</time></trkpt><trkpt lat="44.64806474502606" lon="10.082073216495985"><ele>494.0</ele><time>2026-05-02T15:22:29.999Z</time></trkpt><trkpt lat="44.64823137233078" lon="10.081859022786295"><ele>494.0</ele><time>2026-05-02T15:22:30.999Z</time></trkpt><trkpt lat="44.64842310417314" lon="10.081605590873231"><ele>494.0</ele><time>2026-05-02T15:22:31.999Z</time></trkpt><trkpt lat="44.64861160549525" lon="10.081305287448204"><ele>489.0</ele><time>2026-05-02T15:22:32.999Z</time></trkpt><trkpt lat="44.64879901226039" lon="10.081050677202892"><ele>484.0</ele><time>2026-05-02T15:22:33.999Z</time></trkpt><trkpt lat="44.64897620688844" lon="10.080847928367996"><ele>484.0</ele><time>2026-05-02T15:22:34.999Z</time></trkpt><trkpt lat="44.64913224356988" lon="10.08076758044506"><ele>484.0</ele><time>2026-05-02T15:22:35.999Z</time></trkpt><trkpt lat="44.649269698544465" lon="10.080823578126225"><ele>484.0</ele><time>2026-05-02T15:22:36.999Z</time></trkpt><trkpt lat="44.649441929523334" lon="10.080920230383036"><ele>478.5</ele><time>2026-05-02T15:22:37.999Z</time></trkpt><trkpt lat="44.649683704639216" lon="10.081002896405264"><ele>473.0</ele><time>2026-05-02T15:22:38.999Z</time></trkpt><trkpt lat="44.64995072449136" lon="10.081065022856855"><ele>473.0</ele><time>2026-05-02T15:22:39.999Z</time></trkpt><trkpt lat="44.65017629649129" lon="10.081210126487791"><ele>473.0</ele><time>2026-05-02T15:22:40.999Z</time></trkpt><trkpt lat="44.650411393098636" lon="10.081437003683732"><ele>472.5</ele><time>2026-05-02T15:22:41.999Z</time></trkpt><trkpt lat="44.65064234125903" lon="10.081572087641044"><ele>472.0</ele><time>2026-05-02T15:22:42.999Z</time></trkpt><trkpt lat="44.65087712052789" lon="10.081675383216599"><ele>467.0</ele><time>2026-05-02T15:22:43.999Z</time></trkpt><trkpt lat="44.651191049729526" lon="10.081687622656153"><ele>462.0</ele><time>2026-05-02T15:22:44.999Z</time></trkpt><trkpt lat="44.65150925227783" lon="10.081709381681408"><ele>462.0</ele><time>2026-05-02T15:22:45.999Z</time></trkpt><trkpt lat="44.65178418737763" lon="10.081750755977176"><ele>462.0</ele><time>2026-05-02T15:22:46.999Z</time></trkpt><trkpt lat="44.65199120742387" lon="10.081920084917362"><ele>460.33333333333337</ele><time>2026-05-02T15:22:47.999Z</time></trkpt><trkpt lat="44.65215998341443" lon="10.082133684524907"><ele>458.6666666666667</ele><time>2026-05-02T15:22:48.999Z</time></trkpt><trkpt lat="44.6522619090765" lon="10.082399192120088"><ele>457.0</ele><time>2026-05-02T15:22:49.999Z</time></trkpt><trkpt lat="44.65236787444218" lon="10.082685947927063"><ele>457.0</ele><time>2026-05-02T15:22:50.999Z</time></trkpt><trkpt lat="44.652452494928454" lon="10.082837207826701"><ele>457.0</ele><time>2026-05-02T15:22:51.999Z</time></trkpt><trkpt lat="44.65259538907904" lon="10.082923672108645"><ele>457.0</ele><time>2026-05-02T15:22:52.999Z</time></trkpt><trkpt lat="44.65279249516679" lon="10.082977349455799"><ele>451.5</ele><time>2026-05-02T15:22:53.999Z</time></trkpt><trkpt lat="44.65305335749929" lon="10.082969983013143"><ele>446.0</ele><time>2026-05-02T15:22:54.999Z</time></trkpt><trkpt lat="44.65330719148121" lon="10.08291690142833"><ele>446.0</ele><time>2026-05-02T15:22:55.999Z</time></trkpt><trkpt lat="44.65350323137919" lon="10.083012447525713"><ele>446.0</ele><time>2026-05-02T15:22:56.999Z</time></trkpt><trkpt lat="44.653734693805774" lon="10.08319789589969"><ele>447.0</ele><time>2026-05-02T15:22:57.999Z</time></trkpt><trkpt lat="44.65401552682018" lon="10.083345662666181"><ele>448.0</ele><time>2026-05-02T15:22:59Z</time></trkpt><trkpt lat="44.654295595759415" lon="10.083486434507797"><ele>442.33333333333337</ele><time>2026-05-02T15:23:00Z</time></trkpt><trkpt lat="44.65451012680974" lon="10.083605235689127"><ele>436.66666666666663</ele><time>2026-05-02T15:23:01Z</time></trkpt><trkpt lat="44.65465106045046" lon="10.083803736265367"><ele>431.0</ele><time>2026-05-02T15:23:02Z</time></trkpt><trkpt lat="44.65483691579225" lon="10.08400884357814"><ele>431.3333333333333</ele><time>2026-05-02T15:23:03Z</time></trkpt><trkpt lat="44.6550092310585" lon="10.084143127321077"><ele>431.66666666666663</ele><time>2026-05-02T15:23:04Z</time></trkpt><trkpt lat="44.65520896933738" lon="10.084174315506015"><ele>432.0</ele><time>2026-05-02T15:23:05Z</time></trkpt><trkpt lat="44.65544412214819" lon="10.08412092372421"><ele>432.0</ele><time>2026-05-02T15:23:06Z</time></trkpt><trkpt lat="44.6556189858362" lon="10.084084114098818"><ele>432.0</ele><time>2026-05-02T15:23:07Z</time></trkpt><trkpt lat="44.65572015795986" lon="10.084184969858326"><ele>432.0</ele><time>2026-05-02T15:23:08Z</time></trkpt><trkpt lat="44.65572803360753" lon="10.084376646483337"><ele>432.0</ele><time>2026-05-02T15:23:09Z</time></trkpt><trkpt lat="44.655702139927875" lon="10.084632405538269"><ele>432.0</ele><time>2026-05-02T15:23:10Z</time></trkpt><trkpt lat="44.65570866377139" lon="10.084928931404463"><ele>432.0</ele><time>2026-05-02T15:23:11Z</time></trkpt><trkpt lat="44.65572436406891" lon="10.085332663183623"><ele>433.0</ele><time>2026-05-02T15:23:12Z</time></trkpt><trkpt lat="44.65573226829913" lon="10.085659140927573"><ele>434.0</ele><time>2026-05-02T15:23:13Z</time></trkpt><trkpt lat="44.65578009440844" lon="10.08591314131335"><ele>435.0</ele><time>2026-05-02T15:23:14Z</time></trkpt><trkpt lat="44.655858418673844" lon="10.086030232122027"><ele>435.5</ele><time>2026-05-02T15:23:15Z</time></trkpt><trkpt lat="44.656011022393606" lon="10.086092765020535"><ele>436.0</ele><time>2026-05-02T15:23:16Z</time></trkpt><trkpt lat="44.6563257022928" lon="10.085883074532916"><ele>430.33333333333337</ele><time>2026-05-02T15:23:17Z</time></trkpt><trkpt lat="44.656605110263506" lon="10.086029536302112"><ele>424.66666666666663</ele><time>2026-05-02T15:23:18Z</time></trkpt><trkpt lat="44.65670531100135" lon="10.08616555155916"><ele>419.0</ele><time>2026-05-02T15:23:19Z</time></trkpt><trkpt lat="44.65669576089123" lon="10.086285630514457"><ele>419.0</ele><time>2026-05-02T15:23:20Z</time></trkpt><trkpt lat="44.65674741547079" lon="10.086524394141566"><ele>419.0</ele><time>2026-05-02T15:23:21Z</time></trkpt><trkpt lat="44.65682590719958" lon="10.086816421270235"><ele>419.0</ele><time>2026-05-02T15:23:22Z</time></trkpt><trkpt lat="44.65690055257713" lon="10.087172325577098"><ele>417.25</ele><time>2026-05-02T15:23:23Z</time></trkpt><trkpt lat="44.65699675890983" lon="10.087379594210638"><ele>415.5</ele><time>2026-05-02T15:23:24Z</time></trkpt><trkpt lat="44.65709160879552" lon="10.087451039528569"><ele>413.75</ele><time>2026-05-02T15:23:25Z</time></trkpt><trkpt lat="44.65722347171686" lon="10.087442400919953"><ele>412.0</ele><time>2026-05-02T15:23:26Z</time></trkpt><trkpt lat="44.6574293371292" lon="10.087461367170201"><ele>412.0</ele><time>2026-05-02T15:23:27Z</time></trkpt><trkpt lat="44.657599175876605" lon="10.08750879087121"><ele>412.0</ele><time>2026-05-02T15:23:28Z</time></trkpt><trkpt lat="44.65762851454967" lon="10.087716033145337"><ele>412.0</ele><time>2026-05-02T15:23:29Z</time></trkpt><trkpt lat="44.6576407403113" lon="10.087850762645012"><ele>412.0</ele><time>2026-05-02T15:23:30Z</time></trkpt><trkpt lat="44.65753306554133" lon="10.088031927728654"><ele>412.00000000000006</ele><time>2026-05-02T15:23:31Z</time></trkpt><trkpt lat="44.657480663341154" lon="10.088175827827156"><ele>412.0</ele><time>2026-05-02T15:23:32Z</time></trkpt><trkpt lat="44.6574709797831" lon="10.088266466269806"><ele>412.0</ele><time>2026-05-02T15:23:33Z</time></trkpt><trkpt lat="44.65743613972584" lon="10.088380387872695"><ele>412.0</ele><time>2026-05-02T15:23:34Z</time></trkpt><trkpt lat="44.657438954904805" lon="10.088486395991733"><ele>412.00000000000006</ele><time>2026-05-02T15:23:35Z</time></trkpt><trkpt lat="44.65749814640398" lon="10.088584969529734"><ele>412.0</ele><time>2026-05-02T15:23:36Z</time></trkpt><trkpt lat="44.657534760798754" lon="10.08866708059477"><ele>412.0</ele><time>2026-05-02T15:23:37Z</time></trkpt><trkpt lat="44.6576210170497" lon="10.088689671056809"><ele>412.0</ele><time>2026-05-02T15:23:38Z</time></trkpt><trkpt lat="44.65771171228526" lon="10.08860499783732"><ele>412.0</ele><time>2026-05-02T15:23:39Z</time></trkpt><trkpt lat="44.65775374808663" lon="10.088426084768228"><ele>412.0</ele><time>2026-05-02T15:23:40Z</time></trkpt><trkpt lat="44.6577710791729" lon="10.088145530957709"><ele>405.0</ele><time>2026-05-02T15:23:41Z</time></trkpt><trkpt lat="44.657839721302466" lon="10.087864821904557"><ele>398.0</ele><time>2026-05-02T15:23:42Z</time></trkpt><trkpt lat="44.657938260075305" lon="10.087594807091714"><ele>391.0</ele><time>2026-05-02T15:23:43Z</time></trkpt><trkpt lat="44.657981010153236" lon="10.087411839316028"><ele>391.0</ele><time>2026-05-02T15:23:44Z</time></trkpt><trkpt lat="44.65799463607503" lon="10.087284418279276"><ele>391.0</ele><time>2026-05-02T15:23:45Z</time></trkpt><trkpt lat="44.6581248719368" lon="10.087283635568587"><ele>391.0</ele><time>2026-05-02T15:23:47Z</time></trkpt><trkpt lat="44.65815802357643" lon="10.087454483508166"><ele>391.0</ele><time>2026-05-02T15:23:48Z</time></trkpt><trkpt lat="44.6580923172732" lon="10.087637086947481"><ele>391.0</ele><time>2026-05-02T15:23:49Z</time></trkpt><trkpt lat="44.65807692536715" lon="10.08795298360042"><ele>391.0</ele><time>2026-05-02T15:23:50Z</time></trkpt><trkpt lat="44.65808515149145" lon="10.088312612700248"><ele>389.0</ele><time>2026-05-02T15:23:51Z</time></trkpt><trkpt lat="44.65811612090341" lon="10.088696718390969"><ele>387.0</ele><time>2026-05-02T15:23:52Z</time></trkpt><trkpt lat="44.65821393084862" lon="10.08909778559334"><ele>386.66666666666663</ele><time>2026-05-02T15:23:53Z</time></trkpt><trkpt lat="44.65831289202864" lon="10.089408851062174"><ele>386.3333333333333</ele><time>2026-05-02T15:23:54Z</time></trkpt><trkpt lat="44.65837211365206" lon="10.089667053665968"><ele>386.0</ele><time>2026-05-02T15:23:55Z</time></trkpt><trkpt lat="44.658406325682314" lon="10.089858136860606"><ele>384.8</ele><time>2026-05-02T15:23:56Z</time></trkpt><trkpt lat="44.65845650201731" lon="10.089968004071887"><ele>383.6</ele><time>2026-05-02T15:23:57Z</time></trkpt><trkpt lat="44.65853927507613" lon="10.090025328410542"><ele>382.4</ele><time>2026-05-02T15:23:58Z</time></trkpt><trkpt lat="44.65865766332427" lon="10.089989427732261"><ele>381.2</ele><time>2026-05-02T15:23:59Z</time></trkpt><trkpt lat="44.658745420088955" lon="10.089837468917583"><ele>380.0</ele><time>2026-05-02T15:24:00Z</time></trkpt><trkpt lat="44.6586873422701" lon="10.089493200516996"><ele>382.33333333333337</ele><time>2026-05-02T15:24:01Z</time></trkpt><trkpt lat="44.658621251976086" lon="10.089319467705401"><ele>384.6666666666667</ele><time>2026-05-02T15:24:02Z</time></trkpt><trkpt lat="44.65859610025069" lon="10.0890580333224"><ele>387.0</ele><time>2026-05-02T15:24:03Z</time></trkpt><trkpt lat="44.658604048233904" lon="10.088645591822532"><ele>381.3333333333333</ele><time>2026-05-02T15:24:04Z</time></trkpt><trkpt lat="44.65867875152098" lon="10.088392322516258"><ele>375.66666666666663</ele><time>2026-05-02T15:24:05Z</time></trkpt><trkpt lat="44.65876533818385" lon="10.088153481450844"><ele>370.0</ele><time>2026-05-02T15:24:06Z</time></trkpt><trkpt lat="44.658952381602006" lon="10.087874222828486"><ele>370.0</ele><time>2026-05-02T15:24:07Z</time></trkpt><trkpt lat="44.65917272699939" lon="10.087589427533679"><ele>370.0</ele><time>2026-05-02T15:24:08Z</time></trkpt><trkpt lat="44.6594109410214" lon="10.087338839838655"><ele>361.0</ele><time>2026-05-02T15:24:09Z</time></trkpt><trkpt lat="44.65961553468402" lon="10.087175064319089"><ele>352.0</ele><time>2026-05-02T15:24:10Z</time></trkpt><trkpt lat="44.659781058096364" lon="10.086973765472083"><ele>352.0</ele><time>2026-05-02T15:24:11Z</time></trkpt><trkpt lat="44.659899885465826" lon="10.086826177040201"><ele>352.0</ele><time>2026-05-02T15:24:12Z</time></trkpt><trkpt lat="44.66000362828232" lon="10.086830442605354"><ele>352.0</ele><time>2026-05-02T15:24:14Z</time></trkpt><trkpt lat="44.66005008721477" lon="10.086926413441214"><ele>352.0</ele><time>2026-05-02T15:24:14.999Z</time></trkpt><trkpt lat="44.659983729131234" lon="10.087091715373267"><ele>352.0</ele><time>2026-05-02T15:24:15.999Z</time></trkpt><trkpt lat="44.65989064065642" lon="10.087228542462803"><ele>352.0</ele><time>2026-05-02T15:24:16.999Z</time></trkpt><trkpt lat="44.65978901409846" lon="10.087460427043128"><ele>352.0</ele><time>2026-05-02T15:24:17.999Z</time></trkpt><trkpt lat="44.65966406100582" lon="10.087772422764205"><ele>351.66666666666663</ele><time>2026-05-02T15:24:18.999Z</time></trkpt><trkpt lat="44.65957358181532" lon="10.088049536667066"><ele>351.3333333333333</ele><time>2026-05-02T15:24:19.999Z</time></trkpt><trkpt lat="44.65955264932645" lon="10.088316314416419"><ele>351.0</ele><time>2026-05-02T15:24:20.999Z</time></trkpt><trkpt lat="44.659629399819316" lon="10.08859531964996"><ele>348.5</ele><time>2026-05-02T15:24:21.999Z</time></trkpt><trkpt lat="44.65972523864474" lon="10.088940413837532"><ele>346.0</ele><time>2026-05-02T15:24:22.999Z</time></trkpt><trkpt lat="44.659842452787906" lon="10.08924654217319"><ele>343.5</ele><time>2026-05-02T15:24:23.999Z</time></trkpt><trkpt lat="44.659979665646226" lon="10.089587366548711"><ele>341.0</ele><time>2026-05-02T15:24:24.999Z</time></trkpt><trkpt lat="44.660167649763586" lon="10.089994132130958"><ele>330.5</ele><time>2026-05-02T15:24:25.999Z</time></trkpt><trkpt lat="44.66034760154002" lon="10.09038351720637"><ele>320.0</ele><time>2026-05-02T15:24:26.999Z</time></trkpt><trkpt lat="44.660477516990824" lon="10.090669678788814"><ele>322.0</ele><time>2026-05-02T15:24:27.999Z</time></trkpt><trkpt lat="44.6605848778272" lon="10.090999140375907"><ele>324.0</ele><time>2026-05-02T15:24:28.999Z</time></trkpt><trkpt lat="44.660686738885815" lon="10.091367010568078"><ele>324.0</ele><time>2026-05-02T15:24:29.999Z</time></trkpt><trkpt lat="44.660739868222116" lon="10.09172310880039"><ele>324.0</ele><time>2026-05-02T15:24:30.999Z</time></trkpt><trkpt lat="44.66076461914417" lon="10.09202799722059"><ele>324.0</ele><time>2026-05-02T15:24:31.999Z</time></trkpt><trkpt lat="44.66076697267321" lon="10.092137505868022"><ele>324.0</ele><time>2026-05-02T15:24:32.999Z</time></trkpt><trkpt lat="44.66083059022997" lon="10.092302554689626"><ele>324.0</ele><time>2026-05-02T15:24:33.999Z</time></trkpt><trkpt lat="44.661025809314545" lon="10.092346408263674"><ele>324.0</ele><time>2026-05-02T15:24:35.999Z</time></trkpt><trkpt lat="44.661121698599025" lon="10.092225564916342"><ele>324.0</ele><time>2026-05-02T15:24:36.999Z</time></trkpt><trkpt lat="44.66119723761191" lon="10.092090740282279"><ele>324.0</ele><time>2026-05-02T15:24:37.999Z</time></trkpt><trkpt lat="44.661059847054325" lon="10.091501856544888"><ele>324.0</ele><time>2026-05-02T15:24:38.999Z</time></trkpt><trkpt lat="44.661074185422414" lon="10.091214194277702"><ele>324.0</ele><time>2026-05-02T15:24:39.999Z</time></trkpt><trkpt lat="44.66109244206757" lon="10.090866680379936"><ele>322.0</ele><time>2026-05-02T15:24:40.999Z</time></trkpt><trkpt lat="44.661105367226156" lon="10.090500921135142"><ele>320.0</ele><time>2026-05-02T15:24:41.999Z</time></trkpt><trkpt lat="44.66117333561912" lon="10.090232910530094"><ele>316.6666666666667</ele><time>2026-05-02T15:24:42.999Z</time></trkpt><trkpt lat="44.66132280021701" lon="10.090032714834617"><ele>313.3333333333333</ele><time>2026-05-02T15:24:43.999Z</time></trkpt><trkpt lat="44.66151037364879" lon="10.089865436735785"><ele>310.0</ele><time>2026-05-02T15:24:44.999Z</time></trkpt><trkpt lat="44.66170893846799" lon="10.08970622397778"><ele>310.0</ele><time>2026-05-02T15:24:45.999Z</time></trkpt><trkpt lat="44.66194831263483" lon="10.089499187453045"><ele>310.0</ele><time>2026-05-02T15:24:46.999Z</time></trkpt><trkpt lat="44.66216277903859" lon="10.089365229349655"><ele>306.5</ele><time>2026-05-02T15:24:47.999Z</time></trkpt><trkpt lat="44.66237130045297" lon="10.089357549020926"><ele>303.0</ele><time>2026-05-02T15:24:48.999Z</time></trkpt><trkpt lat="44.66262258321437" lon="10.089393113024014"><ele>301.6666666666667</ele><time>2026-05-02T15:24:49.999Z</time></trkpt><trkpt lat="44.66286458523235" lon="10.089431281944103"><ele>300.33333333333337</ele><time>2026-05-02T15:24:50.999Z</time></trkpt><trkpt lat="44.663047412231016" lon="10.089458456143138"><ele>299.0</ele><time>2026-05-02T15:24:51.999Z</time></trkpt><trkpt lat="44.66318053602658" lon="10.08963602899586"><ele>299.0</ele><time>2026-05-02T15:24:53.999Z</time></trkpt><trkpt lat="44.66316075152698" lon="10.089860415979956"><ele>299.0</ele><time>2026-05-02T15:24:54.999Z</time></trkpt><trkpt lat="44.663056775264614" lon="10.09003194455799"><ele>299.0</ele><time>2026-05-02T15:24:55.999Z</time></trkpt><trkpt lat="44.662937638588865" lon="10.090237353681674"><ele>296.0</ele><time>2026-05-02T15:24:56.999Z</time></trkpt><trkpt lat="44.662755176518935" lon="10.09051002830891"><ele>293.0</ele><time>2026-05-02T15:24:57.999Z</time></trkpt><trkpt lat="44.66268798710209" lon="10.09071263349609"><ele>290.0</ele><time>2026-05-02T15:24:58.999Z</time></trkpt><trkpt lat="44.6625680158023" lon="10.090948624606776"><ele>287.6666666666667</ele><time>2026-05-02T15:24:59.999Z</time></trkpt><trkpt lat="44.66252135668459" lon="10.091165292586503"><ele>285.3333333333333</ele><time>2026-05-02T15:25:00.999Z</time></trkpt><trkpt lat="44.66257369787373" lon="10.091415663529789"><ele>283.0</ele><time>2026-05-02T15:25:01.999Z</time></trkpt><trkpt lat="44.66275698833511" lon="10.091804137784788"><ele>276.0</ele><time>2026-05-02T15:25:02.999Z</time></trkpt><trkpt lat="44.66285931324628" lon="10.092128605879982"><ele>269.0</ele><time>2026-05-02T15:25:03.999Z</time></trkpt><trkpt lat="44.66295084493387" lon="10.092404722836827"><ele>268.33333333333337</ele><time>2026-05-02T15:25:05Z</time></trkpt><trkpt lat="44.66304602117063" lon="10.092681012782327"><ele>267.6666666666667</ele><time>2026-05-02T15:25:06Z</time></trkpt><trkpt lat="44.663197142875106" lon="10.092878684166354"><ele>267.0</ele><time>2026-05-02T15:25:07Z</time></trkpt><trkpt lat="44.66336291858728" lon="10.093065438853028"><ele>263.5</ele><time>2026-05-02T15:25:08Z</time></trkpt><trkpt lat="44.663650912176486" lon="10.092998437900704"><ele>260.0</ele><time>2026-05-02T15:25:09Z</time></trkpt><trkpt lat="44.66394201128319" lon="10.093024215311836"><ele>260.0</ele><time>2026-05-02T15:25:10Z</time></trkpt><trkpt lat="44.66419572109916" lon="10.093087000837327"><ele>260.0</ele><time>2026-05-02T15:25:11Z</time></trkpt><trkpt lat="44.6644142276794" lon="10.093127762140684"><ele>256.0</ele><time>2026-05-02T15:25:12Z</time></trkpt><trkpt lat="44.66464789655297" lon="10.09317661907367"><ele>252.0</ele><time>2026-05-02T15:25:13Z</time></trkpt><trkpt lat="44.66487667997717" lon="10.093219314044292"><ele>252.0</ele><time>2026-05-02T15:25:14Z</time></trkpt><trkpt lat="44.665100328618216" lon="10.093231613147875"><ele>252.0</ele><time>2026-05-02T15:25:15Z</time></trkpt><trkpt lat="44.665314314352315" lon="10.093191247791395"><ele>252.0</ele><time>2026-05-02T15:25:16Z</time></trkpt><trkpt lat="44.66553191171244" lon="10.093152440610428"><ele>248.33333333333331</ele><time>2026-05-02T15:25:17Z</time></trkpt><trkpt lat="44.665733415848266" lon="10.093093274953075"><ele>244.66666666666666</ele><time>2026-05-02T15:25:18Z</time></trkpt><trkpt lat="44.665873027848214" lon="10.093110072689925"><ele>241.0</ele><time>2026-05-02T15:25:19Z</time></trkpt><trkpt lat="44.66599715366268" lon="10.093245427267004"><ele>238.66666666666666</ele><time>2026-05-02T15:25:20Z</time></trkpt><trkpt lat="44.6661282450098" lon="10.093439262852653"><ele>236.33333333333331</ele><time>2026-05-02T15:25:21Z</time></trkpt><trkpt lat="44.66630603351069" lon="10.093681339071194"><ele>234.0</ele><time>2026-05-02T15:25:22Z</time></trkpt><trkpt lat="44.666534550033134" lon="10.09389810419024"><ele>234.5</ele><time>2026-05-02T15:25:23Z</time></trkpt><trkpt lat="44.66679311749162" lon="10.094131023226659"><ele>235.0</ele><time>2026-05-02T15:25:24Z</time></trkpt><trkpt lat="44.667083696671874" lon="10.09437818532172"><ele>230.0</ele><time>2026-05-02T15:25:25Z</time></trkpt><trkpt lat="44.6673478320391" lon="10.094576565244608"><ele>225.0</ele><time>2026-05-02T15:25:26Z</time></trkpt><trkpt lat="44.66761308922937" lon="10.094812858586666"><ele>222.0</ele><time>2026-05-02T15:25:27Z</time></trkpt><trkpt lat="44.66785783974386" lon="10.095026926148101"><ele>219.0</ele><time>2026-05-02T15:25:28Z</time></trkpt><trkpt lat="44.66815457403717" lon="10.095186236604508"><ele>219.0</ele><time>2026-05-02T15:25:29Z</time></trkpt><trkpt lat="44.668459042675146" lon="10.095300401887597"><ele>219.0</ele><time>2026-05-02T15:25:30Z</time></trkpt><trkpt lat="44.6687200842604" lon="10.095409291064103"><ele>215.0</ele><time>2026-05-02T15:25:31Z</time></trkpt><trkpt lat="44.66891680624228" lon="10.09558299810511"><ele>211.0</ele><time>2026-05-02T15:25:32Z</time></trkpt><trkpt lat="44.66910056860856" lon="10.095798463494317"><ele>211.0</ele><time>2026-05-02T15:25:33Z</time></trkpt><trkpt lat="44.66927147504982" lon="10.096060584441538"><ele>211.0</ele><time>2026-05-02T15:25:34Z</time></trkpt><trkpt lat="44.66940286123442" lon="10.096301891837328"><ele>210.5</ele><time>2026-05-02T15:25:35Z</time></trkpt><trkpt lat="44.66946693384028" lon="10.096478087871905"><ele>210.0</ele><time>2026-05-02T15:25:36Z</time></trkpt><trkpt lat="44.6694575526629" lon="10.096646119677006"><ele>209.5</ele><time>2026-05-02T15:25:37Z</time></trkpt><trkpt lat="44.669416483473256" lon="10.096892672045794"><ele>209.0</ele><time>2026-05-02T15:25:38Z</time></trkpt><trkpt lat="44.66935698822135" lon="10.097204675587777"><ele>207.33333333333334</ele><time>2026-05-02T15:25:39Z</time></trkpt><trkpt lat="44.669295973760505" lon="10.097549263672311"><ele>205.66666666666669</ele><time>2026-05-02T15:25:40Z</time></trkpt><trkpt lat="44.66926572722811" lon="10.097803788307786"><ele>204.0</ele><time>2026-05-02T15:25:41Z</time></trkpt><trkpt lat="44.66920016091513" lon="10.098169754876775"><ele>202.75</ele><time>2026-05-02T15:25:42Z</time></trkpt><trkpt lat="44.66916213186672" lon="10.098401224386926"><ele>201.5</ele><time>2026-05-02T15:25:43Z</time></trkpt><trkpt lat="44.66915662966172" lon="10.098576985136322"><ele>200.25</ele><time>2026-05-02T15:25:44Z</time></trkpt><trkpt lat="44.669222031268205" lon="10.098720379558083"><ele>199.0</ele><time>2026-05-02T15:25:45Z</time></trkpt><trkpt lat="44.66936189095734" lon="10.0988210959931"><ele>196.75</ele><time>2026-05-02T15:25:46Z</time></trkpt><trkpt lat="44.66950149172272" lon="10.098822545102735"><ele>194.5</ele><time>2026-05-02T15:25:47Z</time></trkpt><trkpt lat="44.66961055085118" lon="10.098758536995152"><ele>192.25</ele><time>2026-05-02T15:25:48Z</time></trkpt><trkpt lat="44.669697988790745" lon="10.098656835716552"><ele>190.0</ele><time>2026-05-02T15:25:49Z</time></trkpt><trkpt lat="44.66976608111904" lon="10.098495776144977"><ele>190.0</ele><time>2026-05-02T15:25:50Z</time></trkpt><trkpt lat="44.66985328642163" lon="10.098271654223531"><ele>190.0</ele><time>2026-05-02T15:25:51Z</time></trkpt><trkpt lat="44.669971317482215" lon="10.098050536168385"><ele>190.0</ele><time>2026-05-02T15:25:52Z</time></trkpt><trkpt lat="44.67011829112373" lon="10.097775034662163"><ele>187.0</ele><time>2026-05-02T15:25:53Z</time></trkpt><trkpt lat="44.67030937375215" lon="10.097507409804429"><ele>184.0</ele><time>2026-05-02T15:25:54Z</time></trkpt><trkpt lat="44.67050875542922" lon="10.097236511068273"><ele>184.0</ele><time>2026-05-02T15:25:55Z</time></trkpt><trkpt lat="44.67068715569358" lon="10.096888132650065"><ele>184.0</ele><time>2026-05-02T15:25:56Z</time></trkpt><trkpt lat="44.67082356430958" lon="10.096540258401992"><ele>183.66666666666669</ele><time>2026-05-02T15:25:57Z</time></trkpt><trkpt lat="44.67093960380206" lon="10.096260813404506"><ele>183.33333333333334</ele><time>2026-05-02T15:25:58Z</time></trkpt><trkpt lat="44.67104953444476" lon="10.096039148746796"><ele>183.0</ele><time>2026-05-02T15:25:59Z</time></trkpt><trkpt lat="44.671169516491226" lon="10.095919690037539"><ele>181.75</ele><time>2026-05-02T15:26:00Z</time></trkpt><trkpt lat="44.67129807626028" lon="10.095859413698355"><ele>180.5</ele><time>2026-05-02T15:26:01Z</time></trkpt><trkpt lat="44.671408371607185" lon="10.095942399759455"><ele>179.25</ele><time>2026-05-02T15:26:02Z</time></trkpt><trkpt lat="44.67152074514411" lon="10.096069661844494"><ele>178.0</ele><time>2026-05-02T15:26:03Z</time></trkpt><trkpt lat="44.67170977727592" lon="10.096257269609263"><ele>178.0</ele><time>2026-05-02T15:26:04Z</time></trkpt><trkpt lat="44.67190312784871" lon="10.09645908624016"><ele>178.0</ele><time>2026-05-02T15:26:05Z</time></trkpt><trkpt lat="44.67203888905006" lon="10.09664852370388"><ele>178.0</ele><time>2026-05-02T15:26:06Z</time></trkpt><trkpt lat="44.67211640556807" lon="10.096864428069964"><ele>175.33333333333334</ele><time>2026-05-02T15:26:07Z</time></trkpt><trkpt lat="44.67214169072169" lon="10.097146281351643"><ele>172.66666666666666</ele><time>2026-05-02T15:26:08Z</time></trkpt><trkpt lat="44.67216732027441" lon="10.097476970185491"><ele>170.0</ele><time>2026-05-02T15:26:09Z</time></trkpt><trkpt lat="44.672216241244335" lon="10.097733579482828"><ele>169.25</ele><time>2026-05-02T15:26:10Z</time></trkpt><trkpt lat="44.67229046334575" lon="10.097887207035493"><ele>168.5</ele><time>2026-05-02T15:26:11Z</time></trkpt><trkpt lat="44.672411389201265" lon="10.097969041101482"><ele>167.75</ele><time>2026-05-02T15:26:12Z</time></trkpt><trkpt lat="44.67251662799985" lon="10.097981953246684"><ele>167.0</ele><time>2026-05-02T15:26:13Z</time></trkpt><trkpt lat="44.67280073557757" lon="10.097691698354865"><ele>164.66666666666666</ele><time>2026-05-02T15:26:14Z</time></trkpt><trkpt lat="44.67304290472245" lon="10.097590496980498"><ele>162.33333333333334</ele><time>2026-05-02T15:26:15Z</time></trkpt><trkpt lat="44.67318622510954" lon="10.09750133785717"><ele>160.0</ele><time>2026-05-02T15:26:15.999Z</time></trkpt><trkpt lat="44.673349080740614" lon="10.09743095651366"><ele>160.0</ele><time>2026-05-02T15:26:16.999Z</time></trkpt><trkpt lat="44.673488167714616" lon="10.097365838226272"><ele>160.0</ele><time>2026-05-02T15:26:17.999Z</time></trkpt><trkpt lat="44.67363553045188" lon="10.097281408832366"><ele>160.0</ele><time>2026-05-02T15:26:18.999Z</time></trkpt><trkpt lat="44.67379225051069" lon="10.09719410200688"><ele>160.0</ele><time>2026-05-02T15:26:19.999Z</time></trkpt><trkpt lat="44.673943282140385" lon="10.097125604947454"><ele>160.0</ele><time>2026-05-02T15:26:20.999Z</time></trkpt><trkpt lat="44.674092312868694" lon="10.09705108938593"><ele>160.0</ele><time>2026-05-02T15:26:21.999Z</time></trkpt><trkpt lat="44.674233062140786" lon="10.096975301204084"><ele>160.0</ele><time>2026-05-02T15:26:22.999Z</time></trkpt><trkpt lat="44.67436201269264" lon="10.096913166328878"><ele>160.0</ele><time>2026-05-02T15:26:23.999Z</time></trkpt><trkpt lat="44.6744811996846" lon="10.096849426538327"><ele>160.0</ele><time>2026-05-02T15:26:24.999Z</time></trkpt><trkpt lat="44.67459413526865" lon="10.0967804310381"><ele>160.0</ele><time>2026-05-02T15:26:25.999Z</time></trkpt><trkpt lat="44.67472324562763" lon="10.096703790431356"><ele>160.0</ele><time>2026-05-02T15:26:26.999Z</time></trkpt><trkpt lat="44.67485339236566" lon="10.096646484500939"><ele>160.0</ele><time>2026-05-02T15:26:27.999Z</time></trkpt><trkpt lat="44.67498886155811" lon="10.09658782805245"><ele>160.0</ele><time>2026-05-02T15:26:28.999Z</time></trkpt><trkpt lat="44.675125085848585" lon="10.096506585911138"><ele>160.0</ele><time>2026-05-02T15:26:29.999Z</time></trkpt><trkpt lat="44.67525635294216" lon="10.096415179637537"><ele>159.25</ele><time>2026-05-02T15:26:30.999Z</time></trkpt><trkpt lat="44.675399103503665" lon="10.096372410038194"><ele>158.5</ele><time>2026-05-02T15:26:31.999Z</time></trkpt><trkpt lat="44.675534551969825" lon="10.096302541154321"><ele>157.75</ele><time>2026-05-02T15:26:32.999Z</time></trkpt><trkpt lat="44.67567691463892" lon="10.096229105039114"><ele>157.0</ele><time>2026-05-02T15:26:33.999Z</time></trkpt><trkpt lat="44.67581153225362" lon="10.09613552958854"><ele>157.0</ele><time>2026-05-02T15:26:34.999Z</time></trkpt><trkpt lat="44.67595380133692" lon="10.096078283743468"><ele>157.0</ele><time>2026-05-02T15:26:35.999Z</time></trkpt><trkpt lat="44.676092592662016" lon="10.096009506571846"><ele>157.0</ele><time>2026-05-02T15:26:36.999Z</time></trkpt><trkpt lat="44.67622992715942" lon="10.095940800339969"><ele>157.0</ele><time>2026-05-02T15:26:37.999Z</time></trkpt><trkpt lat="44.6763743255123" lon="10.095866589114227"><ele>156.33333333333334</ele><time>2026-05-02T15:26:38.999Z</time></trkpt><trkpt lat="44.676512762011264" lon="10.095791233253534"><ele>155.66666666666666</ele><time>2026-05-02T15:26:39.999Z</time></trkpt><trkpt lat="44.676651004818055" lon="10.095725396459974"><ele>155.0</ele><time>2026-05-02T15:26:40.999Z</time></trkpt><trkpt lat="44.6767996708486" lon="10.095651092695167"><ele>154.33333333333331</ele><time>2026-05-02T15:26:41.999Z</time></trkpt><trkpt lat="44.676945647781295" lon="10.095574171968298"><ele>153.66666666666666</ele><time>2026-05-02T15:26:42.999Z</time></trkpt><trkpt lat="44.67708483907438" lon="10.095494508742275"><ele>153.0</ele><time>2026-05-02T15:26:43.999Z</time></trkpt><trkpt lat="44.67724293178509" lon="10.095414373592243"><ele>153.0</ele><time>2026-05-02T15:26:44.999Z</time></trkpt><trkpt lat="44.677397475839655" lon="10.095329704180758"><ele>153.0</ele><time>2026-05-02T15:26:45.999Z</time></trkpt><trkpt lat="44.677552732392236" lon="10.095243240998801"><ele>153.0</ele><time>2026-05-02T15:26:46.999Z</time></trkpt><trkpt lat="44.67771381848962" lon="10.095160882792015"><ele>152.0</ele><time>2026-05-02T15:26:47.999Z</time></trkpt><trkpt lat="44.6778702657622" lon="10.095083568586386"><ele>151.0</ele><time>2026-05-02T15:26:48.999Z</time></trkpt><trkpt lat="44.6780303672551" lon="10.095001060677873"><ele>150.0</ele><time>2026-05-02T15:26:49.999Z</time></trkpt><trkpt lat="44.678194350809754" lon="10.09491855833971"><ele>149.33333333333334</ele><time>2026-05-02T15:26:50.999Z</time></trkpt><trkpt lat="44.67834489527749" lon="10.094829918945344"><ele>148.66666666666669</ele><time>2026-05-02T15:26:51.999Z</time></trkpt><trkpt lat="44.678511284144335" lon="10.094745823125427"><ele>148.0</ele><time>2026-05-02T15:26:52.999Z</time></trkpt><trkpt lat="44.678666725773176" lon="10.094657517301526"><ele>148.0</ele><time>2026-05-02T15:26:53.999Z</time></trkpt><trkpt lat="44.67881825384131" lon="10.094575511796796"><ele>148.0</ele><time>2026-05-02T15:26:54.999Z</time></trkpt><trkpt lat="44.67895258667252" lon="10.094507059498905"><ele>148.0</ele><time>2026-05-02T15:26:55.999Z</time></trkpt><trkpt lat="44.67902949608985" lon="10.094508112925121"><ele>148.0</ele><time>2026-05-02T15:26:56.999Z</time></trkpt><trkpt lat="44.67913672704442" lon="10.094501166978022"><ele>148.0</ele><time>2026-05-02T15:26:58.999Z</time></trkpt><trkpt lat="44.679278985896815" lon="10.094518315876767"><ele>148.0</ele><time>2026-05-02T15:27:00.999Z</time></trkpt><trkpt lat="44.67937150293739" lon="10.094498507497264"><ele>148.0</ele><time>2026-05-02T15:27:01.999Z</time></trkpt><trkpt lat="44.67946994961264" lon="10.094519702665375"><ele>148.0</ele><time>2026-05-02T15:27:02.999Z</time></trkpt><trkpt lat="44.67956254599143" lon="10.094591412084458"><ele>148.0</ele><time>2026-05-02T15:27:03.999Z</time></trkpt><trkpt lat="44.67965985175286" lon="10.094677084160299"><ele>148.0</ele><time>2026-05-02T15:27:04.999Z</time></trkpt><trkpt lat="44.679761581887945" lon="10.094760936799888"><ele>148.0</ele><time>2026-05-02T15:27:05.999Z</time></trkpt><trkpt lat="44.67987456458701" lon="10.094838063922237"><ele>148.0</ele><time>2026-05-02T15:27:06.999Z</time></trkpt><trkpt lat="44.680001796529645" lon="10.094918338112532"><ele>148.0</ele><time>2026-05-02T15:27:07.999Z</time></trkpt><trkpt lat="44.680129929883975" lon="10.094987131940746"><ele>147.75</ele><time>2026-05-02T15:27:08.999Z</time></trkpt><trkpt lat="44.68025236275635" lon="10.095052569531823"><ele>147.5</ele><time>2026-05-02T15:27:09.999Z</time></trkpt><trkpt lat="44.6803871364698" lon="10.095126789601661"><ele>147.25</ele><time>2026-05-02T15:27:11Z</time></trkpt><trkpt lat="44.68052459907811" lon="10.095208104362253"><ele>147.0</ele><time>2026-05-02T15:27:12Z</time></trkpt><trkpt lat="44.6806646243431" lon="10.095281980844335"><ele>146.66666666666666</ele><time>2026-05-02T15:27:13Z</time></trkpt><trkpt lat="44.68080951829847" lon="10.095361004940704"><ele>146.33333333333331</ele><time>2026-05-02T15:27:14Z</time></trkpt><trkpt lat="44.680957178007475" lon="10.095436599434782"><ele>146.0</ele><time>2026-05-02T15:27:15Z</time></trkpt><trkpt lat="44.681102062307886" lon="10.095505237472889"><ele>146.0</ele><time>2026-05-02T15:27:16Z</time></trkpt><trkpt lat="44.6812445242371" lon="10.095578114787852"><ele>146.0</ele><time>2026-05-02T15:27:17Z</time></trkpt><trkpt lat="44.681387458146126" lon="10.09564438590845"><ele>146.0</ele><time>2026-05-02T15:27:18Z</time></trkpt><trkpt lat="44.68153277363433" lon="10.095694062134797"><ele>146.0</ele><time>2026-05-02T15:27:19Z</time></trkpt><trkpt lat="44.681680955489945" lon="10.095749980822802"><ele>146.0</ele><time>2026-05-02T15:27:20Z</time></trkpt><trkpt lat="44.68183039740546" lon="10.095785607377781"><ele>146.0</ele><time>2026-05-02T15:27:21Z</time></trkpt><trkpt lat="44.68199362144686" lon="10.09581145581531"><ele>147.0</ele><time>2026-05-02T15:27:22Z</time></trkpt><trkpt lat="44.68216500855316" lon="10.095864478831121"><ele>148.0</ele><time>2026-05-02T15:27:23Z</time></trkpt><trkpt lat="44.68235337452222" lon="10.095907596247871"><ele>149.0</ele><time>2026-05-02T15:27:24Z</time></trkpt><trkpt lat="44.68254686956299" lon="10.095949090480172"><ele>149.0</ele><time>2026-05-02T15:27:25Z</time></trkpt><trkpt lat="44.68274482529323" lon="10.096004082247532"><ele>149.0</ele><time>2026-05-02T15:27:26Z</time></trkpt><trkpt lat="44.68295049294348" lon="10.096053720601473"><ele>149.0</ele><time>2026-05-02T15:27:27Z</time></trkpt><trkpt lat="44.68316009598363" lon="10.096105136942604"><ele>148.0</ele><time>2026-05-02T15:27:28Z</time></trkpt><trkpt lat="44.68337297922579" lon="10.096149278715469"><ele>147.0</ele><time>2026-05-02T15:27:29Z</time></trkpt><trkpt lat="44.68359020568462" lon="10.096190631381482"><ele>146.0</ele><time>2026-05-02T15:27:30Z</time></trkpt><trkpt lat="44.68380769891222" lon="10.096239076929796"><ele>146.0</ele><time>2026-05-02T15:27:31Z</time></trkpt><trkpt lat="44.68402709747004" lon="10.09628615354333"><ele>146.0</ele><time>2026-05-02T15:27:32Z</time></trkpt><trkpt lat="44.68424570894492" lon="10.096336794723598"><ele>146.0</ele><time>2026-05-02T15:27:33Z</time></trkpt><trkpt lat="44.68445895254632" lon="10.0963835462134"><ele>145.66666666666666</ele><time>2026-05-02T15:27:34Z</time></trkpt><trkpt lat="44.68466799731196" lon="10.09643397865991"><ele>145.33333333333334</ele><time>2026-05-02T15:27:35Z</time></trkpt><trkpt lat="44.68488197857131" lon="10.09647944435597"><ele>145.0</ele><time>2026-05-02T15:27:36Z</time></trkpt><trkpt lat="44.68509558310048" lon="10.096522942521393"><ele>144.66666666666669</ele><time>2026-05-02T15:27:37Z</time></trkpt><trkpt lat="44.685308733930825" lon="10.096568659900734"><ele>144.33333333333334</ele><time>2026-05-02T15:27:38Z</time></trkpt><trkpt lat="44.68552116845353" lon="10.096607670724474"><ele>144.0</ele><time>2026-05-02T15:27:39Z</time></trkpt><trkpt lat="44.685729280857636" lon="10.096654009675333"><ele>144.33333333333334</ele><time>2026-05-02T15:27:40Z</time></trkpt><trkpt lat="44.68593369672931" lon="10.096699068038328"><ele>144.66666666666669</ele><time>2026-05-02T15:27:41Z</time></trkpt><trkpt lat="44.68613607172206" lon="10.096747567528052"><ele>145.0</ele><time>2026-05-02T15:27:42Z</time></trkpt><trkpt lat="44.686343242229725" lon="10.096794358444164"><ele>145.0</ele><time>2026-05-02T15:27:43Z</time></trkpt><trkpt lat="44.6865460765258" lon="10.096829960556018"><ele>145.0</ele><time>2026-05-02T15:27:44Z</time></trkpt><trkpt lat="44.68675494614872" lon="10.09687848968352"><ele>145.0</ele><time>2026-05-02T15:27:45Z</time></trkpt><trkpt lat="44.68695859246805" lon="10.096925131880484"><ele>144.0</ele><time>2026-05-02T15:27:46Z</time></trkpt><trkpt lat="44.687162547445794" lon="10.096972345648346"><ele>143.0</ele><time>2026-05-02T15:27:47Z</time></trkpt><trkpt lat="44.687363557024476" lon="10.097021437558547"><ele>142.0</ele><time>2026-05-02T15:27:48Z</time></trkpt><trkpt lat="44.68756800364416" lon="10.097065230184215"><ele>141.66666666666669</ele><time>2026-05-02T15:27:49Z</time></trkpt><trkpt lat="44.68777334399929" lon="10.097104472042968"><ele>141.33333333333334</ele><time>2026-05-02T15:27:50Z</time></trkpt><trkpt lat="44.68796926399612" lon="10.097150223501306"><ele>141.0</ele><time>2026-05-02T15:27:51Z</time></trkpt><trkpt lat="44.68815980185021" lon="10.09719321328678"><ele>141.0</ele><time>2026-05-02T15:27:52Z</time></trkpt><trkpt lat="44.68834622395808" lon="10.097229127095305"><ele>141.0</ele><time>2026-05-02T15:27:53Z</time></trkpt><trkpt lat="44.68853698793952" lon="10.097274327313968"><ele>141.0</ele><time>2026-05-02T15:27:54Z</time></trkpt><trkpt lat="44.688722439423955" lon="10.097332847141402"><ele>144.33333333333334</ele><time>2026-05-02T15:27:55Z</time></trkpt><trkpt lat="44.68892500314444" lon="10.097447417510425"><ele>147.66666666666669</ele><time>2026-05-02T15:27:56Z</time></trkpt><trkpt lat="44.68911539567555" lon="10.097519718829252"><ele>151.0</ele><time>2026-05-02T15:27:57Z</time></trkpt><trkpt lat="44.68930683215456" lon="10.097570610295117"><ele>151.0</ele><time>2026-05-02T15:27:58Z</time></trkpt><trkpt lat="44.68942052764512" lon="10.09754881051851"><ele>151.0</ele><time>2026-05-02T15:27:59Z</time></trkpt><trkpt lat="44.689576854429575" lon="10.09749857605369"><ele>151.0</ele><time>2026-05-02T15:28:00Z</time></trkpt><trkpt lat="44.68972663206668" lon="10.0975308884618"><ele>151.0</ele><time>2026-05-02T15:28:01Z</time></trkpt><trkpt lat="44.689845089055616" lon="10.09770880471043"><ele>152.33333333333334</ele><time>2026-05-02T15:28:02Z</time></trkpt><trkpt lat="44.68995943756464" lon="10.097871201477414"><ele>153.66666666666666</ele><time>2026-05-02T15:28:03Z</time></trkpt><trkpt lat="44.69003796916345" lon="10.098052429875066"><ele>155.0</ele><time>2026-05-02T15:28:04Z</time></trkpt><trkpt lat="44.690118052162546" lon="10.098230229761135"><ele>155.2</ele><time>2026-05-02T15:28:05Z</time></trkpt><trkpt lat="44.690120891560845" lon="10.098413341539146"><ele>155.4</ele><time>2026-05-02T15:28:06Z</time></trkpt><trkpt lat="44.69012893081991" lon="10.098510762421013"><ele>155.6</ele><time>2026-05-02T15:28:07Z</time></trkpt><trkpt lat="44.69021289156405" lon="10.098535428949624"><ele>155.8</ele><time>2026-05-02T15:28:08Z</time></trkpt><trkpt lat="44.6902506211789" lon="10.098758155653714"><ele>156.0</ele><time>2026-05-02T15:28:10Z</time></trkpt><trkpt lat="44.69030634885096" lon="10.098990676729638"><ele>155.75</ele><time>2026-05-02T15:28:11Z</time></trkpt><trkpt lat="44.69034920573408" lon="10.099169007231081"><ele>155.5</ele><time>2026-05-02T15:28:12Z</time></trkpt><trkpt lat="44.690406066066174" lon="10.09934419074812"><ele>155.25</ele><time>2026-05-02T15:28:13Z</time></trkpt><trkpt lat="44.69044963534198" lon="10.099528509396839"><ele>155.0</ele><time>2026-05-02T15:28:14Z</time></trkpt><trkpt lat="44.69047881645704" lon="10.099731455922823"><ele>155.75</ele><time>2026-05-02T15:28:15Z</time></trkpt><trkpt lat="44.69052082607098" lon="10.09991761876733"><ele>156.5</ele><time>2026-05-02T15:28:16Z</time></trkpt><trkpt lat="44.69056180145941" lon="10.100099198128213"><ele>157.25</ele><time>2026-05-02T15:28:17Z</time></trkpt><trkpt lat="44.690601139083476" lon="10.100273519685718"><ele>158.0</ele><time>2026-05-02T15:28:18Z</time></trkpt><trkpt lat="44.69065158238762" lon="10.100449421164726"><ele>158.0</ele><time>2026-05-02T15:28:19Z</time></trkpt><trkpt lat="44.69069263930342" lon="10.100628752370916"><ele>158.0</ele><time>2026-05-02T15:28:20Z</time></trkpt><trkpt lat="44.69073702851177" lon="10.100811812043231"><ele>158.0</ele><time>2026-05-02T15:28:21Z</time></trkpt><trkpt lat="44.69077399866773" lon="10.100983307607367"><ele>158.0</ele><time>2026-05-02T15:28:22Z</time></trkpt><trkpt lat="44.69082169521154" lon="10.101134138459482"><ele>158.60000000000002</ele><time>2026-05-02T15:28:22.999Z</time></trkpt><trkpt lat="44.69086643287163" lon="10.101244938495574"><ele>159.20000000000002</ele><time>2026-05-02T15:28:23.999Z</time></trkpt><trkpt lat="44.6908991027006" lon="10.101359302332975"><ele>159.8</ele><time>2026-05-02T15:28:24.999Z</time></trkpt><trkpt lat="44.69096753759854" lon="10.10147971296731"><ele>160.4</ele><time>2026-05-02T15:28:25.999Z</time></trkpt><trkpt lat="44.691046724811684" lon="10.101622247523993"><ele>161.0</ele><time>2026-05-02T15:28:26.999Z</time></trkpt><trkpt lat="44.69113254915535" lon="10.101775967416385"><ele>158.33333333333331</ele><time>2026-05-02T15:28:27.999Z</time></trkpt><trkpt lat="44.6912306484971" lon="10.101937643518012"><ele>155.66666666666666</ele><time>2026-05-02T15:28:28.999Z</time></trkpt><trkpt lat="44.69132834094761" lon="10.102089032222738"><ele>153.0</ele><time>2026-05-02T15:28:29.999Z</time></trkpt><trkpt lat="44.691425666790906" lon="10.102257721615425"><ele>155.66666666666666</ele><time>2026-05-02T15:28:30.999Z</time></trkpt><trkpt lat="44.69153222070122" lon="10.102420647228694"><ele>158.33333333333331</ele><time>2026-05-02T15:28:31.999Z</time></trkpt><trkpt lat="44.691642866893304" lon="10.102586566445744"><ele>161.0</ele><time>2026-05-02T15:28:32.999Z</time></trkpt><trkpt lat="44.69173535406145" lon="10.10273892715324"><ele>161.0</ele><time>2026-05-02T15:28:33.999Z</time></trkpt><trkpt lat="44.69184420733758" lon="10.10291260881419"><ele>161.0</ele><time>2026-05-02T15:28:34.999Z</time></trkpt><trkpt lat="44.6919634405579" lon="10.103107119948723"><ele>161.0</ele><time>2026-05-02T15:28:35.999Z</time></trkpt><trkpt lat="44.692070104539276" lon="10.103281304686039"><ele>158.33333333333331</ele><time>2026-05-02T15:28:36.999Z</time></trkpt><trkpt lat="44.69217874777639" lon="10.103457220832928"><ele>155.66666666666666</ele><time>2026-05-02T15:28:37.999Z</time></trkpt><trkpt lat="44.69229667830513" lon="10.103616049403842"><ele>153.0</ele><time>2026-05-02T15:28:38.999Z</time></trkpt><trkpt lat="44.69240116435942" lon="10.10379256944842"><ele>153.0</ele><time>2026-05-02T15:28:39.999Z</time></trkpt><trkpt lat="44.69251084376097" lon="10.103967783961686"><ele>153.0</ele><time>2026-05-02T15:28:40.999Z</time></trkpt><trkpt lat="44.69262520042132" lon="10.104137978240317"><ele>153.0</ele><time>2026-05-02T15:28:41.999Z</time></trkpt><trkpt lat="44.692732080262964" lon="10.104311322873906"><ele>152.66666666666666</ele><time>2026-05-02T15:28:42.999Z</time></trkpt><trkpt lat="44.69284085782963" lon="10.104485921972598"><ele>152.33333333333331</ele><time>2026-05-02T15:28:43.999Z</time></trkpt><trkpt lat="44.69294692480743" lon="10.10466090195904"><ele>152.0</ele><time>2026-05-02T15:28:44.999Z</time></trkpt><trkpt lat="44.69304782203364" lon="10.104852859166643"><ele>153.33333333333331</ele><time>2026-05-02T15:28:45.999Z</time></trkpt><trkpt lat="44.69314131388357" lon="10.105070274905923"><ele>154.66666666666666</ele><time>2026-05-02T15:28:46.999Z</time></trkpt><trkpt lat="44.69323379328466" lon="10.10527854217936"><ele>156.0</ele><time>2026-05-02T15:28:47.999Z</time></trkpt><trkpt lat="44.69331886460399" lon="10.10549773706558"><ele>156.0</ele><time>2026-05-02T15:28:48.999Z</time></trkpt><trkpt lat="44.69340556837033" lon="10.105707553888534"><ele>156.0</ele><time>2026-05-02T15:28:49.999Z</time></trkpt><trkpt lat="44.69349143702316" lon="10.105918869301934"><ele>156.0</ele><time>2026-05-02T15:28:50.999Z</time></trkpt><trkpt lat="44.69357656732776" lon="10.106129249709294"><ele>156.0</ele><time>2026-05-02T15:28:51.999Z</time></trkpt><trkpt lat="44.69366122580119" lon="10.106336947979468"><ele>156.0</ele><time>2026-05-02T15:28:52.999Z</time></trkpt><trkpt lat="44.69374153088689" lon="10.106543585184417"><ele>156.0</ele><time>2026-05-02T15:28:53.999Z</time></trkpt><trkpt lat="44.693816572152166" lon="10.106766775799683"><ele>156.66666666666666</ele><time>2026-05-02T15:28:54.999Z</time></trkpt><trkpt lat="44.69388251484658" lon="10.107002103301497"><ele>157.33333333333331</ele><time>2026-05-02T15:28:55.999Z</time></trkpt><trkpt lat="44.69393730662127" lon="10.107240865256626"><ele>158.0</ele><time>2026-05-02T15:28:56.999Z</time></trkpt><trkpt lat="44.69400091349004" lon="10.107481582119796"><ele>159.0</ele><time>2026-05-02T15:28:57.999Z</time></trkpt><trkpt lat="44.69406900204769" lon="10.107727615660483"><ele>160.0</ele><time>2026-05-02T15:28:58.999Z</time></trkpt><trkpt lat="44.694134659714294" lon="10.107972413174306"><ele>161.0</ele><time>2026-05-02T15:28:59.999Z</time></trkpt><trkpt lat="44.694196510307606" lon="10.10821823948493"><ele>162.33333333333331</ele><time>2026-05-02T15:29:00.999Z</time></trkpt><trkpt lat="44.69425457942661" lon="10.10844584156631"><ele>163.66666666666666</ele><time>2026-05-02T15:29:01.999Z</time></trkpt><trkpt lat="44.69433123739614" lon="10.10865881042209"><ele>165.0</ele><time>2026-05-02T15:29:02.999Z</time></trkpt><trkpt lat="44.69442434535993" lon="10.108818953522778"><ele>161.75</ele><time>2026-05-02T15:29:03.999Z</time></trkpt><trkpt lat="44.69452906142494" lon="10.10894141551796"><ele>158.5</ele><time>2026-05-02T15:29:04.999Z</time></trkpt><trkpt lat="44.694647418671266" lon="10.109035048416692"><ele>155.25</ele><time>2026-05-02T15:29:05.999Z</time></trkpt><trkpt lat="44.69479113289443" lon="10.10911216250215"><ele>152.0</ele><time>2026-05-02T15:29:06.999Z</time></trkpt><trkpt lat="44.694917274962776" lon="10.109224586937577"><ele>152.0</ele><time>2026-05-02T15:29:07.999Z</time></trkpt><trkpt lat="44.69503512848464" lon="10.109423750058077"><ele>152.0</ele><time>2026-05-02T15:29:08.999Z</time></trkpt><trkpt lat="44.69513961654527" lon="10.109637920531677"><ele>152.0</ele><time>2026-05-02T15:29:09.999Z</time></trkpt><trkpt lat="44.69524793276406" lon="10.109860985972343"><ele>149.66666666666666</ele><time>2026-05-02T15:29:10.999Z</time></trkpt><trkpt lat="44.69534723159202" lon="10.110096907301424"><ele>147.33333333333334</ele><time>2026-05-02T15:29:11.999Z</time></trkpt><trkpt lat="44.69544920791304" lon="10.110328210604704"><ele>145.0</ele><time>2026-05-02T15:29:12.999Z</time></trkpt><trkpt lat="44.695553569903254" lon="10.110578543451997"><ele>147.0</ele><time>2026-05-02T15:29:13.999Z</time></trkpt><trkpt lat="44.695668792727936" lon="10.110832703806896"><ele>149.0</ele><time>2026-05-02T15:29:14.999Z</time></trkpt><trkpt lat="44.69579086270462" lon="10.111089053932304"><ele>151.0</ele><time>2026-05-02T15:29:15.999Z</time></trkpt><trkpt lat="44.6959207326185" lon="10.111344583874482"><ele>152.66666666666669</ele><time>2026-05-02T15:29:17Z</time></trkpt><trkpt lat="44.696054983473665" lon="10.11159726457051"><ele>154.33333333333334</ele><time>2026-05-02T15:29:18Z</time></trkpt><trkpt lat="44.69618112905241" lon="10.11184425772363"><ele>156.0</ele><time>2026-05-02T15:29:19Z</time></trkpt><trkpt lat="44.696296174758416" lon="10.112080098419774"><ele>153.33333333333334</ele><time>2026-05-02T15:29:20Z</time></trkpt><trkpt lat="44.69642716091818" lon="10.112295018445682"><ele>150.66666666666669</ele><time>2026-05-02T15:29:21Z</time></trkpt><trkpt lat="44.6965755521771" lon="10.112488684314659"><ele>148.0</ele><time>2026-05-02T15:29:22Z</time></trkpt><trkpt lat="44.696753301401664" lon="10.112640761360813"><ele>146.66666666666669</ele><time>2026-05-02T15:29:23Z</time></trkpt><trkpt lat="44.696951527313374" lon="10.112753943944046"><ele>145.33333333333334</ele><time>2026-05-02T15:29:24Z</time></trkpt><trkpt lat="44.6971568989319" lon="10.112819011624126"><ele>144.0</ele><time>2026-05-02T15:29:25Z</time></trkpt><trkpt lat="44.69737078952487" lon="10.11284503688719"><ele>144.0</ele><time>2026-05-02T15:29:26Z</time></trkpt><trkpt lat="44.69757737489239" lon="10.112867868369184"><ele>144.0</ele><time>2026-05-02T15:29:27Z</time></trkpt><trkpt lat="44.697784644483406" lon="10.112890778171497"><ele>144.0</ele><time>2026-05-02T15:29:28Z</time></trkpt><trkpt lat="44.69799892128353" lon="10.112930076614703"><ele>142.66666666666666</ele><time>2026-05-02T15:29:29Z</time></trkpt><trkpt lat="44.69820590026357" lon="10.112987473932948"><ele>141.33333333333331</ele><time>2026-05-02T15:29:30Z</time></trkpt><trkpt lat="44.6984195021583" lon="10.11303736819766"><ele>140.0</ele><time>2026-05-02T15:29:31Z</time></trkpt><trkpt lat="44.69863007902784" lon="10.113072839518859"><ele>139.0</ele><time>2026-05-02T15:29:32Z</time></trkpt><trkpt lat="44.69883571847548" lon="10.113108520017212"><ele>138.0</ele><time>2026-05-02T15:29:33Z</time></trkpt><trkpt lat="44.699027622879406" lon="10.113140943367739"><ele>137.0</ele><time>2026-05-02T15:29:34Z</time></trkpt><trkpt lat="44.69920744409289" lon="10.113169890212543"><ele>137.0</ele><time>2026-05-02T15:29:35Z</time></trkpt><trkpt lat="44.69936229416687" lon="10.113200471858015"><ele>137.0</ele><time>2026-05-02T15:29:36Z</time></trkpt><trkpt lat="44.69949915658981" lon="10.11325664983207"><ele>137.0</ele><time>2026-05-02T15:29:37Z</time></trkpt><trkpt lat="44.699631361062245" lon="10.113321091266005"><ele>137.0</ele><time>2026-05-02T15:29:38Z</time></trkpt><trkpt lat="44.69975306672397" lon="10.113415812286236"><ele>138.0</ele><time>2026-05-02T15:29:39Z</time></trkpt><trkpt lat="44.69987266515581" lon="10.113515218567171"><ele>139.0</ele><time>2026-05-02T15:29:40Z</time></trkpt><trkpt lat="44.6999776460169" lon="10.113634025969862"><ele>140.0</ele><time>2026-05-02T15:29:41Z</time></trkpt><trkpt lat="44.70005894660527" lon="10.113793847557044"><ele>141.0</ele><time>2026-05-02T15:29:42Z</time></trkpt><trkpt lat="44.700150822852585" lon="10.113925001143606"><ele>140.5</ele><time>2026-05-02T15:29:43Z</time></trkpt><trkpt lat="44.700202415470386" lon="10.114091150383189"><ele>140.0</ele><time>2026-05-02T15:29:44Z</time></trkpt><trkpt lat="44.70026541351166" lon="10.11427513490671"><ele>139.5</ele><time>2026-05-02T15:29:45Z</time></trkpt><trkpt lat="44.70033077356691" lon="10.11450359293403"><ele>139.0</ele><time>2026-05-02T15:29:46Z</time></trkpt><trkpt lat="44.7003993231524" lon="10.114759647994997"><ele>140.0</ele><time>2026-05-02T15:29:47Z</time></trkpt><trkpt lat="44.70048342579303" lon="10.115021855997941"><ele>141.0</ele><time>2026-05-02T15:29:48Z</time></trkpt><trkpt lat="44.70054018573063" lon="10.11529266956777"><ele>142.0</ele><time>2026-05-02T15:29:49Z</time></trkpt><trkpt lat="44.700592647205006" lon="10.115571315515146"><ele>142.66666666666669</ele><time>2026-05-02T15:29:50Z</time></trkpt><trkpt lat="44.70062507540313" lon="10.115852461160452"><ele>143.33333333333334</ele><time>2026-05-02T15:29:51Z</time></trkpt><trkpt lat="44.70064398981601" lon="10.116140339810512"><ele>144.0</ele><time>2026-05-02T15:29:52Z</time></trkpt><trkpt lat="44.70067798805492" lon="10.116429421347085"><ele>144.66666666666666</ele><time>2026-05-02T15:29:53Z</time></trkpt><trkpt lat="44.70072843574009" lon="10.116715447850332"><ele>145.33333333333331</ele><time>2026-05-02T15:29:54Z</time></trkpt><trkpt lat="44.70079039587883" lon="10.117010817003143"><ele>146.0</ele><time>2026-05-02T15:29:55Z</time></trkpt><trkpt lat="44.70085444947607" lon="10.11729362135461"><ele>146.33333333333331</ele><time>2026-05-02T15:29:56Z</time></trkpt><trkpt lat="44.70091467578282" lon="10.117570095065092"><ele>146.66666666666666</ele><time>2026-05-02T15:29:57Z</time></trkpt><trkpt lat="44.70096291848534" lon="10.117842496782819"><ele>147.0</ele><time>2026-05-02T15:29:58Z</time></trkpt><trkpt lat="44.70098736091977" lon="10.118109386854202"><ele>148.0</ele><time>2026-05-02T15:29:59Z</time></trkpt><trkpt lat="44.7009965444082" lon="10.118379182653104"><ele>149.0</ele><time>2026-05-02T15:30:00Z</time></trkpt><trkpt lat="44.701005612478475" lon="10.118607643677523"><ele>150.0</ele><time>2026-05-02T15:30:01Z</time></trkpt><trkpt lat="44.70102880202228" lon="10.118851010003938"><ele>149.33333333333334</ele><time>2026-05-02T15:30:02Z</time></trkpt><trkpt lat="44.70104324367051" lon="10.11909327593461"><ele>148.66666666666669</ele><time>2026-05-02T15:30:03Z</time></trkpt><trkpt lat="44.701052153176065" lon="10.119348722044874"><ele>148.0</ele><time>2026-05-02T15:30:04Z</time></trkpt><trkpt lat="44.70105100725513" lon="10.119611875706536"><ele>148.0</ele><time>2026-05-02T15:30:05Z</time></trkpt><trkpt lat="44.70102332541608" lon="10.119882807315403"><ele>148.0</ele><time>2026-05-02T15:30:06Z</time></trkpt><trkpt lat="44.70096168581894" lon="10.120141646338242"><ele>148.0</ele><time>2026-05-02T15:30:07Z</time></trkpt><trkpt lat="44.70089249852244" lon="10.120394718130333"><ele>147.0</ele><time>2026-05-02T15:30:08Z</time></trkpt><trkpt lat="44.70083872163039" lon="10.120670562105934"><ele>146.0</ele><time>2026-05-02T15:30:09Z</time></trkpt><trkpt lat="44.70080669978381" lon="10.120956251663642"><ele>145.0</ele><time>2026-05-02T15:30:10Z</time></trkpt><trkpt lat="44.700799180056784" lon="10.121232066373954"><ele>143.0</ele><time>2026-05-02T15:30:11Z</time></trkpt><trkpt lat="44.70081995316592" lon="10.121514326736555"><ele>141.0</ele><time>2026-05-02T15:30:12Z</time></trkpt><trkpt lat="44.70085612652409" lon="10.121799715764084"><ele>139.0</ele><time>2026-05-02T15:30:13Z</time></trkpt><trkpt lat="44.70090831572096" lon="10.122091493776978"><ele>139.33333333333334</ele><time>2026-05-02T15:30:14Z</time></trkpt><trkpt lat="44.70097832787737" lon="10.12237165607111"><ele>139.66666666666666</ele><time>2026-05-02T15:30:15Z</time></trkpt><trkpt lat="44.70104769556639" lon="10.12263455326271"><ele>140.0</ele><time>2026-05-02T15:30:16Z</time></trkpt><trkpt lat="44.70111694195999" lon="10.122866814963395"><ele>140.66666666666666</ele><time>2026-05-02T15:30:17Z</time></trkpt><trkpt lat="44.70119176385418" lon="10.123059726922678"><ele>141.33333333333334</ele><time>2026-05-02T15:30:18Z</time></trkpt><trkpt lat="44.701264971640676" lon="10.123274817054543"><ele>142.0</ele><time>2026-05-02T15:30:19Z</time></trkpt><trkpt lat="44.70132721899371" lon="10.123446441370803"><ele>142.66666666666669</ele><time>2026-05-02T15:30:20Z</time></trkpt><trkpt lat="44.70137929271642" lon="10.123578908995368"><ele>143.33333333333334</ele><time>2026-05-02T15:30:21Z</time></trkpt><trkpt lat="44.701422263037806" lon="10.123677583565529"><ele>144.0</ele><time>2026-05-02T15:30:22Z</time></trkpt><trkpt lat="44.70147005611999" lon="10.123801772999402"><ele>144.66666666666666</ele><time>2026-05-02T15:30:24Z</time></trkpt><trkpt lat="44.70151163338717" lon="10.123909659356173"><ele>145.33333333333331</ele><time>2026-05-02T15:30:26Z</time></trkpt><trkpt lat="44.70154722807018" lon="10.123987777271031"><ele>146.0</ele><time>2026-05-02T15:30:27Z</time></trkpt><trkpt lat="44.70159086432275" lon="10.12408354377468"><ele>146.0</ele><time>2026-05-02T15:30:28Z</time></trkpt><trkpt lat="44.70165143013824" lon="10.124181352545733"><ele>146.0</ele><time>2026-05-02T15:30:29.999Z</time></trkpt><trkpt lat="44.701696893756015" lon="10.124286859258769"><ele>146.0</ele><time>2026-05-02T15:30:31.999Z</time></trkpt><trkpt lat="44.70176358829703" lon="10.124431057698784"><ele>146.0</ele><time>2026-05-02T15:30:33.999Z</time></trkpt><trkpt lat="44.70180681049766" lon="10.124531756237477"><ele>146.0</ele><time>2026-05-02T15:30:34.999Z</time></trkpt><trkpt lat="44.70185944604369" lon="10.124660008178685"><ele>146.0</ele><time>2026-05-02T15:30:35.999Z</time></trkpt><trkpt lat="44.70191334504172" lon="10.124785097418131"><ele>146.0</ele><time>2026-05-02T15:30:36.999Z</time></trkpt><trkpt lat="44.70196665603438" lon="10.12490418609486"><ele>146.0</ele><time>2026-05-02T15:30:37.999Z</time></trkpt><trkpt lat="44.70202704075586" lon="10.125024443933091"><ele>146.0</ele><time>2026-05-02T15:30:38.999Z</time></trkpt><trkpt lat="44.70209129681618" lon="10.125164392893135"><ele>146.0</ele><time>2026-05-02T15:30:39.999Z</time></trkpt><trkpt lat="44.70215699876837" lon="10.12530814602852"><ele>145.75</ele><time>2026-05-02T15:30:40.999Z</time></trkpt><trkpt lat="44.70222175754924" lon="10.125448394087593"><ele>145.5</ele><time>2026-05-02T15:30:41.999Z</time></trkpt><trkpt lat="44.702286988572624" lon="10.125599977535801"><ele>145.25</ele><time>2026-05-02T15:30:42.999Z</time></trkpt><trkpt lat="44.70234921459174" lon="10.125743866514712"><ele>145.0</ele><time>2026-05-02T15:30:43.999Z</time></trkpt><trkpt lat="44.70241543633806" lon="10.125893341678724"><ele>145.0</ele><time>2026-05-02T15:30:44.999Z</time></trkpt><trkpt lat="44.702481256024" lon="10.126028149079005"><ele>145.0</ele><time>2026-05-02T15:30:45.999Z</time></trkpt><trkpt lat="44.70254224125685" lon="10.126146739019683"><ele>145.0</ele><time>2026-05-02T15:30:46.999Z</time></trkpt><trkpt lat="44.70259140380728" lon="10.126266861441104"><ele>145.0</ele><time>2026-05-02T15:30:47.999Z</time></trkpt><trkpt lat="44.70262821266646" lon="10.126375396843818"><ele>145.0</ele><time>2026-05-02T15:30:48.999Z</time></trkpt><trkpt lat="44.70264122599408" lon="10.126468838297507"><ele>145.0</ele><time>2026-05-02T15:30:49.999Z</time></trkpt><trkpt lat="44.70263768256251" lon="10.126559351186378"><ele>145.0</ele><time>2026-05-02T15:30:50.999Z</time></trkpt><trkpt lat="44.70264905408069" lon="10.126666325247921"><ele>145.0</ele><time>2026-05-02T15:30:51.999Z</time></trkpt><trkpt lat="44.7027053228152" lon="10.12675618530225"><ele>145.0</ele><time>2026-05-02T15:30:52.999Z</time></trkpt><trkpt lat="44.70279125091493" lon="10.126820932147735"><ele>145.0</ele><time>2026-05-02T15:30:53.999Z</time></trkpt><trkpt lat="44.702871699054725" lon="10.126886660666923"><ele>145.0</ele><time>2026-05-02T15:30:54.999Z</time></trkpt><trkpt lat="44.70292690061359" lon="10.127019664376274"><ele>144.5</ele><time>2026-05-02T15:30:55.999Z</time></trkpt><trkpt lat="44.70299575129076" lon="10.127172202202322"><ele>144.0</ele><time>2026-05-02T15:30:56.999Z</time></trkpt><trkpt lat="44.70308449828418" lon="10.12734548502518"><ele>143.5</ele><time>2026-05-02T15:30:57.999Z</time></trkpt><trkpt lat="44.703163492660444" lon="10.12753345621663"><ele>143.0</ele><time>2026-05-02T15:30:58.999Z</time></trkpt><trkpt lat="44.70323851910272" lon="10.127706985109338"><ele>143.0</ele><time>2026-05-02T15:30:59.999Z</time></trkpt><trkpt lat="44.703317763859765" lon="10.127875489548515"><ele>143.0</ele><time>2026-05-02T15:31:00.999Z</time></trkpt><trkpt lat="44.7033975732713" lon="10.128059409252732"><ele>143.0</ele><time>2026-05-02T15:31:01.999Z</time></trkpt><trkpt lat="44.70348021786084" lon="10.128249475873547"><ele>142.66666666666666</ele><time>2026-05-02T15:31:02.999Z</time></trkpt><trkpt lat="44.70356302311602" lon="10.128434823316104"><ele>142.33333333333334</ele><time>2026-05-02T15:31:03.999Z</time></trkpt><trkpt lat="44.70364151339735" lon="10.128621467213785"><ele>142.0</ele><time>2026-05-02T15:31:04.999Z</time></trkpt><trkpt lat="44.703719296121825" lon="10.128809276114453"><ele>141.33333333333334</ele><time>2026-05-02T15:31:05.999Z</time></trkpt><trkpt lat="44.70381173744187" lon="10.128989806486963"><ele>140.66666666666666</ele><time>2026-05-02T15:31:06.999Z</time></trkpt><trkpt lat="44.70390120400323" lon="10.129179254205681"><ele>140.0</ele><time>2026-05-02T15:31:07.999Z</time></trkpt><trkpt lat="44.70400558571677" lon="10.129388786037179"><ele>140.0</ele><time>2026-05-02T15:31:08.999Z</time></trkpt><trkpt lat="44.70409357915753" lon="10.129585556569374"><ele>140.0</ele><time>2026-05-02T15:31:09.999Z</time></trkpt><trkpt lat="44.70418513493387" lon="10.129777429927733"><ele>140.0</ele><time>2026-05-02T15:31:10.999Z</time></trkpt><trkpt lat="44.70428002496926" lon="10.12998254786912"><ele>140.33333333333331</ele><time>2026-05-02T15:31:11.999Z</time></trkpt><trkpt lat="44.704380464200774" lon="10.130196287374334"><ele>140.66666666666666</ele><time>2026-05-02T15:31:12.999Z</time></trkpt><trkpt lat="44.704484736540515" lon="10.130399517196404"><ele>141.0</ele><time>2026-05-02T15:31:13.999Z</time></trkpt><trkpt lat="44.704582664144546" lon="10.130608569534818"><ele>140.0</ele><time>2026-05-02T15:31:14.999Z</time></trkpt><trkpt lat="44.704694347959865" lon="10.130824205578278"><ele>139.0</ele><time>2026-05-02T15:31:15.999Z</time></trkpt><trkpt lat="44.70480477073176" lon="10.131038864864223"><ele>138.0</ele><time>2026-05-02T15:31:16.999Z</time></trkpt><trkpt lat="44.704907166323544" lon="10.131254839001869"><ele>138.0</ele><time>2026-05-02T15:31:17.999Z</time></trkpt><trkpt lat="44.70499936134513" lon="10.131473901742961"><ele>138.0</ele><time>2026-05-02T15:31:18.999Z</time></trkpt><trkpt lat="44.70509691546917" lon="10.13166802774994"><ele>138.0</ele><time>2026-05-02T15:31:19.999Z</time></trkpt><trkpt lat="44.70520374905316" lon="10.131841056916118"><ele>138.66666666666666</ele><time>2026-05-02T15:31:20.999Z</time></trkpt><trkpt lat="44.70527849840441" lon="10.132036028255845"><ele>139.33333333333331</ele><time>2026-05-02T15:31:21.999Z</time></trkpt><trkpt lat="44.70536977308525" lon="10.13222559080404"><ele>140.0</ele><time>2026-05-02T15:31:23Z</time></trkpt><trkpt lat="44.7054587351962" lon="10.132409232214888"><ele>140.66666666666666</ele><time>2026-05-02T15:31:24Z</time></trkpt><trkpt lat="44.70554420261049" lon="10.132581900707743"><ele>141.33333333333334</ele><time>2026-05-02T15:31:25Z</time></trkpt><trkpt lat="44.70563287899435" lon="10.132761052359635"><ele>142.0</ele><time>2026-05-02T15:31:26Z</time></trkpt><trkpt lat="44.705722983438704" lon="10.132941964102246"><ele>142.0</ele><time>2026-05-02T15:31:27Z</time></trkpt><trkpt lat="44.70582204390343" lon="10.13313996148184"><ele>142.0</ele><time>2026-05-02T15:31:28Z</time></trkpt><trkpt lat="44.70593891885706" lon="10.133373568305462"><ele>142.0</ele><time>2026-05-02T15:31:29Z</time></trkpt><trkpt lat="44.70606242995069" lon="10.133605113550034"><ele>141.66666666666669</ele><time>2026-05-02T15:31:30Z</time></trkpt><trkpt lat="44.70619722398638" lon="10.133852088628695"><ele>141.33333333333334</ele><time>2026-05-02T15:31:31Z</time></trkpt><trkpt lat="44.70634463614571" lon="10.134090319451042"><ele>141.0</ele><time>2026-05-02T15:31:32Z</time></trkpt><trkpt lat="44.706482159779384" lon="10.134340842296591"><ele>142.0</ele><time>2026-05-02T15:31:33Z</time></trkpt><trkpt lat="44.706619893972544" lon="10.134595780804"><ele>143.0</ele><time>2026-05-02T15:31:34Z</time></trkpt><trkpt lat="44.706757838475035" lon="10.134848279620318"><ele>142.0</ele><time>2026-05-02T15:31:35Z</time></trkpt><trkpt lat="44.706890859310946" lon="10.135097973309305"><ele>141.0</ele><time>2026-05-02T15:31:36Z</time></trkpt><trkpt lat="44.707025658458534" lon="10.135346640604848"><ele>140.0</ele><time>2026-05-02T15:31:37Z</time></trkpt><trkpt lat="44.707144257494846" lon="10.13560882535397"><ele>138.0</ele><time>2026-05-02T15:31:38Z</time></trkpt><trkpt lat="44.707279378348325" lon="10.13585903673108"><ele>136.0</ele><time>2026-05-02T15:31:39Z</time></trkpt><trkpt lat="44.707427663765834" lon="10.136101394048339"><ele>136.0</ele><time>2026-05-02T15:31:40Z</time></trkpt><trkpt lat="44.70755112604803" lon="10.136339437706534"><ele>136.0</ele><time>2026-05-02T15:31:41Z</time></trkpt><trkpt lat="44.70767134825464" lon="10.13657006149286"><ele>136.0</ele><time>2026-05-02T15:31:42Z</time></trkpt><trkpt lat="44.70779053331793" lon="10.136798644258493"><ele>136.66666666666669</ele><time>2026-05-02T15:31:43Z</time></trkpt><trkpt lat="44.70790781345204" lon="10.137018608056442"><ele>137.33333333333334</ele><time>2026-05-02T15:31:44Z</time></trkpt><trkpt lat="44.70802789159023" lon="10.137239152552608"><ele>138.0</ele><time>2026-05-02T15:31:45Z</time></trkpt><trkpt lat="44.70814361785492" lon="10.13745844344285"><ele>138.33333333333334</ele><time>2026-05-02T15:31:46Z</time></trkpt><trkpt lat="44.70826417696766" lon="10.137685021596267"><ele>138.66666666666669</ele><time>2026-05-02T15:31:47Z</time></trkpt><trkpt lat="44.7083830556927" lon="10.137909479385533"><ele>139.0</ele><time>2026-05-02T15:31:48Z</time></trkpt><trkpt lat="44.70850308428206" lon="10.138136621190446"><ele>138.33333333333334</ele><time>2026-05-02T15:31:49Z</time></trkpt><trkpt lat="44.7086262055442" lon="10.138366063350443"><ele>137.66666666666666</ele><time>2026-05-02T15:31:50Z</time></trkpt><trkpt lat="44.70874682759784" lon="10.138595436114608"><ele>137.0</ele><time>2026-05-02T15:31:51Z</time></trkpt><trkpt lat="44.70886769865167" lon="10.138817647668589"><ele>137.0</ele><time>2026-05-02T15:31:52Z</time></trkpt><trkpt lat="44.70898404946215" lon="10.139048382578714"><ele>137.0</ele><time>2026-05-02T15:31:53Z</time></trkpt><trkpt lat="44.70909802914843" lon="10.139269472069094"><ele>137.0</ele><time>2026-05-02T15:31:54Z</time></trkpt><trkpt lat="44.70921625596021" lon="10.139480475795587"><ele>137.66666666666666</ele><time>2026-05-02T15:31:55Z</time></trkpt><trkpt lat="44.70934397128063" lon="10.139685900373566"><ele>138.33333333333334</ele><time>2026-05-02T15:31:56Z</time></trkpt><trkpt lat="44.70948527416479" lon="10.1398690414497"><ele>139.0</ele><time>2026-05-02T15:31:57Z</time></trkpt><trkpt lat="44.70963889667193" lon="10.140036669228989"><ele>137.66666666666669</ele><time>2026-05-02T15:31:58Z</time></trkpt><trkpt lat="44.709806177506195" lon="10.140203321890215"><ele>136.33333333333334</ele><time>2026-05-02T15:31:59Z</time></trkpt><trkpt lat="44.7099508162643" lon="10.140370105374572"><ele>135.0</ele><time>2026-05-02T15:32:00Z</time></trkpt><trkpt lat="44.710101916730885" lon="10.140526663922094"><ele>135.0</ele><time>2026-05-02T15:32:01Z</time></trkpt><trkpt lat="44.71021571395045" lon="10.140668546874924"><ele>135.0</ele><time>2026-05-02T15:32:02Z</time></trkpt><trkpt lat="44.71034009587059" lon="10.140838350114164"><ele>135.0</ele><time>2026-05-02T15:32:03Z</time></trkpt><trkpt lat="44.7105263010856" lon="10.141053081181667"><ele>135.0</ele><time>2026-05-02T15:32:04Z</time></trkpt><trkpt lat="44.71069245277381" lon="10.141307399120773"><ele>135.0</ele><time>2026-05-02T15:32:05Z</time></trkpt><trkpt lat="44.71077468067583" lon="10.141511953940508"><ele>135.0</ele><time>2026-05-02T15:32:06Z</time></trkpt><trkpt lat="44.71087928333363" lon="10.141701042633926"><ele>135.0</ele><time>2026-05-02T15:32:07Z</time></trkpt><trkpt lat="44.710980694131074" lon="10.141872034097133"><ele>135.0</ele><time>2026-05-02T15:32:08Z</time></trkpt><trkpt lat="44.71112342495052" lon="10.142081544008638"><ele>135.0</ele><time>2026-05-02T15:32:09Z</time></trkpt><trkpt lat="44.711258497138004" lon="10.142262081085441"><ele>135.0</ele><time>2026-05-02T15:32:10Z</time></trkpt><trkpt lat="44.71142026330373" lon="10.14242318593095"><ele>135.0</ele><time>2026-05-02T15:32:11Z</time></trkpt><trkpt lat="44.7115940515585" lon="10.142623627938207"><ele>135.0</ele><time>2026-05-02T15:32:12Z</time></trkpt><trkpt lat="44.711741915598594" lon="10.142741369104153"><ele>134.0</ele><time>2026-05-02T15:32:13Z</time></trkpt><trkpt lat="44.71192802483522" lon="10.142928477186178"><ele>133.0</ele><time>2026-05-02T15:32:14Z</time></trkpt><trkpt lat="44.712055959187964" lon="10.143056518431262"><ele>132.0</ele><time>2026-05-02T15:32:15Z</time></trkpt><trkpt lat="44.71214889257009" lon="10.143162664460421"><ele>132.5</ele><time>2026-05-02T15:32:16Z</time></trkpt><trkpt lat="44.71222544666434" lon="10.143244634814149"><ele>133.0</ele><time>2026-05-02T15:32:17Z</time></trkpt><trkpt lat="44.71234787641547" lon="10.143368247617486"><ele>133.5</ele><time>2026-05-02T15:32:18Z</time></trkpt><trkpt lat="44.71245027047101" lon="10.143478924392753"><ele>134.0</ele><time>2026-05-02T15:32:19Z</time></trkpt><trkpt lat="44.712563326792896" lon="10.143611675252806"><ele>134.0</ele><time>2026-05-02T15:32:20Z</time></trkpt><trkpt lat="44.71266707263449" lon="10.143767608396255"><ele>134.0</ele><time>2026-05-02T15:32:21Z</time></trkpt><trkpt lat="44.71275758877792" lon="10.143952150621537"><ele>134.0</ele><time>2026-05-02T15:32:22Z</time></trkpt><trkpt lat="44.712835474857975" lon="10.144162815016216"><ele>132.66666666666666</ele><time>2026-05-02T15:32:23Z</time></trkpt><trkpt lat="44.712920663801384" lon="10.144376416325708"><ele>131.33333333333334</ele><time>2026-05-02T15:32:24Z</time></trkpt><trkpt lat="44.71301239294301" lon="10.144581721088336"><ele>130.0</ele><time>2026-05-02T15:32:25Z</time></trkpt><trkpt lat="44.71310319351501" lon="10.144793879144231"><ele>130.33333333333334</ele><time>2026-05-02T15:32:26Z</time></trkpt><trkpt lat="44.71319889701542" lon="10.145009187786854"><ele>130.66666666666666</ele><time>2026-05-02T15:32:27Z</time></trkpt><trkpt lat="44.71329552516869" lon="10.14522609007962"><ele>131.0</ele><time>2026-05-02T15:32:28Z</time></trkpt><trkpt lat="44.71338894942889" lon="10.14543832578832"><ele>131.0</ele><time>2026-05-02T15:32:29Z</time></trkpt><trkpt lat="44.71347384111743" lon="10.145654597523984"><ele>131.0</ele><time>2026-05-02T15:32:30Z</time></trkpt><trkpt lat="44.71356529363208" lon="10.145869001299715"><ele>131.0</ele><time>2026-05-02T15:32:31Z</time></trkpt><trkpt lat="44.71366793315693" lon="10.146077135564408"><ele>131.0</ele><time>2026-05-02T15:32:32Z</time></trkpt><trkpt lat="44.7137697060457" lon="10.146286823617936"><ele>131.0</ele><time>2026-05-02T15:32:33Z</time></trkpt><trkpt lat="44.71386123999258" lon="10.146487488095735"><ele>131.0</ele><time>2026-05-02T15:32:33.999Z</time></trkpt><trkpt lat="44.71395369348382" lon="10.146678795192296"><ele>131.0</ele><time>2026-05-02T15:32:34.999Z</time></trkpt><trkpt lat="44.71404401758019" lon="10.146860367791332"><ele>131.0</ele><time>2026-05-02T15:32:35.999Z</time></trkpt><trkpt lat="44.71413305976045" lon="10.147029396410097"><ele>131.0</ele><time>2026-05-02T15:32:36.999Z</time></trkpt><trkpt lat="44.714216473494716" lon="10.147205577057223"><ele>131.0</ele><time>2026-05-02T15:32:37.999Z</time></trkpt><trkpt lat="44.714301944793824" lon="10.147381298299003"><ele>131.0</ele><time>2026-05-02T15:32:38.999Z</time></trkpt><trkpt lat="44.71438897002464" lon="10.147559074574216"><ele>131.0</ele><time>2026-05-02T15:32:39.999Z</time></trkpt><trkpt lat="44.71447361764504" lon="10.147733991239077"><ele>130.0</ele><time>2026-05-02T15:32:40.999Z</time></trkpt><trkpt lat="44.71455507616586" lon="10.14790107088102"><ele>129.0</ele><time>2026-05-02T15:32:41.999Z</time></trkpt><trkpt lat="44.714633098444665" lon="10.148074743411506"><ele>128.0</ele><time>2026-05-02T15:32:42.999Z</time></trkpt><trkpt lat="44.71470706937074" lon="10.148245368258758"><ele>127.0</ele><time>2026-05-02T15:32:43.999Z</time></trkpt><trkpt lat="44.714782161997995" lon="10.148429740759223"><ele>127.0</ele><time>2026-05-02T15:32:44.999Z</time></trkpt><trkpt lat="44.714843336734326" lon="10.148612696115055"><ele>127.0</ele><time>2026-05-02T15:32:45.999Z</time></trkpt><trkpt lat="44.714890138499555" lon="10.148812100970666"><ele>127.0</ele><time>2026-05-02T15:32:46.999Z</time></trkpt><trkpt lat="44.71493768380194" lon="10.149004108893823"><ele>127.0</ele><time>2026-05-02T15:32:47.999Z</time></trkpt><trkpt lat="44.71498751389931" lon="10.149193627292124"><ele>127.25</ele><time>2026-05-02T15:32:48.999Z</time></trkpt><trkpt lat="44.71504295225669" lon="10.149381902668228"><ele>127.5</ele><time>2026-05-02T15:32:49.999Z</time></trkpt><trkpt lat="44.715087117234454" lon="10.149570727425878"><ele>127.75</ele><time>2026-05-02T15:32:50.999Z</time></trkpt><trkpt lat="44.7151351077885" lon="10.1497513462942"><ele>128.0</ele><time>2026-05-02T15:32:51.999Z</time></trkpt><trkpt lat="44.7151831779607" lon="10.149934376524106"><ele>127.75</ele><time>2026-05-02T15:32:52.999Z</time></trkpt><trkpt lat="44.715222133887295" lon="10.150126302791199"><ele>127.5</ele><time>2026-05-02T15:32:53.999Z</time></trkpt><trkpt lat="44.715272045158606" lon="10.150302247948103"><ele>127.25</ele><time>2026-05-02T15:32:54.999Z</time></trkpt><trkpt lat="44.715342873260056" lon="10.150466593260985"><ele>127.0</ele><time>2026-05-02T15:32:55.999Z</time></trkpt><trkpt lat="44.715420604825646" lon="10.1506779310484"><ele>127.66666666666667</ele><time>2026-05-02T15:32:56.999Z</time></trkpt><trkpt lat="44.715518997668426" lon="10.15088419612291"><ele>128.33333333333334</ele><time>2026-05-02T15:32:57.999Z</time></trkpt><trkpt lat="44.71563393233133" lon="10.15110963966163"><ele>129.0</ele><time>2026-05-02T15:32:58.999Z</time></trkpt><trkpt lat="44.71577600594282" lon="10.151385138975424"><ele>130.0</ele><time>2026-05-02T15:32:59.999Z</time></trkpt><trkpt lat="44.71593739240919" lon="10.151693786953823"><ele>131.0</ele><time>2026-05-02T15:33:00.999Z</time></trkpt><trkpt lat="44.71610807552693" lon="10.152020275556666"><ele>132.0</ele><time>2026-05-02T15:33:01.999Z</time></trkpt><trkpt lat="44.716281395176" lon="10.15235180646488"><ele>133.0</ele><time>2026-05-02T15:33:02.999Z</time></trkpt><trkpt lat="44.7164381574539" lon="10.152652094146351"><ele>133.0</ele><time>2026-05-02T15:33:03.999Z</time></trkpt><trkpt lat="44.71658255755778" lon="10.152932156245845"><ele>133.0</ele><time>2026-05-02T15:33:04.999Z</time></trkpt><trkpt lat="44.7167070416574" lon="10.15318355209744"><ele>132.0</ele><time>2026-05-02T15:33:05.999Z</time></trkpt><trkpt lat="44.716835002946624" lon="10.153421478275181"><ele>131.0</ele><time>2026-05-02T15:33:06.999Z</time></trkpt><trkpt lat="44.71693934951036" lon="10.153664361159933"><ele>130.0</ele><time>2026-05-02T15:33:07.999Z</time></trkpt><trkpt lat="44.717039172514205" lon="10.153908010166424"><ele>129.66666666666669</ele><time>2026-05-02T15:33:08.999Z</time></trkpt><trkpt lat="44.71712923797076" lon="10.154168313034736"><ele>129.33333333333334</ele><time>2026-05-02T15:33:09.999Z</time></trkpt><trkpt lat="44.71721822876351" lon="10.15442926062711"><ele>129.0</ele><time>2026-05-02T15:33:10.999Z</time></trkpt><trkpt lat="44.717313398429184" lon="10.154691777045683"><ele>128.33333333333334</ele><time>2026-05-02T15:33:11.999Z</time></trkpt><trkpt lat="44.717407220742864" lon="10.154948681213718"><ele>127.66666666666667</ele><time>2026-05-02T15:33:12.999Z</time></trkpt><trkpt lat="44.71750433885049" lon="10.15520855689482"><ele>127.0</ele><time>2026-05-02T15:33:13.999Z</time></trkpt><trkpt lat="44.71759295600956" lon="10.15545889262621"><ele>127.0</ele><time>2026-05-02T15:33:14.999Z</time></trkpt><trkpt lat="44.717680498233484" lon="10.155700104920566"><ele>127.0</ele><time>2026-05-02T15:33:15.999Z</time></trkpt><trkpt lat="44.71776658416662" lon="10.155936485961483"><ele>127.0</ele><time>2026-05-02T15:33:16.999Z</time></trkpt><trkpt lat="44.71785047205079" lon="10.156176888901593"><ele>127.0</ele><time>2026-05-02T15:33:17.999Z</time></trkpt><trkpt lat="44.717938275106505" lon="10.156417348895591"><ele>127.0</ele><time>2026-05-02T15:33:18.999Z</time></trkpt><trkpt lat="44.71802794213568" lon="10.156688460876532"><ele>127.0</ele><time>2026-05-02T15:33:19.999Z</time></trkpt><trkpt lat="44.71812876627205" lon="10.156966751589067"><ele>127.33333333333334</ele><time>2026-05-02T15:33:20.999Z</time></trkpt><trkpt lat="44.7181946330599" lon="10.157116012540437"><ele>127.66666666666666</ele><time>2026-05-02T15:33:21.999Z</time></trkpt><trkpt lat="44.718278956891695" lon="10.157349743133143"><ele>128.0</ele><time>2026-05-02T15:33:22.999Z</time></trkpt><trkpt lat="44.71837402442103" lon="10.157604598539383"><ele>127.33333333333333</ele><time>2026-05-02T15:33:23.999Z</time></trkpt><trkpt lat="44.71845737601696" lon="10.157834705145861"><ele>126.66666666666666</ele><time>2026-05-02T15:33:24.999Z</time></trkpt><trkpt lat="44.718552595247886" lon="10.15807773491709"><ele>126.0</ele><time>2026-05-02T15:33:25.999Z</time></trkpt><trkpt lat="44.71863165690221" lon="10.158307063184813"><ele>124.66666666666666</ele><time>2026-05-02T15:33:26.999Z</time></trkpt><trkpt lat="44.71870939785302" lon="10.158552448582189"><ele>123.33333333333333</ele><time>2026-05-02T15:33:27.999Z</time></trkpt><trkpt lat="44.718804626939196" lon="10.158811022488088"><ele>122.0</ele><time>2026-05-02T15:33:29Z</time></trkpt><trkpt lat="44.71890560762029" lon="10.15908737355433"><ele>121.66666666666666</ele><time>2026-05-02T15:33:30Z</time></trkpt><trkpt lat="44.71900731341366" lon="10.159367171861978"><ele>121.33333333333334</ele><time>2026-05-02T15:33:31Z</time></trkpt><trkpt lat="44.719103088312565" lon="10.159636438330441"><ele>121.0</ele><time>2026-05-02T15:33:32Z</time></trkpt><trkpt lat="44.719199984264506" lon="10.159911450230245"><ele>122.5</ele><time>2026-05-02T15:33:33Z</time></trkpt><trkpt lat="44.719298623778585" lon="10.160198642158612"><ele>124.0</ele><time>2026-05-02T15:33:34Z</time></trkpt><trkpt lat="44.71939861145448" lon="10.160490681552494"><ele>122.5</ele><time>2026-05-02T15:33:35Z</time></trkpt><trkpt lat="44.719497507213845" lon="10.160788632767819"><ele>121.0</ele><time>2026-05-02T15:33:36Z</time></trkpt><trkpt lat="44.719596190108774" lon="10.161087130373971"><ele>121.0</ele><time>2026-05-02T15:33:37Z</time></trkpt><trkpt lat="44.71969406329071" lon="10.161383178839307"><ele>121.0</ele><time>2026-05-02T15:33:38Z</time></trkpt><trkpt lat="44.71978826823111" lon="10.161668131558994"><ele>121.66666666666667</ele><time>2026-05-02T15:33:39Z</time></trkpt><trkpt lat="44.719872907032766" lon="10.16192414854162"><ele>122.33333333333334</ele><time>2026-05-02T15:33:40Z</time></trkpt><trkpt lat="44.71996003548096" lon="10.162141246845692"><ele>123.0</ele><time>2026-05-02T15:33:41Z</time></trkpt><trkpt lat="44.72002583998649" lon="10.162339339522065"><ele>123.25</ele><time>2026-05-02T15:33:42Z</time></trkpt><trkpt lat="44.72008397447827" lon="10.162519349603985"><ele>123.5</ele><time>2026-05-02T15:33:43Z</time></trkpt><trkpt lat="44.720140347898436" lon="10.16269258251743"><ele>123.75</ele><time>2026-05-02T15:33:44Z</time></trkpt><trkpt lat="44.72020023106656" lon="10.162882832546343"><ele>124.0</ele><time>2026-05-02T15:33:45Z</time></trkpt><trkpt lat="44.72027377580547" lon="10.163106853201274"><ele>123.0</ele><time>2026-05-02T15:33:46Z</time></trkpt><trkpt lat="44.72035770406651" lon="10.163355364362129"><ele>122.0</ele><time>2026-05-02T15:33:47Z</time></trkpt><trkpt lat="44.72043419595217" lon="10.163636344075474"><ele>121.0</ele><time>2026-05-02T15:33:48Z</time></trkpt><trkpt lat="44.720528454266706" lon="10.163928857232923"><ele>120.5</ele><time>2026-05-02T15:33:49Z</time></trkpt><trkpt lat="44.720631199641396" lon="10.164251025796906"><ele>120.0</ele><time>2026-05-02T15:33:50Z</time></trkpt><trkpt lat="44.720732066849926" lon="10.164572527465717"><ele>119.5</ele><time>2026-05-02T15:33:51Z</time></trkpt><trkpt lat="44.720832165256624" lon="10.164893982264875"><ele>119.0</ele><time>2026-05-02T15:33:52Z</time></trkpt><trkpt lat="44.720931629733656" lon="10.165216074527564"><ele>119.0</ele><time>2026-05-02T15:33:53Z</time></trkpt><trkpt lat="44.721030892355145" lon="10.16553929547987"><ele>119.0</ele><time>2026-05-02T15:33:54Z</time></trkpt><trkpt lat="44.721125287157406" lon="10.165860452593437"><ele>118.5</ele><time>2026-05-02T15:33:55Z</time></trkpt><trkpt lat="44.721213371513294" lon="10.166162090464024"><ele>118.0</ele><time>2026-05-02T15:33:56Z</time></trkpt><trkpt lat="44.72129864590856" lon="10.16645869206433"><ele>117.5</ele><time>2026-05-02T15:33:57Z</time></trkpt><trkpt lat="44.72138906118539" lon="10.166773174396477"><ele>117.0</ele><time>2026-05-02T15:33:58Z</time></trkpt><trkpt lat="44.72148099270725" lon="10.167076005405182"><ele>117.0</ele><time>2026-05-02T15:33:59Z</time></trkpt><trkpt lat="44.721580701024244" lon="10.167351712561628"><ele>117.0</ele><time>2026-05-02T15:34:00Z</time></trkpt><trkpt lat="44.721673053573404" lon="10.167617299079712"><ele>117.0</ele><time>2026-05-02T15:34:01Z</time></trkpt><trkpt lat="44.72177519109361" lon="10.167870957518268"><ele>117.33333333333334</ele><time>2026-05-02T15:34:02Z</time></trkpt><trkpt lat="44.7218751515538" lon="10.16811222067603"><ele>117.66666666666667</ele><time>2026-05-02T15:34:03Z</time></trkpt><trkpt lat="44.72196776851665" lon="10.168350235513016"><ele>118.0</ele><time>2026-05-02T15:34:04Z</time></trkpt><trkpt lat="44.722060574214055" lon="10.168591945814812"><ele>118.33333333333334</ele><time>2026-05-02T15:34:05Z</time></trkpt><trkpt lat="44.72214886359582" lon="10.16882101580469"><ele>118.66666666666666</ele><time>2026-05-02T15:34:06Z</time></trkpt><trkpt lat="44.722231073586855" lon="10.169037113992959"><ele>119.0</ele><time>2026-05-02T15:34:07Z</time></trkpt><trkpt lat="44.72231979733615" lon="10.169263841021683"><ele>119.0</ele><time>2026-05-02T15:34:08Z</time></trkpt><trkpt lat="44.72241165813035" lon="10.16949355817444"><ele>119.0</ele><time>2026-05-02T15:34:09Z</time></trkpt><trkpt lat="44.72248982650903" lon="10.169713325722643"><ele>119.0</ele><time>2026-05-02T15:34:10Z</time></trkpt><trkpt lat="44.722567413627175" lon="10.169909754794226"><ele>119.0</ele><time>2026-05-02T15:34:11Z</time></trkpt><trkpt lat="44.72263922223411" lon="10.17009901589303"><ele>119.0</ele><time>2026-05-02T15:34:12Z</time></trkpt><trkpt lat="44.72270710174896" lon="10.17028239295357"><ele>119.0</ele><time>2026-05-02T15:34:13Z</time></trkpt><trkpt lat="44.7227807251645" lon="10.170469552890193"><ele>118.5</ele><time>2026-05-02T15:34:14Z</time></trkpt><trkpt lat="44.72284899306316" lon="10.17064906777225"><ele>118.0</ele><time>2026-05-02T15:34:15Z</time></trkpt><trkpt lat="44.72292369251955" lon="10.170842060295989"><ele>117.5</ele><time>2026-05-02T15:34:16Z</time></trkpt><trkpt lat="44.7229945640365" lon="10.171025831466784"><ele>117.0</ele><time>2026-05-02T15:34:17Z</time></trkpt><trkpt lat="44.7230671533995" lon="10.171207882465284"><ele>117.0</ele><time>2026-05-02T15:34:18Z</time></trkpt><trkpt lat="44.72313686428211" lon="10.171387523959798"><ele>117.0</ele><time>2026-05-02T15:34:19Z</time></trkpt><trkpt lat="44.72320836190279" lon="10.171568063916041"><ele>117.0</ele><time>2026-05-02T15:34:20Z</time></trkpt><trkpt lat="44.72327611958114" lon="10.171744478060209"><ele>117.0</ele><time>2026-05-02T15:34:21Z</time></trkpt><trkpt lat="44.72334335608354" lon="10.17191200173126"><ele>117.25</ele><time>2026-05-02T15:34:22Z</time></trkpt><trkpt lat="44.72341132598564" lon="10.172081035208281"><ele>117.5</ele><time>2026-05-02T15:34:23Z</time></trkpt><trkpt lat="44.72347577876605" lon="10.172249450868417"><ele>117.75</ele><time>2026-05-02T15:34:24Z</time></trkpt><trkpt lat="44.7235407833945" lon="10.172409342517916"><ele>118.0</ele><time>2026-05-02T15:34:25Z</time></trkpt><trkpt lat="44.72360302444919" lon="10.172556084239817"><ele>118.0</ele><time>2026-05-02T15:34:26Z</time></trkpt><trkpt lat="44.723662280763826" lon="10.172694581165677"><ele>118.00000000000001</ele><time>2026-05-02T15:34:27Z</time></trkpt><trkpt lat="44.72371625500614" lon="10.172823393028024"><ele>118.00000000000001</ele><time>2026-05-02T15:34:28Z</time></trkpt><trkpt lat="44.723771020746725" lon="10.172951674673813"><ele>118.0</ele><time>2026-05-02T15:34:29Z</time></trkpt><trkpt lat="44.723821946410034" lon="10.17306783256817"><ele>118.0</ele><time>2026-05-02T15:34:30Z</time></trkpt><trkpt lat="44.72387370059539" lon="10.173185671212059"><ele>118.0</ele><time>2026-05-02T15:34:31Z</time></trkpt><trkpt lat="44.723925392637796" lon="10.173307940774585"><ele>118.0</ele><time>2026-05-02T15:34:32Z</time></trkpt><trkpt lat="44.723981533759265" lon="10.173448050990126"><ele>118.0</ele><time>2026-05-02T15:34:33Z</time></trkpt><trkpt lat="44.72403553588483" lon="10.173600270805942"><ele>118.0</ele><time>2026-05-02T15:34:34Z</time></trkpt><trkpt lat="44.72409200279599" lon="10.173757515202038"><ele>118.0</ele><time>2026-05-02T15:34:35Z</time></trkpt><trkpt lat="44.72415103109314" lon="10.173920588114422"><ele>118.0</ele><time>2026-05-02T15:34:36Z</time></trkpt><trkpt lat="44.72421050240625" lon="10.174080947581727"><ele>118.0</ele><time>2026-05-02T15:34:37Z</time></trkpt><trkpt lat="44.72427895536442" lon="10.17424806586059"><ele>118.0</ele><time>2026-05-02T15:34:38Z</time></trkpt><trkpt lat="44.72434514607428" lon="10.174411811057798"><ele>118.0</ele><time>2026-05-02T15:34:38.999Z</time></trkpt><trkpt lat="44.724408724554706" lon="10.17455530120429"><ele>118.00000000000001</ele><time>2026-05-02T15:34:39.999Z</time></trkpt><trkpt lat="44.72446545939092" lon="10.174691757452681"><ele>118.00000000000001</ele><time>2026-05-02T15:34:40.999Z</time></trkpt><trkpt lat="44.72451936676921" lon="10.174826863157795"><ele>118.0</ele><time>2026-05-02T15:34:41.999Z</time></trkpt><trkpt lat="44.72456887634233" lon="10.174956310953306"><ele>118.0</ele><time>2026-05-02T15:34:42.999Z</time></trkpt><trkpt lat="44.724630345347414" lon="10.175096136316961"><ele>118.0</ele><time>2026-05-02T15:34:43.999Z</time></trkpt><trkpt lat="44.72469052254212" lon="10.175239285843432"><ele>118.0</ele><time>2026-05-02T15:34:44.999Z</time></trkpt><trkpt lat="44.72475649743632" lon="10.175388164042365"><ele>118.0</ele><time>2026-05-02T15:34:45.999Z</time></trkpt><trkpt lat="44.72482436008287" lon="10.175544304748454"><ele>118.0</ele><time>2026-05-02T15:34:46.999Z</time></trkpt><trkpt lat="44.72489297770524" lon="10.175704678880656"><ele>118.0</ele><time>2026-05-02T15:34:47.999Z</time></trkpt><trkpt lat="44.724965639260766" lon="10.17587258591932"><ele>118.0</ele><time>2026-05-02T15:34:48.999Z</time></trkpt><trkpt lat="44.72504233756623" lon="10.176037254519505"><ele>118.0</ele><time>2026-05-02T15:34:49.999Z</time></trkpt><trkpt lat="44.725128567007026" lon="10.176198789630545"><ele>118.0</ele><time>2026-05-02T15:34:50.999Z</time></trkpt><trkpt lat="44.725193582730995" lon="10.176375362193824"><ele>117.0</ele><time>2026-05-02T15:34:51.999Z</time></trkpt><trkpt lat="44.725272701385435" lon="10.176540205123693"><ele>116.0</ele><time>2026-05-02T15:34:52.999Z</time></trkpt><trkpt lat="44.72534891232467" lon="10.176698989843139"><ele>115.0</ele><time>2026-05-02T15:34:53.999Z</time></trkpt><trkpt lat="44.72543800354401" lon="10.17685566506055"><ele>114.0</ele><time>2026-05-02T15:34:54.999Z</time></trkpt><trkpt lat="44.72551363331213" lon="10.177023357806721"><ele>114.0</ele><time>2026-05-02T15:34:55.999Z</time></trkpt><trkpt lat="44.72559160627806" lon="10.177185056461035"><ele>114.0</ele><time>2026-05-02T15:34:56.999Z</time></trkpt><trkpt lat="44.72566975530626" lon="10.177346766924607"><ele>114.0</ele><time>2026-05-02T15:34:57.999Z</time></trkpt><trkpt lat="44.72574501616197" lon="10.177511048871537"><ele>114.0</ele><time>2026-05-02T15:34:58.999Z</time></trkpt><trkpt lat="44.72582351542694" lon="10.177677723924127"><ele>114.0</ele><time>2026-05-02T15:34:59.999Z</time></trkpt><trkpt lat="44.725904033660385" lon="10.177845653607001"><ele>114.0</ele><time>2026-05-02T15:35:00.999Z</time></trkpt><trkpt lat="44.725988705311885" lon="10.178011722151934"><ele>114.0</ele><time>2026-05-02T15:35:01.999Z</time></trkpt><trkpt lat="44.72607551771877" lon="10.17818336280203"><ele>114.0</ele><time>2026-05-02T15:35:02.999Z</time></trkpt><trkpt lat="44.726169155920246" lon="10.178354157910123"><ele>114.0</ele><time>2026-05-02T15:35:03.999Z</time></trkpt><trkpt lat="44.726267276647974" lon="10.178521936812395"><ele>114.0</ele><time>2026-05-02T15:35:04.999Z</time></trkpt><trkpt lat="44.72637216058167" lon="10.178689971541335"><ele>114.0</ele><time>2026-05-02T15:35:05.999Z</time></trkpt><trkpt lat="44.72647936358801" lon="10.178849084095688"><ele>114.0</ele><time>2026-05-02T15:35:06.999Z</time></trkpt><trkpt lat="44.72656637474227" lon="10.178985597859265"><ele>114.0</ele><time>2026-05-02T15:35:07.999Z</time></trkpt><trkpt lat="44.72670979320524" lon="10.179188564200258"><ele>114.0</ele><time>2026-05-02T15:35:08.999Z</time></trkpt><trkpt lat="44.726833968693974" lon="10.179340768007737"><ele>113.5</ele><time>2026-05-02T15:35:09.999Z</time></trkpt><trkpt lat="44.72694851151631" lon="10.179472966741322"><ele>113.0</ele><time>2026-05-02T15:35:10.999Z</time></trkpt><trkpt lat="44.727059737758" lon="10.17959961781093"><ele>112.5</ele><time>2026-05-02T15:35:11.999Z</time></trkpt><trkpt lat="44.72716667892303" lon="10.179726663523748"><ele>112.0</ele><time>2026-05-02T15:35:12.999Z</time></trkpt><trkpt lat="44.7272654147562" lon="10.179844633937524"><ele>112.5</ele><time>2026-05-02T15:35:13.999Z</time></trkpt><trkpt lat="44.72737785644836" lon="10.17996881025197"><ele>113.0</ele><time>2026-05-02T15:35:14.999Z</time></trkpt><trkpt lat="44.72749443600065" lon="10.180097470849834"><ele>113.5</ele><time>2026-05-02T15:35:15.999Z</time></trkpt><trkpt lat="44.72761144483401" lon="10.1802255873234"><ele>114.0</ele><time>2026-05-02T15:35:16.999Z</time></trkpt><trkpt lat="44.727714478831544" lon="10.180368866028717"><ele>114.25</ele><time>2026-05-02T15:35:17.999Z</time></trkpt><trkpt lat="44.72782795698449" lon="10.18049624677698"><ele>114.5</ele><time>2026-05-02T15:35:18.999Z</time></trkpt><trkpt lat="44.727935554010216" lon="10.180615959929845"><ele>114.75</ele><time>2026-05-02T15:35:19.999Z</time></trkpt><trkpt lat="44.72803845909031" lon="10.180729382931828"><ele>115.0</ele><time>2026-05-02T15:35:20.999Z</time></trkpt><trkpt lat="44.72814860322591" lon="10.180850784508316"><ele>115.0</ele><time>2026-05-02T15:35:21.999Z</time></trkpt><trkpt lat="44.72826973278235" lon="10.180964456018929"><ele>115.0</ele><time>2026-05-02T15:35:22.999Z</time></trkpt><trkpt lat="44.72838336373888" lon="10.181095486344045"><ele>115.0</ele><time>2026-05-02T15:35:23.999Z</time></trkpt><trkpt lat="44.728500687545356" lon="10.181219146981825"><ele>115.0</ele><time>2026-05-02T15:35:24.999Z</time></trkpt><trkpt lat="44.72861994926855" lon="10.181350622058357"><ele>114.66666666666667</ele><time>2026-05-02T15:35:25.999Z</time></trkpt><trkpt lat="44.72874309003932" lon="10.181508809610202"><ele>114.33333333333334</ele><time>2026-05-02T15:35:26.999Z</time></trkpt><trkpt lat="44.72888180408876" lon="10.181641355176042"><ele>114.0</ele><time>2026-05-02T15:35:27.999Z</time></trkpt><trkpt lat="44.7290165799506" lon="10.181792437038258"><ele>114.0</ele><time>2026-05-02T15:35:28.999Z</time></trkpt><trkpt lat="44.729149755658675" lon="10.181938927463335"><ele>114.0</ele><time>2026-05-02T15:35:29.999Z</time></trkpt><trkpt lat="44.729273681284624" lon="10.182070276276614"><ele>114.0</ele><time>2026-05-02T15:35:30.999Z</time></trkpt><trkpt lat="44.729388677730604" lon="10.182183232047247"><ele>114.0</ele><time>2026-05-02T15:35:31.999Z</time></trkpt><trkpt lat="44.72950120588331" lon="10.182309994202374"><ele>114.0</ele><time>2026-05-02T15:35:32.999Z</time></trkpt><trkpt lat="44.729617535960756" lon="10.182438934305818"><ele>114.0</ele><time>2026-05-02T15:35:33.999Z</time></trkpt><trkpt lat="44.72973446908925" lon="10.182569088116052"><ele>114.0</ele><time>2026-05-02T15:35:35Z</time></trkpt><trkpt lat="44.7298510583133" lon="10.182698530158408"><ele>114.0</ele><time>2026-05-02T15:35:36Z</time></trkpt><trkpt lat="44.7299674623602" lon="10.182824811136019"><ele>114.0</ele><time>2026-05-02T15:35:37Z</time></trkpt><trkpt lat="44.730084007810305" lon="10.182947323990058"><ele>114.0</ele><time>2026-05-02T15:35:38Z</time></trkpt><trkpt lat="44.73020151596018" lon="10.183071948123171"><ele>114.0</ele><time>2026-05-02T15:35:39Z</time></trkpt><trkpt lat="44.730321184150185" lon="10.183196912696548"><ele>113.0</ele><time>2026-05-02T15:35:40Z</time></trkpt><trkpt lat="44.730444420490436" lon="10.183324737833356"><ele>112.0</ele><time>2026-05-02T15:35:41Z</time></trkpt><trkpt lat="44.730571392091925" lon="10.183449929196094"><ele>111.0</ele><time>2026-05-02T15:35:42Z</time></trkpt><trkpt lat="44.730710286484936" lon="10.183570454802839"><ele>111.0</ele><time>2026-05-02T15:35:43Z</time></trkpt><trkpt lat="44.730849094018865" lon="10.183678582092194"><ele>111.0</ele><time>2026-05-02T15:35:44Z</time></trkpt><trkpt lat="44.73098753758715" lon="10.183782917389333"><ele>111.0</ele><time>2026-05-02T15:35:45Z</time></trkpt><trkpt lat="44.731120301271126" lon="10.183885813061215"><ele>111.0</ele><time>2026-05-02T15:35:46Z</time></trkpt><trkpt lat="44.731249632025595" lon="10.18399082688291"><ele>111.0</ele><time>2026-05-02T15:35:47Z</time></trkpt><trkpt lat="44.73138029752328" lon="10.184098761447244"><ele>111.0</ele><time>2026-05-02T15:35:48Z</time></trkpt><trkpt lat="44.731506921304614" lon="10.184198001426774"><ele>111.0</ele><time>2026-05-02T15:35:49Z</time></trkpt><trkpt lat="44.731622815876506" lon="10.184283556855227"><ele>110.75</ele><time>2026-05-02T15:35:50Z</time></trkpt><trkpt lat="44.73173981326991" lon="10.184362862406882"><ele>110.5</ele><time>2026-05-02T15:35:51Z</time></trkpt><trkpt lat="44.731851659778116" lon="10.184446387913"><ele>110.25</ele><time>2026-05-02T15:35:52Z</time></trkpt><trkpt lat="44.73196321673528" lon="10.184528095135917"><ele>110.0</ele><time>2026-05-02T15:35:53Z</time></trkpt><trkpt lat="44.732065281252204" lon="10.184648656519812"><ele>110.0</ele><time>2026-05-02T15:35:54Z</time></trkpt><trkpt lat="44.73217110072082" lon="10.184786565333557"><ele>110.0</ele><time>2026-05-02T15:35:55Z</time></trkpt><trkpt lat="44.73228073346404" lon="10.184900465983963"><ele>110.0</ele><time>2026-05-02T15:35:56Z</time></trkpt><trkpt lat="44.73237120175506" lon="10.185026233743772"><ele>110.0</ele><time>2026-05-02T15:35:57Z</time></trkpt><trkpt lat="44.73246282115557" lon="10.185146570702193"><ele>110.0</ele><time>2026-05-02T15:35:58Z</time></trkpt><trkpt lat="44.73254969636434" lon="10.185266663135533"><ele>110.0</ele><time>2026-05-02T15:35:59Z</time></trkpt><trkpt lat="44.732638259787606" lon="10.185383977039756"><ele>110.0</ele><time>2026-05-02T15:36:00Z</time></trkpt><trkpt lat="44.73274017547311" lon="10.185513087801537"><ele>110.0</ele><time>2026-05-02T15:36:01Z</time></trkpt><trkpt lat="44.73283806559124" lon="10.185667941467477"><ele>110.66666666666666</ele><time>2026-05-02T15:36:02Z</time></trkpt><trkpt lat="44.7329634379781" lon="10.18582629861822"><ele>111.33333333333334</ele><time>2026-05-02T15:36:03Z</time></trkpt><trkpt lat="44.73309898720064" lon="10.18599134830809"><ele>112.0</ele><time>2026-05-02T15:36:04Z</time></trkpt><trkpt lat="44.733235940493245" lon="10.186122644505096"><ele>112.0</ele><time>2026-05-02T15:36:05Z</time></trkpt><trkpt lat="44.73334853259284" lon="10.18625173624794"><ele>112.0</ele><time>2026-05-02T15:36:06Z</time></trkpt><trkpt lat="44.733456921387244" lon="10.18635946411775"><ele>112.0</ele><time>2026-05-02T15:36:07Z</time></trkpt><trkpt lat="44.73355643226717" lon="10.186446865864513"><ele>112.0</ele><time>2026-05-02T15:36:08Z</time></trkpt><trkpt lat="44.73364962749154" lon="10.18653558638775"><ele>112.25</ele><time>2026-05-02T15:36:09Z</time></trkpt><trkpt lat="44.73374953540139" lon="10.186630551011893"><ele>112.5</ele><time>2026-05-02T15:36:10Z</time></trkpt><trkpt lat="44.733846983637456" lon="10.18671994414336"><ele>112.75</ele><time>2026-05-02T15:36:11Z</time></trkpt><trkpt lat="44.73393665872731" lon="10.186802705968539"><ele>113.0</ele><time>2026-05-02T15:36:12Z</time></trkpt><trkpt lat="44.73402819806137" lon="10.186890320058938"><ele>113.0</ele><time>2026-05-02T15:36:13Z</time></trkpt><trkpt lat="44.734123938468706" lon="10.186975195942686"><ele>113.0</ele><time>2026-05-02T15:36:14Z</time></trkpt><trkpt lat="44.73422778764442" lon="10.187067926460413"><ele>113.0</ele><time>2026-05-02T15:36:15Z</time></trkpt><trkpt lat="44.734329173705135" lon="10.18716286237793"><ele>113.0</ele><time>2026-05-02T15:36:16Z</time></trkpt><trkpt lat="44.73443668631047" lon="10.187265499750524"><ele>112.75</ele><time>2026-05-02T15:36:17Z</time></trkpt><trkpt lat="44.734549993278044" lon="10.187369265216631"><ele>112.5</ele><time>2026-05-02T15:36:18Z</time></trkpt><trkpt lat="44.734665215886274" lon="10.187476801210034"><ele>112.25</ele><time>2026-05-02T15:36:19Z</time></trkpt><trkpt lat="44.73478304675733" lon="10.187575558990227"><ele>112.0</ele><time>2026-05-02T15:36:20Z</time></trkpt><trkpt lat="44.7349006214001" lon="10.187677037735382"><ele>112.0</ele><time>2026-05-02T15:36:21Z</time></trkpt><trkpt lat="44.73501932355649" lon="10.187777916586848"><ele>112.0</ele><time>2026-05-02T15:36:22Z</time></trkpt><trkpt lat="44.735135817115854" lon="10.187877405003825"><ele>112.0</ele><time>2026-05-02T15:36:23Z</time></trkpt><trkpt lat="44.73525361995065" lon="10.187980085510938"><ele>112.0</ele><time>2026-05-02T15:36:24Z</time></trkpt><trkpt lat="44.735372240365" lon="10.188084651344582"><ele>112.5</ele><time>2026-05-02T15:36:25Z</time></trkpt><trkpt lat="44.73548697674071" lon="10.18819032581458"><ele>113.0</ele><time>2026-05-02T15:36:26Z</time></trkpt><trkpt lat="44.735602382625494" lon="10.188298401114837"><ele>113.5</ele><time>2026-05-02T15:36:27Z</time></trkpt><trkpt lat="44.735719039327755" lon="10.188399534922661"><ele>114.0</ele><time>2026-05-02T15:36:28Z</time></trkpt><trkpt lat="44.735835466678026" lon="10.188496759144682"><ele>114.0</ele><time>2026-05-02T15:36:29Z</time></trkpt><trkpt lat="44.73594343574646" lon="10.188593629479273"><ele>114.0</ele><time>2026-05-02T15:36:30Z</time></trkpt><trkpt lat="44.736060353656185" lon="10.1886883349821"><ele>114.0</ele><time>2026-05-02T15:36:31Z</time></trkpt><trkpt lat="44.73616955431941" lon="10.188782501951966"><ele>114.0</ele><time>2026-05-02T15:36:32Z</time></trkpt><trkpt lat="44.736281968956554" lon="10.1888828124842"><ele>114.5</ele><time>2026-05-02T15:36:33Z</time></trkpt><trkpt lat="44.7363953169883" lon="10.188983037150072"><ele>115.0</ele><time>2026-05-02T15:36:34Z</time></trkpt><trkpt lat="44.73651246180775" lon="10.189081181805472"><ele>115.5</ele><time>2026-05-02T15:36:35Z</time></trkpt><trkpt lat="44.73663099964692" lon="10.189181897314722"><ele>116.0</ele><time>2026-05-02T15:36:36Z</time></trkpt><trkpt lat="44.736756484347815" lon="10.189296694946925"><ele>116.0</ele><time>2026-05-02T15:36:37Z</time></trkpt><trkpt lat="44.73687457547497" lon="10.18941536544022"><ele>116.0</ele><time>2026-05-02T15:36:38Z</time></trkpt><trkpt lat="44.73701223857677" lon="10.189526481196273"><ele>116.0</ele><time>2026-05-02T15:36:39Z</time></trkpt><trkpt lat="44.73714472617082" lon="10.189635744640134"><ele>115.75</ele><time>2026-05-02T15:36:40Z</time></trkpt><trkpt lat="44.73727542409051" lon="10.189736341660577"><ele>115.5</ele><time>2026-05-02T15:36:41Z</time></trkpt><trkpt lat="44.73740727519007" lon="10.189846239522511"><ele>115.25</ele><time>2026-05-02T15:36:42Z</time></trkpt><trkpt lat="44.73753208178173" lon="10.189949695056328"><ele>115.0</ele><time>2026-05-02T15:36:42.999Z</time></trkpt><trkpt lat="44.737632094285786" lon="10.190049121784849"><ele>115.0</ele><time>2026-05-02T15:36:43.999Z</time></trkpt><trkpt lat="44.737740977737786" lon="10.190136149997349"><ele>115.0</ele><time>2026-05-02T15:36:44.999Z</time></trkpt><trkpt lat="44.73784310016827" lon="10.190212629705874"><ele>115.0</ele><time>2026-05-02T15:36:45.999Z</time></trkpt><trkpt lat="44.73794599676713" lon="10.190294399705666"><ele>115.0</ele><time>2026-05-02T15:36:46.999Z</time></trkpt><trkpt lat="44.73804007720635" lon="10.19037838543645"><ele>115.0</ele><time>2026-05-02T15:36:47.999Z</time></trkpt><trkpt lat="44.73812405647536" lon="10.190456681328914"><ele>115.0</ele><time>2026-05-02T15:36:48.999Z</time></trkpt><trkpt lat="44.738175584240985" lon="10.190533794174419"><ele>115.0</ele><time>2026-05-02T15:36:49.999Z</time></trkpt><trkpt lat="44.738220312253986" lon="10.190606321932183"><ele>115.0</ele><time>2026-05-02T15:36:51.999Z</time></trkpt><trkpt lat="44.73811033652897" lon="10.190877282629671"><ele>115.0</ele><time>2026-05-02T15:36:53.999Z</time></trkpt><trkpt lat="44.738049284609495" lon="10.191062210165773"><ele>115.0</ele><time>2026-05-02T15:36:54.999Z</time></trkpt><trkpt lat="44.73798465783471" lon="10.191269713584914"><ele>115.0</ele><time>2026-05-02T15:36:55.999Z</time></trkpt><trkpt lat="44.73793913563153" lon="10.191468720407277"><ele>114.66666666666667</ele><time>2026-05-02T15:36:56.999Z</time></trkpt><trkpt lat="44.73787513982467" lon="10.191672690634322"><ele>114.33333333333334</ele><time>2026-05-02T15:36:57.999Z</time></trkpt><trkpt lat="44.73780910625294" lon="10.191881478393112"><ele>114.0</ele><time>2026-05-02T15:36:58.999Z</time></trkpt><trkpt lat="44.737752065458515" lon="10.192064841278494"><ele>114.2</ele><time>2026-05-02T15:36:59.999Z</time></trkpt><trkpt lat="44.737697409837544" lon="10.192219457777862"><ele>114.4</ele><time>2026-05-02T15:37:00.999Z</time></trkpt><trkpt lat="44.737613942126586" lon="10.192305995037895"><ele>114.6</ele><time>2026-05-02T15:37:01.999Z</time></trkpt><trkpt lat="44.737537877726766" lon="10.192371970623439"><ele>114.8</ele><time>2026-05-02T15:37:02.999Z</time></trkpt><trkpt lat="44.73744984813327" lon="10.192396328031963"><ele>115.0</ele><time>2026-05-02T15:37:03.999Z</time></trkpt><trkpt lat="44.737341802833306" lon="10.192400628120506"><ele>115.0</ele><time>2026-05-02T15:37:04.999Z</time></trkpt><trkpt lat="44.73721556685954" lon="10.192384453999999"><ele>115.0</ele><time>2026-05-02T15:37:05.999Z</time></trkpt><trkpt lat="44.73707222403274" lon="10.19237698879765"><ele>115.0</ele><time>2026-05-02T15:37:06.999Z</time></trkpt><trkpt lat="44.73691864917016" lon="10.192357734484503"><ele>115.0</ele><time>2026-05-02T15:37:07.999Z</time></trkpt><trkpt lat="44.7367514142582" lon="10.192337372261882"><ele>115.66666666666667</ele><time>2026-05-02T15:37:08.999Z</time></trkpt><trkpt lat="44.73657116825402" lon="10.192323838981954"><ele>116.33333333333334</ele><time>2026-05-02T15:37:09.999Z</time></trkpt><trkpt lat="44.736395792904084" lon="10.19230718914176"><ele>117.0</ele><time>2026-05-02T15:37:10.999Z</time></trkpt><trkpt lat="44.73621245739644" lon="10.192287349117311"><ele>118.66666666666666</ele><time>2026-05-02T15:37:11.999Z</time></trkpt><trkpt lat="44.73602228738971" lon="10.192270011067833"><ele>120.33333333333333</ele><time>2026-05-02T15:37:12.999Z</time></trkpt><trkpt lat="44.73583022646347" lon="10.19225240479536"><ele>122.0</ele><time>2026-05-02T15:37:13.999Z</time></trkpt><trkpt lat="44.73565052768656" lon="10.192228708407272"><ele>122.0</ele><time>2026-05-02T15:37:14.999Z</time></trkpt><trkpt lat="44.735470763130664" lon="10.192200219377154"><ele>122.0</ele><time>2026-05-02T15:37:15.999Z</time></trkpt><trkpt lat="44.73530371719197" lon="10.192180400114031"><ele>122.0</ele><time>2026-05-02T15:37:16.999Z</time></trkpt><trkpt lat="44.73512518746476" lon="10.192163364956535"><ele>124.0</ele><time>2026-05-02T15:37:17.999Z</time></trkpt><trkpt lat="44.734937511993195" lon="10.192164401672919"><ele>126.0</ele><time>2026-05-02T15:37:18.999Z</time></trkpt><trkpt lat="44.7347502562411" lon="10.192193051872872"><ele>128.0</ele><time>2026-05-02T15:37:19.999Z</time></trkpt><trkpt lat="44.734564412656646" lon="10.192257521998759"><ele>127.0</ele><time>2026-05-02T15:37:20.999Z</time></trkpt><trkpt lat="44.73439974300784" lon="10.192345114226292"><ele>126.0</ele><time>2026-05-02T15:37:21.999Z</time></trkpt><trkpt lat="44.734247078069956" lon="10.192439087326354"><ele>125.0</ele><time>2026-05-02T15:37:22.999Z</time></trkpt><trkpt lat="44.73409335153944" lon="10.192516922495056"><ele>125.0</ele><time>2026-05-02T15:37:23.999Z</time></trkpt><trkpt lat="44.73393868155232" lon="10.192568162585568"><ele>125.0</ele><time>2026-05-02T15:37:24.999Z</time></trkpt><trkpt lat="44.733792136260796" lon="10.19260888590346"><ele>125.0</ele><time>2026-05-02T15:37:25.999Z</time></trkpt><trkpt lat="44.733653603708184" lon="10.192649040978122"><ele>126.66666666666666</ele><time>2026-05-02T15:37:26.999Z</time></trkpt><trkpt lat="44.733505391087434" lon="10.192705514635309"><ele>128.33333333333334</ele><time>2026-05-02T15:37:27.999Z</time></trkpt><trkpt lat="44.73333245035118" lon="10.192734078246758"><ele>130.0</ele><time>2026-05-02T15:37:28.999Z</time></trkpt><trkpt lat="44.733149386787" lon="10.192786043613669"><ele>130.0</ele><time>2026-05-02T15:37:29.999Z</time></trkpt><trkpt lat="44.732972198290845" lon="10.192848262198327"><ele>130.0</ele><time>2026-05-02T15:37:30.999Z</time></trkpt><trkpt lat="44.73279369101702" lon="10.19289122588327"><ele>130.0</ele><time>2026-05-02T15:37:31.999Z</time></trkpt><trkpt lat="44.732612616317624" lon="10.192972051573234"><ele>131.33333333333334</ele><time>2026-05-02T15:37:32.999Z</time></trkpt><trkpt lat="44.73243367430167" lon="10.193088590407111"><ele>132.66666666666666</ele><time>2026-05-02T15:37:33.999Z</time></trkpt><trkpt lat="44.732261516016834" lon="10.193208939399574"><ele>134.0</ele><time>2026-05-02T15:37:34.999Z</time></trkpt><trkpt lat="44.73208318011513" lon="10.193323056737741"><ele>131.33333333333331</ele><time>2026-05-02T15:37:35.999Z</time></trkpt><trkpt lat="44.73189239994106" lon="10.19341584354503"><ele>128.66666666666666</ele><time>2026-05-02T15:37:36.999Z</time></trkpt><trkpt lat="44.731711523566695" lon="10.193550275044878"><ele>126.0</ele><time>2026-05-02T15:37:37.999Z</time></trkpt><trkpt lat="44.731525430792466" lon="10.193657167653015"><ele>126.0</ele><time>2026-05-02T15:37:38.999Z</time></trkpt><trkpt lat="44.73134035211645" lon="10.193762657732213"><ele>126.0</ele><time>2026-05-02T15:37:39.999Z</time></trkpt><trkpt lat="44.731147358397116" lon="10.193875825782312"><ele>126.0</ele><time>2026-05-02T15:37:41Z</time></trkpt><trkpt lat="44.73095791018725" lon="10.193987746530356"><ele>125.66666666666666</ele><time>2026-05-02T15:37:42Z</time></trkpt><trkpt lat="44.730768885679325" lon="10.194093651324655"><ele>125.33333333333333</ele><time>2026-05-02T15:37:43Z</time></trkpt><trkpt lat="44.73057685261487" lon="10.19419112949955"><ele>125.0</ele><time>2026-05-02T15:37:44Z</time></trkpt><trkpt lat="44.7303871506103" lon="10.194287129022714"><ele>125.0</ele><time>2026-05-02T15:37:45Z</time></trkpt><trkpt lat="44.73022570669501" lon="10.194366789571966"><ele>125.0</ele><time>2026-05-02T15:37:46Z</time></trkpt><trkpt lat="44.73006238437944" lon="10.194448344927508"><ele>125.0</ele><time>2026-05-02T15:37:47Z</time></trkpt><trkpt lat="44.72989827555463" lon="10.194510286559312"><ele>126.66666666666666</ele><time>2026-05-02T15:37:48Z</time></trkpt><trkpt lat="44.72973934337166" lon="10.19460259412001"><ele>128.33333333333334</ele><time>2026-05-02T15:37:49Z</time></trkpt><trkpt lat="44.729538245982255" lon="10.194512326361984"><ele>130.0</ele><time>2026-05-02T15:37:50Z</time></trkpt><trkpt lat="44.72932347408225" lon="10.194449677287007"><ele>131.0</ele><time>2026-05-02T15:37:51Z</time></trkpt><trkpt lat="44.72911275731789" lon="10.194392652676077"><ele>132.0</ele><time>2026-05-02T15:37:52Z</time></trkpt><trkpt lat="44.72890990902162" lon="10.194347563653855"><ele>133.0</ele><time>2026-05-02T15:37:53Z</time></trkpt><trkpt lat="44.72870758268731" lon="10.194307102008109"><ele>132.33333333333334</ele><time>2026-05-02T15:37:54Z</time></trkpt><trkpt lat="44.72849800072981" lon="10.194262983114747"><ele>131.66666666666666</ele><time>2026-05-02T15:37:55Z</time></trkpt><trkpt lat="44.72829342430935" lon="10.194212712453986"><ele>131.0</ele><time>2026-05-02T15:37:56Z</time></trkpt><trkpt lat="44.72808504825905" lon="10.19416093938807"><ele>131.0</ele><time>2026-05-02T15:37:57Z</time></trkpt><trkpt lat="44.72787857365598" lon="10.194121947722584"><ele>131.0</ele><time>2026-05-02T15:37:58Z</time></trkpt><trkpt lat="44.72767573862538" lon="10.194086986404649"><ele>131.0</ele><time>2026-05-02T15:37:59Z</time></trkpt><trkpt lat="44.72747373901773" lon="10.194045163377268"><ele>133.0</ele><time>2026-05-02T15:38:00Z</time></trkpt><trkpt lat="44.72727154335225" lon="10.194003638104492"><ele>135.0</ele><time>2026-05-02T15:38:01Z</time></trkpt><trkpt lat="44.72707686468669" lon="10.193968790556811"><ele>137.0</ele><time>2026-05-02T15:38:02Z</time></trkpt><trkpt lat="44.726879322729765" lon="10.193931391733775"><ele>137.0</ele><time>2026-05-02T15:38:03Z</time></trkpt><trkpt lat="44.72668617098824" lon="10.193894770806716"><ele>137.0</ele><time>2026-05-02T15:38:04Z</time></trkpt><trkpt lat="44.726497228969436" lon="10.193856296175447"><ele>137.0</ele><time>2026-05-02T15:38:05Z</time></trkpt><trkpt lat="44.7263112556642" lon="10.193816836720101"><ele>137.0</ele><time>2026-05-02T15:38:06Z</time></trkpt><trkpt lat="44.72614691768426" lon="10.193784968959633"><ele>137.0</ele><time>2026-05-02T15:38:07Z</time></trkpt><trkpt lat="44.726000425512716" lon="10.193753332169155"><ele>137.0</ele><time>2026-05-02T15:38:08Z</time></trkpt><trkpt lat="44.72586051621857" lon="10.193754784966984"><ele>137.0</ele><time>2026-05-02T15:38:09Z</time></trkpt><trkpt lat="44.72572722641545" lon="10.193836677521176"><ele>137.0</ele><time>2026-05-02T15:38:10Z</time></trkpt><trkpt lat="44.725588453080405" lon="10.193966947030896"><ele>137.0</ele><time>2026-05-02T15:38:11Z</time></trkpt><trkpt lat="44.725452670737056" lon="10.194062367921234"><ele>135.66666666666666</ele><time>2026-05-02T15:38:12Z</time></trkpt><trkpt lat="44.72529242992686" lon="10.19406977958399"><ele>134.33333333333334</ele><time>2026-05-02T15:38:13Z</time></trkpt><trkpt lat="44.7251063968595" lon="10.194036803554843"><ele>133.0</ele><time>2026-05-02T15:38:14Z</time></trkpt><trkpt lat="44.72490559537884" lon="10.194032312830364"><ele>133.0</ele><time>2026-05-02T15:38:15Z</time></trkpt><trkpt lat="44.72470335706392" lon="10.194109016877336"><ele>133.0</ele><time>2026-05-02T15:38:16Z</time></trkpt><trkpt lat="44.724493650105046" lon="10.194235489755"><ele>133.0</ele><time>2026-05-02T15:38:17Z</time></trkpt><trkpt lat="44.724276565948514" lon="10.194294314274781"><ele>132.66666666666669</ele><time>2026-05-02T15:38:18Z</time></trkpt><trkpt lat="44.724069815687855" lon="10.194322347210662"><ele>132.33333333333334</ele><time>2026-05-02T15:38:19Z</time></trkpt><trkpt lat="44.72386419934179" lon="10.194307946618276"><ele>132.0</ele><time>2026-05-02T15:38:20Z</time></trkpt><trkpt lat="44.72366066292179" lon="10.194264169096863"><ele>132.33333333333334</ele><time>2026-05-02T15:38:21Z</time></trkpt><trkpt lat="44.72345756812197" lon="10.19418494182402"><ele>132.66666666666669</ele><time>2026-05-02T15:38:22Z</time></trkpt><trkpt lat="44.72325617233953" lon="10.194116240668258"><ele>133.0</ele><time>2026-05-02T15:38:23Z</time></trkpt><trkpt lat="44.72306171129294" lon="10.194013688655076"><ele>133.66666666666669</ele><time>2026-05-02T15:38:24Z</time></trkpt><trkpt lat="44.722879060420894" lon="10.193881342768629"><ele>134.33333333333334</ele><time>2026-05-02T15:38:25Z</time></trkpt><trkpt lat="44.72270450570152" lon="10.193701437870647"><ele>135.0</ele><time>2026-05-02T15:38:26Z</time></trkpt><trkpt lat="44.72255160507443" lon="10.193509147661253"><ele>135.0</ele><time>2026-05-02T15:38:27Z</time></trkpt><trkpt lat="44.722407808720355" lon="10.193347502306034"><ele>135.0</ele><time>2026-05-02T15:38:28Z</time></trkpt><trkpt lat="44.722261374932" lon="10.193227328736365"><ele>135.0</ele><time>2026-05-02T15:38:29Z</time></trkpt><trkpt lat="44.72208599169389" lon="10.193147211244428"><ele>136.33333333333334</ele><time>2026-05-02T15:38:30Z</time></trkpt><trkpt lat="44.72189735907512" lon="10.193053171791924"><ele>137.66666666666669</ele><time>2026-05-02T15:38:31Z</time></trkpt><trkpt lat="44.72171689281592" lon="10.19292636098598"><ele>139.0</ele><time>2026-05-02T15:38:32Z</time></trkpt><trkpt lat="44.72154946041264" lon="10.19278298417878"><ele>139.0</ele><time>2026-05-02T15:38:33Z</time></trkpt><trkpt lat="44.7214040587633" lon="10.192650991426708"><ele>139.0</ele><time>2026-05-02T15:38:34Z</time></trkpt><trkpt lat="44.72129258639425" lon="10.192556167163799"><ele>139.0</ele><time>2026-05-02T15:38:35Z</time></trkpt><trkpt lat="44.72117580326654" lon="10.192457094782217"><ele>139.0</ele><time>2026-05-02T15:38:36Z</time></trkpt><trkpt lat="44.72105493450356" lon="10.192365186589987"><ele>139.75</ele><time>2026-05-02T15:38:37Z</time></trkpt><trkpt lat="44.720931511007635" lon="10.192257609720155"><ele>140.5</ele><time>2026-05-02T15:38:38Z</time></trkpt><trkpt lat="44.72080601976184" lon="10.192156777893244"><ele>141.25</ele><time>2026-05-02T15:38:39Z</time></trkpt><trkpt lat="44.720695131706314" lon="10.192066857358249"><ele>142.0</ele><time>2026-05-02T15:38:40Z</time></trkpt><trkpt lat="44.72058865399596" lon="10.191991480256636"><ele>142.0</ele><time>2026-05-02T15:38:41Z</time></trkpt><trkpt lat="44.72046110868242" lon="10.191931315453683"><ele>142.0</ele><time>2026-05-02T15:38:42Z</time></trkpt><trkpt lat="44.720321923616716" lon="10.19186978704504"><ele>142.0</ele><time>2026-05-02T15:38:43Z</time></trkpt><trkpt lat="44.720187151827844" lon="10.19177096344441"><ele>142.0</ele><time>2026-05-02T15:38:44Z</time></trkpt><trkpt lat="44.7200788645335" lon="10.1915756396202"><ele>141.33333333333334</ele><time>2026-05-02T15:38:45Z</time></trkpt><trkpt lat="44.719956904996714" lon="10.19138990529585"><ele>140.66666666666666</ele><time>2026-05-02T15:38:46Z</time></trkpt><trkpt lat="44.719847114987935" lon="10.191198477136169"><ele>140.0</ele><time>2026-05-02T15:38:47Z</time></trkpt><trkpt lat="44.719729593923326" lon="10.191014992576381"><ele>140.0</ele><time>2026-05-02T15:38:48Z</time></trkpt><trkpt lat="44.71962408659119" lon="10.190851406824677"><ele>140.0</ele><time>2026-05-02T15:38:48.999Z</time></trkpt><trkpt lat="44.719516950349416" lon="10.190687567450103"><ele>140.0</ele><time>2026-05-02T15:38:49.999Z</time></trkpt><trkpt lat="44.71940806072541" lon="10.190516551591212"><ele>139.0</ele><time>2026-05-02T15:38:50.999Z</time></trkpt><trkpt lat="44.71930172554956" lon="10.190337794752452"><ele>138.0</ele><time>2026-05-02T15:38:51.999Z</time></trkpt><trkpt lat="44.719203832603014" lon="10.190136787475085"><ele>137.0</ele><time>2026-05-02T15:38:52.999Z</time></trkpt><trkpt lat="44.719116694744564" lon="10.189928416074281"><ele>138.0</ele><time>2026-05-02T15:38:53.999Z</time></trkpt><trkpt lat="44.71901409701509" lon="10.18972965999987"><ele>139.0</ele><time>2026-05-02T15:38:54.999Z</time></trkpt><trkpt lat="44.718876333408524" lon="10.189583421179709"><ele>140.0</ele><time>2026-05-02T15:38:55.999Z</time></trkpt><trkpt lat="44.718732386729776" lon="10.18945114120727"><ele>140.0</ele><time>2026-05-02T15:38:56.999Z</time></trkpt><trkpt lat="44.71859172249984" lon="10.18930000748218"><ele>140.0</ele><time>2026-05-02T15:38:57.999Z</time></trkpt><trkpt lat="44.718446336525695" lon="10.189139531693211"><ele>140.0</ele><time>2026-05-02T15:38:58.999Z</time></trkpt><trkpt lat="44.71829252286544" lon="10.188971845713455"><ele>140.0</ele><time>2026-05-02T15:38:59.999Z</time></trkpt><trkpt lat="44.71812915367962" lon="10.188798496279714"><ele>140.0</ele><time>2026-05-02T15:39:00.999Z</time></trkpt><trkpt lat="44.717963305782106" lon="10.18862684866538"><ele>140.0</ele><time>2026-05-02T15:39:01.999Z</time></trkpt><trkpt lat="44.71780293985147" lon="10.18845578697581"><ele>139.66666666666666</ele><time>2026-05-02T15:39:02.999Z</time></trkpt><trkpt lat="44.7176440455886" lon="10.1882868146443"><ele>139.33333333333334</ele><time>2026-05-02T15:39:03.999Z</time></trkpt><trkpt lat="44.71748410721724" lon="10.188120915260807"><ele>139.0</ele><time>2026-05-02T15:39:04.999Z</time></trkpt><trkpt lat="44.71731945669852" lon="10.187952393784323"><ele>139.0</ele><time>2026-05-02T15:39:05.999Z</time></trkpt><trkpt lat="44.7171595800275" lon="10.187790891520756"><ele>139.0</ele><time>2026-05-02T15:39:06.999Z</time></trkpt><trkpt lat="44.71700088656351" lon="10.187629457423936"><ele>139.0</ele><time>2026-05-02T15:39:07.999Z</time></trkpt><trkpt lat="44.71685981303908" lon="10.187480077073394"><ele>139.25</ele><time>2026-05-02T15:39:08.999Z</time></trkpt><trkpt lat="44.716765693140076" lon="10.187360231551732"><ele>139.5</ele><time>2026-05-02T15:39:09.999Z</time></trkpt><trkpt lat="44.71667785974865" lon="10.187242206907884"><ele>139.75</ele><time>2026-05-02T15:39:10.999Z</time></trkpt><trkpt lat="44.71658729000229" lon="10.187082398463307"><ele>140.0</ele><time>2026-05-02T15:39:11.999Z</time></trkpt><trkpt lat="44.71648507762231" lon="10.186694514168837"><ele>141.33333333333331</ele><time>2026-05-02T15:39:12.999Z</time></trkpt><trkpt lat="44.716449297717624" lon="10.186425343164577"><ele>142.66666666666666</ele><time>2026-05-02T15:39:13.999Z</time></trkpt><trkpt lat="44.716400888238276" lon="10.18616362496319"><ele>144.0</ele><time>2026-05-02T15:39:14.999Z</time></trkpt><trkpt lat="44.71631456093807" lon="10.185934839197326"><ele>144.0</ele><time>2026-05-02T15:39:15.999Z</time></trkpt><trkpt lat="44.716186956677504" lon="10.185755415196697"><ele>144.0</ele><time>2026-05-02T15:39:16.999Z</time></trkpt><trkpt lat="44.716053695294995" lon="10.185561456277197"><ele>144.0</ele><time>2026-05-02T15:39:17.999Z</time></trkpt><trkpt lat="44.71590166354135" lon="10.185386170841655"><ele>144.0</ele><time>2026-05-02T15:39:18.999Z</time></trkpt><trkpt lat="44.71574916127916" lon="10.185207924811284"><ele>144.0</ele><time>2026-05-02T15:39:19.999Z</time></trkpt><trkpt lat="44.71559325193526" lon="10.185026546265192"><ele>144.0</ele><time>2026-05-02T15:39:20.999Z</time></trkpt><trkpt lat="44.71544491064803" lon="10.184838887435799"><ele>144.33333333333334</ele><time>2026-05-02T15:39:21.999Z</time></trkpt><trkpt lat="44.71528797180764" lon="10.184647465629851"><ele>144.66666666666669</ele><time>2026-05-02T15:39:22.999Z</time></trkpt><trkpt lat="44.71513415064607" lon="10.184451541333202"><ele>145.0</ele><time>2026-05-02T15:39:23.999Z</time></trkpt><trkpt lat="44.71497798583495" lon="10.184254841800204"><ele>145.0</ele><time>2026-05-02T15:39:24.999Z</time></trkpt><trkpt lat="44.71483116353113" lon="10.184059959263024"><ele>145.0</ele><time>2026-05-02T15:39:25.999Z</time></trkpt><trkpt lat="44.714703048916256" lon="10.183879540703984"><ele>145.0</ele><time>2026-05-02T15:39:26.999Z</time></trkpt><trkpt lat="44.71458158250198" lon="10.183728491916876"><ele>145.5</ele><time>2026-05-02T15:39:27.999Z</time></trkpt><trkpt lat="44.71447181766542" lon="10.18360389221142"><ele>146.0</ele><time>2026-05-02T15:39:28.999Z</time></trkpt><trkpt lat="44.71433847377425" lon="10.183546057246762"><ele>146.5</ele><time>2026-05-02T15:39:29.999Z</time></trkpt><trkpt lat="44.71418163776268" lon="10.183518077098968"><ele>147.0</ele><time>2026-05-02T15:39:30.999Z</time></trkpt><trkpt lat="44.71400631832996" lon="10.183491508287892"><ele>147.0</ele><time>2026-05-02T15:39:31.999Z</time></trkpt><trkpt lat="44.71382263956559" lon="10.183492800217577"><ele>147.0</ele><time>2026-05-02T15:39:32.999Z</time></trkpt><trkpt lat="44.71364112601703" lon="10.183514897211808"><ele>147.0</ele><time>2026-05-02T15:39:33.999Z</time></trkpt><trkpt lat="44.71346120225162" lon="10.18355672978754"><ele>148.0</ele><time>2026-05-02T15:39:34.999Z</time></trkpt><trkpt lat="44.71328739607885" lon="10.1836098613849"><ele>149.0</ele><time>2026-05-02T15:39:35.999Z</time></trkpt><trkpt lat="44.71311848960591" lon="10.183628818797454"><ele>150.0</ele><time>2026-05-02T15:39:36.999Z</time></trkpt><trkpt lat="44.712947354490616" lon="10.183644434520765"><ele>150.0</ele><time>2026-05-02T15:39:37.999Z</time></trkpt><trkpt lat="44.71277436342321" lon="10.183659928592837"><ele>150.0</ele><time>2026-05-02T15:39:38.999Z</time></trkpt><trkpt lat="44.712601295464516" lon="10.183678412482712"><ele>150.0</ele><time>2026-05-02T15:39:39.999Z</time></trkpt><trkpt lat="44.71243305693946" lon="10.183698268277093"><ele>152.66666666666666</ele><time>2026-05-02T15:39:40.999Z</time></trkpt><trkpt lat="44.712268924919286" lon="10.183724465793825"><ele>155.33333333333331</ele><time>2026-05-02T15:39:41.999Z</time></trkpt><trkpt lat="44.71211209953779" lon="10.18373505788275"><ele>158.0</ele><time>2026-05-02T15:39:42.999Z</time></trkpt><trkpt lat="44.71194375011113" lon="10.183729706963664"><ele>158.33333333333331</ele><time>2026-05-02T15:39:43.999Z</time></trkpt><trkpt lat="44.7117679643503" lon="10.183704222395717"><ele>158.66666666666666</ele><time>2026-05-02T15:39:44.999Z</time></trkpt><trkpt lat="44.71158156753646" lon="10.18366928476069"><ele>159.0</ele><time>2026-05-02T15:39:45.999Z</time></trkpt><trkpt lat="44.71139259353735" lon="10.183620890881508"><ele>159.0</ele><time>2026-05-02T15:39:47Z</time></trkpt><trkpt lat="44.711193937008574" lon="10.183559147614192"><ele>159.0</ele><time>2026-05-02T15:39:48Z</time></trkpt><trkpt lat="44.710997801417314" lon="10.183510594449837"><ele>159.0</ele><time>2026-05-02T15:39:49Z</time></trkpt><trkpt lat="44.71080081791801" lon="10.183460193611957"><ele>158.33333333333334</ele><time>2026-05-02T15:39:50Z</time></trkpt><trkpt lat="44.71060868478854" lon="10.18340815790124"><ele>157.66666666666669</ele><time>2026-05-02T15:39:51Z</time></trkpt><trkpt lat="44.71041578346106" lon="10.1833545728178"><ele>157.0</ele><time>2026-05-02T15:39:52Z</time></trkpt><trkpt lat="44.71022844546819" lon="10.183299855714013"><ele>156.33333333333334</ele><time>2026-05-02T15:39:53Z</time></trkpt><trkpt lat="44.71004131351092" lon="10.18325423182932"><ele>155.66666666666666</ele><time>2026-05-02T15:39:54Z</time></trkpt><trkpt lat="44.709874780180314" lon="10.183212050996206"><ele>155.0</ele><time>2026-05-02T15:39:55Z</time></trkpt><trkpt lat="44.70974992085621" lon="10.183161355760419"><ele>154.66666666666666</ele><time>2026-05-02T15:39:56Z</time></trkpt><trkpt lat="44.70950449741645" lon="10.183109721266133"><ele>154.33333333333334</ele><time>2026-05-02T15:39:57Z</time></trkpt><trkpt lat="44.70933878364997" lon="10.18311527237156"><ele>154.0</ele><time>2026-05-02T15:39:58Z</time></trkpt><trkpt lat="44.709167697151024" lon="10.183187926540713"><ele>154.0</ele><time>2026-05-02T15:39:59Z</time></trkpt><trkpt lat="44.708990515743025" lon="10.183273451519986"><ele>154.0</ele><time>2026-05-02T15:40:00Z</time></trkpt><trkpt lat="44.70881607586031" lon="10.183338975920664"><ele>154.0</ele><time>2026-05-02T15:40:01Z</time></trkpt><trkpt lat="44.70865473779499" lon="10.18339152516988"><ele>154.33333333333334</ele><time>2026-05-02T15:40:02Z</time></trkpt><trkpt lat="44.70847410336756" lon="10.183373847945601"><ele>154.66666666666666</ele><time>2026-05-02T15:40:03Z</time></trkpt><trkpt lat="44.70827640815284" lon="10.183385599966606"><ele>155.0</ele><time>2026-05-02T15:40:04Z</time></trkpt><trkpt lat="44.708107963509725" lon="10.183384839840997"><ele>155.0</ele><time>2026-05-02T15:40:05Z</time></trkpt><trkpt lat="44.70797307043864" lon="10.183488721239597"><ele>155.0</ele><time>2026-05-02T15:40:06Z</time></trkpt><trkpt lat="44.7078185024256" lon="10.183609791743947"><ele>155.0</ele><time>2026-05-02T15:40:07Z</time></trkpt><trkpt lat="44.7076670915619" lon="10.183748843140357"><ele>154.66666666666666</ele><time>2026-05-02T15:40:08Z</time></trkpt><trkpt lat="44.70750392856212" lon="10.183847340231004"><ele>154.33333333333334</ele><time>2026-05-02T15:40:09Z</time></trkpt><trkpt lat="44.70735020553757" lon="10.1839151959196"><ele>154.0</ele><time>2026-05-02T15:40:10Z</time></trkpt><trkpt lat="44.70723455443055" lon="10.183986031723908"><ele>154.0</ele><time>2026-05-02T15:40:11Z</time></trkpt><trkpt lat="44.70709219986335" lon="10.183831010318917"><ele>154.0</ele><time>2026-05-02T15:40:12Z</time></trkpt><trkpt lat="44.70698629481179" lon="10.183679979370936"><ele>154.0</ele><time>2026-05-02T15:40:13Z</time></trkpt><trkpt lat="44.70688410441176" lon="10.183482225830442"><ele>154.33333333333334</ele><time>2026-05-02T15:40:14Z</time></trkpt><trkpt lat="44.70679268421741" lon="10.183264728747101"><ele>154.66666666666666</ele><time>2026-05-02T15:40:15Z</time></trkpt><trkpt lat="44.70671624655331" lon="10.183001464125567"><ele>155.0</ele><time>2026-05-02T15:40:16Z</time></trkpt><trkpt lat="44.70665776806014" lon="10.182697774613745"><ele>155.0</ele><time>2026-05-02T15:40:17Z</time></trkpt><trkpt lat="44.7066029881145" lon="10.182424617465529"><ele>155.0</ele><time>2026-05-02T15:40:18Z</time></trkpt><trkpt lat="44.70654171422558" lon="10.18215782522485"><ele>155.0</ele><time>2026-05-02T15:40:19Z</time></trkpt><trkpt lat="44.70649556932535" lon="10.181904842918895"><ele>155.0</ele><time>2026-05-02T15:40:20Z</time></trkpt><trkpt lat="44.70647697269558" lon="10.181660484400714"><ele>155.0</ele><time>2026-05-02T15:40:21Z</time></trkpt><trkpt lat="44.70648930637753" lon="10.181399175535992"><ele>155.0</ele><time>2026-05-02T15:40:22Z</time></trkpt><trkpt lat="44.706512433841915" lon="10.181142521129889"><ele>155.6</ele><time>2026-05-02T15:40:23Z</time></trkpt><trkpt lat="44.70652346917897" lon="10.180936770217935"><ele>156.2</ele><time>2026-05-02T15:40:24Z</time></trkpt><trkpt lat="44.70649564293775" lon="10.180776033869165"><ele>156.8</ele><time>2026-05-02T15:40:25Z</time></trkpt><trkpt lat="44.70644044426702" lon="10.18064884419902"><ele>157.4</ele><time>2026-05-02T15:40:26Z</time></trkpt><trkpt lat="44.706391916047856" lon="10.180574377482246"><ele>158.0</ele><time>2026-05-02T15:40:27Z</time></trkpt><trkpt lat="44.70631087337086" lon="10.180561448297045"><ele>158.0</ele><time>2026-05-02T15:40:29Z</time></trkpt><trkpt lat="44.70626081674678" lon="10.180655771970402"><ele>158.0</ele><time>2026-05-02T15:40:31Z</time></trkpt><trkpt lat="44.70620685428881" lon="10.180764937885511"><ele>158.0</ele><time>2026-05-02T15:40:46Z</time></trkpt><trkpt lat="44.706119372228756" lon="10.180836885750509"><ele>158.0</ele><time>2026-05-02T15:40:48Z</time></trkpt><trkpt lat="44.706055925761184" lon="10.180819456877085"><ele>158.0</ele><time>2026-05-02T15:40:57.999Z</time></trkpt><trkpt lat="44.7059322865149" lon="10.180747736911236"><ele>158.5</ele><time>2026-05-02T15:40:59.999Z</time></trkpt><trkpt lat="44.70586729834154" lon="10.180699195640399"><ele>159.0</ele><time>2026-05-02T15:41:00.999Z</time></trkpt><trkpt lat="44.70579706306142" lon="10.180643327429918"><ele>159.5</ele><time>2026-05-02T15:41:01.999Z</time></trkpt><trkpt lat="44.70571460279272" lon="10.180581121972262"><ele>160.0</ele><time>2026-05-02T15:41:02.999Z</time></trkpt><trkpt lat="44.70562280505848" lon="10.18052213767289"><ele>160.5</ele><time>2026-05-02T15:41:03.999Z</time></trkpt><trkpt lat="44.70553633172158" lon="10.180463334836706"><ele>161.0</ele><time>2026-05-02T15:41:04.999Z</time></trkpt><trkpt lat="44.70545072787514" lon="10.180414132461353"><ele>161.0</ele><time>2026-05-02T15:41:05.999Z</time></trkpt><trkpt lat="44.705373055757384" lon="10.180369704549475"><ele>161.0</ele><time>2026-05-02T15:41:06.999Z</time></trkpt><trkpt lat="44.705298087530856" lon="10.180315319831303"><ele>161.0</ele><time>2026-05-02T15:41:07.999Z</time></trkpt><trkpt lat="44.70521549903394" lon="10.180265334358484"><ele>161.0</ele><time>2026-05-02T15:41:08.999Z</time></trkpt><trkpt lat="44.70514747224016" lon="10.180235485338986"><ele>161.0</ele><time>2026-05-02T15:41:09.999Z</time></trkpt><trkpt lat="44.70503046730099" lon="10.1801585627717"><ele>162.66666666666666</ele><time>2026-05-02T15:41:11.999Z</time></trkpt><trkpt lat="44.704970394953826" lon="10.180113138855338"><ele>164.33333333333331</ele><time>2026-05-02T15:41:12.999Z</time></trkpt><trkpt lat="44.70490319862318" lon="10.180072068986423"><ele>166.0</ele><time>2026-05-02T15:41:13.999Z</time></trkpt><trkpt lat="44.70482158117537" lon="10.180038016635013"><ele>167.66666666666666</ele><time>2026-05-02T15:41:14.999Z</time></trkpt><trkpt lat="44.70474439982785" lon="10.180006829687002"><ele>169.33333333333334</ele><time>2026-05-02T15:41:15.999Z</time></trkpt><trkpt lat="44.70466691282984" lon="10.179978095280163"><ele>171.0</ele><time>2026-05-02T15:41:16.999Z</time></trkpt><trkpt lat="44.70458775732689" lon="10.179960941290695"><ele>170.99999999999997</ele><time>2026-05-02T15:41:17.999Z</time></trkpt><trkpt lat="44.70451576206274" lon="10.179974362165728"><ele>171.0</ele><time>2026-05-02T15:41:18.999Z</time></trkpt><trkpt lat="44.70445095271694" lon="10.179988682803717"><ele>171.0</ele><time>2026-05-02T15:41:19.999Z</time></trkpt><trkpt lat="44.704384791107266" lon="10.180015071562236"><ele>171.0</ele><time>2026-05-02T15:41:20.999Z</time></trkpt><trkpt lat="44.70430826158706" lon="10.180052507274809"><ele>171.0</ele><time>2026-05-02T15:41:21.999Z</time></trkpt><trkpt lat="44.70422701920031" lon="10.18008763251909"><ele>170.99999999999997</ele><time>2026-05-02T15:41:22.999Z</time></trkpt><trkpt lat="44.70416040251841" lon="10.180131564665194"><ele>171.0</ele><time>2026-05-02T15:41:23.999Z</time></trkpt><trkpt lat="44.704090752944694" lon="10.180182053865414"><ele>173.5</ele><time>2026-05-02T15:41:24.999Z</time></trkpt><trkpt lat="44.70401543727406" lon="10.180227801529801"><ele>176.0</ele><time>2026-05-02T15:41:25.999Z</time></trkpt><trkpt lat="44.70395102866705" lon="10.180264910953776"><ele>178.5</ele><time>2026-05-02T15:41:26.999Z</time></trkpt><trkpt lat="44.70388825192022" lon="10.180286158256777"><ele>181.0</ele><time>2026-05-02T15:41:27.999Z</time></trkpt><trkpt lat="44.70381795941188" lon="10.180312659236035"><ele>183.5</ele><time>2026-05-02T15:41:29.999Z</time></trkpt><trkpt lat="44.70372772088287" lon="10.180328965096976"><ele>186.0</ele><time>2026-05-02T15:41:31.999Z</time></trkpt><trkpt lat="44.70365632764282" lon="10.180229360723088"><ele>186.0</ele><time>2026-05-02T15:41:33.999Z</time></trkpt><trkpt lat="44.703655348890976" lon="10.18013363984028"><ele>186.0</ele><time>2026-05-02T15:41:34.999Z</time></trkpt><trkpt lat="44.70363828220726" lon="10.180047299346636"><ele>186.0</ele><time>2026-05-02T15:41:35.999Z</time></trkpt><trkpt lat="44.70361356218952" lon="10.179951557540916"><ele>186.0</ele><time>2026-05-02T15:41:36.999Z</time></trkpt><trkpt lat="44.70357602492001" lon="10.179866291687873"><ele>186.0</ele><time>2026-05-02T15:41:37.999Z</time></trkpt><trkpt lat="44.70353150260917" lon="10.179799510056705"><ele>186.0</ele><time>2026-05-02T15:41:38.999Z</time></trkpt><trkpt lat="44.70344106859138" lon="10.179712159634093"><ele>186.66666666666666</ele><time>2026-05-02T15:41:40.999Z</time></trkpt><trkpt lat="44.70332619443869" lon="10.179646684579412"><ele>187.33333333333334</ele><time>2026-05-02T15:41:42.999Z</time></trkpt><trkpt lat="44.703255267866865" lon="10.179626381365983"><ele>188.0</ele><time>2026-05-02T15:41:43.999Z</time></trkpt><trkpt lat="44.70319184705089" lon="10.179604167849272"><ele>188.66666666666669</ele><time>2026-05-02T15:41:44.999Z</time></trkpt><trkpt lat="44.70312862131359" lon="10.1795885290704"><ele>189.33333333333334</ele><time>2026-05-02T15:41:45.999Z</time></trkpt><trkpt lat="44.703056730671186" lon="10.179570323770905"><ele>190.0</ele><time>2026-05-02T15:41:46.999Z</time></trkpt><trkpt lat="44.70299137343856" lon="10.179546778083973"><ele>190.0</ele><time>2026-05-02T15:41:47.999Z</time></trkpt><trkpt lat="44.702917509728834" lon="10.179534160445895"><ele>190.0</ele><time>2026-05-02T15:41:48.999Z</time></trkpt><trkpt lat="44.702834856224534" lon="10.179525919809436"><ele>190.0</ele><time>2026-05-02T15:41:49.999Z</time></trkpt><trkpt lat="44.702749693057925" lon="10.179509929634353"><ele>190.0</ele><time>2026-05-02T15:41:50.999Z</time></trkpt><trkpt lat="44.70268061533206" lon="10.17948811871627"><ele>190.0</ele><time>2026-05-02T15:41:51.999Z</time></trkpt><trkpt lat="44.70260391604081" lon="10.179470155261058"><ele>190.0</ele><time>2026-05-02T15:41:53Z</time></trkpt><trkpt lat="44.70252326061518" lon="10.179447474009498"><ele>192.66666666666669</ele><time>2026-05-02T15:41:54Z</time></trkpt><trkpt lat="44.70244769018583" lon="10.179423810301468"><ele>195.33333333333334</ele><time>2026-05-02T15:41:55Z</time></trkpt><trkpt lat="44.702367329215164" lon="10.179392462992084"><ele>198.0</ele><time>2026-05-02T15:41:56Z</time></trkpt><trkpt lat="44.70229268277931" lon="10.17936776983115"><ele>200.66666666666669</ele><time>2026-05-02T15:41:57Z</time></trkpt><trkpt lat="44.70220873268016" lon="10.179338495550025"><ele>203.33333333333334</ele><time>2026-05-02T15:41:58Z</time></trkpt><trkpt lat="44.702125391126195" lon="10.179314436876048"><ele>206.0</ele><time>2026-05-02T15:41:59Z</time></trkpt><trkpt lat="44.70204056313897" lon="10.179291846539332"><ele>206.00000000000003</ele><time>2026-05-02T15:42:00Z</time></trkpt><trkpt lat="44.70196429378392" lon="10.179265297811368"><ele>206.0</ele><time>2026-05-02T15:42:01Z</time></trkpt><trkpt lat="44.70188757186355" lon="10.17923968776301"><ele>206.0</ele><time>2026-05-02T15:42:02Z</time></trkpt><trkpt lat="44.70180784560199" lon="10.179218259999224"><ele>206.0</ele><time>2026-05-02T15:42:03Z</time></trkpt><trkpt lat="44.7017346754085" lon="10.179208835219743"><ele>206.00000000000003</ele><time>2026-05-02T15:42:04Z</time></trkpt><trkpt lat="44.7016575856694" lon="10.17919793666378"><ele>206.0</ele><time>2026-05-02T15:42:05Z</time></trkpt><trkpt lat="44.70157405030662" lon="10.179177108476283"><ele>208.33333333333334</ele><time>2026-05-02T15:42:06Z</time></trkpt><trkpt lat="44.70149623447901" lon="10.179156434699705"><ele>210.66666666666669</ele><time>2026-05-02T15:42:07Z</time></trkpt><trkpt lat="44.70141605921583" lon="10.17913236537665"><ele>213.0</ele><time>2026-05-02T15:42:08Z</time></trkpt><trkpt lat="44.701342374908336" lon="10.179089813717125"><ele>215.33333333333331</ele><time>2026-05-02T15:42:09Z</time></trkpt><trkpt lat="44.70127936267066" lon="10.179087482344748"><ele>217.66666666666666</ele><time>2026-05-02T15:42:10Z</time></trkpt><trkpt lat="44.70120755642702" lon="10.179064665759817"><ele>220.0</ele><time>2026-05-02T15:42:11Z</time></trkpt><trkpt lat="44.701129800634995" lon="10.179037329867157"><ele>219.66666666666666</ele><time>2026-05-02T15:42:12Z</time></trkpt><trkpt lat="44.70104658449789" lon="10.179013561215667"><ele>219.33333333333331</ele><time>2026-05-02T15:42:13Z</time></trkpt><trkpt lat="44.700963107761" lon="10.17899047056184"><ele>219.0</ele><time>2026-05-02T15:42:14Z</time></trkpt><trkpt lat="44.70088511539132" lon="10.178964987421594"><ele>218.66666666666669</ele><time>2026-05-02T15:42:15Z</time></trkpt><trkpt lat="44.70080101020437" lon="10.17893750021004"><ele>218.33333333333334</ele><time>2026-05-02T15:42:16Z</time></trkpt><trkpt lat="44.70072056290965" lon="10.178914611670374"><ele>218.0</ele><time>2026-05-02T15:42:17Z</time></trkpt><trkpt lat="44.700645499469516" lon="10.1788840919838"><ele>218.00000000000003</ele><time>2026-05-02T15:42:18Z</time></trkpt><trkpt lat="44.70056514718744" lon="10.178856250482013"><ele>218.0</ele><time>2026-05-02T15:42:19Z</time></trkpt><trkpt lat="44.70048650059927" lon="10.17882602283628"><ele>218.0</ele><time>2026-05-02T15:42:20Z</time></trkpt><trkpt lat="44.70040988008602" lon="10.178791394869563"><ele>218.0</ele><time>2026-05-02T15:42:21Z</time></trkpt><trkpt lat="44.70033240142604" lon="10.178764991132294"><ele>218.00000000000003</ele><time>2026-05-02T15:42:22Z</time></trkpt><trkpt lat="44.70026067347637" lon="10.178753017366493"><ele>218.0</ele><time>2026-05-02T15:42:23Z</time></trkpt><trkpt lat="44.70019257893651" lon="10.178759284648418"><ele>220.16666666666669</ele><time>2026-05-02T15:42:24Z</time></trkpt><trkpt lat="44.70009757968888" lon="10.178836971027184"><ele>222.33333333333334</ele><time>2026-05-02T15:42:26Z</time></trkpt><trkpt lat="44.70007184764344" lon="10.17892364633061"><ele>224.5</ele><time>2026-05-02T15:42:27Z</time></trkpt><trkpt lat="44.700079014508454" lon="10.17905949238513"><ele>226.66666666666669</ele><time>2026-05-02T15:42:28Z</time></trkpt><trkpt lat="44.700072864877576" lon="10.179157886805056"><ele>228.83333333333334</ele><time>2026-05-02T15:42:29Z</time></trkpt><trkpt lat="44.7000507758124" lon="10.179269599936328"><ele>231.0</ele><time>2026-05-02T15:42:31Z</time></trkpt><trkpt lat="44.6999288861964" lon="10.17925451488646"><ele>232.66666666666666</ele><time>2026-05-02T15:42:34Z</time></trkpt><trkpt lat="44.69987440709875" lon="10.179350962854574"><ele>234.33333333333331</ele><time>2026-05-02T15:45:42.999Z</time></trkpt><trkpt lat="44.69983080323511" lon="10.179431013800041"><ele>236.0</ele><time>2026-05-02T15:45:43.999Z</time></trkpt><trkpt lat="44.69976190104882" lon="10.179487777872984"><ele>237.66666666666666</ele><time>2026-05-02T15:45:45.999Z</time></trkpt><trkpt lat="44.69969345123699" lon="10.179463889819555"><ele>239.33333333333331</ele><time>2026-05-02T15:45:47.999Z</time></trkpt><trkpt lat="44.699632712831715" lon="10.179386219602884"><ele>241.0</ele><time>2026-05-02T15:45:49.999Z</time></trkpt><trkpt lat="44.69956182785318" lon="10.179343911358547"><ele>241.0</ele><time>2026-05-02T15:45:51.999Z</time></trkpt><trkpt lat="44.69948830037174" lon="10.179297362383739"><ele>241.00000000000003</ele><time>2026-05-02T15:45:53.999Z</time></trkpt><trkpt lat="44.699391750915765" lon="10.179242148367482"><ele>241.00000000000003</ele><time>2026-05-02T15:45:55.999Z</time></trkpt><trkpt lat="44.699281393088555" lon="10.179154846696383"><ele>241.0</ele><time>2026-05-02T15:45:57.999Z</time></trkpt><trkpt lat="44.69920654110423" lon="10.179110008585631"><ele>241.0</ele><time>2026-05-02T15:45:58.999Z</time></trkpt><trkpt lat="44.69914392545825" lon="10.179071779411244"><ele>240.71428571428572</ele><time>2026-05-02T15:45:59.999Z</time></trkpt><trkpt lat="44.69907830432983" lon="10.179031574626318"><ele>240.42857142857144</ele><time>2026-05-02T15:46:00.999Z</time></trkpt><trkpt lat="44.69901595374158" lon="10.178992663962639"><ele>240.14285714285717</ele><time>2026-05-02T15:46:01.999Z</time></trkpt><trkpt lat="44.69896970783625" lon="10.178926956202819"><ele>239.8571428571429</ele><time>2026-05-02T15:46:02.999Z</time></trkpt><trkpt lat="44.698912934033686" lon="10.178871685492737"><ele>239.57142857142858</ele><time>2026-05-02T15:46:03.999Z</time></trkpt><trkpt lat="44.698854631271004" lon="10.17881305264468"><ele>239.28571428571433</ele><time>2026-05-02T15:46:05Z</time></trkpt><trkpt lat="44.69880135036024" lon="10.178742896338392"><ele>239.00000000000003</ele><time>2026-05-02T15:46:06Z</time></trkpt><trkpt lat="44.698702783665524" lon="10.178678478084558"><ele>240.2</ele><time>2026-05-02T15:46:08Z</time></trkpt><trkpt lat="44.69858303428909" lon="10.17862390725377"><ele>241.39999999999998</ele><time>2026-05-02T15:46:10Z</time></trkpt><trkpt lat="44.69846950757408" lon="10.178545948774847"><ele>242.6</ele><time>2026-05-02T15:46:12Z</time></trkpt><trkpt lat="44.698407300839314" lon="10.17851282462274"><ele>243.8</ele><time>2026-05-02T15:46:13Z</time></trkpt><trkpt lat="44.69834987917583" lon="10.178460085079857"><ele>245.0</ele><time>2026-05-02T15:46:14Z</time></trkpt><trkpt lat="44.69823473582201" lon="10.178379427160998"><ele>245.00000000000003</ele><time>2026-05-02T15:46:16Z</time></trkpt><trkpt lat="44.69817476874666" lon="10.178336169588306"><ele>245.0</ele><time>2026-05-02T15:46:17Z</time></trkpt><trkpt lat="44.69806294791928" lon="10.178278458534088"><ele>245.0</ele><time>2026-05-02T15:46:19Z</time></trkpt><trkpt lat="44.697946154449134" lon="10.178210884904914"><ele>245.0</ele><time>2026-05-02T15:46:21Z</time></trkpt><trkpt lat="44.697894106893315" lon="10.178154371853916"><ele>245.00000000000003</ele><time>2026-05-02T15:46:22Z</time></trkpt><trkpt lat="44.69782906174942" lon="10.17811515557511"><ele>245.0</ele><time>2026-05-02T15:46:23Z</time></trkpt><trkpt lat="44.69776273019854" lon="10.178075163668437"><ele>246.16666666666669</ele><time>2026-05-02T15:46:24Z</time></trkpt><trkpt lat="44.697684316622734" lon="10.178052946349622"><ele>247.33333333333334</ele><time>2026-05-02T15:46:25Z</time></trkpt><trkpt lat="44.69761855502596" lon="10.17801708011121"><ele>248.5</ele><time>2026-05-02T15:46:26Z</time></trkpt><trkpt lat="44.69755082305889" lon="10.1779673119794"><ele>249.66666666666669</ele><time>2026-05-02T15:46:27Z</time></trkpt><trkpt lat="44.69747442578882" lon="10.177928233190048"><ele>250.83333333333334</ele><time>2026-05-02T15:46:28Z</time></trkpt><trkpt lat="44.69740185637531" lon="10.177884919056662"><ele>252.0</ele><time>2026-05-02T15:46:29Z</time></trkpt><trkpt lat="44.69734281285787" lon="10.177823316806219"><ele>252.0</ele><time>2026-05-02T15:46:30Z</time></trkpt><trkpt lat="44.697265241669854" lon="10.177786778041014"><ele>252.0</ele><time>2026-05-02T15:46:31Z</time></trkpt><trkpt lat="44.69720830283448" lon="10.177727434957351"><ele>252.0</ele><time>2026-05-02T15:46:32Z</time></trkpt><trkpt lat="44.69713934100181" lon="10.177672553433448"><ele>252.0</ele><time>2026-05-02T15:46:33Z</time></trkpt><trkpt lat="44.69707232714825" lon="10.177612856372585"><ele>252.0</ele><time>2026-05-02T15:46:34Z</time></trkpt><trkpt lat="44.69701069153912" lon="10.177561132951626"><ele>252.0</ele><time>2026-05-02T15:46:35Z</time></trkpt><trkpt lat="44.69694754271043" lon="10.17751757694275"><ele>252.42857142857144</ele><time>2026-05-02T15:46:36Z</time></trkpt><trkpt lat="44.69688982680778" lon="10.177480347899092"><ele>252.85714285714286</ele><time>2026-05-02T15:46:37Z</time></trkpt><trkpt lat="44.696830868783636" lon="10.177438185933608"><ele>253.28571428571428</ele><time>2026-05-02T15:46:38Z</time></trkpt><trkpt lat="44.696770898055" lon="10.177395290194635"><ele>253.71428571428572</ele><time>2026-05-02T15:46:39Z</time></trkpt><trkpt lat="44.696712853274995" lon="10.177356628902169"><ele>254.14285714285717</ele><time>2026-05-02T15:46:40Z</time></trkpt><trkpt lat="44.69664654054499" lon="10.177314482462199"><ele>254.57142857142858</ele><time>2026-05-02T15:46:41Z</time></trkpt><trkpt lat="44.69656795285746" lon="10.177263389006274"><ele>255.0</ele><time>2026-05-02T15:46:42Z</time></trkpt><trkpt lat="44.69648377705214" lon="10.17721490599376"><ele>255.0</ele><time>2026-05-02T15:46:43Z</time></trkpt><trkpt lat="44.696400753436755" lon="10.177167089741339"><ele>255.0</ele><time>2026-05-02T15:46:44Z</time></trkpt><trkpt lat="44.69631756246536" lon="10.177120505306778"><ele>255.0</ele><time>2026-05-02T15:46:45Z</time></trkpt><trkpt lat="44.69624947246626" lon="10.177079575250788"><ele>255.0</ele><time>2026-05-02T15:46:46Z</time></trkpt><trkpt lat="44.69616629343518" lon="10.17693767305892"><ele>255.0</ele><time>2026-05-02T15:46:48Z</time></trkpt><trkpt lat="44.696152459991104" lon="10.176841444426525"><ele>255.0</ele><time>2026-05-02T15:46:49Z</time></trkpt><trkpt lat="44.69616892480785" lon="10.17673208727965"><ele>255.0</ele><time>2026-05-02T15:46:50Z</time></trkpt><trkpt lat="44.69618484171603" lon="10.176611531762758"><ele>255.0</ele><time>2026-05-02T15:46:51Z</time></trkpt><trkpt lat="44.6961859297551" lon="10.176505308515061"><ele>255.0</ele><time>2026-05-02T15:46:52Z</time></trkpt><trkpt lat="44.696174059039414" lon="10.176393427544436"><ele>255.0</ele><time>2026-05-02T15:46:53Z</time></trkpt><trkpt lat="44.696154112801956" lon="10.176308191969328"><ele>255.0</ele><time>2026-05-02T15:46:54Z</time></trkpt><trkpt lat="44.69607417259752" lon="10.176203322255414"><ele>257.3333333333333</ele><time>2026-05-02T15:46:56Z</time></trkpt><trkpt lat="44.69598666998209" lon="10.176157274939483"><ele>259.6666666666667</ele><time>2026-05-02T15:46:58Z</time></trkpt><trkpt lat="44.69595088773894" lon="10.17604857266382"><ele>262.0</ele><time>2026-05-02T15:47:01Z</time></trkpt><trkpt lat="44.69588656789902" lon="10.175958173637103"><ele>264.33333333333337</ele><time>2026-05-02T15:47:03Z</time></trkpt><trkpt lat="44.69579066384447" lon="10.175880335190545"><ele>266.6666666666667</ele><time>2026-05-02T15:47:05Z</time></trkpt><trkpt lat="44.69572824294645" lon="10.175844782232156"><ele>269.0</ele><time>2026-05-02T15:47:06Z</time></trkpt><trkpt lat="44.69566380284049" lon="10.175815989130626"><ele>269.0</ele><time>2026-05-02T15:47:07Z</time></trkpt><trkpt lat="44.695559243856735" lon="10.175779043225049"><ele>269.0</ele><time>2026-05-02T15:47:09Z</time></trkpt><trkpt lat="44.69546358032204" lon="10.175768494395648"><ele>269.0</ele><time>2026-05-02T15:47:11Z</time></trkpt><trkpt lat="44.69539856597877" lon="10.175768585798217"><ele>269.0</ele><time>2026-05-02T15:47:12Z</time></trkpt><trkpt lat="44.69533159189057" lon="10.175780878787556"><ele>269.0</ele><time>2026-05-02T15:47:13Z</time></trkpt><trkpt lat="44.69526660117057" lon="10.175775271090359"><ele>269.0</ele><time>2026-05-02T15:47:13.999Z</time></trkpt><trkpt lat="44.695203064841785" lon="10.175779685999052"><ele>267.4</ele><time>2026-05-02T15:47:14.999Z</time></trkpt><trkpt lat="44.695088367795414" lon="10.1758027442037"><ele>265.79999999999995</ele><time>2026-05-02T15:47:16.999Z</time></trkpt><trkpt lat="44.69502369832307" lon="10.175812542527916"><ele>264.20000000000005</ele><time>2026-05-02T15:47:17.999Z</time></trkpt><trkpt lat="44.69491311309795" lon="10.175810662717907"><ele>262.6</ele><time>2026-05-02T15:47:19.999Z</time></trkpt><trkpt lat="44.69484968797379" lon="10.175789685484194"><ele>261.0</ele><time>2026-05-02T15:47:20.999Z</time></trkpt><trkpt lat="44.69472228015207" lon="10.175788502530239"><ele>261.0</ele><time>2026-05-02T15:47:22.999Z</time></trkpt><trkpt lat="44.694658054607366" lon="10.175812858464113"><ele>261.0</ele><time>2026-05-02T15:47:23.999Z</time></trkpt><trkpt lat="44.69458785968949" lon="10.175791758394086"><ele>261.0</ele><time>2026-05-02T15:47:24.999Z</time></trkpt><trkpt lat="44.694519211878294" lon="10.175817494733138"><ele>261.0</ele><time>2026-05-02T15:47:25.999Z</time></trkpt><trkpt lat="44.69444272518182" lon="10.175818514353763"><ele>261.0</ele><time>2026-05-02T15:47:26.999Z</time></trkpt><trkpt lat="44.694365923589736" lon="10.175812919451785"><ele>261.0</ele><time>2026-05-02T15:47:27.999Z</time></trkpt><trkpt lat="44.69423830551782" lon="10.17573920149617"><ele>259.1666666666667</ele><time>2026-05-02T15:47:29.999Z</time></trkpt><trkpt lat="44.69415922999678" lon="10.175700991632159"><ele>257.3333333333333</ele><time>2026-05-02T15:47:30.999Z</time></trkpt><trkpt lat="44.69407833241346" lon="10.175666651812861"><ele>255.5</ele><time>2026-05-02T15:47:31.999Z</time></trkpt><trkpt lat="44.69399119462091" lon="10.175645751221733"><ele>253.66666666666666</ele><time>2026-05-02T15:47:32.999Z</time></trkpt><trkpt lat="44.6939099955758" lon="10.17560130913802"><ele>251.83333333333331</ele><time>2026-05-02T15:47:33.999Z</time></trkpt><trkpt lat="44.69383707666346" lon="10.175561891674404"><ele>250.0</ele><time>2026-05-02T15:47:34.999Z</time></trkpt><trkpt lat="44.69376547860003" lon="10.175519416536767"><ele>249.49999999999997</ele><time>2026-05-02T15:47:35.999Z</time></trkpt><trkpt lat="44.69363712751162" lon="10.175461042204843"><ele>249.0</ele><time>2026-05-02T15:47:37.999Z</time></trkpt><trkpt lat="44.69356968923691" lon="10.175410542422599"><ele>248.5</ele><time>2026-05-02T15:47:38.999Z</time></trkpt><trkpt lat="44.693506877806826" lon="10.175353244073243"><ele>248.0</ele><time>2026-05-02T15:47:39.999Z</time></trkpt><trkpt lat="44.69344414036849" lon="10.175314207105984"><ele>247.49999999999997</ele><time>2026-05-02T15:47:40.999Z</time></trkpt><trkpt lat="44.693382571657075" lon="10.175291337320102"><ele>247.0</ele><time>2026-05-02T15:47:41.999Z</time></trkpt><trkpt lat="44.69331565580549" lon="10.175295496670863"><ele>248.49999999999997</ele><time>2026-05-02T15:47:42.999Z</time></trkpt><trkpt lat="44.69324392301344" lon="10.175288219941667"><ele>250.0</ele><time>2026-05-02T15:47:43.999Z</time></trkpt><trkpt lat="44.69313459940548" lon="10.175236605856618"><ele>251.5</ele><time>2026-05-02T15:47:45.999Z</time></trkpt><trkpt lat="44.69307412894593" lon="10.175192418155481"><ele>253.0</ele><time>2026-05-02T15:47:46.999Z</time></trkpt><trkpt lat="44.693014516852685" lon="10.175119858702411"><ele>254.49999999999997</ele><time>2026-05-02T15:47:47.999Z</time></trkpt><trkpt lat="44.692959629258425" lon="10.175036165036195"><ele>256.0</ele><time>2026-05-02T15:47:48.999Z</time></trkpt><trkpt lat="44.692901055430966" lon="10.174992646129548"><ele>256.0</ele><time>2026-05-02T15:47:49.999Z</time></trkpt><trkpt lat="44.692842467103645" lon="10.174894976721212"><ele>256.0</ele><time>2026-05-02T15:47:51.999Z</time></trkpt><trkpt lat="44.69279519164436" lon="10.174805810945331"><ele>256.0</ele><time>2026-05-02T15:47:53.999Z</time></trkpt><trkpt lat="44.692723571359174" lon="10.174702916842314"><ele>256.0</ele><time>2026-05-02T15:47:55.999Z</time></trkpt><trkpt lat="44.69264375979008" lon="10.174598034827733"><ele>256.0</ele><time>2026-05-02T15:47:57.999Z</time></trkpt><trkpt lat="44.69256030701161" lon="10.174495999969595"><ele>257.16666666666663</ele><time>2026-05-02T15:47:59.999Z</time></trkpt><trkpt lat="44.69247443001463" lon="10.174424880075662"><ele>258.3333333333333</ele><time>2026-05-02T15:48:01.999Z</time></trkpt><trkpt lat="44.69237413887318" lon="10.174362509732115"><ele>259.5</ele><time>2026-05-02T15:48:03.999Z</time></trkpt><trkpt lat="44.69231208815201" lon="10.174328302157907"><ele>260.6666666666667</ele><time>2026-05-02T15:48:04.999Z</time></trkpt><trkpt lat="44.692250786529044" lon="10.174307384125127"><ele>261.83333333333337</ele><time>2026-05-02T15:48:05.999Z</time></trkpt><trkpt lat="44.692168512113724" lon="10.174279982826755"><ele>263.0</ele><time>2026-05-02T15:48:06.999Z</time></trkpt><trkpt lat="44.69208540439483" lon="10.174290314081386"><ele>263.0</ele><time>2026-05-02T15:48:07.999Z</time></trkpt><trkpt lat="44.69200791713599" lon="10.174244954252265"><ele>263.0</ele><time>2026-05-02T15:48:08.999Z</time></trkpt><trkpt lat="44.691941762166806" lon="10.17420543654207"><ele>263.0</ele><time>2026-05-02T15:48:09.999Z</time></trkpt><trkpt lat="44.691871496484076" lon="10.17418643817107"><ele>263.0</ele><time>2026-05-02T15:48:11Z</time></trkpt><trkpt lat="44.69180071042194" lon="10.174158507517333"><ele>263.0</ele><time>2026-05-02T15:48:12Z</time></trkpt><trkpt lat="44.691732657751004" lon="10.174144693589342"><ele>263.0</ele><time>2026-05-02T15:48:13Z</time></trkpt><trkpt lat="44.69166265243674" lon="10.174149428868272"><ele>263.0</ele><time>2026-05-02T15:48:14Z</time></trkpt><trkpt lat="44.69158139801828" lon="10.174171883255342"><ele>264.1666666666667</ele><time>2026-05-02T15:48:15Z</time></trkpt><trkpt lat="44.69150705807583" lon="10.174221920523864"><ele>265.33333333333337</ele><time>2026-05-02T15:48:16Z</time></trkpt><trkpt lat="44.69143938060299" lon="10.17427674928243"><ele>266.5</ele><time>2026-05-02T15:48:17Z</time></trkpt><trkpt lat="44.69134418413969" lon="10.174308721130338"><ele>267.6666666666667</ele><time>2026-05-02T15:48:18Z</time></trkpt><trkpt lat="44.69127197683345" lon="10.174378847539286"><ele>268.8333333333333</ele><time>2026-05-02T15:48:19Z</time></trkpt><trkpt lat="44.69118921350942" lon="10.17442450091986"><ele>270.0</ele><time>2026-05-02T15:48:20Z</time></trkpt><trkpt lat="44.69111607675456" lon="10.174464619912927"><ele>270.3333333333333</ele><time>2026-05-02T15:48:21Z</time></trkpt><trkpt lat="44.69103410635393" lon="10.174479901451601"><ele>270.6666666666667</ele><time>2026-05-02T15:48:22Z</time></trkpt><trkpt lat="44.690948596382775" lon="10.174496728095768"><ele>271.0</ele><time>2026-05-02T15:48:23Z</time></trkpt><trkpt lat="44.69085901123666" lon="10.174542199360804"><ele>271.33333333333337</ele><time>2026-05-02T15:48:24Z</time></trkpt><trkpt lat="44.6907684103715" lon="10.17455683141479"><ele>271.6666666666667</ele><time>2026-05-02T15:48:25Z</time></trkpt><trkpt lat="44.69068073536905" lon="10.17458100458043"><ele>272.0</ele><time>2026-05-02T15:48:26Z</time></trkpt><trkpt lat="44.69060397106103" lon="10.174630701262464"><ele>272.0</ele><time>2026-05-02T15:48:27Z</time></trkpt><trkpt lat="44.690510254024595" lon="10.174659741753201"><ele>272.0</ele><time>2026-05-02T15:48:28Z</time></trkpt><trkpt lat="44.69042482328863" lon="10.174692368921674"><ele>272.0</ele><time>2026-05-02T15:48:29Z</time></trkpt><trkpt lat="44.69034211528969" lon="10.174721738955453"><ele>272.0</ele><time>2026-05-02T15:48:30Z</time></trkpt><trkpt lat="44.69025812925963" lon="10.174729517631699"><ele>272.0</ele><time>2026-05-02T15:48:31Z</time></trkpt><trkpt lat="44.690175863693256" lon="10.174777438859067"><ele>272.0</ele><time>2026-05-02T15:48:32Z</time></trkpt><trkpt lat="44.69008526235933" lon="10.174792153333263"><ele>273.0</ele><time>2026-05-02T15:48:33Z</time></trkpt><trkpt lat="44.689992005307744" lon="10.174848537658624"><ele>274.0</ele><time>2026-05-02T15:48:34Z</time></trkpt><trkpt lat="44.68989625399459" lon="10.17486916879418"><ele>275.0</ele><time>2026-05-02T15:48:35Z</time></trkpt><trkpt lat="44.6898105154341" lon="10.174901063641226"><ele>276.0</ele><time>2026-05-02T15:48:36Z</time></trkpt><trkpt lat="44.68972345697921" lon="10.174949133455723"><ele>277.0</ele><time>2026-05-02T15:48:37Z</time></trkpt><trkpt lat="44.68962796131591" lon="10.174984213246299"><ele>278.8</ele><time>2026-05-02T15:48:38Z</time></trkpt><trkpt lat="44.689536926483854" lon="10.175023461992392"><ele>280.6</ele><time>2026-05-02T15:48:39Z</time></trkpt><trkpt lat="44.68944364506702" lon="10.175059681496053"><ele>282.40000000000003</ele><time>2026-05-02T15:48:40Z</time></trkpt><trkpt lat="44.68934626487861" lon="10.17509783518353"><ele>284.2</ele><time>2026-05-02T15:48:41Z</time></trkpt><trkpt lat="44.689260869567995" lon="10.175115712305443"><ele>286.0</ele><time>2026-05-02T15:48:42Z</time></trkpt><trkpt lat="44.68917078597563" lon="10.175162320640688"><ele>286.8333333333333</ele><time>2026-05-02T15:48:43Z</time></trkpt><trkpt lat="44.68907979864328" lon="10.175179443302579"><ele>287.66666666666663</ele><time>2026-05-02T15:48:44Z</time></trkpt><trkpt lat="44.68900706367625" lon="10.175225053606008"><ele>288.5</ele><time>2026-05-02T15:48:45Z</time></trkpt><trkpt lat="44.688933087986584" lon="10.175229028346504"><ele>289.3333333333333</ele><time>2026-05-02T15:48:46Z</time></trkpt><trkpt lat="44.688861498466665" lon="10.175245914132697"><ele>290.1666666666667</ele><time>2026-05-02T15:48:47Z</time></trkpt><trkpt lat="44.688782476950955" lon="10.175265749907666"><ele>291.0</ele><time>2026-05-02T15:48:48Z</time></trkpt><trkpt lat="44.68871463315423" lon="10.17528422604924"><ele>291.0</ele><time>2026-05-02T15:48:49Z</time></trkpt><trkpt lat="44.68865748055947" lon="10.175323280379015"><ele>291.0</ele><time>2026-05-02T15:48:50Z</time></trkpt><trkpt lat="44.688596463663686" lon="10.175354449483313"><ele>291.0</ele><time>2026-05-02T15:48:52Z</time></trkpt><trkpt lat="44.688551642902866" lon="10.175435680947972"><ele>291.0</ele><time>2026-05-02T15:48:54Z</time></trkpt><trkpt lat="44.688450008018144" lon="10.175499310835608"><ele>291.0</ele><time>2026-05-02T15:48:56Z</time></trkpt><trkpt lat="44.688387000153654" lon="10.17550593377866"><ele>291.0</ele><time>2026-05-02T15:48:57Z</time></trkpt><trkpt lat="44.688277643143834" lon="10.175516620755266"><ele>292.0</ele><time>2026-05-02T15:48:59Z</time></trkpt><trkpt lat="44.68820200052068" lon="10.175532247730251"><ele>293.0</ele><time>2026-05-02T15:49:01Z</time></trkpt><trkpt lat="44.68812548321583" lon="10.175583961562724"><ele>294.0</ele><time>2026-05-02T15:49:03Z</time></trkpt><trkpt lat="44.68807142838205" lon="10.17573393883005"><ele>295.0</ele><time>2026-05-02T15:49:05Z</time></trkpt><trkpt lat="44.68804063136413" lon="10.17581460903481"><ele>296.0</ele><time>2026-05-02T15:49:06Z</time></trkpt><trkpt lat="44.68796379060256" lon="10.175954528549282"><ele>296.0</ele><time>2026-05-02T15:49:08Z</time></trkpt><trkpt lat="44.687927141665945" lon="10.176033080736486"><ele>296.0</ele><time>2026-05-02T15:49:09Z</time></trkpt><trkpt lat="44.68786928324019" lon="10.176102040965153"><ele>296.0</ele><time>2026-05-02T15:49:10Z</time></trkpt><trkpt lat="44.68783224650419" lon="10.176211179054674"><ele>296.0</ele><time>2026-05-02T15:49:11Z</time></trkpt><trkpt lat="44.687773039979945" lon="10.176292244209561"><ele>296.0</ele><time>2026-05-02T15:49:12Z</time></trkpt><trkpt lat="44.687736852489195" lon="10.176404541570847"><ele>296.0</ele><time>2026-05-02T15:49:13Z</time></trkpt><trkpt lat="44.68768619616367" lon="10.176503488404174"><ele>296.1666666666667</ele><time>2026-05-02T15:49:14Z</time></trkpt><trkpt lat="44.68763219429317" lon="10.176603906204386"><ele>296.33333333333337</ele><time>2026-05-02T15:49:15Z</time></trkpt><trkpt lat="44.68758721378069" lon="10.176692219645386"><ele>296.5</ele><time>2026-05-02T15:49:16Z</time></trkpt><trkpt lat="44.68754844291676" lon="10.176775264863458"><ele>296.6666666666667</ele><time>2026-05-02T15:49:17Z</time></trkpt><trkpt lat="44.687510429374534" lon="10.176865698445889"><ele>296.8333333333333</ele><time>2026-05-02T15:49:17.999Z</time></trkpt><trkpt lat="44.687477978756604" lon="10.176966772458872"><ele>297.0</ele><time>2026-05-02T15:49:18.999Z</time></trkpt><trkpt lat="44.68744986061978" lon="10.177074158183618"><ele>297.0</ele><time>2026-05-02T15:49:19.999Z</time></trkpt><trkpt lat="44.68742826766176" lon="10.177179905601236"><ele>297.0</ele><time>2026-05-02T15:49:20.999Z</time></trkpt><trkpt lat="44.687405693138956" lon="10.177286867937585"><ele>297.0</ele><time>2026-05-02T15:49:21.999Z</time></trkpt><trkpt lat="44.687383205735884" lon="10.177402768516053"><ele>297.0</ele><time>2026-05-02T15:49:22.999Z</time></trkpt><trkpt lat="44.68735843409715" lon="10.17751287460936"><ele>297.0</ele><time>2026-05-02T15:49:23.999Z</time></trkpt><trkpt lat="44.687339495177014" lon="10.17763064039127"><ele>297.0</ele><time>2026-05-02T15:49:24.999Z</time></trkpt><trkpt lat="44.68731682794373" lon="10.1777355157541"><ele>296.5</ele><time>2026-05-02T15:49:25.999Z</time></trkpt><trkpt lat="44.687292577797315" lon="10.177836390404911"><ele>296.0</ele><time>2026-05-02T15:49:26.999Z</time></trkpt><trkpt lat="44.68728382454533" lon="10.17792410322855"><ele>295.5</ele><time>2026-05-02T15:49:27.999Z</time></trkpt><trkpt lat="44.68728867127553" lon="10.17802195521008"><ele>295.0</ele><time>2026-05-02T15:49:28.999Z</time></trkpt><trkpt lat="44.68727374031512" lon="10.178125433172992"><ele>294.5</ele><time>2026-05-02T15:49:29.999Z</time></trkpt><trkpt lat="44.687261565995534" lon="10.178254907471258"><ele>294.0</ele><time>2026-05-02T15:49:30.999Z</time></trkpt><trkpt lat="44.68725533657701" lon="10.178373318598045"><ele>292.59999999999997</ele><time>2026-05-02T15:49:31.999Z</time></trkpt><trkpt lat="44.68723362957204" lon="10.178503191600257"><ele>291.2</ele><time>2026-05-02T15:49:32.999Z</time></trkpt><trkpt lat="44.687205192308134" lon="10.1786248283379"><ele>289.79999999999995</ele><time>2026-05-02T15:49:33.999Z</time></trkpt><trkpt lat="44.68716779184483" lon="10.178748949875418"><ele>288.4</ele><time>2026-05-02T15:49:34.999Z</time></trkpt><trkpt lat="44.687141507834774" lon="10.1788900655782"><ele>287.0</ele><time>2026-05-02T15:49:35.999Z</time></trkpt><trkpt lat="44.68712656104038" lon="10.179024571188172"><ele>286.5</ele><time>2026-05-02T15:49:36.999Z</time></trkpt><trkpt lat="44.6870911538749" lon="10.179148118005278"><ele>286.0</ele><time>2026-05-02T15:49:37.999Z</time></trkpt><trkpt lat="44.68706548034349" lon="10.179249681020574"><ele>285.5</ele><time>2026-05-02T15:49:38.999Z</time></trkpt><trkpt lat="44.68704941020258" lon="10.17935945795288"><ele>285.0</ele><time>2026-05-02T15:49:39.999Z</time></trkpt><trkpt lat="44.68702135706899" lon="10.179469596618059"><ele>284.5</ele><time>2026-05-02T15:49:40.999Z</time></trkpt><trkpt lat="44.6869921733754" lon="10.179597959661539"><ele>284.0</ele><time>2026-05-02T15:49:41.999Z</time></trkpt><trkpt lat="44.686973496721826" lon="10.179710378363742"><ele>282.4</ele><time>2026-05-02T15:49:42.999Z</time></trkpt><trkpt lat="44.686944005594334" lon="10.179852052512464"><ele>280.79999999999995</ele><time>2026-05-02T15:49:43.999Z</time></trkpt><trkpt lat="44.68692569750091" lon="10.179979599718934"><ele>279.20000000000005</ele><time>2026-05-02T15:49:44.999Z</time></trkpt><trkpt lat="44.68689557977577" lon="10.180101684672483"><ele>277.6</ele><time>2026-05-02T15:49:45.999Z</time></trkpt><trkpt lat="44.68688449632439" lon="10.18023460087814"><ele>276.0</ele><time>2026-05-02T15:49:46.999Z</time></trkpt><trkpt lat="44.68686404055637" lon="10.18038096192553"><ele>280.8</ele><time>2026-05-02T15:49:47.999Z</time></trkpt><trkpt lat="44.68683335247356" lon="10.180519726222201"><ele>285.6</ele><time>2026-05-02T15:49:48.999Z</time></trkpt><trkpt lat="44.686824552133054" lon="10.180652781313718"><ele>290.4</ele><time>2026-05-02T15:49:49.999Z</time></trkpt><trkpt lat="44.68678754600681" lon="10.180788112929518"><ele>295.2</ele><time>2026-05-02T15:49:50.999Z</time></trkpt><trkpt lat="44.68676946512908" lon="10.180923759681137"><ele>300.0</ele><time>2026-05-02T15:49:51.999Z</time></trkpt><trkpt lat="44.68675964308266" lon="10.181054322197319"><ele>300.0</ele><time>2026-05-02T15:49:52.999Z</time></trkpt><trkpt lat="44.68676895722171" lon="10.181209622476626"><ele>300.0</ele><time>2026-05-02T15:49:53.999Z</time></trkpt><trkpt lat="44.68675980400911" lon="10.18135235060681"><ele>300.0</ele><time>2026-05-02T15:49:54.999Z</time></trkpt><trkpt lat="44.68675519829402" lon="10.181497935754775"><ele>300.0</ele><time>2026-05-02T15:49:55.999Z</time></trkpt><trkpt lat="44.68674299094538" lon="10.18165666038219"><ele>300.0</ele><time>2026-05-02T15:49:56.999Z</time></trkpt><trkpt lat="44.68674386479476" lon="10.181806394466866"><ele>300.2</ele><time>2026-05-02T15:49:57.999Z</time></trkpt><trkpt lat="44.68672415492106" lon="10.181935268339526"><ele>300.4</ele><time>2026-05-02T15:49:58.999Z</time></trkpt><trkpt lat="44.686726246462044" lon="10.182088385927239"><ele>300.6</ele><time>2026-05-02T15:49:59.999Z</time></trkpt><trkpt lat="44.686724649587696" lon="10.182211339982851"><ele>300.8</ele><time>2026-05-02T15:50:00.999Z</time></trkpt><trkpt lat="44.68674028044586" lon="10.182352459098869"><ele>301.0</ele><time>2026-05-02T15:50:01.999Z</time></trkpt><trkpt lat="44.68672603912822" lon="10.182522334304993"><ele>301.0</ele><time>2026-05-02T15:50:02.999Z</time></trkpt><trkpt lat="44.686725258458644" lon="10.182676660982827"><ele>301.0</ele><time>2026-05-02T15:50:03.999Z</time></trkpt><trkpt lat="44.68674121730073" lon="10.182824520000015"><ele>301.0</ele><time>2026-05-02T15:50:04.999Z</time></trkpt><trkpt lat="44.68673218217496" lon="10.18297609571082"><ele>301.0</ele><time>2026-05-02T15:50:05.999Z</time></trkpt><trkpt lat="44.68673892617026" lon="10.183116583305726"><ele>301.0</ele><time>2026-05-02T15:50:06.999Z</time></trkpt><trkpt lat="44.686741955260196" lon="10.183247251696859"><ele>300.66666666666663</ele><time>2026-05-02T15:50:07.999Z</time></trkpt><trkpt lat="44.686740309124936" lon="10.183381702514431"><ele>300.3333333333333</ele><time>2026-05-02T15:50:08.999Z</time></trkpt><trkpt lat="44.686747694971935" lon="10.183510025295902"><ele>300.0</ele><time>2026-05-02T15:50:09.999Z</time></trkpt><trkpt lat="44.6867614468544" lon="10.183638509420136"><ele>299.6666666666667</ele><time>2026-05-02T15:50:10.999Z</time></trkpt><trkpt lat="44.686772875494356" lon="10.183760248563402"><ele>299.33333333333337</ele><time>2026-05-02T15:50:11.999Z</time></trkpt><trkpt lat="44.68676806110543" lon="10.18387162460522"><ele>299.0</ele><time>2026-05-02T15:50:12.999Z</time></trkpt><trkpt lat="44.68677313785453" lon="10.183987284513748"><ele>298.0</ele><time>2026-05-02T15:50:13.999Z</time></trkpt><trkpt lat="44.68676423928835" lon="10.184119744044459"><ele>297.0</ele><time>2026-05-02T15:50:15.999Z</time></trkpt><trkpt lat="44.6867592998686" lon="10.184237076487634"><ele>296.0</ele><time>2026-05-02T15:50:26Z</time></trkpt><trkpt lat="44.686830082144624" lon="10.184325598524191"><ele>295.0</ele><time>2026-05-02T15:50:28Z</time></trkpt><trkpt lat="44.6868772777714" lon="10.184388124314232"><ele>294.0</ele><time>2026-05-02T15:53:46.999Z</time></trkpt><trkpt lat="44.686946517771126" lon="10.184469888889478"><ele>293.0</ele><time>2026-05-02T15:53:48.999Z</time></trkpt><trkpt lat="44.68700664353386" lon="10.184540225933532"><ele>292.57142857142856</ele><time>2026-05-02T15:53:49.999Z</time></trkpt><trkpt lat="44.687051830798204" lon="10.184608639054476"><ele>292.1428571428571</ele><time>2026-05-02T15:53:50.999Z</time></trkpt><trkpt lat="44.687110584643776" lon="10.184694119381087"><ele>291.7142857142857</ele><time>2026-05-02T15:53:51.999Z</time></trkpt><trkpt lat="44.68715117829281" lon="10.184764193849727"><ele>291.2857142857143</ele><time>2026-05-02T15:53:52.999Z</time></trkpt><trkpt lat="44.68720409826393" lon="10.184853305269657"><ele>290.8571428571429</ele><time>2026-05-02T15:53:53.999Z</time></trkpt><trkpt lat="44.6872507425732" lon="10.184940632027931"><ele>290.42857142857144</ele><time>2026-05-02T15:53:54.999Z</time></trkpt><trkpt lat="44.68727973974568" lon="10.185029143665828"><ele>290.0</ele><time>2026-05-02T15:53:55.999Z</time></trkpt><trkpt lat="44.687312778912116" lon="10.185117484572453"><ele>290.0</ele><time>2026-05-02T15:53:56.999Z</time></trkpt><trkpt lat="44.68736863563354" lon="10.185197507883682"><ele>290.0</ele><time>2026-05-02T15:53:57.999Z</time></trkpt><trkpt lat="44.68742004125991" lon="10.185269822663939"><ele>290.0</ele><time>2026-05-02T15:53:58.999Z</time></trkpt><trkpt lat="44.687488632074434" lon="10.18531703115231"><ele>290.0</ele><time>2026-05-02T15:53:59.999Z</time></trkpt><trkpt lat="44.687571810104444" lon="10.185328730955264"><ele>290.0</ele><time>2026-05-02T15:54:00.999Z</time></trkpt><trkpt lat="44.68766854855118" lon="10.185313790585223"><ele>290.0</ele><time>2026-05-02T15:54:01.999Z</time></trkpt><trkpt lat="44.68778849360554" lon="10.185282005721104"><ele>287.5</ele><time>2026-05-02T15:54:02.999Z</time></trkpt><trkpt lat="44.6879165130698" lon="10.185261621214336"><ele>285.0</ele><time>2026-05-02T15:54:03.999Z</time></trkpt><trkpt lat="44.68805224306521" lon="10.18526905228052"><ele>282.5</ele><time>2026-05-02T15:54:04.999Z</time></trkpt><trkpt lat="44.68817577737056" lon="10.185302310064857"><ele>280.0</ele><time>2026-05-02T15:54:05.999Z</time></trkpt><trkpt lat="44.688284525179625" lon="10.185342498910467"><ele>280.0</ele><time>2026-05-02T15:54:06.999Z</time></trkpt><trkpt lat="44.68840907069153" lon="10.185399379779575"><ele>280.0</ele><time>2026-05-02T15:54:07.999Z</time></trkpt><trkpt lat="44.688521672220624" lon="10.185493295203777"><ele>280.0</ele><time>2026-05-02T15:54:08.999Z</time></trkpt><trkpt lat="44.68862542640837" lon="10.185554722393377"><ele>280.0</ele><time>2026-05-02T15:54:09.999Z</time></trkpt><trkpt lat="44.68870608902329" lon="10.185625454153657"><ele>282.0</ele><time>2026-05-02T15:54:10.999Z</time></trkpt><trkpt lat="44.68876503987878" lon="10.185726024798758"><ele>284.0</ele><time>2026-05-02T15:54:11.999Z</time></trkpt><trkpt lat="44.6888250621267" lon="10.185850451262892"><ele>286.0</ele><time>2026-05-02T15:54:12.999Z</time></trkpt><trkpt lat="44.688899993694264" lon="10.185995556209512"><ele>288.0</ele><time>2026-05-02T15:54:13.999Z</time></trkpt><trkpt lat="44.688992556813496" lon="10.18611088383784"><ele>288.0</ele><time>2026-05-02T15:54:14.999Z</time></trkpt><trkpt lat="44.6891078178532" lon="10.186217120262231"><ele>288.0</ele><time>2026-05-02T15:54:15.999Z</time></trkpt><trkpt lat="44.689246617803256" lon="10.186312822240941"><ele>288.0</ele><time>2026-05-02T15:54:16.999Z</time></trkpt><trkpt lat="44.6893951993169" lon="10.186379369240614"><ele>288.0</ele><time>2026-05-02T15:54:17.999Z</time></trkpt><trkpt lat="44.68953910970219" lon="10.186422134464035"><ele>287.3333333333333</ele><time>2026-05-02T15:54:18.999Z</time></trkpt><trkpt lat="44.68969424086246" lon="10.18643781685445"><ele>286.66666666666663</ele><time>2026-05-02T15:54:19.999Z</time></trkpt><trkpt lat="44.689844376507835" lon="10.186426490861693"><ele>286.0</ele><time>2026-05-02T15:54:20.999Z</time></trkpt><trkpt lat="44.68999743282982" lon="10.186397102210842"><ele>286.0</ele><time>2026-05-02T15:54:21.999Z</time></trkpt><trkpt lat="44.69015121137569" lon="10.186380138737428"><ele>286.0</ele><time>2026-05-02T15:54:22.999Z</time></trkpt><trkpt lat="44.69029614919874" lon="10.186378447138843"><ele>286.0</ele><time>2026-05-02T15:54:23.999Z</time></trkpt><trkpt lat="44.69041823872247" lon="10.186376136372887"><ele>286.0</ele><time>2026-05-02T15:54:24.999Z</time></trkpt><trkpt lat="44.69050372988687" lon="10.186410969205047"><ele>286.2</ele><time>2026-05-02T15:54:25.999Z</time></trkpt><trkpt lat="44.69056832315194" lon="10.186441786410928"><ele>286.40000000000003</ele><time>2026-05-02T15:54:26.999Z</time></trkpt><trkpt lat="44.69059731536734" lon="10.1865618351033"><ele>286.6</ele><time>2026-05-02T15:54:27.999Z</time></trkpt><trkpt lat="44.69061626307955" lon="10.186705590781745"><ele>286.8</ele><time>2026-05-02T15:54:29Z</time></trkpt><trkpt lat="44.690646917795945" lon="10.186877943378775"><ele>287.0</ele><time>2026-05-02T15:54:30Z</time></trkpt><trkpt lat="44.6906881104241" lon="10.187041160484997"><ele>288.5</ele><time>2026-05-02T15:54:31Z</time></trkpt><trkpt lat="44.690732683093565" lon="10.18720595401972"><ele>290.0</ele><time>2026-05-02T15:54:32Z</time></trkpt><trkpt lat="44.69079041005505" lon="10.187356031015511"><ele>291.5</ele><time>2026-05-02T15:54:33Z</time></trkpt><trkpt lat="44.69083485192302" lon="10.187518586917701"><ele>293.0</ele><time>2026-05-02T15:54:34Z</time></trkpt><trkpt lat="44.690841784140794" lon="10.18768801201642"><ele>293.0</ele><time>2026-05-02T15:54:35Z</time></trkpt><trkpt lat="44.690841352958195" lon="10.187855752902061"><ele>293.0</ele><time>2026-05-02T15:54:36Z</time></trkpt><trkpt lat="44.690834254599565" lon="10.188010575559"><ele>293.0</ele><time>2026-05-02T15:54:37Z</time></trkpt><trkpt lat="44.690823451646125" lon="10.188161561981065"><ele>293.0</ele><time>2026-05-02T15:54:38Z</time></trkpt><trkpt lat="44.690819208991805" lon="10.188326261655062"><ele>291.5</ele><time>2026-05-02T15:54:39Z</time></trkpt><trkpt lat="44.69083206874477" lon="10.188487231155095"><ele>290.0</ele><time>2026-05-02T15:54:40Z</time></trkpt><trkpt lat="44.69087008630527" lon="10.188645250252083"><ele>288.5</ele><time>2026-05-02T15:54:41Z</time></trkpt><trkpt lat="44.69093576793209" lon="10.188809884993335"><ele>287.0</ele><time>2026-05-02T15:54:42Z</time></trkpt><trkpt lat="44.691021070488276" lon="10.188944660784918"><ele>286.25</ele><time>2026-05-02T15:54:43Z</time></trkpt><trkpt lat="44.691092787957565" lon="10.189089261756466"><ele>285.5</ele><time>2026-05-02T15:54:44Z</time></trkpt><trkpt lat="44.691183484001705" lon="10.189248787793517"><ele>284.75</ele><time>2026-05-02T15:54:45Z</time></trkpt><trkpt lat="44.69128068552241" lon="10.189365057995737"><ele>284.0</ele><time>2026-05-02T15:54:46Z</time></trkpt><trkpt lat="44.691391893570916" lon="10.189468802258078"><ele>284.0</ele><time>2026-05-02T15:54:47Z</time></trkpt><trkpt lat="44.691509192747816" lon="10.189551543444887"><ele>284.0</ele><time>2026-05-02T15:54:48Z</time></trkpt><trkpt lat="44.691632595208794" lon="10.18962600682018"><ele>284.0</ele><time>2026-05-02T15:54:49Z</time></trkpt><trkpt lat="44.69175710917671" lon="10.189684260819464"><ele>284.0</ele><time>2026-05-02T15:54:50Z</time></trkpt><trkpt lat="44.69186415297927" lon="10.189773183551749"><ele>285.0</ele><time>2026-05-02T15:54:51Z</time></trkpt><trkpt lat="44.69193213506178" lon="10.18987052379364"><ele>286.0</ele><time>2026-05-02T15:54:52Z</time></trkpt><trkpt lat="44.69196819548859" lon="10.190001346923706"><ele>287.0</ele><time>2026-05-02T15:54:53Z</time></trkpt><trkpt lat="44.691999027620135" lon="10.190155721983983"><ele>288.0</ele><time>2026-05-02T15:54:54Z</time></trkpt><trkpt lat="44.69204980124885" lon="10.190301226921704"><ele>289.0</ele><time>2026-05-02T15:54:55Z</time></trkpt><trkpt lat="44.69212404876276" lon="10.190418744487049"><ele>289.0</ele><time>2026-05-02T15:54:56Z</time></trkpt><trkpt lat="44.692227245908825" lon="10.190520603421431"><ele>289.0</ele><time>2026-05-02T15:54:57Z</time></trkpt><trkpt lat="44.692364692697296" lon="10.190569351430904"><ele>289.0</ele><time>2026-05-02T15:54:58Z</time></trkpt><trkpt lat="44.6925051646575" lon="10.190592619511527"><ele>289.0</ele><time>2026-05-02T15:54:59Z</time></trkpt><trkpt lat="44.692636378606046" lon="10.190613066378157"><ele>291.0</ele><time>2026-05-02T15:55:00Z</time></trkpt><trkpt lat="44.69276850440104" lon="10.190639148285317"><ele>293.0</ele><time>2026-05-02T15:55:01Z</time></trkpt><trkpt lat="44.692894408311396" lon="10.190691661973668"><ele>295.0</ele><time>2026-05-02T15:55:02Z</time></trkpt><trkpt lat="44.69300488334238" lon="10.19073438958715"><ele>297.0</ele><time>2026-05-02T15:55:03Z</time></trkpt><trkpt lat="44.69308877297485" lon="10.190787977565776"><ele>297.0</ele><time>2026-05-02T15:55:04Z</time></trkpt><trkpt lat="44.69318178423582" lon="10.190855522042035"><ele>297.0</ele><time>2026-05-02T15:55:05Z</time></trkpt><trkpt lat="44.69325086446645" lon="10.190991723376676"><ele>297.0</ele><time>2026-05-02T15:55:06Z</time></trkpt><trkpt lat="44.69333519981126" lon="10.191128143163569"><ele>297.0</ele><time>2026-05-02T15:55:07Z</time></trkpt><trkpt lat="44.693439578534594" lon="10.191279007809861"><ele>297.0</ele><time>2026-05-02T15:55:08Z</time></trkpt><trkpt lat="44.69354579919312" lon="10.19147281849246"><ele>297.0</ele><time>2026-05-02T15:55:09Z</time></trkpt><trkpt lat="44.69360950941185" lon="10.191576095022512"><ele>297.0</ele><time>2026-05-02T15:55:10Z</time></trkpt><trkpt lat="44.69368644613592" lon="10.191703057938938"><ele>297.0</ele><time>2026-05-02T15:55:11Z</time></trkpt><trkpt lat="44.69375192263011" lon="10.191843070827115"><ele>294.75</ele><time>2026-05-02T15:55:12Z</time></trkpt><trkpt lat="44.693790168102026" lon="10.191970599905659"><ele>292.5</ele><time>2026-05-02T15:55:13Z</time></trkpt><trkpt lat="44.693836936292136" lon="10.192166392945174"><ele>290.25</ele><time>2026-05-02T15:55:14Z</time></trkpt><trkpt lat="44.69383318997592" lon="10.192361575818193"><ele>288.0</ele><time>2026-05-02T15:55:15Z</time></trkpt><trkpt lat="44.693850465337846" lon="10.192548942796554"><ele>288.0</ele><time>2026-05-02T15:55:16Z</time></trkpt><trkpt lat="44.69389104696939" lon="10.192723183356245"><ele>288.0</ele><time>2026-05-02T15:55:17Z</time></trkpt><trkpt lat="44.693966404587165" lon="10.192851889860393"><ele>288.0</ele><time>2026-05-02T15:55:18Z</time></trkpt><trkpt lat="44.69406027824576" lon="10.193006780862941"><ele>288.0</ele><time>2026-05-02T15:55:19Z</time></trkpt><trkpt lat="44.69414229925722" lon="10.193184440831475"><ele>288.25</ele><time>2026-05-02T15:55:20Z</time></trkpt><trkpt lat="44.69421598823807" lon="10.193316734623881"><ele>288.5</ele><time>2026-05-02T15:55:21Z</time></trkpt><trkpt lat="44.6942688908403" lon="10.193463574687462"><ele>288.75</ele><time>2026-05-02T15:55:22Z</time></trkpt><trkpt lat="44.694302419028084" lon="10.193630359605908"><ele>289.0</ele><time>2026-05-02T15:55:23Z</time></trkpt><trkpt lat="44.69433464413252" lon="10.193815912901478"><ele>289.0</ele><time>2026-05-02T15:55:24Z</time></trkpt><trkpt lat="44.69438682115897" lon="10.19399862592947"><ele>289.0</ele><time>2026-05-02T15:55:25Z</time></trkpt><trkpt lat="44.69443059162665" lon="10.194194644557596"><ele>289.0</ele><time>2026-05-02T15:55:26Z</time></trkpt><trkpt lat="44.69448053725029" lon="10.194370998868711"><ele>289.0</ele><time>2026-05-02T15:55:27Z</time></trkpt><trkpt lat="44.69453189679362" lon="10.194536763283594"><ele>285.5</ele><time>2026-05-02T15:55:28Z</time></trkpt><trkpt lat="44.694593463822414" lon="10.194709111225592"><ele>282.0</ele><time>2026-05-02T15:55:29Z</time></trkpt><trkpt lat="44.69466292284665" lon="10.19486749169291"><ele>278.5</ele><time>2026-05-02T15:55:30Z</time></trkpt><trkpt lat="44.694741667690295" lon="10.19502662159011"><ele>275.0</ele><time>2026-05-02T15:55:31Z</time></trkpt><trkpt lat="44.69481008071118" lon="10.195203590209907"><ele>275.0</ele><time>2026-05-02T15:55:32Z</time></trkpt><trkpt lat="44.69489589279711" lon="10.195341100230488"><ele>275.0</ele><time>2026-05-02T15:55:33Z</time></trkpt><trkpt lat="44.694967412636814" lon="10.19550148018624"><ele>275.0</ele><time>2026-05-02T15:55:34Z</time></trkpt><trkpt lat="44.69504945220902" lon="10.1956686790786"><ele>275.0</ele><time>2026-05-02T15:55:35Z</time></trkpt><trkpt lat="44.69513597096384" lon="10.195830036019553"><ele>274.0</ele><time>2026-05-02T15:55:35.999Z</time></trkpt><trkpt lat="44.69521517761667" lon="10.195988783661356"><ele>273.0</ele><time>2026-05-02T15:55:36.999Z</time></trkpt><trkpt lat="44.69528942665445" lon="10.196136258663776"><ele>272.0</ele><time>2026-05-02T15:55:37.999Z</time></trkpt><trkpt lat="44.69537090974081" lon="10.196274597210664"><ele>271.0</ele><time>2026-05-02T15:55:38.999Z</time></trkpt><trkpt lat="44.695453843072784" lon="10.19640251185768"><ele>273.75</ele><time>2026-05-02T15:55:39.999Z</time></trkpt><trkpt lat="44.69551507562872" lon="10.196528108674132"><ele>276.5</ele><time>2026-05-02T15:55:40.999Z</time></trkpt><trkpt lat="44.69554957668031" lon="10.196660063699914"><ele>279.25</ele><time>2026-05-02T15:55:41.999Z</time></trkpt><trkpt lat="44.69552775297301" lon="10.196811688742304"><ele>282.0</ele><time>2026-05-02T15:55:42.999Z</time></trkpt><trkpt lat="44.695539746828096" lon="10.196999624506015"><ele>282.0</ele><time>2026-05-02T15:55:43.999Z</time></trkpt><trkpt lat="44.695563104709976" lon="10.197176880991996"><ele>282.0</ele><time>2026-05-02T15:55:44.999Z</time></trkpt><trkpt lat="44.695638644885285" lon="10.197344391120872"><ele>282.0</ele><time>2026-05-02T15:55:45.999Z</time></trkpt><trkpt lat="44.69573023568754" lon="10.19747251741698"><ele>282.0</ele><time>2026-05-02T15:55:46.999Z</time></trkpt><trkpt lat="44.695838856305585" lon="10.197541945738603"><ele>282.5</ele><time>2026-05-02T15:55:47.999Z</time></trkpt><trkpt lat="44.69596574611215" lon="10.197581814335337"><ele>283.0</ele><time>2026-05-02T15:55:48.999Z</time></trkpt><trkpt lat="44.69608964946597" lon="10.197652599141986"><ele>283.5</ele><time>2026-05-02T15:55:49.999Z</time></trkpt><trkpt lat="44.69621834216707" lon="10.197697426007014"><ele>284.0</ele><time>2026-05-02T15:55:50.999Z</time></trkpt><trkpt lat="44.69634610263048" lon="10.197756118747211"><ele>284.0</ele><time>2026-05-02T15:55:51.999Z</time></trkpt><trkpt lat="44.69647725821787" lon="10.197815070823236"><ele>284.0</ele><time>2026-05-02T15:55:52.999Z</time></trkpt><trkpt lat="44.696620954853785" lon="10.197846802249725"><ele>284.0</ele><time>2026-05-02T15:55:53.999Z</time></trkpt><trkpt lat="44.69676772181193" lon="10.197882522364967"><ele>284.0</ele><time>2026-05-02T15:55:54.999Z</time></trkpt><trkpt lat="44.69691280492709" lon="10.197929620030264"><ele>281.5</ele><time>2026-05-02T15:55:55.999Z</time></trkpt><trkpt lat="44.69705861570501" lon="10.197961477211987"><ele>279.0</ele><time>2026-05-02T15:55:56.999Z</time></trkpt><trkpt lat="44.69718436292937" lon="10.197991985944663"><ele>276.5</ele><time>2026-05-02T15:55:57.999Z</time></trkpt><trkpt lat="44.697270087429935" lon="10.19809103821477"><ele>274.0</ele><time>2026-05-02T15:55:58.999Z</time></trkpt><trkpt lat="44.69733920675376" lon="10.198165058130481"><ele>276.0</ele><time>2026-05-02T15:55:59.999Z</time></trkpt><trkpt lat="44.69733625144153" lon="10.198276314091292"><ele>278.0</ele><time>2026-05-02T15:56:00.999Z</time></trkpt><trkpt lat="44.69726900485319" lon="10.198375402566873"><ele>280.0</ele><time>2026-05-02T15:56:01.999Z</time></trkpt><trkpt lat="44.6971586454165" lon="10.198394026041656"><ele>282.0</ele><time>2026-05-02T15:56:02.999Z</time></trkpt><trkpt lat="44.69706945755389" lon="10.198472871925"><ele>284.0</ele><time>2026-05-02T15:56:03.999Z</time></trkpt><trkpt lat="44.69695589597163" lon="10.198554767294981"><ele>286.0</ele><time>2026-05-02T15:56:04.999Z</time></trkpt><trkpt lat="44.696864698120585" lon="10.198643764952035"><ele>288.0</ele><time>2026-05-02T15:56:05.999Z</time></trkpt><trkpt lat="44.69678571093424" lon="10.198748980062755"><ele>290.0</ele><time>2026-05-02T15:56:06.999Z</time></trkpt><trkpt lat="44.696785941996744" lon="10.198952912154974"><ele>292.0</ele><time>2026-05-02T15:56:07.999Z</time></trkpt><trkpt lat="44.696780707487804" lon="10.199160160678712"><ele>292.0</ele><time>2026-05-02T15:56:08.999Z</time></trkpt><trkpt lat="44.69677995574419" lon="10.199331943167447"><ele>292.0</ele><time>2026-05-02T15:56:09.999Z</time></trkpt><trkpt lat="44.6967810449311" lon="10.199483176505044"><ele>292.0</ele><time>2026-05-02T15:56:10.999Z</time></trkpt><trkpt lat="44.69678108010176" lon="10.199642318118649"><ele>292.0</ele><time>2026-05-02T15:56:11.999Z</time></trkpt><trkpt lat="44.696783734784724" lon="10.199801806587727"><ele>293.0</ele><time>2026-05-02T15:56:12.999Z</time></trkpt><trkpt lat="44.696797838800094" lon="10.199957445268177"><ele>294.0</ele><time>2026-05-02T15:56:13.999Z</time></trkpt><trkpt lat="44.69679686016672" lon="10.200107833245244"><ele>295.0</ele><time>2026-05-02T15:56:14.999Z</time></trkpt><trkpt lat="44.696787529985315" lon="10.200260345953833"><ele>296.0</ele><time>2026-05-02T15:56:15.999Z</time></trkpt><trkpt lat="44.69677541734054" lon="10.200427146974983"><ele>297.0</ele><time>2026-05-02T15:56:16.999Z</time></trkpt><trkpt lat="44.69671780113113" lon="10.200568091199257"><ele>297.5</ele><time>2026-05-02T15:56:17.999Z</time></trkpt><trkpt lat="44.696653990434534" lon="10.200704970344503"><ele>298.0</ele><time>2026-05-02T15:56:18.999Z</time></trkpt><trkpt lat="44.696577372143395" lon="10.200862239963437"><ele>298.5</ele><time>2026-05-02T15:56:19.999Z</time></trkpt><trkpt lat="44.696504689888435" lon="10.20103201995212"><ele>299.0</ele><time>2026-05-02T15:56:20.999Z</time></trkpt><trkpt lat="44.69643277969343" lon="10.201190436618228"><ele>299.0</ele><time>2026-05-02T15:56:21.999Z</time></trkpt><trkpt lat="44.69635603221455" lon="10.201354803851434"><ele>299.0</ele><time>2026-05-02T15:56:22.999Z</time></trkpt><trkpt lat="44.69630699932073" lon="10.201537266004985"><ele>299.0</ele><time>2026-05-02T15:56:23.999Z</time></trkpt><trkpt lat="44.69628012958631" lon="10.201716286921403"><ele>299.0</ele><time>2026-05-02T15:56:24.999Z</time></trkpt><trkpt lat="44.69629088215848" lon="10.201902244238122"><ele>297.25</ele><time>2026-05-02T15:56:25.999Z</time></trkpt><trkpt lat="44.696345785610674" lon="10.202059137515409"><ele>295.5</ele><time>2026-05-02T15:56:26.999Z</time></trkpt><trkpt lat="44.69643605903652" lon="10.202188081220706"><ele>293.75</ele><time>2026-05-02T15:56:27.999Z</time></trkpt><trkpt lat="44.6965547508549" lon="10.202314268479409"><ele>292.0</ele><time>2026-05-02T15:56:28.999Z</time></trkpt><trkpt lat="44.69664463420336" lon="10.202479518316112"><ele>291.66666666666663</ele><time>2026-05-02T15:56:29.999Z</time></trkpt><trkpt lat="44.69672403141956" lon="10.202654760761094"><ele>291.3333333333333</ele><time>2026-05-02T15:56:30.999Z</time></trkpt><trkpt lat="44.696783147838424" lon="10.202848394142054"><ele>291.0</ele><time>2026-05-02T15:56:31.999Z</time></trkpt><trkpt lat="44.69685361308959" lon="10.203046646900521"><ele>290.0</ele><time>2026-05-02T15:56:32.999Z</time></trkpt><trkpt lat="44.69691420094195" lon="10.20324929970877"><ele>289.0</ele><time>2026-05-02T15:56:33.999Z</time></trkpt><trkpt lat="44.69700821025286" lon="10.203413952976469"><ele>288.0</ele><time>2026-05-02T15:56:35Z</time></trkpt><trkpt lat="44.697138426253574" lon="10.203572607720945"><ele>288.0</ele><time>2026-05-02T15:56:36Z</time></trkpt><trkpt lat="44.69724582426084" lon="10.203717810779796"><ele>288.0</ele><time>2026-05-02T15:56:37Z</time></trkpt><trkpt lat="44.69735430445428" lon="10.20386014397477"><ele>288.0</ele><time>2026-05-02T15:56:38Z</time></trkpt><trkpt lat="44.69744271456816" lon="10.20401774263212"><ele>288.0</ele><time>2026-05-02T15:56:39Z</time></trkpt><trkpt lat="44.69750189821099" lon="10.204194078067031"><ele>291.0</ele><time>2026-05-02T15:56:40Z</time></trkpt><trkpt lat="44.697556148506685" lon="10.204391301839834"><ele>294.0</ele><time>2026-05-02T15:56:41Z</time></trkpt><trkpt lat="44.69758935201313" lon="10.204578529748122"><ele>297.0</ele><time>2026-05-02T15:56:42Z</time></trkpt><trkpt lat="44.69761961935678" lon="10.204751500739048"><ele>300.0</ele><time>2026-05-02T15:56:43Z</time></trkpt><trkpt lat="44.69766719350051" lon="10.204925468917585"><ele>300.0</ele><time>2026-05-02T15:56:44Z</time></trkpt><trkpt lat="44.69768645773726" lon="10.20511771350782"><ele>300.0</ele><time>2026-05-02T15:56:45Z</time></trkpt><trkpt lat="44.69774109761798" lon="10.205292565398425"><ele>300.0</ele><time>2026-05-02T15:56:46Z</time></trkpt><trkpt lat="44.697784042689946" lon="10.205474083987184"><ele>300.0</ele><time>2026-05-02T15:56:47Z</time></trkpt><trkpt lat="44.69783754951968" lon="10.20566334097578"><ele>300.0</ele><time>2026-05-02T15:56:48Z</time></trkpt><trkpt lat="44.697903170951456" lon="10.205860435364245"><ele>300.0</ele><time>2026-05-02T15:56:49Z</time></trkpt><trkpt lat="44.69797456341196" lon="10.206058126589769"><ele>300.0</ele><time>2026-05-02T15:56:50Z</time></trkpt><trkpt lat="44.698056107709846" lon="10.206251909944205"><ele>300.0</ele><time>2026-05-02T15:56:51Z</time></trkpt><trkpt lat="44.69813613142424" lon="10.206431740923437"><ele>300.0</ele><time>2026-05-02T15:56:52Z</time></trkpt><trkpt lat="44.698202139451055" lon="10.206630987936823"><ele>300.0</ele><time>2026-05-02T15:56:53Z</time></trkpt><trkpt lat="44.69827953525807" lon="10.206814865922706"><ele>299.0</ele><time>2026-05-02T15:56:54Z</time></trkpt><trkpt lat="44.69834542586794" lon="10.206975634768337"><ele>298.0</ele><time>2026-05-02T15:56:55Z</time></trkpt><trkpt lat="44.69846315869316" lon="10.207243467306732"><ele>297.0</ele><time>2026-05-02T15:56:56Z</time></trkpt><trkpt lat="44.69854988335145" lon="10.207444598268497"><ele>293.3333333333333</ele><time>2026-05-02T15:56:57Z</time></trkpt><trkpt lat="44.698635804838574" lon="10.207639192510166"><ele>289.66666666666663</ele><time>2026-05-02T15:56:58Z</time></trkpt><trkpt lat="44.6987141075034" lon="10.207822602169868"><ele>286.0</ele><time>2026-05-02T15:56:59Z</time></trkpt><trkpt lat="44.698794860778854" lon="10.207999201291537"><ele>285.66666666666663</ele><time>2026-05-02T15:57:00Z</time></trkpt><trkpt lat="44.69887541260539" lon="10.208172681209039"><ele>285.3333333333333</ele><time>2026-05-02T15:57:01Z</time></trkpt><trkpt lat="44.698969723238804" lon="10.208358954777038"><ele>285.0</ele><time>2026-05-02T15:57:02Z</time></trkpt><trkpt lat="44.699054146326574" lon="10.208551629974583"><ele>285.0</ele><time>2026-05-02T15:57:03Z</time></trkpt><trkpt lat="44.699152298725444" lon="10.20873140967938"><ele>285.0</ele><time>2026-05-02T15:57:04Z</time></trkpt><trkpt lat="44.69924420141469" lon="10.20890145987963"><ele>285.0</ele><time>2026-05-02T15:57:05Z</time></trkpt><trkpt lat="44.69933182338842" lon="10.209065853091968"><ele>284.75</ele><time>2026-05-02T15:57:06Z</time></trkpt><trkpt lat="44.69941507889358" lon="10.209222053763206"><ele>284.5</ele><time>2026-05-02T15:57:07Z</time></trkpt><trkpt lat="44.699497220341435" lon="10.209376164582428"><ele>284.25</ele><time>2026-05-02T15:57:08Z</time></trkpt><trkpt lat="44.69958987801714" lon="10.209507252550715"><ele>284.0</ele><time>2026-05-02T15:57:09Z</time></trkpt><trkpt lat="44.69964332314095" lon="10.209610651996682"><ele>283.8</ele><time>2026-05-02T15:57:10Z</time></trkpt><trkpt lat="44.69957382793046" lon="10.209659075077411"><ele>283.59999999999997</ele><time>2026-05-02T15:57:14Z</time></trkpt><trkpt lat="44.69956427057244" lon="10.209749603885014"><ele>283.4</ele><time>2026-05-02T15:57:16Z</time></trkpt><trkpt lat="44.69952932842152" lon="10.209856709306054"><ele>283.2</ele><time>2026-05-02T15:57:17Z</time></trkpt><trkpt lat="44.699485700774254" lon="10.209993169180205"><ele>283.0</ele><time>2026-05-02T15:57:18Z</time></trkpt><trkpt lat="44.69943110210256" lon="10.210143673272432"><ele>282.0</ele><time>2026-05-02T15:57:19Z</time></trkpt><trkpt lat="44.699364078301464" lon="10.210307999432493"><ele>281.0</ele><time>2026-05-02T15:57:20Z</time></trkpt><trkpt lat="44.699288668960904" lon="10.210475371293802"><ele>280.0</ele><time>2026-05-02T15:57:21Z</time></trkpt><trkpt lat="44.69920854131608" lon="10.21064124843359"><ele>279.0</ele><time>2026-05-02T15:57:22Z</time></trkpt><trkpt lat="44.699135488069345" lon="10.210790341590696"><ele>276.75</ele><time>2026-05-02T15:57:23Z</time></trkpt><trkpt lat="44.699063330719945" lon="10.21093197025483"><ele>274.5</ele><time>2026-05-02T15:57:24Z</time></trkpt><trkpt lat="44.6989885392215" lon="10.211048771227672"><ele>272.25</ele><time>2026-05-02T15:57:25Z</time></trkpt><trkpt lat="44.698903869856245" lon="10.211149921337745"><ele>270.0</ele><time>2026-05-02T15:57:26Z</time></trkpt><trkpt lat="44.698814651975155" lon="10.211234154129377"><ele>270.0</ele><time>2026-05-02T15:57:27Z</time></trkpt><trkpt lat="44.69875181998426" lon="10.211341144826406"><ele>270.0</ele><time>2026-05-02T15:57:28Z</time></trkpt><trkpt lat="44.69870445726479" lon="10.211441058596764"><ele>270.0</ele><time>2026-05-02T15:57:29Z</time></trkpt><trkpt lat="44.69868702184486" lon="10.211589602684374"><ele>270.0</ele><time>2026-05-02T15:57:30Z</time></trkpt><trkpt lat="44.69868740813956" lon="10.211760692764306"><ele>270.0</ele><time>2026-05-02T15:57:31Z</time></trkpt><trkpt lat="44.698659852612295" lon="10.211928247023248"><ele>268.0</ele><time>2026-05-02T15:57:32Z</time></trkpt><trkpt lat="44.69864922957071" lon="10.212087130810476"><ele>266.0</ele><time>2026-05-02T15:57:33Z</time></trkpt><trkpt lat="44.69863960481961" lon="10.212244023116082"><ele>264.0</ele><time>2026-05-02T15:57:34Z</time></trkpt><trkpt lat="44.698654429539836" lon="10.21236115964796"><ele>262.0</ele><time>2026-05-02T15:57:35Z</time></trkpt><trkpt lat="44.698688132377484" lon="10.212454154111162"><ele>260.0</ele><time>2026-05-02T15:57:36Z</time></trkpt><trkpt lat="44.69876012807826" lon="10.212542451895962"><ele>258.4</ele><time>2026-05-02T15:57:37Z</time></trkpt><trkpt lat="44.69885373183514" lon="10.212594407046543"><ele>256.8</ele><time>2026-05-02T15:57:38Z</time></trkpt><trkpt lat="44.69892471784643" lon="10.212681002476595"><ele>255.2</ele><time>2026-05-02T15:57:39Z</time></trkpt><trkpt lat="44.698984536828625" lon="10.212740197015377"><ele>253.6</ele><time>2026-05-02T15:57:40Z</time></trkpt><trkpt lat="44.699018368748305" lon="10.212845552005122"><ele>252.0</ele><time>2026-05-02T15:57:41.999Z</time></trkpt><trkpt lat="44.698966756199475" lon="10.213029153609318"><ele>249.0</ele><time>2026-05-02T15:57:43.999Z</time></trkpt><trkpt lat="44.698980980954225" lon="10.213171399239586"><ele>246.0</ele><time>2026-05-02T15:57:44.999Z</time></trkpt><trkpt lat="44.69897875456302" lon="10.213339271506095"><ele>243.0</ele><time>2026-05-02T15:57:45.999Z</time></trkpt><trkpt lat="44.69899735035005" lon="10.213509043478558"><ele>240.0</ele><time>2026-05-02T15:57:46.999Z</time></trkpt><trkpt lat="44.6990261126872" lon="10.213676011224763"><ele>240.0</ele><time>2026-05-02T15:57:47.999Z</time></trkpt><trkpt lat="44.69908291265032" lon="10.213823645746658"><ele>240.0</ele><time>2026-05-02T15:57:48.999Z</time></trkpt><trkpt lat="44.699114057926366" lon="10.21398555862584"><ele>240.0</ele><time>2026-05-02T15:57:49.999Z</time></trkpt><trkpt lat="44.69915769042676" lon="10.2141336287595"><ele>240.0</ele><time>2026-05-02T15:57:50.999Z</time></trkpt><trkpt lat="44.69921361959349" lon="10.214263468749676"><ele>239.6</ele><time>2026-05-02T15:57:51.999Z</time></trkpt><trkpt lat="44.69925159657445" lon="10.21440130555216"><ele>239.2</ele><time>2026-05-02T15:57:52.999Z</time></trkpt><trkpt lat="44.699297161469666" lon="10.214524494035196"><ele>238.8</ele><time>2026-05-02T15:57:53.999Z</time></trkpt><trkpt lat="44.69935098512202" lon="10.214621199034433"><ele>238.4</ele><time>2026-05-02T15:57:54.999Z</time></trkpt><trkpt lat="44.699451857697525" lon="10.214704374477543"><ele>238.0</ele><time>2026-05-02T15:57:55.999Z</time></trkpt><trkpt lat="44.69955116717219" lon="10.214779781621711"><ele>236.75</ele><time>2026-05-02T15:57:56.999Z</time></trkpt><trkpt lat="44.699655854119634" lon="10.214883141505137"><ele>235.5</ele><time>2026-05-02T15:57:57.999Z</time></trkpt><trkpt lat="44.69977457257768" lon="10.214954417348357"><ele>234.25</ele><time>2026-05-02T15:57:58.999Z</time></trkpt><trkpt lat="44.69986868584464" lon="10.215055222553163"><ele>233.0</ele><time>2026-05-02T15:57:59.999Z</time></trkpt><trkpt lat="44.699982161357866" lon="10.215122138440254"><ele>233.0</ele><time>2026-05-02T15:58:00.999Z</time></trkpt><trkpt lat="44.70009503688384" lon="10.21521216695013"><ele>233.0</ele><time>2026-05-02T15:58:01.999Z</time></trkpt><trkpt lat="44.70021136590353" lon="10.215306037074669"><ele>233.0</ele><time>2026-05-02T15:58:02.999Z</time></trkpt><trkpt lat="44.70031893106011" lon="10.215390615825026"><ele>233.0</ele><time>2026-05-02T15:58:03.999Z</time></trkpt><trkpt lat="44.70042195472955" lon="10.21547237676817"><ele>232.5</ele><time>2026-05-02T15:58:04.999Z</time></trkpt><trkpt lat="44.70051599014772" lon="10.215542461121238"><ele>232.0</ele><time>2026-05-02T15:58:05.999Z</time></trkpt><trkpt lat="44.700621172091424" lon="10.215629475958087"><ele>231.5</ele><time>2026-05-02T15:58:06.999Z</time></trkpt><trkpt lat="44.70071067000852" lon="10.215725296572138"><ele>231.0</ele><time>2026-05-02T15:58:07.999Z</time></trkpt><trkpt lat="44.70081283145937" lon="10.215779516803915"><ele>230.0</ele><time>2026-05-02T15:58:08.999Z</time></trkpt><trkpt lat="44.70090365181626" lon="10.215850359987936"><ele>229.00000000000003</ele><time>2026-05-02T15:58:09.999Z</time></trkpt><trkpt lat="44.70098015639801" lon="10.215917611563041"><ele>228.00000000000003</ele><time>2026-05-02T15:58:10.999Z</time></trkpt><trkpt lat="44.70105929445017" lon="10.216007245533229"><ele>227.0</ele><time>2026-05-02T15:58:11.999Z</time></trkpt><trkpt lat="44.70115157050596" lon="10.21608636906718"><ele>226.0</ele><time>2026-05-02T15:58:12.999Z</time></trkpt><trkpt lat="44.70125393414617" lon="10.216173608960524"><ele>225.4</ele><time>2026-05-02T15:58:13.999Z</time></trkpt><trkpt lat="44.70135510718974" lon="10.216256927910395"><ele>224.8</ele><time>2026-05-02T15:58:14.999Z</time></trkpt><trkpt lat="44.70145452292027" lon="10.216336118997113"><ele>224.20000000000002</ele><time>2026-05-02T15:58:15.999Z</time></trkpt><trkpt lat="44.701528064374166" lon="10.216394325030313"><ele>223.60000000000002</ele><time>2026-05-02T15:58:16.999Z</time></trkpt><trkpt lat="44.70158440764597" lon="10.216495301857668"><ele>223.0</ele><time>2026-05-02T15:58:18.999Z</time></trkpt><trkpt lat="44.70155948681423" lon="10.216591220992175"><ele>223.0</ele><time>2026-05-02T15:58:19.999Z</time></trkpt><trkpt lat="44.70154322611959" lon="10.216755050111532"><ele>223.0</ele><time>2026-05-02T15:58:20.999Z</time></trkpt><trkpt lat="44.70152951073005" lon="10.216948732286715"><ele>223.0</ele><time>2026-05-02T15:58:21.999Z</time></trkpt><trkpt lat="44.70151602039252" lon="10.21714493025865"><ele>223.0</ele><time>2026-05-02T15:58:22.999Z</time></trkpt><trkpt lat="44.70151670396436" lon="10.217329014707106"><ele>222.25</ele><time>2026-05-02T15:58:23.999Z</time></trkpt><trkpt lat="44.70150287386257" lon="10.217498681160313"><ele>221.5</ele><time>2026-05-02T15:58:24.999Z</time></trkpt><trkpt lat="44.70148529376034" lon="10.21767131806767"><ele>220.75</ele><time>2026-05-02T15:58:25.999Z</time></trkpt><trkpt lat="44.70146690621607" lon="10.217858718432797"><ele>220.0</ele><time>2026-05-02T15:58:26.999Z</time></trkpt><trkpt lat="44.70146728904519" lon="10.21803508845699"><ele>218.8</ele><time>2026-05-02T15:58:27.999Z</time></trkpt><trkpt lat="44.70145357783525" lon="10.218179789262429"><ele>217.6</ele><time>2026-05-02T15:58:28.999Z</time></trkpt><trkpt lat="44.701454898285505" lon="10.218313801246467"><ele>216.39999999999998</ele><time>2026-05-02T15:58:29.999Z</time></trkpt><trkpt lat="44.70147350696764" lon="10.218427932932741"><ele>215.2</ele><time>2026-05-02T15:58:30.999Z</time></trkpt><trkpt lat="44.701459443903744" lon="10.218542158924658"><ele>214.0</ele><time>2026-05-02T15:58:31.999Z</time></trkpt><trkpt lat="44.7014621155576" lon="10.218676374533203"><ele>214.0</ele><time>2026-05-02T15:58:32.999Z</time></trkpt><trkpt lat="44.70146483091666" lon="10.218812785807007"><ele>213.99999999999997</ele><time>2026-05-02T15:58:33.999Z</time></trkpt><trkpt lat="44.70146619469683" lon="10.21894979935977"><ele>213.99999999999997</ele><time>2026-05-02T15:58:34.999Z</time></trkpt><trkpt lat="44.701467244124096" lon="10.219099710519895"><ele>214.0</ele><time>2026-05-02T15:58:35.999Z</time></trkpt><trkpt lat="44.70146193303211" lon="10.219269409738994"><ele>214.0</ele><time>2026-05-02T15:58:36.999Z</time></trkpt><trkpt lat="44.70144441662689" lon="10.219419019212198"><ele>212.0</ele><time>2026-05-02T15:58:37.999Z</time></trkpt><trkpt lat="44.7014012080196" lon="10.219580073503183"><ele>210.0</ele><time>2026-05-02T15:58:38.999Z</time></trkpt><trkpt lat="44.70135772640341" lon="10.219748449189527"><ele>208.0</ele><time>2026-05-02T15:58:39.999Z</time></trkpt><trkpt lat="44.701311263899804" lon="10.21991818275166"><ele>206.0</ele><time>2026-05-02T15:58:41Z</time></trkpt><trkpt lat="44.70126244737203" lon="10.22009188934237"><ele>205.25</ele><time>2026-05-02T15:58:42Z</time></trkpt><trkpt lat="44.701213850739705" lon="10.220258107449661"><ele>204.5</ele><time>2026-05-02T15:58:43Z</time></trkpt><trkpt lat="44.701160586773284" lon="10.220432359126525"><ele>203.75</ele><time>2026-05-02T15:58:44Z</time></trkpt><trkpt lat="44.70110827116155" lon="10.220601564995892"><ele>203.0</ele><time>2026-05-02T15:58:45Z</time></trkpt><trkpt lat="44.70105848647585" lon="10.220759412580604"><ele>201.75</ele><time>2026-05-02T15:58:46Z</time></trkpt><trkpt lat="44.70100731700204" lon="10.220918382865252"><ele>200.5</ele><time>2026-05-02T15:58:47Z</time></trkpt><trkpt lat="44.70095494488329" lon="10.221081005566583"><ele>199.25</ele><time>2026-05-02T15:58:48Z</time></trkpt><trkpt lat="44.7009100497702" lon="10.221252456092104"><ele>198.0</ele><time>2026-05-02T15:58:49Z</time></trkpt><trkpt lat="44.70088417790135" lon="10.2214326160705"><ele>196.60000000000002</ele><time>2026-05-02T15:58:50Z</time></trkpt><trkpt lat="44.70083843722338" lon="10.221605770239643"><ele>195.20000000000002</ele><time>2026-05-02T15:58:51Z</time></trkpt><trkpt lat="44.70081523056932" lon="10.221756261607005"><ele>193.8</ele><time>2026-05-02T15:58:52Z</time></trkpt><trkpt lat="44.700776502206736" lon="10.221875064829808"><ele>192.4</ele><time>2026-05-02T15:58:53Z</time></trkpt><trkpt lat="44.70076334661251" lon="10.22196723049764"><ele>191.0</ele><time>2026-05-02T15:58:54Z</time></trkpt><trkpt lat="44.70075860380591" lon="10.222071439146013"><ele>191.0</ele><time>2026-05-02T15:58:56Z</time></trkpt><trkpt lat="44.70089862751087" lon="10.222155864892992"><ele>191.0</ele><time>2026-05-02T15:59:00Z</time></trkpt><trkpt lat="44.70102607366772" lon="10.222155236511297"><ele>191.0</ele><time>2026-05-02T15:59:01Z</time></trkpt><trkpt lat="44.70116364091678" lon="10.222214754129308"><ele>191.0</ele><time>2026-05-02T15:59:02Z</time></trkpt><trkpt lat="44.70132745487043" lon="10.222266846956355"><ele>191.0</ele><time>2026-05-02T15:59:03Z</time></trkpt><trkpt lat="44.701535132279446" lon="10.22233281752465"><ele>191.0</ele><time>2026-05-02T15:59:04Z</time></trkpt><trkpt lat="44.70173689506852" lon="10.222382700351433"><ele>191.0</ele><time>2026-05-02T15:59:05Z</time></trkpt><trkpt lat="44.70195907532372" lon="10.222450498552528"><ele>191.0</ele><time>2026-05-02T15:59:06Z</time></trkpt><trkpt lat="44.70217055358428" lon="10.222537903962968"><ele>191.0</ele><time>2026-05-02T15:59:07Z</time></trkpt><trkpt lat="44.70237819397632" lon="10.222614862941882"><ele>191.0</ele><time>2026-05-02T15:59:08Z</time></trkpt><trkpt lat="44.70256578378451" lon="10.222719772978552"><ele>191.0</ele><time>2026-05-02T15:59:09Z</time></trkpt><trkpt lat="44.702733583048165" lon="10.22282836545329"><ele>191.0</ele><time>2026-05-02T15:59:10Z</time></trkpt><trkpt lat="44.70290942785571" lon="10.222929801780424"><ele>191.0</ele><time>2026-05-02T15:59:11Z</time></trkpt><trkpt lat="44.70306786064446" lon="10.223064751784067"><ele>190.33333333333331</ele><time>2026-05-02T15:59:12Z</time></trkpt><trkpt lat="44.70324286706875" lon="10.223188534446876"><ele>189.66666666666666</ele><time>2026-05-02T15:59:13Z</time></trkpt><trkpt lat="44.70339015887967" lon="10.223292714430368"><ele>189.0</ele><time>2026-05-02T15:59:14Z</time></trkpt><trkpt lat="44.703504230851394" lon="10.22337339792014"><ele>191.5</ele><time>2026-05-02T15:59:15Z</time></trkpt><trkpt lat="44.703621908636656" lon="10.223456631754813"><ele>194.0</ele><time>2026-05-02T15:59:16Z</time></trkpt><trkpt lat="44.70374881185254" lon="10.223546392569856"><ele>196.5</ele><time>2026-05-02T15:59:17Z</time></trkpt><trkpt lat="44.70388680383162" lon="10.223647232557497"><ele>199.0</ele><time>2026-05-02T15:59:18Z</time></trkpt><trkpt lat="44.70403176253855" lon="10.223751356289778"><ele>199.0</ele><time>2026-05-02T15:59:19Z</time></trkpt><trkpt lat="44.704170335708525" lon="10.223824964638144"><ele>199.0</ele><time>2026-05-02T15:59:20Z</time></trkpt><trkpt lat="44.70432006801647" lon="10.223893417388966"><ele>199.0</ele><time>2026-05-02T15:59:21Z</time></trkpt><trkpt lat="44.70448068455328" lon="10.223935658119256"><ele>198.0</ele><time>2026-05-02T15:59:22Z</time></trkpt><trkpt lat="44.70465709448414" lon="10.223937231811872"><ele>197.0</ele><time>2026-05-02T15:59:23Z</time></trkpt><trkpt lat="44.70484312838213" lon="10.223923326688714"><ele>196.0</ele><time>2026-05-02T15:59:24Z</time></trkpt><trkpt lat="44.70503068038471" lon="10.2239184017638"><ele>196.0</ele><time>2026-05-02T15:59:25Z</time></trkpt><trkpt lat="44.70523535030667" lon="10.223925863789479"><ele>196.0</ele><time>2026-05-02T15:59:26Z</time></trkpt><trkpt lat="44.70546555293501" lon="10.223951435066729"><ele>196.0</ele><time>2026-05-02T15:59:27Z</time></trkpt><trkpt lat="44.70567847229954" lon="10.223970576731121"><ele>196.0</ele><time>2026-05-02T15:59:28Z</time></trkpt><trkpt lat="44.705832129701236" lon="10.223967851251542"><ele>196.0</ele><time>2026-05-02T15:59:29Z</time></trkpt><trkpt lat="44.70602322273923" lon="10.223989830521118"><ele>196.0</ele><time>2026-05-02T15:59:30Z</time></trkpt><trkpt lat="44.70620495043912" lon="10.22403975734273"><ele>194.0</ele><time>2026-05-02T15:59:31Z</time></trkpt><trkpt lat="44.706388746573744" lon="10.224048879103982"><ele>192.0</ele><time>2026-05-02T15:59:32Z</time></trkpt><trkpt lat="44.70659069099095" lon="10.224087398902956"><ele>190.0</ele><time>2026-05-02T15:59:33Z</time></trkpt><trkpt lat="44.70680792069316" lon="10.224125164907896"><ele>188.0</ele><time>2026-05-02T15:59:34Z</time></trkpt><trkpt lat="44.70698142429571" lon="10.22413389249725"><ele>186.0</ele><time>2026-05-02T15:59:35Z</time></trkpt><trkpt lat="44.70715868111017" lon="10.224156899859727"><ele>184.0</ele><time>2026-05-02T15:59:36Z</time></trkpt><trkpt lat="44.70734421830157" lon="10.22418143573553"><ele>184.0</ele><time>2026-05-02T15:59:37Z</time></trkpt><trkpt lat="44.70754403414667" lon="10.224209579758101"><ele>184.0</ele><time>2026-05-02T15:59:38Z</time></trkpt><trkpt lat="44.70773951786413" lon="10.22424267382541"><ele>184.0</ele><time>2026-05-02T15:59:39Z</time></trkpt><trkpt lat="44.707947157618705" lon="10.224268766527992"><ele>182.66666666666669</ele><time>2026-05-02T15:59:40Z</time></trkpt><trkpt lat="44.70815507380428" lon="10.224294738094516"><ele>181.33333333333334</ele><time>2026-05-02T15:59:41Z</time></trkpt><trkpt lat="44.708363786562195" lon="10.224319934357807"><ele>180.0</ele><time>2026-05-02T15:59:42Z</time></trkpt><trkpt lat="44.708572267907634" lon="10.22434898860538"><ele>179.66666666666666</ele><time>2026-05-02T15:59:43Z</time></trkpt><trkpt lat="44.708775946335116" lon="10.224378894258498"><ele>179.33333333333331</ele><time>2026-05-02T15:59:44Z</time></trkpt><trkpt lat="44.70898241123589" lon="10.224402417710417"><ele>179.0</ele><time>2026-05-02T15:59:45Z</time></trkpt><trkpt lat="44.70918925284823" lon="10.22443782650707"><ele>179.0</ele><time>2026-05-02T15:59:46Z</time></trkpt><trkpt lat="44.709392706292206" lon="10.224473375619475"><ele>179.0</ele><time>2026-05-02T15:59:47Z</time></trkpt><trkpt lat="44.709585848996156" lon="10.224488924768554"><ele>179.0</ele><time>2026-05-02T15:59:47.999Z</time></trkpt><trkpt lat="44.70976429442628" lon="10.22451684514316"><ele>178.75</ele><time>2026-05-02T15:59:48.999Z</time></trkpt><trkpt lat="44.7099193827139" lon="10.224536412003047"><ele>178.5</ele><time>2026-05-02T15:59:49.999Z</time></trkpt><trkpt lat="44.710063190845624" lon="10.224555628422623"><ele>178.25</ele><time>2026-05-02T15:59:50.999Z</time></trkpt><trkpt lat="44.71019396690203" lon="10.224575455586082"><ele>178.0</ele><time>2026-05-02T15:59:51.999Z</time></trkpt><trkpt lat="44.71031981304563" lon="10.224590956587441"><ele>178.0</ele><time>2026-05-02T15:59:52.999Z</time></trkpt><trkpt lat="44.71045797816281" lon="10.224601280414616"><ele>178.0</ele><time>2026-05-02T15:59:53.999Z</time></trkpt><trkpt lat="44.71059686050903" lon="10.224624745271267"><ele>178.0</ele><time>2026-05-02T15:59:54.999Z</time></trkpt><trkpt lat="44.7107411444972" lon="10.224649021657106"><ele>178.0</ele><time>2026-05-02T15:59:55.999Z</time></trkpt><trkpt lat="44.71089655768903" lon="10.224666921266538"><ele>178.0</ele><time>2026-05-02T15:59:56.999Z</time></trkpt><trkpt lat="44.7110382410461" lon="10.224689926291138"><ele>178.0</ele><time>2026-05-02T15:59:57.999Z</time></trkpt><trkpt lat="44.71118980279106" lon="10.224708094634883"><ele>178.0</ele><time>2026-05-02T15:59:58.999Z</time></trkpt><trkpt lat="44.711352027195126" lon="10.224726636040048"><ele>177.66666666666669</ele><time>2026-05-02T15:59:59.999Z</time></trkpt><trkpt lat="44.71151611497891" lon="10.224750668232629"><ele>177.33333333333334</ele><time>2026-05-02T16:00:00.999Z</time></trkpt><trkpt lat="44.71168311124916" lon="10.22478001650265"><ele>177.0</ele><time>2026-05-02T16:00:01.999Z</time></trkpt><trkpt lat="44.711859480455416" lon="10.224807093798022"><ele>176.0</ele><time>2026-05-02T16:00:02.999Z</time></trkpt><trkpt lat="44.712031777469555" lon="10.224827630098185"><ele>175.0</ele><time>2026-05-02T16:00:03.999Z</time></trkpt><trkpt lat="44.712213658190805" lon="10.224849409233205"><ele>174.0</ele><time>2026-05-02T16:00:04.999Z</time></trkpt><trkpt lat="44.71239584841157" lon="10.22487496900268"><ele>174.0</ele><time>2026-05-02T16:00:05.999Z</time></trkpt><trkpt lat="44.71257582717318" lon="10.224902277763846"><ele>174.0</ele><time>2026-05-02T16:00:06.999Z</time></trkpt><trkpt lat="44.71274776622797" lon="10.224924054916967"><ele>174.0</ele><time>2026-05-02T16:00:07.999Z</time></trkpt><trkpt lat="44.712930304166115" lon="10.224945601489896"><ele>174.33333333333334</ele><time>2026-05-02T16:00:08.999Z</time></trkpt><trkpt lat="44.71310625566602" lon="10.22497025307518"><ele>174.66666666666669</ele><time>2026-05-02T16:00:09.999Z</time></trkpt><trkpt lat="44.71327412158824" lon="10.224992786448187"><ele>175.0</ele><time>2026-05-02T16:00:10.999Z</time></trkpt><trkpt lat="44.71344011875692" lon="10.22501818846456"><ele>174.66666666666669</ele><time>2026-05-02T16:00:11.999Z</time></trkpt><trkpt lat="44.713596242066124" lon="10.225038043501614"><ele>174.33333333333334</ele><time>2026-05-02T16:00:12.999Z</time></trkpt><trkpt lat="44.71375161812883" lon="10.225051851144247"><ele>174.0</ele><time>2026-05-02T16:00:13.999Z</time></trkpt><trkpt lat="44.713892236602995" lon="10.225067890516817"><ele>174.0</ele><time>2026-05-02T16:00:14.999Z</time></trkpt><trkpt lat="44.714004209362265" lon="10.225094737155036"><ele>174.0</ele><time>2026-05-02T16:00:15.999Z</time></trkpt><trkpt lat="44.71409474426443" lon="10.22510625573783"><ele>174.0</ele><time>2026-05-02T16:00:16.999Z</time></trkpt><trkpt lat="44.71417079114689" lon="10.22511513900783"><ele>174.0</ele><time>2026-05-02T16:00:17.999Z</time></trkpt><trkpt lat="44.714249639905596" lon="10.225148910733328"><ele>174.0</ele><time>2026-05-02T16:00:19.999Z</time></trkpt><trkpt lat="44.71434537802193" lon="10.225185269781031"><ele>173.2</ele><time>2026-05-02T16:00:22.999Z</time></trkpt><trkpt lat="44.714479527528134" lon="10.225196427194872"><ele>172.39999999999998</ele><time>2026-05-02T16:00:24.999Z</time></trkpt><trkpt lat="44.71456072392115" lon="10.225227510943615"><ele>171.6</ele><time>2026-05-02T16:00:25.999Z</time></trkpt><trkpt lat="44.71465255859676" lon="10.225252928120302"><ele>170.8</ele><time>2026-05-02T16:00:26.999Z</time></trkpt><trkpt lat="44.71473869134634" lon="10.22528501958286"><ele>170.0</ele><time>2026-05-02T16:00:27.999Z</time></trkpt><trkpt lat="44.71480944847877" lon="10.225307431804415"><ele>170.0</ele><time>2026-05-02T16:00:28.999Z</time></trkpt><trkpt lat="44.71489408510964" lon="10.225332143362108"><ele>170.0</ele><time>2026-05-02T16:00:29.999Z</time></trkpt><trkpt lat="44.714988632122804" lon="10.225360453805479"><ele>170.0</ele><time>2026-05-02T16:00:30.999Z</time></trkpt><trkpt lat="44.71508075644295" lon="10.225387593278631"><ele>170.0</ele><time>2026-05-02T16:00:31.999Z</time></trkpt><trkpt lat="44.71517306025863" lon="10.225417014241414"><ele>170.0</ele><time>2026-05-02T16:00:32.999Z</time></trkpt><trkpt lat="44.71526065706708" lon="10.22544537279206"><ele>169.4</ele><time>2026-05-02T16:00:33.999Z</time></trkpt><trkpt lat="44.71536150446663" lon="10.22546382127926"><ele>168.8</ele><time>2026-05-02T16:00:34.999Z</time></trkpt><trkpt lat="44.715461284028684" lon="10.225493639229098"><ele>168.2</ele><time>2026-05-02T16:00:35.999Z</time></trkpt><trkpt lat="44.715552222827434" lon="10.22552245051128"><ele>167.6</ele><time>2026-05-02T16:00:36.999Z</time></trkpt><trkpt lat="44.71563646241484" lon="10.225552728343754"><ele>167.0</ele><time>2026-05-02T16:00:37.999Z</time></trkpt><trkpt lat="44.71572779830076" lon="10.225584447012485"><ele>167.0</ele><time>2026-05-02T16:00:38.999Z</time></trkpt><trkpt lat="44.71583023008192" lon="10.22561018012775"><ele>167.0</ele><time>2026-05-02T16:00:39.999Z</time></trkpt><trkpt lat="44.715936562476415" lon="10.225637340553455"><ele>167.0</ele><time>2026-05-02T16:00:40.999Z</time></trkpt><trkpt lat="44.71603368298424" lon="10.225661730424639"><ele>167.0</ele><time>2026-05-02T16:00:41.999Z</time></trkpt><trkpt lat="44.71613518342192" lon="10.225697044586127"><ele>167.0</ele><time>2026-05-02T16:00:42.999Z</time></trkpt><trkpt lat="44.716226620486744" lon="10.225732543907686"><ele>167.0</ele><time>2026-05-02T16:00:43.999Z</time></trkpt><trkpt lat="44.71631215253735" lon="10.225762692524338"><ele>167.0</ele><time>2026-05-02T16:00:44.999Z</time></trkpt><trkpt lat="44.71638909712448" lon="10.225798034098464"><ele>167.0</ele><time>2026-05-02T16:00:45.999Z</time></trkpt><trkpt lat="44.716458134171305" lon="10.225838592775295"><ele>167.0</ele><time>2026-05-02T16:00:47Z</time></trkpt><trkpt lat="44.71651390984803" lon="10.225899726573504"><ele>167.0</ele><time>2026-05-02T16:00:48Z</time></trkpt><trkpt lat="44.7165617097602" lon="10.225970926517538"><ele>167.0</ele><time>2026-05-02T16:00:49Z</time></trkpt><trkpt lat="44.716608334352124" lon="10.226050816367055"><ele>167.0</ele><time>2026-05-02T16:00:50Z</time></trkpt><trkpt lat="44.7166795659426" lon="10.226126078034813"><ele>167.0</ele><time>2026-05-02T16:00:51Z</time></trkpt><trkpt lat="44.71678247114498" lon="10.226191527080298"><ele>167.0</ele><time>2026-05-02T16:00:52Z</time></trkpt><trkpt lat="44.71688845516896" lon="10.226293245968717"><ele>167.0</ele><time>2026-05-02T16:00:53Z</time></trkpt><trkpt lat="44.71699039476134" lon="10.226425440234088"><ele>167.0</ele><time>2026-05-02T16:00:54Z</time></trkpt><trkpt lat="44.71711086171576" lon="10.226564537196907"><ele>167.0</ele><time>2026-05-02T16:00:55Z</time></trkpt><trkpt lat="44.71722518792434" lon="10.226706650364791"><ele>167.0</ele><time>2026-05-02T16:00:56Z</time></trkpt><trkpt lat="44.717337359725725" lon="10.22684970975203"><ele>167.0</ele><time>2026-05-02T16:00:57Z</time></trkpt><trkpt lat="44.717446748194824" lon="10.226984587328152"><ele>167.0</ele><time>2026-05-02T16:00:58Z</time></trkpt><trkpt lat="44.71754312646934" lon="10.227101618640932"><ele>167.0</ele><time>2026-05-02T16:00:59Z</time></trkpt><trkpt lat="44.71762140037182" lon="10.22722221021098"><ele>167.0</ele><time>2026-05-02T16:01:00Z</time></trkpt><trkpt lat="44.71771831294145" lon="10.227313468350161"><ele>167.5</ele><time>2026-05-02T16:01:01Z</time></trkpt><trkpt lat="44.71780971243001" lon="10.227422378127384"><ele>168.0</ele><time>2026-05-02T16:01:02Z</time></trkpt><trkpt lat="44.71791542474058" lon="10.227525755505518"><ele>168.5</ele><time>2026-05-02T16:01:03Z</time></trkpt><trkpt lat="44.71804031218677" lon="10.227611465450588"><ele>169.0</ele><time>2026-05-02T16:01:04Z</time></trkpt><trkpt lat="44.71818563451271" lon="10.227673053994222"><ele>169.0</ele><time>2026-05-02T16:01:05Z</time></trkpt><trkpt lat="44.718338698925336" lon="10.227725530295181"><ele>169.0</ele><time>2026-05-02T16:01:06Z</time></trkpt><trkpt lat="44.71850167161213" lon="10.227762266047524"><ele>169.0</ele><time>2026-05-02T16:01:07Z</time></trkpt><trkpt lat="44.71867118941754" lon="10.22779930858859"><ele>168.75</ele><time>2026-05-02T16:01:08Z</time></trkpt><trkpt lat="44.71881250660227" lon="10.22782666530274"><ele>168.5</ele><time>2026-05-02T16:01:09Z</time></trkpt><trkpt lat="44.71894909017479" lon="10.2278605840018"><ele>168.25</ele><time>2026-05-02T16:01:10Z</time></trkpt><trkpt lat="44.71909425524151" lon="10.227894824648605"><ele>168.0</ele><time>2026-05-02T16:01:11Z</time></trkpt><trkpt lat="44.719249692034765" lon="10.227923940409097"><ele>166.66666666666666</ele><time>2026-05-02T16:01:12Z</time></trkpt><trkpt lat="44.71941227113993" lon="10.227952279233063"><ele>165.33333333333331</ele><time>2026-05-02T16:01:13Z</time></trkpt><trkpt lat="44.71957955733617" lon="10.22797851558974"><ele>164.0</ele><time>2026-05-02T16:01:14Z</time></trkpt><trkpt lat="44.719748242803234" lon="10.227984027550875"><ele>164.0</ele><time>2026-05-02T16:01:15Z</time></trkpt><trkpt lat="44.71992345606047" lon="10.227985275057943"><ele>164.0</ele><time>2026-05-02T16:01:16Z</time></trkpt><trkpt lat="44.720106020741994" lon="10.227998222448086"><ele>164.0</ele><time>2026-05-02T16:01:17Z</time></trkpt><trkpt lat="44.72028917099792" lon="10.228004062454234"><ele>163.0</ele><time>2026-05-02T16:01:18Z</time></trkpt><trkpt lat="44.7204753116707" lon="10.22801056489293"><ele>162.0</ele><time>2026-05-02T16:01:19Z</time></trkpt><trkpt lat="44.72066680735736" lon="10.228017730415026"><ele>161.0</ele><time>2026-05-02T16:01:20Z</time></trkpt><trkpt lat="44.72085172411055" lon="10.228023204478992"><ele>161.0</ele><time>2026-05-02T16:01:21Z</time></trkpt><trkpt lat="44.72102809952127" lon="10.228031581638696"><ele>161.0</ele><time>2026-05-02T16:01:22Z</time></trkpt><trkpt lat="44.72119834020411" lon="10.228035305794995"><ele>161.0</ele><time>2026-05-02T16:01:23Z</time></trkpt><trkpt lat="44.72136666719517" lon="10.228035969131263"><ele>160.0</ele><time>2026-05-02T16:01:24Z</time></trkpt><trkpt lat="44.72153492707352" lon="10.228039374883819"><ele>159.0</ele><time>2026-05-02T16:01:25Z</time></trkpt><trkpt lat="44.72169309004421" lon="10.228036627092733"><ele>158.0</ele><time>2026-05-02T16:01:26Z</time></trkpt><trkpt lat="44.72184105734572" lon="10.228036628457193"><ele>157.5</ele><time>2026-05-02T16:01:27Z</time></trkpt><trkpt lat="44.721974886014074" lon="10.228038695384036"><ele>157.0</ele><time>2026-05-02T16:01:28Z</time></trkpt><trkpt lat="44.72210413478885" lon="10.22806475484603"><ele>156.5</ele><time>2026-05-02T16:01:29Z</time></trkpt><trkpt lat="44.72221824369885" lon="10.228134492772162"><ele>156.0</ele><time>2026-05-02T16:01:30Z</time></trkpt><trkpt lat="44.72229653917967" lon="10.228253602763013"><ele>156.0</ele><time>2026-05-02T16:01:31Z</time></trkpt><trkpt lat="44.72236239788912" lon="10.228355355643764"><ele>156.0</ele><time>2026-05-02T16:01:32Z</time></trkpt><trkpt lat="44.7224346581178" lon="10.228396507007286"><ele>156.0</ele><time>2026-05-02T16:01:33Z</time></trkpt><trkpt lat="44.7225134387838" lon="10.228358465498859"><ele>156.0</ele><time>2026-05-02T16:01:34Z</time></trkpt><trkpt lat="44.72260556215797" lon="10.228256531033894"><ele>156.0</ele><time>2026-05-02T16:01:35Z</time></trkpt><trkpt lat="44.7227174573739" lon="10.228151646167607"><ele>155.5</ele><time>2026-05-02T16:01:36Z</time></trkpt><trkpt lat="44.72283910754064" lon="10.228094764454578"><ele>155.0</ele><time>2026-05-02T16:01:37Z</time></trkpt><trkpt lat="44.72297798162719" lon="10.228056499252546"><ele>154.5</ele><time>2026-05-02T16:01:38Z</time></trkpt><trkpt lat="44.72314072189459" lon="10.228026331286246"><ele>154.0</ele><time>2026-05-02T16:01:39Z</time></trkpt><trkpt lat="44.723327929691635" lon="10.22795757288237"><ele>154.0</ele><time>2026-05-02T16:01:40Z</time></trkpt><trkpt lat="44.72351140405864" lon="10.227914290816923"><ele>154.0</ele><time>2026-05-02T16:01:41Z</time></trkpt><trkpt lat="44.72364666553703" lon="10.227883717630352"><ele>154.0</ele><time>2026-05-02T16:01:42Z</time></trkpt><trkpt lat="44.72377444995634" lon="10.227868914290033"><ele>154.0</ele><time>2026-05-02T16:01:43Z</time></trkpt><trkpt lat="44.72412495483947" lon="10.227781934738433"><ele>154.0</ele><time>2026-05-02T16:01:44Z</time></trkpt><trkpt lat="44.724332597017096" lon="10.227732823740764"><ele>153.33333333333334</ele><time>2026-05-02T16:01:45Z</time></trkpt><trkpt lat="44.72454479936094" lon="10.227683042281157"><ele>152.66666666666666</ele><time>2026-05-02T16:01:46Z</time></trkpt><trkpt lat="44.724752303910705" lon="10.227634229175967"><ele>152.0</ele><time>2026-05-02T16:01:47Z</time></trkpt><trkpt lat="44.724964877949915" lon="10.227582008471103"><ele>152.0</ele><time>2026-05-02T16:01:48Z</time></trkpt><trkpt lat="44.725169994524485" lon="10.227528801997838"><ele>152.0</ele><time>2026-05-02T16:01:49Z</time></trkpt><trkpt lat="44.72536393535124" lon="10.227479968512057"><ele>152.0</ele><time>2026-05-02T16:01:50Z</time></trkpt><trkpt lat="44.725543313988716" lon="10.227442036141955"><ele>152.0</ele><time>2026-05-02T16:01:51Z</time></trkpt><trkpt lat="44.725712265926546" lon="10.227402716389017"><ele>152.0</ele><time>2026-05-02T16:01:52Z</time></trkpt><trkpt lat="44.72586978013993" lon="10.227364244188859"><ele>152.0</ele><time>2026-05-02T16:01:53Z</time></trkpt><trkpt lat="44.72601699773561" lon="10.227328115668424"><ele>150.66666666666666</ele><time>2026-05-02T16:01:53.999Z</time></trkpt><trkpt lat="44.72617038193688" lon="10.227289314661531"><ele>149.33333333333334</ele><time>2026-05-02T16:01:54.999Z</time></trkpt><trkpt lat="44.72633359186328" lon="10.227241392239389"><ele>148.0</ele><time>2026-05-02T16:01:55.999Z</time></trkpt><trkpt lat="44.726505462474265" lon="10.227201038985708"><ele>148.0</ele><time>2026-05-02T16:01:56.999Z</time></trkpt><trkpt lat="44.72667988052064" lon="10.227163857054773"><ele>148.0</ele><time>2026-05-02T16:01:57.999Z</time></trkpt><trkpt lat="44.72686049920636" lon="10.227121552579245"><ele>148.0</ele><time>2026-05-02T16:01:58.999Z</time></trkpt><trkpt lat="44.72704463866072" lon="10.227076939361579"><ele>148.33333333333334</ele><time>2026-05-02T16:01:59.999Z</time></trkpt><trkpt lat="44.72722866745153" lon="10.227028307238651"><ele>148.66666666666666</ele><time>2026-05-02T16:02:00.999Z</time></trkpt><trkpt lat="44.72742753932062" lon="10.226985611984258"><ele>149.0</ele><time>2026-05-02T16:02:01.999Z</time></trkpt><trkpt lat="44.72762301210488" lon="10.226937071494081"><ele>149.33333333333331</ele><time>2026-05-02T16:02:02.999Z</time></trkpt><trkpt lat="44.72783171016804" lon="10.226890489634275"><ele>149.66666666666666</ele><time>2026-05-02T16:02:03.999Z</time></trkpt><trkpt lat="44.728045773948494" lon="10.226837529531544"><ele>150.0</ele><time>2026-05-02T16:02:04.999Z</time></trkpt><trkpt lat="44.72826070273097" lon="10.22677658495833"><ele>150.0</ele><time>2026-05-02T16:02:05.999Z</time></trkpt><trkpt lat="44.728474785221096" lon="10.226708525886664"><ele>150.0</ele><time>2026-05-02T16:02:06.999Z</time></trkpt><trkpt lat="44.72869276218215" lon="10.22667936936998"><ele>150.0</ele><time>2026-05-02T16:02:07.999Z</time></trkpt><trkpt lat="44.728916459016226" lon="10.2266337517387"><ele>148.0</ele><time>2026-05-02T16:02:08.999Z</time></trkpt><trkpt lat="44.72913122884973" lon="10.226575143354632"><ele>146.0</ele><time>2026-05-02T16:02:09.999Z</time></trkpt><trkpt lat="44.7293424375085" lon="10.22654569084893"><ele>144.0</ele><time>2026-05-02T16:02:10.999Z</time></trkpt><trkpt lat="44.729554779892474" lon="10.226514614469345"><ele>142.66666666666666</ele><time>2026-05-02T16:02:11.999Z</time></trkpt><trkpt lat="44.729766964566785" lon="10.226477802181385"><ele>141.33333333333331</ele><time>2026-05-02T16:02:12.999Z</time></trkpt><trkpt lat="44.729977760880644" lon="10.226438481526891"><ele>140.0</ele><time>2026-05-02T16:02:13.999Z</time></trkpt><trkpt lat="44.73018823069391" lon="10.226400298750788"><ele>141.33333333333331</ele><time>2026-05-02T16:02:14.999Z</time></trkpt><trkpt lat="44.73040142003773" lon="10.226363014800462"><ele>142.66666666666666</ele><time>2026-05-02T16:02:15.999Z</time></trkpt><trkpt lat="44.73061526311065" lon="10.226308299047377"><ele>144.0</ele><time>2026-05-02T16:02:16.999Z</time></trkpt><trkpt lat="44.73082847883396" lon="10.226233602806895"><ele>144.0</ele><time>2026-05-02T16:02:17.999Z</time></trkpt><trkpt lat="44.731040157150034" lon="10.226135540430013"><ele>144.0</ele><time>2026-05-02T16:02:18.999Z</time></trkpt><trkpt lat="44.731240810162404" lon="10.225990935324925"><ele>144.0</ele><time>2026-05-02T16:02:19.999Z</time></trkpt><trkpt lat="44.73144709113397" lon="10.2258643129754"><ele>144.0</ele><time>2026-05-02T16:02:20.999Z</time></trkpt><trkpt lat="44.731653490575766" lon="10.225759357647132"><ele>144.0</ele><time>2026-05-02T16:02:21.999Z</time></trkpt><trkpt lat="44.7318682522733" lon="10.225689937379755"><ele>144.0</ele><time>2026-05-02T16:02:22.999Z</time></trkpt><trkpt lat="44.73209021085586" lon="10.225671892194283"><ele>141.5</ele><time>2026-05-02T16:02:23.999Z</time></trkpt><trkpt lat="44.73231708422792" lon="10.225626024349921"><ele>139.0</ele><time>2026-05-02T16:02:24.999Z</time></trkpt><trkpt lat="44.73254393780214" lon="10.225612057627716"><ele>138.0</ele><time>2026-05-02T16:02:25.999Z</time></trkpt><trkpt lat="44.732771973858966" lon="10.225585448287456"><ele>137.0</ele><time>2026-05-02T16:02:26.999Z</time></trkpt><trkpt lat="44.73299409710413" lon="10.22556241387841"><ele>137.0</ele><time>2026-05-02T16:02:27.999Z</time></trkpt><trkpt lat="44.73321871102951" lon="10.225544775739078"><ele>137.0</ele><time>2026-05-02T16:02:28.999Z</time></trkpt><trkpt lat="44.733443734241455" lon="10.225532766162484"><ele>136.0</ele><time>2026-05-02T16:02:29.999Z</time></trkpt><trkpt lat="44.733665288716544" lon="10.22551484408311"><ele>135.0</ele><time>2026-05-02T16:02:30.999Z</time></trkpt><trkpt lat="44.7338860871122" lon="10.22550344152302"><ele>134.0</ele><time>2026-05-02T16:02:31.999Z</time></trkpt><trkpt lat="44.73410322362573" lon="10.225489645019396"><ele>134.0</ele><time>2026-05-02T16:02:32.999Z</time></trkpt><trkpt lat="44.73432552785918" lon="10.225473282229657"><ele>134.0</ele><time>2026-05-02T16:02:33.999Z</time></trkpt><trkpt lat="44.7345410598532" lon="10.225458419115592"><ele>134.0</ele><time>2026-05-02T16:02:34.999Z</time></trkpt><trkpt lat="44.734762304732094" lon="10.225444325390754"><ele>134.0</ele><time>2026-05-02T16:02:35.999Z</time></trkpt><trkpt lat="44.73497612005072" lon="10.225429441123833"><ele>134.0</ele><time>2026-05-02T16:02:36.999Z</time></trkpt><trkpt lat="44.735198260506316" lon="10.225414555873183"><ele>134.0</ele><time>2026-05-02T16:02:37.999Z</time></trkpt><trkpt lat="44.73541650288507" lon="10.225398866697528"><ele>133.66666666666666</ele><time>2026-05-02T16:02:38.999Z</time></trkpt><trkpt lat="44.735627644757805" lon="10.225383138387677"><ele>133.33333333333334</ele><time>2026-05-02T16:02:39.999Z</time></trkpt><trkpt lat="44.735835081554214" lon="10.22536988849292"><ele>133.0</ele><time>2026-05-02T16:02:40.999Z</time></trkpt><trkpt lat="44.73603526192181" lon="10.225359745215318"><ele>132.66666666666669</ele><time>2026-05-02T16:02:41.999Z</time></trkpt><trkpt lat="44.73622746848544" lon="10.225349621428784"><ele>132.33333333333334</ele><time>2026-05-02T16:02:42.999Z</time></trkpt><trkpt lat="44.73641568444946" lon="10.225336311211768"><ele>132.0</ele><time>2026-05-02T16:02:43.999Z</time></trkpt><trkpt lat="44.736610819220395" lon="10.225338680089443"><ele>132.0</ele><time>2026-05-02T16:02:44.999Z</time></trkpt><trkpt lat="44.73675844814309" lon="10.22531207280118"><ele>132.0</ele><time>2026-05-02T16:02:45.999Z</time></trkpt><trkpt lat="44.736942871387534" lon="10.225303854534006"><ele>132.0</ele><time>2026-05-02T16:02:46.999Z</time></trkpt><trkpt lat="44.737131133676726" lon="10.22529459984944"><ele>131.66666666666666</ele><time>2026-05-02T16:02:47.999Z</time></trkpt><trkpt lat="44.73731951638551" lon="10.225282883918721"><ele>131.33333333333331</ele><time>2026-05-02T16:02:48.999Z</time></trkpt><trkpt lat="44.73750837986088" lon="10.225266732508224"><ele>131.0</ele><time>2026-05-02T16:02:49.999Z</time></trkpt><trkpt lat="44.73771339143309" lon="10.225256393236693"><ele>130.0</ele><time>2026-05-02T16:02:50.999Z</time></trkpt><trkpt lat="44.73790915323241" lon="10.225240868156446"><ele>129.0</ele><time>2026-05-02T16:02:51.999Z</time></trkpt><trkpt lat="44.73810608274371" lon="10.225229067536315"><ele>128.0</ele><time>2026-05-02T16:02:53Z</time></trkpt><trkpt lat="44.73830433676591" lon="10.225220829629738"><ele>128.0</ele><time>2026-05-02T16:02:54Z</time></trkpt><trkpt lat="44.73850229459973" lon="10.225214155387754"><ele>128.0</ele><time>2026-05-02T16:02:55Z</time></trkpt><trkpt lat="44.73870423494409" lon="10.22520577657731"><ele>128.0</ele><time>2026-05-02T16:02:56Z</time></trkpt><trkpt lat="44.73890580508298" lon="10.225191643580931"><ele>128.0</ele><time>2026-05-02T16:02:57Z</time></trkpt><trkpt lat="44.7391108373537" lon="10.225176511257553"><ele>128.0</ele><time>2026-05-02T16:02:58Z</time></trkpt><trkpt lat="44.739316840750654" lon="10.225162370035038"><ele>128.0</ele><time>2026-05-02T16:02:59Z</time></trkpt><trkpt lat="44.73952333793329" lon="10.225150417494834"><ele>128.0</ele><time>2026-05-02T16:03:00Z</time></trkpt><trkpt lat="44.73973222134694" lon="10.225140447940046"><ele>128.0</ele><time>2026-05-02T16:03:01Z</time></trkpt><trkpt lat="44.73994397149279" lon="10.225125566804076"><ele>128.0</ele><time>2026-05-02T16:03:02Z</time></trkpt><trkpt lat="44.74014792000425" lon="10.22511384540221"><ele>128.0</ele><time>2026-05-02T16:03:03Z</time></trkpt><trkpt lat="44.74035413490756" lon="10.225102600124048"><ele>128.0</ele><time>2026-05-02T16:03:04Z</time></trkpt><trkpt lat="44.740562193956094" lon="10.225091535018876"><ele>128.0</ele><time>2026-05-02T16:03:05Z</time></trkpt><trkpt lat="44.7407684507326" lon="10.225082062395181"><ele>128.0</ele><time>2026-05-02T16:03:06Z</time></trkpt><trkpt lat="44.74096565426961" lon="10.225067827095424"><ele>128.0</ele><time>2026-05-02T16:03:07Z</time></trkpt><trkpt lat="44.741166472812466" lon="10.225056123445645"><ele>128.0</ele><time>2026-05-02T16:03:08Z</time></trkpt><trkpt lat="44.74136763243644" lon="10.225040170817062"><ele>127.66666666666666</ele><time>2026-05-02T16:03:09Z</time></trkpt><trkpt lat="44.741571254604914" lon="10.225027043365348"><ele>127.33333333333334</ele><time>2026-05-02T16:03:10Z</time></trkpt><trkpt lat="44.74177388211839" lon="10.225010280019298"><ele>127.0</ele><time>2026-05-02T16:03:11Z</time></trkpt><trkpt lat="44.7419731873906" lon="10.224997318048203"><ele>126.66666666666667</ele><time>2026-05-02T16:03:12Z</time></trkpt><trkpt lat="44.7421732753627" lon="10.224985225776598"><ele>126.33333333333334</ele><time>2026-05-02T16:03:13Z</time></trkpt><trkpt lat="44.74236879882357" lon="10.224976948458476"><ele>126.0</ele><time>2026-05-02T16:03:14Z</time></trkpt><trkpt lat="44.74255144540453" lon="10.22496373888762"><ele>125.33333333333334</ele><time>2026-05-02T16:03:15Z</time></trkpt><trkpt lat="44.742717521509775" lon="10.22496137258675"><ele>124.66666666666667</ele><time>2026-05-02T16:03:16Z</time></trkpt><trkpt lat="44.742892546048914" lon="10.224952822748628"><ele>124.0</ele><time>2026-05-02T16:03:17Z</time></trkpt><trkpt lat="44.743063025495566" lon="10.224943445864092"><ele>124.0</ele><time>2026-05-02T16:03:18Z</time></trkpt><trkpt lat="44.743226265000594" lon="10.224928707129209"><ele>124.0</ele><time>2026-05-02T16:03:19Z</time></trkpt><trkpt lat="44.74337908642592" lon="10.22491956681305"><ele>124.0</ele><time>2026-05-02T16:03:20Z</time></trkpt><trkpt lat="44.74352332117264" lon="10.224911895238556"><ele>124.0</ele><time>2026-05-02T16:03:21Z</time></trkpt><trkpt lat="44.74366830064912" lon="10.224905115809115"><ele>124.0</ele><time>2026-05-02T16:03:22Z</time></trkpt><trkpt lat="44.743793558954394" lon="10.224900502354497"><ele>124.0</ele><time>2026-05-02T16:03:23Z</time></trkpt><trkpt lat="44.743885138626" lon="10.224892052860172"><ele>124.0</ele><time>2026-05-02T16:03:24Z</time></trkpt><trkpt lat="44.74395938490661" lon="10.224887850867331"><ele>124.0</ele><time>2026-05-02T16:03:25Z</time></trkpt><trkpt lat="44.744075751360164" lon="10.224930684554007"><ele>124.00000000000001</ele><time>2026-05-02T16:03:27Z</time></trkpt><trkpt lat="44.744134030199234" lon="10.224969468053635"><ele>124.0</ele><time>2026-05-02T16:03:28Z</time></trkpt><trkpt lat="44.74420211333182" lon="10.224997300596929"><ele>124.0</ele><time>2026-05-02T16:03:29Z</time></trkpt><trkpt lat="44.74427850419006" lon="10.224984208023642"><ele>124.0</ele><time>2026-05-02T16:03:30Z</time></trkpt><trkpt lat="44.74433821698661" lon="10.22491075525271"><ele>124.00000000000001</ele><time>2026-05-02T16:03:31Z</time></trkpt><trkpt lat="44.744384970887936" lon="10.224800046809731"><ele>124.0</ele><time>2026-05-02T16:03:32Z</time></trkpt><trkpt lat="44.744435092300165" lon="10.224706740642274"><ele>123.80000000000001</ele><time>2026-05-02T16:03:33Z</time></trkpt><trkpt lat="44.74449820050128" lon="10.22464122350433"><ele>123.60000000000001</ele><time>2026-05-02T16:03:34Z</time></trkpt><trkpt lat="44.744575959465855" lon="10.224580813586892"><ele>123.4</ele><time>2026-05-02T16:03:35Z</time></trkpt><trkpt lat="44.744660676344864" lon="10.22452253939395"><ele>123.2</ele><time>2026-05-02T16:03:36Z</time></trkpt><trkpt lat="44.744752887422095" lon="10.224462143576636"><ele>123.0</ele><time>2026-05-02T16:03:37Z</time></trkpt><trkpt lat="44.7448507764843" lon="10.224393560814066"><ele>123.0</ele><time>2026-05-02T16:03:38Z</time></trkpt><trkpt lat="44.74495770332578" lon="10.224310643532588"><ele>123.0</ele><time>2026-05-02T16:03:39Z</time></trkpt><trkpt lat="44.74508248535811" lon="10.22420548572197"><ele>123.0</ele><time>2026-05-02T16:03:40Z</time></trkpt><trkpt lat="44.74524670777095" lon="10.224103779651877"><ele>123.0</ele><time>2026-05-02T16:03:41Z</time></trkpt><trkpt lat="44.745412681534475" lon="10.223987533756977"><ele>122.66666666666666</ele><time>2026-05-02T16:03:42Z</time></trkpt><trkpt lat="44.745581118055405" lon="10.223872624923741"><ele>122.33333333333333</ele><time>2026-05-02T16:03:43Z</time></trkpt><trkpt lat="44.745767121614854" lon="10.223785472456392"><ele>122.0</ele><time>2026-05-02T16:03:44Z</time></trkpt><trkpt lat="44.74595731699603" lon="10.223712125980493"><ele>121.66666666666666</ele><time>2026-05-02T16:03:45Z</time></trkpt><trkpt lat="44.74615536675073" lon="10.223669982742951"><ele>121.33333333333334</ele><time>2026-05-02T16:03:46Z</time></trkpt><trkpt lat="44.746356918243066" lon="10.223658246064362"><ele>121.0</ele><time>2026-05-02T16:03:47Z</time></trkpt><trkpt lat="44.746555330054804" lon="10.22366932495965"><ele>121.0</ele><time>2026-05-02T16:03:48Z</time></trkpt><trkpt lat="44.746760387048624" lon="10.223693271459677"><ele>121.0</ele><time>2026-05-02T16:03:49Z</time></trkpt><trkpt lat="44.74696490719346" lon="10.223719506756977"><ele>121.0</ele><time>2026-05-02T16:03:50Z</time></trkpt><trkpt lat="44.74716556783134" lon="10.223742195161226"><ele>121.0</ele><time>2026-05-02T16:03:51Z</time></trkpt><trkpt lat="44.74736602943253" lon="10.223767589568679"><ele>121.0</ele><time>2026-05-02T16:03:52Z</time></trkpt><trkpt lat="44.74755765802982" lon="10.223788449897667"><ele>121.0</ele><time>2026-05-02T16:03:53Z</time></trkpt><trkpt lat="44.747726102023" lon="10.223808588918956"><ele>120.5</ele><time>2026-05-02T16:03:54Z</time></trkpt><trkpt lat="44.747883941215434" lon="10.223832468107593"><ele>120.0</ele><time>2026-05-02T16:03:55Z</time></trkpt><trkpt lat="44.74801996130806" lon="10.223853053909803"><ele>119.5</ele><time>2026-05-02T16:03:56Z</time></trkpt><trkpt lat="44.74816600495899" lon="10.223880264288315"><ele>119.0</ele><time>2026-05-02T16:03:57Z</time></trkpt><trkpt lat="44.7483263376807" lon="10.223879067549044"><ele>119.0</ele><time>2026-05-02T16:03:58Z</time></trkpt><trkpt lat="44.748492896694366" lon="10.223914574153401"><ele>119.0</ele><time>2026-05-02T16:03:59Z</time></trkpt><trkpt lat="44.74866741254878" lon="10.223939134175062"><ele>119.0</ele><time>2026-05-02T16:04:00Z</time></trkpt><trkpt lat="44.74884227192186" lon="10.223963352813978"><ele>119.0</ele><time>2026-05-02T16:04:00.999Z</time></trkpt><trkpt lat="44.749014427971346" lon="10.22398324490115"><ele>119.0</ele><time>2026-05-02T16:04:01.999Z</time></trkpt><trkpt lat="44.749178792084535" lon="10.224008252344136"><ele>119.0</ele><time>2026-05-02T16:04:02.999Z</time></trkpt><trkpt lat="44.74933903633026" lon="10.224029018337841"><ele>118.5</ele><time>2026-05-02T16:04:03.999Z</time></trkpt><trkpt lat="44.74949551698032" lon="10.224050500776293"><ele>118.0</ele><time>2026-05-02T16:04:04.999Z</time></trkpt><trkpt lat="44.74961211021597" lon="10.224081222147744"><ele>117.5</ele><time>2026-05-02T16:04:05.999Z</time></trkpt><trkpt lat="44.74967779736522" lon="10.224092925376363"><ele>117.0</ele><time>2026-05-02T16:04:06.999Z</time></trkpt><trkpt lat="44.749947356025835" lon="10.22411417696088"><ele>117.0</ele><time>2026-05-02T16:04:07.999Z</time></trkpt><trkpt lat="44.75007781026998" lon="10.224129563208118"><ele>117.0</ele><time>2026-05-02T16:04:08.999Z</time></trkpt><trkpt lat="44.750199697126085" lon="10.224143540661794"><ele>117.0</ele><time>2026-05-02T16:04:09.999Z</time></trkpt><trkpt lat="44.75032427364087" lon="10.224160642100834"><ele>117.0</ele><time>2026-05-02T16:04:10.999Z</time></trkpt><trkpt lat="44.75046491862517" lon="10.224181046190951"><ele>117.0</ele><time>2026-05-02T16:04:11.999Z</time></trkpt><trkpt lat="44.75061239033572" lon="10.22419407707418"><ele>117.0</ele><time>2026-05-02T16:04:12.999Z</time></trkpt><trkpt lat="44.75076250819798" lon="10.22421172606068"><ele>117.0</ele><time>2026-05-02T16:04:13.999Z</time></trkpt><trkpt lat="44.75091007630592" lon="10.224230267737049"><ele>117.0</ele><time>2026-05-02T16:04:14.999Z</time></trkpt><trkpt lat="44.75105401085368" lon="10.224250468033796"><ele>117.0</ele><time>2026-05-02T16:04:15.999Z</time></trkpt><trkpt lat="44.751191314632436" lon="10.224267995502336"><ele>117.0</ele><time>2026-05-02T16:04:16.999Z</time></trkpt><trkpt lat="44.751336243762886" lon="10.224287696810824"><ele>117.0</ele><time>2026-05-02T16:04:17.999Z</time></trkpt><trkpt lat="44.751485684233415" lon="10.224301330735965"><ele>117.0</ele><time>2026-05-02T16:04:18.999Z</time></trkpt><trkpt lat="44.75163853387806" lon="10.224314767020548"><ele>117.0</ele><time>2026-05-02T16:04:19.999Z</time></trkpt><trkpt lat="44.75178622687752" lon="10.224338511777455"><ele>117.0</ele><time>2026-05-02T16:04:20.999Z</time></trkpt><trkpt lat="44.751931013679076" lon="10.224359183889497"><ele>117.0</ele><time>2026-05-02T16:04:21.999Z</time></trkpt><trkpt lat="44.75206012691396" lon="10.224371155153221"><ele>117.0</ele><time>2026-05-02T16:04:22.999Z</time></trkpt><trkpt lat="44.75216338121167" lon="10.224382005120749"><ele>116.8</ele><time>2026-05-02T16:04:23.999Z</time></trkpt><trkpt lat="44.752237318480546" lon="10.224407855823829"><ele>116.6</ele><time>2026-05-02T16:04:24.999Z</time></trkpt><trkpt lat="44.752312399306724" lon="10.224452439826992"><ele>116.39999999999999</ele><time>2026-05-02T16:04:26.999Z</time></trkpt><trkpt lat="44.75243610771088" lon="10.224583116696115"><ele>116.19999999999999</ele><time>2026-05-02T16:04:33.999Z</time></trkpt><trkpt lat="44.75251721552425" lon="10.224668845641359"><ele>116.0</ele><time>2026-05-02T16:04:34.999Z</time></trkpt><trkpt lat="44.75262725852417" lon="10.224736308197855"><ele>116.0</ele><time>2026-05-02T16:04:35.999Z</time></trkpt><trkpt lat="44.75270614476959" lon="10.224865871507658"><ele>116.0</ele><time>2026-05-02T16:04:36.999Z</time></trkpt><trkpt lat="44.7527914321294" lon="10.225016889642184"><ele>116.0</ele><time>2026-05-02T16:04:37.999Z</time></trkpt><trkpt lat="44.7528843305131" lon="10.225161640888727"><ele>116.0</ele><time>2026-05-02T16:04:38.999Z</time></trkpt><trkpt lat="44.75296155635" lon="10.225323184940516"><ele>116.0</ele><time>2026-05-02T16:04:39.999Z</time></trkpt><trkpt lat="44.75303681723972" lon="10.22547831382528"><ele>116.0</ele><time>2026-05-02T16:04:40.999Z</time></trkpt><trkpt lat="44.753110794677006" lon="10.225634888997542"><ele>116.0</ele><time>2026-05-02T16:04:41.999Z</time></trkpt><trkpt lat="44.75318971831845" lon="10.225799465325927"><ele>116.0</ele><time>2026-05-02T16:04:42.999Z</time></trkpt><trkpt lat="44.7532658411997" lon="10.225969130951198"><ele>116.25</ele><time>2026-05-02T16:04:43.999Z</time></trkpt><trkpt lat="44.75334557071956" lon="10.226138429552883"><ele>116.5</ele><time>2026-05-02T16:04:44.999Z</time></trkpt><trkpt lat="44.75341951671587" lon="10.226299496959221"><ele>116.75</ele><time>2026-05-02T16:04:45.999Z</time></trkpt><trkpt lat="44.75349257063073" lon="10.226455251565259"><ele>117.0</ele><time>2026-05-02T16:04:46.999Z</time></trkpt><trkpt lat="44.75356464739567" lon="10.226615385279606"><ele>116.6</ele><time>2026-05-02T16:04:47.999Z</time></trkpt><trkpt lat="44.75363482521937" lon="10.226760696969952"><ele>116.19999999999999</ele><time>2026-05-02T16:04:48.999Z</time></trkpt><trkpt lat="44.75370413502141" lon="10.226882271003316"><ele>115.8</ele><time>2026-05-02T16:04:49.999Z</time></trkpt><trkpt lat="44.75377043717235" lon="10.226998917152269"><ele>115.4</ele><time>2026-05-02T16:04:50.999Z</time></trkpt><trkpt lat="44.753831744331734" lon="10.227088764925547"><ele>115.0</ele><time>2026-05-02T16:04:51.999Z</time></trkpt><trkpt lat="44.75388157808805" lon="10.227208784162208"><ele>115.0</ele><time>2026-05-02T16:04:52.999Z</time></trkpt><trkpt lat="44.75392764504909" lon="10.227315695970665"><ele>115.0</ele><time>2026-05-02T16:04:53.999Z</time></trkpt><trkpt lat="44.7540068939008" lon="10.227364572426781"><ele>115.0</ele><time>2026-05-02T16:04:54.999Z</time></trkpt><trkpt lat="44.75408178357194" lon="10.22738318380589"><ele>115.0</ele><time>2026-05-02T16:04:55.999Z</time></trkpt><trkpt lat="44.75416397846674" lon="10.227200656143197"><ele>115.0</ele><time>2026-05-02T16:04:56.999Z</time></trkpt><trkpt lat="44.7542750317223" lon="10.227144966076613"><ele>114.6</ele><time>2026-05-02T16:04:57.999Z</time></trkpt><trkpt lat="44.75439198631028" lon="10.227148118477364"><ele>114.2</ele><time>2026-05-02T16:04:59Z</time></trkpt><trkpt lat="44.75448677088188" lon="10.227148156709145"><ele>113.80000000000001</ele><time>2026-05-02T16:05:00Z</time></trkpt><trkpt lat="44.75454999112532" lon="10.227259520321226"><ele>113.4</ele><time>2026-05-02T16:05:01Z</time></trkpt><trkpt lat="44.75463143834865" lon="10.227319003401846"><ele>113.0</ele><time>2026-05-02T16:05:04Z</time></trkpt><trkpt lat="44.75459598089069" lon="10.227166449727694"><ele>113.0</ele><time>2026-05-02T16:05:09Z</time></trkpt><trkpt lat="44.75454918949227" lon="10.227091069635073"><ele>113.00000000000001</ele><time>2026-05-02T16:05:10Z</time></trkpt><trkpt lat="44.75454365164902" lon="10.226953242795895"><ele>113.00000000000001</ele><time>2026-05-02T16:05:11Z</time></trkpt><trkpt lat="44.754568871789395" lon="10.226767718347615"><ele>113.0</ele><time>2026-05-02T16:05:12Z</time></trkpt><trkpt lat="44.75457178703782" lon="10.22659815534111"><ele>113.0</ele><time>2026-05-02T16:05:13Z</time></trkpt><trkpt lat="44.75458928109151" lon="10.226424909202677"><ele>113.2</ele><time>2026-05-02T16:05:14Z</time></trkpt><trkpt lat="44.754606478499646" lon="10.22625261685982"><ele>113.4</ele><time>2026-05-02T16:05:15Z</time></trkpt><trkpt lat="44.75462319903482" lon="10.226086761494791"><ele>113.60000000000001</ele><time>2026-05-02T16:05:16Z</time></trkpt><trkpt lat="44.75463744518141" lon="10.225945251627664"><ele>113.80000000000001</ele><time>2026-05-02T16:05:17Z</time></trkpt><trkpt lat="44.754665304961456" lon="10.22582818491298"><ele>114.0</ele><time>2026-05-02T16:05:18Z</time></trkpt><trkpt lat="44.75466172492936" lon="10.225707581641817"><ele>114.0</ele><time>2026-05-02T16:05:20Z</time></trkpt><trkpt lat="44.75482936207346" lon="10.225738891666516"><ele>114.0</ele><time>2026-05-02T16:05:21Z</time></trkpt><trkpt lat="44.7549343796568" lon="10.225777089038905"><ele>114.0</ele><time>2026-05-02T16:05:22Z</time></trkpt><trkpt lat="44.75505269531161" lon="10.225801173719557"><ele>114.0</ele><time>2026-05-02T16:05:23Z</time></trkpt><trkpt lat="44.755184409463105" lon="10.225844344559112"><ele>113.66666666666666</ele><time>2026-05-02T16:05:24Z</time></trkpt><trkpt lat="44.75532736545521" lon="10.225887955140356"><ele>113.33333333333333</ele><time>2026-05-02T16:05:25Z</time></trkpt><trkpt lat="44.75547292923432" lon="10.225938633363313"><ele>113.0</ele><time>2026-05-02T16:05:26Z</time></trkpt><trkpt lat="44.755629229034184" lon="10.225988062028653"><ele>113.0</ele><time>2026-05-02T16:05:27Z</time></trkpt><trkpt lat="44.75580517134352" lon="10.226041716465534"><ele>113.0</ele><time>2026-05-02T16:05:28Z</time></trkpt><trkpt lat="44.75596735293197" lon="10.226106374754744"><ele>113.0</ele><time>2026-05-02T16:05:29Z</time></trkpt><trkpt lat="44.75613177235959" lon="10.226179105730974"><ele>112.75</ele><time>2026-05-02T16:05:30Z</time></trkpt><trkpt lat="44.7562829154193" lon="10.226240700948884"><ele>112.5</ele><time>2026-05-02T16:05:31Z</time></trkpt><trkpt lat="44.75641785133185" lon="10.22629689771917"><ele>112.25</ele><time>2026-05-02T16:05:32Z</time></trkpt><trkpt lat="44.756551776703105" lon="10.22635274992553"><ele>112.0</ele><time>2026-05-02T16:05:33Z</time></trkpt><trkpt lat="44.75668658006726" lon="10.226414017483771"><ele>112.0</ele><time>2026-05-02T16:05:34Z</time></trkpt><trkpt lat="44.7568421216075" lon="10.226467644209759"><ele>112.0</ele><time>2026-05-02T16:05:35Z</time></trkpt><trkpt lat="44.757002324415865" lon="10.226537521597574"><ele>112.0</ele><time>2026-05-02T16:05:36Z</time></trkpt><trkpt lat="44.75717570585391" lon="10.22658407155851"><ele>111.66666666666667</ele><time>2026-05-02T16:05:37Z</time></trkpt><trkpt lat="44.75736057395397" lon="10.226606261825312"><ele>111.33333333333334</ele><time>2026-05-02T16:05:38Z</time></trkpt><trkpt lat="44.757554005980666" lon="10.226622291500213"><ele>111.0</ele><time>2026-05-02T16:05:39Z</time></trkpt><trkpt lat="44.7577335783847" lon="10.22664411079033"><ele>110.66666666666666</ele><time>2026-05-02T16:05:40Z</time></trkpt><trkpt lat="44.757911178129376" lon="10.226695897277493"><ele>110.33333333333333</ele><time>2026-05-02T16:05:41Z</time></trkpt><trkpt lat="44.758089341447814" lon="10.22675310978194"><ele>110.0</ele><time>2026-05-02T16:05:42Z</time></trkpt><trkpt lat="44.75826725907469" lon="10.226809146713997"><ele>110.0</ele><time>2026-05-02T16:05:43Z</time></trkpt><trkpt lat="44.758452161857136" lon="10.226859644816347"><ele>110.0</ele><time>2026-05-02T16:05:44Z</time></trkpt><trkpt lat="44.75863051952368" lon="10.226916775166188"><ele>110.0</ele><time>2026-05-02T16:05:45Z</time></trkpt><trkpt lat="44.75880854255325" lon="10.22698923960099"><ele>109.66666666666666</ele><time>2026-05-02T16:05:46Z</time></trkpt><trkpt lat="44.758990817297764" lon="10.227131489701591"><ele>109.33333333333334</ele><time>2026-05-02T16:05:47Z</time></trkpt><trkpt lat="44.75917573999189" lon="10.227291461573124"><ele>109.0</ele><time>2026-05-02T16:05:48Z</time></trkpt><trkpt lat="44.759377724627605" lon="10.227433623566172"><ele>107.5</ele><time>2026-05-02T16:05:49Z</time></trkpt><trkpt lat="44.75959767721744" lon="10.227576851308553"><ele>106.0</ele><time>2026-05-02T16:05:50Z</time></trkpt><trkpt lat="44.75984404055356" lon="10.227688963508818"><ele>106.0</ele><time>2026-05-02T16:05:51Z</time></trkpt><trkpt lat="44.76008897783379" lon="10.227787028895126"><ele>106.0</ele><time>2026-05-02T16:05:52Z</time></trkpt><trkpt lat="44.760306982471484" lon="10.227871066906417"><ele>105.33333333333334</ele><time>2026-05-02T16:05:53Z</time></trkpt><trkpt lat="44.76051274234822" lon="10.22793983418359"><ele>104.66666666666666</ele><time>2026-05-02T16:05:54Z</time></trkpt><trkpt lat="44.76070901289284" lon="10.228015103647493"><ele>104.0</ele><time>2026-05-02T16:05:55Z</time></trkpt><trkpt lat="44.76091843957503" lon="10.22809169785582"><ele>103.0</ele><time>2026-05-02T16:05:56Z</time></trkpt><trkpt lat="44.76112695772804" lon="10.228165334315547"><ele>102.0</ele><time>2026-05-02T16:05:57Z</time></trkpt><trkpt lat="44.761341239457195" lon="10.22824241486326"><ele>101.0</ele><time>2026-05-02T16:05:58Z</time></trkpt><trkpt lat="44.76155578973659" lon="10.228319298661852"><ele>101.0</ele><time>2026-05-02T16:05:59Z</time></trkpt><trkpt lat="44.76176635090752" lon="10.228418022775692"><ele>101.0</ele><time>2026-05-02T16:06:00Z</time></trkpt><trkpt lat="44.76197090887274" lon="10.228467530380046"><ele>101.0</ele><time>2026-05-02T16:06:01Z</time></trkpt><trkpt lat="44.76216763807591" lon="10.228539103935898"><ele>101.0</ele><time>2026-05-02T16:06:02Z</time></trkpt><trkpt lat="44.762366425179444" lon="10.228574841963784"><ele>101.0</ele><time>2026-05-02T16:06:03Z</time></trkpt><trkpt lat="44.762575059351484" lon="10.228565307105216"><ele>101.0</ele><time>2026-05-02T16:06:04Z</time></trkpt><trkpt lat="44.76277960728002" lon="10.228523914688"><ele>101.0</ele><time>2026-05-02T16:06:05Z</time></trkpt><trkpt lat="44.762980949559875" lon="10.228458941632846"><ele>101.0</ele><time>2026-05-02T16:06:06Z</time></trkpt><trkpt lat="44.76317492513504" lon="10.228398395365222"><ele>101.0</ele><time>2026-05-02T16:06:07Z</time></trkpt><trkpt lat="44.763372064190804" lon="10.228329907301816"><ele>101.33333333333333</ele><time>2026-05-02T16:06:07.999Z</time></trkpt><trkpt lat="44.76357319370469" lon="10.228238880225987"><ele>101.66666666666666</ele><time>2026-05-02T16:06:08.999Z</time></trkpt><trkpt lat="44.763769247371926" lon="10.228195051047415"><ele>102.0</ele><time>2026-05-02T16:06:09.999Z</time></trkpt><trkpt lat="44.76396532731457" lon="10.228143743622145"><ele>101.66666666666666</ele><time>2026-05-02T16:06:10.999Z</time></trkpt><trkpt lat="44.76417183813109" lon="10.228090655266652"><ele>101.33333333333333</ele><time>2026-05-02T16:06:11.999Z</time></trkpt><trkpt lat="44.76437812574887" lon="10.228062400371376"><ele>101.0</ele><time>2026-05-02T16:06:12.999Z</time></trkpt><trkpt lat="44.76458816771063" lon="10.22804959167771"><ele>101.0</ele><time>2026-05-02T16:06:13.999Z</time></trkpt><trkpt lat="44.764811093340036" lon="10.22803780872813"><ele>101.0</ele><time>2026-05-02T16:06:14.999Z</time></trkpt><trkpt lat="44.76504199190442" lon="10.228043700883223"><ele>99.0</ele><time>2026-05-02T16:06:15.999Z</time></trkpt><trkpt lat="44.7652732620937" lon="10.228066088624203"><ele>97.0</ele><time>2026-05-02T16:06:16.999Z</time></trkpt><trkpt lat="44.765504493618" lon="10.228090744735477"><ele>97.5</ele><time>2026-05-02T16:06:17.999Z</time></trkpt><trkpt lat="44.76573510091911" lon="10.228177016209209"><ele>98.0</ele><time>2026-05-02T16:06:18.999Z</time></trkpt><trkpt lat="44.76595510172477" lon="10.228361713131397"><ele>97.33333333333333</ele><time>2026-05-02T16:06:19.999Z</time></trkpt><trkpt lat="44.76614622420876" lon="10.228566482613006"><ele>96.66666666666666</ele><time>2026-05-02T16:06:20.999Z</time></trkpt><trkpt lat="44.766301533104276" lon="10.228711386315329"><ele>96.0</ele><time>2026-05-02T16:06:21.999Z</time></trkpt><trkpt lat="44.766476735859875" lon="10.228884877872071"><ele>95.66666666666667</ele><time>2026-05-02T16:06:22.999Z</time></trkpt><trkpt lat="44.7666556969016" lon="10.229047266482016"><ele>95.33333333333334</ele><time>2026-05-02T16:06:23.999Z</time></trkpt><trkpt lat="44.766841895529254" lon="10.229200980084283"><ele>95.0</ele><time>2026-05-02T16:06:24.999Z</time></trkpt><trkpt lat="44.76703759610325" lon="10.229338941587718"><ele>95.0</ele><time>2026-05-02T16:06:25.999Z</time></trkpt><trkpt lat="44.76723638155439" lon="10.229454437693436"><ele>95.0</ele><time>2026-05-02T16:06:26.999Z</time></trkpt><trkpt lat="44.76743537732568" lon="10.229570379891006"><ele>95.0</ele><time>2026-05-02T16:06:27.999Z</time></trkpt><trkpt lat="44.76763122281743" lon="10.22967349512678"><ele>94.66666666666667</ele><time>2026-05-02T16:06:28.999Z</time></trkpt><trkpt lat="44.767840462927666" lon="10.229760033605086"><ele>94.33333333333333</ele><time>2026-05-02T16:06:29.999Z</time></trkpt><trkpt lat="44.7680494920204" lon="10.229830727933013"><ele>94.0</ele><time>2026-05-02T16:06:30.999Z</time></trkpt><trkpt lat="44.768256566836456" lon="10.229895608052153"><ele>94.0</ele><time>2026-05-02T16:06:31.999Z</time></trkpt><trkpt lat="44.76846686051107" lon="10.229956132847336"><ele>94.0</ele><time>2026-05-02T16:06:32.999Z</time></trkpt><trkpt lat="44.768674747692614" lon="10.230020957049636"><ele>94.0</ele><time>2026-05-02T16:06:33.999Z</time></trkpt><trkpt lat="44.76888667746227" lon="10.230087064179"><ele>94.0</ele><time>2026-05-02T16:06:34.999Z</time></trkpt><trkpt lat="44.769086695933524" lon="10.230142845485418"><ele>94.0</ele><time>2026-05-02T16:06:35.999Z</time></trkpt><trkpt lat="44.76927880222207" lon="10.230205634564655"><ele>94.0</ele><time>2026-05-02T16:06:36.999Z</time></trkpt><trkpt lat="44.76945079002102" lon="10.230254923061679"><ele>94.0</ele><time>2026-05-02T16:06:37.999Z</time></trkpt><trkpt lat="44.76963604936556" lon="10.230320317678508"><ele>94.0</ele><time>2026-05-02T16:06:38.999Z</time></trkpt><trkpt lat="44.76983226733861" lon="10.230378011238757"><ele>94.0</ele><time>2026-05-02T16:06:39.999Z</time></trkpt><trkpt lat="44.770019993984846" lon="10.23043716437583"><ele>93.66666666666666</ele><time>2026-05-02T16:06:40.999Z</time></trkpt><trkpt lat="44.770212038331906" lon="10.230489890956594"><ele>93.33333333333333</ele><time>2026-05-02T16:06:41.999Z</time></trkpt><trkpt lat="44.77040797121596" lon="10.23056599631282"><ele>93.0</ele><time>2026-05-02T16:06:42.999Z</time></trkpt><trkpt lat="44.77060263836671" lon="10.230626485193213"><ele>92.66666666666667</ele><time>2026-05-02T16:06:43.999Z</time></trkpt><trkpt lat="44.77079394291446" lon="10.230680379247612"><ele>92.33333333333334</ele><time>2026-05-02T16:06:44.999Z</time></trkpt><trkpt lat="44.770997040920854" lon="10.230745168069406"><ele>92.0</ele><time>2026-05-02T16:06:45.999Z</time></trkpt><trkpt lat="44.771194904721064" lon="10.230822940814745"><ele>92.0</ele><time>2026-05-02T16:06:46.999Z</time></trkpt><trkpt lat="44.771387719135774" lon="10.230903687318385"><ele>92.0</ele><time>2026-05-02T16:06:47.999Z</time></trkpt><trkpt lat="44.77157864747145" lon="10.230967028517947"><ele>92.0</ele><time>2026-05-02T16:06:48.999Z</time></trkpt><trkpt lat="44.77177992718256" lon="10.23104021906944"><ele>91.66666666666667</ele><time>2026-05-02T16:06:49.999Z</time></trkpt><trkpt lat="44.77196369986583" lon="10.231109548873976"><ele>91.33333333333333</ele><time>2026-05-02T16:06:50.999Z</time></trkpt><trkpt lat="44.772163568756575" lon="10.231185329433814"><ele>91.0</ele><time>2026-05-02T16:06:51.999Z</time></trkpt><trkpt lat="44.772351991334254" lon="10.231258942000197"><ele>91.0</ele><time>2026-05-02T16:06:52.999Z</time></trkpt><trkpt lat="44.772534295367" lon="10.231333236107371"><ele>91.0</ele><time>2026-05-02T16:06:53.999Z</time></trkpt><trkpt lat="44.77270006622524" lon="10.231399393202572"><ele>91.0</ele><time>2026-05-02T16:06:54.999Z</time></trkpt><trkpt lat="44.772856748536704" lon="10.23145514682746"><ele>90.66666666666666</ele><time>2026-05-02T16:06:55.999Z</time></trkpt><trkpt lat="44.77302635097633" lon="10.23151946862216"><ele>90.33333333333333</ele><time>2026-05-02T16:06:56.999Z</time></trkpt><trkpt lat="44.773200625144135" lon="10.231581327541326"><ele>90.0</ele><time>2026-05-02T16:06:57.999Z</time></trkpt><trkpt lat="44.77337439792836" lon="10.231641789210801"><ele>90.66666666666667</ele><time>2026-05-02T16:06:58.999Z</time></trkpt><trkpt lat="44.77355861450713" lon="10.231721178039564"><ele>91.33333333333334</ele><time>2026-05-02T16:06:59.999Z</time></trkpt><trkpt lat="44.773735562204976" lon="10.231814716364692"><ele>92.0</ele><time>2026-05-02T16:07:00.999Z</time></trkpt><trkpt lat="44.77389333191929" lon="10.23187194469856"><ele>92.0</ele><time>2026-05-02T16:07:01.999Z</time></trkpt><trkpt lat="44.77407215765236" lon="10.232033526074572"><ele>92.0</ele><time>2026-05-02T16:07:02.999Z</time></trkpt><trkpt lat="44.77421911685697" lon="10.232115857105587"><ele>92.0</ele><time>2026-05-02T16:07:03.999Z</time></trkpt><trkpt lat="44.77434323545823" lon="10.232176472175803"><ele>92.0</ele><time>2026-05-02T16:07:05Z</time></trkpt><trkpt lat="44.774460529432844" lon="10.232242988104073"><ele>92.0</ele><time>2026-05-02T16:07:06Z</time></trkpt><trkpt lat="44.77456991757498" lon="10.232311169930703"><ele>92.0</ele><time>2026-05-02T16:07:07Z</time></trkpt><trkpt lat="44.77466429486413" lon="10.232364521339216"><ele>92.0</ele><time>2026-05-02T16:07:08Z</time></trkpt><trkpt lat="44.77472332795613" lon="10.232409015169003"><ele>92.0</ele><time>2026-05-02T16:07:09Z</time></trkpt><trkpt lat="44.77470029850279" lon="10.232568610025385"><ele>91.5</ele><time>2026-05-02T16:07:11Z</time></trkpt><trkpt lat="44.77467403148672" lon="10.23269587097659"><ele>91.0</ele><time>2026-05-02T16:07:12Z</time></trkpt><trkpt lat="44.77464214144375" lon="10.23285944006025"><ele>90.5</ele><time>2026-05-02T16:07:13Z</time></trkpt><trkpt lat="44.77459982973932" lon="10.233054402999795"><ele>90.0</ele><time>2026-05-02T16:07:14Z</time></trkpt><trkpt lat="44.77455095000529" lon="10.233278163768373"><ele>89.66666666666667</ele><time>2026-05-02T16:07:15Z</time></trkpt><trkpt lat="44.77450325685147" lon="10.233492418184829"><ele>89.33333333333334</ele><time>2026-05-02T16:07:16Z</time></trkpt><trkpt lat="44.77445180871258" lon="10.233721326568116"><ele>89.0</ele><time>2026-05-02T16:07:17Z</time></trkpt><trkpt lat="44.77440116684198" lon="10.233954773683802"><ele>89.0</ele><time>2026-05-02T16:07:18Z</time></trkpt><trkpt lat="44.77434989894105" lon="10.234200066052571"><ele>89.0</ele><time>2026-05-02T16:07:19Z</time></trkpt><trkpt lat="44.77429555794488" lon="10.234457265740406"><ele>89.0</ele><time>2026-05-02T16:07:20Z</time></trkpt><trkpt lat="44.774239440414746" lon="10.23472430044951"><ele>89.0</ele><time>2026-05-02T16:07:21Z</time></trkpt><trkpt lat="44.774181688885484" lon="10.23500740791974"><ele>89.0</ele><time>2026-05-02T16:07:22Z</time></trkpt><trkpt lat="44.774124633627714" lon="10.235294139374973"><ele>89.0</ele><time>2026-05-02T16:07:23Z</time></trkpt><trkpt lat="44.774064259588705" lon="10.235589649583533"><ele>89.66666666666667</ele><time>2026-05-02T16:07:24Z</time></trkpt><trkpt lat="44.774000284936754" lon="10.23587442598332"><ele>90.33333333333333</ele><time>2026-05-02T16:07:25Z</time></trkpt><trkpt lat="44.77393932439103" lon="10.23615957986017"><ele>91.0</ele><time>2026-05-02T16:07:26Z</time></trkpt><trkpt lat="44.773879115027476" lon="10.236437324328607"><ele>90.33333333333333</ele><time>2026-05-02T16:07:27Z</time></trkpt><trkpt lat="44.773827573547315" lon="10.236692183760944"><ele>89.66666666666667</ele><time>2026-05-02T16:07:28Z</time></trkpt><trkpt lat="44.77377294114143" lon="10.236954084226927"><ele>89.0</ele><time>2026-05-02T16:07:29Z</time></trkpt><trkpt lat="44.77372090529761" lon="10.237202500259995"><ele>89.0</ele><time>2026-05-02T16:07:30Z</time></trkpt><trkpt lat="44.77366617963" lon="10.237472105655888"><ele>89.0</ele><time>2026-05-02T16:07:31Z</time></trkpt><trkpt lat="44.773618201547016" lon="10.237714808324725"><ele>89.0</ele><time>2026-05-02T16:07:32Z</time></trkpt><trkpt lat="44.773565247707154" lon="10.237954506678367"><ele>90.0</ele><time>2026-05-02T16:07:33Z</time></trkpt><trkpt lat="44.77351065929513" lon="10.238203980296952"><ele>91.0</ele><time>2026-05-02T16:07:34Z</time></trkpt><trkpt lat="44.773460513012836" lon="10.238454137838154"><ele>92.0</ele><time>2026-05-02T16:07:35Z</time></trkpt><trkpt lat="44.77341146882851" lon="10.238702561214748"><ele>92.0</ele><time>2026-05-02T16:07:36Z</time></trkpt><trkpt lat="44.77336962655885" lon="10.238941065217904"><ele>92.0</ele><time>2026-05-02T16:07:37Z</time></trkpt><trkpt lat="44.773347032713616" lon="10.239165989438614"><ele>92.0</ele><time>2026-05-02T16:07:38Z</time></trkpt><trkpt lat="44.7733514648539" lon="10.239412151461156"><ele>92.0</ele><time>2026-05-02T16:07:39Z</time></trkpt><trkpt lat="44.773381063828026" lon="10.239673252320605"><ele>92.0</ele><time>2026-05-02T16:07:40Z</time></trkpt><trkpt lat="44.77340715125593" lon="10.239943003081416"><ele>92.0</ele><time>2026-05-02T16:07:41Z</time></trkpt><trkpt lat="44.7734199075258" lon="10.24021854053231"><ele>91.33333333333334</ele><time>2026-05-02T16:07:42Z</time></trkpt><trkpt lat="44.773434974557894" lon="10.240501225532133"><ele>90.66666666666667</ele><time>2026-05-02T16:07:43Z</time></trkpt><trkpt lat="44.77344740275074" lon="10.24076962819594"><ele>90.0</ele><time>2026-05-02T16:07:44Z</time></trkpt><trkpt lat="44.77346340918436" lon="10.241018929957418"><ele>90.0</ele><time>2026-05-02T16:07:45Z</time></trkpt><trkpt lat="44.77347796715145" lon="10.241178311356876"><ele>90.0</ele><time>2026-05-02T16:07:46Z</time></trkpt><trkpt lat="44.773494654886576" lon="10.241317588031233"><ele>90.0</ele><time>2026-05-02T16:07:47Z</time></trkpt><trkpt lat="44.77351700673485" lon="10.241803592226537"><ele>89.0</ele><time>2026-05-02T16:07:48Z</time></trkpt><trkpt lat="44.77356520458028" lon="10.24205699341107"><ele>88.0</ele><time>2026-05-02T16:07:49Z</time></trkpt><trkpt lat="44.773627302923195" lon="10.242312163436221"><ele>87.0</ele><time>2026-05-02T16:07:50Z</time></trkpt><trkpt lat="44.773697213333364" lon="10.242568263170064"><ele>87.0</ele><time>2026-05-02T16:07:51Z</time></trkpt><trkpt lat="44.77374804938348" lon="10.242835371276724"><ele>87.0</ele><time>2026-05-02T16:07:52Z</time></trkpt><trkpt lat="44.7738072367075" lon="10.243083118341922"><ele>87.0</ele><time>2026-05-02T16:07:53Z</time></trkpt><trkpt lat="44.773865992663566" lon="10.243322665077034"><ele>86.66666666666667</ele><time>2026-05-02T16:07:54Z</time></trkpt><trkpt lat="44.77392394350245" lon="10.243562145068767"><ele>86.33333333333334</ele><time>2026-05-02T16:07:55Z</time></trkpt><trkpt lat="44.77398276074418" lon="10.24381137303559"><ele>86.0</ele><time>2026-05-02T16:07:56Z</time></trkpt><trkpt lat="44.774040668671645" lon="10.244057285005697"><ele>86.0</ele><time>2026-05-02T16:07:57Z</time></trkpt><trkpt lat="44.774098201505616" lon="10.244301604294305"><ele>86.0</ele><time>2026-05-02T16:07:58Z</time></trkpt><trkpt lat="44.774156769506675" lon="10.244549033746132"><ele>86.0</ele><time>2026-05-02T16:07:59Z</time></trkpt><trkpt lat="44.77421726472211" lon="10.244798767250728"><ele>86.66666666666667</ele><time>2026-05-02T16:08:00Z</time></trkpt><trkpt lat="44.77427747740716" lon="10.245046922965464"><ele>87.33333333333333</ele><time>2026-05-02T16:08:01Z</time></trkpt><trkpt lat="44.77433637900892" lon="10.245298158608785"><ele>88.0</ele><time>2026-05-02T16:08:02Z</time></trkpt><trkpt lat="44.77439455732613" lon="10.245546116646302"><ele>87.0</ele><time>2026-05-02T16:08:03Z</time></trkpt><trkpt lat="44.77445343281238" lon="10.245795510299045"><ele>86.0</ele><time>2026-05-02T16:08:04Z</time></trkpt><trkpt lat="44.77451382970226" lon="10.246049832148648"><ele>85.0</ele><time>2026-05-02T16:08:05Z</time></trkpt><trkpt lat="44.7745742882557" lon="10.24630182469652"><ele>85.33333333333333</ele><time>2026-05-02T16:08:06Z</time></trkpt><trkpt lat="44.7746347784808" lon="10.246553949096944"><ele>85.66666666666667</ele><time>2026-05-02T16:08:07Z</time></trkpt><trkpt lat="44.77469518925955" lon="10.246805742351908"><ele>86.0</ele><time>2026-05-02T16:08:08Z</time></trkpt><trkpt lat="44.77475631803596" lon="10.247053674641764"><ele>86.0</ele><time>2026-05-02T16:08:09Z</time></trkpt><trkpt lat="44.77481113133398" lon="10.247281322627776"><ele>86.0</ele><time>2026-05-02T16:08:10Z</time></trkpt><trkpt lat="44.77486268631173" lon="10.247494996912765"><ele>86.0</ele><time>2026-05-02T16:08:11Z</time></trkpt><trkpt lat="44.77490430116609" lon="10.247717454741382"><ele>86.0</ele><time>2026-05-02T16:08:12Z</time></trkpt><trkpt lat="44.77493784142289" lon="10.247956679126219"><ele>86.0</ele><time>2026-05-02T16:08:13Z</time></trkpt><trkpt lat="44.77496751402197" lon="10.248197480263519"><ele>86.0</ele><time>2026-05-02T16:08:13.999Z</time></trkpt><trkpt lat="44.77499745484485" lon="10.248442014253516"><ele>86.0</ele><time>2026-05-02T16:08:14.999Z</time></trkpt><trkpt lat="44.77502736811567" lon="10.248689219236287"><ele>86.0</ele><time>2026-05-02T16:08:15.999Z</time></trkpt><trkpt lat="44.77504035673577" lon="10.248929380726642"><ele>86.0</ele><time>2026-05-02T16:08:16.999Z</time></trkpt><trkpt lat="44.77501544238791" lon="10.249181537325402"><ele>86.0</ele><time>2026-05-02T16:08:17.999Z</time></trkpt><trkpt lat="44.77497700624177" lon="10.249449461253889"><ele>86.0</ele><time>2026-05-02T16:08:18.999Z</time></trkpt><trkpt lat="44.7749483702584" lon="10.249725489529741"><ele>86.0</ele><time>2026-05-02T16:08:19.999Z</time></trkpt><trkpt lat="44.774970753288805" lon="10.25001009606121"><ele>86.0</ele><time>2026-05-02T16:08:20.999Z</time></trkpt><trkpt lat="44.775036512263036" lon="10.250280831636646"><ele>86.0</ele><time>2026-05-02T16:08:21.999Z</time></trkpt><trkpt lat="44.77512768568033" lon="10.250533799643641"><ele>86.0</ele><time>2026-05-02T16:08:22.999Z</time></trkpt><trkpt lat="44.77521199011559" lon="10.250779821050019"><ele>85.0</ele><time>2026-05-02T16:08:23.999Z</time></trkpt><trkpt lat="44.775262987341556" lon="10.251005228010184"><ele>84.0</ele><time>2026-05-02T16:08:24.999Z</time></trkpt><trkpt lat="44.775303843014946" lon="10.251221602006087"><ele>83.0</ele><time>2026-05-02T16:08:25.999Z</time></trkpt><trkpt lat="44.77531045267158" lon="10.251447258469806"><ele>82.66666666666667</ele><time>2026-05-02T16:08:26.999Z</time></trkpt><trkpt lat="44.775282056655165" lon="10.25168984181011"><ele>82.33333333333333</ele><time>2026-05-02T16:08:27.999Z</time></trkpt><trkpt lat="44.77521248235299" lon="10.251928848847452"><ele>82.0</ele><time>2026-05-02T16:08:28.999Z</time></trkpt><trkpt lat="44.77512357431272" lon="10.252174042071097"><ele>83.66666666666666</ele><time>2026-05-02T16:08:29.999Z</time></trkpt><trkpt lat="44.77503907043884" lon="10.252408036741674"><ele>85.33333333333333</ele><time>2026-05-02T16:08:30.999Z</time></trkpt><trkpt lat="44.77499884070855" lon="10.25263772995428"><ele>87.0</ele><time>2026-05-02T16:08:31.999Z</time></trkpt><trkpt lat="44.77495732508051" lon="10.25288322395446"><ele>87.0</ele><time>2026-05-02T16:08:32.999Z</time></trkpt><trkpt lat="44.774925450333136" lon="10.253131300295879"><ele>87.0</ele><time>2026-05-02T16:08:33.999Z</time></trkpt><trkpt lat="44.77489556561597" lon="10.253364428571278"><ele>87.0</ele><time>2026-05-02T16:08:34.999Z</time></trkpt><trkpt lat="44.77486502529876" lon="10.253602671359053"><ele>87.0</ele><time>2026-05-02T16:08:35.999Z</time></trkpt><trkpt lat="44.774836233026925" lon="10.253834019228108"><ele>87.0</ele><time>2026-05-02T16:08:36.999Z</time></trkpt><trkpt lat="44.77481096269111" lon="10.25404563149389"><ele>87.0</ele><time>2026-05-02T16:08:37.999Z</time></trkpt><trkpt lat="44.774787141003365" lon="10.254245113919437"><ele>87.0</ele><time>2026-05-02T16:08:38.999Z</time></trkpt><trkpt lat="44.77476213429147" lon="10.25445732692079"><ele>87.0</ele><time>2026-05-02T16:08:39.999Z</time></trkpt><trkpt lat="44.77473690117641" lon="10.254671277991154"><ele>87.0</ele><time>2026-05-02T16:08:40.999Z</time></trkpt><trkpt lat="44.77470980822371" lon="10.254893887195689"><ele>87.0</ele><time>2026-05-02T16:08:41.999Z</time></trkpt><trkpt lat="44.77468171803323" lon="10.255116061721985"><ele>87.0</ele><time>2026-05-02T16:08:42.999Z</time></trkpt><trkpt lat="44.77465449018172" lon="10.255331415708266"><ele>87.0</ele><time>2026-05-02T16:08:43.999Z</time></trkpt><trkpt lat="44.774628369290916" lon="10.255538014423704"><ele>86.0</ele><time>2026-05-02T16:08:44.999Z</time></trkpt><trkpt lat="44.7746031284096" lon="10.25573765268455"><ele>85.0</ele><time>2026-05-02T16:08:45.999Z</time></trkpt><trkpt lat="44.774580938570836" lon="10.255913159527367"><ele>84.0</ele><time>2026-05-02T16:08:46.999Z</time></trkpt><trkpt lat="44.7745654805568" lon="10.256037664871721"><ele>83.0</ele><time>2026-05-02T16:08:47.999Z</time></trkpt><trkpt lat="44.7745546339408" lon="10.256130386814258"><ele>82.0</ele><time>2026-05-02T16:08:48.999Z</time></trkpt><trkpt lat="44.774555944979745" lon="10.256291545371628"><ele>82.0</ele><time>2026-05-02T16:08:50.999Z</time></trkpt><trkpt lat="44.774527553068566" lon="10.25641635252296"><ele>82.0</ele><time>2026-05-02T16:08:51.999Z</time></trkpt><trkpt lat="44.77450446266703" lon="10.256560888688194"><ele>82.0</ele><time>2026-05-02T16:08:52.999Z</time></trkpt><trkpt lat="44.774477873786914" lon="10.256727323720572"><ele>82.0</ele><time>2026-05-02T16:08:53.999Z</time></trkpt><trkpt lat="44.77445299577513" lon="10.256902884964488"><ele>82.0</ele><time>2026-05-02T16:08:54.999Z</time></trkpt><trkpt lat="44.77443050036813" lon="10.257080881533671"><ele>82.5</ele><time>2026-05-02T16:08:55.999Z</time></trkpt><trkpt lat="44.774409183852725" lon="10.257252426181905"><ele>83.0</ele><time>2026-05-02T16:08:56.999Z</time></trkpt><trkpt lat="44.7743876139381" lon="10.257417615377205"><ele>83.5</ele><time>2026-05-02T16:08:57.999Z</time></trkpt><trkpt lat="44.77436496177189" lon="10.257584883040927"><ele>84.0</ele><time>2026-05-02T16:08:58.999Z</time></trkpt><trkpt lat="44.77434144565601" lon="10.257748716294564"><ele>84.16666666666667</ele><time>2026-05-02T16:08:59.999Z</time></trkpt><trkpt lat="44.7743218520796" lon="10.257885221866673"><ele>84.33333333333333</ele><time>2026-05-02T16:09:00.999Z</time></trkpt><trkpt lat="44.77431736669254" lon="10.258011496078822"><ele>84.5</ele><time>2026-05-02T16:09:01.999Z</time></trkpt><trkpt lat="44.77430253228871" lon="10.2581018328594"><ele>84.66666666666666</ele><time>2026-05-02T16:09:02.999Z</time></trkpt><trkpt lat="44.77432689929757" lon="10.258226267071063"><ele>84.83333333333333</ele><time>2026-05-02T16:09:04.999Z</time></trkpt><trkpt lat="44.774406632634786" lon="10.258266180084322"><ele>85.0</ele><time>2026-05-02T16:09:05.999Z</time></trkpt><trkpt lat="44.77449850671656" lon="10.258296856616342"><ele>85.0</ele><time>2026-05-02T16:09:06.999Z</time></trkpt><trkpt lat="44.77459556743451" lon="10.258343697641648"><ele>85.0</ele><time>2026-05-02T16:09:07.999Z</time></trkpt><trkpt lat="44.77470194358109" lon="10.258394464078421"><ele>85.0</ele><time>2026-05-02T16:09:08.999Z</time></trkpt><trkpt lat="44.77481068677118" lon="10.258445736576025"><ele>85.0</ele><time>2026-05-02T16:09:09.999Z</time></trkpt><trkpt lat="44.77493751543959" lon="10.258505536337397"><ele>85.0</ele><time>2026-05-02T16:09:11Z</time></trkpt><trkpt lat="44.775077183777775" lon="10.25855771148015"><ele>85.0</ele><time>2026-05-02T16:09:12Z</time></trkpt><trkpt lat="44.77521441891662" lon="10.25862181865487"><ele>85.0</ele><time>2026-05-02T16:09:13Z</time></trkpt><trkpt lat="44.775351119366135" lon="10.258683016269854"><ele>85.0</ele><time>2026-05-02T16:09:14Z</time></trkpt><trkpt lat="44.77547860546799" lon="10.258739772035659"><ele>85.16666666666666</ele><time>2026-05-02T16:09:15Z</time></trkpt><trkpt lat="44.775585967238776" lon="10.258798287550224"><ele>85.33333333333333</ele><time>2026-05-02T16:09:16Z</time></trkpt><trkpt lat="44.77567510124424" lon="10.25884055240939"><ele>85.5</ele><time>2026-05-02T16:09:17Z</time></trkpt><trkpt lat="44.77574305171829" lon="10.258869267982103"><ele>85.66666666666667</ele><time>2026-05-02T16:09:18Z</time></trkpt><trkpt lat="44.77580556933964" lon="10.258921097465336"><ele>85.83333333333334</ele><time>2026-05-02T16:09:20Z</time></trkpt><trkpt lat="44.77578189502576" lon="10.259049224700162"><ele>86.0</ele><time>2026-05-02T16:09:22Z</time></trkpt><trkpt lat="44.77574763276557" lon="10.259204306221607"><ele>86.25</ele><time>2026-05-02T16:09:23Z</time></trkpt><trkpt lat="44.77570970753033" lon="10.259384354878472"><ele>86.5</ele><time>2026-05-02T16:09:24Z</time></trkpt><trkpt lat="44.775677064932786" lon="10.259560838415538"><ele>86.75</ele><time>2026-05-02T16:09:25Z</time></trkpt><trkpt lat="44.77564426137" lon="10.259737270630477"><ele>87.0</ele><time>2026-05-02T16:09:26Z</time></trkpt><trkpt lat="44.77560638793445" lon="10.259927050307716"><ele>86.25</ele><time>2026-05-02T16:09:27Z</time></trkpt><trkpt lat="44.775570599478435" lon="10.260108566379621"><ele>85.5</ele><time>2026-05-02T16:09:28Z</time></trkpt><trkpt lat="44.775540655397776" lon="10.26026072299396"><ele>84.75</ele><time>2026-05-02T16:09:29Z</time></trkpt><trkpt lat="44.7755095226959" lon="10.260428583931782"><ele>84.0</ele><time>2026-05-02T16:09:30Z</time></trkpt><trkpt lat="44.775476045989315" lon="10.260591690422947"><ele>84.0</ele><time>2026-05-02T16:09:31Z</time></trkpt><trkpt lat="44.77544404578175" lon="10.260747231273713"><ele>84.0</ele><time>2026-05-02T16:09:32Z</time></trkpt><trkpt lat="44.77541583826991" lon="10.260889522306048"><ele>84.0</ele><time>2026-05-02T16:09:33Z</time></trkpt><trkpt lat="44.77539432162284" lon="10.26102707600389"><ele>84.0</ele><time>2026-05-02T16:09:34Z</time></trkpt><trkpt lat="44.77537217258423" lon="10.261159801692317"><ele>84.0</ele><time>2026-05-02T16:09:35Z</time></trkpt><trkpt lat="44.775350040011126" lon="10.261297100550628"><ele>84.0</ele><time>2026-05-02T16:09:36Z</time></trkpt><trkpt lat="44.77532027170626" lon="10.261430472011241"><ele>84.0</ele><time>2026-05-02T16:09:37Z</time></trkpt><trkpt lat="44.77529697670341" lon="10.261570065003138"><ele>84.0</ele><time>2026-05-02T16:09:38Z</time></trkpt><trkpt lat="44.775266594082574" lon="10.26169554535838"><ele>84.0</ele><time>2026-05-02T16:09:39Z</time></trkpt><trkpt lat="44.775228241811405" lon="10.26182412748383"><ele>84.0</ele><time>2026-05-02T16:09:40Z</time></trkpt><trkpt lat="44.77520200723753" lon="10.261957431458617"><ele>84.0</ele><time>2026-05-02T16:09:41Z</time></trkpt><trkpt lat="44.77519062393574" lon="10.262096594912574"><ele>84.0</ele><time>2026-05-02T16:09:42Z</time></trkpt><trkpt lat="44.77515385118463" lon="10.262241236353725"><ele>84.0</ele><time>2026-05-02T16:09:43Z</time></trkpt><trkpt lat="44.77512390214778" lon="10.262400980689758"><ele>84.0</ele><time>2026-05-02T16:09:44Z</time></trkpt><trkpt lat="44.775089462518046" lon="10.262570452196965"><ele>84.0</ele><time>2026-05-02T16:09:45Z</time></trkpt><trkpt lat="44.77505536425289" lon="10.262742265174017"><ele>84.0</ele><time>2026-05-02T16:09:46Z</time></trkpt><trkpt lat="44.775013897104984" lon="10.262920814552428"><ele>84.0</ele><time>2026-05-02T16:09:47Z</time></trkpt><trkpt lat="44.7749829954099" lon="10.263115897296295"><ele>84.0</ele><time>2026-05-02T16:09:48Z</time></trkpt><trkpt lat="44.77494604465329" lon="10.263301205957303"><ele>84.0</ele><time>2026-05-02T16:09:49Z</time></trkpt><trkpt lat="44.774907692926675" lon="10.263486327196734"><ele>84.0</ele><time>2026-05-02T16:09:50Z</time></trkpt><trkpt lat="44.774871591397385" lon="10.26367337456982"><ele>84.0</ele><time>2026-05-02T16:09:51Z</time></trkpt><trkpt lat="44.77483568805504" lon="10.26386938143943"><ele>84.0</ele><time>2026-05-02T16:09:52Z</time></trkpt><trkpt lat="44.774806177501716" lon="10.264052537962527"><ele>84.5</ele><time>2026-05-02T16:09:53Z</time></trkpt><trkpt lat="44.77477619629271" lon="10.264217886514253"><ele>85.0</ele><time>2026-05-02T16:09:54Z</time></trkpt><trkpt lat="44.77474399900745" lon="10.264372753798739"><ele>85.5</ele><time>2026-05-02T16:09:55Z</time></trkpt><trkpt lat="44.77470864220887" lon="10.264534104420163"><ele>86.0</ele><time>2026-05-02T16:09:56Z</time></trkpt><trkpt lat="44.774678387902384" lon="10.264676416012989"><ele>86.0</ele><time>2026-05-02T16:09:57Z</time></trkpt><trkpt lat="44.77464818633218" lon="10.264782716486426"><ele>86.0</ele><time>2026-05-02T16:09:58Z</time></trkpt><trkpt lat="44.77461236236914" lon="10.264873477425489"><ele>86.0</ele><time>2026-05-02T16:09:59Z</time></trkpt><trkpt lat="44.77457967265367" lon="10.264952939408941"><ele>86.0</ele><time>2026-05-02T16:10:00Z</time></trkpt><trkpt lat="44.77443891712325" lon="10.264885620750924"><ele>86.0</ele><time>2026-05-02T16:10:02Z</time></trkpt><trkpt lat="44.77437924283617" lon="10.26476485783549"><ele>86.0</ele><time>2026-05-02T16:10:03Z</time></trkpt><trkpt lat="44.77433094094483" lon="10.264609929900125"><ele>86.0</ele><time>2026-05-02T16:10:04Z</time></trkpt><trkpt lat="44.77426836616887" lon="10.264462100395981"><ele>86.0</ele><time>2026-05-02T16:10:05Z</time></trkpt><trkpt lat="44.77419402706159" lon="10.264325033126974"><ele>86.0</ele><time>2026-05-02T16:10:06Z</time></trkpt><trkpt lat="44.77412087165969" lon="10.264189647776888"><ele>86.0</ele><time>2026-05-02T16:10:07Z</time></trkpt><trkpt lat="44.77405641302741" lon="10.264042393502812"><ele>86.0</ele><time>2026-05-02T16:10:08Z</time></trkpt><trkpt lat="44.77399556420583" lon="10.263909736385827"><ele>86.0</ele><time>2026-05-02T16:10:09Z</time></trkpt><trkpt lat="44.77393618925334" lon="10.263801297986218"><ele>86.0</ele><time>2026-05-02T16:10:10Z</time></trkpt><trkpt lat="44.773899083854786" lon="10.263685333443004"><ele>86.0</ele><time>2026-05-02T16:10:11Z</time></trkpt><trkpt lat="44.77386363399399" lon="10.263599769333808"><ele>86.0</ele><time>2026-05-02T16:10:12Z</time></trkpt><trkpt lat="44.773960570471885" lon="10.263433305215319"><ele>86.0</ele><time>2026-05-02T16:10:13Z</time></trkpt><trkpt lat="44.773985099552846" lon="10.263340266730616"><ele>86.0</ele><time>2026-05-02T16:10:14Z</time></trkpt><trkpt lat="44.774001544463395" lon="10.263253913936415"><ele>86.0</ele><time>2026-05-02T16:10:16Z</time></trkpt><trkpt lat="44.77401926285615" lon="10.263153133163517"><ele>86.0</ele><time>2026-05-02T16:10:42.999Z</time></trkpt><trkpt lat="44.77400168402312" lon="10.263042427692126"><ele>86.0</ele><time>2026-05-02T16:10:44.999Z</time></trkpt><trkpt lat="44.773884422003505" lon="10.26305335712319"><ele>86.00000000000001</ele><time>2026-05-02T16:10:45.999Z</time></trkpt><trkpt lat="44.773814613992656" lon="10.263012842655167"><ele>86.0</ele><time>2026-05-02T16:10:46.999Z</time></trkpt><trkpt lat="44.77374427454383" lon="10.262996628107574"><ele>86.0</ele><time>2026-05-02T16:10:47.999Z</time></trkpt><trkpt lat="44.77370524609772" lon="10.262907070186914"><ele>86.0</ele><time>2026-05-02T16:10:48.999Z</time></trkpt><trkpt lat="44.77365883998842" lon="10.262829531543174"><ele>86.0</ele><time>2026-05-02T16:10:49.999Z</time></trkpt><trkpt lat="44.773622270298645" lon="10.262736449869385"><ele>86.00000000000001</ele><time>2026-05-02T16:10:50.999Z</time></trkpt><trkpt lat="44.773618890895456" lon="10.26264305351792"><ele>86.0</ele><time>2026-05-02T16:10:52.999Z</time></trkpt><trkpt lat="44.77362020570477" lon="10.26253287447874"><ele>86.0</ele><time>2026-05-02T16:14:49.999Z</time></trkpt><trkpt lat="44.773638017827594" lon="10.2624101076878"><ele>86.0</ele><time>2026-05-02T16:14:51.999Z</time></trkpt><trkpt lat="44.77365955729962" lon="10.26229036700962"><ele>86.0</ele><time>2026-05-02T16:14:53.999Z</time></trkpt><trkpt lat="44.77370477828535" lon="10.262179023537461"><ele>86.0</ele><time>2026-05-02T16:14:55.999Z</time></trkpt><trkpt lat="44.7737685569606" lon="10.262150098112242"><ele>86.0</ele><time>2026-05-02T16:14:57.999Z</time></trkpt><trkpt lat="44.77382861889157" lon="10.262195495628832"><ele>86.0</ele><time>2026-05-02T16:15:33Z</time></trkpt><trkpt lat="44.773897246471826" lon="10.26220922744537"><ele>86.0</ele><time>2026-05-02T16:15:38Z</time></trkpt><trkpt lat="44.77379326344932" lon="10.26218331805527"><ele>86.0</ele><time>2026-05-02T16:17:10.999Z</time></trkpt><trkpt lat="44.773713722839936" lon="10.262187375045771"><ele>86.0</ele><time>2026-05-02T16:18:41.999Z</time></trkpt><trkpt lat="44.77366074108524" lon="10.262263841559157"><ele>86.0</ele><time>2026-05-02T16:18:43.999Z</time></trkpt><trkpt lat="44.77364149394861" lon="10.262358324439065"><ele>86.0</ele><time>2026-05-02T16:18:46.999Z</time></trkpt><trkpt lat="44.77361941726844" lon="10.262466697470781"><ele>86.0</ele><time>2026-05-02T16:18:49.999Z</time></trkpt><trkpt lat="44.77363665128825" lon="10.26255530161388"><ele>86.0</ele><time>2026-05-02T16:18:51.999Z</time></trkpt><trkpt lat="44.773662480376935" lon="10.262642925127583"><ele>86.0</ele><time>2026-05-02T16:18:56.999Z</time></trkpt><trkpt lat="44.77369371123831" lon="10.2627290354098"><ele>86.0</ele><time>2026-05-02T16:23:12.999Z</time></trkpt><trkpt lat="44.773645339672505" lon="10.26278814437176"><ele>86.0</ele><time>2026-05-02T16:23:14.999Z</time></trkpt><trkpt lat="44.77358585275154" lon="10.262832445425623"><ele>86.0</ele><time>2026-05-02T16:23:18.999Z</time></trkpt><trkpt lat="44.7736482329554" lon="10.262802595985022"><ele>86.0</ele><time>2026-05-02T16:24:26Z</time></trkpt><trkpt lat="44.77370643822305" lon="10.262749768720031"><ele>86.0</ele><time>2026-05-02T16:24:32Z</time></trkpt></trkseg></trk></gpx>